<?xml version="1.0" encoding="UTF-8"?>
<gpx version="1.1" creator="https://www.youtrack.es" xsi:schemaLocation="http://www.topografix.com/GPX/1/1 http://www.topografix.com/GPX/1/1/gpx.xsd http://www.garmin.com/xmlschemas/GpxExtensions/v3 http://www.garmin.com/xmlschemas/GpxExtensionsv3.xsd http://www.garmin.com/xmlschemas/TrackPointExtension/v1 http://www.garmin.com/xmlschemas/TrackPointExtensionv1.xsd" xmlns:gpxtpx="http://www.garmin.com/xmlschemas/TrackPointExtension/v1" xmlns:gpxx="http://www.garmin.com/xmlschemas/GpxExtensions/v3" xmlns:xsi="http://www.w3.org/2001/XMLSchema-instance">
  <metadata>
    <author>
      <name>ruben tacor</name>
      <email id="iphoneruben8" domain="gmail.com"/>
    </author>
    <link href="https://www.youtrack.es">
      <text>YouTrack.es</text>
    </link>
    <time>2026-05-10T17:34:37Z</time>
  </metadata>
  <trk>
    <src>https://www.youtrack.es</src>
    <link href="https://www.youtrack.es/ruta/838-020618">
      <text>YouTrack.es</text>
    </link>
    <trkseg>
      <trkpt lat="27.979119" lon="-15.532459">
        <ele>576.80</ele>
        <time>2018-02-17T08:34:48.29Z</time>
      </trkpt>
      <trkpt lat="27.979013" lon="-15.532478">
        <ele>566.90</ele>
        <time>2018-02-17T08:34:53.29Z</time>
      </trkpt>
      <trkpt lat="27.978916" lon="-15.532450">
        <ele>993.81</ele>
        <time>2018-02-17T08:34:58.29Z</time>
      </trkpt>
      <trkpt lat="27.978841" lon="-15.532373">
        <ele>994.11</ele>
        <time>2018-02-17T08:35:04.29Z</time>
      </trkpt>
      <trkpt lat="27.978817" lon="-15.532273">
        <ele>994.70</ele>
        <time>2018-02-17T08:35:09.29Z</time>
      </trkpt>
      <trkpt lat="27.978746" lon="-15.532198">
        <ele>995.00</ele>
        <time>2018-02-17T08:35:13.29Z</time>
      </trkpt>
      <trkpt lat="27.978647" lon="-15.532165">
        <ele>994.26</ele>
        <time>2018-02-17T08:35:16.29Z</time>
      </trkpt>
      <trkpt lat="27.978577" lon="-15.532083">
        <ele>993.80</ele>
        <time>2018-02-17T08:35:22.29Z</time>
      </trkpt>
      <trkpt lat="27.978479" lon="-15.532062">
        <ele>993.70</ele>
        <time>2018-02-17T08:35:28.29Z</time>
      </trkpt>
      <trkpt lat="27.978396" lon="-15.532017">
        <ele>993.73</ele>
        <time>2018-02-17T08:35:36.29Z</time>
      </trkpt>
      <trkpt lat="27.978298" lon="-15.532014">
        <ele>995.92</ele>
        <time>2018-02-17T08:35:44.29Z</time>
      </trkpt>
      <trkpt lat="27.978210" lon="-15.531983">
        <ele>996.70</ele>
        <time>2018-02-17T08:35:49.29Z</time>
      </trkpt>
      <trkpt lat="27.978119" lon="-15.531957">
        <ele>998.32</ele>
        <time>2018-02-17T08:35:57.29Z</time>
      </trkpt>
      <trkpt lat="27.978040" lon="-15.532012">
        <ele>999.83</ele>
        <time>2018-02-17T08:36:06.29Z</time>
      </trkpt>
      <trkpt lat="27.978029" lon="-15.532124">
        <ele>1001.27</ele>
        <time>2018-02-17T08:36:13.29Z</time>
      </trkpt>
      <trkpt lat="27.978075" lon="-15.532235">
        <ele>1002.84</ele>
        <time>2018-02-17T08:36:20.29Z</time>
      </trkpt>
      <trkpt lat="27.978032" lon="-15.532333">
        <ele>1004.81</ele>
        <time>2018-02-17T08:36:28.29Z</time>
      </trkpt>
      <trkpt lat="27.977983" lon="-15.532423">
        <ele>1006.17</ele>
        <time>2018-02-17T08:36:33.29Z</time>
      </trkpt>
      <trkpt lat="27.977944" lon="-15.532526">
        <ele>1008.01</ele>
        <time>2018-02-17T08:36:40.29Z</time>
      </trkpt>
      <trkpt lat="27.977858" lon="-15.532560">
        <ele>1009.98</ele>
        <time>2018-02-17T08:36:50.29Z</time>
      </trkpt>
      <trkpt lat="27.977925" lon="-15.532657">
        <ele>1009.50</ele>
        <time>2018-02-17T08:36:55.29Z</time>
      </trkpt>
      <trkpt lat="27.978012" lon="-15.532700">
        <ele>1009.95</ele>
        <time>2018-02-17T08:36:59.29Z</time>
      </trkpt>
      <trkpt lat="27.978009" lon="-15.532821">
        <ele>1012.01</ele>
        <time>2018-02-17T08:37:06.29Z</time>
      </trkpt>
      <trkpt lat="27.978043" lon="-15.532939">
        <ele>1013.10</ele>
        <time>2018-02-17T08:37:18.29Z</time>
      </trkpt>
      <trkpt lat="27.978086" lon="-15.533039">
        <ele>1014.10</ele>
        <time>2018-02-17T08:37:22.29Z</time>
      </trkpt>
      <trkpt lat="27.978126" lon="-15.533134">
        <ele>1015.08</ele>
        <time>2018-02-17T08:37:33.29Z</time>
      </trkpt>
      <trkpt lat="27.978174" lon="-15.533225">
        <ele>1016.77</ele>
        <time>2018-02-17T08:37:40.29Z</time>
      </trkpt>
      <trkpt lat="27.978271" lon="-15.533246">
        <ele>1018.31</ele>
        <time>2018-02-17T08:37:47.29Z</time>
      </trkpt>
      <trkpt lat="27.978276" lon="-15.533348">
        <ele>1019.10</ele>
        <time>2018-02-17T08:37:56.29Z</time>
      </trkpt>
      <trkpt lat="27.978313" lon="-15.533444">
        <ele>1021.30</ele>
        <time>2018-02-17T08:38:07.29Z</time>
      </trkpt>
      <trkpt lat="27.978280" lon="-15.533540">
        <ele>1023.45</ele>
        <time>2018-02-17T08:38:18.29Z</time>
      </trkpt>
      <trkpt lat="27.978238" lon="-15.533641">
        <ele>1025.74</ele>
        <time>2018-02-17T08:38:25.29Z</time>
      </trkpt>
      <trkpt lat="27.978205" lon="-15.533743">
        <ele>1028.70</ele>
        <time>2018-02-17T08:38:39Z</time>
      </trkpt>
      <trkpt lat="27.978180" lon="-15.533848">
        <ele>1030.60</ele>
        <time>2018-02-17T08:38:51Z</time>
      </trkpt>
      <trkpt lat="27.978217" lon="-15.533947">
        <ele>1032.30</ele>
        <time>2018-02-17T08:39:02Z</time>
      </trkpt>
      <trkpt lat="27.978235" lon="-15.534052">
        <ele>1035.10</ele>
        <time>2018-02-17T08:39:19Z</time>
      </trkpt>
      <trkpt lat="27.978179" lon="-15.534134">
        <ele>1034.66</ele>
        <time>2018-02-17T08:39:25Z</time>
      </trkpt>
      <trkpt lat="27.978103" lon="-15.534229">
        <ele>1036.31</ele>
        <time>2018-02-17T08:39:30Z</time>
      </trkpt>
      <trkpt lat="27.978036" lon="-15.534302">
        <ele>1041.27</ele>
        <time>2018-02-17T08:39:48Z</time>
      </trkpt>
      <trkpt lat="27.977980" lon="-15.534387">
        <ele>1043.95</ele>
        <time>2018-02-17T08:40:14Z</time>
      </trkpt>
      <trkpt lat="27.977902" lon="-15.534448">
        <ele>1046.13</ele>
        <time>2018-02-17T08:40:23Z</time>
      </trkpt>
      <trkpt lat="27.977870" lon="-15.534547">
        <ele>1049.18</ele>
        <time>2018-02-17T08:40:34Z</time>
      </trkpt>
      <trkpt lat="27.977817" lon="-15.534638">
        <ele>1053.11</ele>
        <time>2018-02-17T08:40:46Z</time>
      </trkpt>
      <trkpt lat="27.977762" lon="-15.534719">
        <ele>1056.58</ele>
        <time>2018-02-17T08:40:59Z</time>
      </trkpt>
      <trkpt lat="27.977684" lon="-15.534776">
        <ele>1059.17</ele>
        <time>2018-02-17T08:41:10Z</time>
      </trkpt>
      <trkpt lat="27.977622" lon="-15.534852">
        <ele>1060.85</ele>
        <time>2018-02-17T08:41:21Z</time>
      </trkpt>
      <trkpt lat="27.977574" lon="-15.534946">
        <ele>1063.18</ele>
        <time>2018-02-17T08:41:29Z</time>
      </trkpt>
      <trkpt lat="27.977548" lon="-15.535055">
        <ele>1064.20</ele>
        <time>2018-02-17T08:41:35Z</time>
      </trkpt>
      <trkpt lat="27.977501" lon="-15.535161">
        <ele>1065.44</ele>
        <time>2018-02-17T08:41:41Z</time>
      </trkpt>
      <trkpt lat="27.977456" lon="-15.535250">
        <ele>1066.57</ele>
        <time>2018-02-17T08:41:46Z</time>
      </trkpt>
      <trkpt lat="27.977425" lon="-15.535379">
        <ele>1067.00</ele>
        <time>2018-02-17T08:41:49Z</time>
      </trkpt>
      <trkpt lat="27.977376" lon="-15.535494">
        <ele>1067.06</ele>
        <time>2018-02-17T08:41:52Z</time>
      </trkpt>
      <trkpt lat="27.977284" lon="-15.535622">
        <ele>1067.22</ele>
        <time>2018-02-17T08:41:56Z</time>
      </trkpt>
      <trkpt lat="27.977217" lon="-15.535700">
        <ele>1067.59</ele>
        <time>2018-02-17T08:41:58Z</time>
      </trkpt>
      <trkpt lat="27.977151" lon="-15.535777">
        <ele>1068.70</ele>
        <time>2018-02-17T08:42:01Z</time>
      </trkpt>
      <trkpt lat="27.977101" lon="-15.535870">
        <ele>1069.45</ele>
        <time>2018-02-17T08:42:07Z</time>
      </trkpt>
      <trkpt lat="27.977174" lon="-15.535934">
        <ele>1069.60</ele>
        <time>2018-02-17T08:42:14Z</time>
      </trkpt>
      <trkpt lat="27.977258" lon="-15.535986">
        <ele>1070.94</ele>
        <time>2018-02-17T08:42:22Z</time>
      </trkpt>
      <trkpt lat="27.977307" lon="-15.536071">
        <ele>1072.52</ele>
        <time>2018-02-17T08:42:29Z</time>
      </trkpt>
      <trkpt lat="27.977326" lon="-15.536176">
        <ele>1073.30</ele>
        <time>2018-02-17T08:42:37Z</time>
      </trkpt>
      <trkpt lat="27.977432" lon="-15.536151">
        <ele>1074.30</ele>
        <time>2018-02-17T08:42:43Z</time>
      </trkpt>
      <trkpt lat="27.977520" lon="-15.536100">
        <ele>1074.30</ele>
        <time>2018-02-17T08:42:46Z</time>
      </trkpt>
      <trkpt lat="27.977609" lon="-15.536067">
        <ele>1074.30</ele>
        <time>2018-02-17T08:42:49Z</time>
      </trkpt>
      <trkpt lat="27.977689" lon="-15.536138">
        <ele>1075.10</ele>
        <time>2018-02-17T08:42:58Z</time>
      </trkpt>
      <trkpt lat="27.977773" lon="-15.536191">
        <ele>1078.22</ele>
        <time>2018-02-17T08:43:06Z</time>
      </trkpt>
      <trkpt lat="27.977863" lon="-15.536147">
        <ele>1079.43</ele>
        <time>2018-02-17T08:43:17Z</time>
      </trkpt>
      <trkpt lat="27.977863" lon="-15.536259">
        <ele>1085.74</ele>
        <time>2018-02-17T08:43:44Z</time>
      </trkpt>
      <trkpt lat="27.977807" lon="-15.536348">
        <ele>1087.43</ele>
        <time>2018-02-17T08:43:52Z</time>
      </trkpt>
      <trkpt lat="27.977784" lon="-15.536449">
        <ele>1090.42</ele>
        <time>2018-02-17T08:44:01Z</time>
      </trkpt>
      <trkpt lat="27.977887" lon="-15.536431">
        <ele>1093.50</ele>
        <time>2018-02-17T08:44:12Z</time>
      </trkpt>
      <trkpt lat="27.977972" lon="-15.536275">
        <ele>1093.60</ele>
        <time>2018-02-17T08:44:14Z</time>
      </trkpt>
      <trkpt lat="27.978082" lon="-15.536262">
        <ele>1095.13</ele>
        <time>2018-02-17T08:44:18Z</time>
      </trkpt>
      <trkpt lat="27.978163" lon="-15.536143">
        <ele>1095.70</ele>
        <time>2018-02-17T08:44:19Z</time>
      </trkpt>
      <trkpt lat="27.978235" lon="-15.536073">
        <ele>1096.02</ele>
        <time>2018-02-17T08:44:22Z</time>
      </trkpt>
      <trkpt lat="27.978315" lon="-15.536119">
        <ele>1097.04</ele>
        <time>2018-02-17T08:44:27Z</time>
      </trkpt>
      <trkpt lat="27.978402" lon="-15.536168">
        <ele>1099.60</ele>
        <time>2018-02-17T08:44:34Z</time>
      </trkpt>
      <trkpt lat="27.978415" lon="-15.536280">
        <ele>1108.10</ele>
        <time>2018-02-17T08:45:04Z</time>
      </trkpt>
      <trkpt lat="27.978421" lon="-15.536384">
        <ele>1109.50</ele>
        <time>2018-02-17T08:45:13Z</time>
      </trkpt>
      <trkpt lat="27.978373" lon="-15.536481">
        <ele>1113.10</ele>
        <time>2018-02-17T08:45:25Z</time>
      </trkpt>
      <trkpt lat="27.978460" lon="-15.536441">
        <ele>1116.59</ele>
        <time>2018-02-17T08:45:38Z</time>
      </trkpt>
      <trkpt lat="27.978549" lon="-15.536414">
        <ele>1121.60</ele>
        <time>2018-02-17T08:45:57Z</time>
      </trkpt>
      <trkpt lat="27.978547" lon="-15.536537">
        <ele>1124.50</ele>
        <time>2018-02-17T08:46:09Z</time>
      </trkpt>
      <trkpt lat="27.978609" lon="-15.536612">
        <ele>1130.58</ele>
        <time>2018-02-17T08:46:30Z</time>
      </trkpt>
      <trkpt lat="27.978636" lon="-15.536714">
        <ele>1136.38</ele>
        <time>2018-02-17T08:46:45Z</time>
      </trkpt>
      <trkpt lat="27.978694" lon="-15.536794">
        <ele>1142.67</ele>
        <time>2018-02-17T08:47:03Z</time>
      </trkpt>
      <trkpt lat="27.978760" lon="-15.536866">
        <ele>1148.39</ele>
        <time>2018-02-17T08:47:22Z</time>
      </trkpt>
      <trkpt lat="27.978855" lon="-15.536864">
        <ele>1151.40</ele>
        <time>2018-02-17T08:47:34Z</time>
      </trkpt>
      <trkpt lat="27.978958" lon="-15.536831">
        <ele>1151.22</ele>
        <time>2018-02-17T08:47:39Z</time>
      </trkpt>
      <trkpt lat="27.979059" lon="-15.536795">
        <ele>1150.55</ele>
        <time>2018-02-17T08:47:43Z</time>
      </trkpt>
      <trkpt lat="27.979133" lon="-15.536728">
        <ele>1149.79</ele>
        <time>2018-02-17T08:47:46Z</time>
      </trkpt>
      <trkpt lat="27.979222" lon="-15.536713">
        <ele>1148.90</ele>
        <time>2018-02-17T08:47:55Z</time>
      </trkpt>
      <trkpt lat="27.979320" lon="-15.536680">
        <ele>1150.70</ele>
        <time>2018-02-17T08:48:02Z</time>
      </trkpt>
      <trkpt lat="27.979415" lon="-15.536701">
        <ele>1151.29</ele>
        <time>2018-02-17T08:48:13Z</time>
      </trkpt>
      <trkpt lat="27.979502" lon="-15.536741">
        <ele>1158.50</ele>
        <time>2018-02-17T08:48:42Z</time>
      </trkpt>
      <trkpt lat="27.979579" lon="-15.536805">
        <ele>1160.88</ele>
        <time>2018-02-17T08:48:52Z</time>
      </trkpt>
      <trkpt lat="27.979468" lon="-15.536840">
        <ele>1161.10</ele>
        <time>2018-02-17T08:48:55Z</time>
      </trkpt>
      <trkpt lat="27.979341" lon="-15.536851">
        <ele>1161.80</ele>
        <time>2018-02-17T08:48:59Z</time>
      </trkpt>
      <trkpt lat="27.979227" lon="-15.536905">
        <ele>1163.23</ele>
        <time>2018-02-17T08:49:02Z</time>
      </trkpt>
      <trkpt lat="27.979275" lon="-15.536804">
        <ele>1164.47</ele>
        <time>2018-02-17T08:49:05Z</time>
      </trkpt>
      <trkpt lat="27.979371" lon="-15.536820">
        <ele>1165.97</ele>
        <time>2018-02-17T08:49:13Z</time>
      </trkpt>
      <trkpt lat="27.979298" lon="-15.536900">
        <ele>1166.80</ele>
        <time>2018-02-17T08:49:16Z</time>
      </trkpt>
      <trkpt lat="27.979406" lon="-15.536847">
        <ele>1167.20</ele>
        <time>2018-02-17T08:49:19Z</time>
      </trkpt>
      <trkpt lat="27.979499" lon="-15.536840">
        <ele>1167.30</ele>
        <time>2018-02-17T08:49:22Z</time>
      </trkpt>
      <trkpt lat="27.979591" lon="-15.536817">
        <ele>1167.80</ele>
        <time>2018-02-17T08:49:24Z</time>
      </trkpt>
      <trkpt lat="27.979684" lon="-15.536770">
        <ele>1167.88</ele>
        <time>2018-02-17T08:49:28Z</time>
      </trkpt>
      <trkpt lat="27.979770" lon="-15.536798">
        <ele>1169.17</ele>
        <time>2018-02-17T08:49:57Z</time>
      </trkpt>
      <trkpt lat="27.979830" lon="-15.536885">
        <ele>1172.10</ele>
        <time>2018-02-17T08:50:11Z</time>
      </trkpt>
      <trkpt lat="27.979761" lon="-15.536969">
        <ele>1176.50</ele>
        <time>2018-02-17T08:50:30Z</time>
      </trkpt>
      <trkpt lat="27.979831" lon="-15.537036">
        <ele>1177.80</ele>
        <time>2018-02-17T08:51:01Z</time>
      </trkpt>
      <trkpt lat="27.979834" lon="-15.537145">
        <ele>1179.95</ele>
        <time>2018-02-17T08:51:18Z</time>
      </trkpt>
      <trkpt lat="27.979840" lon="-15.537251">
        <ele>1182.19</ele>
        <time>2018-02-17T08:51:27Z</time>
      </trkpt>
      <trkpt lat="27.979893" lon="-15.537343">
        <ele>1185.20</ele>
        <time>2018-02-17T08:51:39Z</time>
      </trkpt>
      <trkpt lat="27.979991" lon="-15.537375">
        <ele>1186.48</ele>
        <time>2018-02-17T08:51:45Z</time>
      </trkpt>
      <trkpt lat="27.980060" lon="-15.537452">
        <ele>1187.22</ele>
        <time>2018-02-17T08:51:55Z</time>
      </trkpt>
      <trkpt lat="27.980098" lon="-15.537554">
        <ele>1189.23</ele>
        <time>2018-02-17T08:52:04Z</time>
      </trkpt>
      <trkpt lat="27.980098" lon="-15.537660">
        <ele>1190.57</ele>
        <time>2018-02-17T08:52:14Z</time>
      </trkpt>
      <trkpt lat="27.980143" lon="-15.537751">
        <ele>1191.84</ele>
        <time>2018-02-17T08:52:23Z</time>
      </trkpt>
      <trkpt lat="27.980132" lon="-15.537853">
        <ele>1193.14</ele>
        <time>2018-02-17T08:52:31Z</time>
      </trkpt>
      <trkpt lat="27.980098" lon="-15.537972">
        <ele>1193.70</ele>
        <time>2018-02-17T08:52:37Z</time>
      </trkpt>
      <trkpt lat="27.980113" lon="-15.538087">
        <ele>1193.70</ele>
        <time>2018-02-17T08:52:41Z</time>
      </trkpt>
      <trkpt lat="27.980008" lon="-15.538225">
        <ele>1193.27</ele>
        <time>2018-02-17T08:52:45Z</time>
      </trkpt>
      <trkpt lat="27.979871" lon="-15.538222">
        <ele>1193.40</ele>
        <time>2018-02-17T08:52:46Z</time>
      </trkpt>
      <trkpt lat="27.979902" lon="-15.538342">
        <ele>1193.50</ele>
        <time>2018-02-17T08:52:51Z</time>
      </trkpt>
      <trkpt lat="27.979962" lon="-15.538422">
        <ele>1194.23</ele>
        <time>2018-02-17T08:52:55Z</time>
      </trkpt>
      <trkpt lat="27.980045" lon="-15.538487">
        <ele>1196.23</ele>
        <time>2018-02-17T08:53:02Z</time>
      </trkpt>
      <trkpt lat="27.980119" lon="-15.538550">
        <ele>1196.40</ele>
        <time>2018-02-17T08:53:08Z</time>
      </trkpt>
      <trkpt lat="27.980067" lon="-15.538635">
        <ele>1199.13</ele>
        <time>2018-02-17T08:53:27Z</time>
      </trkpt>
      <trkpt lat="27.979988" lon="-15.538698">
        <ele>1202.46</ele>
        <time>2018-02-17T08:53:39Z</time>
      </trkpt>
      <trkpt lat="27.979939" lon="-15.538790">
        <ele>1205.30</ele>
        <time>2018-02-17T08:53:50Z</time>
      </trkpt>
      <trkpt lat="27.979866" lon="-15.538861">
        <ele>1208.15</ele>
        <time>2018-02-17T08:54:03Z</time>
      </trkpt>
      <trkpt lat="27.979802" lon="-15.538774">
        <ele>1211.01</ele>
        <time>2018-02-17T08:54:16Z</time>
      </trkpt>
      <trkpt lat="27.979755" lon="-15.538683">
        <ele>1219.30</ele>
        <time>2018-02-17T08:54:44Z</time>
      </trkpt>
      <trkpt lat="27.979747" lon="-15.538570">
        <ele>1221.00</ele>
        <time>2018-02-17T08:54:59Z</time>
      </trkpt>
      <trkpt lat="27.979676" lon="-15.538499">
        <ele>1224.00</ele>
        <time>2018-02-17T08:55:08Z</time>
      </trkpt>
      <trkpt lat="27.979623" lon="-15.538406">
        <ele>1227.20</ele>
        <time>2018-02-17T08:55:20Z</time>
      </trkpt>
      <trkpt lat="27.979707" lon="-15.538443">
        <ele>1230.19</ele>
        <time>2018-02-17T08:55:29Z</time>
      </trkpt>
      <trkpt lat="27.979774" lon="-15.538371">
        <ele>1236.48</ele>
        <time>2018-02-17T08:55:50Z</time>
      </trkpt>
      <trkpt lat="27.979834" lon="-15.538290">
        <ele>1238.20</ele>
        <time>2018-02-17T08:55:57Z</time>
      </trkpt>
      <trkpt lat="27.979758" lon="-15.538347">
        <ele>1242.49</ele>
        <time>2018-02-17T08:56:11Z</time>
      </trkpt>
      <trkpt lat="27.979692" lon="-15.538430">
        <ele>1244.09</ele>
        <time>2018-02-17T08:56:19Z</time>
      </trkpt>
      <trkpt lat="27.979622" lon="-15.538527">
        <ele>1245.39</ele>
        <time>2018-02-17T08:56:24Z</time>
      </trkpt>
      <trkpt lat="27.979574" lon="-15.538618">
        <ele>1256.90</ele>
        <time>2018-02-17T08:57:07Z</time>
      </trkpt>
      <trkpt lat="27.979488" lon="-15.538581">
        <ele>1259.25</ele>
        <time>2018-02-17T08:57:13Z</time>
      </trkpt>
      <trkpt lat="27.979422" lon="-15.538502">
        <ele>1261.28</ele>
        <time>2018-02-17T08:57:21Z</time>
      </trkpt>
      <trkpt lat="27.979390" lon="-15.538406">
        <ele>1263.40</ele>
        <time>2018-02-17T08:57:33Z</time>
      </trkpt>
      <trkpt lat="27.979404" lon="-15.538519">
        <ele>1267.10</ele>
        <time>2018-02-17T08:57:49Z</time>
      </trkpt>
      <trkpt lat="27.979387" lon="-15.538416">
        <ele>1267.70</ele>
        <time>2018-02-17T08:58:04Z</time>
      </trkpt>
      <trkpt lat="27.979299" lon="-15.538398">
        <ele>1266.40</ele>
        <time>2018-02-17T08:58:19Z</time>
      </trkpt>
      <trkpt lat="27.979395" lon="-15.538416">
        <ele>1266.60</ele>
        <time>2018-02-17T08:58:27Z</time>
      </trkpt>
      <trkpt lat="27.979477" lon="-15.538465">
        <ele>1268.64</ele>
        <time>2018-02-17T08:58:35Z</time>
      </trkpt>
      <trkpt lat="27.979381" lon="-15.538448">
        <ele>1266.85</ele>
        <time>2018-02-17T08:58:51Z</time>
      </trkpt>
      <trkpt lat="27.979457" lon="-15.538386">
        <ele>1268.14</ele>
        <time>2018-02-17T08:59:17Z</time>
      </trkpt>
      <trkpt lat="27.979451" lon="-15.538491">
        <ele>1272.47</ele>
        <time>2018-02-17T09:00:47Z</time>
      </trkpt>
      <trkpt lat="27.979434" lon="-15.538618">
        <ele>1278.21</ele>
        <time>2018-02-17T09:01:40Z</time>
      </trkpt>
      <trkpt lat="27.979348" lon="-15.538657">
        <ele>1285.30</ele>
        <time>2018-02-17T09:02:09Z</time>
      </trkpt>
      <trkpt lat="27.979274" lon="-15.538756">
        <ele>1288.88</ele>
        <time>2018-02-17T09:02:19Z</time>
      </trkpt>
      <trkpt lat="27.979317" lon="-15.538874">
        <ele>1289.29</ele>
        <time>2018-02-17T09:02:23Z</time>
      </trkpt>
      <trkpt lat="27.979310" lon="-15.538985">
        <ele>1291.27</ele>
        <time>2018-02-17T09:02:29Z</time>
      </trkpt>
      <trkpt lat="27.979383" lon="-15.539062">
        <ele>1292.39</ele>
        <time>2018-02-17T09:02:34Z</time>
      </trkpt>
      <trkpt lat="27.979482" lon="-15.539062">
        <ele>1295.40</ele>
        <time>2018-02-17T09:02:47Z</time>
      </trkpt>
      <trkpt lat="27.979453" lon="-15.539164">
        <ele>1300.36</ele>
        <time>2018-02-17T09:03:04Z</time>
      </trkpt>
      <trkpt lat="27.979357" lon="-15.539195">
        <ele>1306.28</ele>
        <time>2018-02-17T09:03:26Z</time>
      </trkpt>
      <trkpt lat="27.979266" lon="-15.539194">
        <ele>1310.05</ele>
        <time>2018-02-17T09:03:41Z</time>
      </trkpt>
      <trkpt lat="27.979186" lon="-15.539248">
        <ele>1313.02</ele>
        <time>2018-02-17T09:03:51Z</time>
      </trkpt>
      <trkpt lat="27.979104" lon="-15.539296">
        <ele>1316.07</ele>
        <time>2018-02-17T09:04:02Z</time>
      </trkpt>
      <trkpt lat="27.979036" lon="-15.539375">
        <ele>1318.77</ele>
        <time>2018-02-17T09:04:12Z</time>
      </trkpt>
      <trkpt lat="27.979035" lon="-15.539483">
        <ele>1320.80</ele>
        <time>2018-02-17T09:04:19Z</time>
      </trkpt>
      <trkpt lat="27.979062" lon="-15.539596">
        <ele>1325.95</ele>
        <time>2018-02-17T09:04:38Z</time>
      </trkpt>
      <trkpt lat="27.979150" lon="-15.539558">
        <ele>1328.55</ele>
        <time>2018-02-17T09:04:49Z</time>
      </trkpt>
      <trkpt lat="27.979236" lon="-15.539521">
        <ele>1331.87</ele>
        <time>2018-02-17T09:05:06Z</time>
      </trkpt>
      <trkpt lat="27.979299" lon="-15.539609">
        <ele>1336.80</ele>
        <time>2018-02-17T09:05:27Z</time>
      </trkpt>
      <trkpt lat="27.979295" lon="-15.539712">
        <ele>1338.52</ele>
        <time>2018-02-17T09:05:36Z</time>
      </trkpt>
      <trkpt lat="27.979250" lon="-15.539803">
        <ele>1341.60</ele>
        <time>2018-02-17T09:05:50Z</time>
      </trkpt>
      <trkpt lat="27.979259" lon="-15.539906">
        <ele>1347.50</ele>
        <time>2018-02-17T09:06:11Z</time>
      </trkpt>
      <trkpt lat="27.979300" lon="-15.540008">
        <ele>1351.62</ele>
        <time>2018-02-17T09:06:27Z</time>
      </trkpt>
      <trkpt lat="27.979311" lon="-15.540114">
        <ele>1355.67</ele>
        <time>2018-02-17T09:06:44Z</time>
      </trkpt>
      <trkpt lat="27.979320" lon="-15.540219">
        <ele>1357.97</ele>
        <time>2018-02-17T09:06:56Z</time>
      </trkpt>
      <trkpt lat="27.979320" lon="-15.540325">
        <ele>1359.00</ele>
        <time>2018-02-17T09:07:04Z</time>
      </trkpt>
      <trkpt lat="27.979383" lon="-15.540404">
        <ele>1361.00</ele>
        <time>2018-02-17T09:07:13Z</time>
      </trkpt>
      <trkpt lat="27.979365" lon="-15.540509">
        <ele>1362.30</ele>
        <time>2018-02-17T09:07:25Z</time>
      </trkpt>
      <trkpt lat="27.979371" lon="-15.540616">
        <ele>1364.13</ele>
        <time>2018-02-17T09:07:37Z</time>
      </trkpt>
      <trkpt lat="27.979380" lon="-15.540733">
        <ele>1366.03</ele>
        <time>2018-02-17T09:07:48Z</time>
      </trkpt>
      <trkpt lat="27.979391" lon="-15.540836">
        <ele>1367.20</ele>
        <time>2018-02-17T09:07:54Z</time>
      </trkpt>
      <trkpt lat="27.979391" lon="-15.540944">
        <ele>1368.63</ele>
        <time>2018-02-17T09:08:02Z</time>
      </trkpt>
      <trkpt lat="27.979401" lon="-15.541054">
        <ele>1370.17</ele>
        <time>2018-02-17T09:08:10Z</time>
      </trkpt>
      <trkpt lat="27.979425" lon="-15.541157">
        <ele>1373.20</ele>
        <time>2018-02-17T09:08:20Z</time>
      </trkpt>
      <trkpt lat="27.979464" lon="-15.541250">
        <ele>1375.45</ele>
        <time>2018-02-17T09:08:29Z</time>
      </trkpt>
      <trkpt lat="27.979465" lon="-15.541353">
        <ele>1376.21</ele>
        <time>2018-02-17T09:08:36Z</time>
      </trkpt>
      <trkpt lat="27.979462" lon="-15.541462">
        <ele>1378.45</ele>
        <time>2018-02-17T09:08:48Z</time>
      </trkpt>
      <trkpt lat="27.979480" lon="-15.541569">
        <ele>1379.10</ele>
        <time>2018-02-17T09:09:00Z</time>
      </trkpt>
      <trkpt lat="27.979483" lon="-15.541676">
        <ele>1381.65</ele>
        <time>2018-02-17T09:09:10Z</time>
      </trkpt>
      <trkpt lat="27.979559" lon="-15.541733">
        <ele>1384.11</ele>
        <time>2018-02-17T09:09:23Z</time>
      </trkpt>
      <trkpt lat="27.979659" lon="-15.541741">
        <ele>1385.91</ele>
        <time>2018-02-17T09:09:30Z</time>
      </trkpt>
      <trkpt lat="27.979741" lon="-15.541783">
        <ele>1390.45</ele>
        <time>2018-02-17T09:09:43Z</time>
      </trkpt>
      <trkpt lat="27.979837" lon="-15.541809">
        <ele>1392.60</ele>
        <time>2018-02-17T09:09:58Z</time>
      </trkpt>
      <trkpt lat="27.979907" lon="-15.541839">
        <ele>1395.30</ele>
        <time>2018-02-17T09:10:08Z</time>
      </trkpt>
      <trkpt lat="27.979947" lon="-15.541848">
        <ele>1395.10</ele>
        <time>2018-02-17T09:10:14Z</time>
      </trkpt>
      <trkpt lat="27.979986" lon="-15.541843">
        <ele>1396.05</ele>
        <time>2018-02-17T09:10:21Z</time>
      </trkpt>
      <trkpt lat="27.980006" lon="-15.541852">
        <ele>1396.90</ele>
        <time>2018-02-17T09:10:24Z</time>
      </trkpt>
      <trkpt lat="27.980017" lon="-15.541881">
        <ele>1398.05</ele>
        <time>2018-02-17T09:10:29Z</time>
      </trkpt>
      <trkpt lat="27.980043" lon="-15.541893">
        <ele>1400.19</ele>
        <time>2018-02-17T09:10:35Z</time>
      </trkpt>
      <trkpt lat="27.980066" lon="-15.541904">
        <ele>1401.09</ele>
        <time>2018-02-17T09:10:39Z</time>
      </trkpt>
      <trkpt lat="27.980115" lon="-15.541904">
        <ele>1402.74</ele>
        <time>2018-02-17T09:10:50Z</time>
      </trkpt>
      <trkpt lat="27.980130" lon="-15.541918">
        <ele>1403.60</ele>
        <time>2018-02-17T09:11:01Z</time>
      </trkpt>
      <trkpt lat="27.980075" lon="-15.541970">
        <ele>1405.96</ele>
        <time>2018-02-17T09:11:20Z</time>
      </trkpt>
      <trkpt lat="27.980050" lon="-15.541977">
        <ele>1406.30</ele>
        <time>2018-02-17T09:11:25Z</time>
      </trkpt>
      <trkpt lat="27.980056" lon="-15.541996">
        <ele>1407.80</ele>
        <time>2018-02-17T09:11:48Z</time>
      </trkpt>
      <trkpt lat="27.980074" lon="-15.542002">
        <ele>1407.96</ele>
        <time>2018-02-17T09:11:51Z</time>
      </trkpt>
      <trkpt lat="27.980092" lon="-15.542014">
        <ele>1408.45</ele>
        <time>2018-02-17T09:11:54Z</time>
      </trkpt>
      <trkpt lat="27.980110" lon="-15.542023">
        <ele>1409.42</ele>
        <time>2018-02-17T09:11:57Z</time>
      </trkpt>
      <trkpt lat="27.980129" lon="-15.542034">
        <ele>1409.74</ele>
        <time>2018-02-17T09:12:00Z</time>
      </trkpt>
      <trkpt lat="27.980143" lon="-15.542052">
        <ele>1410.09</ele>
        <time>2018-02-17T09:12:03Z</time>
      </trkpt>
      <trkpt lat="27.980154" lon="-15.542073">
        <ele>1410.84</ele>
        <time>2018-02-17T09:12:05Z</time>
      </trkpt>
      <trkpt lat="27.980170" lon="-15.542090">
        <ele>1411.32</ele>
        <time>2018-02-17T09:12:08Z</time>
      </trkpt>
      <trkpt lat="27.980186" lon="-15.542102">
        <ele>1411.77</ele>
        <time>2018-02-17T09:12:11Z</time>
      </trkpt>
      <trkpt lat="27.980195" lon="-15.542121">
        <ele>1412.10</ele>
        <time>2018-02-17T09:12:14Z</time>
      </trkpt>
      <trkpt lat="27.980202" lon="-15.542142">
        <ele>1412.62</ele>
        <time>2018-02-17T09:12:18Z</time>
      </trkpt>
      <trkpt lat="27.980210" lon="-15.542163">
        <ele>1412.87</ele>
        <time>2018-02-17T09:12:21Z</time>
      </trkpt>
      <trkpt lat="27.980226" lon="-15.542178">
        <ele>1412.73</ele>
        <time>2018-02-17T09:12:26Z</time>
      </trkpt>
      <trkpt lat="27.980232" lon="-15.542200">
        <ele>1413.80</ele>
        <time>2018-02-17T09:12:32Z</time>
      </trkpt>
      <trkpt lat="27.980232" lon="-15.542223">
        <ele>1415.01</ele>
        <time>2018-02-17T09:12:39Z</time>
      </trkpt>
      <trkpt lat="27.980249" lon="-15.542238">
        <ele>1415.39</ele>
        <time>2018-02-17T09:12:42Z</time>
      </trkpt>
      <trkpt lat="27.980272" lon="-15.542247">
        <ele>1416.40</ele>
        <time>2018-02-17T09:12:45Z</time>
      </trkpt>
      <trkpt lat="27.980270" lon="-15.542270">
        <ele>1416.81</ele>
        <time>2018-02-17T09:12:50Z</time>
      </trkpt>
      <trkpt lat="27.980277" lon="-15.542289">
        <ele>1417.63</ele>
        <time>2018-02-17T09:12:54Z</time>
      </trkpt>
      <trkpt lat="27.980296" lon="-15.542287">
        <ele>1418.72</ele>
        <time>2018-02-17T09:13:02Z</time>
      </trkpt>
      <trkpt lat="27.980320" lon="-15.542291">
        <ele>1418.95</ele>
        <time>2018-02-17T09:13:05Z</time>
      </trkpt>
      <trkpt lat="27.980338" lon="-15.542283">
        <ele>1419.80</ele>
        <time>2018-02-17T09:13:08Z</time>
      </trkpt>
      <trkpt lat="27.980355" lon="-15.542267">
        <ele>1420.70</ele>
        <time>2018-02-17T09:13:11Z</time>
      </trkpt>
      <trkpt lat="27.980368" lon="-15.542250">
        <ele>1420.79</ele>
        <time>2018-02-17T09:13:14Z</time>
      </trkpt>
      <trkpt lat="27.980386" lon="-15.542253">
        <ele>1420.70</ele>
        <time>2018-02-17T09:13:17Z</time>
      </trkpt>
      <trkpt lat="27.980400" lon="-15.542238">
        <ele>1420.80</ele>
        <time>2018-02-17T09:13:26Z</time>
      </trkpt>
      <trkpt lat="27.980421" lon="-15.542228">
        <ele>1420.92</ele>
        <time>2018-02-17T09:13:31Z</time>
      </trkpt>
      <trkpt lat="27.980440" lon="-15.542226">
        <ele>1421.71</ele>
        <time>2018-02-17T09:13:34Z</time>
      </trkpt>
      <trkpt lat="27.980459" lon="-15.542214">
        <ele>1422.63</ele>
        <time>2018-02-17T09:13:37Z</time>
      </trkpt>
      <trkpt lat="27.980473" lon="-15.542199">
        <ele>1423.55</ele>
        <time>2018-02-17T09:13:40Z</time>
      </trkpt>
      <trkpt lat="27.980492" lon="-15.542185">
        <ele>1424.11</ele>
        <time>2018-02-17T09:13:44Z</time>
      </trkpt>
      <trkpt lat="27.980514" lon="-15.542171">
        <ele>1424.91</ele>
        <time>2018-02-17T09:13:48Z</time>
      </trkpt>
      <trkpt lat="27.980534" lon="-15.542162">
        <ele>1425.19</ele>
        <time>2018-02-17T09:13:51Z</time>
      </trkpt>
      <trkpt lat="27.980560" lon="-15.542157">
        <ele>1425.41</ele>
        <time>2018-02-17T09:13:54Z</time>
      </trkpt>
      <trkpt lat="27.980578" lon="-15.542144">
        <ele>1425.51</ele>
        <time>2018-02-17T09:13:56Z</time>
      </trkpt>
      <trkpt lat="27.980597" lon="-15.542134">
        <ele>1425.81</ele>
        <time>2018-02-17T09:13:58Z</time>
      </trkpt>
      <trkpt lat="27.980617" lon="-15.542126">
        <ele>1426.21</ele>
        <time>2018-02-17T09:14:01Z</time>
      </trkpt>
      <trkpt lat="27.980635" lon="-15.542122">
        <ele>1426.80</ele>
        <time>2018-02-17T09:14:04Z</time>
      </trkpt>
      <trkpt lat="27.980655" lon="-15.542109">
        <ele>1427.52</ele>
        <time>2018-02-17T09:14:07Z</time>
      </trkpt>
      <trkpt lat="27.980677" lon="-15.542096">
        <ele>1427.90</ele>
        <time>2018-02-17T09:14:10Z</time>
      </trkpt>
      <trkpt lat="27.980697" lon="-15.542094">
        <ele>1428.01</ele>
        <time>2018-02-17T09:14:12Z</time>
      </trkpt>
      <trkpt lat="27.980717" lon="-15.542090">
        <ele>1428.33</ele>
        <time>2018-02-17T09:14:14Z</time>
      </trkpt>
      <trkpt lat="27.980736" lon="-15.542080">
        <ele>1428.70</ele>
        <time>2018-02-17T09:14:16Z</time>
      </trkpt>
      <trkpt lat="27.980752" lon="-15.542068">
        <ele>1428.70</ele>
        <time>2018-02-17T09:14:19Z</time>
      </trkpt>
      <trkpt lat="27.980770" lon="-15.542060">
        <ele>1428.70</ele>
        <time>2018-02-17T09:14:21Z</time>
      </trkpt>
      <trkpt lat="27.980787" lon="-15.542041">
        <ele>1429.61</ele>
        <time>2018-02-17T09:14:24Z</time>
      </trkpt>
      <trkpt lat="27.980805" lon="-15.542030">
        <ele>1429.71</ele>
        <time>2018-02-17T09:14:26Z</time>
      </trkpt>
      <trkpt lat="27.980827" lon="-15.542019">
        <ele>1430.04</ele>
        <time>2018-02-17T09:14:28Z</time>
      </trkpt>
      <trkpt lat="27.980844" lon="-15.542011">
        <ele>1430.60</ele>
        <time>2018-02-17T09:14:30Z</time>
      </trkpt>
      <trkpt lat="27.980862" lon="-15.541993">
        <ele>1431.51</ele>
        <time>2018-02-17T09:14:33Z</time>
      </trkpt>
      <trkpt lat="27.980878" lon="-15.541975">
        <ele>1431.82</ele>
        <time>2018-02-17T09:14:35Z</time>
      </trkpt>
      <trkpt lat="27.980898" lon="-15.541955">
        <ele>1432.11</ele>
        <time>2018-02-17T09:14:38Z</time>
      </trkpt>
      <trkpt lat="27.980918" lon="-15.541943">
        <ele>1432.32</ele>
        <time>2018-02-17T09:14:41Z</time>
      </trkpt>
      <trkpt lat="27.980937" lon="-15.541930">
        <ele>1432.52</ele>
        <time>2018-02-17T09:14:44Z</time>
      </trkpt>
      <trkpt lat="27.980956" lon="-15.541929">
        <ele>1433.20</ele>
        <time>2018-02-17T09:14:46Z</time>
      </trkpt>
      <trkpt lat="27.980973" lon="-15.541939">
        <ele>1433.91</ele>
        <time>2018-02-17T09:14:51Z</time>
      </trkpt>
      <trkpt lat="27.980976" lon="-15.541959">
        <ele>1435.32</ele>
        <time>2018-02-17T09:14:55Z</time>
      </trkpt>
      <trkpt lat="27.980978" lon="-15.541982">
        <ele>1436.52</ele>
        <time>2018-02-17T09:14:58Z</time>
      </trkpt>
      <trkpt lat="27.980977" lon="-15.542010">
        <ele>1437.01</ele>
        <time>2018-02-17T09:15:01Z</time>
      </trkpt>
      <trkpt lat="27.980992" lon="-15.542030">
        <ele>1437.82</ele>
        <time>2018-02-17T09:15:04Z</time>
      </trkpt>
      <trkpt lat="27.981011" lon="-15.542038">
        <ele>1438.41</ele>
        <time>2018-02-17T09:15:07Z</time>
      </trkpt>
      <trkpt lat="27.981030" lon="-15.542039">
        <ele>1439.21</ele>
        <time>2018-02-17T09:15:10Z</time>
      </trkpt>
      <trkpt lat="27.981054" lon="-15.542045">
        <ele>1439.53</ele>
        <time>2018-02-17T09:15:13Z</time>
      </trkpt>
      <trkpt lat="27.981074" lon="-15.542054">
        <ele>1440.01</ele>
        <time>2018-02-17T09:15:15Z</time>
      </trkpt>
      <trkpt lat="27.981094" lon="-15.542063">
        <ele>1440.21</ele>
        <time>2018-02-17T09:15:17Z</time>
      </trkpt>
      <trkpt lat="27.981119" lon="-15.542062">
        <ele>1440.70</ele>
        <time>2018-02-17T09:15:20Z</time>
      </trkpt>
      <trkpt lat="27.981143" lon="-15.542062">
        <ele>1440.80</ele>
        <time>2018-02-17T09:15:23Z</time>
      </trkpt>
      <trkpt lat="27.981167" lon="-15.542058">
        <ele>1441.01</ele>
        <time>2018-02-17T09:15:26Z</time>
      </trkpt>
      <trkpt lat="27.981187" lon="-15.542070">
        <ele>1441.41</ele>
        <time>2018-02-17T09:15:29Z</time>
      </trkpt>
      <trkpt lat="27.981203" lon="-15.542088">
        <ele>1441.90</ele>
        <time>2018-02-17T09:15:32Z</time>
      </trkpt>
      <trkpt lat="27.981202" lon="-15.542109">
        <ele>1442.50</ele>
        <time>2018-02-17T09:15:35Z</time>
      </trkpt>
      <trkpt lat="27.981196" lon="-15.542131">
        <ele>1442.90</ele>
        <time>2018-02-17T09:15:38Z</time>
      </trkpt>
      <trkpt lat="27.981189" lon="-15.542154">
        <ele>1443.50</ele>
        <time>2018-02-17T09:15:41Z</time>
      </trkpt>
      <trkpt lat="27.981202" lon="-15.542174">
        <ele>1443.91</ele>
        <time>2018-02-17T09:15:45Z</time>
      </trkpt>
      <trkpt lat="27.981214" lon="-15.542200">
        <ele>1445.20</ele>
        <time>2018-02-17T09:15:48Z</time>
      </trkpt>
      <trkpt lat="27.981211" lon="-15.542221">
        <ele>1445.83</ele>
        <time>2018-02-17T09:15:51Z</time>
      </trkpt>
      <trkpt lat="27.981194" lon="-15.542228">
        <ele>1447.32</ele>
        <time>2018-02-17T09:15:56Z</time>
      </trkpt>
      <trkpt lat="27.981176" lon="-15.542233">
        <ele>1447.70</ele>
        <time>2018-02-17T09:15:59Z</time>
      </trkpt>
      <trkpt lat="27.981163" lon="-15.542247">
        <ele>1447.70</ele>
        <time>2018-02-17T09:16:03Z</time>
      </trkpt>
      <trkpt lat="27.981149" lon="-15.542274">
        <ele>1448.60</ele>
        <time>2018-02-17T09:16:08Z</time>
      </trkpt>
      <trkpt lat="27.981114" lon="-15.542303">
        <ele>1450.01</ele>
        <time>2018-02-17T09:16:12Z</time>
      </trkpt>
      <trkpt lat="27.981103" lon="-15.542320">
        <ele>1450.70</ele>
        <time>2018-02-17T09:16:15Z</time>
      </trkpt>
      <trkpt lat="27.981087" lon="-15.542339">
        <ele>1450.50</ele>
        <time>2018-02-17T09:16:18Z</time>
      </trkpt>
      <trkpt lat="27.981079" lon="-15.542358">
        <ele>1451.10</ele>
        <time>2018-02-17T09:16:22Z</time>
      </trkpt>
      <trkpt lat="27.981068" lon="-15.542385">
        <ele>1452.40</ele>
        <time>2018-02-17T09:16:28Z</time>
      </trkpt>
      <trkpt lat="27.981058" lon="-15.542408">
        <ele>1453.70</ele>
        <time>2018-02-17T09:16:31Z</time>
      </trkpt>
      <trkpt lat="27.981054" lon="-15.542429">
        <ele>1454.00</ele>
        <time>2018-02-17T09:16:34Z</time>
      </trkpt>
      <trkpt lat="27.981052" lon="-15.542455">
        <ele>1454.70</ele>
        <time>2018-02-17T09:16:38Z</time>
      </trkpt>
      <trkpt lat="27.981058" lon="-15.542476">
        <ele>1455.40</ele>
        <time>2018-02-17T09:16:41Z</time>
      </trkpt>
      <trkpt lat="27.981061" lon="-15.542501">
        <ele>1456.30</ele>
        <time>2018-02-17T09:16:45Z</time>
      </trkpt>
      <trkpt lat="27.981069" lon="-15.542522">
        <ele>1457.20</ele>
        <time>2018-02-17T09:16:48Z</time>
      </trkpt>
      <trkpt lat="27.981083" lon="-15.542539">
        <ele>1457.50</ele>
        <time>2018-02-17T09:16:51Z</time>
      </trkpt>
      <trkpt lat="27.981100" lon="-15.542561">
        <ele>1457.80</ele>
        <time>2018-02-17T09:16:54Z</time>
      </trkpt>
      <trkpt lat="27.981114" lon="-15.542574">
        <ele>1458.30</ele>
        <time>2018-02-17T09:16:56Z</time>
      </trkpt>
      <trkpt lat="27.981130" lon="-15.542591">
        <ele>1459.50</ele>
        <time>2018-02-17T09:17:00Z</time>
      </trkpt>
      <trkpt lat="27.981148" lon="-15.542606">
        <ele>1460.20</ele>
        <time>2018-02-17T09:17:03Z</time>
      </trkpt>
      <trkpt lat="27.981164" lon="-15.542621">
        <ele>1460.80</ele>
        <time>2018-02-17T09:17:06Z</time>
      </trkpt>
      <trkpt lat="27.981175" lon="-15.542644">
        <ele>1461.20</ele>
        <time>2018-02-17T09:17:10Z</time>
      </trkpt>
      <trkpt lat="27.981193" lon="-15.542658">
        <ele>1462.00</ele>
        <time>2018-02-17T09:17:13Z</time>
      </trkpt>
      <trkpt lat="27.981212" lon="-15.542666">
        <ele>1462.70</ele>
        <time>2018-02-17T09:17:19Z</time>
      </trkpt>
      <trkpt lat="27.981227" lon="-15.542682">
        <ele>1462.90</ele>
        <time>2018-02-17T09:17:23Z</time>
      </trkpt>
      <trkpt lat="27.981239" lon="-15.542698">
        <ele>1463.70</ele>
        <time>2018-02-17T09:17:27Z</time>
      </trkpt>
      <trkpt lat="27.981249" lon="-15.542716">
        <ele>1464.80</ele>
        <time>2018-02-17T09:17:37Z</time>
      </trkpt>
      <trkpt lat="27.981245" lon="-15.542736">
        <ele>1465.60</ele>
        <time>2018-02-17T09:17:44Z</time>
      </trkpt>
      <trkpt lat="27.981238" lon="-15.542758">
        <ele>1468.20</ele>
        <time>2018-02-17T09:17:54Z</time>
      </trkpt>
      <trkpt lat="27.981238" lon="-15.542783">
        <ele>1467.50</ele>
        <time>2018-02-17T09:17:58Z</time>
      </trkpt>
      <trkpt lat="27.981254" lon="-15.542798">
        <ele>1468.69</ele>
        <time>2018-02-17T09:18:03Z</time>
      </trkpt>
      <trkpt lat="27.981273" lon="-15.542805">
        <ele>1469.29</ele>
        <time>2018-02-17T09:18:06Z</time>
      </trkpt>
      <trkpt lat="27.981288" lon="-15.542821">
        <ele>1469.98</ele>
        <time>2018-02-17T09:18:10Z</time>
      </trkpt>
      <trkpt lat="27.981298" lon="-15.542842">
        <ele>1470.39</ele>
        <time>2018-02-17T09:18:13Z</time>
      </trkpt>
      <trkpt lat="27.981309" lon="-15.542860">
        <ele>1471.17</ele>
        <time>2018-02-17T09:18:17Z</time>
      </trkpt>
      <trkpt lat="27.981316" lon="-15.542880">
        <ele>1471.78</ele>
        <time>2018-02-17T09:18:21Z</time>
      </trkpt>
      <trkpt lat="27.981326" lon="-15.542898">
        <ele>1472.68</ele>
        <time>2018-02-17T09:18:25Z</time>
      </trkpt>
      <trkpt lat="27.981341" lon="-15.542918">
        <ele>1473.08</ele>
        <time>2018-02-17T09:18:29Z</time>
      </trkpt>
      <trkpt lat="27.981354" lon="-15.542934">
        <ele>1473.89</ele>
        <time>2018-02-17T09:18:32Z</time>
      </trkpt>
      <trkpt lat="27.981364" lon="-15.542952">
        <ele>1474.18</ele>
        <time>2018-02-17T09:18:35Z</time>
      </trkpt>
      <trkpt lat="27.981353" lon="-15.542970">
        <ele>1475.50</ele>
        <time>2018-02-17T09:20:09Z</time>
      </trkpt>
      <trkpt lat="27.981343" lon="-15.542986">
        <ele>1475.33</ele>
        <time>2018-02-17T09:20:42Z</time>
      </trkpt>
      <trkpt lat="27.981328" lon="-15.543002">
        <ele>1475.50</ele>
        <time>2018-02-17T09:20:48Z</time>
      </trkpt>
      <trkpt lat="27.981315" lon="-15.543021">
        <ele>1475.73</ele>
        <time>2018-02-17T09:20:52Z</time>
      </trkpt>
      <trkpt lat="27.981306" lon="-15.543042">
        <ele>1476.20</ele>
        <time>2018-02-17T09:21:02Z</time>
      </trkpt>
      <trkpt lat="27.981303" lon="-15.543066">
        <ele>1476.30</ele>
        <time>2018-02-17T09:21:08Z</time>
      </trkpt>
      <trkpt lat="27.981296" lon="-15.543087">
        <ele>1477.10</ele>
        <time>2018-02-17T09:21:14Z</time>
      </trkpt>
      <trkpt lat="27.981285" lon="-15.543112">
        <ele>1477.50</ele>
        <time>2018-02-17T09:21:18Z</time>
      </trkpt>
      <trkpt lat="27.981272" lon="-15.543138">
        <ele>1478.43</ele>
        <time>2018-02-17T09:21:21Z</time>
      </trkpt>
      <trkpt lat="27.981259" lon="-15.543160">
        <ele>1478.60</ele>
        <time>2018-02-17T09:21:24Z</time>
      </trkpt>
      <trkpt lat="27.981246" lon="-15.543180">
        <ele>1479.66</ele>
        <time>2018-02-17T09:21:28Z</time>
      </trkpt>
      <trkpt lat="27.981227" lon="-15.543196">
        <ele>1480.20</ele>
        <time>2018-02-17T09:21:31Z</time>
      </trkpt>
      <trkpt lat="27.981209" lon="-15.543217">
        <ele>1480.69</ele>
        <time>2018-02-17T09:21:34Z</time>
      </trkpt>
      <trkpt lat="27.981187" lon="-15.543232">
        <ele>1481.67</ele>
        <time>2018-02-17T09:21:37Z</time>
      </trkpt>
      <trkpt lat="27.981170" lon="-15.543253">
        <ele>1481.93</ele>
        <time>2018-02-17T09:21:40Z</time>
      </trkpt>
      <trkpt lat="27.981171" lon="-15.543274">
        <ele>1483.30</ele>
        <time>2018-02-17T09:21:53Z</time>
      </trkpt>
      <trkpt lat="27.981157" lon="-15.543288">
        <ele>1483.49</ele>
        <time>2018-02-17T09:21:55Z</time>
      </trkpt>
      <trkpt lat="27.981142" lon="-15.543300">
        <ele>1483.83</ele>
        <time>2018-02-17T09:21:57Z</time>
      </trkpt>
      <trkpt lat="27.981122" lon="-15.543316">
        <ele>1485.04</ele>
        <time>2018-02-17T09:22:00Z</time>
      </trkpt>
      <trkpt lat="27.981115" lon="-15.543339">
        <ele>1485.59</ele>
        <time>2018-02-17T09:22:03Z</time>
      </trkpt>
      <trkpt lat="27.981096" lon="-15.543355">
        <ele>1486.56</ele>
        <time>2018-02-17T09:22:06Z</time>
      </trkpt>
      <trkpt lat="27.981084" lon="-15.543375">
        <ele>1487.12</ele>
        <time>2018-02-17T09:22:08Z</time>
      </trkpt>
      <trkpt lat="27.981074" lon="-15.543395">
        <ele>1487.78</ele>
        <time>2018-02-17T09:22:11Z</time>
      </trkpt>
      <trkpt lat="27.981057" lon="-15.543407">
        <ele>1488.16</ele>
        <time>2018-02-17T09:22:13Z</time>
      </trkpt>
      <trkpt lat="27.981044" lon="-15.543429">
        <ele>1489.20</ele>
        <time>2018-02-17T09:22:16Z</time>
      </trkpt>
      <trkpt lat="27.981026" lon="-15.543449">
        <ele>1489.40</ele>
        <time>2018-02-17T09:22:19Z</time>
      </trkpt>
      <trkpt lat="27.981009" lon="-15.543466">
        <ele>1489.91</ele>
        <time>2018-02-17T09:22:22Z</time>
      </trkpt>
      <trkpt lat="27.980991" lon="-15.543474">
        <ele>1490.54</ele>
        <time>2018-02-17T09:22:25Z</time>
      </trkpt>
      <trkpt lat="27.980970" lon="-15.543484">
        <ele>1491.68</ele>
        <time>2018-02-17T09:22:29Z</time>
      </trkpt>
      <trkpt lat="27.980952" lon="-15.543496">
        <ele>1492.36</ele>
        <time>2018-02-17T09:22:32Z</time>
      </trkpt>
      <trkpt lat="27.980933" lon="-15.543499">
        <ele>1493.33</ele>
        <time>2018-02-17T09:22:34Z</time>
      </trkpt>
      <trkpt lat="27.980921" lon="-15.543524">
        <ele>1494.01</ele>
        <time>2018-02-17T09:22:37Z</time>
      </trkpt>
      <trkpt lat="27.980907" lon="-15.543544">
        <ele>1494.56</ele>
        <time>2018-02-17T09:22:40Z</time>
      </trkpt>
      <trkpt lat="27.980895" lon="-15.543560">
        <ele>1494.71</ele>
        <time>2018-02-17T09:22:42Z</time>
      </trkpt>
      <trkpt lat="27.980884" lon="-15.543577">
        <ele>1495.27</ele>
        <time>2018-02-17T09:22:44Z</time>
      </trkpt>
      <trkpt lat="27.980873" lon="-15.543595">
        <ele>1495.78</ele>
        <time>2018-02-17T09:22:46Z</time>
      </trkpt>
      <trkpt lat="27.980860" lon="-15.543617">
        <ele>1496.15</ele>
        <time>2018-02-17T09:22:49Z</time>
      </trkpt>
      <trkpt lat="27.980850" lon="-15.543637">
        <ele>1496.80</ele>
        <time>2018-02-17T09:22:54Z</time>
      </trkpt>
      <trkpt lat="27.980833" lon="-15.543646">
        <ele>1497.10</ele>
        <time>2018-02-17T09:22:58Z</time>
      </trkpt>
      <trkpt lat="27.980817" lon="-15.543662">
        <ele>1497.10</ele>
        <time>2018-02-17T09:23:00Z</time>
      </trkpt>
      <trkpt lat="27.980801" lon="-15.543672">
        <ele>1497.10</ele>
        <time>2018-02-17T09:23:02Z</time>
      </trkpt>
      <trkpt lat="27.980786" lon="-15.543690">
        <ele>1497.15</ele>
        <time>2018-02-17T09:23:05Z</time>
      </trkpt>
      <trkpt lat="27.980767" lon="-15.543691">
        <ele>1497.15</ele>
        <time>2018-02-17T09:23:07Z</time>
      </trkpt>
      <trkpt lat="27.980746" lon="-15.543692">
        <ele>1497.00</ele>
        <time>2018-02-17T09:23:12Z</time>
      </trkpt>
      <trkpt lat="27.980724" lon="-15.543704">
        <ele>1497.15</ele>
        <time>2018-02-17T09:23:15Z</time>
      </trkpt>
      <trkpt lat="27.980711" lon="-15.543725">
        <ele>1497.30</ele>
        <time>2018-02-17T09:23:21Z</time>
      </trkpt>
      <trkpt lat="27.980696" lon="-15.543741">
        <ele>1497.25</ele>
        <time>2018-02-17T09:23:23Z</time>
      </trkpt>
      <trkpt lat="27.980686" lon="-15.543765">
        <ele>1497.20</ele>
        <time>2018-02-17T09:23:27Z</time>
      </trkpt>
      <trkpt lat="27.980677" lon="-15.543784">
        <ele>1497.60</ele>
        <time>2018-02-17T09:23:29Z</time>
      </trkpt>
      <trkpt lat="27.980663" lon="-15.543804">
        <ele>1497.70</ele>
        <time>2018-02-17T09:23:32Z</time>
      </trkpt>
      <trkpt lat="27.980654" lon="-15.543823">
        <ele>1497.97</ele>
        <time>2018-02-17T09:23:35Z</time>
      </trkpt>
      <trkpt lat="27.980634" lon="-15.543844">
        <ele>1498.70</ele>
        <time>2018-02-17T09:23:38Z</time>
      </trkpt>
      <trkpt lat="27.980615" lon="-15.543859">
        <ele>1499.20</ele>
        <time>2018-02-17T09:23:40Z</time>
      </trkpt>
      <trkpt lat="27.980593" lon="-15.543868">
        <ele>1499.64</ele>
        <time>2018-02-17T09:23:43Z</time>
      </trkpt>
      <trkpt lat="27.980575" lon="-15.543873">
        <ele>1499.74</ele>
        <time>2018-02-17T09:23:45Z</time>
      </trkpt>
      <trkpt lat="27.980562" lon="-15.543888">
        <ele>1500.18</ele>
        <time>2018-02-17T09:23:47Z</time>
      </trkpt>
      <trkpt lat="27.980546" lon="-15.543922">
        <ele>1502.80</ele>
        <time>2018-02-17T09:23:53Z</time>
      </trkpt>
      <trkpt lat="27.980540" lon="-15.543946">
        <ele>1502.94</ele>
        <time>2018-02-17T09:23:56Z</time>
      </trkpt>
      <trkpt lat="27.980522" lon="-15.543964">
        <ele>1504.28</ele>
        <time>2018-02-17T09:23:59Z</time>
      </trkpt>
      <trkpt lat="27.980510" lon="-15.543992">
        <ele>1504.98</ele>
        <time>2018-02-17T09:24:02Z</time>
      </trkpt>
      <trkpt lat="27.980497" lon="-15.544014">
        <ele>1505.54</ele>
        <time>2018-02-17T09:24:04Z</time>
      </trkpt>
      <trkpt lat="27.980493" lon="-15.544038">
        <ele>1506.14</ele>
        <time>2018-02-17T09:24:06Z</time>
      </trkpt>
      <trkpt lat="27.980500" lon="-15.544064">
        <ele>1506.80</ele>
        <time>2018-02-17T09:24:10Z</time>
      </trkpt>
      <trkpt lat="27.980490" lon="-15.544093">
        <ele>1508.08</ele>
        <time>2018-02-17T09:24:17Z</time>
      </trkpt>
      <trkpt lat="27.980476" lon="-15.544114">
        <ele>1507.70</ele>
        <time>2018-02-17T09:24:19Z</time>
      </trkpt>
      <trkpt lat="27.980462" lon="-15.544141">
        <ele>1507.59</ele>
        <time>2018-02-17T09:24:21Z</time>
      </trkpt>
      <trkpt lat="27.980453" lon="-15.544163">
        <ele>1507.90</ele>
        <time>2018-02-17T09:24:23Z</time>
      </trkpt>
      <trkpt lat="27.980438" lon="-15.544181">
        <ele>1508.51</ele>
        <time>2018-02-17T09:24:26Z</time>
      </trkpt>
      <trkpt lat="27.980420" lon="-15.544198">
        <ele>1510.04</ele>
        <time>2018-02-17T09:24:29Z</time>
      </trkpt>
      <trkpt lat="27.980404" lon="-15.544208">
        <ele>1510.36</ele>
        <time>2018-02-17T09:24:31Z</time>
      </trkpt>
      <trkpt lat="27.980384" lon="-15.544218">
        <ele>1510.50</ele>
        <time>2018-02-17T09:24:34Z</time>
      </trkpt>
      <trkpt lat="27.980368" lon="-15.544230">
        <ele>1510.90</ele>
        <time>2018-02-17T09:24:37Z</time>
      </trkpt>
      <trkpt lat="27.980351" lon="-15.544249">
        <ele>1511.33</ele>
        <time>2018-02-17T09:24:40Z</time>
      </trkpt>
      <trkpt lat="27.980333" lon="-15.544263">
        <ele>1511.90</ele>
        <time>2018-02-17T09:24:43Z</time>
      </trkpt>
      <trkpt lat="27.980315" lon="-15.544264">
        <ele>1512.03</ele>
        <time>2018-02-17T09:24:46Z</time>
      </trkpt>
      <trkpt lat="27.980293" lon="-15.544266">
        <ele>1513.06</ele>
        <time>2018-02-17T09:24:49Z</time>
      </trkpt>
      <trkpt lat="27.980269" lon="-15.544262">
        <ele>1513.79</ele>
        <time>2018-02-17T09:24:55Z</time>
      </trkpt>
      <trkpt lat="27.980249" lon="-15.544261">
        <ele>1514.43</ele>
        <time>2018-02-17T09:24:59Z</time>
      </trkpt>
      <trkpt lat="27.980233" lon="-15.544282">
        <ele>1514.53</ele>
        <time>2018-02-17T09:25:02Z</time>
      </trkpt>
      <trkpt lat="27.980215" lon="-15.544309">
        <ele>1514.78</ele>
        <time>2018-02-17T09:25:05Z</time>
      </trkpt>
      <trkpt lat="27.980207" lon="-15.544338">
        <ele>1515.50</ele>
        <time>2018-02-17T09:25:08Z</time>
      </trkpt>
      <trkpt lat="27.980214" lon="-15.544361">
        <ele>1515.74</ele>
        <time>2018-02-17T09:25:10Z</time>
      </trkpt>
      <trkpt lat="27.980222" lon="-15.544380">
        <ele>1516.30</ele>
        <time>2018-02-17T09:25:12Z</time>
      </trkpt>
      <trkpt lat="27.980236" lon="-15.544395">
        <ele>1516.69</ele>
        <time>2018-02-17T09:25:14Z</time>
      </trkpt>
      <trkpt lat="27.980252" lon="-15.544409">
        <ele>1517.05</ele>
        <time>2018-02-17T09:25:16Z</time>
      </trkpt>
      <trkpt lat="27.980272" lon="-15.544414">
        <ele>1517.24</ele>
        <time>2018-02-17T09:25:18Z</time>
      </trkpt>
      <trkpt lat="27.980294" lon="-15.544431">
        <ele>1517.80</ele>
        <time>2018-02-17T09:25:21Z</time>
      </trkpt>
      <trkpt lat="27.980309" lon="-15.544446">
        <ele>1518.00</ele>
        <time>2018-02-17T09:25:23Z</time>
      </trkpt>
      <trkpt lat="27.980326" lon="-15.544469">
        <ele>1518.40</ele>
        <time>2018-02-17T09:25:26Z</time>
      </trkpt>
      <trkpt lat="27.980340" lon="-15.544485">
        <ele>1518.52</ele>
        <time>2018-02-17T09:25:28Z</time>
      </trkpt>
      <trkpt lat="27.980343" lon="-15.544511">
        <ele>1519.08</ele>
        <time>2018-02-17T09:25:31Z</time>
      </trkpt>
      <trkpt lat="27.980329" lon="-15.544529">
        <ele>1519.42</ele>
        <time>2018-02-17T09:25:33Z</time>
      </trkpt>
      <trkpt lat="27.980317" lon="-15.544549">
        <ele>1519.70</ele>
        <time>2018-02-17T09:25:35Z</time>
      </trkpt>
      <trkpt lat="27.980303" lon="-15.544573">
        <ele>1519.82</ele>
        <time>2018-02-17T09:25:37Z</time>
      </trkpt>
      <trkpt lat="27.980288" lon="-15.544588">
        <ele>1520.56</ele>
        <time>2018-02-17T09:25:39Z</time>
      </trkpt>
      <trkpt lat="27.980269" lon="-15.544595">
        <ele>1521.02</ele>
        <time>2018-02-17T09:25:41Z</time>
      </trkpt>
      <trkpt lat="27.980246" lon="-15.544587">
        <ele>1521.72</ele>
        <time>2018-02-17T09:25:44Z</time>
      </trkpt>
      <trkpt lat="27.980220" lon="-15.544578">
        <ele>1522.12</ele>
        <time>2018-02-17T09:25:47Z</time>
      </trkpt>
      <trkpt lat="27.980200" lon="-15.544574">
        <ele>1522.30</ele>
        <time>2018-02-17T09:25:49Z</time>
      </trkpt>
      <trkpt lat="27.980174" lon="-15.544576">
        <ele>1522.52</ele>
        <time>2018-02-17T09:25:52Z</time>
      </trkpt>
      <trkpt lat="27.980152" lon="-15.544582">
        <ele>1523.30</ele>
        <time>2018-02-17T09:25:54Z</time>
      </trkpt>
      <trkpt lat="27.980132" lon="-15.544591">
        <ele>1523.42</ele>
        <time>2018-02-17T09:25:56Z</time>
      </trkpt>
      <trkpt lat="27.980112" lon="-15.544601">
        <ele>1524.00</ele>
        <time>2018-02-17T09:25:58Z</time>
      </trkpt>
      <trkpt lat="27.980092" lon="-15.544611">
        <ele>1524.56</ele>
        <time>2018-02-17T09:26:00Z</time>
      </trkpt>
      <trkpt lat="27.980068" lon="-15.544616">
        <ele>1524.80</ele>
        <time>2018-02-17T09:26:02Z</time>
      </trkpt>
      <trkpt lat="27.980055" lon="-15.544633">
        <ele>1525.94</ele>
        <time>2018-02-17T09:26:04Z</time>
      </trkpt>
      <trkpt lat="27.980041" lon="-15.544649">
        <ele>1526.17</ele>
        <time>2018-02-17T09:26:06Z</time>
      </trkpt>
      <trkpt lat="27.980025" lon="-15.544668">
        <ele>1526.54</ele>
        <time>2018-02-17T09:26:08Z</time>
      </trkpt>
      <trkpt lat="27.980013" lon="-15.544693">
        <ele>1526.82</ele>
        <time>2018-02-17T09:26:10Z</time>
      </trkpt>
      <trkpt lat="27.980003" lon="-15.544711">
        <ele>1527.00</ele>
        <time>2018-02-17T09:26:12Z</time>
      </trkpt>
      <trkpt lat="27.979992" lon="-15.544733">
        <ele>1527.33</ele>
        <time>2018-02-17T09:26:14Z</time>
      </trkpt>
      <trkpt lat="27.979981" lon="-15.544753">
        <ele>1527.93</ele>
        <time>2018-02-17T09:26:16Z</time>
      </trkpt>
      <trkpt lat="27.979970" lon="-15.544770">
        <ele>1528.32</ele>
        <time>2018-02-17T09:26:18Z</time>
      </trkpt>
      <trkpt lat="27.979963" lon="-15.544798">
        <ele>1528.90</ele>
        <time>2018-02-17T09:26:20Z</time>
      </trkpt>
      <trkpt lat="27.979956" lon="-15.544820">
        <ele>1529.20</ele>
        <time>2018-02-17T09:26:22Z</time>
      </trkpt>
      <trkpt lat="27.979945" lon="-15.544843">
        <ele>1529.32</ele>
        <time>2018-02-17T09:26:25Z</time>
      </trkpt>
      <trkpt lat="27.979935" lon="-15.544865">
        <ele>1529.33</ele>
        <time>2018-02-17T09:26:27Z</time>
      </trkpt>
      <trkpt lat="27.979926" lon="-15.544886">
        <ele>1530.02</ele>
        <time>2018-02-17T09:26:29Z</time>
      </trkpt>
      <trkpt lat="27.979921" lon="-15.544908">
        <ele>1530.26</ele>
        <time>2018-02-17T09:26:31Z</time>
      </trkpt>
      <trkpt lat="27.979909" lon="-15.544929">
        <ele>1530.75</ele>
        <time>2018-02-17T09:26:33Z</time>
      </trkpt>
      <trkpt lat="27.979896" lon="-15.544953">
        <ele>1531.03</ele>
        <time>2018-02-17T09:26:35Z</time>
      </trkpt>
      <trkpt lat="27.979883" lon="-15.544973">
        <ele>1531.24</ele>
        <time>2018-02-17T09:26:37Z</time>
      </trkpt>
      <trkpt lat="27.979876" lon="-15.544994">
        <ele>1531.73</ele>
        <time>2018-02-17T09:26:39Z</time>
      </trkpt>
      <trkpt lat="27.979862" lon="-15.545016">
        <ele>1531.90</ele>
        <time>2018-02-17T09:26:41Z</time>
      </trkpt>
      <trkpt lat="27.979850" lon="-15.545041">
        <ele>1531.91</ele>
        <time>2018-02-17T09:26:43Z</time>
      </trkpt>
      <trkpt lat="27.979839" lon="-15.545069">
        <ele>1532.30</ele>
        <time>2018-02-17T09:26:45Z</time>
      </trkpt>
      <trkpt lat="27.979833" lon="-15.545092">
        <ele>1532.66</ele>
        <time>2018-02-17T09:26:47Z</time>
      </trkpt>
      <trkpt lat="27.979825" lon="-15.545114">
        <ele>1533.03</ele>
        <time>2018-02-17T09:26:49Z</time>
      </trkpt>
      <trkpt lat="27.979810" lon="-15.545143">
        <ele>1533.21</ele>
        <time>2018-02-17T09:26:51Z</time>
      </trkpt>
      <trkpt lat="27.979794" lon="-15.545171">
        <ele>1533.35</ele>
        <time>2018-02-17T09:26:53Z</time>
      </trkpt>
      <trkpt lat="27.979777" lon="-15.545190">
        <ele>1533.73</ele>
        <time>2018-02-17T09:26:55Z</time>
      </trkpt>
      <trkpt lat="27.979764" lon="-15.545210">
        <ele>1534.01</ele>
        <time>2018-02-17T09:26:57Z</time>
      </trkpt>
      <trkpt lat="27.979748" lon="-15.545232">
        <ele>1534.10</ele>
        <time>2018-02-17T09:26:59Z</time>
      </trkpt>
      <trkpt lat="27.979726" lon="-15.545253">
        <ele>1534.32</ele>
        <time>2018-02-17T09:27:01Z</time>
      </trkpt>
      <trkpt lat="27.979709" lon="-15.545268">
        <ele>1534.50</ele>
        <time>2018-02-17T09:27:03Z</time>
      </trkpt>
      <trkpt lat="27.979687" lon="-15.545284">
        <ele>1534.90</ele>
        <time>2018-02-17T09:27:06Z</time>
      </trkpt>
      <trkpt lat="27.979667" lon="-15.545301">
        <ele>1534.90</ele>
        <time>2018-02-17T09:27:08Z</time>
      </trkpt>
      <trkpt lat="27.979645" lon="-15.545316">
        <ele>1535.41</ele>
        <time>2018-02-17T09:27:10Z</time>
      </trkpt>
      <trkpt lat="27.979623" lon="-15.545332">
        <ele>1535.70</ele>
        <time>2018-02-17T09:27:12Z</time>
      </trkpt>
      <trkpt lat="27.979602" lon="-15.545346">
        <ele>1535.72</ele>
        <time>2018-02-17T09:27:14Z</time>
      </trkpt>
      <trkpt lat="27.979582" lon="-15.545362">
        <ele>1536.01</ele>
        <time>2018-02-17T09:27:16Z</time>
      </trkpt>
      <trkpt lat="27.979562" lon="-15.545378">
        <ele>1536.10</ele>
        <time>2018-02-17T09:27:18Z</time>
      </trkpt>
      <trkpt lat="27.979542" lon="-15.545396">
        <ele>1536.33</ele>
        <time>2018-02-17T09:27:20Z</time>
      </trkpt>
      <trkpt lat="27.979520" lon="-15.545418">
        <ele>1536.71</ele>
        <time>2018-02-17T09:27:22Z</time>
      </trkpt>
      <trkpt lat="27.979500" lon="-15.545439">
        <ele>1536.85</ele>
        <time>2018-02-17T09:27:24Z</time>
      </trkpt>
      <trkpt lat="27.979476" lon="-15.545452">
        <ele>1537.40</ele>
        <time>2018-02-17T09:27:26Z</time>
      </trkpt>
      <trkpt lat="27.979456" lon="-15.545457">
        <ele>1537.52</ele>
        <time>2018-02-17T09:27:28Z</time>
      </trkpt>
      <trkpt lat="27.979432" lon="-15.545463">
        <ele>1537.71</ele>
        <time>2018-02-17T09:27:30Z</time>
      </trkpt>
      <trkpt lat="27.979339" lon="-15.545458">
        <ele>1538.60</ele>
        <time>2018-02-17T09:27:39Z</time>
      </trkpt>
      <trkpt lat="27.979321" lon="-15.545453">
        <ele>1539.31</ele>
        <time>2018-02-17T09:27:43Z</time>
      </trkpt>
      <trkpt lat="27.979323" lon="-15.545430">
        <ele>1539.42</ele>
        <time>2018-02-17T09:27:45Z</time>
      </trkpt>
      <trkpt lat="27.979319" lon="-15.545408">
        <ele>1539.70</ele>
        <time>2018-02-17T09:27:47Z</time>
      </trkpt>
      <trkpt lat="27.979311" lon="-15.545385">
        <ele>1539.93</ele>
        <time>2018-02-17T09:27:49Z</time>
      </trkpt>
      <trkpt lat="27.979290" lon="-15.545391">
        <ele>1540.30</ele>
        <time>2018-02-17T09:27:53Z</time>
      </trkpt>
      <trkpt lat="27.979290" lon="-15.545360">
        <ele>1540.30</ele>
        <time>2018-02-17T09:27:56Z</time>
      </trkpt>
      <trkpt lat="27.979291" lon="-15.545335">
        <ele>1541.02</ele>
        <time>2018-02-17T09:27:59Z</time>
      </trkpt>
      <trkpt lat="27.979277" lon="-15.545313">
        <ele>1541.63</ele>
        <time>2018-02-17T09:28:01Z</time>
      </trkpt>
      <trkpt lat="27.979266" lon="-15.545292">
        <ele>1541.90</ele>
        <time>2018-02-17T09:28:03Z</time>
      </trkpt>
      <trkpt lat="27.979250" lon="-15.545273">
        <ele>1542.09</ele>
        <time>2018-02-17T09:28:05Z</time>
      </trkpt>
      <trkpt lat="27.979234" lon="-15.545254">
        <ele>1542.90</ele>
        <time>2018-02-17T09:28:07Z</time>
      </trkpt>
      <trkpt lat="27.979215" lon="-15.545230">
        <ele>1542.90</ele>
        <time>2018-02-17T09:28:09Z</time>
      </trkpt>
      <trkpt lat="27.979192" lon="-15.545210">
        <ele>1542.91</ele>
        <time>2018-02-17T09:28:11Z</time>
      </trkpt>
      <trkpt lat="27.979171" lon="-15.545191">
        <ele>1543.30</ele>
        <time>2018-02-17T09:28:13Z</time>
      </trkpt>
      <trkpt lat="27.979152" lon="-15.545177">
        <ele>1543.40</ele>
        <time>2018-02-17T09:28:15Z</time>
      </trkpt>
      <trkpt lat="27.979137" lon="-15.545159">
        <ele>1544.00</ele>
        <time>2018-02-17T09:28:18Z</time>
      </trkpt>
      <trkpt lat="27.979123" lon="-15.545141">
        <ele>1544.50</ele>
        <time>2018-02-17T09:28:21Z</time>
      </trkpt>
      <trkpt lat="27.979103" lon="-15.545119">
        <ele>1545.30</ele>
        <time>2018-02-17T09:28:24Z</time>
      </trkpt>
      <trkpt lat="27.979090" lon="-15.545102">
        <ele>1545.41</ele>
        <time>2018-02-17T09:28:26Z</time>
      </trkpt>
      <trkpt lat="27.979081" lon="-15.545075">
        <ele>1545.64</ele>
        <time>2018-02-17T09:28:29Z</time>
      </trkpt>
      <trkpt lat="27.979059" lon="-15.545052">
        <ele>1546.02</ele>
        <time>2018-02-17T09:28:31Z</time>
      </trkpt>
      <trkpt lat="27.979043" lon="-15.545036">
        <ele>1546.61</ele>
        <time>2018-02-17T09:28:33Z</time>
      </trkpt>
      <trkpt lat="27.979027" lon="-15.545023">
        <ele>1546.80</ele>
        <time>2018-02-17T09:28:35Z</time>
      </trkpt>
      <trkpt lat="27.979007" lon="-15.544998">
        <ele>1547.75</ele>
        <time>2018-02-17T09:28:37Z</time>
      </trkpt>
      <trkpt lat="27.978992" lon="-15.544979">
        <ele>1548.20</ele>
        <time>2018-02-17T09:28:39Z</time>
      </trkpt>
      <trkpt lat="27.978981" lon="-15.544962">
        <ele>1548.44</ele>
        <time>2018-02-17T09:28:43Z</time>
      </trkpt>
      <trkpt lat="27.978961" lon="-15.544940">
        <ele>1548.80</ele>
        <time>2018-02-17T09:28:45Z</time>
      </trkpt>
      <trkpt lat="27.978934" lon="-15.544932">
        <ele>1549.40</ele>
        <time>2018-02-17T09:28:48Z</time>
      </trkpt>
      <trkpt lat="27.978907" lon="-15.544934">
        <ele>1549.41</ele>
        <time>2018-02-17T09:28:50Z</time>
      </trkpt>
      <trkpt lat="27.978888" lon="-15.544941">
        <ele>1549.82</ele>
        <time>2018-02-17T09:28:52Z</time>
      </trkpt>
      <trkpt lat="27.978870" lon="-15.544942">
        <ele>1550.20</ele>
        <time>2018-02-17T09:28:54Z</time>
      </trkpt>
      <trkpt lat="27.978851" lon="-15.544939">
        <ele>1550.42</ele>
        <time>2018-02-17T09:28:57Z</time>
      </trkpt>
      <trkpt lat="27.978830" lon="-15.544933">
        <ele>1551.41</ele>
        <time>2018-02-17T09:29:08Z</time>
      </trkpt>
      <trkpt lat="27.978809" lon="-15.544934">
        <ele>1551.91</ele>
        <time>2018-02-17T09:29:11Z</time>
      </trkpt>
      <trkpt lat="27.978792" lon="-15.544925">
        <ele>1552.80</ele>
        <time>2018-02-17T09:29:13Z</time>
      </trkpt>
      <trkpt lat="27.978770" lon="-15.544916">
        <ele>1552.77</ele>
        <time>2018-02-17T09:29:15Z</time>
      </trkpt>
      <trkpt lat="27.978748" lon="-15.544917">
        <ele>1552.82</ele>
        <time>2018-02-17T09:29:17Z</time>
      </trkpt>
      <trkpt lat="27.978723" lon="-15.544914">
        <ele>1553.13</ele>
        <time>2018-02-17T09:29:20Z</time>
      </trkpt>
      <trkpt lat="27.978705" lon="-15.544913">
        <ele>1553.66</ele>
        <time>2018-02-17T09:29:25Z</time>
      </trkpt>
      <trkpt lat="27.978681" lon="-15.544903">
        <ele>1554.30</ele>
        <time>2018-02-17T09:29:29Z</time>
      </trkpt>
      <trkpt lat="27.978656" lon="-15.544917">
        <ele>1554.41</ele>
        <time>2018-02-17T09:29:32Z</time>
      </trkpt>
      <trkpt lat="27.978638" lon="-15.544928">
        <ele>1554.50</ele>
        <time>2018-02-17T09:29:34Z</time>
      </trkpt>
      <trkpt lat="27.978620" lon="-15.544938">
        <ele>1554.53</ele>
        <time>2018-02-17T09:29:36Z</time>
      </trkpt>
      <trkpt lat="27.978580" lon="-15.544941">
        <ele>1555.67</ele>
        <time>2018-02-17T09:29:42Z</time>
      </trkpt>
      <trkpt lat="27.978558" lon="-15.544951">
        <ele>1556.60</ele>
        <time>2018-02-17T09:29:45Z</time>
      </trkpt>
      <trkpt lat="27.978539" lon="-15.544952">
        <ele>1556.81</ele>
        <time>2018-02-17T09:29:47Z</time>
      </trkpt>
      <trkpt lat="27.978511" lon="-15.544958">
        <ele>1557.21</ele>
        <time>2018-02-17T09:29:49Z</time>
      </trkpt>
      <trkpt lat="27.978491" lon="-15.544965">
        <ele>1557.33</ele>
        <time>2018-02-17T09:29:51Z</time>
      </trkpt>
      <trkpt lat="27.978477" lon="-15.544953">
        <ele>1557.74</ele>
        <time>2018-02-17T09:29:54Z</time>
      </trkpt>
      <trkpt lat="27.978457" lon="-15.544947">
        <ele>1558.59</ele>
        <time>2018-02-17T09:29:58Z</time>
      </trkpt>
      <trkpt lat="27.978435" lon="-15.544936">
        <ele>1558.90</ele>
        <time>2018-02-17T09:30:03Z</time>
      </trkpt>
      <trkpt lat="27.978415" lon="-15.544928">
        <ele>1559.11</ele>
        <time>2018-02-17T09:30:05Z</time>
      </trkpt>
      <trkpt lat="27.978392" lon="-15.544908">
        <ele>1559.50</ele>
        <time>2018-02-17T09:30:08Z</time>
      </trkpt>
      <trkpt lat="27.978377" lon="-15.544889">
        <ele>1559.60</ele>
        <time>2018-02-17T09:30:10Z</time>
      </trkpt>
      <trkpt lat="27.978355" lon="-15.544870">
        <ele>1559.60</ele>
        <time>2018-02-17T09:30:13Z</time>
      </trkpt>
      <trkpt lat="27.978335" lon="-15.544853">
        <ele>1560.31</ele>
        <time>2018-02-17T09:30:15Z</time>
      </trkpt>
      <trkpt lat="27.978321" lon="-15.544839">
        <ele>1560.51</ele>
        <time>2018-02-17T09:30:17Z</time>
      </trkpt>
      <trkpt lat="27.978302" lon="-15.544815">
        <ele>1560.90</ele>
        <time>2018-02-17T09:30:20Z</time>
      </trkpt>
      <trkpt lat="27.978290" lon="-15.544795">
        <ele>1560.94</ele>
        <time>2018-02-17T09:30:22Z</time>
      </trkpt>
      <trkpt lat="27.978273" lon="-15.544772">
        <ele>1561.60</ele>
        <time>2018-02-17T09:30:24Z</time>
      </trkpt>
      <trkpt lat="27.978253" lon="-15.544751">
        <ele>1561.70</ele>
        <time>2018-02-17T09:30:26Z</time>
      </trkpt>
      <trkpt lat="27.978240" lon="-15.544735">
        <ele>1561.91</ele>
        <time>2018-02-17T09:30:28Z</time>
      </trkpt>
      <trkpt lat="27.978223" lon="-15.544728">
        <ele>1562.30</ele>
        <time>2018-02-17T09:30:30Z</time>
      </trkpt>
      <trkpt lat="27.978207" lon="-15.544714">
        <ele>1562.34</ele>
        <time>2018-02-17T09:30:32Z</time>
      </trkpt>
      <trkpt lat="27.978192" lon="-15.544690">
        <ele>1563.30</ele>
        <time>2018-02-17T09:30:34Z</time>
      </trkpt>
      <trkpt lat="27.978177" lon="-15.544666">
        <ele>1563.51</ele>
        <time>2018-02-17T09:30:36Z</time>
      </trkpt>
      <trkpt lat="27.978165" lon="-15.544645">
        <ele>1563.62</ele>
        <time>2018-02-17T09:30:38Z</time>
      </trkpt>
      <trkpt lat="27.978153" lon="-15.544622">
        <ele>1563.83</ele>
        <time>2018-02-17T09:30:40Z</time>
      </trkpt>
      <trkpt lat="27.978141" lon="-15.544597">
        <ele>1564.12</ele>
        <time>2018-02-17T09:30:42Z</time>
      </trkpt>
      <trkpt lat="27.978122" lon="-15.544579">
        <ele>1564.61</ele>
        <time>2018-02-17T09:30:44Z</time>
      </trkpt>
      <trkpt lat="27.978106" lon="-15.544565">
        <ele>1564.82</ele>
        <time>2018-02-17T09:30:46Z</time>
      </trkpt>
      <trkpt lat="27.978084" lon="-15.544557">
        <ele>1565.20</ele>
        <time>2018-02-17T09:30:49Z</time>
      </trkpt>
      <trkpt lat="27.978064" lon="-15.544554">
        <ele>1565.50</ele>
        <time>2018-02-17T09:30:51Z</time>
      </trkpt>
      <trkpt lat="27.978042" lon="-15.544549">
        <ele>1565.80</ele>
        <time>2018-02-17T09:30:53Z</time>
      </trkpt>
      <trkpt lat="27.978020" lon="-15.544537">
        <ele>1565.83</ele>
        <time>2018-02-17T09:30:55Z</time>
      </trkpt>
      <trkpt lat="27.977998" lon="-15.544527">
        <ele>1566.34</ele>
        <time>2018-02-17T09:30:57Z</time>
      </trkpt>
      <trkpt lat="27.977975" lon="-15.544521">
        <ele>1566.92</ele>
        <time>2018-02-17T09:30:59Z</time>
      </trkpt>
      <trkpt lat="27.977954" lon="-15.544517">
        <ele>1567.32</ele>
        <time>2018-02-17T09:31:01Z</time>
      </trkpt>
      <trkpt lat="27.977931" lon="-15.544524">
        <ele>1567.81</ele>
        <time>2018-02-17T09:31:03Z</time>
      </trkpt>
      <trkpt lat="27.977913" lon="-15.544526">
        <ele>1567.92</ele>
        <time>2018-02-17T09:31:05Z</time>
      </trkpt>
      <trkpt lat="27.977891" lon="-15.544525">
        <ele>1568.60</ele>
        <time>2018-02-17T09:31:08Z</time>
      </trkpt>
      <trkpt lat="27.977873" lon="-15.544537">
        <ele>1568.72</ele>
        <time>2018-02-17T09:31:10Z</time>
      </trkpt>
      <trkpt lat="27.977854" lon="-15.544553">
        <ele>1568.90</ele>
        <time>2018-02-17T09:31:12Z</time>
      </trkpt>
      <trkpt lat="27.977836" lon="-15.544576">
        <ele>1568.90</ele>
        <time>2018-02-17T09:31:14Z</time>
      </trkpt>
      <trkpt lat="27.977817" lon="-15.544598">
        <ele>1569.05</ele>
        <time>2018-02-17T09:31:16Z</time>
      </trkpt>
      <trkpt lat="27.977802" lon="-15.544622">
        <ele>1569.73</ele>
        <time>2018-02-17T09:31:18Z</time>
      </trkpt>
      <trkpt lat="27.977792" lon="-15.544650">
        <ele>1570.41</ele>
        <time>2018-02-17T09:31:20Z</time>
      </trkpt>
      <trkpt lat="27.977784" lon="-15.544671">
        <ele>1570.60</ele>
        <time>2018-02-17T09:31:22Z</time>
      </trkpt>
      <trkpt lat="27.977773" lon="-15.544692">
        <ele>1570.70</ele>
        <time>2018-02-17T09:31:24Z</time>
      </trkpt>
      <trkpt lat="27.977759" lon="-15.544715">
        <ele>1570.70</ele>
        <time>2018-02-17T09:31:26Z</time>
      </trkpt>
      <trkpt lat="27.977748" lon="-15.544739">
        <ele>1570.80</ele>
        <time>2018-02-17T09:31:28Z</time>
      </trkpt>
      <trkpt lat="27.977734" lon="-15.544757">
        <ele>1571.32</ele>
        <time>2018-02-17T09:31:30Z</time>
      </trkpt>
      <trkpt lat="27.977725" lon="-15.544777">
        <ele>1571.70</ele>
        <time>2018-02-17T09:31:32Z</time>
      </trkpt>
      <trkpt lat="27.977714" lon="-15.544796">
        <ele>1571.81</ele>
        <time>2018-02-17T09:31:34Z</time>
      </trkpt>
      <trkpt lat="27.977700" lon="-15.544820">
        <ele>1572.24</ele>
        <time>2018-02-17T09:31:37Z</time>
      </trkpt>
      <trkpt lat="27.977688" lon="-15.544841">
        <ele>1572.70</ele>
        <time>2018-02-17T09:31:39Z</time>
      </trkpt>
      <trkpt lat="27.977676" lon="-15.544862">
        <ele>1572.80</ele>
        <time>2018-02-17T09:31:41Z</time>
      </trkpt>
      <trkpt lat="27.977663" lon="-15.544886">
        <ele>1573.31</ele>
        <time>2018-02-17T09:31:44Z</time>
      </trkpt>
      <trkpt lat="27.977648" lon="-15.544905">
        <ele>1573.59</ele>
        <time>2018-02-17T09:31:46Z</time>
      </trkpt>
      <trkpt lat="27.977635" lon="-15.544920">
        <ele>1573.51</ele>
        <time>2018-02-17T09:31:48Z</time>
      </trkpt>
      <trkpt lat="27.977621" lon="-15.544940">
        <ele>1574.33</ele>
        <time>2018-02-17T09:31:50Z</time>
      </trkpt>
      <trkpt lat="27.977603" lon="-15.544956">
        <ele>1574.71</ele>
        <time>2018-02-17T09:31:52Z</time>
      </trkpt>
      <trkpt lat="27.977589" lon="-15.544975">
        <ele>1574.93</ele>
        <time>2018-02-17T09:31:54Z</time>
      </trkpt>
      <trkpt lat="27.977575" lon="-15.545000">
        <ele>1575.43</ele>
        <time>2018-02-17T09:31:56Z</time>
      </trkpt>
      <trkpt lat="27.977560" lon="-15.545024">
        <ele>1575.70</ele>
        <time>2018-02-17T09:31:58Z</time>
      </trkpt>
      <trkpt lat="27.977542" lon="-15.545045">
        <ele>1576.02</ele>
        <time>2018-02-17T09:32:00Z</time>
      </trkpt>
      <trkpt lat="27.977527" lon="-15.545074">
        <ele>1576.40</ele>
        <time>2018-02-17T09:32:02Z</time>
      </trkpt>
      <trkpt lat="27.977514" lon="-15.545098">
        <ele>1576.40</ele>
        <time>2018-02-17T09:32:04Z</time>
      </trkpt>
      <trkpt lat="27.977505" lon="-15.545121">
        <ele>1576.62</ele>
        <time>2018-02-17T09:32:06Z</time>
      </trkpt>
      <trkpt lat="27.977496" lon="-15.545144">
        <ele>1577.10</ele>
        <time>2018-02-17T09:32:08Z</time>
      </trkpt>
      <trkpt lat="27.977479" lon="-15.545164">
        <ele>1577.30</ele>
        <time>2018-02-17T09:32:11Z</time>
      </trkpt>
      <trkpt lat="27.977463" lon="-15.545183">
        <ele>1577.41</ele>
        <time>2018-02-17T09:32:13Z</time>
      </trkpt>
      <trkpt lat="27.977447" lon="-15.545203">
        <ele>1577.74</ele>
        <time>2018-02-17T09:32:15Z</time>
      </trkpt>
      <trkpt lat="27.977432" lon="-15.545234">
        <ele>1578.47</ele>
        <time>2018-02-17T09:32:18Z</time>
      </trkpt>
      <trkpt lat="27.977422" lon="-15.545255">
        <ele>1579.50</ele>
        <time>2018-02-17T09:32:20Z</time>
      </trkpt>
      <trkpt lat="27.977408" lon="-15.545271">
        <ele>1579.52</ele>
        <time>2018-02-17T09:32:23Z</time>
      </trkpt>
      <trkpt lat="27.977383" lon="-15.545287">
        <ele>1580.24</ele>
        <time>2018-02-17T09:32:26Z</time>
      </trkpt>
      <trkpt lat="27.977352" lon="-15.545309">
        <ele>1581.00</ele>
        <time>2018-02-17T09:32:29Z</time>
      </trkpt>
      <trkpt lat="27.977322" lon="-15.545315">
        <ele>1581.20</ele>
        <time>2018-02-17T09:32:32Z</time>
      </trkpt>
      <trkpt lat="27.977309" lon="-15.545332">
        <ele>1581.40</ele>
        <time>2018-02-17T09:32:34Z</time>
      </trkpt>
      <trkpt lat="27.977288" lon="-15.545341">
        <ele>1582.13</ele>
        <time>2018-02-17T09:32:38Z</time>
      </trkpt>
      <trkpt lat="27.977270" lon="-15.545360">
        <ele>1582.71</ele>
        <time>2018-02-17T09:32:40Z</time>
      </trkpt>
      <trkpt lat="27.977256" lon="-15.545374">
        <ele>1582.83</ele>
        <time>2018-02-17T09:32:41Z</time>
      </trkpt>
      <trkpt lat="27.977236" lon="-15.545389">
        <ele>1583.10</ele>
        <time>2018-02-17T09:32:44Z</time>
      </trkpt>
      <trkpt lat="27.977219" lon="-15.545403">
        <ele>1583.37</ele>
        <time>2018-02-17T09:32:46Z</time>
      </trkpt>
      <trkpt lat="27.977204" lon="-15.545416">
        <ele>1583.13</ele>
        <time>2018-02-17T09:32:48Z</time>
      </trkpt>
      <trkpt lat="27.977179" lon="-15.545423">
        <ele>1584.11</ele>
        <time>2018-02-17T09:32:51Z</time>
      </trkpt>
      <trkpt lat="27.977156" lon="-15.545437">
        <ele>1584.52</ele>
        <time>2018-02-17T09:32:53Z</time>
      </trkpt>
      <trkpt lat="27.977138" lon="-15.545454">
        <ele>1584.71</ele>
        <time>2018-02-17T09:32:55Z</time>
      </trkpt>
      <trkpt lat="27.977119" lon="-15.545469">
        <ele>1585.17</ele>
        <time>2018-02-17T09:32:57Z</time>
      </trkpt>
      <trkpt lat="27.977095" lon="-15.545493">
        <ele>1584.83</ele>
        <time>2018-02-17T09:32:59Z</time>
      </trkpt>
      <trkpt lat="27.977078" lon="-15.545501">
        <ele>1585.32</ele>
        <time>2018-02-17T09:33:01Z</time>
      </trkpt>
      <trkpt lat="27.977060" lon="-15.545511">
        <ele>1586.01</ele>
        <time>2018-02-17T09:33:03Z</time>
      </trkpt>
      <trkpt lat="27.977040" lon="-15.545519">
        <ele>1586.62</ele>
        <time>2018-02-17T09:33:05Z</time>
      </trkpt>
      <trkpt lat="27.977016" lon="-15.545518">
        <ele>1587.06</ele>
        <time>2018-02-17T09:33:07Z</time>
      </trkpt>
      <trkpt lat="27.976993" lon="-15.545528">
        <ele>1588.80</ele>
        <time>2018-02-17T09:33:10Z</time>
      </trkpt>
      <trkpt lat="27.976973" lon="-15.545536">
        <ele>1588.77</ele>
        <time>2018-02-17T09:33:12Z</time>
      </trkpt>
      <trkpt lat="27.976949" lon="-15.545546">
        <ele>1588.01</ele>
        <time>2018-02-17T09:33:14Z</time>
      </trkpt>
      <trkpt lat="27.976931" lon="-15.545558">
        <ele>1588.00</ele>
        <time>2018-02-17T09:33:16Z</time>
      </trkpt>
      <trkpt lat="27.976915" lon="-15.545568">
        <ele>1588.01</ele>
        <time>2018-02-17T09:33:18Z</time>
      </trkpt>
      <trkpt lat="27.976900" lon="-15.545581">
        <ele>1588.50</ele>
        <time>2018-02-17T09:33:20Z</time>
      </trkpt>
      <trkpt lat="27.976878" lon="-15.545592">
        <ele>1588.70</ele>
        <time>2018-02-17T09:33:23Z</time>
      </trkpt>
      <trkpt lat="27.976861" lon="-15.545609">
        <ele>1589.32</ele>
        <time>2018-02-17T09:33:27Z</time>
      </trkpt>
      <trkpt lat="27.976838" lon="-15.545624">
        <ele>1589.80</ele>
        <time>2018-02-17T09:33:30Z</time>
      </trkpt>
      <trkpt lat="27.976815" lon="-15.545660">
        <ele>1590.02</ele>
        <time>2018-02-17T09:33:33Z</time>
      </trkpt>
      <trkpt lat="27.976806" lon="-15.545681">
        <ele>1590.82</ele>
        <time>2018-02-17T09:33:35Z</time>
      </trkpt>
      <trkpt lat="27.976788" lon="-15.545689">
        <ele>1591.25</ele>
        <time>2018-02-17T09:33:37Z</time>
      </trkpt>
      <trkpt lat="27.976776" lon="-15.545716">
        <ele>1591.94</ele>
        <time>2018-02-17T09:33:39Z</time>
      </trkpt>
      <trkpt lat="27.976769" lon="-15.545750">
        <ele>1592.10</ele>
        <time>2018-02-17T09:33:41Z</time>
      </trkpt>
      <trkpt lat="27.976766" lon="-15.545789">
        <ele>1592.46</ele>
        <time>2018-02-17T09:33:44Z</time>
      </trkpt>
      <trkpt lat="27.976761" lon="-15.545812">
        <ele>1593.50</ele>
        <time>2018-02-17T09:33:47Z</time>
      </trkpt>
      <trkpt lat="27.976760" lon="-15.545849">
        <ele>1593.83</ele>
        <time>2018-02-17T09:33:50Z</time>
      </trkpt>
      <trkpt lat="27.976763" lon="-15.545880">
        <ele>1594.10</ele>
        <time>2018-02-17T09:33:52Z</time>
      </trkpt>
      <trkpt lat="27.976766" lon="-15.545907">
        <ele>1594.60</ele>
        <time>2018-02-17T09:33:55Z</time>
      </trkpt>
      <trkpt lat="27.976754" lon="-15.545960">
        <ele>1595.51</ele>
        <time>2018-02-17T09:34:01Z</time>
      </trkpt>
      <trkpt lat="27.976749" lon="-15.545992">
        <ele>1595.61</ele>
        <time>2018-02-17T09:34:03Z</time>
      </trkpt>
      <trkpt lat="27.976755" lon="-15.546016">
        <ele>1595.93</ele>
        <time>2018-02-17T09:34:05Z</time>
      </trkpt>
      <trkpt lat="27.976755" lon="-15.546041">
        <ele>1596.70</ele>
        <time>2018-02-17T09:34:08Z</time>
      </trkpt>
      <trkpt lat="27.976752" lon="-15.546064">
        <ele>1596.91</ele>
        <time>2018-02-17T09:34:11Z</time>
      </trkpt>
      <trkpt lat="27.976767" lon="-15.546132">
        <ele>1597.74</ele>
        <time>2018-02-17T09:34:15Z</time>
      </trkpt>
      <trkpt lat="27.976768" lon="-15.546164">
        <ele>1598.30</ele>
        <time>2018-02-17T09:34:17Z</time>
      </trkpt>
      <trkpt lat="27.976787" lon="-15.546210">
        <ele>1598.76</ele>
        <time>2018-02-17T09:34:21Z</time>
      </trkpt>
      <trkpt lat="27.976798" lon="-15.546266">
        <ele>1599.80</ele>
        <time>2018-02-17T09:34:25Z</time>
      </trkpt>
      <trkpt lat="27.976775" lon="-15.546273">
        <ele>1599.80</ele>
        <time>2018-02-17T09:34:29Z</time>
      </trkpt>
      <trkpt lat="27.976764" lon="-15.546299">
        <ele>1599.89</ele>
        <time>2018-02-17T09:34:31Z</time>
      </trkpt>
      <trkpt lat="27.976738" lon="-15.546311">
        <ele>1599.93</ele>
        <time>2018-02-17T09:34:33Z</time>
      </trkpt>
      <trkpt lat="27.976714" lon="-15.546315">
        <ele>1600.41</ele>
        <time>2018-02-17T09:34:35Z</time>
      </trkpt>
      <trkpt lat="27.976694" lon="-15.546326">
        <ele>1600.73</ele>
        <time>2018-02-17T09:34:38Z</time>
      </trkpt>
      <trkpt lat="27.976675" lon="-15.546340">
        <ele>1601.32</ele>
        <time>2018-02-17T09:34:41Z</time>
      </trkpt>
      <trkpt lat="27.976656" lon="-15.546352">
        <ele>1602.00</ele>
        <time>2018-02-17T09:34:43Z</time>
      </trkpt>
      <trkpt lat="27.976637" lon="-15.546353">
        <ele>1602.13</ele>
        <time>2018-02-17T09:34:45Z</time>
      </trkpt>
      <trkpt lat="27.976615" lon="-15.546364">
        <ele>1602.59</ele>
        <time>2018-02-17T09:34:47Z</time>
      </trkpt>
      <trkpt lat="27.976598" lon="-15.546373">
        <ele>1602.62</ele>
        <time>2018-02-17T09:34:49Z</time>
      </trkpt>
      <trkpt lat="27.976575" lon="-15.546381">
        <ele>1602.80</ele>
        <time>2018-02-17T09:34:51Z</time>
      </trkpt>
      <trkpt lat="27.976548" lon="-15.546391">
        <ele>1603.50</ele>
        <time>2018-02-17T09:34:53Z</time>
      </trkpt>
      <trkpt lat="27.976525" lon="-15.546404">
        <ele>1603.74</ele>
        <time>2018-02-17T09:34:55Z</time>
      </trkpt>
      <trkpt lat="27.976512" lon="-15.546426">
        <ele>1604.31</ele>
        <time>2018-02-17T09:34:57Z</time>
      </trkpt>
      <trkpt lat="27.976500" lon="-15.546457">
        <ele>1604.60</ele>
        <time>2018-02-17T09:34:59Z</time>
      </trkpt>
      <trkpt lat="27.976485" lon="-15.546494">
        <ele>1604.74</ele>
        <time>2018-02-17T09:35:01Z</time>
      </trkpt>
      <trkpt lat="27.976421" lon="-15.546575">
        <ele>1606.73</ele>
        <time>2018-02-17T09:35:08Z</time>
      </trkpt>
      <trkpt lat="27.976369" lon="-15.546660">
        <ele>1608.20</ele>
        <time>2018-02-17T09:35:17Z</time>
      </trkpt>
      <trkpt lat="27.976359" lon="-15.546774">
        <ele>1608.59</ele>
        <time>2018-02-17T09:35:23Z</time>
      </trkpt>
      <trkpt lat="27.976366" lon="-15.546805">
        <ele>1609.20</ele>
        <time>2018-02-17T09:35:25Z</time>
      </trkpt>
      <trkpt lat="27.976340" lon="-15.546912">
        <ele>1610.61</ele>
        <time>2018-02-17T09:35:34Z</time>
      </trkpt>
      <trkpt lat="27.976379" lon="-15.547012">
        <ele>1612.92</ele>
        <time>2018-02-17T09:35:42Z</time>
      </trkpt>
      <trkpt lat="27.976432" lon="-15.547109">
        <ele>1614.80</ele>
        <time>2018-02-17T09:35:49Z</time>
      </trkpt>
      <trkpt lat="27.976452" lon="-15.547217">
        <ele>1617.00</ele>
        <time>2018-02-17T09:35:59Z</time>
      </trkpt>
      <trkpt lat="27.976452" lon="-15.547243">
        <ele>1617.10</ele>
        <time>2018-02-17T09:36:02Z</time>
      </trkpt>
      <trkpt lat="27.976458" lon="-15.547264">
        <ele>1618.30</ele>
        <time>2018-02-17T09:36:06Z</time>
      </trkpt>
      <trkpt lat="27.976497" lon="-15.547351">
        <ele>1619.90</ele>
        <time>2018-02-17T09:36:13Z</time>
      </trkpt>
      <trkpt lat="27.976496" lon="-15.547380">
        <ele>1620.00</ele>
        <time>2018-02-17T09:36:15Z</time>
      </trkpt>
      <trkpt lat="27.976498" lon="-15.547404">
        <ele>1620.80</ele>
        <time>2018-02-17T09:36:20Z</time>
      </trkpt>
      <trkpt lat="27.976517" lon="-15.547429">
        <ele>1622.88</ele>
        <time>2018-02-17T09:36:24Z</time>
      </trkpt>
      <trkpt lat="27.976536" lon="-15.547446">
        <ele>1623.69</ele>
        <time>2018-02-17T09:36:27Z</time>
      </trkpt>
      <trkpt lat="27.976537" lon="-15.547471">
        <ele>1623.80</ele>
        <time>2018-02-17T09:36:31Z</time>
      </trkpt>
      <trkpt lat="27.976542" lon="-15.547493">
        <ele>1623.70</ele>
        <time>2018-02-17T09:36:34Z</time>
      </trkpt>
      <trkpt lat="27.976549" lon="-15.547522">
        <ele>1624.00</ele>
        <time>2018-02-17T09:36:37Z</time>
      </trkpt>
      <trkpt lat="27.976526" lon="-15.547627">
        <ele>1624.90</ele>
        <time>2018-02-17T09:36:52Z</time>
      </trkpt>
      <trkpt lat="27.976533" lon="-15.547734">
        <ele>1625.39</ele>
        <time>2018-02-17T09:37:03Z</time>
      </trkpt>
      <trkpt lat="27.976565" lon="-15.547839">
        <ele>1626.50</ele>
        <time>2018-02-17T09:37:09Z</time>
      </trkpt>
      <trkpt lat="27.976625" lon="-15.547924">
        <ele>1627.19</ele>
        <time>2018-02-17T09:37:14Z</time>
      </trkpt>
      <trkpt lat="27.976622" lon="-15.548031">
        <ele>1629.28</ele>
        <time>2018-02-17T09:37:25Z</time>
      </trkpt>
      <trkpt lat="27.976681" lon="-15.548116">
        <ele>1630.80</ele>
        <time>2018-02-17T09:37:34Z</time>
      </trkpt>
      <trkpt lat="27.976725" lon="-15.548210">
        <ele>1633.10</ele>
        <time>2018-02-17T09:37:44Z</time>
      </trkpt>
      <trkpt lat="27.976745" lon="-15.548311">
        <ele>1636.29</ele>
        <time>2018-02-17T09:37:57Z</time>
      </trkpt>
      <trkpt lat="27.976770" lon="-15.548380">
        <ele>1638.28</ele>
        <time>2018-02-17T09:38:05Z</time>
      </trkpt>
      <trkpt lat="27.976772" lon="-15.548400">
        <ele>1638.89</ele>
        <time>2018-02-17T09:38:08Z</time>
      </trkpt>
      <trkpt lat="27.976767" lon="-15.548428">
        <ele>1639.58</ele>
        <time>2018-02-17T09:38:11Z</time>
      </trkpt>
      <trkpt lat="27.976763" lon="-15.548449">
        <ele>1640.38</ele>
        <time>2018-02-17T09:38:15Z</time>
      </trkpt>
      <trkpt lat="27.976765" lon="-15.548475">
        <ele>1640.99</ele>
        <time>2018-02-17T09:38:18Z</time>
      </trkpt>
      <trkpt lat="27.976762" lon="-15.548505">
        <ele>1641.88</ele>
        <time>2018-02-17T09:38:21Z</time>
      </trkpt>
      <trkpt lat="27.976777" lon="-15.548520">
        <ele>1642.08</ele>
        <time>2018-02-17T09:38:23Z</time>
      </trkpt>
      <trkpt lat="27.976775" lon="-15.548562">
        <ele>1643.48</ele>
        <time>2018-02-17T09:38:27Z</time>
      </trkpt>
      <trkpt lat="27.976767" lon="-15.548591">
        <ele>1644.05</ele>
        <time>2018-02-17T09:38:30Z</time>
      </trkpt>
      <trkpt lat="27.976763" lon="-15.548624">
        <ele>1644.87</ele>
        <time>2018-02-17T09:38:34Z</time>
      </trkpt>
      <trkpt lat="27.976765" lon="-15.548647">
        <ele>1645.28</ele>
        <time>2018-02-17T09:38:37Z</time>
      </trkpt>
      <trkpt lat="27.976796" lon="-15.548701">
        <ele>1646.67</ele>
        <time>2018-02-17T09:38:43Z</time>
      </trkpt>
      <trkpt lat="27.976805" lon="-15.548719">
        <ele>1646.97</ele>
        <time>2018-02-17T09:38:45Z</time>
      </trkpt>
      <trkpt lat="27.976802" lon="-15.548746">
        <ele>1647.59</ele>
        <time>2018-02-17T09:38:48Z</time>
      </trkpt>
      <trkpt lat="27.976785" lon="-15.548795">
        <ele>1648.67</ele>
        <time>2018-02-17T09:38:52Z</time>
      </trkpt>
      <trkpt lat="27.976713" lon="-15.548859">
        <ele>1649.63</ele>
        <time>2018-02-17T09:38:58Z</time>
      </trkpt>
      <trkpt lat="27.976695" lon="-15.548891">
        <ele>1650.48</ele>
        <time>2018-02-17T09:39:05Z</time>
      </trkpt>
      <trkpt lat="27.976688" lon="-15.548915">
        <ele>1651.50</ele>
        <time>2018-02-17T09:39:14Z</time>
      </trkpt>
      <trkpt lat="27.976604" lon="-15.548966">
        <ele>1651.43</ele>
        <time>2018-02-17T09:39:41Z</time>
      </trkpt>
      <trkpt lat="27.976509" lon="-15.548958">
        <ele>1652.53</ele>
        <time>2018-02-17T09:40:02Z</time>
      </trkpt>
      <trkpt lat="27.976468" lon="-15.549058">
        <ele>1655.10</ele>
        <time>2018-02-17T09:40:17Z</time>
      </trkpt>
      <trkpt lat="27.976381" lon="-15.549085">
        <ele>1655.33</ele>
        <time>2018-02-17T09:40:21Z</time>
      </trkpt>
      <trkpt lat="27.976284" lon="-15.549107">
        <ele>1655.80</ele>
        <time>2018-02-17T09:40:25Z</time>
      </trkpt>
      <trkpt lat="27.976190" lon="-15.549120">
        <ele>1657.40</ele>
        <time>2018-02-17T09:40:34Z</time>
      </trkpt>
      <trkpt lat="27.976120" lon="-15.549193">
        <ele>1660.89</ele>
        <time>2018-02-17T09:40:58Z</time>
      </trkpt>
      <trkpt lat="27.976063" lon="-15.549103">
        <ele>1665.26</ele>
        <time>2018-02-17T09:41:22Z</time>
      </trkpt>
      <trkpt lat="27.975988" lon="-15.549027">
        <ele>1666.70</ele>
        <time>2018-02-17T09:41:31Z</time>
      </trkpt>
      <trkpt lat="27.975928" lon="-15.548931">
        <ele>1667.97</ele>
        <time>2018-02-17T09:41:39Z</time>
      </trkpt>
      <trkpt lat="27.975873" lon="-15.548846">
        <ele>1669.40</ele>
        <time>2018-02-17T09:41:47Z</time>
      </trkpt>
      <trkpt lat="27.975808" lon="-15.548772">
        <ele>1669.16</ele>
        <time>2018-02-17T09:41:55Z</time>
      </trkpt>
      <trkpt lat="27.975730" lon="-15.548698">
        <ele>1670.30</ele>
        <time>2018-02-17T09:42:03Z</time>
      </trkpt>
      <trkpt lat="27.975644" lon="-15.548658">
        <ele>1671.72</ele>
        <time>2018-02-17T09:42:07Z</time>
      </trkpt>
      <trkpt lat="27.975567" lon="-15.548594">
        <ele>1672.80</ele>
        <time>2018-02-17T09:42:16Z</time>
      </trkpt>
      <trkpt lat="27.975493" lon="-15.548534">
        <ele>1674.10</ele>
        <time>2018-02-17T09:42:26Z</time>
      </trkpt>
      <trkpt lat="27.975468" lon="-15.548514">
        <ele>1674.60</ele>
        <time>2018-02-17T09:42:29Z</time>
      </trkpt>
      <trkpt lat="27.975448" lon="-15.548500">
        <ele>1674.65</ele>
        <time>2018-02-17T09:42:31Z</time>
      </trkpt>
      <trkpt lat="27.975426" lon="-15.548495">
        <ele>1674.80</ele>
        <time>2018-02-17T09:42:33Z</time>
      </trkpt>
      <trkpt lat="27.975338" lon="-15.548472">
        <ele>1676.65</ele>
        <time>2018-02-17T09:42:43Z</time>
      </trkpt>
      <trkpt lat="27.975247" lon="-15.548459">
        <ele>1678.05</ele>
        <time>2018-02-17T09:42:52Z</time>
      </trkpt>
      <trkpt lat="27.975147" lon="-15.548444">
        <ele>1679.46</ele>
        <time>2018-02-17T09:42:59Z</time>
      </trkpt>
      <trkpt lat="27.975043" lon="-15.548435">
        <ele>1680.25</ele>
        <time>2018-02-17T09:43:06Z</time>
      </trkpt>
      <trkpt lat="27.974938" lon="-15.548425">
        <ele>1681.35</ele>
        <time>2018-02-17T09:43:14Z</time>
      </trkpt>
      <trkpt lat="27.974826" lon="-15.548437">
        <ele>1682.00</ele>
        <time>2018-02-17T09:43:20Z</time>
      </trkpt>
      <trkpt lat="27.974733" lon="-15.548449">
        <ele>1683.25</ele>
        <time>2018-02-17T09:43:26Z</time>
      </trkpt>
      <trkpt lat="27.974636" lon="-15.548422">
        <ele>1684.50</ele>
        <time>2018-02-17T09:43:33Z</time>
      </trkpt>
      <trkpt lat="27.974545" lon="-15.548423">
        <ele>1685.75</ele>
        <time>2018-02-17T09:43:40Z</time>
      </trkpt>
      <trkpt lat="27.974451" lon="-15.548396">
        <ele>1685.64</ele>
        <time>2018-02-17T09:43:52Z</time>
      </trkpt>
      <trkpt lat="27.974357" lon="-15.548379">
        <ele>1686.10</ele>
        <time>2018-02-17T09:43:57Z</time>
      </trkpt>
      <trkpt lat="27.974264" lon="-15.548376">
        <ele>1686.94</ele>
        <time>2018-02-17T09:44:04Z</time>
      </trkpt>
      <trkpt lat="27.974245" lon="-15.548252">
        <ele>1688.09</ele>
        <time>2018-02-17T09:44:15Z</time>
      </trkpt>
      <trkpt lat="27.974205" lon="-15.548147">
        <ele>1688.93</ele>
        <time>2018-02-17T09:44:22Z</time>
      </trkpt>
      <trkpt lat="27.974135" lon="-15.548076">
        <ele>1690.44</ele>
        <time>2018-02-17T09:44:28Z</time>
      </trkpt>
      <trkpt lat="27.974076" lon="-15.547986">
        <ele>1693.00</ele>
        <time>2018-02-17T09:44:39Z</time>
      </trkpt>
      <trkpt lat="27.974010" lon="-15.547914">
        <ele>1693.74</ele>
        <time>2018-02-17T09:44:47Z</time>
      </trkpt>
      <trkpt lat="27.973924" lon="-15.547857">
        <ele>1694.70</ele>
        <time>2018-02-17T09:44:54Z</time>
      </trkpt>
      <trkpt lat="27.973817" lon="-15.547824">
        <ele>1695.60</ele>
        <time>2018-02-17T09:44:59Z</time>
      </trkpt>
      <trkpt lat="27.973719" lon="-15.547831">
        <ele>1696.03</ele>
        <time>2018-02-17T09:45:05Z</time>
      </trkpt>
      <trkpt lat="27.973632" lon="-15.547861">
        <ele>1697.09</ele>
        <time>2018-02-17T09:45:11Z</time>
      </trkpt>
      <trkpt lat="27.973547" lon="-15.547905">
        <ele>1697.39</ele>
        <time>2018-02-17T09:45:19Z</time>
      </trkpt>
      <trkpt lat="27.973467" lon="-15.547956">
        <ele>1699.63</ele>
        <time>2018-02-17T09:45:27Z</time>
      </trkpt>
      <trkpt lat="27.973386" lon="-15.548012">
        <ele>1701.14</ele>
        <time>2018-02-17T09:45:37Z</time>
      </trkpt>
      <trkpt lat="27.973318" lon="-15.548083">
        <ele>1702.15</ele>
        <time>2018-02-17T09:45:45Z</time>
      </trkpt>
      <trkpt lat="27.973222" lon="-15.548123">
        <ele>1702.94</ele>
        <time>2018-02-17T09:45:51Z</time>
      </trkpt>
      <trkpt lat="27.973224" lon="-15.548213">
        <ele>1703.71</ele>
        <time>2018-02-17T09:45:59Z</time>
      </trkpt>
      <trkpt lat="27.973141" lon="-15.548215">
        <ele>1704.40</ele>
        <time>2018-02-17T09:46:08Z</time>
      </trkpt>
      <trkpt lat="27.973114" lon="-15.548220">
        <ele>1704.48</ele>
        <time>2018-02-17T09:46:10Z</time>
      </trkpt>
      <trkpt lat="27.973014" lon="-15.548230">
        <ele>1705.00</ele>
        <time>2018-02-17T09:46:16Z</time>
      </trkpt>
      <trkpt lat="27.972925" lon="-15.548205">
        <ele>1705.10</ele>
        <time>2018-02-17T09:46:22Z</time>
      </trkpt>
      <trkpt lat="27.972898" lon="-15.548202">
        <ele>1705.10</ele>
        <time>2018-02-17T09:46:23Z</time>
      </trkpt>
      <trkpt lat="27.972874" lon="-15.548213">
        <ele>1705.10</ele>
        <time>2018-02-17T09:46:24Z</time>
      </trkpt>
      <trkpt lat="27.972854" lon="-15.548224">
        <ele>1705.10</ele>
        <time>2018-02-17T09:46:25Z</time>
      </trkpt>
      <trkpt lat="27.972836" lon="-15.548231">
        <ele>1705.14</ele>
        <time>2018-02-17T09:46:26Z</time>
      </trkpt>
      <trkpt lat="27.972808" lon="-15.548244">
        <ele>1706.18</ele>
        <time>2018-02-17T09:46:28Z</time>
      </trkpt>
      <trkpt lat="27.972790" lon="-15.548244">
        <ele>1706.30</ele>
        <time>2018-02-17T09:46:30Z</time>
      </trkpt>
      <trkpt lat="27.972771" lon="-15.548241">
        <ele>1706.10</ele>
        <time>2018-02-17T09:46:32Z</time>
      </trkpt>
      <trkpt lat="27.972752" lon="-15.548245">
        <ele>1705.63</ele>
        <time>2018-02-17T09:46:34Z</time>
      </trkpt>
      <trkpt lat="27.972730" lon="-15.548252">
        <ele>1705.08</ele>
        <time>2018-02-17T09:46:36Z</time>
      </trkpt>
      <trkpt lat="27.972711" lon="-15.548261">
        <ele>1704.86</ele>
        <time>2018-02-17T09:46:38Z</time>
      </trkpt>
      <trkpt lat="27.972688" lon="-15.548270">
        <ele>1704.84</ele>
        <time>2018-02-17T09:46:40Z</time>
      </trkpt>
      <trkpt lat="27.972660" lon="-15.548267">
        <ele>1704.80</ele>
        <time>2018-02-17T09:46:42Z</time>
      </trkpt>
      <trkpt lat="27.972627" lon="-15.548254">
        <ele>1704.84</ele>
        <time>2018-02-17T09:46:44Z</time>
      </trkpt>
      <trkpt lat="27.972598" lon="-15.548256">
        <ele>1705.20</ele>
        <time>2018-02-17T09:46:46Z</time>
      </trkpt>
      <trkpt lat="27.972562" lon="-15.548266">
        <ele>1705.30</ele>
        <time>2018-02-17T09:46:48Z</time>
      </trkpt>
      <trkpt lat="27.972543" lon="-15.548278">
        <ele>1705.30</ele>
        <time>2018-02-17T09:46:49Z</time>
      </trkpt>
      <trkpt lat="27.972526" lon="-15.548285">
        <ele>1705.38</ele>
        <time>2018-02-17T09:46:50Z</time>
      </trkpt>
      <trkpt lat="27.972503" lon="-15.548294">
        <ele>1705.50</ele>
        <time>2018-02-17T09:46:51Z</time>
      </trkpt>
      <trkpt lat="27.972483" lon="-15.548301">
        <ele>1705.50</ele>
        <time>2018-02-17T09:46:52Z</time>
      </trkpt>
      <trkpt lat="27.972463" lon="-15.548306">
        <ele>1705.58</ele>
        <time>2018-02-17T09:46:53Z</time>
      </trkpt>
      <trkpt lat="27.972436" lon="-15.548322">
        <ele>1705.86</ele>
        <time>2018-02-17T09:46:54Z</time>
      </trkpt>
      <trkpt lat="27.972412" lon="-15.548334">
        <ele>1706.10</ele>
        <time>2018-02-17T09:46:55Z</time>
      </trkpt>
      <trkpt lat="27.972384" lon="-15.548351">
        <ele>1706.10</ele>
        <time>2018-02-17T09:46:56Z</time>
      </trkpt>
      <trkpt lat="27.972360" lon="-15.548364">
        <ele>1706.10</ele>
        <time>2018-02-17T09:46:57Z</time>
      </trkpt>
      <trkpt lat="27.972336" lon="-15.548377">
        <ele>1706.43</ele>
        <time>2018-02-17T09:46:58Z</time>
      </trkpt>
      <trkpt lat="27.972313" lon="-15.548388">
        <ele>1706.90</ele>
        <time>2018-02-17T09:46:59Z</time>
      </trkpt>
      <trkpt lat="27.972290" lon="-15.548405">
        <ele>1706.90</ele>
        <time>2018-02-17T09:47:00Z</time>
      </trkpt>
      <trkpt lat="27.972265" lon="-15.548421">
        <ele>1706.98</ele>
        <time>2018-02-17T09:47:01Z</time>
      </trkpt>
      <trkpt lat="27.972242" lon="-15.548438">
        <ele>1707.10</ele>
        <time>2018-02-17T09:47:02Z</time>
      </trkpt>
      <trkpt lat="27.972217" lon="-15.548452">
        <ele>1707.10</ele>
        <time>2018-02-17T09:47:03Z</time>
      </trkpt>
      <trkpt lat="27.972194" lon="-15.548462">
        <ele>1707.10</ele>
        <time>2018-02-17T09:47:04Z</time>
      </trkpt>
      <trkpt lat="27.972169" lon="-15.548470">
        <ele>1707.10</ele>
        <time>2018-02-17T09:47:05Z</time>
      </trkpt>
      <trkpt lat="27.972146" lon="-15.548477">
        <ele>1707.10</ele>
        <time>2018-02-17T09:47:06Z</time>
      </trkpt>
      <trkpt lat="27.972122" lon="-15.548477">
        <ele>1707.10</ele>
        <time>2018-02-17T09:47:07Z</time>
      </trkpt>
      <trkpt lat="27.972104" lon="-15.548473">
        <ele>1707.10</ele>
        <time>2018-02-17T09:47:08Z</time>
      </trkpt>
      <trkpt lat="27.972066" lon="-15.548460">
        <ele>1706.93</ele>
        <time>2018-02-17T09:47:10Z</time>
      </trkpt>
      <trkpt lat="27.972041" lon="-15.548454">
        <ele>1706.70</ele>
        <time>2018-02-17T09:47:11Z</time>
      </trkpt>
      <trkpt lat="27.972018" lon="-15.548447">
        <ele>1706.62</ele>
        <time>2018-02-17T09:47:12Z</time>
      </trkpt>
      <trkpt lat="27.971994" lon="-15.548442">
        <ele>1706.50</ele>
        <time>2018-02-17T09:47:13Z</time>
      </trkpt>
      <trkpt lat="27.971892" lon="-15.548439">
        <ele>1706.08</ele>
        <time>2018-02-17T09:47:17Z</time>
      </trkpt>
      <trkpt lat="27.971867" lon="-15.548446">
        <ele>1706.20</ele>
        <time>2018-02-17T09:47:18Z</time>
      </trkpt>
      <trkpt lat="27.971842" lon="-15.548450">
        <ele>1706.44</ele>
        <time>2018-02-17T09:47:19Z</time>
      </trkpt>
      <trkpt lat="27.971813" lon="-15.548450">
        <ele>1706.80</ele>
        <time>2018-02-17T09:47:20Z</time>
      </trkpt>
      <trkpt lat="27.971788" lon="-15.548446">
        <ele>1706.88</ele>
        <time>2018-02-17T09:47:21Z</time>
      </trkpt>
      <trkpt lat="27.971761" lon="-15.548447">
        <ele>1707.00</ele>
        <time>2018-02-17T09:47:22Z</time>
      </trkpt>
      <trkpt lat="27.971738" lon="-15.548452">
        <ele>1707.11</ele>
        <time>2018-02-17T09:47:23Z</time>
      </trkpt>
      <trkpt lat="27.971714" lon="-15.548457">
        <ele>1707.87</ele>
        <time>2018-02-17T09:47:24Z</time>
      </trkpt>
      <trkpt lat="27.971692" lon="-15.548458">
        <ele>1708.23</ele>
        <time>2018-02-17T09:47:25Z</time>
      </trkpt>
      <trkpt lat="27.971667" lon="-15.548462">
        <ele>1707.76</ele>
        <time>2018-02-17T09:47:26Z</time>
      </trkpt>
      <trkpt lat="27.971641" lon="-15.548466">
        <ele>1708.05</ele>
        <time>2018-02-17T09:47:27Z</time>
      </trkpt>
      <trkpt lat="27.971618" lon="-15.548470">
        <ele>1707.64</ele>
        <time>2018-02-17T09:47:28Z</time>
      </trkpt>
      <trkpt lat="27.971593" lon="-15.548479">
        <ele>1708.20</ele>
        <time>2018-02-17T09:47:29Z</time>
      </trkpt>
      <trkpt lat="27.971566" lon="-15.548487">
        <ele>1708.31</ele>
        <time>2018-02-17T09:47:30Z</time>
      </trkpt>
      <trkpt lat="27.971541" lon="-15.548494">
        <ele>1708.50</ele>
        <time>2018-02-17T09:47:31Z</time>
      </trkpt>
      <trkpt lat="27.971517" lon="-15.548499">
        <ele>1708.50</ele>
        <time>2018-02-17T09:47:32Z</time>
      </trkpt>
      <trkpt lat="27.971492" lon="-15.548505">
        <ele>1708.50</ele>
        <time>2018-02-17T09:47:33Z</time>
      </trkpt>
      <trkpt lat="27.971470" lon="-15.548514">
        <ele>1708.50</ele>
        <time>2018-02-17T09:47:34Z</time>
      </trkpt>
      <trkpt lat="27.971453" lon="-15.548521">
        <ele>1708.71</ele>
        <time>2018-02-17T09:47:35Z</time>
      </trkpt>
      <trkpt lat="27.971434" lon="-15.548525">
        <ele>1709.10</ele>
        <time>2018-02-17T09:47:36Z</time>
      </trkpt>
      <trkpt lat="27.971412" lon="-15.548530">
        <ele>1709.14</ele>
        <time>2018-02-17T09:47:37Z</time>
      </trkpt>
      <trkpt lat="27.971390" lon="-15.548535">
        <ele>1709.20</ele>
        <time>2018-02-17T09:47:38Z</time>
      </trkpt>
      <trkpt lat="27.971370" lon="-15.548539">
        <ele>1709.20</ele>
        <time>2018-02-17T09:47:39Z</time>
      </trkpt>
      <trkpt lat="27.971353" lon="-15.548532">
        <ele>1709.20</ele>
        <time>2018-02-17T09:47:40Z</time>
      </trkpt>
      <trkpt lat="27.971333" lon="-15.548534">
        <ele>1709.27</ele>
        <time>2018-02-17T09:47:41Z</time>
      </trkpt>
      <trkpt lat="27.971314" lon="-15.548539">
        <ele>1709.40</ele>
        <time>2018-02-17T09:47:42Z</time>
      </trkpt>
      <trkpt lat="27.971296" lon="-15.548541">
        <ele>1709.51</ele>
        <time>2018-02-17T09:47:43Z</time>
      </trkpt>
      <trkpt lat="27.971272" lon="-15.548545">
        <ele>1709.70</ele>
        <time>2018-02-17T09:47:44Z</time>
      </trkpt>
      <trkpt lat="27.971252" lon="-15.548551">
        <ele>1709.70</ele>
        <time>2018-02-17T09:47:45Z</time>
      </trkpt>
      <trkpt lat="27.971189" lon="-15.548567">
        <ele>1710.33</ele>
        <time>2018-02-17T09:47:48Z</time>
      </trkpt>
      <trkpt lat="27.971170" lon="-15.548576">
        <ele>1710.38</ele>
        <time>2018-02-17T09:47:49Z</time>
      </trkpt>
      <trkpt lat="27.971138" lon="-15.548597">
        <ele>1710.80</ele>
        <time>2018-02-17T09:47:51Z</time>
      </trkpt>
      <trkpt lat="27.971120" lon="-15.548606">
        <ele>1710.80</ele>
        <time>2018-02-17T09:47:52Z</time>
      </trkpt>
      <trkpt lat="27.971103" lon="-15.548615">
        <ele>1710.80</ele>
        <time>2018-02-17T09:47:53Z</time>
      </trkpt>
      <trkpt lat="27.971077" lon="-15.548620">
        <ele>1710.80</ele>
        <time>2018-02-17T09:47:55Z</time>
      </trkpt>
      <trkpt lat="27.971056" lon="-15.548623">
        <ele>1710.80</ele>
        <time>2018-02-17T09:47:57Z</time>
      </trkpt>
      <trkpt lat="27.971007" lon="-15.548642">
        <ele>1711.13</ele>
        <time>2018-02-17T09:48:02Z</time>
      </trkpt>
      <trkpt lat="27.970956" lon="-15.548646">
        <ele>1712.30</ele>
        <time>2018-02-17T09:48:05Z</time>
      </trkpt>
      <trkpt lat="27.970858" lon="-15.548656">
        <ele>1713.97</ele>
        <time>2018-02-17T09:48:11Z</time>
      </trkpt>
      <trkpt lat="27.970777" lon="-15.548705">
        <ele>1715.57</ele>
        <time>2018-02-17T09:48:17Z</time>
      </trkpt>
      <trkpt lat="27.970758" lon="-15.548722">
        <ele>1715.40</ele>
        <time>2018-02-17T09:48:19Z</time>
      </trkpt>
      <trkpt lat="27.970699" lon="-15.548810">
        <ele>1716.73</ele>
        <time>2018-02-17T09:48:24Z</time>
      </trkpt>
      <trkpt lat="27.970662" lon="-15.548871">
        <ele>1718.90</ele>
        <time>2018-02-17T09:48:29Z</time>
      </trkpt>
      <trkpt lat="27.970659" lon="-15.548899">
        <ele>1720.03</ele>
        <time>2018-02-17T09:48:31Z</time>
      </trkpt>
      <trkpt lat="27.970651" lon="-15.548923">
        <ele>1721.30</ele>
        <time>2018-02-17T09:48:34Z</time>
      </trkpt>
      <trkpt lat="27.970650" lon="-15.548946">
        <ele>1721.76</ele>
        <time>2018-02-17T09:48:36Z</time>
      </trkpt>
      <trkpt lat="27.970650" lon="-15.548967">
        <ele>1722.10</ele>
        <time>2018-02-17T09:48:38Z</time>
      </trkpt>
      <trkpt lat="27.970640" lon="-15.548992">
        <ele>1722.69</ele>
        <time>2018-02-17T09:48:40Z</time>
      </trkpt>
      <trkpt lat="27.970631" lon="-15.549014">
        <ele>1722.93</ele>
        <time>2018-02-17T09:48:42Z</time>
      </trkpt>
      <trkpt lat="27.970621" lon="-15.549042">
        <ele>1723.39</ele>
        <time>2018-02-17T09:48:45Z</time>
      </trkpt>
      <trkpt lat="27.970602" lon="-15.549064">
        <ele>1724.00</ele>
        <time>2018-02-17T09:48:47Z</time>
      </trkpt>
      <trkpt lat="27.970593" lon="-15.549085">
        <ele>1724.76</ele>
        <time>2018-02-17T09:48:50Z</time>
      </trkpt>
      <trkpt lat="27.970588" lon="-15.549108">
        <ele>1725.13</ele>
        <time>2018-02-17T09:48:52Z</time>
      </trkpt>
      <trkpt lat="27.970585" lon="-15.549128">
        <ele>1725.20</ele>
        <time>2018-02-17T09:48:53Z</time>
      </trkpt>
      <trkpt lat="27.970574" lon="-15.549157">
        <ele>1725.79</ele>
        <time>2018-02-17T09:48:55Z</time>
      </trkpt>
      <trkpt lat="27.970566" lon="-15.549186">
        <ele>1726.60</ele>
        <time>2018-02-17T09:48:57Z</time>
      </trkpt>
      <trkpt lat="27.970556" lon="-15.549215">
        <ele>1726.90</ele>
        <time>2018-02-17T09:49:00Z</time>
      </trkpt>
      <trkpt lat="27.970543" lon="-15.549234">
        <ele>1726.96</ele>
        <time>2018-02-17T09:49:02Z</time>
      </trkpt>
      <trkpt lat="27.970531" lon="-15.549255">
        <ele>1727.13</ele>
        <time>2018-02-17T09:49:04Z</time>
      </trkpt>
      <trkpt lat="27.970520" lon="-15.549279">
        <ele>1727.32</ele>
        <time>2018-02-17T09:49:06Z</time>
      </trkpt>
      <trkpt lat="27.970513" lon="-15.549300">
        <ele>1727.69</ele>
        <time>2018-02-17T09:49:08Z</time>
      </trkpt>
      <trkpt lat="27.970516" lon="-15.549326">
        <ele>1728.13</ele>
        <time>2018-02-17T09:49:10Z</time>
      </trkpt>
      <trkpt lat="27.970520" lon="-15.549355">
        <ele>1728.40</ele>
        <time>2018-02-17T09:49:12Z</time>
      </trkpt>
      <trkpt lat="27.970522" lon="-15.549377">
        <ele>1728.62</ele>
        <time>2018-02-17T09:49:14Z</time>
      </trkpt>
      <trkpt lat="27.970532" lon="-15.549395">
        <ele>1728.90</ele>
        <time>2018-02-17T09:49:16Z</time>
      </trkpt>
      <trkpt lat="27.970537" lon="-15.549426">
        <ele>1730.20</ele>
        <time>2018-02-17T09:49:18Z</time>
      </trkpt>
      <trkpt lat="27.970541" lon="-15.549454">
        <ele>1730.48</ele>
        <time>2018-02-17T09:49:20Z</time>
      </trkpt>
      <trkpt lat="27.970531" lon="-15.549485">
        <ele>1730.96</ele>
        <time>2018-02-17T09:49:22Z</time>
      </trkpt>
      <trkpt lat="27.970533" lon="-15.549516">
        <ele>1731.13</ele>
        <time>2018-02-17T09:49:24Z</time>
      </trkpt>
      <trkpt lat="27.970536" lon="-15.549541">
        <ele>1731.63</ele>
        <time>2018-02-17T09:49:26Z</time>
      </trkpt>
      <trkpt lat="27.970537" lon="-15.549567">
        <ele>1731.86</ele>
        <time>2018-02-17T09:49:28Z</time>
      </trkpt>
      <trkpt lat="27.970530" lon="-15.549592">
        <ele>1732.33</ele>
        <time>2018-02-17T09:49:30Z</time>
      </trkpt>
      <trkpt lat="27.970535" lon="-15.549620">
        <ele>1732.64</ele>
        <time>2018-02-17T09:49:32Z</time>
      </trkpt>
      <trkpt lat="27.970545" lon="-15.549651">
        <ele>1733.26</ele>
        <time>2018-02-17T09:49:34Z</time>
      </trkpt>
      <trkpt lat="27.970552" lon="-15.549682">
        <ele>1733.93</ele>
        <time>2018-02-17T09:49:36Z</time>
      </trkpt>
      <trkpt lat="27.970566" lon="-15.549709">
        <ele>1734.26</ele>
        <time>2018-02-17T09:49:38Z</time>
      </trkpt>
      <trkpt lat="27.970571" lon="-15.549739">
        <ele>1734.68</ele>
        <time>2018-02-17T09:49:40Z</time>
      </trkpt>
      <trkpt lat="27.970572" lon="-15.549771">
        <ele>1735.56</ele>
        <time>2018-02-17T09:49:42Z</time>
      </trkpt>
      <trkpt lat="27.970581" lon="-15.549803">
        <ele>1736.40</ele>
        <time>2018-02-17T09:49:44Z</time>
      </trkpt>
      <trkpt lat="27.970598" lon="-15.549817">
        <ele>1737.79</ele>
        <time>2018-02-17T09:49:46Z</time>
      </trkpt>
      <trkpt lat="27.970597" lon="-15.549851">
        <ele>1738.23</ele>
        <time>2018-02-17T09:49:49Z</time>
      </trkpt>
      <trkpt lat="27.970602" lon="-15.549876">
        <ele>1738.81</ele>
        <time>2018-02-17T09:49:51Z</time>
      </trkpt>
      <trkpt lat="27.970608" lon="-15.549898">
        <ele>1739.52</ele>
        <time>2018-02-17T09:49:53Z</time>
      </trkpt>
      <trkpt lat="27.970613" lon="-15.549928">
        <ele>1740.16</ele>
        <time>2018-02-17T09:49:56Z</time>
      </trkpt>
      <trkpt lat="27.970622" lon="-15.549948">
        <ele>1740.90</ele>
        <time>2018-02-17T09:49:58Z</time>
      </trkpt>
      <trkpt lat="27.970632" lon="-15.549972">
        <ele>1741.00</ele>
        <time>2018-02-17T09:50:00Z</time>
      </trkpt>
      <trkpt lat="27.970636" lon="-15.549997">
        <ele>1741.28</ele>
        <time>2018-02-17T09:50:02Z</time>
      </trkpt>
      <trkpt lat="27.970640" lon="-15.550018">
        <ele>1741.96</ele>
        <time>2018-02-17T09:50:04Z</time>
      </trkpt>
      <trkpt lat="27.970639" lon="-15.550042">
        <ele>1742.40</ele>
        <time>2018-02-17T09:50:06Z</time>
      </trkpt>
      <trkpt lat="27.970654" lon="-15.550071">
        <ele>1742.86</ele>
        <time>2018-02-17T09:50:08Z</time>
      </trkpt>
      <trkpt lat="27.970662" lon="-15.550096">
        <ele>1743.16</ele>
        <time>2018-02-17T09:50:10Z</time>
      </trkpt>
      <trkpt lat="27.970673" lon="-15.550123">
        <ele>1743.56</ele>
        <time>2018-02-17T09:50:12Z</time>
      </trkpt>
      <trkpt lat="27.970690" lon="-15.550150">
        <ele>1744.58</ele>
        <time>2018-02-17T09:50:14Z</time>
      </trkpt>
      <trkpt lat="27.970715" lon="-15.550173">
        <ele>1745.19</ele>
        <time>2018-02-17T09:50:16Z</time>
      </trkpt>
      <trkpt lat="27.970735" lon="-15.550194">
        <ele>1745.59</ele>
        <time>2018-02-17T09:50:18Z</time>
      </trkpt>
      <trkpt lat="27.970754" lon="-15.550218">
        <ele>1746.52</ele>
        <time>2018-02-17T09:50:20Z</time>
      </trkpt>
      <trkpt lat="27.970769" lon="-15.550243">
        <ele>1746.95</ele>
        <time>2018-02-17T09:50:22Z</time>
      </trkpt>
      <trkpt lat="27.970773" lon="-15.550269">
        <ele>1747.40</ele>
        <time>2018-02-17T09:50:24Z</time>
      </trkpt>
      <trkpt lat="27.970785" lon="-15.550303">
        <ele>1748.09</ele>
        <time>2018-02-17T09:50:26Z</time>
      </trkpt>
      <trkpt lat="27.970801" lon="-15.550388">
        <ele>1748.92</ele>
        <time>2018-02-17T09:50:32Z</time>
      </trkpt>
      <trkpt lat="27.970805" lon="-15.550426">
        <ele>1748.98</ele>
        <time>2018-02-17T09:50:35Z</time>
      </trkpt>
      <trkpt lat="27.970804" lon="-15.550455">
        <ele>1749.60</ele>
        <time>2018-02-17T09:50:37Z</time>
      </trkpt>
      <trkpt lat="27.970800" lon="-15.550479">
        <ele>1749.60</ele>
        <time>2018-02-17T09:50:39Z</time>
      </trkpt>
      <trkpt lat="27.970817" lon="-15.550505">
        <ele>1749.60</ele>
        <time>2018-02-17T09:50:42Z</time>
      </trkpt>
      <trkpt lat="27.970830" lon="-15.550523">
        <ele>1749.75</ele>
        <time>2018-02-17T09:50:44Z</time>
      </trkpt>
      <trkpt lat="27.970837" lon="-15.550548">
        <ele>1750.30</ele>
        <time>2018-02-17T09:50:46Z</time>
      </trkpt>
      <trkpt lat="27.970844" lon="-15.550573">
        <ele>1750.33</ele>
        <time>2018-02-17T09:50:48Z</time>
      </trkpt>
      <trkpt lat="27.970843" lon="-15.550595">
        <ele>1750.83</ele>
        <time>2018-02-17T09:50:50Z</time>
      </trkpt>
      <trkpt lat="27.970847" lon="-15.550620">
        <ele>1751.23</ele>
        <time>2018-02-17T09:50:52Z</time>
      </trkpt>
      <trkpt lat="27.970856" lon="-15.550650">
        <ele>1751.50</ele>
        <time>2018-02-17T09:50:54Z</time>
      </trkpt>
      <trkpt lat="27.970868" lon="-15.550684">
        <ele>1751.50</ele>
        <time>2018-02-17T09:50:56Z</time>
      </trkpt>
      <trkpt lat="27.970878" lon="-15.550711">
        <ele>1751.66</ele>
        <time>2018-02-17T09:50:58Z</time>
      </trkpt>
      <trkpt lat="27.970888" lon="-15.550738">
        <ele>1752.13</ele>
        <time>2018-02-17T09:51:00Z</time>
      </trkpt>
      <trkpt lat="27.970907" lon="-15.550758">
        <ele>1752.43</ele>
        <time>2018-02-17T09:51:02Z</time>
      </trkpt>
      <trkpt lat="27.970924" lon="-15.550781">
        <ele>1753.23</ele>
        <time>2018-02-17T09:51:04Z</time>
      </trkpt>
      <trkpt lat="27.970934" lon="-15.550801">
        <ele>1753.40</ele>
        <time>2018-02-17T09:51:06Z</time>
      </trkpt>
      <trkpt lat="27.970949" lon="-15.550827">
        <ele>1753.40</ele>
        <time>2018-02-17T09:51:08Z</time>
      </trkpt>
      <trkpt lat="27.970965" lon="-15.550854">
        <ele>1753.50</ele>
        <time>2018-02-17T09:51:10Z</time>
      </trkpt>
      <trkpt lat="27.970972" lon="-15.550881">
        <ele>1753.50</ele>
        <time>2018-02-17T09:51:12Z</time>
      </trkpt>
      <trkpt lat="27.970995" lon="-15.550989">
        <ele>1756.45</ele>
        <time>2018-02-17T09:51:20Z</time>
      </trkpt>
      <trkpt lat="27.971012" lon="-15.551066">
        <ele>1757.30</ele>
        <time>2018-02-17T09:51:25Z</time>
      </trkpt>
      <trkpt lat="27.971016" lon="-15.551161">
        <ele>1759.23</ele>
        <time>2018-02-17T09:51:32Z</time>
      </trkpt>
      <trkpt lat="27.971007" lon="-15.551210">
        <ele>1759.50</ele>
        <time>2018-02-17T09:51:35Z</time>
      </trkpt>
      <trkpt lat="27.970998" lon="-15.551269">
        <ele>1759.30</ele>
        <time>2018-02-17T09:51:38Z</time>
      </trkpt>
      <trkpt lat="27.971006" lon="-15.551377">
        <ele>1760.15</ele>
        <time>2018-02-17T09:51:45Z</time>
      </trkpt>
      <trkpt lat="27.971056" lon="-15.551476">
        <ele>1762.13</ele>
        <time>2018-02-17T09:51:52Z</time>
      </trkpt>
      <trkpt lat="27.971061" lon="-15.551500">
        <ele>1762.66</ele>
        <time>2018-02-17T09:51:54Z</time>
      </trkpt>
      <trkpt lat="27.971065" lon="-15.551522">
        <ele>1763.63</ele>
        <time>2018-02-17T09:51:56Z</time>
      </trkpt>
      <trkpt lat="27.971066" lon="-15.551545">
        <ele>1763.77</ele>
        <time>2018-02-17T09:51:58Z</time>
      </trkpt>
      <trkpt lat="27.971063" lon="-15.551573">
        <ele>1763.93</ele>
        <time>2018-02-17T09:52:00Z</time>
      </trkpt>
      <trkpt lat="27.971063" lon="-15.551602">
        <ele>1764.50</ele>
        <time>2018-02-17T09:52:02Z</time>
      </trkpt>
      <trkpt lat="27.971056" lon="-15.551631">
        <ele>1764.94</ele>
        <time>2018-02-17T09:52:04Z</time>
      </trkpt>
      <trkpt lat="27.971052" lon="-15.551659">
        <ele>1766.36</ele>
        <time>2018-02-17T09:52:07Z</time>
      </trkpt>
      <trkpt lat="27.971048" lon="-15.551693">
        <ele>1766.56</ele>
        <time>2018-02-17T09:52:11Z</time>
      </trkpt>
      <trkpt lat="27.971033" lon="-15.551711">
        <ele>1767.10</ele>
        <time>2018-02-17T09:52:13Z</time>
      </trkpt>
      <trkpt lat="27.971017" lon="-15.551726">
        <ele>1767.53</ele>
        <time>2018-02-17T09:52:16Z</time>
      </trkpt>
      <trkpt lat="27.970974" lon="-15.551736">
        <ele>1768.69</ele>
        <time>2018-02-17T09:52:21Z</time>
      </trkpt>
      <trkpt lat="27.970957" lon="-15.551748">
        <ele>1769.09</ele>
        <time>2018-02-17T09:52:23Z</time>
      </trkpt>
      <trkpt lat="27.970941" lon="-15.551760">
        <ele>1770.50</ele>
        <time>2018-02-17T09:52:25Z</time>
      </trkpt>
      <trkpt lat="27.970926" lon="-15.551780">
        <ele>1770.50</ele>
        <time>2018-02-17T09:52:27Z</time>
      </trkpt>
      <trkpt lat="27.970915" lon="-15.551808">
        <ele>1770.47</ele>
        <time>2018-02-17T09:52:30Z</time>
      </trkpt>
      <trkpt lat="27.970908" lon="-15.551829">
        <ele>1770.40</ele>
        <time>2018-02-17T09:52:32Z</time>
      </trkpt>
      <trkpt lat="27.970899" lon="-15.551854">
        <ele>1770.45</ele>
        <time>2018-02-17T09:52:35Z</time>
      </trkpt>
      <trkpt lat="27.970887" lon="-15.551872">
        <ele>1771.23</ele>
        <time>2018-02-17T09:52:37Z</time>
      </trkpt>
      <trkpt lat="27.970862" lon="-15.551884">
        <ele>1771.83</ele>
        <time>2018-02-17T09:52:40Z</time>
      </trkpt>
      <trkpt lat="27.970842" lon="-15.551886">
        <ele>1772.00</ele>
        <time>2018-02-17T09:52:42Z</time>
      </trkpt>
      <trkpt lat="27.970825" lon="-15.551894">
        <ele>1772.22</ele>
        <time>2018-02-17T09:52:45Z</time>
      </trkpt>
      <trkpt lat="27.970807" lon="-15.551906">
        <ele>1772.50</ele>
        <time>2018-02-17T09:52:48Z</time>
      </trkpt>
      <trkpt lat="27.970790" lon="-15.551927">
        <ele>1772.44</ele>
        <time>2018-02-17T09:52:51Z</time>
      </trkpt>
      <trkpt lat="27.970770" lon="-15.551947">
        <ele>1772.27</ele>
        <time>2018-02-17T09:52:55Z</time>
      </trkpt>
      <trkpt lat="27.970752" lon="-15.551960">
        <ele>1772.32</ele>
        <time>2018-02-17T09:52:57Z</time>
      </trkpt>
      <trkpt lat="27.970736" lon="-15.551972">
        <ele>1772.51</ele>
        <time>2018-02-17T09:52:59Z</time>
      </trkpt>
      <trkpt lat="27.970718" lon="-15.551984">
        <ele>1772.45</ele>
        <time>2018-02-17T09:53:01Z</time>
      </trkpt>
      <trkpt lat="27.970692" lon="-15.551999">
        <ele>1772.60</ele>
        <time>2018-02-17T09:53:03Z</time>
      </trkpt>
      <trkpt lat="27.970673" lon="-15.552008">
        <ele>1772.90</ele>
        <time>2018-02-17T09:53:05Z</time>
      </trkpt>
      <trkpt lat="27.970649" lon="-15.552010">
        <ele>1772.70</ele>
        <time>2018-02-17T09:53:07Z</time>
      </trkpt>
      <trkpt lat="27.970631" lon="-15.552010">
        <ele>1773.15</ele>
        <time>2018-02-17T09:53:09Z</time>
      </trkpt>
      <trkpt lat="27.970606" lon="-15.552000">
        <ele>1773.30</ele>
        <time>2018-02-17T09:53:12Z</time>
      </trkpt>
      <trkpt lat="27.970587" lon="-15.551990">
        <ele>1773.35</ele>
        <time>2018-02-17T09:53:14Z</time>
      </trkpt>
      <trkpt lat="27.970571" lon="-15.551974">
        <ele>1774.12</ele>
        <time>2018-02-17T09:53:17Z</time>
      </trkpt>
      <trkpt lat="27.970551" lon="-15.551961">
        <ele>1774.54</ele>
        <time>2018-02-17T09:53:19Z</time>
      </trkpt>
      <trkpt lat="27.970528" lon="-15.551940">
        <ele>1774.20</ele>
        <time>2018-02-17T09:53:22Z</time>
      </trkpt>
      <trkpt lat="27.970511" lon="-15.551929">
        <ele>1774.18</ele>
        <time>2018-02-17T09:53:24Z</time>
      </trkpt>
      <trkpt lat="27.970490" lon="-15.551922">
        <ele>1774.10</ele>
        <time>2018-02-17T09:53:26Z</time>
      </trkpt>
      <trkpt lat="27.970462" lon="-15.551921">
        <ele>1774.30</ele>
        <time>2018-02-17T09:53:28Z</time>
      </trkpt>
      <trkpt lat="27.970438" lon="-15.551918">
        <ele>1774.50</ele>
        <time>2018-02-17T09:53:31Z</time>
      </trkpt>
      <trkpt lat="27.970416" lon="-15.551926">
        <ele>1775.30</ele>
        <time>2018-02-17T09:53:44Z</time>
      </trkpt>
      <trkpt lat="27.970393" lon="-15.551936">
        <ele>1775.29</ele>
        <time>2018-02-17T09:53:46Z</time>
      </trkpt>
      <trkpt lat="27.970373" lon="-15.551945">
        <ele>1775.20</ele>
        <time>2018-02-17T09:53:48Z</time>
      </trkpt>
      <trkpt lat="27.970354" lon="-15.551947">
        <ele>1775.17</ele>
        <time>2018-02-17T09:53:50Z</time>
      </trkpt>
      <trkpt lat="27.970328" lon="-15.551958">
        <ele>1775.20</ele>
        <time>2018-02-17T09:53:52Z</time>
      </trkpt>
      <trkpt lat="27.970307" lon="-15.551974">
        <ele>1775.20</ele>
        <time>2018-02-17T09:53:54Z</time>
      </trkpt>
      <trkpt lat="27.970283" lon="-15.551989">
        <ele>1775.21</ele>
        <time>2018-02-17T09:53:56Z</time>
      </trkpt>
      <trkpt lat="27.970262" lon="-15.552008">
        <ele>1776.10</ele>
        <time>2018-02-17T09:53:58Z</time>
      </trkpt>
      <trkpt lat="27.970238" lon="-15.552025">
        <ele>1776.21</ele>
        <time>2018-02-17T09:54:00Z</time>
      </trkpt>
      <trkpt lat="27.970218" lon="-15.552040">
        <ele>1776.41</ele>
        <time>2018-02-17T09:54:02Z</time>
      </trkpt>
      <trkpt lat="27.970199" lon="-15.552058">
        <ele>1776.50</ele>
        <time>2018-02-17T09:54:04Z</time>
      </trkpt>
      <trkpt lat="27.970182" lon="-15.552076">
        <ele>1776.84</ele>
        <time>2018-02-17T09:54:06Z</time>
      </trkpt>
      <trkpt lat="27.970161" lon="-15.552095">
        <ele>1777.23</ele>
        <time>2018-02-17T09:54:08Z</time>
      </trkpt>
      <trkpt lat="27.970146" lon="-15.552119">
        <ele>1777.41</ele>
        <time>2018-02-17T09:54:10Z</time>
      </trkpt>
      <trkpt lat="27.970132" lon="-15.552146">
        <ele>1777.51</ele>
        <time>2018-02-17T09:54:12Z</time>
      </trkpt>
      <trkpt lat="27.970120" lon="-15.552172">
        <ele>1777.91</ele>
        <time>2018-02-17T09:54:14Z</time>
      </trkpt>
      <trkpt lat="27.970109" lon="-15.552196">
        <ele>1778.90</ele>
        <time>2018-02-17T09:54:16Z</time>
      </trkpt>
      <trkpt lat="27.970094" lon="-15.552220">
        <ele>1778.93</ele>
        <time>2018-02-17T09:54:18Z</time>
      </trkpt>
      <trkpt lat="27.970088" lon="-15.552248">
        <ele>1779.10</ele>
        <time>2018-02-17T09:54:20Z</time>
      </trkpt>
      <trkpt lat="27.970082" lon="-15.552269">
        <ele>1779.11</ele>
        <time>2018-02-17T09:54:22Z</time>
      </trkpt>
      <trkpt lat="27.970077" lon="-15.552293">
        <ele>1779.41</ele>
        <time>2018-02-17T09:54:24Z</time>
      </trkpt>
      <trkpt lat="27.970069" lon="-15.552328">
        <ele>1779.93</ele>
        <time>2018-02-17T09:54:26Z</time>
      </trkpt>
      <trkpt lat="27.970064" lon="-15.552349">
        <ele>1780.11</ele>
        <time>2018-02-17T09:54:27Z</time>
      </trkpt>
      <trkpt lat="27.970052" lon="-15.552380">
        <ele>1780.20</ele>
        <time>2018-02-17T09:54:29Z</time>
      </trkpt>
      <trkpt lat="27.970039" lon="-15.552401">
        <ele>1780.17</ele>
        <time>2018-02-17T09:54:31Z</time>
      </trkpt>
      <trkpt lat="27.970023" lon="-15.552416">
        <ele>1780.00</ele>
        <time>2018-02-17T09:54:33Z</time>
      </trkpt>
      <trkpt lat="27.969996" lon="-15.552431">
        <ele>1779.70</ele>
        <time>2018-02-17T09:54:36Z</time>
      </trkpt>
      <trkpt lat="27.969973" lon="-15.552443">
        <ele>1779.70</ele>
        <time>2018-02-17T09:54:38Z</time>
      </trkpt>
      <trkpt lat="27.969945" lon="-15.552460">
        <ele>1779.70</ele>
        <time>2018-02-17T09:54:40Z</time>
      </trkpt>
      <trkpt lat="27.969920" lon="-15.552486">
        <ele>1779.70</ele>
        <time>2018-02-17T09:54:42Z</time>
      </trkpt>
      <trkpt lat="27.969894" lon="-15.552507">
        <ele>1779.70</ele>
        <time>2018-02-17T09:54:44Z</time>
      </trkpt>
      <trkpt lat="27.969872" lon="-15.552526">
        <ele>1779.69</ele>
        <time>2018-02-17T09:54:46Z</time>
      </trkpt>
      <trkpt lat="27.969847" lon="-15.552552">
        <ele>1779.57</ele>
        <time>2018-02-17T09:54:48Z</time>
      </trkpt>
      <trkpt lat="27.969822" lon="-15.552574">
        <ele>1779.38</ele>
        <time>2018-02-17T09:54:50Z</time>
      </trkpt>
      <trkpt lat="27.969798" lon="-15.552596">
        <ele>1779.40</ele>
        <time>2018-02-17T09:54:52Z</time>
      </trkpt>
      <trkpt lat="27.969769" lon="-15.552617">
        <ele>1779.40</ele>
        <time>2018-02-17T09:54:54Z</time>
      </trkpt>
      <trkpt lat="27.969735" lon="-15.552631">
        <ele>1779.40</ele>
        <time>2018-02-17T09:54:56Z</time>
      </trkpt>
      <trkpt lat="27.969717" lon="-15.552635">
        <ele>1779.40</ele>
        <time>2018-02-17T09:54:57Z</time>
      </trkpt>
      <trkpt lat="27.969698" lon="-15.552644">
        <ele>1779.40</ele>
        <time>2018-02-17T09:54:58Z</time>
      </trkpt>
      <trkpt lat="27.969671" lon="-15.552662">
        <ele>1779.68</ele>
        <time>2018-02-17T09:55:00Z</time>
      </trkpt>
      <trkpt lat="27.969648" lon="-15.552681">
        <ele>1779.70</ele>
        <time>2018-02-17T09:55:02Z</time>
      </trkpt>
      <trkpt lat="27.969628" lon="-15.552702">
        <ele>1779.70</ele>
        <time>2018-02-17T09:55:04Z</time>
      </trkpt>
      <trkpt lat="27.969608" lon="-15.552721">
        <ele>1779.83</ele>
        <time>2018-02-17T09:55:06Z</time>
      </trkpt>
      <trkpt lat="27.969593" lon="-15.552742">
        <ele>1780.00</ele>
        <time>2018-02-17T09:55:08Z</time>
      </trkpt>
      <trkpt lat="27.969576" lon="-15.552767">
        <ele>1780.00</ele>
        <time>2018-02-17T09:55:10Z</time>
      </trkpt>
      <trkpt lat="27.969556" lon="-15.552800">
        <ele>1779.89</ele>
        <time>2018-02-17T09:55:12Z</time>
      </trkpt>
      <trkpt lat="27.969543" lon="-15.552822">
        <ele>1779.24</ele>
        <time>2018-02-17T09:55:13Z</time>
      </trkpt>
      <trkpt lat="27.969527" lon="-15.552838">
        <ele>1778.90</ele>
        <time>2018-02-17T09:55:14Z</time>
      </trkpt>
      <trkpt lat="27.969513" lon="-15.552857">
        <ele>1778.90</ele>
        <time>2018-02-17T09:55:15Z</time>
      </trkpt>
      <trkpt lat="27.969495" lon="-15.552874">
        <ele>1778.90</ele>
        <time>2018-02-17T09:55:16Z</time>
      </trkpt>
      <trkpt lat="27.969473" lon="-15.552890">
        <ele>1778.92</ele>
        <time>2018-02-17T09:55:17Z</time>
      </trkpt>
      <trkpt lat="27.969457" lon="-15.552910">
        <ele>1779.10</ele>
        <time>2018-02-17T09:55:18Z</time>
      </trkpt>
      <trkpt lat="27.969439" lon="-15.552929">
        <ele>1779.60</ele>
        <time>2018-02-17T09:55:19Z</time>
      </trkpt>
      <trkpt lat="27.969421" lon="-15.552951">
        <ele>1779.60</ele>
        <time>2018-02-17T09:55:20Z</time>
      </trkpt>
      <trkpt lat="27.969404" lon="-15.552974">
        <ele>1779.62</ele>
        <time>2018-02-17T09:55:21Z</time>
      </trkpt>
      <trkpt lat="27.969380" lon="-15.552995">
        <ele>1779.70</ele>
        <time>2018-02-17T09:55:22Z</time>
      </trkpt>
      <trkpt lat="27.969363" lon="-15.553012">
        <ele>1779.70</ele>
        <time>2018-02-17T09:55:23Z</time>
      </trkpt>
      <trkpt lat="27.969345" lon="-15.553026">
        <ele>1779.64</ele>
        <time>2018-02-17T09:55:24Z</time>
      </trkpt>
      <trkpt lat="27.969329" lon="-15.553050">
        <ele>1779.30</ele>
        <time>2018-02-17T09:55:25Z</time>
      </trkpt>
      <trkpt lat="27.969314" lon="-15.553075">
        <ele>1779.30</ele>
        <time>2018-02-17T09:55:26Z</time>
      </trkpt>
      <trkpt lat="27.969297" lon="-15.553098">
        <ele>1779.36</ele>
        <time>2018-02-17T09:55:27Z</time>
      </trkpt>
      <trkpt lat="27.969282" lon="-15.553117">
        <ele>1779.70</ele>
        <time>2018-02-17T09:55:28Z</time>
      </trkpt>
      <trkpt lat="27.969265" lon="-15.553139">
        <ele>1779.70</ele>
        <time>2018-02-17T09:55:29Z</time>
      </trkpt>
      <trkpt lat="27.969249" lon="-15.553159">
        <ele>1779.70</ele>
        <time>2018-02-17T09:55:30Z</time>
      </trkpt>
      <trkpt lat="27.969233" lon="-15.553179">
        <ele>1779.70</ele>
        <time>2018-02-17T09:55:31Z</time>
      </trkpt>
      <trkpt lat="27.969221" lon="-15.553205">
        <ele>1779.70</ele>
        <time>2018-02-17T09:55:32Z</time>
      </trkpt>
      <trkpt lat="27.969206" lon="-15.553234">
        <ele>1779.70</ele>
        <time>2018-02-17T09:55:33Z</time>
      </trkpt>
      <trkpt lat="27.969192" lon="-15.553255">
        <ele>1779.73</ele>
        <time>2018-02-17T09:55:34Z</time>
      </trkpt>
      <trkpt lat="27.969175" lon="-15.553276">
        <ele>1779.82</ele>
        <time>2018-02-17T09:55:35Z</time>
      </trkpt>
      <trkpt lat="27.969158" lon="-15.553294">
        <ele>1779.59</ele>
        <time>2018-02-17T09:55:36Z</time>
      </trkpt>
      <trkpt lat="27.969138" lon="-15.553311">
        <ele>1780.44</ele>
        <time>2018-02-17T09:55:37Z</time>
      </trkpt>
      <trkpt lat="27.969121" lon="-15.553330">
        <ele>1779.76</ele>
        <time>2018-02-17T09:55:38Z</time>
      </trkpt>
      <trkpt lat="27.969106" lon="-15.553347">
        <ele>1780.55</ele>
        <time>2018-02-17T09:55:39Z</time>
      </trkpt>
      <trkpt lat="27.969088" lon="-15.553368">
        <ele>1780.30</ele>
        <time>2018-02-17T09:55:40Z</time>
      </trkpt>
      <trkpt lat="27.969072" lon="-15.553386">
        <ele>1780.30</ele>
        <time>2018-02-17T09:55:41Z</time>
      </trkpt>
      <trkpt lat="27.969054" lon="-15.553406">
        <ele>1780.30</ele>
        <time>2018-02-17T09:55:42Z</time>
      </trkpt>
      <trkpt lat="27.969039" lon="-15.553422">
        <ele>1780.30</ele>
        <time>2018-02-17T09:55:43Z</time>
      </trkpt>
      <trkpt lat="27.969023" lon="-15.553438">
        <ele>1780.30</ele>
        <time>2018-02-17T09:55:44Z</time>
      </trkpt>
      <trkpt lat="27.969005" lon="-15.553453">
        <ele>1780.30</ele>
        <time>2018-02-17T09:55:45Z</time>
      </trkpt>
      <trkpt lat="27.968990" lon="-15.553472">
        <ele>1780.40</ele>
        <time>2018-02-17T09:55:46Z</time>
      </trkpt>
      <trkpt lat="27.968975" lon="-15.553488">
        <ele>1781.10</ele>
        <time>2018-02-17T09:55:47Z</time>
      </trkpt>
      <trkpt lat="27.968959" lon="-15.553506">
        <ele>1781.61</ele>
        <time>2018-02-17T09:55:48Z</time>
      </trkpt>
      <trkpt lat="27.968942" lon="-15.553524">
        <ele>1781.09</ele>
        <time>2018-02-17T09:55:49Z</time>
      </trkpt>
      <trkpt lat="27.968928" lon="-15.553539">
        <ele>1781.64</ele>
        <time>2018-02-17T09:55:50Z</time>
      </trkpt>
      <trkpt lat="27.968888" lon="-15.553574">
        <ele>1781.47</ele>
        <time>2018-02-17T09:55:52Z</time>
      </trkpt>
      <trkpt lat="27.968872" lon="-15.553590">
        <ele>1781.22</ele>
        <time>2018-02-17T09:55:53Z</time>
      </trkpt>
      <trkpt lat="27.968856" lon="-15.553607">
        <ele>1781.40</ele>
        <time>2018-02-17T09:55:54Z</time>
      </trkpt>
      <trkpt lat="27.968842" lon="-15.553622">
        <ele>1781.40</ele>
        <time>2018-02-17T09:55:55Z</time>
      </trkpt>
      <trkpt lat="27.968824" lon="-15.553641">
        <ele>1781.40</ele>
        <time>2018-02-17T09:55:56Z</time>
      </trkpt>
      <trkpt lat="27.968804" lon="-15.553662">
        <ele>1781.40</ele>
        <time>2018-02-17T09:55:57Z</time>
      </trkpt>
      <trkpt lat="27.968786" lon="-15.553684">
        <ele>1781.40</ele>
        <time>2018-02-17T09:55:58Z</time>
      </trkpt>
      <trkpt lat="27.968767" lon="-15.553709">
        <ele>1781.41</ele>
        <time>2018-02-17T09:55:59Z</time>
      </trkpt>
      <trkpt lat="27.968751" lon="-15.553733">
        <ele>1781.58</ele>
        <time>2018-02-17T09:56:00Z</time>
      </trkpt>
      <trkpt lat="27.968734" lon="-15.553752">
        <ele>1782.33</ele>
        <time>2018-02-17T09:56:01Z</time>
      </trkpt>
      <trkpt lat="27.968718" lon="-15.553773">
        <ele>1781.67</ele>
        <time>2018-02-17T09:56:02Z</time>
      </trkpt>
      <trkpt lat="27.968700" lon="-15.553791">
        <ele>1782.41</ele>
        <time>2018-02-17T09:56:03Z</time>
      </trkpt>
      <trkpt lat="27.968685" lon="-15.553816">
        <ele>1782.52</ele>
        <time>2018-02-17T09:56:04Z</time>
      </trkpt>
      <trkpt lat="27.968668" lon="-15.553839">
        <ele>1782.79</ele>
        <time>2018-02-17T09:56:05Z</time>
      </trkpt>
      <trkpt lat="27.968651" lon="-15.553865">
        <ele>1782.71</ele>
        <time>2018-02-17T09:56:06Z</time>
      </trkpt>
      <trkpt lat="27.968634" lon="-15.553890">
        <ele>1782.79</ele>
        <time>2018-02-17T09:56:07Z</time>
      </trkpt>
      <trkpt lat="27.968618" lon="-15.553911">
        <ele>1782.71</ele>
        <time>2018-02-17T09:56:08Z</time>
      </trkpt>
      <trkpt lat="27.968604" lon="-15.553932">
        <ele>1782.80</ele>
        <time>2018-02-17T09:56:09Z</time>
      </trkpt>
      <trkpt lat="27.968587" lon="-15.553951">
        <ele>1782.82</ele>
        <time>2018-02-17T09:56:10Z</time>
      </trkpt>
      <trkpt lat="27.968572" lon="-15.553973">
        <ele>1783.01</ele>
        <time>2018-02-17T09:56:11Z</time>
      </trkpt>
      <trkpt lat="27.968556" lon="-15.553995">
        <ele>1783.10</ele>
        <time>2018-02-17T09:56:12Z</time>
      </trkpt>
      <trkpt lat="27.968542" lon="-15.554014">
        <ele>1783.10</ele>
        <time>2018-02-17T09:56:13Z</time>
      </trkpt>
      <trkpt lat="27.968527" lon="-15.554032">
        <ele>1783.10</ele>
        <time>2018-02-17T09:56:14Z</time>
      </trkpt>
      <trkpt lat="27.968513" lon="-15.554045">
        <ele>1783.13</ele>
        <time>2018-02-17T09:56:15Z</time>
      </trkpt>
      <trkpt lat="27.968496" lon="-15.554061">
        <ele>1783.50</ele>
        <time>2018-02-17T09:56:16Z</time>
      </trkpt>
      <trkpt lat="27.968471" lon="-15.554089">
        <ele>1783.69</ele>
        <time>2018-02-17T09:56:18Z</time>
      </trkpt>
      <trkpt lat="27.968458" lon="-15.554106">
        <ele>1783.56</ele>
        <time>2018-02-17T09:56:19Z</time>
      </trkpt>
      <trkpt lat="27.968443" lon="-15.554121">
        <ele>1784.23</ele>
        <time>2018-02-17T09:56:20Z</time>
      </trkpt>
      <trkpt lat="27.968430" lon="-15.554137">
        <ele>1783.37</ele>
        <time>2018-02-17T09:56:21Z</time>
      </trkpt>
      <trkpt lat="27.968414" lon="-15.554151">
        <ele>1784.29</ele>
        <time>2018-02-17T09:56:22Z</time>
      </trkpt>
      <trkpt lat="27.968400" lon="-15.554166">
        <ele>1784.25</ele>
        <time>2018-02-17T09:56:23Z</time>
      </trkpt>
      <trkpt lat="27.968385" lon="-15.554178">
        <ele>1785.04</ele>
        <time>2018-02-17T09:56:24Z</time>
      </trkpt>
      <trkpt lat="27.968372" lon="-15.554198">
        <ele>1784.28</ele>
        <time>2018-02-17T09:56:25Z</time>
      </trkpt>
      <trkpt lat="27.968350" lon="-15.554212">
        <ele>1785.30</ele>
        <time>2018-02-17T09:56:27Z</time>
      </trkpt>
      <trkpt lat="27.968323" lon="-15.554235">
        <ele>1785.30</ele>
        <time>2018-02-17T09:56:29Z</time>
      </trkpt>
      <trkpt lat="27.968306" lon="-15.554247">
        <ele>1785.30</ele>
        <time>2018-02-17T09:56:30Z</time>
      </trkpt>
      <trkpt lat="27.968281" lon="-15.554274">
        <ele>1785.30</ele>
        <time>2018-02-17T09:56:32Z</time>
      </trkpt>
      <trkpt lat="27.968266" lon="-15.554294">
        <ele>1785.30</ele>
        <time>2018-02-17T09:56:33Z</time>
      </trkpt>
      <trkpt lat="27.968251" lon="-15.554312">
        <ele>1785.36</ele>
        <time>2018-02-17T09:56:34Z</time>
      </trkpt>
      <trkpt lat="27.968239" lon="-15.554332">
        <ele>1786.24</ele>
        <time>2018-02-17T09:56:35Z</time>
      </trkpt>
      <trkpt lat="27.968229" lon="-15.554349">
        <ele>1785.37</ele>
        <time>2018-02-17T09:56:36Z</time>
      </trkpt>
      <trkpt lat="27.968216" lon="-15.554368">
        <ele>1786.59</ele>
        <time>2018-02-17T09:56:37Z</time>
      </trkpt>
      <trkpt lat="27.968194" lon="-15.554408">
        <ele>1786.70</ele>
        <time>2018-02-17T09:56:39Z</time>
      </trkpt>
      <trkpt lat="27.968183" lon="-15.554429">
        <ele>1786.71</ele>
        <time>2018-02-17T09:56:40Z</time>
      </trkpt>
      <trkpt lat="27.968118" lon="-15.554510">
        <ele>1786.83</ele>
        <time>2018-02-17T09:56:44Z</time>
      </trkpt>
      <trkpt lat="27.968102" lon="-15.554527">
        <ele>1787.30</ele>
        <time>2018-02-17T09:56:45Z</time>
      </trkpt>
      <trkpt lat="27.968078" lon="-15.554573">
        <ele>1787.50</ele>
        <time>2018-02-17T09:56:47Z</time>
      </trkpt>
      <trkpt lat="27.968064" lon="-15.554597">
        <ele>1787.50</ele>
        <time>2018-02-17T09:56:48Z</time>
      </trkpt>
      <trkpt lat="27.968046" lon="-15.554615">
        <ele>1787.53</ele>
        <time>2018-02-17T09:56:49Z</time>
      </trkpt>
      <trkpt lat="27.968032" lon="-15.554637">
        <ele>1788.10</ele>
        <time>2018-02-17T09:56:50Z</time>
      </trkpt>
      <trkpt lat="27.968020" lon="-15.554659">
        <ele>1788.10</ele>
        <time>2018-02-17T09:56:51Z</time>
      </trkpt>
      <trkpt lat="27.968006" lon="-15.554681">
        <ele>1788.11</ele>
        <time>2018-02-17T09:56:52Z</time>
      </trkpt>
      <trkpt lat="27.967995" lon="-15.554702">
        <ele>1788.31</ele>
        <time>2018-02-17T09:56:53Z</time>
      </trkpt>
      <trkpt lat="27.967985" lon="-15.554722">
        <ele>1788.60</ele>
        <time>2018-02-17T09:56:54Z</time>
      </trkpt>
      <trkpt lat="27.967976" lon="-15.554740">
        <ele>1788.62</ele>
        <time>2018-02-17T09:56:55Z</time>
      </trkpt>
      <trkpt lat="27.967967" lon="-15.554769">
        <ele>1789.60</ele>
        <time>2018-02-17T09:56:57Z</time>
      </trkpt>
      <trkpt lat="27.967957" lon="-15.554794">
        <ele>1789.60</ele>
        <time>2018-02-17T09:56:59Z</time>
      </trkpt>
      <trkpt lat="27.967947" lon="-15.554820">
        <ele>1789.22</ele>
        <time>2018-02-17T09:57:01Z</time>
      </trkpt>
      <trkpt lat="27.967938" lon="-15.554843">
        <ele>1789.20</ele>
        <time>2018-02-17T09:57:03Z</time>
      </trkpt>
      <trkpt lat="27.967929" lon="-15.554866">
        <ele>1788.79</ele>
        <time>2018-02-17T09:57:05Z</time>
      </trkpt>
      <trkpt lat="27.967922" lon="-15.554900">
        <ele>1788.80</ele>
        <time>2018-02-17T09:57:07Z</time>
      </trkpt>
      <trkpt lat="27.967916" lon="-15.554936">
        <ele>1788.80</ele>
        <time>2018-02-17T09:57:09Z</time>
      </trkpt>
      <trkpt lat="27.967910" lon="-15.554966">
        <ele>1789.02</ele>
        <time>2018-02-17T09:57:11Z</time>
      </trkpt>
      <trkpt lat="27.967905" lon="-15.554996">
        <ele>1789.90</ele>
        <time>2018-02-17T09:57:13Z</time>
      </trkpt>
      <trkpt lat="27.967901" lon="-15.555029">
        <ele>1790.11</ele>
        <time>2018-02-17T09:57:15Z</time>
      </trkpt>
      <trkpt lat="27.967897" lon="-15.555056">
        <ele>1790.70</ele>
        <time>2018-02-17T09:57:17Z</time>
      </trkpt>
      <trkpt lat="27.967894" lon="-15.555082">
        <ele>1791.10</ele>
        <time>2018-02-17T09:57:19Z</time>
      </trkpt>
      <trkpt lat="27.967900" lon="-15.555105">
        <ele>1791.10</ele>
        <time>2018-02-17T09:57:21Z</time>
      </trkpt>
      <trkpt lat="27.967907" lon="-15.555127">
        <ele>1791.10</ele>
        <time>2018-02-17T09:57:23Z</time>
      </trkpt>
      <trkpt lat="27.967916" lon="-15.555156">
        <ele>1791.10</ele>
        <time>2018-02-17T09:57:25Z</time>
      </trkpt>
      <trkpt lat="27.967928" lon="-15.555178">
        <ele>1791.50</ele>
        <time>2018-02-17T09:57:27Z</time>
      </trkpt>
      <trkpt lat="27.967943" lon="-15.555205">
        <ele>1791.50</ele>
        <time>2018-02-17T09:57:29Z</time>
      </trkpt>
      <trkpt lat="27.967961" lon="-15.555236">
        <ele>1792.00</ele>
        <time>2018-02-17T09:57:31Z</time>
      </trkpt>
      <trkpt lat="27.967977" lon="-15.555259">
        <ele>1792.50</ele>
        <time>2018-02-17T09:57:33Z</time>
      </trkpt>
      <trkpt lat="27.967988" lon="-15.555284">
        <ele>1793.10</ele>
        <time>2018-02-17T09:57:35Z</time>
      </trkpt>
      <trkpt lat="27.967998" lon="-15.555308">
        <ele>1793.30</ele>
        <time>2018-02-17T09:57:37Z</time>
      </trkpt>
      <trkpt lat="27.968010" lon="-15.555329">
        <ele>1794.20</ele>
        <time>2018-02-17T09:57:39Z</time>
      </trkpt>
      <trkpt lat="27.968020" lon="-15.555355">
        <ele>1794.20</ele>
        <time>2018-02-17T09:57:41Z</time>
      </trkpt>
      <trkpt lat="27.968023" lon="-15.555385">
        <ele>1794.60</ele>
        <time>2018-02-17T09:57:43Z</time>
      </trkpt>
      <trkpt lat="27.968024" lon="-15.555412">
        <ele>1794.80</ele>
        <time>2018-02-17T09:57:45Z</time>
      </trkpt>
      <trkpt lat="27.968026" lon="-15.555441">
        <ele>1794.90</ele>
        <time>2018-02-17T09:57:47Z</time>
      </trkpt>
      <trkpt lat="27.968024" lon="-15.555465">
        <ele>1795.31</ele>
        <time>2018-02-17T09:57:49Z</time>
      </trkpt>
      <trkpt lat="27.968022" lon="-15.555487">
        <ele>1795.60</ele>
        <time>2018-02-17T09:57:51Z</time>
      </trkpt>
      <trkpt lat="27.968020" lon="-15.555513">
        <ele>1795.81</ele>
        <time>2018-02-17T09:57:53Z</time>
      </trkpt>
      <trkpt lat="27.968012" lon="-15.555537">
        <ele>1796.70</ele>
        <time>2018-02-17T09:57:55Z</time>
      </trkpt>
      <trkpt lat="27.968010" lon="-15.555558">
        <ele>1796.80</ele>
        <time>2018-02-17T09:57:57Z</time>
      </trkpt>
      <trkpt lat="27.968004" lon="-15.555583">
        <ele>1797.00</ele>
        <time>2018-02-17T09:57:59Z</time>
      </trkpt>
      <trkpt lat="27.967994" lon="-15.555611">
        <ele>1797.50</ele>
        <time>2018-02-17T09:58:01Z</time>
      </trkpt>
      <trkpt lat="27.967987" lon="-15.555637">
        <ele>1797.71</ele>
        <time>2018-02-17T09:58:03Z</time>
      </trkpt>
      <trkpt lat="27.967984" lon="-15.555660">
        <ele>1798.41</ele>
        <time>2018-02-17T09:58:05Z</time>
      </trkpt>
      <trkpt lat="27.967977" lon="-15.555679">
        <ele>1798.70</ele>
        <time>2018-02-17T09:58:07Z</time>
      </trkpt>
      <trkpt lat="27.967970" lon="-15.555704">
        <ele>1798.70</ele>
        <time>2018-02-17T09:58:09Z</time>
      </trkpt>
      <trkpt lat="27.967965" lon="-15.555724">
        <ele>1799.00</ele>
        <time>2018-02-17T09:58:11Z</time>
      </trkpt>
      <trkpt lat="27.967958" lon="-15.555744">
        <ele>1799.31</ele>
        <time>2018-02-17T09:58:13Z</time>
      </trkpt>
      <trkpt lat="27.967954" lon="-15.555773">
        <ele>1799.90</ele>
        <time>2018-02-17T09:58:15Z</time>
      </trkpt>
      <trkpt lat="27.967954" lon="-15.555810">
        <ele>1800.02</ele>
        <time>2018-02-17T09:58:17Z</time>
      </trkpt>
      <trkpt lat="27.967948" lon="-15.555839">
        <ele>1800.80</ele>
        <time>2018-02-17T09:58:19Z</time>
      </trkpt>
      <trkpt lat="27.967930" lon="-15.555857">
        <ele>1801.10</ele>
        <time>2018-02-17T09:58:21Z</time>
      </trkpt>
      <trkpt lat="27.967915" lon="-15.555872">
        <ele>1801.70</ele>
        <time>2018-02-17T09:58:23Z</time>
      </trkpt>
      <trkpt lat="27.967902" lon="-15.555889">
        <ele>1802.01</ele>
        <time>2018-02-17T09:58:25Z</time>
      </trkpt>
      <trkpt lat="27.967875" lon="-15.555892">
        <ele>1802.89</ele>
        <time>2018-02-17T09:58:28Z</time>
      </trkpt>
      <trkpt lat="27.967849" lon="-15.555890">
        <ele>1802.90</ele>
        <time>2018-02-17T09:58:30Z</time>
      </trkpt>
      <trkpt lat="27.967820" lon="-15.555885">
        <ele>1803.00</ele>
        <time>2018-02-17T09:58:32Z</time>
      </trkpt>
      <trkpt lat="27.967794" lon="-15.555876">
        <ele>1803.20</ele>
        <time>2018-02-17T09:58:34Z</time>
      </trkpt>
      <trkpt lat="27.967704" lon="-15.555856">
        <ele>1803.70</ele>
        <time>2018-02-17T09:58:40Z</time>
      </trkpt>
      <trkpt lat="27.967676" lon="-15.555848">
        <ele>1803.70</ele>
        <time>2018-02-17T09:58:42Z</time>
      </trkpt>
      <trkpt lat="27.967614" lon="-15.555838">
        <ele>1804.50</ele>
        <time>2018-02-17T09:58:46Z</time>
      </trkpt>
      <trkpt lat="27.967566" lon="-15.555842">
        <ele>1804.51</ele>
        <time>2018-02-17T09:58:49Z</time>
      </trkpt>
      <trkpt lat="27.967540" lon="-15.555852">
        <ele>1804.90</ele>
        <time>2018-02-17T09:58:51Z</time>
      </trkpt>
      <trkpt lat="27.967511" lon="-15.555861">
        <ele>1804.90</ele>
        <time>2018-02-17T09:58:53Z</time>
      </trkpt>
      <trkpt lat="27.967489" lon="-15.555872">
        <ele>1804.91</ele>
        <time>2018-02-17T09:58:55Z</time>
      </trkpt>
      <trkpt lat="27.967386" lon="-15.555894">
        <ele>1804.90</ele>
        <time>2018-02-17T09:59:02Z</time>
      </trkpt>
      <trkpt lat="27.967363" lon="-15.555889">
        <ele>1805.50</ele>
        <time>2018-02-17T09:59:05Z</time>
      </trkpt>
      <trkpt lat="27.967342" lon="-15.555889">
        <ele>1805.60</ele>
        <time>2018-02-17T09:59:08Z</time>
      </trkpt>
      <trkpt lat="27.967321" lon="-15.555898">
        <ele>1805.80</ele>
        <time>2018-02-17T09:59:11Z</time>
      </trkpt>
      <trkpt lat="27.967304" lon="-15.555907">
        <ele>1805.80</ele>
        <time>2018-02-17T09:59:13Z</time>
      </trkpt>
      <trkpt lat="27.967285" lon="-15.555913">
        <ele>1806.00</ele>
        <time>2018-02-17T09:59:15Z</time>
      </trkpt>
      <trkpt lat="27.967269" lon="-15.555933">
        <ele>1805.80</ele>
        <time>2018-02-17T09:59:17Z</time>
      </trkpt>
      <trkpt lat="27.967252" lon="-15.555958">
        <ele>1805.70</ele>
        <time>2018-02-17T09:59:19Z</time>
      </trkpt>
      <trkpt lat="27.967234" lon="-15.555981">
        <ele>1805.70</ele>
        <time>2018-02-17T09:59:21Z</time>
      </trkpt>
      <trkpt lat="27.967211" lon="-15.555997">
        <ele>1806.29</ele>
        <time>2018-02-17T09:59:23Z</time>
      </trkpt>
      <trkpt lat="27.967190" lon="-15.556007">
        <ele>1806.60</ele>
        <time>2018-02-17T09:59:25Z</time>
      </trkpt>
      <trkpt lat="27.967172" lon="-15.556020">
        <ele>1806.80</ele>
        <time>2018-02-17T09:59:27Z</time>
      </trkpt>
      <trkpt lat="27.967131" lon="-15.556034">
        <ele>1807.80</ele>
        <time>2018-02-17T09:59:31Z</time>
      </trkpt>
      <trkpt lat="27.967111" lon="-15.556046">
        <ele>1808.09</ele>
        <time>2018-02-17T09:59:33Z</time>
      </trkpt>
      <trkpt lat="27.967087" lon="-15.556057">
        <ele>1809.45</ele>
        <time>2018-02-17T09:59:36Z</time>
      </trkpt>
      <trkpt lat="27.967067" lon="-15.556066">
        <ele>1809.87</ele>
        <time>2018-02-17T09:59:38Z</time>
      </trkpt>
      <trkpt lat="27.967047" lon="-15.556066">
        <ele>1809.90</ele>
        <time>2018-02-17T09:59:40Z</time>
      </trkpt>
      <trkpt lat="27.967022" lon="-15.556074">
        <ele>1810.30</ele>
        <time>2018-02-17T09:59:42Z</time>
      </trkpt>
      <trkpt lat="27.966998" lon="-15.556080">
        <ele>1810.70</ele>
        <time>2018-02-17T09:59:44Z</time>
      </trkpt>
      <trkpt lat="27.966974" lon="-15.556091">
        <ele>1810.70</ele>
        <time>2018-02-17T09:59:46Z</time>
      </trkpt>
      <trkpt lat="27.966949" lon="-15.556106">
        <ele>1810.40</ele>
        <time>2018-02-17T09:59:48Z</time>
      </trkpt>
      <trkpt lat="27.966925" lon="-15.556119">
        <ele>1810.50</ele>
        <time>2018-02-17T09:59:50Z</time>
      </trkpt>
      <trkpt lat="27.966903" lon="-15.556137">
        <ele>1810.50</ele>
        <time>2018-02-17T09:59:52Z</time>
      </trkpt>
      <trkpt lat="27.966880" lon="-15.556156">
        <ele>1810.78</ele>
        <time>2018-02-17T09:59:54Z</time>
      </trkpt>
      <trkpt lat="27.966859" lon="-15.556171">
        <ele>1810.98</ele>
        <time>2018-02-17T09:59:56Z</time>
      </trkpt>
      <trkpt lat="27.966841" lon="-15.556186">
        <ele>1811.10</ele>
        <time>2018-02-17T09:59:58Z</time>
      </trkpt>
      <trkpt lat="27.966816" lon="-15.556199">
        <ele>1811.14</ele>
        <time>2018-02-17T10:00:00Z</time>
      </trkpt>
      <trkpt lat="27.966793" lon="-15.556210">
        <ele>1811.34</ele>
        <time>2018-02-17T10:00:02Z</time>
      </trkpt>
      <trkpt lat="27.966771" lon="-15.556225">
        <ele>1811.78</ele>
        <time>2018-02-17T10:00:04Z</time>
      </trkpt>
      <trkpt lat="27.966745" lon="-15.556239">
        <ele>1812.50</ele>
        <time>2018-02-17T10:00:06Z</time>
      </trkpt>
      <trkpt lat="27.966715" lon="-15.556255">
        <ele>1812.60</ele>
        <time>2018-02-17T10:00:08Z</time>
      </trkpt>
      <trkpt lat="27.966689" lon="-15.556264">
        <ele>1813.05</ele>
        <time>2018-02-17T10:00:10Z</time>
      </trkpt>
      <trkpt lat="27.966666" lon="-15.556273">
        <ele>1813.10</ele>
        <time>2018-02-17T10:00:12Z</time>
      </trkpt>
      <trkpt lat="27.966635" lon="-15.556290">
        <ele>1813.35</ele>
        <time>2018-02-17T10:00:14Z</time>
      </trkpt>
      <trkpt lat="27.966608" lon="-15.556304">
        <ele>1813.78</ele>
        <time>2018-02-17T10:00:16Z</time>
      </trkpt>
      <trkpt lat="27.966521" lon="-15.556357">
        <ele>1814.17</ele>
        <time>2018-02-17T10:00:22Z</time>
      </trkpt>
      <trkpt lat="27.966443" lon="-15.556427">
        <ele>1814.13</ele>
        <time>2018-02-17T10:00:29Z</time>
      </trkpt>
      <trkpt lat="27.966371" lon="-15.556510">
        <ele>1814.37</ele>
        <time>2018-02-17T10:00:36Z</time>
      </trkpt>
      <trkpt lat="27.966336" lon="-15.556526">
        <ele>1814.40</ele>
        <time>2018-02-17T10:00:38Z</time>
      </trkpt>
      <trkpt lat="27.966320" lon="-15.556536">
        <ele>1814.47</ele>
        <time>2018-02-17T10:00:39Z</time>
      </trkpt>
      <trkpt lat="27.966291" lon="-15.556548">
        <ele>1814.60</ele>
        <time>2018-02-17T10:00:41Z</time>
      </trkpt>
      <trkpt lat="27.966266" lon="-15.556570">
        <ele>1814.60</ele>
        <time>2018-02-17T10:00:43Z</time>
      </trkpt>
      <trkpt lat="27.966247" lon="-15.556585">
        <ele>1814.80</ele>
        <time>2018-02-17T10:00:45Z</time>
      </trkpt>
      <trkpt lat="27.966224" lon="-15.556607">
        <ele>1814.80</ele>
        <time>2018-02-17T10:00:47Z</time>
      </trkpt>
      <trkpt lat="27.966157" lon="-15.556638">
        <ele>1814.60</ele>
        <time>2018-02-17T10:00:53Z</time>
      </trkpt>
      <trkpt lat="27.966142" lon="-15.556655">
        <ele>1814.80</ele>
        <time>2018-02-17T10:00:55Z</time>
      </trkpt>
      <trkpt lat="27.966118" lon="-15.556683">
        <ele>1814.93</ele>
        <time>2018-02-17T10:00:57Z</time>
      </trkpt>
      <trkpt lat="27.966088" lon="-15.556728">
        <ele>1815.07</ele>
        <time>2018-02-17T10:01:00Z</time>
      </trkpt>
      <trkpt lat="27.966068" lon="-15.556748">
        <ele>1815.07</ele>
        <time>2018-02-17T10:01:02Z</time>
      </trkpt>
      <trkpt lat="27.966050" lon="-15.556779">
        <ele>1814.63</ele>
        <time>2018-02-17T10:01:04Z</time>
      </trkpt>
      <trkpt lat="27.966044" lon="-15.556818">
        <ele>1814.60</ele>
        <time>2018-02-17T10:01:06Z</time>
      </trkpt>
      <trkpt lat="27.966040" lon="-15.556851">
        <ele>1814.20</ele>
        <time>2018-02-17T10:01:08Z</time>
      </trkpt>
      <trkpt lat="27.966025" lon="-15.556881">
        <ele>1813.70</ele>
        <time>2018-02-17T10:01:10Z</time>
      </trkpt>
      <trkpt lat="27.966004" lon="-15.556908">
        <ele>1813.80</ele>
        <time>2018-02-17T10:01:12Z</time>
      </trkpt>
      <trkpt lat="27.965970" lon="-15.556950">
        <ele>1814.13</ele>
        <time>2018-02-17T10:01:16Z</time>
      </trkpt>
      <trkpt lat="27.965960" lon="-15.556983">
        <ele>1814.13</ele>
        <time>2018-02-17T10:01:18Z</time>
      </trkpt>
      <trkpt lat="27.965933" lon="-15.557027">
        <ele>1814.30</ele>
        <time>2018-02-17T10:01:21Z</time>
      </trkpt>
      <trkpt lat="27.965920" lon="-15.557043">
        <ele>1814.49</ele>
        <time>2018-02-17T10:01:22Z</time>
      </trkpt>
      <trkpt lat="27.965895" lon="-15.557059">
        <ele>1814.85</ele>
        <time>2018-02-17T10:01:24Z</time>
      </trkpt>
      <trkpt lat="27.965871" lon="-15.557082">
        <ele>1815.00</ele>
        <time>2018-02-17T10:01:26Z</time>
      </trkpt>
      <trkpt lat="27.965844" lon="-15.557093">
        <ele>1815.00</ele>
        <time>2018-02-17T10:01:28Z</time>
      </trkpt>
      <trkpt lat="27.965819" lon="-15.557100">
        <ele>1814.94</ele>
        <time>2018-02-17T10:01:30Z</time>
      </trkpt>
      <trkpt lat="27.965789" lon="-15.557107">
        <ele>1814.90</ele>
        <time>2018-02-17T10:01:32Z</time>
      </trkpt>
      <trkpt lat="27.965759" lon="-15.557124">
        <ele>1814.90</ele>
        <time>2018-02-17T10:01:34Z</time>
      </trkpt>
      <trkpt lat="27.965741" lon="-15.557131">
        <ele>1814.90</ele>
        <time>2018-02-17T10:01:35Z</time>
      </trkpt>
      <trkpt lat="27.965722" lon="-15.557138">
        <ele>1815.02</ele>
        <time>2018-02-17T10:01:36Z</time>
      </trkpt>
      <trkpt lat="27.965692" lon="-15.557154">
        <ele>1814.98</ele>
        <time>2018-02-17T10:01:38Z</time>
      </trkpt>
      <trkpt lat="27.965677" lon="-15.557168">
        <ele>1814.72</ele>
        <time>2018-02-17T10:01:39Z</time>
      </trkpt>
      <trkpt lat="27.965641" lon="-15.557220">
        <ele>1814.40</ele>
        <time>2018-02-17T10:01:42Z</time>
      </trkpt>
      <trkpt lat="27.965622" lon="-15.557240">
        <ele>1815.36</ele>
        <time>2018-02-17T10:01:47Z</time>
      </trkpt>
      <trkpt lat="27.965614" lon="-15.557279">
        <ele>1815.40</ele>
        <time>2018-02-17T10:01:49Z</time>
      </trkpt>
      <trkpt lat="27.965606" lon="-15.557314">
        <ele>1815.40</ele>
        <time>2018-02-17T10:01:51Z</time>
      </trkpt>
      <trkpt lat="27.965595" lon="-15.557346">
        <ele>1815.51</ele>
        <time>2018-02-17T10:01:53Z</time>
      </trkpt>
      <trkpt lat="27.965588" lon="-15.557379">
        <ele>1815.51</ele>
        <time>2018-02-17T10:01:55Z</time>
      </trkpt>
      <trkpt lat="27.965583" lon="-15.557408">
        <ele>1815.76</ele>
        <time>2018-02-17T10:01:57Z</time>
      </trkpt>
      <trkpt lat="27.965576" lon="-15.557441">
        <ele>1815.90</ele>
        <time>2018-02-17T10:01:59Z</time>
      </trkpt>
      <trkpt lat="27.965578" lon="-15.557463">
        <ele>1816.06</ele>
        <time>2018-02-17T10:02:00Z</time>
      </trkpt>
      <trkpt lat="27.965578" lon="-15.557498">
        <ele>1816.40</ele>
        <time>2018-02-17T10:02:02Z</time>
      </trkpt>
      <trkpt lat="27.965574" lon="-15.557531">
        <ele>1816.65</ele>
        <time>2018-02-17T10:02:04Z</time>
      </trkpt>
      <trkpt lat="27.965576" lon="-15.557557">
        <ele>1816.80</ele>
        <time>2018-02-17T10:02:05Z</time>
      </trkpt>
      <trkpt lat="27.965576" lon="-15.557578">
        <ele>1816.90</ele>
        <time>2018-02-17T10:02:06Z</time>
      </trkpt>
      <trkpt lat="27.965575" lon="-15.557613">
        <ele>1817.20</ele>
        <time>2018-02-17T10:02:08Z</time>
      </trkpt>
      <trkpt lat="27.965568" lon="-15.557650">
        <ele>1817.05</ele>
        <time>2018-02-17T10:02:11Z</time>
      </trkpt>
      <trkpt lat="27.965560" lon="-15.557669">
        <ele>1817.20</ele>
        <time>2018-02-17T10:02:12Z</time>
      </trkpt>
      <trkpt lat="27.965550" lon="-15.557687">
        <ele>1817.05</ele>
        <time>2018-02-17T10:02:13Z</time>
      </trkpt>
      <trkpt lat="27.965540" lon="-15.557704">
        <ele>1816.65</ele>
        <time>2018-02-17T10:02:14Z</time>
      </trkpt>
      <trkpt lat="27.965521" lon="-15.557722">
        <ele>1816.40</ele>
        <time>2018-02-17T10:02:15Z</time>
      </trkpt>
      <trkpt lat="27.965504" lon="-15.557739">
        <ele>1816.65</ele>
        <time>2018-02-17T10:02:16Z</time>
      </trkpt>
      <trkpt lat="27.965486" lon="-15.557755">
        <ele>1816.90</ele>
        <time>2018-02-17T10:02:17Z</time>
      </trkpt>
      <trkpt lat="27.965461" lon="-15.557791">
        <ele>1816.20</ele>
        <time>2018-02-17T10:02:19Z</time>
      </trkpt>
      <trkpt lat="27.965448" lon="-15.557810">
        <ele>1816.10</ele>
        <time>2018-02-17T10:02:20Z</time>
      </trkpt>
      <trkpt lat="27.965434" lon="-15.557836">
        <ele>1816.10</ele>
        <time>2018-02-17T10:02:21Z</time>
      </trkpt>
      <trkpt lat="27.965421" lon="-15.557856">
        <ele>1816.20</ele>
        <time>2018-02-17T10:02:22Z</time>
      </trkpt>
      <trkpt lat="27.965411" lon="-15.557876">
        <ele>1816.30</ele>
        <time>2018-02-17T10:02:23Z</time>
      </trkpt>
      <trkpt lat="27.965360" lon="-15.557963">
        <ele>1818.30</ele>
        <time>2018-02-17T10:02:27Z</time>
      </trkpt>
      <trkpt lat="27.965283" lon="-15.558036">
        <ele>1819.70</ele>
        <time>2018-02-17T10:02:33Z</time>
      </trkpt>
      <trkpt lat="27.965252" lon="-15.558049">
        <ele>1820.20</ele>
        <time>2018-02-17T10:02:35Z</time>
      </trkpt>
      <trkpt lat="27.965187" lon="-15.558149">
        <ele>1820.70</ele>
        <time>2018-02-17T10:02:40Z</time>
      </trkpt>
      <trkpt lat="27.965178" lon="-15.558172">
        <ele>1820.70</ele>
        <time>2018-02-17T10:02:41Z</time>
      </trkpt>
      <trkpt lat="27.965175" lon="-15.558195">
        <ele>1820.70</ele>
        <time>2018-02-17T10:02:42Z</time>
      </trkpt>
      <trkpt lat="27.965170" lon="-15.558216">
        <ele>1821.26</ele>
        <time>2018-02-17T10:02:43Z</time>
      </trkpt>
      <trkpt lat="27.965163" lon="-15.558244">
        <ele>1821.99</ele>
        <time>2018-02-17T10:02:44Z</time>
      </trkpt>
      <trkpt lat="27.965159" lon="-15.558268">
        <ele>1822.01</ele>
        <time>2018-02-17T10:02:45Z</time>
      </trkpt>
      <trkpt lat="27.965155" lon="-15.558294">
        <ele>1821.90</ele>
        <time>2018-02-17T10:02:46Z</time>
      </trkpt>
      <trkpt lat="27.965139" lon="-15.558407">
        <ele>1821.60</ele>
        <time>2018-02-17T10:02:51Z</time>
      </trkpt>
      <trkpt lat="27.965122" lon="-15.558512">
        <ele>1822.26</ele>
        <time>2018-02-17T10:02:55Z</time>
      </trkpt>
      <trkpt lat="27.965109" lon="-15.558602">
        <ele>1822.61</ele>
        <time>2018-02-17T10:02:59Z</time>
      </trkpt>
      <trkpt lat="27.965105" lon="-15.558624">
        <ele>1822.79</ele>
        <time>2018-02-17T10:03:00Z</time>
      </trkpt>
      <trkpt lat="27.965102" lon="-15.558645">
        <ele>1822.31</ele>
        <time>2018-02-17T10:03:01Z</time>
      </trkpt>
      <trkpt lat="27.965099" lon="-15.558666">
        <ele>1822.60</ele>
        <time>2018-02-17T10:03:02Z</time>
      </trkpt>
      <trkpt lat="27.965094" lon="-15.558689">
        <ele>1822.68</ele>
        <time>2018-02-17T10:03:03Z</time>
      </trkpt>
      <trkpt lat="27.965081" lon="-15.558729">
        <ele>1822.80</ele>
        <time>2018-02-17T10:03:05Z</time>
      </trkpt>
      <trkpt lat="27.965073" lon="-15.558750">
        <ele>1822.80</ele>
        <time>2018-02-17T10:03:06Z</time>
      </trkpt>
      <trkpt lat="27.965064" lon="-15.558774">
        <ele>1822.80</ele>
        <time>2018-02-17T10:03:07Z</time>
      </trkpt>
      <trkpt lat="27.965055" lon="-15.558796">
        <ele>1823.08</ele>
        <time>2018-02-17T10:03:08Z</time>
      </trkpt>
      <trkpt lat="27.965046" lon="-15.558823">
        <ele>1823.22</ele>
        <time>2018-02-17T10:03:09Z</time>
      </trkpt>
      <trkpt lat="27.965035" lon="-15.558847">
        <ele>1823.20</ele>
        <time>2018-02-17T10:03:10Z</time>
      </trkpt>
      <trkpt lat="27.965024" lon="-15.558873">
        <ele>1823.40</ele>
        <time>2018-02-17T10:03:11Z</time>
      </trkpt>
      <trkpt lat="27.965015" lon="-15.558904">
        <ele>1823.35</ele>
        <time>2018-02-17T10:03:12Z</time>
      </trkpt>
      <trkpt lat="27.965008" lon="-15.558930">
        <ele>1823.65</ele>
        <time>2018-02-17T10:03:13Z</time>
      </trkpt>
      <trkpt lat="27.964998" lon="-15.558956">
        <ele>1823.51</ele>
        <time>2018-02-17T10:03:14Z</time>
      </trkpt>
      <trkpt lat="27.964988" lon="-15.558983">
        <ele>1823.90</ele>
        <time>2018-02-17T10:03:15Z</time>
      </trkpt>
      <trkpt lat="27.964979" lon="-15.559008">
        <ele>1823.54</ele>
        <time>2018-02-17T10:03:16Z</time>
      </trkpt>
      <trkpt lat="27.964968" lon="-15.559031">
        <ele>1824.08</ele>
        <time>2018-02-17T10:03:17Z</time>
      </trkpt>
      <trkpt lat="27.964956" lon="-15.559053">
        <ele>1823.72</ele>
        <time>2018-02-17T10:03:18Z</time>
      </trkpt>
      <trkpt lat="27.964947" lon="-15.559080">
        <ele>1824.24</ele>
        <time>2018-02-17T10:03:19Z</time>
      </trkpt>
      <trkpt lat="27.964937" lon="-15.559107">
        <ele>1824.11</ele>
        <time>2018-02-17T10:03:20Z</time>
      </trkpt>
      <trkpt lat="27.964925" lon="-15.559133">
        <ele>1824.49</ele>
        <time>2018-02-17T10:03:21Z</time>
      </trkpt>
      <trkpt lat="27.964916" lon="-15.559156">
        <ele>1823.96</ele>
        <time>2018-02-17T10:03:22Z</time>
      </trkpt>
      <trkpt lat="27.964908" lon="-15.559176">
        <ele>1824.47</ele>
        <time>2018-02-17T10:03:23Z</time>
      </trkpt>
      <trkpt lat="27.964897" lon="-15.559197">
        <ele>1824.10</ele>
        <time>2018-02-17T10:03:25Z</time>
      </trkpt>
      <trkpt lat="27.964884" lon="-15.559218">
        <ele>1823.99</ele>
        <time>2018-02-17T10:03:27Z</time>
      </trkpt>
      <trkpt lat="27.964874" lon="-15.559241">
        <ele>1823.70</ele>
        <time>2018-02-17T10:03:30Z</time>
      </trkpt>
      <trkpt lat="27.964873" lon="-15.559264">
        <ele>1823.70</ele>
        <time>2018-02-17T10:03:32Z</time>
      </trkpt>
      <trkpt lat="27.964867" lon="-15.559285">
        <ele>1823.70</ele>
        <time>2018-02-17T10:03:34Z</time>
      </trkpt>
      <trkpt lat="27.964857" lon="-15.559312">
        <ele>1823.70</ele>
        <time>2018-02-17T10:03:36Z</time>
      </trkpt>
      <trkpt lat="27.964848" lon="-15.559338">
        <ele>1823.77</ele>
        <time>2018-02-17T10:03:38Z</time>
      </trkpt>
      <trkpt lat="27.964840" lon="-15.559373">
        <ele>1823.94</ele>
        <time>2018-02-17T10:03:40Z</time>
      </trkpt>
      <trkpt lat="27.964834" lon="-15.559402">
        <ele>1823.70</ele>
        <time>2018-02-17T10:03:42Z</time>
      </trkpt>
      <trkpt lat="27.964829" lon="-15.559431">
        <ele>1823.81</ele>
        <time>2018-02-17T10:03:44Z</time>
      </trkpt>
      <trkpt lat="27.964824" lon="-15.559460">
        <ele>1824.24</ele>
        <time>2018-02-17T10:03:46Z</time>
      </trkpt>
      <trkpt lat="27.964820" lon="-15.559483">
        <ele>1824.17</ele>
        <time>2018-02-17T10:03:48Z</time>
      </trkpt>
      <trkpt lat="27.964818" lon="-15.559508">
        <ele>1824.47</ele>
        <time>2018-02-17T10:03:50Z</time>
      </trkpt>
      <trkpt lat="27.964816" lon="-15.559537">
        <ele>1824.40</ele>
        <time>2018-02-17T10:03:52Z</time>
      </trkpt>
      <trkpt lat="27.964816" lon="-15.559566">
        <ele>1824.33</ele>
        <time>2018-02-17T10:03:54Z</time>
      </trkpt>
      <trkpt lat="27.964819" lon="-15.559594">
        <ele>1824.40</ele>
        <time>2018-02-17T10:03:56Z</time>
      </trkpt>
      <trkpt lat="27.964821" lon="-15.559623">
        <ele>1824.73</ele>
        <time>2018-02-17T10:03:58Z</time>
      </trkpt>
      <trkpt lat="27.964829" lon="-15.559657">
        <ele>1824.86</ele>
        <time>2018-02-17T10:04:00Z</time>
      </trkpt>
      <trkpt lat="27.964837" lon="-15.559692">
        <ele>1825.16</ele>
        <time>2018-02-17T10:04:02Z</time>
      </trkpt>
      <trkpt lat="27.964849" lon="-15.559733">
        <ele>1825.30</ele>
        <time>2018-02-17T10:04:04Z</time>
      </trkpt>
      <trkpt lat="27.964866" lon="-15.559755">
        <ele>1825.30</ele>
        <time>2018-02-17T10:04:05Z</time>
      </trkpt>
      <trkpt lat="27.964884" lon="-15.559773">
        <ele>1825.39</ele>
        <time>2018-02-17T10:04:06Z</time>
      </trkpt>
      <trkpt lat="27.964908" lon="-15.559787">
        <ele>1825.63</ele>
        <time>2018-02-17T10:04:07Z</time>
      </trkpt>
      <trkpt lat="27.964932" lon="-15.559801">
        <ele>1825.73</ele>
        <time>2018-02-17T10:04:08Z</time>
      </trkpt>
      <trkpt lat="27.964961" lon="-15.559812">
        <ele>1825.95</ele>
        <time>2018-02-17T10:04:09Z</time>
      </trkpt>
      <trkpt lat="27.964989" lon="-15.559825">
        <ele>1826.48</ele>
        <time>2018-02-17T10:04:10Z</time>
      </trkpt>
      <trkpt lat="27.965023" lon="-15.559836">
        <ele>1826.96</ele>
        <time>2018-02-17T10:04:11Z</time>
      </trkpt>
      <trkpt lat="27.965053" lon="-15.559849">
        <ele>1827.10</ele>
        <time>2018-02-17T10:04:12Z</time>
      </trkpt>
      <trkpt lat="27.965088" lon="-15.559862">
        <ele>1827.10</ele>
        <time>2018-02-17T10:04:13Z</time>
      </trkpt>
      <trkpt lat="27.965146" lon="-15.559880">
        <ele>1828.72</ele>
        <time>2018-02-17T10:04:15Z</time>
      </trkpt>
      <trkpt lat="27.965173" lon="-15.559890">
        <ele>1829.00</ele>
        <time>2018-02-17T10:04:16Z</time>
      </trkpt>
      <trkpt lat="27.965287" lon="-15.559917">
        <ele>1829.34</ele>
        <time>2018-02-17T10:04:20Z</time>
      </trkpt>
      <trkpt lat="27.965351" lon="-15.559934">
        <ele>1830.30</ele>
        <time>2018-02-17T10:04:22Z</time>
      </trkpt>
      <trkpt lat="27.965379" lon="-15.559939">
        <ele>1831.00</ele>
        <time>2018-02-17T10:04:23Z</time>
      </trkpt>
      <trkpt lat="27.965435" lon="-15.559951">
        <ele>1831.77</ele>
        <time>2018-02-17T10:04:27Z</time>
      </trkpt>
      <trkpt lat="27.965470" lon="-15.559948">
        <ele>1832.55</ele>
        <time>2018-02-17T10:04:29Z</time>
      </trkpt>
      <trkpt lat="27.965497" lon="-15.559944">
        <ele>1832.55</ele>
        <time>2018-02-17T10:04:31Z</time>
      </trkpt>
      <trkpt lat="27.965518" lon="-15.559942">
        <ele>1832.93</ele>
        <time>2018-02-17T10:04:33Z</time>
      </trkpt>
      <trkpt lat="27.965546" lon="-15.559941">
        <ele>1833.90</ele>
        <time>2018-02-17T10:04:36Z</time>
      </trkpt>
      <trkpt lat="27.965572" lon="-15.559943">
        <ele>1833.90</ele>
        <time>2018-02-17T10:04:38Z</time>
      </trkpt>
      <trkpt lat="27.965593" lon="-15.559939">
        <ele>1833.90</ele>
        <time>2018-02-17T10:04:40Z</time>
      </trkpt>
      <trkpt lat="27.965624" lon="-15.559930">
        <ele>1834.05</ele>
        <time>2018-02-17T10:04:42Z</time>
      </trkpt>
      <trkpt lat="27.965656" lon="-15.559927">
        <ele>1834.62</ele>
        <time>2018-02-17T10:04:44Z</time>
      </trkpt>
      <trkpt lat="27.965676" lon="-15.559930">
        <ele>1834.85</ele>
        <time>2018-02-17T10:04:46Z</time>
      </trkpt>
      <trkpt lat="27.965700" lon="-15.559931">
        <ele>1835.20</ele>
        <time>2018-02-17T10:04:48Z</time>
      </trkpt>
      <trkpt lat="27.965728" lon="-15.559926">
        <ele>1835.28</ele>
        <time>2018-02-17T10:04:50Z</time>
      </trkpt>
      <trkpt lat="27.965750" lon="-15.559924">
        <ele>1835.52</ele>
        <time>2018-02-17T10:04:52Z</time>
      </trkpt>
      <trkpt lat="27.965769" lon="-15.559923">
        <ele>1835.72</ele>
        <time>2018-02-17T10:04:54Z</time>
      </trkpt>
      <trkpt lat="27.965792" lon="-15.559933">
        <ele>1836.00</ele>
        <time>2018-02-17T10:04:57Z</time>
      </trkpt>
      <trkpt lat="27.965812" lon="-15.559940">
        <ele>1836.10</ele>
        <time>2018-02-17T10:04:59Z</time>
      </trkpt>
      <trkpt lat="27.965830" lon="-15.559952">
        <ele>1836.49</ele>
        <time>2018-02-17T10:05:01Z</time>
      </trkpt>
      <trkpt lat="27.965860" lon="-15.559959">
        <ele>1837.15</ele>
        <time>2018-02-17T10:05:05Z</time>
      </trkpt>
      <trkpt lat="27.965882" lon="-15.559969">
        <ele>1837.40</ele>
        <time>2018-02-17T10:05:07Z</time>
      </trkpt>
      <trkpt lat="27.965908" lon="-15.559979">
        <ele>1837.43</ele>
        <time>2018-02-17T10:05:09Z</time>
      </trkpt>
      <trkpt lat="27.965932" lon="-15.559993">
        <ele>1837.84</ele>
        <time>2018-02-17T10:05:11Z</time>
      </trkpt>
      <trkpt lat="27.965953" lon="-15.559998">
        <ele>1838.10</ele>
        <time>2018-02-17T10:05:13Z</time>
      </trkpt>
      <trkpt lat="27.965976" lon="-15.560001">
        <ele>1838.13</ele>
        <time>2018-02-17T10:05:15Z</time>
      </trkpt>
      <trkpt lat="27.965995" lon="-15.560004">
        <ele>1838.50</ele>
        <time>2018-02-17T10:05:17Z</time>
      </trkpt>
      <trkpt lat="27.966018" lon="-15.560016">
        <ele>1838.52</ele>
        <time>2018-02-17T10:05:19Z</time>
      </trkpt>
      <trkpt lat="27.966037" lon="-15.560024">
        <ele>1838.81</ele>
        <time>2018-02-17T10:05:21Z</time>
      </trkpt>
      <trkpt lat="27.966055" lon="-15.560035">
        <ele>1838.92</ele>
        <time>2018-02-17T10:05:23Z</time>
      </trkpt>
      <trkpt lat="27.966074" lon="-15.560039">
        <ele>1839.21</ele>
        <time>2018-02-17T10:05:25Z</time>
      </trkpt>
      <trkpt lat="27.966094" lon="-15.560034">
        <ele>1839.21</ele>
        <time>2018-02-17T10:05:27Z</time>
      </trkpt>
      <trkpt lat="27.966098" lon="-15.560012">
        <ele>1839.19</ele>
        <time>2018-02-17T10:05:34Z</time>
      </trkpt>
      <trkpt lat="27.966093" lon="-15.559991">
        <ele>1839.10</ele>
        <time>2018-02-17T10:05:40Z</time>
      </trkpt>
      <trkpt lat="27.966090" lon="-15.559969">
        <ele>1838.91</ele>
        <time>2018-02-17T10:05:43Z</time>
      </trkpt>
      <trkpt lat="27.966060" lon="-15.559988">
        <ele>1838.59</ele>
        <time>2018-02-17T10:05:51Z</time>
      </trkpt>
      <trkpt lat="27.966080" lon="-15.559978">
        <ele>1839.00</ele>
        <time>2018-02-17T10:06:01Z</time>
      </trkpt>
      <trkpt lat="27.966100" lon="-15.559964">
        <ele>1839.08</ele>
        <time>2018-02-17T10:06:04Z</time>
      </trkpt>
      <trkpt lat="27.966115" lon="-15.559952">
        <ele>1839.50</ele>
        <time>2018-02-17T10:06:06Z</time>
      </trkpt>
      <trkpt lat="27.966133" lon="-15.559942">
        <ele>1839.50</ele>
        <time>2018-02-17T10:06:08Z</time>
      </trkpt>
      <trkpt lat="27.966128" lon="-15.559963">
        <ele>1839.50</ele>
        <time>2018-02-17T10:06:23Z</time>
      </trkpt>
      <trkpt lat="27.966148" lon="-15.559949">
        <ele>1837.70</ele>
        <time>2018-02-17T10:06:36Z</time>
      </trkpt>
      <trkpt lat="27.966171" lon="-15.559946">
        <ele>1837.86</ele>
        <time>2018-02-17T10:06:38Z</time>
      </trkpt>
      <trkpt lat="27.966190" lon="-15.559946">
        <ele>1838.32</ele>
        <time>2018-02-17T10:06:39Z</time>
      </trkpt>
      <trkpt lat="27.966211" lon="-15.559947">
        <ele>1838.60</ele>
        <time>2018-02-17T10:06:40Z</time>
      </trkpt>
      <trkpt lat="27.966237" lon="-15.559947">
        <ele>1838.60</ele>
        <time>2018-02-17T10:06:41Z</time>
      </trkpt>
      <trkpt lat="27.966260" lon="-15.559949">
        <ele>1838.60</ele>
        <time>2018-02-17T10:06:42Z</time>
      </trkpt>
      <trkpt lat="27.966286" lon="-15.559952">
        <ele>1838.36</ele>
        <time>2018-02-17T10:06:43Z</time>
      </trkpt>
      <trkpt lat="27.966319" lon="-15.559955">
        <ele>1838.14</ele>
        <time>2018-02-17T10:06:44Z</time>
      </trkpt>
      <trkpt lat="27.966356" lon="-15.559956">
        <ele>1838.04</ele>
        <time>2018-02-17T10:06:45Z</time>
      </trkpt>
      <trkpt lat="27.966390" lon="-15.559959">
        <ele>1838.00</ele>
        <time>2018-02-17T10:06:46Z</time>
      </trkpt>
      <trkpt lat="27.966418" lon="-15.559963">
        <ele>1837.24</ele>
        <time>2018-02-17T10:06:47Z</time>
      </trkpt>
      <trkpt lat="27.966448" lon="-15.559965">
        <ele>1836.70</ele>
        <time>2018-02-17T10:06:48Z</time>
      </trkpt>
      <trkpt lat="27.966482" lon="-15.559968">
        <ele>1836.70</ele>
        <time>2018-02-17T10:06:49Z</time>
      </trkpt>
      <trkpt lat="27.966521" lon="-15.559971">
        <ele>1836.47</ele>
        <time>2018-02-17T10:06:50Z</time>
      </trkpt>
      <trkpt lat="27.966554" lon="-15.559976">
        <ele>1835.67</ele>
        <time>2018-02-17T10:06:51Z</time>
      </trkpt>
      <trkpt lat="27.966592" lon="-15.559986">
        <ele>1835.14</ele>
        <time>2018-02-17T10:06:52Z</time>
      </trkpt>
      <trkpt lat="27.966624" lon="-15.560000">
        <ele>1835.10</ele>
        <time>2018-02-17T10:06:53Z</time>
      </trkpt>
      <trkpt lat="27.966659" lon="-15.560014">
        <ele>1834.93</ele>
        <time>2018-02-17T10:06:54Z</time>
      </trkpt>
      <trkpt lat="27.966688" lon="-15.560023">
        <ele>1834.80</ele>
        <time>2018-02-17T10:06:55Z</time>
      </trkpt>
      <trkpt lat="27.966713" lon="-15.560034">
        <ele>1834.80</ele>
        <time>2018-02-17T10:06:56Z</time>
      </trkpt>
      <trkpt lat="27.966739" lon="-15.560043">
        <ele>1834.80</ele>
        <time>2018-02-17T10:06:57Z</time>
      </trkpt>
      <trkpt lat="27.966842" lon="-15.560082">
        <ele>1833.30</ele>
        <time>2018-02-17T10:07:01Z</time>
      </trkpt>
      <trkpt lat="27.966948" lon="-15.560119">
        <ele>1833.19</ele>
        <time>2018-02-17T10:07:05Z</time>
      </trkpt>
      <trkpt lat="27.967045" lon="-15.560179">
        <ele>1833.45</ele>
        <time>2018-02-17T10:07:09Z</time>
      </trkpt>
      <trkpt lat="27.967074" lon="-15.560194">
        <ele>1833.28</ele>
        <time>2018-02-17T10:07:10Z</time>
      </trkpt>
      <trkpt lat="27.967128" lon="-15.560227">
        <ele>1832.95</ele>
        <time>2018-02-17T10:07:12Z</time>
      </trkpt>
      <trkpt lat="27.967158" lon="-15.560245">
        <ele>1832.95</ele>
        <time>2018-02-17T10:07:13Z</time>
      </trkpt>
      <trkpt lat="27.967189" lon="-15.560262">
        <ele>1832.53</ele>
        <time>2018-02-17T10:07:14Z</time>
      </trkpt>
      <trkpt lat="27.967229" lon="-15.560273">
        <ele>1831.93</ele>
        <time>2018-02-17T10:07:15Z</time>
      </trkpt>
      <trkpt lat="27.967253" lon="-15.560289">
        <ele>1831.91</ele>
        <time>2018-02-17T10:07:16Z</time>
      </trkpt>
      <trkpt lat="27.967286" lon="-15.560300">
        <ele>1831.47</ele>
        <time>2018-02-17T10:07:17Z</time>
      </trkpt>
      <trkpt lat="27.967310" lon="-15.560314">
        <ele>1830.69</ele>
        <time>2018-02-17T10:07:18Z</time>
      </trkpt>
      <trkpt lat="27.967339" lon="-15.560329">
        <ele>1830.34</ele>
        <time>2018-02-17T10:07:19Z</time>
      </trkpt>
      <trkpt lat="27.967361" lon="-15.560345">
        <ele>1830.36</ele>
        <time>2018-02-17T10:07:20Z</time>
      </trkpt>
      <trkpt lat="27.967381" lon="-15.560364">
        <ele>1830.35</ele>
        <time>2018-02-17T10:07:21Z</time>
      </trkpt>
      <trkpt lat="27.967400" lon="-15.560383">
        <ele>1830.20</ele>
        <time>2018-02-17T10:07:22Z</time>
      </trkpt>
      <trkpt lat="27.967421" lon="-15.560401">
        <ele>1830.20</ele>
        <time>2018-02-17T10:07:23Z</time>
      </trkpt>
      <trkpt lat="27.967445" lon="-15.560420">
        <ele>1829.85</ele>
        <time>2018-02-17T10:07:24Z</time>
      </trkpt>
      <trkpt lat="27.967468" lon="-15.560449">
        <ele>1828.90</ele>
        <time>2018-02-17T10:07:25Z</time>
      </trkpt>
      <trkpt lat="27.967489" lon="-15.560472">
        <ele>1828.25</ele>
        <time>2018-02-17T10:07:26Z</time>
      </trkpt>
      <trkpt lat="27.967510" lon="-15.560494">
        <ele>1828.20</ele>
        <time>2018-02-17T10:07:27Z</time>
      </trkpt>
      <trkpt lat="27.967531" lon="-15.560516">
        <ele>1828.10</ele>
        <time>2018-02-17T10:07:28Z</time>
      </trkpt>
      <trkpt lat="27.967550" lon="-15.560542">
        <ele>1828.00</ele>
        <time>2018-02-17T10:07:29Z</time>
      </trkpt>
      <trkpt lat="27.967565" lon="-15.560572">
        <ele>1827.71</ele>
        <time>2018-02-17T10:07:30Z</time>
      </trkpt>
      <trkpt lat="27.967579" lon="-15.560602">
        <ele>1827.35</ele>
        <time>2018-02-17T10:07:31Z</time>
      </trkpt>
      <trkpt lat="27.967593" lon="-15.560633">
        <ele>1827.16</ele>
        <time>2018-02-17T10:07:32Z</time>
      </trkpt>
      <trkpt lat="27.967608" lon="-15.560671">
        <ele>1826.66</ele>
        <time>2018-02-17T10:07:33Z</time>
      </trkpt>
      <trkpt lat="27.967617" lon="-15.560706">
        <ele>1826.01</ele>
        <time>2018-02-17T10:07:34Z</time>
      </trkpt>
      <trkpt lat="27.967624" lon="-15.560739">
        <ele>1825.46</ele>
        <time>2018-02-17T10:07:35Z</time>
      </trkpt>
      <trkpt lat="27.967628" lon="-15.560766">
        <ele>1825.20</ele>
        <time>2018-02-17T10:07:36Z</time>
      </trkpt>
      <trkpt lat="27.967642" lon="-15.560814">
        <ele>1824.95</ele>
        <time>2018-02-17T10:07:38Z</time>
      </trkpt>
      <trkpt lat="27.967652" lon="-15.560840">
        <ele>1824.62</ele>
        <time>2018-02-17T10:07:39Z</time>
      </trkpt>
      <trkpt lat="27.967664" lon="-15.560872">
        <ele>1824.25</ele>
        <time>2018-02-17T10:07:40Z</time>
      </trkpt>
      <trkpt lat="27.967680" lon="-15.560899">
        <ele>1823.38</ele>
        <time>2018-02-17T10:07:41Z</time>
      </trkpt>
      <trkpt lat="27.967700" lon="-15.560925">
        <ele>1823.22</ele>
        <time>2018-02-17T10:07:42Z</time>
      </trkpt>
      <trkpt lat="27.967719" lon="-15.560942">
        <ele>1823.30</ele>
        <time>2018-02-17T10:07:43Z</time>
      </trkpt>
      <trkpt lat="27.967744" lon="-15.560960">
        <ele>1823.09</ele>
        <time>2018-02-17T10:07:44Z</time>
      </trkpt>
      <trkpt lat="27.967827" lon="-15.561014">
        <ele>1823.27</ele>
        <time>2018-02-17T10:07:47Z</time>
      </trkpt>
      <trkpt lat="27.967916" lon="-15.561052">
        <ele>1822.63</ele>
        <time>2018-02-17T10:07:50Z</time>
      </trkpt>
      <trkpt lat="27.967964" lon="-15.561085">
        <ele>1821.90</ele>
        <time>2018-02-17T10:07:52Z</time>
      </trkpt>
      <trkpt lat="27.967982" lon="-15.561101">
        <ele>1821.90</ele>
        <time>2018-02-17T10:07:53Z</time>
      </trkpt>
      <trkpt lat="27.968001" lon="-15.561118">
        <ele>1821.86</ele>
        <time>2018-02-17T10:07:54Z</time>
      </trkpt>
      <trkpt lat="27.968016" lon="-15.561136">
        <ele>1821.80</ele>
        <time>2018-02-17T10:07:55Z</time>
      </trkpt>
      <trkpt lat="27.968037" lon="-15.561152">
        <ele>1821.76</ele>
        <time>2018-02-17T10:07:56Z</time>
      </trkpt>
      <trkpt lat="27.968113" lon="-15.561239">
        <ele>1821.87</ele>
        <time>2018-02-17T10:08:00Z</time>
      </trkpt>
      <trkpt lat="27.968126" lon="-15.561267">
        <ele>1821.23</ele>
        <time>2018-02-17T10:08:01Z</time>
      </trkpt>
      <trkpt lat="27.968139" lon="-15.561292">
        <ele>1820.61</ele>
        <time>2018-02-17T10:08:02Z</time>
      </trkpt>
      <trkpt lat="27.968156" lon="-15.561315">
        <ele>1820.34</ele>
        <time>2018-02-17T10:08:03Z</time>
      </trkpt>
      <trkpt lat="27.968167" lon="-15.561339">
        <ele>1820.09</ele>
        <time>2018-02-17T10:08:04Z</time>
      </trkpt>
      <trkpt lat="27.968186" lon="-15.561357">
        <ele>1819.60</ele>
        <time>2018-02-17T10:08:05Z</time>
      </trkpt>
      <trkpt lat="27.968221" lon="-15.561424">
        <ele>1819.11</ele>
        <time>2018-02-17T10:08:08Z</time>
      </trkpt>
      <trkpt lat="27.968264" lon="-15.561522">
        <ele>1819.20</ele>
        <time>2018-02-17T10:08:11Z</time>
      </trkpt>
      <trkpt lat="27.968313" lon="-15.561636">
        <ele>1818.81</ele>
        <time>2018-02-17T10:08:14Z</time>
      </trkpt>
      <trkpt lat="27.968357" lon="-15.561745">
        <ele>1818.26</ele>
        <time>2018-02-17T10:08:17Z</time>
      </trkpt>
      <trkpt lat="27.968428" lon="-15.561848">
        <ele>1817.72</ele>
        <time>2018-02-17T10:08:20Z</time>
      </trkpt>
      <trkpt lat="27.968502" lon="-15.561915">
        <ele>1816.71</ele>
        <time>2018-02-17T10:08:23Z</time>
      </trkpt>
      <trkpt lat="27.968570" lon="-15.561985">
        <ele>1815.10</ele>
        <time>2018-02-17T10:08:32Z</time>
      </trkpt>
      <trkpt lat="27.968658" lon="-15.562081">
        <ele>1815.58</ele>
        <time>2018-02-17T10:08:36Z</time>
      </trkpt>
      <trkpt lat="27.968742" lon="-15.562122">
        <ele>1816.27</ele>
        <time>2018-02-17T10:08:39Z</time>
      </trkpt>
      <trkpt lat="27.968853" lon="-15.562124">
        <ele>1815.62</ele>
        <time>2018-02-17T10:08:42Z</time>
      </trkpt>
      <trkpt lat="27.968963" lon="-15.562117">
        <ele>1814.80</ele>
        <time>2018-02-17T10:08:46Z</time>
      </trkpt>
      <trkpt lat="27.968995" lon="-15.562108">
        <ele>1814.80</ele>
        <time>2018-02-17T10:08:47Z</time>
      </trkpt>
      <trkpt lat="27.969109" lon="-15.562079">
        <ele>1814.35</ele>
        <time>2018-02-17T10:08:51Z</time>
      </trkpt>
      <trkpt lat="27.969166" lon="-15.562067">
        <ele>1814.33</ele>
        <time>2018-02-17T10:08:53Z</time>
      </trkpt>
      <trkpt lat="27.969200" lon="-15.562057">
        <ele>1814.30</ele>
        <time>2018-02-17T10:08:54Z</time>
      </trkpt>
      <trkpt lat="27.969231" lon="-15.562047">
        <ele>1813.37</ele>
        <time>2018-02-17T10:08:55Z</time>
      </trkpt>
      <trkpt lat="27.969257" lon="-15.562039">
        <ele>1814.20</ele>
        <time>2018-02-17T10:08:56Z</time>
      </trkpt>
      <trkpt lat="27.969286" lon="-15.562032">
        <ele>1814.20</ele>
        <time>2018-02-17T10:08:57Z</time>
      </trkpt>
      <trkpt lat="27.969313" lon="-15.562024">
        <ele>1814.20</ele>
        <time>2018-02-17T10:08:58Z</time>
      </trkpt>
      <trkpt lat="27.969339" lon="-15.562014">
        <ele>1814.20</ele>
        <time>2018-02-17T10:08:59Z</time>
      </trkpt>
      <trkpt lat="27.969363" lon="-15.562006">
        <ele>1814.20</ele>
        <time>2018-02-17T10:09:00Z</time>
      </trkpt>
      <trkpt lat="27.969390" lon="-15.561999">
        <ele>1814.20</ele>
        <time>2018-02-17T10:09:01Z</time>
      </trkpt>
      <trkpt lat="27.969413" lon="-15.561998">
        <ele>1814.29</ele>
        <time>2018-02-17T10:09:02Z</time>
      </trkpt>
      <trkpt lat="27.969440" lon="-15.561991">
        <ele>1814.41</ele>
        <time>2018-02-17T10:09:03Z</time>
      </trkpt>
      <trkpt lat="27.969465" lon="-15.561980">
        <ele>1814.03</ele>
        <time>2018-02-17T10:09:04Z</time>
      </trkpt>
      <trkpt lat="27.969495" lon="-15.561976">
        <ele>1814.57</ele>
        <time>2018-02-17T10:09:05Z</time>
      </trkpt>
      <trkpt lat="27.969524" lon="-15.561970">
        <ele>1814.12</ele>
        <time>2018-02-17T10:09:06Z</time>
      </trkpt>
      <trkpt lat="27.969552" lon="-15.561967">
        <ele>1814.89</ele>
        <time>2018-02-17T10:09:07Z</time>
      </trkpt>
      <trkpt lat="27.969577" lon="-15.561966">
        <ele>1814.10</ele>
        <time>2018-02-17T10:09:08Z</time>
      </trkpt>
      <trkpt lat="27.969601" lon="-15.561970">
        <ele>1815.14</ele>
        <time>2018-02-17T10:09:09Z</time>
      </trkpt>
      <trkpt lat="27.969625" lon="-15.561975">
        <ele>1815.05</ele>
        <time>2018-02-17T10:09:10Z</time>
      </trkpt>
      <trkpt lat="27.969648" lon="-15.561980">
        <ele>1815.45</ele>
        <time>2018-02-17T10:09:11Z</time>
      </trkpt>
      <trkpt lat="27.969672" lon="-15.561983">
        <ele>1815.05</ele>
        <time>2018-02-17T10:09:12Z</time>
      </trkpt>
      <trkpt lat="27.969698" lon="-15.561990">
        <ele>1815.60</ele>
        <time>2018-02-17T10:09:13Z</time>
      </trkpt>
      <trkpt lat="27.969720" lon="-15.561999">
        <ele>1815.81</ele>
        <time>2018-02-17T10:09:14Z</time>
      </trkpt>
      <trkpt lat="27.969741" lon="-15.562008">
        <ele>1816.39</ele>
        <time>2018-02-17T10:09:15Z</time>
      </trkpt>
      <trkpt lat="27.969758" lon="-15.562020">
        <ele>1815.81</ele>
        <time>2018-02-17T10:09:16Z</time>
      </trkpt>
      <trkpt lat="27.969789" lon="-15.562028">
        <ele>1815.74</ele>
        <time>2018-02-17T10:09:18Z</time>
      </trkpt>
      <trkpt lat="27.969820" lon="-15.562044">
        <ele>1815.74</ele>
        <time>2018-02-17T10:09:20Z</time>
      </trkpt>
      <trkpt lat="27.969849" lon="-15.562058">
        <ele>1815.94</ele>
        <time>2018-02-17T10:09:22Z</time>
      </trkpt>
      <trkpt lat="27.969877" lon="-15.562081">
        <ele>1816.10</ele>
        <time>2018-02-17T10:09:24Z</time>
      </trkpt>
      <trkpt lat="27.969891" lon="-15.562094">
        <ele>1816.14</ele>
        <time>2018-02-17T10:09:25Z</time>
      </trkpt>
      <trkpt lat="27.969911" lon="-15.562112">
        <ele>1816.30</ele>
        <time>2018-02-17T10:09:26Z</time>
      </trkpt>
      <trkpt lat="27.969929" lon="-15.562133">
        <ele>1816.30</ele>
        <time>2018-02-17T10:09:27Z</time>
      </trkpt>
      <trkpt lat="27.969967" lon="-15.562184">
        <ele>1816.42</ele>
        <time>2018-02-17T10:09:29Z</time>
      </trkpt>
      <trkpt lat="27.969987" lon="-15.562208">
        <ele>1817.00</ele>
        <time>2018-02-17T10:09:30Z</time>
      </trkpt>
      <trkpt lat="27.970010" lon="-15.562228">
        <ele>1816.85</ele>
        <time>2018-02-17T10:09:31Z</time>
      </trkpt>
      <trkpt lat="27.970036" lon="-15.562231">
        <ele>1816.10</ele>
        <time>2018-02-17T10:09:32Z</time>
      </trkpt>
      <trkpt lat="27.970066" lon="-15.562218">
        <ele>1816.10</ele>
        <time>2018-02-17T10:09:33Z</time>
      </trkpt>
      <trkpt lat="27.970096" lon="-15.562205">
        <ele>1816.00</ele>
        <time>2018-02-17T10:09:34Z</time>
      </trkpt>
      <trkpt lat="27.970126" lon="-15.562191">
        <ele>1815.50</ele>
        <time>2018-02-17T10:09:35Z</time>
      </trkpt>
      <trkpt lat="27.970149" lon="-15.562180">
        <ele>1815.48</ele>
        <time>2018-02-17T10:09:36Z</time>
      </trkpt>
      <trkpt lat="27.970175" lon="-15.562168">
        <ele>1815.40</ele>
        <time>2018-02-17T10:09:37Z</time>
      </trkpt>
      <trkpt lat="27.970201" lon="-15.562154">
        <ele>1815.34</ele>
        <time>2018-02-17T10:09:38Z</time>
      </trkpt>
      <trkpt lat="27.970220" lon="-15.562141">
        <ele>1814.54</ele>
        <time>2018-02-17T10:09:39Z</time>
      </trkpt>
      <trkpt lat="27.970245" lon="-15.562129">
        <ele>1812.10</ele>
        <time>2018-02-17T10:09:40Z</time>
      </trkpt>
      <trkpt lat="27.970273" lon="-15.562118">
        <ele>1812.10</ele>
        <time>2018-02-17T10:09:41Z</time>
      </trkpt>
      <trkpt lat="27.970343" lon="-15.562200">
        <ele>1811.03</ele>
        <time>2018-02-17T10:09:45Z</time>
      </trkpt>
      <trkpt lat="27.970349" lon="-15.562237">
        <ele>1810.35</ele>
        <time>2018-02-17T10:09:46Z</time>
      </trkpt>
      <trkpt lat="27.970358" lon="-15.562341">
        <ele>1808.05</ele>
        <time>2018-02-17T10:09:49Z</time>
      </trkpt>
      <trkpt lat="27.970376" lon="-15.562452">
        <ele>1806.91</ele>
        <time>2018-02-17T10:09:52Z</time>
      </trkpt>
      <trkpt lat="27.970409" lon="-15.562558">
        <ele>1805.60</ele>
        <time>2018-02-17T10:09:55Z</time>
      </trkpt>
      <trkpt lat="27.970439" lon="-15.562609">
        <ele>1804.30</ele>
        <time>2018-02-17T10:09:57Z</time>
      </trkpt>
      <trkpt lat="27.970489" lon="-15.562688">
        <ele>1804.17</ele>
        <time>2018-02-17T10:10:00Z</time>
      </trkpt>
      <trkpt lat="27.970507" lon="-15.562718">
        <ele>1803.21</ele>
        <time>2018-02-17T10:10:01Z</time>
      </trkpt>
      <trkpt lat="27.970527" lon="-15.562782">
        <ele>1802.56</ele>
        <time>2018-02-17T10:10:03Z</time>
      </trkpt>
      <trkpt lat="27.970533" lon="-15.562813">
        <ele>1803.79</ele>
        <time>2018-02-17T10:10:04Z</time>
      </trkpt>
      <trkpt lat="27.970535" lon="-15.562838">
        <ele>1802.06</ele>
        <time>2018-02-17T10:10:05Z</time>
      </trkpt>
      <trkpt lat="27.970530" lon="-15.562941">
        <ele>1802.00</ele>
        <time>2018-02-17T10:10:09Z</time>
      </trkpt>
      <trkpt lat="27.970531" lon="-15.562964">
        <ele>1803.10</ele>
        <time>2018-02-17T10:10:10Z</time>
      </trkpt>
      <trkpt lat="27.970531" lon="-15.562990">
        <ele>1803.14</ele>
        <time>2018-02-17T10:10:11Z</time>
      </trkpt>
      <trkpt lat="27.970526" lon="-15.563011">
        <ele>1803.66</ele>
        <time>2018-02-17T10:10:12Z</time>
      </trkpt>
      <trkpt lat="27.970517" lon="-15.563056">
        <ele>1804.62</ele>
        <time>2018-02-17T10:10:14Z</time>
      </trkpt>
      <trkpt lat="27.970517" lon="-15.563077">
        <ele>1804.96</ele>
        <time>2018-02-17T10:10:15Z</time>
      </trkpt>
      <trkpt lat="27.970519" lon="-15.563116">
        <ele>1806.60</ele>
        <time>2018-02-17T10:10:17Z</time>
      </trkpt>
      <trkpt lat="27.970524" lon="-15.563142">
        <ele>1806.61</ele>
        <time>2018-02-17T10:10:18Z</time>
      </trkpt>
      <trkpt lat="27.970526" lon="-15.563174">
        <ele>1806.80</ele>
        <time>2018-02-17T10:10:19Z</time>
      </trkpt>
      <trkpt lat="27.970526" lon="-15.563207">
        <ele>1806.82</ele>
        <time>2018-02-17T10:10:20Z</time>
      </trkpt>
      <trkpt lat="27.970529" lon="-15.563233">
        <ele>1807.20</ele>
        <time>2018-02-17T10:10:21Z</time>
      </trkpt>
      <trkpt lat="27.970530" lon="-15.563262">
        <ele>1807.22</ele>
        <time>2018-02-17T10:10:22Z</time>
      </trkpt>
      <trkpt lat="27.970534" lon="-15.563290">
        <ele>1807.61</ele>
        <time>2018-02-17T10:10:23Z</time>
      </trkpt>
      <trkpt lat="27.970543" lon="-15.563315">
        <ele>1807.93</ele>
        <time>2018-02-17T10:10:24Z</time>
      </trkpt>
      <trkpt lat="27.970554" lon="-15.563343">
        <ele>1808.50</ele>
        <time>2018-02-17T10:10:25Z</time>
      </trkpt>
      <trkpt lat="27.970566" lon="-15.563376">
        <ele>1808.48</ele>
        <time>2018-02-17T10:10:26Z</time>
      </trkpt>
      <trkpt lat="27.970580" lon="-15.563414">
        <ele>1807.90</ele>
        <time>2018-02-17T10:10:27Z</time>
      </trkpt>
      <trkpt lat="27.970594" lon="-15.563446">
        <ele>1807.90</ele>
        <time>2018-02-17T10:10:28Z</time>
      </trkpt>
      <trkpt lat="27.970606" lon="-15.563476">
        <ele>1807.89</ele>
        <time>2018-02-17T10:10:29Z</time>
      </trkpt>
      <trkpt lat="27.970619" lon="-15.563510">
        <ele>1807.57</ele>
        <time>2018-02-17T10:10:30Z</time>
      </trkpt>
      <trkpt lat="27.970624" lon="-15.563544">
        <ele>1806.60</ele>
        <time>2018-02-17T10:10:31Z</time>
      </trkpt>
      <trkpt lat="27.970636" lon="-15.563573">
        <ele>1806.48</ele>
        <time>2018-02-17T10:10:32Z</time>
      </trkpt>
      <trkpt lat="27.970648" lon="-15.563605">
        <ele>1805.90</ele>
        <time>2018-02-17T10:10:33Z</time>
      </trkpt>
      <trkpt lat="27.970662" lon="-15.563636">
        <ele>1805.90</ele>
        <time>2018-02-17T10:10:34Z</time>
      </trkpt>
      <trkpt lat="27.970680" lon="-15.563667">
        <ele>1805.90</ele>
        <time>2018-02-17T10:10:35Z</time>
      </trkpt>
      <trkpt lat="27.970701" lon="-15.563700">
        <ele>1805.90</ele>
        <time>2018-02-17T10:10:36Z</time>
      </trkpt>
      <trkpt lat="27.970722" lon="-15.563729">
        <ele>1805.91</ele>
        <time>2018-02-17T10:10:37Z</time>
      </trkpt>
      <trkpt lat="27.970737" lon="-15.563748">
        <ele>1806.27</ele>
        <time>2018-02-17T10:10:38Z</time>
      </trkpt>
      <trkpt lat="27.970754" lon="-15.563775">
        <ele>1804.51</ele>
        <time>2018-02-17T10:10:39Z</time>
      </trkpt>
      <trkpt lat="27.970765" lon="-15.563794">
        <ele>1805.09</ele>
        <time>2018-02-17T10:10:40Z</time>
      </trkpt>
      <trkpt lat="27.970777" lon="-15.563820">
        <ele>1804.51</ele>
        <time>2018-02-17T10:10:41Z</time>
      </trkpt>
      <trkpt lat="27.970792" lon="-15.563850">
        <ele>1805.10</ele>
        <time>2018-02-17T10:10:42Z</time>
      </trkpt>
      <trkpt lat="27.970808" lon="-15.563879">
        <ele>1805.10</ele>
        <time>2018-02-17T10:10:43Z</time>
      </trkpt>
      <trkpt lat="27.970828" lon="-15.563906">
        <ele>1805.10</ele>
        <time>2018-02-17T10:10:44Z</time>
      </trkpt>
      <trkpt lat="27.970875" lon="-15.563982">
        <ele>1805.10</ele>
        <time>2018-02-17T10:10:47Z</time>
      </trkpt>
      <trkpt lat="27.970888" lon="-15.564010">
        <ele>1805.10</ele>
        <time>2018-02-17T10:10:48Z</time>
      </trkpt>
      <trkpt lat="27.970901" lon="-15.564038">
        <ele>1805.10</ele>
        <time>2018-02-17T10:10:49Z</time>
      </trkpt>
      <trkpt lat="27.970916" lon="-15.564067">
        <ele>1803.21</ele>
        <time>2018-02-17T10:10:50Z</time>
      </trkpt>
      <trkpt lat="27.970944" lon="-15.564119">
        <ele>1803.62</ele>
        <time>2018-02-17T10:10:52Z</time>
      </trkpt>
      <trkpt lat="27.970954" lon="-15.564150">
        <ele>1805.48</ele>
        <time>2018-02-17T10:10:53Z</time>
      </trkpt>
      <trkpt lat="27.970973" lon="-15.564180">
        <ele>1803.92</ele>
        <time>2018-02-17T10:10:54Z</time>
      </trkpt>
      <trkpt lat="27.970988" lon="-15.564204">
        <ele>1804.49</ele>
        <time>2018-02-17T10:10:55Z</time>
      </trkpt>
      <trkpt lat="27.971004" lon="-15.564231">
        <ele>1803.91</ele>
        <time>2018-02-17T10:10:56Z</time>
      </trkpt>
      <trkpt lat="27.971068" lon="-15.564330">
        <ele>1803.90</ele>
        <time>2018-02-17T10:11:00Z</time>
      </trkpt>
      <trkpt lat="27.971124" lon="-15.564450">
        <ele>1803.21</ele>
        <time>2018-02-17T10:11:04Z</time>
      </trkpt>
      <trkpt lat="27.971150" lon="-15.564539">
        <ele>1803.20</ele>
        <time>2018-02-17T10:11:07Z</time>
      </trkpt>
      <trkpt lat="27.971156" lon="-15.564574">
        <ele>1803.20</ele>
        <time>2018-02-17T10:11:08Z</time>
      </trkpt>
      <trkpt lat="27.971174" lon="-15.564602">
        <ele>1803.20</ele>
        <time>2018-02-17T10:11:09Z</time>
      </trkpt>
      <trkpt lat="27.971196" lon="-15.564627">
        <ele>1803.20</ele>
        <time>2018-02-17T10:11:10Z</time>
      </trkpt>
      <trkpt lat="27.971220" lon="-15.564651">
        <ele>1803.59</ele>
        <time>2018-02-17T10:11:11Z</time>
      </trkpt>
      <trkpt lat="27.971309" lon="-15.564706">
        <ele>1801.57</ele>
        <time>2018-02-17T10:11:14Z</time>
      </trkpt>
      <trkpt lat="27.971368" lon="-15.564730">
        <ele>1801.80</ele>
        <time>2018-02-17T10:11:16Z</time>
      </trkpt>
      <trkpt lat="27.971392" lon="-15.564749">
        <ele>1801.80</ele>
        <time>2018-02-17T10:11:17Z</time>
      </trkpt>
      <trkpt lat="27.971445" lon="-15.564860">
        <ele>1801.41</ele>
        <time>2018-02-17T10:11:21Z</time>
      </trkpt>
      <trkpt lat="27.971491" lon="-15.564961">
        <ele>1799.46</ele>
        <time>2018-02-17T10:11:24Z</time>
      </trkpt>
      <trkpt lat="27.971516" lon="-15.565018">
        <ele>1798.60</ele>
        <time>2018-02-17T10:11:26Z</time>
      </trkpt>
      <trkpt lat="27.971533" lon="-15.565051">
        <ele>1797.57</ele>
        <time>2018-02-17T10:11:27Z</time>
      </trkpt>
      <trkpt lat="27.971551" lon="-15.565089">
        <ele>1797.50</ele>
        <time>2018-02-17T10:11:28Z</time>
      </trkpt>
      <trkpt lat="27.971572" lon="-15.565122">
        <ele>1796.66</ele>
        <time>2018-02-17T10:11:29Z</time>
      </trkpt>
      <trkpt lat="27.971599" lon="-15.565146">
        <ele>1796.32</ele>
        <time>2018-02-17T10:11:30Z</time>
      </trkpt>
      <trkpt lat="27.971623" lon="-15.565166">
        <ele>1795.18</ele>
        <time>2018-02-17T10:11:31Z</time>
      </trkpt>
      <trkpt lat="27.971648" lon="-15.565185">
        <ele>1794.91</ele>
        <time>2018-02-17T10:11:32Z</time>
      </trkpt>
      <trkpt lat="27.971673" lon="-15.565206">
        <ele>1794.44</ele>
        <time>2018-02-17T10:11:33Z</time>
      </trkpt>
      <trkpt lat="27.971703" lon="-15.565228">
        <ele>1793.57</ele>
        <time>2018-02-17T10:11:34Z</time>
      </trkpt>
      <trkpt lat="27.971727" lon="-15.565249">
        <ele>1793.41</ele>
        <time>2018-02-17T10:11:35Z</time>
      </trkpt>
      <trkpt lat="27.971755" lon="-15.565267">
        <ele>1793.12</ele>
        <time>2018-02-17T10:11:36Z</time>
      </trkpt>
      <trkpt lat="27.971781" lon="-15.565294">
        <ele>1793.10</ele>
        <time>2018-02-17T10:11:37Z</time>
      </trkpt>
      <trkpt lat="27.971803" lon="-15.565320">
        <ele>1791.90</ele>
        <time>2018-02-17T10:11:38Z</time>
      </trkpt>
      <trkpt lat="27.971872" lon="-15.565410">
        <ele>1791.04</ele>
        <time>2018-02-17T10:11:42Z</time>
      </trkpt>
      <trkpt lat="27.971882" lon="-15.565457">
        <ele>1790.63</ele>
        <time>2018-02-17T10:11:44Z</time>
      </trkpt>
      <trkpt lat="27.971884" lon="-15.565486">
        <ele>1790.60</ele>
        <time>2018-02-17T10:11:45Z</time>
      </trkpt>
      <trkpt lat="27.971889" lon="-15.565510">
        <ele>1790.60</ele>
        <time>2018-02-17T10:11:46Z</time>
      </trkpt>
      <trkpt lat="27.971920" lon="-15.565556">
        <ele>1790.15</ele>
        <time>2018-02-17T10:11:48Z</time>
      </trkpt>
      <trkpt lat="27.971945" lon="-15.565581">
        <ele>1789.29</ele>
        <time>2018-02-17T10:11:49Z</time>
      </trkpt>
      <trkpt lat="27.971974" lon="-15.565603">
        <ele>1789.20</ele>
        <time>2018-02-17T10:11:50Z</time>
      </trkpt>
      <trkpt lat="27.971996" lon="-15.565621">
        <ele>1789.02</ele>
        <time>2018-02-17T10:11:51Z</time>
      </trkpt>
      <trkpt lat="27.972018" lon="-15.565638">
        <ele>1788.82</ele>
        <time>2018-02-17T10:11:52Z</time>
      </trkpt>
      <trkpt lat="27.972057" lon="-15.565693">
        <ele>1786.64</ele>
        <time>2018-02-17T10:11:54Z</time>
      </trkpt>
      <trkpt lat="27.972074" lon="-15.565728">
        <ele>1786.60</ele>
        <time>2018-02-17T10:11:55Z</time>
      </trkpt>
      <trkpt lat="27.972097" lon="-15.565790">
        <ele>1786.51</ele>
        <time>2018-02-17T10:11:57Z</time>
      </trkpt>
      <trkpt lat="27.972104" lon="-15.565823">
        <ele>1786.05</ele>
        <time>2018-02-17T10:11:58Z</time>
      </trkpt>
      <trkpt lat="27.972121" lon="-15.565882">
        <ele>1786.00</ele>
        <time>2018-02-17T10:12:00Z</time>
      </trkpt>
      <trkpt lat="27.972129" lon="-15.565912">
        <ele>1786.00</ele>
        <time>2018-02-17T10:12:01Z</time>
      </trkpt>
      <trkpt lat="27.972139" lon="-15.565941">
        <ele>1786.00</ele>
        <time>2018-02-17T10:12:02Z</time>
      </trkpt>
      <trkpt lat="27.972148" lon="-15.565972">
        <ele>1786.00</ele>
        <time>2018-02-17T10:12:03Z</time>
      </trkpt>
      <trkpt lat="27.972161" lon="-15.566010">
        <ele>1786.00</ele>
        <time>2018-02-17T10:12:04Z</time>
      </trkpt>
      <trkpt lat="27.972176" lon="-15.566043">
        <ele>1786.27</ele>
        <time>2018-02-17T10:12:05Z</time>
      </trkpt>
      <trkpt lat="27.972189" lon="-15.566072">
        <ele>1784.70</ele>
        <time>2018-02-17T10:12:06Z</time>
      </trkpt>
      <trkpt lat="27.972203" lon="-15.566102">
        <ele>1785.03</ele>
        <time>2018-02-17T10:12:07Z</time>
      </trkpt>
      <trkpt lat="27.972217" lon="-15.566132">
        <ele>1784.13</ele>
        <time>2018-02-17T10:12:08Z</time>
      </trkpt>
      <trkpt lat="27.972227" lon="-15.566163">
        <ele>1783.73</ele>
        <time>2018-02-17T10:12:09Z</time>
      </trkpt>
      <trkpt lat="27.972235" lon="-15.566192">
        <ele>1783.52</ele>
        <time>2018-02-17T10:12:10Z</time>
      </trkpt>
      <trkpt lat="27.972237" lon="-15.566223">
        <ele>1783.41</ele>
        <time>2018-02-17T10:12:11Z</time>
      </trkpt>
      <trkpt lat="27.972240" lon="-15.566255">
        <ele>1783.31</ele>
        <time>2018-02-17T10:12:12Z</time>
      </trkpt>
      <trkpt lat="27.972245" lon="-15.566289">
        <ele>1782.32</ele>
        <time>2018-02-17T10:12:13Z</time>
      </trkpt>
      <trkpt lat="27.972252" lon="-15.566324">
        <ele>1781.40</ele>
        <time>2018-02-17T10:12:14Z</time>
      </trkpt>
      <trkpt lat="27.972261" lon="-15.566358">
        <ele>1781.12</ele>
        <time>2018-02-17T10:12:15Z</time>
      </trkpt>
      <trkpt lat="27.972273" lon="-15.566392">
        <ele>1781.10</ele>
        <time>2018-02-17T10:12:16Z</time>
      </trkpt>
      <trkpt lat="27.972287" lon="-15.566424">
        <ele>1781.10</ele>
        <time>2018-02-17T10:12:17Z</time>
      </trkpt>
      <trkpt lat="27.972296" lon="-15.566462">
        <ele>1780.48</ele>
        <time>2018-02-17T10:12:18Z</time>
      </trkpt>
      <trkpt lat="27.972307" lon="-15.566494">
        <ele>1780.40</ele>
        <time>2018-02-17T10:12:19Z</time>
      </trkpt>
      <trkpt lat="27.972320" lon="-15.566525">
        <ele>1779.07</ele>
        <time>2018-02-17T10:12:20Z</time>
      </trkpt>
      <trkpt lat="27.972338" lon="-15.566552">
        <ele>1778.90</ele>
        <time>2018-02-17T10:12:21Z</time>
      </trkpt>
      <trkpt lat="27.972357" lon="-15.566581">
        <ele>1778.55</ele>
        <time>2018-02-17T10:12:22Z</time>
      </trkpt>
      <trkpt lat="27.972378" lon="-15.566603">
        <ele>1777.53</ele>
        <time>2018-02-17T10:12:23Z</time>
      </trkpt>
      <trkpt lat="27.972400" lon="-15.566622">
        <ele>1777.40</ele>
        <time>2018-02-17T10:12:24Z</time>
      </trkpt>
      <trkpt lat="27.972422" lon="-15.566640">
        <ele>1777.05</ele>
        <time>2018-02-17T10:12:25Z</time>
      </trkpt>
      <trkpt lat="27.972440" lon="-15.566655">
        <ele>1777.00</ele>
        <time>2018-02-17T10:12:26Z</time>
      </trkpt>
      <trkpt lat="27.972461" lon="-15.566676">
        <ele>1777.00</ele>
        <time>2018-02-17T10:12:27Z</time>
      </trkpt>
      <trkpt lat="27.972483" lon="-15.566704">
        <ele>1776.82</ele>
        <time>2018-02-17T10:12:28Z</time>
      </trkpt>
      <trkpt lat="27.972506" lon="-15.566735">
        <ele>1776.80</ele>
        <time>2018-02-17T10:12:29Z</time>
      </trkpt>
      <trkpt lat="27.972531" lon="-15.566767">
        <ele>1776.36</ele>
        <time>2018-02-17T10:12:30Z</time>
      </trkpt>
      <trkpt lat="27.972558" lon="-15.566791">
        <ele>1775.86</ele>
        <time>2018-02-17T10:12:31Z</time>
      </trkpt>
      <trkpt lat="27.972586" lon="-15.566812">
        <ele>1775.71</ele>
        <time>2018-02-17T10:12:32Z</time>
      </trkpt>
      <trkpt lat="27.972613" lon="-15.566835">
        <ele>1775.52</ele>
        <time>2018-02-17T10:12:33Z</time>
      </trkpt>
      <trkpt lat="27.972637" lon="-15.566858">
        <ele>1774.88</ele>
        <time>2018-02-17T10:12:34Z</time>
      </trkpt>
      <trkpt lat="27.972663" lon="-15.566882">
        <ele>1774.01</ele>
        <time>2018-02-17T10:12:35Z</time>
      </trkpt>
      <trkpt lat="27.972686" lon="-15.566909">
        <ele>1773.90</ele>
        <time>2018-02-17T10:12:36Z</time>
      </trkpt>
      <trkpt lat="27.972708" lon="-15.566940">
        <ele>1773.46</ele>
        <time>2018-02-17T10:12:37Z</time>
      </trkpt>
      <trkpt lat="27.972732" lon="-15.566965">
        <ele>1772.53</ele>
        <time>2018-02-17T10:12:38Z</time>
      </trkpt>
      <trkpt lat="27.972755" lon="-15.566991">
        <ele>1772.14</ele>
        <time>2018-02-17T10:12:39Z</time>
      </trkpt>
      <trkpt lat="27.972781" lon="-15.567010">
        <ele>1771.05</ele>
        <time>2018-02-17T10:12:40Z</time>
      </trkpt>
      <trkpt lat="27.972809" lon="-15.567027">
        <ele>1770.55</ele>
        <time>2018-02-17T10:12:41Z</time>
      </trkpt>
      <trkpt lat="27.972835" lon="-15.567045">
        <ele>1770.50</ele>
        <time>2018-02-17T10:12:42Z</time>
      </trkpt>
      <trkpt lat="27.972862" lon="-15.567062">
        <ele>1770.41</ele>
        <time>2018-02-17T10:12:43Z</time>
      </trkpt>
      <trkpt lat="27.972888" lon="-15.567079">
        <ele>1770.40</ele>
        <time>2018-02-17T10:12:44Z</time>
      </trkpt>
      <trkpt lat="27.972917" lon="-15.567095">
        <ele>1769.11</ele>
        <time>2018-02-17T10:12:45Z</time>
      </trkpt>
      <trkpt lat="27.972942" lon="-15.567116">
        <ele>1768.81</ele>
        <time>2018-02-17T10:12:46Z</time>
      </trkpt>
      <trkpt lat="27.972962" lon="-15.567139">
        <ele>1768.54</ele>
        <time>2018-02-17T10:12:47Z</time>
      </trkpt>
      <trkpt lat="27.972974" lon="-15.567163">
        <ele>1768.50</ele>
        <time>2018-02-17T10:12:48Z</time>
      </trkpt>
      <trkpt lat="27.972977" lon="-15.567188">
        <ele>1768.07</ele>
        <time>2018-02-17T10:12:49Z</time>
      </trkpt>
      <trkpt lat="27.972982" lon="-15.567215">
        <ele>1767.32</ele>
        <time>2018-02-17T10:12:50Z</time>
      </trkpt>
      <trkpt lat="27.972985" lon="-15.567242">
        <ele>1767.03</ele>
        <time>2018-02-17T10:12:51Z</time>
      </trkpt>
      <trkpt lat="27.972984" lon="-15.567267">
        <ele>1766.58</ele>
        <time>2018-02-17T10:12:52Z</time>
      </trkpt>
      <trkpt lat="27.972980" lon="-15.567296">
        <ele>1766.50</ele>
        <time>2018-02-17T10:12:53Z</time>
      </trkpt>
      <trkpt lat="27.972964" lon="-15.567316">
        <ele>1766.42</ele>
        <time>2018-02-17T10:12:54Z</time>
      </trkpt>
      <trkpt lat="27.972944" lon="-15.567333">
        <ele>1765.32</ele>
        <time>2018-02-17T10:12:55Z</time>
      </trkpt>
      <trkpt lat="27.972923" lon="-15.567343">
        <ele>1764.68</ele>
        <time>2018-02-17T10:12:56Z</time>
      </trkpt>
      <trkpt lat="27.972902" lon="-15.567348">
        <ele>1764.10</ele>
        <time>2018-02-17T10:12:57Z</time>
      </trkpt>
      <trkpt lat="27.972879" lon="-15.567354">
        <ele>1763.75</ele>
        <time>2018-02-17T10:12:58Z</time>
      </trkpt>
      <trkpt lat="27.972855" lon="-15.567359">
        <ele>1763.70</ele>
        <time>2018-02-17T10:12:59Z</time>
      </trkpt>
      <trkpt lat="27.972827" lon="-15.567366">
        <ele>1763.70</ele>
        <time>2018-02-17T10:13:00Z</time>
      </trkpt>
      <trkpt lat="27.972794" lon="-15.567376">
        <ele>1763.54</ele>
        <time>2018-02-17T10:13:01Z</time>
      </trkpt>
      <trkpt lat="27.972761" lon="-15.567386">
        <ele>1763.42</ele>
        <time>2018-02-17T10:13:02Z</time>
      </trkpt>
      <trkpt lat="27.972726" lon="-15.567392">
        <ele>1762.75</ele>
        <time>2018-02-17T10:13:03Z</time>
      </trkpt>
      <trkpt lat="27.972694" lon="-15.567389">
        <ele>1762.60</ele>
        <time>2018-02-17T10:13:04Z</time>
      </trkpt>
      <trkpt lat="27.972656" lon="-15.567392">
        <ele>1762.60</ele>
        <time>2018-02-17T10:13:05Z</time>
      </trkpt>
      <trkpt lat="27.972625" lon="-15.567392">
        <ele>1762.60</ele>
        <time>2018-02-17T10:13:06Z</time>
      </trkpt>
      <trkpt lat="27.972596" lon="-15.567394">
        <ele>1761.79</ele>
        <time>2018-02-17T10:13:07Z</time>
      </trkpt>
      <trkpt lat="27.972569" lon="-15.567400">
        <ele>1761.28</ele>
        <time>2018-02-17T10:13:08Z</time>
      </trkpt>
      <trkpt lat="27.972536" lon="-15.567408">
        <ele>1760.72</ele>
        <time>2018-02-17T10:13:09Z</time>
      </trkpt>
      <trkpt lat="27.972508" lon="-15.567419">
        <ele>1759.64</ele>
        <time>2018-02-17T10:13:10Z</time>
      </trkpt>
      <trkpt lat="27.972486" lon="-15.567438">
        <ele>1759.40</ele>
        <time>2018-02-17T10:13:11Z</time>
      </trkpt>
      <trkpt lat="27.972464" lon="-15.567458">
        <ele>1759.24</ele>
        <time>2018-02-17T10:13:12Z</time>
      </trkpt>
      <trkpt lat="27.972423" lon="-15.567500">
        <ele>1759.20</ele>
        <time>2018-02-17T10:13:14Z</time>
      </trkpt>
      <trkpt lat="27.972403" lon="-15.567514">
        <ele>1759.20</ele>
        <time>2018-02-17T10:13:15Z</time>
      </trkpt>
      <trkpt lat="27.972383" lon="-15.567526">
        <ele>1759.20</ele>
        <time>2018-02-17T10:13:16Z</time>
      </trkpt>
      <trkpt lat="27.972360" lon="-15.567537">
        <ele>1759.52</ele>
        <time>2018-02-17T10:13:17Z</time>
      </trkpt>
      <trkpt lat="27.972334" lon="-15.567554">
        <ele>1758.73</ele>
        <time>2018-02-17T10:13:18Z</time>
      </trkpt>
      <trkpt lat="27.972250" lon="-15.567637">
        <ele>1759.36</ele>
        <time>2018-02-17T10:13:23Z</time>
      </trkpt>
      <trkpt lat="27.972183" lon="-15.567754">
        <ele>1758.90</ele>
        <time>2018-02-17T10:13:27Z</time>
      </trkpt>
      <trkpt lat="27.972164" lon="-15.567875">
        <ele>1758.90</ele>
        <time>2018-02-17T10:13:30Z</time>
      </trkpt>
      <trkpt lat="27.972147" lon="-15.567976">
        <ele>1758.59</ele>
        <time>2018-02-17T10:13:33Z</time>
      </trkpt>
      <trkpt lat="27.972103" lon="-15.568072">
        <ele>1757.72</ele>
        <time>2018-02-17T10:13:37Z</time>
      </trkpt>
      <trkpt lat="27.972120" lon="-15.568197">
        <ele>1757.72</ele>
        <time>2018-02-17T10:13:41Z</time>
      </trkpt>
      <trkpt lat="27.972135" lon="-15.568328">
        <ele>1757.00</ele>
        <time>2018-02-17T10:13:45Z</time>
      </trkpt>
      <trkpt lat="27.972146" lon="-15.568447">
        <ele>1756.02</ele>
        <time>2018-02-17T10:13:48Z</time>
      </trkpt>
      <trkpt lat="27.972138" lon="-15.568563">
        <ele>1754.60</ele>
        <time>2018-02-17T10:13:51Z</time>
      </trkpt>
      <trkpt lat="27.972140" lon="-15.568699">
        <ele>1753.20</ele>
        <time>2018-02-17T10:13:55Z</time>
      </trkpt>
      <trkpt lat="27.972152" lon="-15.568800">
        <ele>1752.28</ele>
        <time>2018-02-17T10:13:58Z</time>
      </trkpt>
      <trkpt lat="27.972152" lon="-15.568927">
        <ele>1751.52</ele>
        <time>2018-02-17T10:14:02Z</time>
      </trkpt>
      <trkpt lat="27.972151" lon="-15.568959">
        <ele>1751.35</ele>
        <time>2018-02-17T10:14:03Z</time>
      </trkpt>
      <trkpt lat="27.972148" lon="-15.568986">
        <ele>1751.30</ele>
        <time>2018-02-17T10:14:04Z</time>
      </trkpt>
      <trkpt lat="27.972145" lon="-15.569018">
        <ele>1751.30</ele>
        <time>2018-02-17T10:14:05Z</time>
      </trkpt>
      <trkpt lat="27.972135" lon="-15.569051">
        <ele>1751.30</ele>
        <time>2018-02-17T10:14:06Z</time>
      </trkpt>
      <trkpt lat="27.972122" lon="-15.569073">
        <ele>1751.30</ele>
        <time>2018-02-17T10:14:07Z</time>
      </trkpt>
      <trkpt lat="27.972109" lon="-15.569093">
        <ele>1750.63</ele>
        <time>2018-02-17T10:14:08Z</time>
      </trkpt>
      <trkpt lat="27.972090" lon="-15.569109">
        <ele>1751.06</ele>
        <time>2018-02-17T10:14:09Z</time>
      </trkpt>
      <trkpt lat="27.972070" lon="-15.569126">
        <ele>1750.86</ele>
        <time>2018-02-17T10:14:10Z</time>
      </trkpt>
      <trkpt lat="27.972058" lon="-15.569142">
        <ele>1751.07</ele>
        <time>2018-02-17T10:14:11Z</time>
      </trkpt>
      <trkpt lat="27.972045" lon="-15.569162">
        <ele>1751.20</ele>
        <time>2018-02-17T10:14:12Z</time>
      </trkpt>
      <trkpt lat="27.972034" lon="-15.569179">
        <ele>1751.20</ele>
        <time>2018-02-17T10:14:13Z</time>
      </trkpt>
      <trkpt lat="27.972020" lon="-15.569196">
        <ele>1750.84</ele>
        <time>2018-02-17T10:14:14Z</time>
      </trkpt>
      <trkpt lat="27.971974" lon="-15.569265">
        <ele>1748.78</ele>
        <time>2018-02-17T10:14:18Z</time>
      </trkpt>
      <trkpt lat="27.971972" lon="-15.569296">
        <ele>1747.74</ele>
        <time>2018-02-17T10:14:20Z</time>
      </trkpt>
      <trkpt lat="27.971977" lon="-15.569323">
        <ele>1746.70</ele>
        <time>2018-02-17T10:14:22Z</time>
      </trkpt>
      <trkpt lat="27.971982" lon="-15.569351">
        <ele>1745.80</ele>
        <time>2018-02-17T10:14:24Z</time>
      </trkpt>
      <trkpt lat="27.971979" lon="-15.569374">
        <ele>1745.10</ele>
        <time>2018-02-17T10:14:26Z</time>
      </trkpt>
      <trkpt lat="27.971967" lon="-15.569417">
        <ele>1744.48</ele>
        <time>2018-02-17T10:14:29Z</time>
      </trkpt>
      <trkpt lat="27.971961" lon="-15.569441">
        <ele>1743.95</ele>
        <time>2018-02-17T10:14:30Z</time>
      </trkpt>
      <trkpt lat="27.971945" lon="-15.569470">
        <ele>1742.55</ele>
        <time>2018-02-17T10:14:31Z</time>
      </trkpt>
      <trkpt lat="27.971933" lon="-15.569497">
        <ele>1742.00</ele>
        <time>2018-02-17T10:14:32Z</time>
      </trkpt>
      <trkpt lat="27.971928" lon="-15.569524">
        <ele>1741.72</ele>
        <time>2018-02-17T10:14:33Z</time>
      </trkpt>
      <trkpt lat="27.971964" lon="-15.569641">
        <ele>1738.80</ele>
        <time>2018-02-17T10:14:40Z</time>
      </trkpt>
      <trkpt lat="27.971971" lon="-15.569742">
        <ele>1739.04</ele>
        <time>2018-02-17T10:14:44Z</time>
      </trkpt>
      <trkpt lat="27.971939" lon="-15.569852">
        <ele>1739.58</ele>
        <time>2018-02-17T10:14:49Z</time>
      </trkpt>
      <trkpt lat="27.971890" lon="-15.569947">
        <ele>1741.20</ele>
        <time>2018-02-17T10:14:57Z</time>
      </trkpt>
      <trkpt lat="27.971862" lon="-15.569962">
        <ele>1742.20</ele>
        <time>2018-02-17T10:15:00Z</time>
      </trkpt>
      <trkpt lat="27.971841" lon="-15.569981">
        <ele>1742.67</ele>
        <time>2018-02-17T10:15:02Z</time>
      </trkpt>
      <trkpt lat="27.971766" lon="-15.570042">
        <ele>1745.10</ele>
        <time>2018-02-17T10:15:09Z</time>
      </trkpt>
      <trkpt lat="27.971729" lon="-15.570071">
        <ele>1746.54</ele>
        <time>2018-02-17T10:15:12Z</time>
      </trkpt>
      <trkpt lat="27.971688" lon="-15.570094">
        <ele>1746.97</ele>
        <time>2018-02-17T10:15:16Z</time>
      </trkpt>
      <trkpt lat="27.971667" lon="-15.570110">
        <ele>1747.80</ele>
        <time>2018-02-17T10:15:18Z</time>
      </trkpt>
      <trkpt lat="27.971647" lon="-15.570124">
        <ele>1747.80</ele>
        <time>2018-02-17T10:15:20Z</time>
      </trkpt>
      <trkpt lat="27.971626" lon="-15.570147">
        <ele>1747.87</ele>
        <time>2018-02-17T10:15:22Z</time>
      </trkpt>
      <trkpt lat="27.971615" lon="-15.570170">
        <ele>1747.90</ele>
        <time>2018-02-17T10:15:24Z</time>
      </trkpt>
      <trkpt lat="27.971596" lon="-15.570193">
        <ele>1748.70</ele>
        <time>2018-02-17T10:15:26Z</time>
      </trkpt>
      <trkpt lat="27.971536" lon="-15.570242">
        <ele>1749.53</ele>
        <time>2018-02-17T10:15:33Z</time>
      </trkpt>
      <trkpt lat="27.971499" lon="-15.570300">
        <ele>1750.58</ele>
        <time>2018-02-17T10:15:40Z</time>
      </trkpt>
      <trkpt lat="27.971488" lon="-15.570317">
        <ele>1750.82</ele>
        <time>2018-02-17T10:15:41Z</time>
      </trkpt>
      <trkpt lat="27.971466" lon="-15.570337">
        <ele>1751.30</ele>
        <time>2018-02-17T10:15:43Z</time>
      </trkpt>
      <trkpt lat="27.971445" lon="-15.570349">
        <ele>1751.52</ele>
        <time>2018-02-17T10:15:45Z</time>
      </trkpt>
      <trkpt lat="27.971424" lon="-15.570369">
        <ele>1751.80</ele>
        <time>2018-02-17T10:15:47Z</time>
      </trkpt>
      <trkpt lat="27.971372" lon="-15.570452">
        <ele>1752.06</ele>
        <time>2018-02-17T10:15:54Z</time>
      </trkpt>
      <trkpt lat="27.971403" lon="-15.570561">
        <ele>1750.94</ele>
        <time>2018-02-17T10:16:01Z</time>
      </trkpt>
      <trkpt lat="27.971457" lon="-15.570656">
        <ele>1750.32</ele>
        <time>2018-02-17T10:16:06Z</time>
      </trkpt>
      <trkpt lat="27.971468" lon="-15.570676">
        <ele>1750.40</ele>
        <time>2018-02-17T10:16:07Z</time>
      </trkpt>
      <trkpt lat="27.971480" lon="-15.570694">
        <ele>1750.80</ele>
        <time>2018-02-17T10:16:08Z</time>
      </trkpt>
      <trkpt lat="27.971495" lon="-15.570712">
        <ele>1751.16</ele>
        <time>2018-02-17T10:16:09Z</time>
      </trkpt>
      <trkpt lat="27.971502" lon="-15.570735">
        <ele>1751.71</ele>
        <time>2018-02-17T10:16:10Z</time>
      </trkpt>
      <trkpt lat="27.971518" lon="-15.570766">
        <ele>1752.10</ele>
        <time>2018-02-17T10:16:12Z</time>
      </trkpt>
      <trkpt lat="27.971573" lon="-15.570813">
        <ele>1751.41</ele>
        <time>2018-02-17T10:16:20Z</time>
      </trkpt>
      <trkpt lat="27.971578" lon="-15.570834">
        <ele>1751.70</ele>
        <time>2018-02-17T10:16:25Z</time>
      </trkpt>
      <trkpt lat="27.971644" lon="-15.570913">
        <ele>1752.29</ele>
        <time>2018-02-17T10:16:31Z</time>
      </trkpt>
      <trkpt lat="27.971703" lon="-15.571005">
        <ele>1752.70</ele>
        <time>2018-02-17T10:16:37Z</time>
      </trkpt>
      <trkpt lat="27.971729" lon="-15.571044">
        <ele>1753.04</ele>
        <time>2018-02-17T10:16:40Z</time>
      </trkpt>
      <trkpt lat="27.971741" lon="-15.571069">
        <ele>1753.24</ele>
        <time>2018-02-17T10:16:42Z</time>
      </trkpt>
      <trkpt lat="27.971756" lon="-15.571103">
        <ele>1753.32</ele>
        <time>2018-02-17T10:16:44Z</time>
      </trkpt>
      <trkpt lat="27.971768" lon="-15.571134">
        <ele>1753.20</ele>
        <time>2018-02-17T10:16:46Z</time>
      </trkpt>
      <trkpt lat="27.971779" lon="-15.571161">
        <ele>1752.90</ele>
        <time>2018-02-17T10:16:48Z</time>
      </trkpt>
      <trkpt lat="27.971786" lon="-15.571191">
        <ele>1752.90</ele>
        <time>2018-02-17T10:16:50Z</time>
      </trkpt>
      <trkpt lat="27.971797" lon="-15.571225">
        <ele>1753.34</ele>
        <time>2018-02-17T10:16:52Z</time>
      </trkpt>
      <trkpt lat="27.971807" lon="-15.571253">
        <ele>1753.52</ele>
        <time>2018-02-17T10:16:54Z</time>
      </trkpt>
      <trkpt lat="27.971810" lon="-15.571289">
        <ele>1753.74</ele>
        <time>2018-02-17T10:16:56Z</time>
      </trkpt>
      <trkpt lat="27.971822" lon="-15.571316">
        <ele>1754.04</ele>
        <time>2018-02-17T10:16:58Z</time>
      </trkpt>
      <trkpt lat="27.971823" lon="-15.571344">
        <ele>1754.10</ele>
        <time>2018-02-17T10:17:00Z</time>
      </trkpt>
      <trkpt lat="27.971831" lon="-15.571366">
        <ele>1754.36</ele>
        <time>2018-02-17T10:17:02Z</time>
      </trkpt>
      <trkpt lat="27.971842" lon="-15.571386">
        <ele>1754.37</ele>
        <time>2018-02-17T10:17:04Z</time>
      </trkpt>
      <trkpt lat="27.971854" lon="-15.571408">
        <ele>1754.43</ele>
        <time>2018-02-17T10:17:06Z</time>
      </trkpt>
      <trkpt lat="27.971866" lon="-15.571434">
        <ele>1754.19</ele>
        <time>2018-02-17T10:17:08Z</time>
      </trkpt>
      <trkpt lat="27.971879" lon="-15.571461">
        <ele>1754.00</ele>
        <time>2018-02-17T10:17:10Z</time>
      </trkpt>
      <trkpt lat="27.971890" lon="-15.571490">
        <ele>1754.07</ele>
        <time>2018-02-17T10:17:12Z</time>
      </trkpt>
      <trkpt lat="27.971907" lon="-15.571512">
        <ele>1754.23</ele>
        <time>2018-02-17T10:17:14Z</time>
      </trkpt>
      <trkpt lat="27.971911" lon="-15.571532">
        <ele>1754.33</ele>
        <time>2018-02-17T10:17:16Z</time>
      </trkpt>
      <trkpt lat="27.971912" lon="-15.571557">
        <ele>1754.90</ele>
        <time>2018-02-17T10:17:18Z</time>
      </trkpt>
      <trkpt lat="27.971911" lon="-15.571585">
        <ele>1755.80</ele>
        <time>2018-02-17T10:17:20Z</time>
      </trkpt>
      <trkpt lat="27.971905" lon="-15.571607">
        <ele>1756.00</ele>
        <time>2018-02-17T10:17:22Z</time>
      </trkpt>
      <trkpt lat="27.971893" lon="-15.571634">
        <ele>1756.00</ele>
        <time>2018-02-17T10:17:24Z</time>
      </trkpt>
      <trkpt lat="27.971890" lon="-15.571655">
        <ele>1756.25</ele>
        <time>2018-02-17T10:17:26Z</time>
      </trkpt>
      <trkpt lat="27.971894" lon="-15.571683">
        <ele>1757.20</ele>
        <time>2018-02-17T10:17:29Z</time>
      </trkpt>
      <trkpt lat="27.971912" lon="-15.571703">
        <ele>1757.76</ele>
        <time>2018-02-17T10:17:32Z</time>
      </trkpt>
      <trkpt lat="27.971929" lon="-15.571713">
        <ele>1757.93</ele>
        <time>2018-02-17T10:17:34Z</time>
      </trkpt>
      <trkpt lat="27.971942" lon="-15.571729">
        <ele>1757.96</ele>
        <time>2018-02-17T10:17:36Z</time>
      </trkpt>
      <trkpt lat="27.971955" lon="-15.571749">
        <ele>1757.99</ele>
        <time>2018-02-17T10:17:38Z</time>
      </trkpt>
      <trkpt lat="27.971965" lon="-15.571773">
        <ele>1757.70</ele>
        <time>2018-02-17T10:17:40Z</time>
      </trkpt>
      <trkpt lat="27.971980" lon="-15.571795">
        <ele>1757.70</ele>
        <time>2018-02-17T10:17:42Z</time>
      </trkpt>
      <trkpt lat="27.971997" lon="-15.571820">
        <ele>1757.70</ele>
        <time>2018-02-17T10:17:44Z</time>
      </trkpt>
      <trkpt lat="27.972014" lon="-15.571844">
        <ele>1757.73</ele>
        <time>2018-02-17T10:17:46Z</time>
      </trkpt>
      <trkpt lat="27.972025" lon="-15.571876">
        <ele>1757.70</ele>
        <time>2018-02-17T10:17:49Z</time>
      </trkpt>
      <trkpt lat="27.972034" lon="-15.571894">
        <ele>1757.60</ele>
        <time>2018-02-17T10:17:50Z</time>
      </trkpt>
      <trkpt lat="27.972062" lon="-15.571903">
        <ele>1757.12</ele>
        <time>2018-02-17T10:17:52Z</time>
      </trkpt>
      <trkpt lat="27.972085" lon="-15.571913">
        <ele>1756.90</ele>
        <time>2018-02-17T10:17:54Z</time>
      </trkpt>
      <trkpt lat="27.972096" lon="-15.571933">
        <ele>1757.23</ele>
        <time>2018-02-17T10:17:56Z</time>
      </trkpt>
      <trkpt lat="27.972110" lon="-15.571950">
        <ele>1758.10</ele>
        <time>2018-02-17T10:17:58Z</time>
      </trkpt>
      <trkpt lat="27.972128" lon="-15.571962">
        <ele>1758.23</ele>
        <time>2018-02-17T10:18:00Z</time>
      </trkpt>
      <trkpt lat="27.972150" lon="-15.571980">
        <ele>1758.80</ele>
        <time>2018-02-17T10:18:03Z</time>
      </trkpt>
      <trkpt lat="27.972166" lon="-15.572001">
        <ele>1758.77</ele>
        <time>2018-02-17T10:18:05Z</time>
      </trkpt>
      <trkpt lat="27.972180" lon="-15.572017">
        <ele>1758.93</ele>
        <time>2018-02-17T10:18:07Z</time>
      </trkpt>
      <trkpt lat="27.972198" lon="-15.572030">
        <ele>1758.70</ele>
        <time>2018-02-17T10:18:09Z</time>
      </trkpt>
      <trkpt lat="27.972218" lon="-15.572044">
        <ele>1759.10</ele>
        <time>2018-02-17T10:18:11Z</time>
      </trkpt>
      <trkpt lat="27.972232" lon="-15.572057">
        <ele>1759.10</ele>
        <time>2018-02-17T10:18:13Z</time>
      </trkpt>
      <trkpt lat="27.972265" lon="-15.572065">
        <ele>1759.40</ele>
        <time>2018-02-17T10:18:15Z</time>
      </trkpt>
      <trkpt lat="27.972293" lon="-15.572078">
        <ele>1759.40</ele>
        <time>2018-02-17T10:18:17Z</time>
      </trkpt>
      <trkpt lat="27.972317" lon="-15.572089">
        <ele>1759.40</ele>
        <time>2018-02-17T10:18:19Z</time>
      </trkpt>
      <trkpt lat="27.972345" lon="-15.572098">
        <ele>1759.61</ele>
        <time>2018-02-17T10:18:21Z</time>
      </trkpt>
      <trkpt lat="27.972366" lon="-15.572111">
        <ele>1760.20</ele>
        <time>2018-02-17T10:18:23Z</time>
      </trkpt>
      <trkpt lat="27.972383" lon="-15.572130">
        <ele>1760.80</ele>
        <time>2018-02-17T10:18:25Z</time>
      </trkpt>
      <trkpt lat="27.972397" lon="-15.572151">
        <ele>1761.00</ele>
        <time>2018-02-17T10:18:27Z</time>
      </trkpt>
      <trkpt lat="27.972410" lon="-15.572176">
        <ele>1761.36</ele>
        <time>2018-02-17T10:18:29Z</time>
      </trkpt>
      <trkpt lat="27.972426" lon="-15.572202">
        <ele>1761.62</ele>
        <time>2018-02-17T10:18:31Z</time>
      </trkpt>
      <trkpt lat="27.972440" lon="-15.572223">
        <ele>1762.12</ele>
        <time>2018-02-17T10:18:33Z</time>
      </trkpt>
      <trkpt lat="27.972456" lon="-15.572253">
        <ele>1762.49</ele>
        <time>2018-02-17T10:18:35Z</time>
      </trkpt>
      <trkpt lat="27.972463" lon="-15.572278">
        <ele>1763.10</ele>
        <time>2018-02-17T10:18:37Z</time>
      </trkpt>
      <trkpt lat="27.972460" lon="-15.572305">
        <ele>1763.19</ele>
        <time>2018-02-17T10:18:39Z</time>
      </trkpt>
      <trkpt lat="27.972454" lon="-15.572326">
        <ele>1763.69</ele>
        <time>2018-02-17T10:18:41Z</time>
      </trkpt>
      <trkpt lat="27.972438" lon="-15.572344">
        <ele>1764.30</ele>
        <time>2018-02-17T10:18:43Z</time>
      </trkpt>
      <trkpt lat="27.972427" lon="-15.572367">
        <ele>1764.30</ele>
        <time>2018-02-17T10:18:46Z</time>
      </trkpt>
      <trkpt lat="27.972421" lon="-15.572395">
        <ele>1764.30</ele>
        <time>2018-02-17T10:18:48Z</time>
      </trkpt>
      <trkpt lat="27.972432" lon="-15.572424">
        <ele>1764.52</ele>
        <time>2018-02-17T10:18:50Z</time>
      </trkpt>
      <trkpt lat="27.972440" lon="-15.572461">
        <ele>1764.74</ele>
        <time>2018-02-17T10:18:52Z</time>
      </trkpt>
      <trkpt lat="27.972441" lon="-15.572484">
        <ele>1765.09</ele>
        <time>2018-02-17T10:18:53Z</time>
      </trkpt>
      <trkpt lat="27.972443" lon="-15.572512">
        <ele>1765.60</ele>
        <time>2018-02-17T10:18:55Z</time>
      </trkpt>
      <trkpt lat="27.972450" lon="-15.572538">
        <ele>1765.60</ele>
        <time>2018-02-17T10:18:57Z</time>
      </trkpt>
      <trkpt lat="27.972463" lon="-15.572556">
        <ele>1765.61</ele>
        <time>2018-02-17T10:18:59Z</time>
      </trkpt>
      <trkpt lat="27.972477" lon="-15.572578">
        <ele>1765.70</ele>
        <time>2018-02-17T10:19:01Z</time>
      </trkpt>
      <trkpt lat="27.972495" lon="-15.572600">
        <ele>1766.41</ele>
        <time>2018-02-17T10:19:03Z</time>
      </trkpt>
      <trkpt lat="27.972512" lon="-15.572620">
        <ele>1767.71</ele>
        <time>2018-02-17T10:19:05Z</time>
      </trkpt>
      <trkpt lat="27.972524" lon="-15.572642">
        <ele>1768.02</ele>
        <time>2018-02-17T10:19:07Z</time>
      </trkpt>
      <trkpt lat="27.972539" lon="-15.572666">
        <ele>1768.24</ele>
        <time>2018-02-17T10:19:09Z</time>
      </trkpt>
      <trkpt lat="27.972557" lon="-15.572685">
        <ele>1768.85</ele>
        <time>2018-02-17T10:19:11Z</time>
      </trkpt>
      <trkpt lat="27.972576" lon="-15.572705">
        <ele>1769.59</ele>
        <time>2018-02-17T10:19:13Z</time>
      </trkpt>
      <trkpt lat="27.972589" lon="-15.572728">
        <ele>1770.83</ele>
        <time>2018-02-17T10:19:15Z</time>
      </trkpt>
      <trkpt lat="27.972602" lon="-15.572755">
        <ele>1771.00</ele>
        <time>2018-02-17T10:19:17Z</time>
      </trkpt>
      <trkpt lat="27.972614" lon="-15.572781">
        <ele>1771.10</ele>
        <time>2018-02-17T10:19:19Z</time>
      </trkpt>
      <trkpt lat="27.972629" lon="-15.572805">
        <ele>1771.24</ele>
        <time>2018-02-17T10:19:21Z</time>
      </trkpt>
      <trkpt lat="27.972636" lon="-15.572839">
        <ele>1771.90</ele>
        <time>2018-02-17T10:19:23Z</time>
      </trkpt>
      <trkpt lat="27.972633" lon="-15.572875">
        <ele>1772.30</ele>
        <time>2018-02-17T10:19:25Z</time>
      </trkpt>
      <trkpt lat="27.972628" lon="-15.572908">
        <ele>1772.30</ele>
        <time>2018-02-17T10:19:27Z</time>
      </trkpt>
      <trkpt lat="27.972622" lon="-15.572937">
        <ele>1774.06</ele>
        <time>2018-02-17T10:19:30Z</time>
      </trkpt>
      <trkpt lat="27.972615" lon="-15.572958">
        <ele>1775.10</ele>
        <time>2018-02-17T10:19:33Z</time>
      </trkpt>
      <trkpt lat="27.972609" lon="-15.572979">
        <ele>1775.93</ele>
        <time>2018-02-17T10:19:35Z</time>
      </trkpt>
      <trkpt lat="27.972604" lon="-15.573002">
        <ele>1776.54</ele>
        <time>2018-02-17T10:19:37Z</time>
      </trkpt>
      <trkpt lat="27.972598" lon="-15.573035">
        <ele>1777.41</ele>
        <time>2018-02-17T10:19:40Z</time>
      </trkpt>
      <trkpt lat="27.972593" lon="-15.573064">
        <ele>1777.63</ele>
        <time>2018-02-17T10:19:42Z</time>
      </trkpt>
      <trkpt lat="27.972591" lon="-15.573088">
        <ele>1778.83</ele>
        <time>2018-02-17T10:19:44Z</time>
      </trkpt>
      <trkpt lat="27.972589" lon="-15.573115">
        <ele>1779.74</ele>
        <time>2018-02-17T10:19:46Z</time>
      </trkpt>
      <trkpt lat="27.972590" lon="-15.573145">
        <ele>1780.52</ele>
        <time>2018-02-17T10:19:49Z</time>
      </trkpt>
      <trkpt lat="27.972596" lon="-15.573170">
        <ele>1780.81</ele>
        <time>2018-02-17T10:19:51Z</time>
      </trkpt>
      <trkpt lat="27.972600" lon="-15.573192">
        <ele>1781.36</ele>
        <time>2018-02-17T10:19:53Z</time>
      </trkpt>
      <trkpt lat="27.972599" lon="-15.573216">
        <ele>1782.65</ele>
        <time>2018-02-17T10:19:55Z</time>
      </trkpt>
      <trkpt lat="27.972589" lon="-15.573244">
        <ele>1783.63</ele>
        <time>2018-02-17T10:19:57Z</time>
      </trkpt>
      <trkpt lat="27.972569" lon="-15.573255">
        <ele>1784.20</ele>
        <time>2018-02-17T10:20:00Z</time>
      </trkpt>
      <trkpt lat="27.972554" lon="-15.573276">
        <ele>1785.30</ele>
        <time>2018-02-17T10:20:02Z</time>
      </trkpt>
      <trkpt lat="27.972543" lon="-15.573298">
        <ele>1785.30</ele>
        <time>2018-02-17T10:20:04Z</time>
      </trkpt>
      <trkpt lat="27.972541" lon="-15.573327">
        <ele>1786.00</ele>
        <time>2018-02-17T10:20:07Z</time>
      </trkpt>
      <trkpt lat="27.972538" lon="-15.573347">
        <ele>1786.10</ele>
        <time>2018-02-17T10:20:09Z</time>
      </trkpt>
      <trkpt lat="27.972529" lon="-15.573371">
        <ele>1786.50</ele>
        <time>2018-02-17T10:20:11Z</time>
      </trkpt>
      <trkpt lat="27.972520" lon="-15.573390">
        <ele>1786.70</ele>
        <time>2018-02-17T10:20:13Z</time>
      </trkpt>
      <trkpt lat="27.972516" lon="-15.573416">
        <ele>1786.80</ele>
        <time>2018-02-17T10:20:16Z</time>
      </trkpt>
      <trkpt lat="27.972507" lon="-15.573440">
        <ele>1787.20</ele>
        <time>2018-02-17T10:20:19Z</time>
      </trkpt>
      <trkpt lat="27.972500" lon="-15.573462">
        <ele>1787.40</ele>
        <time>2018-02-17T10:20:22Z</time>
      </trkpt>
      <trkpt lat="27.972479" lon="-15.573469">
        <ele>1787.00</ele>
        <time>2018-02-17T10:20:26Z</time>
      </trkpt>
      <trkpt lat="27.972476" lon="-15.573493">
        <ele>1786.60</ele>
        <time>2018-02-17T10:20:39Z</time>
      </trkpt>
      <trkpt lat="27.972466" lon="-15.573512">
        <ele>1786.60</ele>
        <time>2018-02-17T10:20:41Z</time>
      </trkpt>
      <trkpt lat="27.972455" lon="-15.573529">
        <ele>1786.60</ele>
        <time>2018-02-17T10:20:43Z</time>
      </trkpt>
      <trkpt lat="27.972443" lon="-15.573553">
        <ele>1786.50</ele>
        <time>2018-02-17T10:20:46Z</time>
      </trkpt>
      <trkpt lat="27.972430" lon="-15.573570">
        <ele>1786.59</ele>
        <time>2018-02-17T10:20:48Z</time>
      </trkpt>
      <trkpt lat="27.972415" lon="-15.573590">
        <ele>1786.60</ele>
        <time>2018-02-17T10:20:50Z</time>
      </trkpt>
      <trkpt lat="27.972408" lon="-15.573620">
        <ele>1786.09</ele>
        <time>2018-02-17T10:20:53Z</time>
      </trkpt>
      <trkpt lat="27.972404" lon="-15.573643">
        <ele>1785.40</ele>
        <time>2018-02-17T10:20:55Z</time>
      </trkpt>
      <trkpt lat="27.972389" lon="-15.573670">
        <ele>1785.02</ele>
        <time>2018-02-17T10:20:57Z</time>
      </trkpt>
      <trkpt lat="27.972384" lon="-15.573690">
        <ele>1784.80</ele>
        <time>2018-02-17T10:20:59Z</time>
      </trkpt>
      <trkpt lat="27.972363" lon="-15.573727">
        <ele>1785.00</ele>
        <time>2018-02-17T10:21:04Z</time>
      </trkpt>
      <trkpt lat="27.972350" lon="-15.573751">
        <ele>1784.34</ele>
        <time>2018-02-17T10:21:06Z</time>
      </trkpt>
      <trkpt lat="27.972330" lon="-15.573776">
        <ele>1783.79</ele>
        <time>2018-02-17T10:21:08Z</time>
      </trkpt>
      <trkpt lat="27.972311" lon="-15.573787">
        <ele>1783.50</ele>
        <time>2018-02-17T10:21:11Z</time>
      </trkpt>
      <trkpt lat="27.972290" lon="-15.573797">
        <ele>1783.16</ele>
        <time>2018-02-17T10:21:13Z</time>
      </trkpt>
      <trkpt lat="27.972263" lon="-15.573805">
        <ele>1783.10</ele>
        <time>2018-02-17T10:21:15Z</time>
      </trkpt>
      <trkpt lat="27.972218" lon="-15.573819">
        <ele>1782.44</ele>
        <time>2018-02-17T10:21:18Z</time>
      </trkpt>
      <trkpt lat="27.972196" lon="-15.573826">
        <ele>1782.40</ele>
        <time>2018-02-17T10:21:19Z</time>
      </trkpt>
      <trkpt lat="27.972103" lon="-15.573843">
        <ele>1781.66</ele>
        <time>2018-02-17T10:21:24Z</time>
      </trkpt>
      <trkpt lat="27.972067" lon="-15.573856">
        <ele>1781.42</ele>
        <time>2018-02-17T10:21:26Z</time>
      </trkpt>
      <trkpt lat="27.971976" lon="-15.573871">
        <ele>1780.91</ele>
        <time>2018-02-17T10:21:31Z</time>
      </trkpt>
      <trkpt lat="27.971931" lon="-15.573880">
        <ele>1780.50</ele>
        <time>2018-02-17T10:21:33Z</time>
      </trkpt>
      <trkpt lat="27.971909" lon="-15.573880">
        <ele>1780.50</ele>
        <time>2018-02-17T10:21:34Z</time>
      </trkpt>
      <trkpt lat="27.971887" lon="-15.573886">
        <ele>1780.35</ele>
        <time>2018-02-17T10:21:35Z</time>
      </trkpt>
      <trkpt lat="27.971837" lon="-15.573902">
        <ele>1780.38</ele>
        <time>2018-02-17T10:21:37Z</time>
      </trkpt>
      <trkpt lat="27.971741" lon="-15.573956">
        <ele>1780.50</ele>
        <time>2018-02-17T10:21:42Z</time>
      </trkpt>
      <trkpt lat="27.971672" lon="-15.574051">
        <ele>1780.80</ele>
        <time>2018-02-17T10:21:46Z</time>
      </trkpt>
      <trkpt lat="27.971609" lon="-15.574129">
        <ele>1780.80</ele>
        <time>2018-02-17T10:21:50Z</time>
      </trkpt>
      <trkpt lat="27.971550" lon="-15.574244">
        <ele>1780.57</ele>
        <time>2018-02-17T10:21:54Z</time>
      </trkpt>
      <trkpt lat="27.971541" lon="-15.574265">
        <ele>1780.05</ele>
        <time>2018-02-17T10:21:55Z</time>
      </trkpt>
      <trkpt lat="27.971529" lon="-15.574286">
        <ele>1779.75</ele>
        <time>2018-02-17T10:21:56Z</time>
      </trkpt>
      <trkpt lat="27.971520" lon="-15.574306">
        <ele>1779.70</ele>
        <time>2018-02-17T10:21:57Z</time>
      </trkpt>
      <trkpt lat="27.971509" lon="-15.574334">
        <ele>1779.70</ele>
        <time>2018-02-17T10:21:58Z</time>
      </trkpt>
      <trkpt lat="27.971499" lon="-15.574359">
        <ele>1779.70</ele>
        <time>2018-02-17T10:21:59Z</time>
      </trkpt>
      <trkpt lat="27.971483" lon="-15.574386">
        <ele>1779.70</ele>
        <time>2018-02-17T10:22:00Z</time>
      </trkpt>
      <trkpt lat="27.971433" lon="-15.574489">
        <ele>1779.60</ele>
        <time>2018-02-17T10:22:04Z</time>
      </trkpt>
      <trkpt lat="27.971386" lon="-15.574587">
        <ele>1779.60</ele>
        <time>2018-02-17T10:22:08Z</time>
      </trkpt>
      <trkpt lat="27.971373" lon="-15.574611">
        <ele>1779.60</ele>
        <time>2018-02-17T10:22:09Z</time>
      </trkpt>
      <trkpt lat="27.971361" lon="-15.574642">
        <ele>1778.93</ele>
        <time>2018-02-17T10:22:10Z</time>
      </trkpt>
      <trkpt lat="27.971353" lon="-15.574667">
        <ele>1778.70</ele>
        <time>2018-02-17T10:22:11Z</time>
      </trkpt>
      <trkpt lat="27.971334" lon="-15.574707">
        <ele>1778.70</ele>
        <time>2018-02-17T10:22:13Z</time>
      </trkpt>
      <trkpt lat="27.971319" lon="-15.574729">
        <ele>1778.70</ele>
        <time>2018-02-17T10:22:14Z</time>
      </trkpt>
      <trkpt lat="27.971307" lon="-15.574755">
        <ele>1778.70</ele>
        <time>2018-02-17T10:22:15Z</time>
      </trkpt>
      <trkpt lat="27.971292" lon="-15.574772">
        <ele>1778.55</ele>
        <time>2018-02-17T10:22:16Z</time>
      </trkpt>
      <trkpt lat="27.971281" lon="-15.574790">
        <ele>1778.50</ele>
        <time>2018-02-17T10:22:17Z</time>
      </trkpt>
      <trkpt lat="27.971267" lon="-15.574807">
        <ele>1778.50</ele>
        <time>2018-02-17T10:22:18Z</time>
      </trkpt>
      <trkpt lat="27.971246" lon="-15.574828">
        <ele>1778.43</ele>
        <time>2018-02-17T10:22:19Z</time>
      </trkpt>
      <trkpt lat="27.971230" lon="-15.574847">
        <ele>1778.18</ele>
        <time>2018-02-17T10:22:20Z</time>
      </trkpt>
      <trkpt lat="27.971216" lon="-15.574865">
        <ele>1778.10</ele>
        <time>2018-02-17T10:22:21Z</time>
      </trkpt>
      <trkpt lat="27.971199" lon="-15.574880">
        <ele>1778.10</ele>
        <time>2018-02-17T10:22:22Z</time>
      </trkpt>
      <trkpt lat="27.971180" lon="-15.574904">
        <ele>1778.10</ele>
        <time>2018-02-17T10:22:23Z</time>
      </trkpt>
      <trkpt lat="27.971162" lon="-15.574925">
        <ele>1778.10</ele>
        <time>2018-02-17T10:22:24Z</time>
      </trkpt>
      <trkpt lat="27.971144" lon="-15.574951">
        <ele>1777.88</ele>
        <time>2018-02-17T10:22:25Z</time>
      </trkpt>
      <trkpt lat="27.971128" lon="-15.574976">
        <ele>1777.80</ele>
        <time>2018-02-17T10:22:26Z</time>
      </trkpt>
      <trkpt lat="27.971114" lon="-15.575001">
        <ele>1777.80</ele>
        <time>2018-02-17T10:22:27Z</time>
      </trkpt>
      <trkpt lat="27.971094" lon="-15.575022">
        <ele>1777.80</ele>
        <time>2018-02-17T10:22:28Z</time>
      </trkpt>
      <trkpt lat="27.971078" lon="-15.575042">
        <ele>1777.80</ele>
        <time>2018-02-17T10:22:29Z</time>
      </trkpt>
      <trkpt lat="27.971062" lon="-15.575060">
        <ele>1777.80</ele>
        <time>2018-02-17T10:22:30Z</time>
      </trkpt>
      <trkpt lat="27.971044" lon="-15.575081">
        <ele>1777.80</ele>
        <time>2018-02-17T10:22:31Z</time>
      </trkpt>
      <trkpt lat="27.971010" lon="-15.575116">
        <ele>1777.80</ele>
        <time>2018-02-17T10:22:33Z</time>
      </trkpt>
      <trkpt lat="27.970943" lon="-15.575179">
        <ele>1777.30</ele>
        <time>2018-02-17T10:22:37Z</time>
      </trkpt>
      <trkpt lat="27.970927" lon="-15.575194">
        <ele>1777.30</ele>
        <time>2018-02-17T10:22:38Z</time>
      </trkpt>
      <trkpt lat="27.970910" lon="-15.575214">
        <ele>1777.30</ele>
        <time>2018-02-17T10:22:39Z</time>
      </trkpt>
      <trkpt lat="27.970894" lon="-15.575234">
        <ele>1777.30</ele>
        <time>2018-02-17T10:22:40Z</time>
      </trkpt>
      <trkpt lat="27.970878" lon="-15.575253">
        <ele>1777.30</ele>
        <time>2018-02-17T10:22:41Z</time>
      </trkpt>
      <trkpt lat="27.970847" lon="-15.575294">
        <ele>1776.99</ele>
        <time>2018-02-17T10:22:43Z</time>
      </trkpt>
      <trkpt lat="27.970828" lon="-15.575312">
        <ele>1776.97</ele>
        <time>2018-02-17T10:22:44Z</time>
      </trkpt>
      <trkpt lat="27.970811" lon="-15.575332">
        <ele>1776.83</ele>
        <time>2018-02-17T10:22:45Z</time>
      </trkpt>
      <trkpt lat="27.970795" lon="-15.575354">
        <ele>1776.97</ele>
        <time>2018-02-17T10:22:46Z</time>
      </trkpt>
      <trkpt lat="27.970781" lon="-15.575372">
        <ele>1777.10</ele>
        <time>2018-02-17T10:22:47Z</time>
      </trkpt>
      <trkpt lat="27.970766" lon="-15.575392">
        <ele>1777.10</ele>
        <time>2018-02-17T10:22:48Z</time>
      </trkpt>
      <trkpt lat="27.970751" lon="-15.575412">
        <ele>1777.10</ele>
        <time>2018-02-17T10:22:49Z</time>
      </trkpt>
      <trkpt lat="27.970733" lon="-15.575425">
        <ele>1777.10</ele>
        <time>2018-02-17T10:22:50Z</time>
      </trkpt>
      <trkpt lat="27.970720" lon="-15.575440">
        <ele>1777.10</ele>
        <time>2018-02-17T10:22:51Z</time>
      </trkpt>
      <trkpt lat="27.970706" lon="-15.575459">
        <ele>1777.30</ele>
        <time>2018-02-17T10:22:52Z</time>
      </trkpt>
      <trkpt lat="27.970689" lon="-15.575477">
        <ele>1777.93</ele>
        <time>2018-02-17T10:22:53Z</time>
      </trkpt>
      <trkpt lat="27.970675" lon="-15.575492">
        <ele>1777.80</ele>
        <time>2018-02-17T10:22:54Z</time>
      </trkpt>
      <trkpt lat="27.970658" lon="-15.575513">
        <ele>1778.06</ele>
        <time>2018-02-17T10:22:55Z</time>
      </trkpt>
      <trkpt lat="27.970642" lon="-15.575527">
        <ele>1777.84</ele>
        <time>2018-02-17T10:22:56Z</time>
      </trkpt>
      <trkpt lat="27.970627" lon="-15.575548">
        <ele>1777.73</ele>
        <time>2018-02-17T10:22:57Z</time>
      </trkpt>
      <trkpt lat="27.970611" lon="-15.575572">
        <ele>1777.80</ele>
        <time>2018-02-17T10:22:58Z</time>
      </trkpt>
      <trkpt lat="27.970596" lon="-15.575588">
        <ele>1777.80</ele>
        <time>2018-02-17T10:22:59Z</time>
      </trkpt>
      <trkpt lat="27.970582" lon="-15.575605">
        <ele>1777.80</ele>
        <time>2018-02-17T10:23:00Z</time>
      </trkpt>
      <trkpt lat="27.970569" lon="-15.575627">
        <ele>1777.80</ele>
        <time>2018-02-17T10:23:01Z</time>
      </trkpt>
      <trkpt lat="27.970543" lon="-15.575655">
        <ele>1777.80</ele>
        <time>2018-02-17T10:23:03Z</time>
      </trkpt>
      <trkpt lat="27.970530" lon="-15.575671">
        <ele>1777.80</ele>
        <time>2018-02-17T10:23:04Z</time>
      </trkpt>
      <trkpt lat="27.970519" lon="-15.575690">
        <ele>1777.80</ele>
        <time>2018-02-17T10:23:05Z</time>
      </trkpt>
      <trkpt lat="27.970506" lon="-15.575704">
        <ele>1777.80</ele>
        <time>2018-02-17T10:23:06Z</time>
      </trkpt>
      <trkpt lat="27.970493" lon="-15.575719">
        <ele>1777.42</ele>
        <time>2018-02-17T10:23:07Z</time>
      </trkpt>
      <trkpt lat="27.970483" lon="-15.575738">
        <ele>1777.20</ele>
        <time>2018-02-17T10:23:08Z</time>
      </trkpt>
      <trkpt lat="27.970469" lon="-15.575757">
        <ele>1777.01</ele>
        <time>2018-02-17T10:23:09Z</time>
      </trkpt>
      <trkpt lat="27.970455" lon="-15.575773">
        <ele>1776.90</ele>
        <time>2018-02-17T10:23:10Z</time>
      </trkpt>
      <trkpt lat="27.970444" lon="-15.575791">
        <ele>1776.90</ele>
        <time>2018-02-17T10:23:11Z</time>
      </trkpt>
      <trkpt lat="27.970433" lon="-15.575816">
        <ele>1777.09</ele>
        <time>2018-02-17T10:23:13Z</time>
      </trkpt>
      <trkpt lat="27.970413" lon="-15.575842">
        <ele>1777.07</ele>
        <time>2018-02-17T10:23:15Z</time>
      </trkpt>
      <trkpt lat="27.970390" lon="-15.575863">
        <ele>1777.30</ele>
        <time>2018-02-17T10:23:17Z</time>
      </trkpt>
      <trkpt lat="27.970380" lon="-15.575880">
        <ele>1777.30</ele>
        <time>2018-02-17T10:23:18Z</time>
      </trkpt>
      <trkpt lat="27.970371" lon="-15.575908">
        <ele>1777.62</ele>
        <time>2018-02-17T10:23:24Z</time>
      </trkpt>
      <trkpt lat="27.970354" lon="-15.575917">
        <ele>1777.80</ele>
        <time>2018-02-17T10:23:27Z</time>
      </trkpt>
      <trkpt lat="27.970332" lon="-15.575919">
        <ele>1776.83</ele>
        <time>2018-02-17T10:23:29Z</time>
      </trkpt>
      <trkpt lat="27.970309" lon="-15.575928">
        <ele>1776.25</ele>
        <time>2018-02-17T10:23:31Z</time>
      </trkpt>
      <trkpt lat="27.970281" lon="-15.575939">
        <ele>1776.25</ele>
        <time>2018-02-17T10:23:33Z</time>
      </trkpt>
      <trkpt lat="27.970258" lon="-15.575951">
        <ele>1776.40</ele>
        <time>2018-02-17T10:23:35Z</time>
      </trkpt>
      <trkpt lat="27.970241" lon="-15.575965">
        <ele>1776.55</ele>
        <time>2018-02-17T10:23:37Z</time>
      </trkpt>
      <trkpt lat="27.970223" lon="-15.575979">
        <ele>1776.90</ele>
        <time>2018-02-17T10:23:39Z</time>
      </trkpt>
      <trkpt lat="27.970203" lon="-15.575991">
        <ele>1777.60</ele>
        <time>2018-02-17T10:23:41Z</time>
      </trkpt>
      <trkpt lat="27.970182" lon="-15.576007">
        <ele>1777.80</ele>
        <time>2018-02-17T10:23:43Z</time>
      </trkpt>
      <trkpt lat="27.970159" lon="-15.576021">
        <ele>1777.80</ele>
        <time>2018-02-17T10:23:45Z</time>
      </trkpt>
      <trkpt lat="27.970141" lon="-15.576043">
        <ele>1777.60</ele>
        <time>2018-02-17T10:23:47Z</time>
      </trkpt>
      <trkpt lat="27.970127" lon="-15.576059">
        <ele>1777.01</ele>
        <time>2018-02-17T10:23:49Z</time>
      </trkpt>
      <trkpt lat="27.970102" lon="-15.576076">
        <ele>1776.31</ele>
        <time>2018-02-17T10:23:51Z</time>
      </trkpt>
      <trkpt lat="27.970086" lon="-15.576095">
        <ele>1776.00</ele>
        <time>2018-02-17T10:23:52Z</time>
      </trkpt>
      <trkpt lat="27.970070" lon="-15.576111">
        <ele>1776.00</ele>
        <time>2018-02-17T10:23:53Z</time>
      </trkpt>
      <trkpt lat="27.970055" lon="-15.576134">
        <ele>1776.05</ele>
        <time>2018-02-17T10:23:54Z</time>
      </trkpt>
      <trkpt lat="27.970039" lon="-15.576155">
        <ele>1776.10</ele>
        <time>2018-02-17T10:23:55Z</time>
      </trkpt>
      <trkpt lat="27.970022" lon="-15.576173">
        <ele>1776.05</ele>
        <time>2018-02-17T10:23:56Z</time>
      </trkpt>
      <trkpt lat="27.970005" lon="-15.576199">
        <ele>1776.05</ele>
        <time>2018-02-17T10:23:57Z</time>
      </trkpt>
      <trkpt lat="27.969989" lon="-15.576223">
        <ele>1776.10</ele>
        <time>2018-02-17T10:23:58Z</time>
      </trkpt>
      <trkpt lat="27.969972" lon="-15.576254">
        <ele>1776.10</ele>
        <time>2018-02-17T10:23:59Z</time>
      </trkpt>
      <trkpt lat="27.969957" lon="-15.576280">
        <ele>1775.87</ele>
        <time>2018-02-17T10:24:00Z</time>
      </trkpt>
      <trkpt lat="27.969941" lon="-15.576312">
        <ele>1775.60</ele>
        <time>2018-02-17T10:24:01Z</time>
      </trkpt>
      <trkpt lat="27.969930" lon="-15.576348">
        <ele>1775.64</ele>
        <time>2018-02-17T10:24:02Z</time>
      </trkpt>
      <trkpt lat="27.969917" lon="-15.576392">
        <ele>1775.70</ele>
        <time>2018-02-17T10:24:03Z</time>
      </trkpt>
      <trkpt lat="27.969908" lon="-15.576428">
        <ele>1775.70</ele>
        <time>2018-02-17T10:24:04Z</time>
      </trkpt>
      <trkpt lat="27.969932" lon="-15.576560">
        <ele>1775.70</ele>
        <time>2018-02-17T10:24:08Z</time>
      </trkpt>
      <trkpt lat="27.969980" lon="-15.576666">
        <ele>1774.68</ele>
        <time>2018-02-17T10:24:11Z</time>
      </trkpt>
      <trkpt lat="27.970033" lon="-15.576758">
        <ele>1773.86</ele>
        <time>2018-02-17T10:24:14Z</time>
      </trkpt>
      <trkpt lat="27.970062" lon="-15.576815">
        <ele>1773.49</ele>
        <time>2018-02-17T10:24:16Z</time>
      </trkpt>
      <trkpt lat="27.970079" lon="-15.576840">
        <ele>1773.00</ele>
        <time>2018-02-17T10:24:17Z</time>
      </trkpt>
      <trkpt lat="27.970095" lon="-15.576871">
        <ele>1772.70</ele>
        <time>2018-02-17T10:24:18Z</time>
      </trkpt>
      <trkpt lat="27.970107" lon="-15.576903">
        <ele>1772.70</ele>
        <time>2018-02-17T10:24:19Z</time>
      </trkpt>
      <trkpt lat="27.970121" lon="-15.576934">
        <ele>1772.50</ele>
        <time>2018-02-17T10:24:20Z</time>
      </trkpt>
      <trkpt lat="27.970135" lon="-15.576966">
        <ele>1772.28</ele>
        <time>2018-02-17T10:24:21Z</time>
      </trkpt>
      <trkpt lat="27.970149" lon="-15.576995">
        <ele>1772.32</ele>
        <time>2018-02-17T10:24:22Z</time>
      </trkpt>
      <trkpt lat="27.970183" lon="-15.577090">
        <ele>1771.40</ele>
        <time>2018-02-17T10:24:25Z</time>
      </trkpt>
      <trkpt lat="27.970207" lon="-15.577149">
        <ele>1770.70</ele>
        <time>2018-02-17T10:24:27Z</time>
      </trkpt>
      <trkpt lat="27.970220" lon="-15.577183">
        <ele>1770.40</ele>
        <time>2018-02-17T10:24:28Z</time>
      </trkpt>
      <trkpt lat="27.970235" lon="-15.577216">
        <ele>1770.12</ele>
        <time>2018-02-17T10:24:29Z</time>
      </trkpt>
      <trkpt lat="27.970244" lon="-15.577246">
        <ele>1769.50</ele>
        <time>2018-02-17T10:24:30Z</time>
      </trkpt>
      <trkpt lat="27.970255" lon="-15.577277">
        <ele>1769.20</ele>
        <time>2018-02-17T10:24:31Z</time>
      </trkpt>
      <trkpt lat="27.970270" lon="-15.577309">
        <ele>1769.20</ele>
        <time>2018-02-17T10:24:32Z</time>
      </trkpt>
      <trkpt lat="27.970281" lon="-15.577339">
        <ele>1769.20</ele>
        <time>2018-02-17T10:24:33Z</time>
      </trkpt>
      <trkpt lat="27.970293" lon="-15.577371">
        <ele>1769.12</ele>
        <time>2018-02-17T10:24:34Z</time>
      </trkpt>
      <trkpt lat="27.970298" lon="-15.577402">
        <ele>1768.88</ele>
        <time>2018-02-17T10:24:35Z</time>
      </trkpt>
      <trkpt lat="27.970309" lon="-15.577437">
        <ele>1768.62</ele>
        <time>2018-02-17T10:24:36Z</time>
      </trkpt>
      <trkpt lat="27.970319" lon="-15.577464">
        <ele>1768.50</ele>
        <time>2018-02-17T10:24:37Z</time>
      </trkpt>
      <trkpt lat="27.970329" lon="-15.577489">
        <ele>1768.50</ele>
        <time>2018-02-17T10:24:38Z</time>
      </trkpt>
      <trkpt lat="27.970333" lon="-15.577515">
        <ele>1768.50</ele>
        <time>2018-02-17T10:24:39Z</time>
      </trkpt>
      <trkpt lat="27.970340" lon="-15.577540">
        <ele>1768.12</ele>
        <time>2018-02-17T10:24:40Z</time>
      </trkpt>
      <trkpt lat="27.970341" lon="-15.577565">
        <ele>1767.88</ele>
        <time>2018-02-17T10:24:41Z</time>
      </trkpt>
      <trkpt lat="27.970341" lon="-15.577592">
        <ele>1768.50</ele>
        <time>2018-02-17T10:24:42Z</time>
      </trkpt>
      <trkpt lat="27.970345" lon="-15.577620">
        <ele>1768.61</ele>
        <time>2018-02-17T10:24:43Z</time>
      </trkpt>
      <trkpt lat="27.970343" lon="-15.577646">
        <ele>1768.50</ele>
        <time>2018-02-17T10:24:44Z</time>
      </trkpt>
      <trkpt lat="27.970343" lon="-15.577668">
        <ele>1768.11</ele>
        <time>2018-02-17T10:24:45Z</time>
      </trkpt>
      <trkpt lat="27.970346" lon="-15.577689">
        <ele>1768.19</ele>
        <time>2018-02-17T10:24:46Z</time>
      </trkpt>
      <trkpt lat="27.970348" lon="-15.577713">
        <ele>1768.07</ele>
        <time>2018-02-17T10:24:47Z</time>
      </trkpt>
      <trkpt lat="27.970360" lon="-15.577773">
        <ele>1767.96</ele>
        <time>2018-02-17T10:24:49Z</time>
      </trkpt>
      <trkpt lat="27.970363" lon="-15.577811">
        <ele>1767.90</ele>
        <time>2018-02-17T10:24:50Z</time>
      </trkpt>
      <trkpt lat="27.970369" lon="-15.577844">
        <ele>1767.97</ele>
        <time>2018-02-17T10:24:51Z</time>
      </trkpt>
      <trkpt lat="27.970371" lon="-15.577873">
        <ele>1768.10</ele>
        <time>2018-02-17T10:24:52Z</time>
      </trkpt>
      <trkpt lat="27.970366" lon="-15.577900">
        <ele>1768.14</ele>
        <time>2018-02-17T10:24:53Z</time>
      </trkpt>
      <trkpt lat="27.970358" lon="-15.577924">
        <ele>1768.27</ele>
        <time>2018-02-17T10:24:54Z</time>
      </trkpt>
      <trkpt lat="27.970359" lon="-15.577949">
        <ele>1768.40</ele>
        <time>2018-02-17T10:24:55Z</time>
      </trkpt>
      <trkpt lat="27.970359" lon="-15.577977">
        <ele>1768.40</ele>
        <time>2018-02-17T10:24:56Z</time>
      </trkpt>
      <trkpt lat="27.970360" lon="-15.578000">
        <ele>1768.40</ele>
        <time>2018-02-17T10:24:57Z</time>
      </trkpt>
      <trkpt lat="27.970376" lon="-15.578106">
        <ele>1766.90</ele>
        <time>2018-02-17T10:25:01Z</time>
      </trkpt>
      <trkpt lat="27.970380" lon="-15.578130">
        <ele>1766.90</ele>
        <time>2018-02-17T10:25:02Z</time>
      </trkpt>
      <trkpt lat="27.970385" lon="-15.578157">
        <ele>1766.90</ele>
        <time>2018-02-17T10:25:03Z</time>
      </trkpt>
      <trkpt lat="27.970387" lon="-15.578182">
        <ele>1766.90</ele>
        <time>2018-02-17T10:25:04Z</time>
      </trkpt>
      <trkpt lat="27.970395" lon="-15.578236">
        <ele>1766.90</ele>
        <time>2018-02-17T10:25:06Z</time>
      </trkpt>
      <trkpt lat="27.970411" lon="-15.578360">
        <ele>1766.29</ele>
        <time>2018-02-17T10:25:11Z</time>
      </trkpt>
      <trkpt lat="27.970412" lon="-15.578385">
        <ele>1766.41</ele>
        <time>2018-02-17T10:25:12Z</time>
      </trkpt>
      <trkpt lat="27.970405" lon="-15.578416">
        <ele>1765.98</ele>
        <time>2018-02-17T10:25:13Z</time>
      </trkpt>
      <trkpt lat="27.970407" lon="-15.578444">
        <ele>1765.47</ele>
        <time>2018-02-17T10:25:14Z</time>
      </trkpt>
      <trkpt lat="27.970409" lon="-15.578476">
        <ele>1765.37</ele>
        <time>2018-02-17T10:25:15Z</time>
      </trkpt>
      <trkpt lat="27.970403" lon="-15.578499">
        <ele>1765.18</ele>
        <time>2018-02-17T10:25:16Z</time>
      </trkpt>
      <trkpt lat="27.970397" lon="-15.578526">
        <ele>1764.81</ele>
        <time>2018-02-17T10:25:17Z</time>
      </trkpt>
      <trkpt lat="27.970388" lon="-15.578557">
        <ele>1764.60</ele>
        <time>2018-02-17T10:25:18Z</time>
      </trkpt>
      <trkpt lat="27.970387" lon="-15.578588">
        <ele>1764.45</ele>
        <time>2018-02-17T10:25:19Z</time>
      </trkpt>
      <trkpt lat="27.970385" lon="-15.578616">
        <ele>1764.07</ele>
        <time>2018-02-17T10:25:20Z</time>
      </trkpt>
      <trkpt lat="27.970381" lon="-15.578643">
        <ele>1764.00</ele>
        <time>2018-02-17T10:25:21Z</time>
      </trkpt>
      <trkpt lat="27.970381" lon="-15.578676">
        <ele>1763.76</ele>
        <time>2018-02-17T10:25:22Z</time>
      </trkpt>
      <trkpt lat="27.970382" lon="-15.578702">
        <ele>1763.20</ele>
        <time>2018-02-17T10:25:23Z</time>
      </trkpt>
      <trkpt lat="27.970383" lon="-15.578730">
        <ele>1762.99</ele>
        <time>2018-02-17T10:25:24Z</time>
      </trkpt>
      <trkpt lat="27.970377" lon="-15.578760">
        <ele>1762.47</ele>
        <time>2018-02-17T10:25:25Z</time>
      </trkpt>
      <trkpt lat="27.970373" lon="-15.578784">
        <ele>1762.22</ele>
        <time>2018-02-17T10:25:26Z</time>
      </trkpt>
      <trkpt lat="27.970367" lon="-15.578808">
        <ele>1761.80</ele>
        <time>2018-02-17T10:25:27Z</time>
      </trkpt>
      <trkpt lat="27.970363" lon="-15.578835">
        <ele>1761.80</ele>
        <time>2018-02-17T10:25:28Z</time>
      </trkpt>
      <trkpt lat="27.970355" lon="-15.578862">
        <ele>1761.71</ele>
        <time>2018-02-17T10:25:29Z</time>
      </trkpt>
      <trkpt lat="27.970354" lon="-15.578888">
        <ele>1761.35</ele>
        <time>2018-02-17T10:25:30Z</time>
      </trkpt>
      <trkpt lat="27.970350" lon="-15.578909">
        <ele>1760.64</ele>
        <time>2018-02-17T10:25:31Z</time>
      </trkpt>
      <trkpt lat="27.970345" lon="-15.578932">
        <ele>1759.80</ele>
        <time>2018-02-17T10:25:32Z</time>
      </trkpt>
      <trkpt lat="27.970337" lon="-15.578957">
        <ele>1759.80</ele>
        <time>2018-02-17T10:25:33Z</time>
      </trkpt>
      <trkpt lat="27.970329" lon="-15.578980">
        <ele>1759.80</ele>
        <time>2018-02-17T10:25:34Z</time>
      </trkpt>
      <trkpt lat="27.970326" lon="-15.579007">
        <ele>1759.80</ele>
        <time>2018-02-17T10:25:35Z</time>
      </trkpt>
      <trkpt lat="27.970321" lon="-15.579036">
        <ele>1759.80</ele>
        <time>2018-02-17T10:25:36Z</time>
      </trkpt>
      <trkpt lat="27.970315" lon="-15.579058">
        <ele>1759.98</ele>
        <time>2018-02-17T10:25:37Z</time>
      </trkpt>
      <trkpt lat="27.970292" lon="-15.579088">
        <ele>1760.40</ele>
        <time>2018-02-17T10:25:39Z</time>
      </trkpt>
      <trkpt lat="27.970277" lon="-15.579101">
        <ele>1760.40</ele>
        <time>2018-02-17T10:25:40Z</time>
      </trkpt>
      <trkpt lat="27.970259" lon="-15.579112">
        <ele>1760.40</ele>
        <time>2018-02-17T10:25:41Z</time>
      </trkpt>
      <trkpt lat="27.970243" lon="-15.579128">
        <ele>1760.40</ele>
        <time>2018-02-17T10:25:42Z</time>
      </trkpt>
      <trkpt lat="27.970174" lon="-15.579171">
        <ele>1760.70</ele>
        <time>2018-02-17T10:25:46Z</time>
      </trkpt>
      <trkpt lat="27.970093" lon="-15.579191">
        <ele>1761.50</ele>
        <time>2018-02-17T10:25:50Z</time>
      </trkpt>
      <trkpt lat="27.970074" lon="-15.579194">
        <ele>1761.50</ele>
        <time>2018-02-17T10:25:51Z</time>
      </trkpt>
      <trkpt lat="27.970051" lon="-15.579197">
        <ele>1761.50</ele>
        <time>2018-02-17T10:25:52Z</time>
      </trkpt>
      <trkpt lat="27.970030" lon="-15.579201">
        <ele>1761.50</ele>
        <time>2018-02-17T10:25:53Z</time>
      </trkpt>
      <trkpt lat="27.970000" lon="-15.579211">
        <ele>1761.50</ele>
        <time>2018-02-17T10:25:55Z</time>
      </trkpt>
      <trkpt lat="27.969982" lon="-15.579227">
        <ele>1761.47</ele>
        <time>2018-02-17T10:25:57Z</time>
      </trkpt>
      <trkpt lat="27.969955" lon="-15.579230">
        <ele>1761.22</ele>
        <time>2018-02-17T10:25:59Z</time>
      </trkpt>
      <trkpt lat="27.969928" lon="-15.579240">
        <ele>1760.67</ele>
        <time>2018-02-17T10:26:01Z</time>
      </trkpt>
      <trkpt lat="27.969917" lon="-15.579256">
        <ele>1760.47</ele>
        <time>2018-02-17T10:26:02Z</time>
      </trkpt>
      <trkpt lat="27.969904" lon="-15.579273">
        <ele>1760.10</ele>
        <time>2018-02-17T10:26:03Z</time>
      </trkpt>
      <trkpt lat="27.969877" lon="-15.579328">
        <ele>1760.07</ele>
        <time>2018-02-17T10:26:05Z</time>
      </trkpt>
      <trkpt lat="27.969867" lon="-15.579360">
        <ele>1760.00</ele>
        <time>2018-02-17T10:26:06Z</time>
      </trkpt>
      <trkpt lat="27.969861" lon="-15.579397">
        <ele>1760.00</ele>
        <time>2018-02-17T10:26:07Z</time>
      </trkpt>
      <trkpt lat="27.969856" lon="-15.579430">
        <ele>1760.00</ele>
        <time>2018-02-17T10:26:08Z</time>
      </trkpt>
      <trkpt lat="27.969849" lon="-15.579450">
        <ele>1760.07</ele>
        <time>2018-02-17T10:26:09Z</time>
      </trkpt>
      <trkpt lat="27.969832" lon="-15.579479">
        <ele>1760.00</ele>
        <time>2018-02-17T10:26:11Z</time>
      </trkpt>
      <trkpt lat="27.969827" lon="-15.579500">
        <ele>1759.98</ele>
        <time>2018-02-17T10:26:12Z</time>
      </trkpt>
      <trkpt lat="27.969824" lon="-15.579523">
        <ele>1759.90</ele>
        <time>2018-02-17T10:26:13Z</time>
      </trkpt>
      <trkpt lat="27.969815" lon="-15.579545">
        <ele>1759.81</ele>
        <time>2018-02-17T10:26:14Z</time>
      </trkpt>
      <trkpt lat="27.969809" lon="-15.579570">
        <ele>1759.34</ele>
        <time>2018-02-17T10:26:15Z</time>
      </trkpt>
      <trkpt lat="27.969804" lon="-15.579598">
        <ele>1758.78</ele>
        <time>2018-02-17T10:26:16Z</time>
      </trkpt>
      <trkpt lat="27.969799" lon="-15.579623">
        <ele>1758.70</ele>
        <time>2018-02-17T10:26:17Z</time>
      </trkpt>
      <trkpt lat="27.969783" lon="-15.579681">
        <ele>1758.36</ele>
        <time>2018-02-17T10:26:19Z</time>
      </trkpt>
      <trkpt lat="27.969781" lon="-15.579713">
        <ele>1758.18</ele>
        <time>2018-02-17T10:26:20Z</time>
      </trkpt>
      <trkpt lat="27.969773" lon="-15.579746">
        <ele>1757.99</ele>
        <time>2018-02-17T10:26:21Z</time>
      </trkpt>
      <trkpt lat="27.969767" lon="-15.579777">
        <ele>1757.56</ele>
        <time>2018-02-17T10:26:22Z</time>
      </trkpt>
      <trkpt lat="27.969763" lon="-15.579811">
        <ele>1757.38</ele>
        <time>2018-02-17T10:26:23Z</time>
      </trkpt>
      <trkpt lat="27.969760" lon="-15.579838">
        <ele>1757.30</ele>
        <time>2018-02-17T10:26:24Z</time>
      </trkpt>
      <trkpt lat="27.969758" lon="-15.579873">
        <ele>1757.13</ele>
        <time>2018-02-17T10:26:25Z</time>
      </trkpt>
      <trkpt lat="27.969757" lon="-15.579906">
        <ele>1756.39</ele>
        <time>2018-02-17T10:26:26Z</time>
      </trkpt>
      <trkpt lat="27.969754" lon="-15.579932">
        <ele>1755.87</ele>
        <time>2018-02-17T10:26:27Z</time>
      </trkpt>
      <trkpt lat="27.969748" lon="-15.579962">
        <ele>1755.40</ele>
        <time>2018-02-17T10:26:28Z</time>
      </trkpt>
      <trkpt lat="27.969747" lon="-15.579995">
        <ele>1755.40</ele>
        <time>2018-02-17T10:26:29Z</time>
      </trkpt>
      <trkpt lat="27.969746" lon="-15.580034">
        <ele>1755.17</ele>
        <time>2018-02-17T10:26:30Z</time>
      </trkpt>
      <trkpt lat="27.969748" lon="-15.580072">
        <ele>1754.28</ele>
        <time>2018-02-17T10:26:31Z</time>
      </trkpt>
      <trkpt lat="27.969748" lon="-15.580105">
        <ele>1754.04</ele>
        <time>2018-02-17T10:26:32Z</time>
      </trkpt>
      <trkpt lat="27.969744" lon="-15.580140">
        <ele>1753.36</ele>
        <time>2018-02-17T10:26:33Z</time>
      </trkpt>
      <trkpt lat="27.969737" lon="-15.580175">
        <ele>1753.08</ele>
        <time>2018-02-17T10:26:34Z</time>
      </trkpt>
      <trkpt lat="27.969729" lon="-15.580207">
        <ele>1752.58</ele>
        <time>2018-02-17T10:26:35Z</time>
      </trkpt>
      <trkpt lat="27.969724" lon="-15.580234">
        <ele>1752.50</ele>
        <time>2018-02-17T10:26:36Z</time>
      </trkpt>
      <trkpt lat="27.969719" lon="-15.580272">
        <ele>1752.50</ele>
        <time>2018-02-17T10:26:37Z</time>
      </trkpt>
      <trkpt lat="27.969714" lon="-15.580293">
        <ele>1752.50</ele>
        <time>2018-02-17T10:26:38Z</time>
      </trkpt>
      <trkpt lat="27.969709" lon="-15.580317">
        <ele>1752.40</ele>
        <time>2018-02-17T10:26:39Z</time>
      </trkpt>
      <trkpt lat="27.969702" lon="-15.580341">
        <ele>1751.82</ele>
        <time>2018-02-17T10:26:40Z</time>
      </trkpt>
      <trkpt lat="27.969695" lon="-15.580368">
        <ele>1751.04</ele>
        <time>2018-02-17T10:26:41Z</time>
      </trkpt>
      <trkpt lat="27.969687" lon="-15.580398">
        <ele>1750.76</ele>
        <time>2018-02-17T10:26:42Z</time>
      </trkpt>
      <trkpt lat="27.969679" lon="-15.580428">
        <ele>1750.54</ele>
        <time>2018-02-17T10:26:43Z</time>
      </trkpt>
      <trkpt lat="27.969672" lon="-15.580454">
        <ele>1750.17</ele>
        <time>2018-02-17T10:26:44Z</time>
      </trkpt>
      <trkpt lat="27.969662" lon="-15.580482">
        <ele>1749.52</ele>
        <time>2018-02-17T10:26:45Z</time>
      </trkpt>
      <trkpt lat="27.969650" lon="-15.580515">
        <ele>1749.16</ele>
        <time>2018-02-17T10:26:46Z</time>
      </trkpt>
      <trkpt lat="27.969640" lon="-15.580538">
        <ele>1748.87</ele>
        <time>2018-02-17T10:26:47Z</time>
      </trkpt>
      <trkpt lat="27.969629" lon="-15.580558">
        <ele>1748.28</ele>
        <time>2018-02-17T10:26:48Z</time>
      </trkpt>
      <trkpt lat="27.969618" lon="-15.580582">
        <ele>1748.20</ele>
        <time>2018-02-17T10:26:49Z</time>
      </trkpt>
      <trkpt lat="27.969605" lon="-15.580604">
        <ele>1748.20</ele>
        <time>2018-02-17T10:26:50Z</time>
      </trkpt>
      <trkpt lat="27.969591" lon="-15.580627">
        <ele>1748.20</ele>
        <time>2018-02-17T10:26:51Z</time>
      </trkpt>
      <trkpt lat="27.969573" lon="-15.580650">
        <ele>1748.13</ele>
        <time>2018-02-17T10:26:52Z</time>
      </trkpt>
      <trkpt lat="27.969552" lon="-15.580670">
        <ele>1747.61</ele>
        <time>2018-02-17T10:26:53Z</time>
      </trkpt>
      <trkpt lat="27.969533" lon="-15.580691">
        <ele>1746.63</ele>
        <time>2018-02-17T10:26:54Z</time>
      </trkpt>
      <trkpt lat="27.969507" lon="-15.580708">
        <ele>1746.23</ele>
        <time>2018-02-17T10:26:55Z</time>
      </trkpt>
      <trkpt lat="27.969483" lon="-15.580720">
        <ele>1745.90</ele>
        <time>2018-02-17T10:26:56Z</time>
      </trkpt>
      <trkpt lat="27.969465" lon="-15.580727">
        <ele>1745.90</ele>
        <time>2018-02-17T10:26:57Z</time>
      </trkpt>
      <trkpt lat="27.969443" lon="-15.580728">
        <ele>1745.63</ele>
        <time>2018-02-17T10:26:58Z</time>
      </trkpt>
      <trkpt lat="27.969420" lon="-15.580728">
        <ele>1744.12</ele>
        <time>2018-02-17T10:26:59Z</time>
      </trkpt>
      <trkpt lat="27.969394" lon="-15.580731">
        <ele>1743.62</ele>
        <time>2018-02-17T10:27:00Z</time>
      </trkpt>
      <trkpt lat="27.969367" lon="-15.580738">
        <ele>1743.20</ele>
        <time>2018-02-17T10:27:01Z</time>
      </trkpt>
      <trkpt lat="27.969340" lon="-15.580747">
        <ele>1743.17</ele>
        <time>2018-02-17T10:27:02Z</time>
      </trkpt>
      <trkpt lat="27.969313" lon="-15.580761">
        <ele>1743.00</ele>
        <time>2018-02-17T10:27:03Z</time>
      </trkpt>
      <trkpt lat="27.969290" lon="-15.580782">
        <ele>1742.99</ele>
        <time>2018-02-17T10:27:04Z</time>
      </trkpt>
      <trkpt lat="27.969271" lon="-15.580811">
        <ele>1742.83</ele>
        <time>2018-02-17T10:27:05Z</time>
      </trkpt>
      <trkpt lat="27.969257" lon="-15.580846">
        <ele>1742.40</ele>
        <time>2018-02-17T10:27:06Z</time>
      </trkpt>
      <trkpt lat="27.969263" lon="-15.580881">
        <ele>1742.22</ele>
        <time>2018-02-17T10:27:07Z</time>
      </trkpt>
      <trkpt lat="27.969282" lon="-15.580915">
        <ele>1741.00</ele>
        <time>2018-02-17T10:27:08Z</time>
      </trkpt>
      <trkpt lat="27.969303" lon="-15.580950">
        <ele>1740.94</ele>
        <time>2018-02-17T10:27:09Z</time>
      </trkpt>
      <trkpt lat="27.969326" lon="-15.580978">
        <ele>1740.60</ele>
        <time>2018-02-17T10:27:10Z</time>
      </trkpt>
      <trkpt lat="27.969356" lon="-15.580999">
        <ele>1740.60</ele>
        <time>2018-02-17T10:27:11Z</time>
      </trkpt>
      <trkpt lat="27.969382" lon="-15.581014">
        <ele>1740.52</ele>
        <time>2018-02-17T10:27:12Z</time>
      </trkpt>
      <trkpt lat="27.969409" lon="-15.581029">
        <ele>1740.01</ele>
        <time>2018-02-17T10:27:13Z</time>
      </trkpt>
      <trkpt lat="27.969438" lon="-15.581044">
        <ele>1739.45</ele>
        <time>2018-02-17T10:27:14Z</time>
      </trkpt>
      <trkpt lat="27.969465" lon="-15.581057">
        <ele>1739.20</ele>
        <time>2018-02-17T10:27:15Z</time>
      </trkpt>
      <trkpt lat="27.969499" lon="-15.581067">
        <ele>1739.18</ele>
        <time>2018-02-17T10:27:16Z</time>
      </trkpt>
      <trkpt lat="27.969525" lon="-15.581076">
        <ele>1739.10</ele>
        <time>2018-02-17T10:27:17Z</time>
      </trkpt>
      <trkpt lat="27.969552" lon="-15.581087">
        <ele>1738.89</ele>
        <time>2018-02-17T10:27:18Z</time>
      </trkpt>
      <trkpt lat="27.969578" lon="-15.581098">
        <ele>1737.80</ele>
        <time>2018-02-17T10:27:19Z</time>
      </trkpt>
      <trkpt lat="27.969605" lon="-15.581105">
        <ele>1737.78</ele>
        <time>2018-02-17T10:27:20Z</time>
      </trkpt>
      <trkpt lat="27.969629" lon="-15.581111">
        <ele>1737.67</ele>
        <time>2018-02-17T10:27:21Z</time>
      </trkpt>
      <trkpt lat="27.969651" lon="-15.581118">
        <ele>1737.47</ele>
        <time>2018-02-17T10:27:22Z</time>
      </trkpt>
      <trkpt lat="27.969669" lon="-15.581130">
        <ele>1737.30</ele>
        <time>2018-02-17T10:27:23Z</time>
      </trkpt>
      <trkpt lat="27.969670" lon="-15.581165">
        <ele>1737.30</ele>
        <time>2018-02-17T10:27:25Z</time>
      </trkpt>
      <trkpt lat="27.969645" lon="-15.581181">
        <ele>1737.29</ele>
        <time>2018-02-17T10:27:26Z</time>
      </trkpt>
      <trkpt lat="27.969620" lon="-15.581189">
        <ele>1737.14</ele>
        <time>2018-02-17T10:27:27Z</time>
      </trkpt>
      <trkpt lat="27.969594" lon="-15.581195">
        <ele>1736.74</ele>
        <time>2018-02-17T10:27:28Z</time>
      </trkpt>
      <trkpt lat="27.969567" lon="-15.581191">
        <ele>1736.26</ele>
        <time>2018-02-17T10:27:29Z</time>
      </trkpt>
      <trkpt lat="27.969535" lon="-15.581192">
        <ele>1735.37</ele>
        <time>2018-02-17T10:27:30Z</time>
      </trkpt>
      <trkpt lat="27.969505" lon="-15.581194">
        <ele>1735.19</ele>
        <time>2018-02-17T10:27:31Z</time>
      </trkpt>
      <trkpt lat="27.969479" lon="-15.581199">
        <ele>1735.03</ele>
        <time>2018-02-17T10:27:32Z</time>
      </trkpt>
      <trkpt lat="27.969455" lon="-15.581200">
        <ele>1734.55</ele>
        <time>2018-02-17T10:27:33Z</time>
      </trkpt>
      <trkpt lat="27.969432" lon="-15.581200">
        <ele>1734.20</ele>
        <time>2018-02-17T10:27:34Z</time>
      </trkpt>
      <trkpt lat="27.969406" lon="-15.581203">
        <ele>1734.16</ele>
        <time>2018-02-17T10:27:35Z</time>
      </trkpt>
      <trkpt lat="27.969379" lon="-15.581210">
        <ele>1733.90</ele>
        <time>2018-02-17T10:27:36Z</time>
      </trkpt>
      <trkpt lat="27.969355" lon="-15.581214">
        <ele>1733.80</ele>
        <time>2018-02-17T10:27:37Z</time>
      </trkpt>
      <trkpt lat="27.969330" lon="-15.581216">
        <ele>1733.10</ele>
        <time>2018-02-17T10:27:38Z</time>
      </trkpt>
      <trkpt lat="27.969304" lon="-15.581217">
        <ele>1733.10</ele>
        <time>2018-02-17T10:27:39Z</time>
      </trkpt>
      <trkpt lat="27.969278" lon="-15.581218">
        <ele>1733.10</ele>
        <time>2018-02-17T10:27:40Z</time>
      </trkpt>
      <trkpt lat="27.969250" lon="-15.581221">
        <ele>1733.10</ele>
        <time>2018-02-17T10:27:41Z</time>
      </trkpt>
      <trkpt lat="27.969225" lon="-15.581227">
        <ele>1733.09</ele>
        <time>2018-02-17T10:27:42Z</time>
      </trkpt>
      <trkpt lat="27.969202" lon="-15.581230">
        <ele>1732.98</ele>
        <time>2018-02-17T10:27:43Z</time>
      </trkpt>
      <trkpt lat="27.969180" lon="-15.581234">
        <ele>1732.70</ele>
        <time>2018-02-17T10:27:44Z</time>
      </trkpt>
      <trkpt lat="27.969156" lon="-15.581235">
        <ele>1732.00</ele>
        <time>2018-02-17T10:27:45Z</time>
      </trkpt>
      <trkpt lat="27.969134" lon="-15.581235">
        <ele>1731.99</ele>
        <time>2018-02-17T10:27:46Z</time>
      </trkpt>
      <trkpt lat="27.969114" lon="-15.581230">
        <ele>1731.90</ele>
        <time>2018-02-17T10:27:47Z</time>
      </trkpt>
      <trkpt lat="27.969092" lon="-15.581223">
        <ele>1731.90</ele>
        <time>2018-02-17T10:27:48Z</time>
      </trkpt>
      <trkpt lat="27.969062" lon="-15.581200">
        <ele>1731.90</ele>
        <time>2018-02-17T10:27:50Z</time>
      </trkpt>
      <trkpt lat="27.969044" lon="-15.581188">
        <ele>1731.97</ele>
        <time>2018-02-17T10:27:51Z</time>
      </trkpt>
      <trkpt lat="27.969026" lon="-15.581175">
        <ele>1732.33</ele>
        <time>2018-02-17T10:27:52Z</time>
      </trkpt>
      <trkpt lat="27.969007" lon="-15.581162">
        <ele>1731.90</ele>
        <time>2018-02-17T10:27:53Z</time>
      </trkpt>
      <trkpt lat="27.968988" lon="-15.581156">
        <ele>1731.90</ele>
        <time>2018-02-17T10:27:54Z</time>
      </trkpt>
      <trkpt lat="27.968971" lon="-15.581150">
        <ele>1731.90</ele>
        <time>2018-02-17T10:27:55Z</time>
      </trkpt>
      <trkpt lat="27.968952" lon="-15.581144">
        <ele>1731.75</ele>
        <time>2018-02-17T10:27:56Z</time>
      </trkpt>
      <trkpt lat="27.968936" lon="-15.581122">
        <ele>1731.74</ele>
        <time>2018-02-17T10:27:58Z</time>
      </trkpt>
      <trkpt lat="27.968937" lon="-15.581098">
        <ele>1729.60</ele>
        <time>2018-02-17T10:28:01Z</time>
      </trkpt>
      <trkpt lat="27.968955" lon="-15.581075">
        <ele>1730.44</ele>
        <time>2018-02-17T10:28:03Z</time>
      </trkpt>
      <trkpt lat="27.968968" lon="-15.581054">
        <ele>1730.70</ele>
        <time>2018-02-17T10:28:05Z</time>
      </trkpt>
      <trkpt lat="27.968967" lon="-15.581031">
        <ele>1730.70</ele>
        <time>2018-02-17T10:28:07Z</time>
      </trkpt>
      <trkpt lat="27.968961" lon="-15.581011">
        <ele>1730.23</ele>
        <time>2018-02-17T10:28:09Z</time>
      </trkpt>
      <trkpt lat="27.968964" lon="-15.580976">
        <ele>1729.60</ele>
        <time>2018-02-17T10:28:12Z</time>
      </trkpt>
      <trkpt lat="27.968960" lon="-15.580946">
        <ele>1729.70</ele>
        <time>2018-02-17T10:28:14Z</time>
      </trkpt>
      <trkpt lat="27.968956" lon="-15.580917">
        <ele>1729.59</ele>
        <time>2018-02-17T10:28:16Z</time>
      </trkpt>
      <trkpt lat="27.968956" lon="-15.580883">
        <ele>1729.40</ele>
        <time>2018-02-17T10:28:18Z</time>
      </trkpt>
      <trkpt lat="27.968961" lon="-15.580852">
        <ele>1728.47</ele>
        <time>2018-02-17T10:28:21Z</time>
      </trkpt>
      <trkpt lat="27.968964" lon="-15.580825">
        <ele>1727.88</ele>
        <time>2018-02-17T10:28:23Z</time>
      </trkpt>
      <trkpt lat="27.968962" lon="-15.580790">
        <ele>1727.67</ele>
        <time>2018-02-17T10:28:25Z</time>
      </trkpt>
      <trkpt lat="27.968966" lon="-15.580752">
        <ele>1727.41</ele>
        <time>2018-02-17T10:28:27Z</time>
      </trkpt>
      <trkpt lat="27.968969" lon="-15.580725">
        <ele>1727.50</ele>
        <time>2018-02-17T10:28:28Z</time>
      </trkpt>
      <trkpt lat="27.968972" lon="-15.580700">
        <ele>1727.49</ele>
        <time>2018-02-17T10:28:29Z</time>
      </trkpt>
      <trkpt lat="27.968970" lon="-15.580676">
        <ele>1727.40</ele>
        <time>2018-02-17T10:28:30Z</time>
      </trkpt>
      <trkpt lat="27.968966" lon="-15.580656">
        <ele>1727.40</ele>
        <time>2018-02-17T10:28:31Z</time>
      </trkpt>
      <trkpt lat="27.968964" lon="-15.580622">
        <ele>1727.27</ele>
        <time>2018-02-17T10:28:33Z</time>
      </trkpt>
      <trkpt lat="27.968962" lon="-15.580592">
        <ele>1726.70</ele>
        <time>2018-02-17T10:28:35Z</time>
      </trkpt>
      <trkpt lat="27.968956" lon="-15.580572">
        <ele>1726.69</ele>
        <time>2018-02-17T10:28:36Z</time>
      </trkpt>
      <trkpt lat="27.968950" lon="-15.580549">
        <ele>1726.60</ele>
        <time>2018-02-17T10:28:37Z</time>
      </trkpt>
      <trkpt lat="27.968939" lon="-15.580529">
        <ele>1726.60</ele>
        <time>2018-02-17T10:28:38Z</time>
      </trkpt>
      <trkpt lat="27.968944" lon="-15.580497">
        <ele>1726.62</ele>
        <time>2018-02-17T10:28:40Z</time>
      </trkpt>
      <trkpt lat="27.968951" lon="-15.580466">
        <ele>1727.30</ele>
        <time>2018-02-17T10:28:42Z</time>
      </trkpt>
      <trkpt lat="27.968956" lon="-15.580445">
        <ele>1727.30</ele>
        <time>2018-02-17T10:28:43Z</time>
      </trkpt>
      <trkpt lat="27.968963" lon="-15.580411">
        <ele>1727.27</ele>
        <time>2018-02-17T10:28:45Z</time>
      </trkpt>
      <trkpt lat="27.968972" lon="-15.580388">
        <ele>1726.10</ele>
        <time>2018-02-17T10:28:47Z</time>
      </trkpt>
      <trkpt lat="27.968979" lon="-15.580368">
        <ele>1725.80</ele>
        <time>2018-02-17T10:28:49Z</time>
      </trkpt>
      <trkpt lat="27.968991" lon="-15.580344">
        <ele>1725.29</ele>
        <time>2018-02-17T10:28:51Z</time>
      </trkpt>
      <trkpt lat="27.969004" lon="-15.580328">
        <ele>1724.90</ele>
        <time>2018-02-17T10:28:52Z</time>
      </trkpt>
      <trkpt lat="27.969029" lon="-15.580303">
        <ele>1725.29</ele>
        <time>2018-02-17T10:28:54Z</time>
      </trkpt>
      <trkpt lat="27.969041" lon="-15.580282">
        <ele>1724.92</ele>
        <time>2018-02-17T10:28:56Z</time>
      </trkpt>
      <trkpt lat="27.969050" lon="-15.580257">
        <ele>1725.60</ele>
        <time>2018-02-17T10:28:58Z</time>
      </trkpt>
      <trkpt lat="27.969046" lon="-15.580229">
        <ele>1723.80</ele>
        <time>2018-02-17T10:29:00Z</time>
      </trkpt>
      <trkpt lat="27.969020" lon="-15.580207">
        <ele>1723.60</ele>
        <time>2018-02-17T10:29:02Z</time>
      </trkpt>
      <trkpt lat="27.968992" lon="-15.580202">
        <ele>1723.50</ele>
        <time>2018-02-17T10:29:04Z</time>
      </trkpt>
      <trkpt lat="27.968962" lon="-15.580207">
        <ele>1723.80</ele>
        <time>2018-02-17T10:29:06Z</time>
      </trkpt>
      <trkpt lat="27.968936" lon="-15.580222">
        <ele>1722.70</ele>
        <time>2018-02-17T10:29:08Z</time>
      </trkpt>
      <trkpt lat="27.968912" lon="-15.580234">
        <ele>1723.79</ele>
        <time>2018-02-17T10:29:10Z</time>
      </trkpt>
      <trkpt lat="27.968893" lon="-15.580247">
        <ele>1722.70</ele>
        <time>2018-02-17T10:29:12Z</time>
      </trkpt>
      <trkpt lat="27.968878" lon="-15.580259">
        <ele>1722.40</ele>
        <time>2018-02-17T10:29:13Z</time>
      </trkpt>
      <trkpt lat="27.968868" lon="-15.580278">
        <ele>1722.40</ele>
        <time>2018-02-17T10:29:14Z</time>
      </trkpt>
      <trkpt lat="27.968848" lon="-15.580282">
        <ele>1722.10</ele>
        <time>2018-02-17T10:29:16Z</time>
      </trkpt>
      <trkpt lat="27.968830" lon="-15.580301">
        <ele>1721.40</ele>
        <time>2018-02-17T10:29:18Z</time>
      </trkpt>
      <trkpt lat="27.968813" lon="-15.580326">
        <ele>1721.30</ele>
        <time>2018-02-17T10:29:20Z</time>
      </trkpt>
      <trkpt lat="27.968793" lon="-15.580357">
        <ele>1721.30</ele>
        <time>2018-02-17T10:29:22Z</time>
      </trkpt>
      <trkpt lat="27.968773" lon="-15.580375">
        <ele>1721.30</ele>
        <time>2018-02-17T10:29:24Z</time>
      </trkpt>
      <trkpt lat="27.968759" lon="-15.580390">
        <ele>1720.70</ele>
        <time>2018-02-17T10:29:25Z</time>
      </trkpt>
      <trkpt lat="27.968746" lon="-15.580409">
        <ele>1720.70</ele>
        <time>2018-02-17T10:29:26Z</time>
      </trkpt>
      <trkpt lat="27.968729" lon="-15.580448">
        <ele>1720.60</ele>
        <time>2018-02-17T10:29:28Z</time>
      </trkpt>
      <trkpt lat="27.968714" lon="-15.580473">
        <ele>1720.40</ele>
        <time>2018-02-17T10:29:29Z</time>
      </trkpt>
      <trkpt lat="27.968700" lon="-15.580493">
        <ele>1720.60</ele>
        <time>2018-02-17T10:29:30Z</time>
      </trkpt>
      <trkpt lat="27.968689" lon="-15.580518">
        <ele>1720.40</ele>
        <time>2018-02-17T10:29:31Z</time>
      </trkpt>
      <trkpt lat="27.968680" lon="-15.580539">
        <ele>1720.79</ele>
        <time>2018-02-17T10:29:32Z</time>
      </trkpt>
      <trkpt lat="27.968669" lon="-15.580562">
        <ele>1720.41</ele>
        <time>2018-02-17T10:29:33Z</time>
      </trkpt>
      <trkpt lat="27.968662" lon="-15.580582">
        <ele>1720.30</ele>
        <time>2018-02-17T10:29:34Z</time>
      </trkpt>
      <trkpt lat="27.968653" lon="-15.580607">
        <ele>1720.40</ele>
        <time>2018-02-17T10:29:35Z</time>
      </trkpt>
      <trkpt lat="27.968643" lon="-15.580630">
        <ele>1720.30</ele>
        <time>2018-02-17T10:29:36Z</time>
      </trkpt>
      <trkpt lat="27.968631" lon="-15.580649">
        <ele>1720.20</ele>
        <time>2018-02-17T10:29:37Z</time>
      </trkpt>
      <trkpt lat="27.968619" lon="-15.580674">
        <ele>1720.20</ele>
        <time>2018-02-17T10:29:38Z</time>
      </trkpt>
      <trkpt lat="27.968610" lon="-15.580698">
        <ele>1720.10</ele>
        <time>2018-02-17T10:29:39Z</time>
      </trkpt>
      <trkpt lat="27.968600" lon="-15.580726">
        <ele>1720.10</ele>
        <time>2018-02-17T10:29:40Z</time>
      </trkpt>
      <trkpt lat="27.968589" lon="-15.580752">
        <ele>1719.52</ele>
        <time>2018-02-17T10:29:41Z</time>
      </trkpt>
      <trkpt lat="27.968577" lon="-15.580779">
        <ele>1719.40</ele>
        <time>2018-02-17T10:29:42Z</time>
      </trkpt>
      <trkpt lat="27.968568" lon="-15.580804">
        <ele>1718.62</ele>
        <time>2018-02-17T10:29:43Z</time>
      </trkpt>
      <trkpt lat="27.968558" lon="-15.580825">
        <ele>1718.60</ele>
        <time>2018-02-17T10:29:44Z</time>
      </trkpt>
      <trkpt lat="27.968547" lon="-15.580856">
        <ele>1718.12</ele>
        <time>2018-02-17T10:29:45Z</time>
      </trkpt>
      <trkpt lat="27.968535" lon="-15.580883">
        <ele>1717.91</ele>
        <time>2018-02-17T10:29:46Z</time>
      </trkpt>
      <trkpt lat="27.968525" lon="-15.580914">
        <ele>1718.09</ele>
        <time>2018-02-17T10:29:47Z</time>
      </trkpt>
      <trkpt lat="27.968514" lon="-15.580945">
        <ele>1717.91</ele>
        <time>2018-02-17T10:29:48Z</time>
      </trkpt>
      <trkpt lat="27.968502" lon="-15.580966">
        <ele>1717.90</ele>
        <time>2018-02-17T10:29:49Z</time>
      </trkpt>
      <trkpt lat="27.968493" lon="-15.580992">
        <ele>1717.90</ele>
        <time>2018-02-17T10:29:50Z</time>
      </trkpt>
      <trkpt lat="27.968484" lon="-15.581014">
        <ele>1717.33</ele>
        <time>2018-02-17T10:29:51Z</time>
      </trkpt>
      <trkpt lat="27.968475" lon="-15.581040">
        <ele>1716.83</ele>
        <time>2018-02-17T10:29:52Z</time>
      </trkpt>
      <trkpt lat="27.968463" lon="-15.581064">
        <ele>1716.23</ele>
        <time>2018-02-17T10:29:53Z</time>
      </trkpt>
      <trkpt lat="27.968451" lon="-15.581088">
        <ele>1716.20</ele>
        <time>2018-02-17T10:29:54Z</time>
      </trkpt>
      <trkpt lat="27.968441" lon="-15.581113">
        <ele>1715.64</ele>
        <time>2018-02-17T10:29:55Z</time>
      </trkpt>
      <trkpt lat="27.968433" lon="-15.581132">
        <ele>1715.60</ele>
        <time>2018-02-17T10:29:56Z</time>
      </trkpt>
      <trkpt lat="27.968421" lon="-15.581156">
        <ele>1715.41</ele>
        <time>2018-02-17T10:29:57Z</time>
      </trkpt>
      <trkpt lat="27.968412" lon="-15.581179">
        <ele>1715.12</ele>
        <time>2018-02-17T10:29:58Z</time>
      </trkpt>
      <trkpt lat="27.968402" lon="-15.581202">
        <ele>1714.82</ele>
        <time>2018-02-17T10:29:59Z</time>
      </trkpt>
      <trkpt lat="27.968386" lon="-15.581237">
        <ele>1714.43</ele>
        <time>2018-02-17T10:30:01Z</time>
      </trkpt>
      <trkpt lat="27.968377" lon="-15.581260">
        <ele>1713.85</ele>
        <time>2018-02-17T10:30:02Z</time>
      </trkpt>
      <trkpt lat="27.968366" lon="-15.581288">
        <ele>1714.07</ele>
        <time>2018-02-17T10:30:03Z</time>
      </trkpt>
      <trkpt lat="27.968358" lon="-15.581315">
        <ele>1713.73</ele>
        <time>2018-02-17T10:30:04Z</time>
      </trkpt>
      <trkpt lat="27.968349" lon="-15.581338">
        <ele>1713.70</ele>
        <time>2018-02-17T10:30:05Z</time>
      </trkpt>
      <trkpt lat="27.968338" lon="-15.581357">
        <ele>1713.70</ele>
        <time>2018-02-17T10:30:06Z</time>
      </trkpt>
      <trkpt lat="27.968326" lon="-15.581380">
        <ele>1713.70</ele>
        <time>2018-02-17T10:30:07Z</time>
      </trkpt>
      <trkpt lat="27.968315" lon="-15.581403">
        <ele>1713.70</ele>
        <time>2018-02-17T10:30:08Z</time>
      </trkpt>
      <trkpt lat="27.968305" lon="-15.581426">
        <ele>1713.34</ele>
        <time>2018-02-17T10:30:09Z</time>
      </trkpt>
      <trkpt lat="27.968298" lon="-15.581452">
        <ele>1713.30</ele>
        <time>2018-02-17T10:30:10Z</time>
      </trkpt>
      <trkpt lat="27.968291" lon="-15.581471">
        <ele>1713.30</ele>
        <time>2018-02-17T10:30:11Z</time>
      </trkpt>
      <trkpt lat="27.968283" lon="-15.581496">
        <ele>1712.49</ele>
        <time>2018-02-17T10:30:12Z</time>
      </trkpt>
      <trkpt lat="27.968278" lon="-15.581522">
        <ele>1713.21</ele>
        <time>2018-02-17T10:30:13Z</time>
      </trkpt>
      <trkpt lat="27.968274" lon="-15.581543">
        <ele>1712.49</ele>
        <time>2018-02-17T10:30:14Z</time>
      </trkpt>
      <trkpt lat="27.968274" lon="-15.581581">
        <ele>1712.40</ele>
        <time>2018-02-17T10:30:16Z</time>
      </trkpt>
      <trkpt lat="27.968272" lon="-15.581602">
        <ele>1711.51</ele>
        <time>2018-02-17T10:30:17Z</time>
      </trkpt>
      <trkpt lat="27.968268" lon="-15.581622">
        <ele>1711.22</ele>
        <time>2018-02-17T10:30:18Z</time>
      </trkpt>
      <trkpt lat="27.968265" lon="-15.581657">
        <ele>1710.60</ele>
        <time>2018-02-17T10:30:20Z</time>
      </trkpt>
      <trkpt lat="27.968250" lon="-15.581694">
        <ele>1710.25</ele>
        <time>2018-02-17T10:30:22Z</time>
      </trkpt>
      <trkpt lat="27.968241" lon="-15.581733">
        <ele>1709.81</ele>
        <time>2018-02-17T10:30:24Z</time>
      </trkpt>
      <trkpt lat="27.968233" lon="-15.581755">
        <ele>1709.70</ele>
        <time>2018-02-17T10:30:26Z</time>
      </trkpt>
      <trkpt lat="27.968230" lon="-15.581720">
        <ele>1708.72</ele>
        <time>2018-02-17T10:30:29Z</time>
      </trkpt>
      <trkpt lat="27.968235" lon="-15.581689">
        <ele>1707.59</ele>
        <time>2018-02-17T10:30:31Z</time>
      </trkpt>
      <trkpt lat="27.968225" lon="-15.581670">
        <ele>1706.92</ele>
        <time>2018-02-17T10:30:41Z</time>
      </trkpt>
      <trkpt lat="27.968225" lon="-15.581642">
        <ele>1706.90</ele>
        <time>2018-02-17T10:30:44Z</time>
      </trkpt>
      <trkpt lat="27.968214" lon="-15.581607">
        <ele>1706.74</ele>
        <time>2018-02-17T10:30:46Z</time>
      </trkpt>
      <trkpt lat="27.968203" lon="-15.581585">
        <ele>1706.70</ele>
        <time>2018-02-17T10:30:47Z</time>
      </trkpt>
      <trkpt lat="27.968196" lon="-15.581564">
        <ele>1706.70</ele>
        <time>2018-02-17T10:30:48Z</time>
      </trkpt>
      <trkpt lat="27.968190" lon="-15.581544">
        <ele>1706.70</ele>
        <time>2018-02-17T10:30:49Z</time>
      </trkpt>
      <trkpt lat="27.968186" lon="-15.581523">
        <ele>1706.70</ele>
        <time>2018-02-17T10:30:50Z</time>
      </trkpt>
      <trkpt lat="27.968182" lon="-15.581490">
        <ele>1706.79</ele>
        <time>2018-02-17T10:30:52Z</time>
      </trkpt>
      <trkpt lat="27.968174" lon="-15.581454">
        <ele>1706.39</ele>
        <time>2018-02-17T10:30:54Z</time>
      </trkpt>
      <trkpt lat="27.968169" lon="-15.581420">
        <ele>1706.00</ele>
        <time>2018-02-17T10:30:56Z</time>
      </trkpt>
      <trkpt lat="27.968168" lon="-15.581393">
        <ele>1705.39</ele>
        <time>2018-02-17T10:30:58Z</time>
      </trkpt>
      <trkpt lat="27.968173" lon="-15.581371">
        <ele>1704.97</ele>
        <time>2018-02-17T10:31:00Z</time>
      </trkpt>
      <trkpt lat="27.968183" lon="-15.581344">
        <ele>1704.19</ele>
        <time>2018-02-17T10:31:02Z</time>
      </trkpt>
      <trkpt lat="27.968192" lon="-15.581312">
        <ele>1704.02</ele>
        <time>2018-02-17T10:31:04Z</time>
      </trkpt>
      <trkpt lat="27.968199" lon="-15.581286">
        <ele>1703.80</ele>
        <time>2018-02-17T10:31:06Z</time>
      </trkpt>
      <trkpt lat="27.968197" lon="-15.581249">
        <ele>1703.62</ele>
        <time>2018-02-17T10:31:08Z</time>
      </trkpt>
      <trkpt lat="27.968190" lon="-15.581224">
        <ele>1703.60</ele>
        <time>2018-02-17T10:31:10Z</time>
      </trkpt>
      <trkpt lat="27.968173" lon="-15.581208">
        <ele>1703.70</ele>
        <time>2018-02-17T10:31:13Z</time>
      </trkpt>
      <trkpt lat="27.968155" lon="-15.581196">
        <ele>1703.67</ele>
        <time>2018-02-17T10:31:15Z</time>
      </trkpt>
      <trkpt lat="27.968136" lon="-15.581170">
        <ele>1703.60</ele>
        <time>2018-02-17T10:31:17Z</time>
      </trkpt>
      <trkpt lat="27.968118" lon="-15.581155">
        <ele>1703.50</ele>
        <time>2018-02-17T10:31:19Z</time>
      </trkpt>
      <trkpt lat="27.968106" lon="-15.581131">
        <ele>1701.64</ele>
        <time>2018-02-17T10:31:22Z</time>
      </trkpt>
      <trkpt lat="27.968081" lon="-15.581105">
        <ele>1700.93</ele>
        <time>2018-02-17T10:31:24Z</time>
      </trkpt>
      <trkpt lat="27.968065" lon="-15.581088">
        <ele>1701.27</ele>
        <time>2018-02-17T10:31:25Z</time>
      </trkpt>
      <trkpt lat="27.968052" lon="-15.581070">
        <ele>1700.93</ele>
        <time>2018-02-17T10:31:26Z</time>
      </trkpt>
      <trkpt lat="27.968048" lon="-15.581037">
        <ele>1700.35</ele>
        <time>2018-02-17T10:31:28Z</time>
      </trkpt>
      <trkpt lat="27.968052" lon="-15.580996">
        <ele>1700.34</ele>
        <time>2018-02-17T10:31:30Z</time>
      </trkpt>
      <trkpt lat="27.968058" lon="-15.580975">
        <ele>1700.40</ele>
        <time>2018-02-17T10:31:31Z</time>
      </trkpt>
      <trkpt lat="27.968061" lon="-15.580951">
        <ele>1700.26</ele>
        <time>2018-02-17T10:31:32Z</time>
      </trkpt>
      <trkpt lat="27.968060" lon="-15.580925">
        <ele>1700.34</ele>
        <time>2018-02-17T10:31:33Z</time>
      </trkpt>
      <trkpt lat="27.968062" lon="-15.580898">
        <ele>1700.40</ele>
        <time>2018-02-17T10:31:34Z</time>
      </trkpt>
      <trkpt lat="27.968062" lon="-15.580870">
        <ele>1700.40</ele>
        <time>2018-02-17T10:31:35Z</time>
      </trkpt>
      <trkpt lat="27.968069" lon="-15.580833">
        <ele>1700.13</ele>
        <time>2018-02-17T10:31:37Z</time>
      </trkpt>
      <trkpt lat="27.968073" lon="-15.580801">
        <ele>1700.00</ele>
        <time>2018-02-17T10:31:39Z</time>
      </trkpt>
      <trkpt lat="27.968074" lon="-15.580776">
        <ele>1699.50</ele>
        <time>2018-02-17T10:31:41Z</time>
      </trkpt>
      <trkpt lat="27.968075" lon="-15.580745">
        <ele>1699.30</ele>
        <time>2018-02-17T10:31:43Z</time>
      </trkpt>
      <trkpt lat="27.968077" lon="-15.580709">
        <ele>1699.30</ele>
        <time>2018-02-17T10:31:45Z</time>
      </trkpt>
      <trkpt lat="27.968075" lon="-15.580676">
        <ele>1699.00</ele>
        <time>2018-02-17T10:31:47Z</time>
      </trkpt>
      <trkpt lat="27.968063" lon="-15.580660">
        <ele>1699.00</ele>
        <time>2018-02-17T10:31:49Z</time>
      </trkpt>
      <trkpt lat="27.968045" lon="-15.580645">
        <ele>1699.00</ele>
        <time>2018-02-17T10:31:51Z</time>
      </trkpt>
      <trkpt lat="27.968029" lon="-15.580632">
        <ele>1699.00</ele>
        <time>2018-02-17T10:31:52Z</time>
      </trkpt>
      <trkpt lat="27.968017" lon="-15.580599">
        <ele>1698.84</ele>
        <time>2018-02-17T10:31:54Z</time>
      </trkpt>
      <trkpt lat="27.968018" lon="-15.580578">
        <ele>1698.55</ele>
        <time>2018-02-17T10:31:55Z</time>
      </trkpt>
      <trkpt lat="27.968017" lon="-15.580557">
        <ele>1698.08</ele>
        <time>2018-02-17T10:31:56Z</time>
      </trkpt>
      <trkpt lat="27.968014" lon="-15.580529">
        <ele>1697.80</ele>
        <time>2018-02-17T10:31:58Z</time>
      </trkpt>
      <trkpt lat="27.968011" lon="-15.580497">
        <ele>1697.80</ele>
        <time>2018-02-17T10:32:00Z</time>
      </trkpt>
      <trkpt lat="27.968014" lon="-15.580477">
        <ele>1697.80</ele>
        <time>2018-02-17T10:32:01Z</time>
      </trkpt>
      <trkpt lat="27.968012" lon="-15.580448">
        <ele>1697.84</ele>
        <time>2018-02-17T10:32:03Z</time>
      </trkpt>
      <trkpt lat="27.968014" lon="-15.580422">
        <ele>1697.74</ele>
        <time>2018-02-17T10:32:05Z</time>
      </trkpt>
      <trkpt lat="27.968010" lon="-15.580392">
        <ele>1697.76</ele>
        <time>2018-02-17T10:32:07Z</time>
      </trkpt>
      <trkpt lat="27.967999" lon="-15.580357">
        <ele>1697.80</ele>
        <time>2018-02-17T10:32:09Z</time>
      </trkpt>
      <trkpt lat="27.967992" lon="-15.580329">
        <ele>1698.16</ele>
        <time>2018-02-17T10:32:11Z</time>
      </trkpt>
      <trkpt lat="27.967982" lon="-15.580311">
        <ele>1698.68</ele>
        <time>2018-02-17T10:32:13Z</time>
      </trkpt>
      <trkpt lat="27.967962" lon="-15.580294">
        <ele>1698.80</ele>
        <time>2018-02-17T10:32:15Z</time>
      </trkpt>
      <trkpt lat="27.967932" lon="-15.580276">
        <ele>1698.63</ele>
        <time>2018-02-17T10:32:17Z</time>
      </trkpt>
      <trkpt lat="27.967908" lon="-15.580259">
        <ele>1698.04</ele>
        <time>2018-02-17T10:32:19Z</time>
      </trkpt>
      <trkpt lat="27.967868" lon="-15.580236">
        <ele>1697.50</ele>
        <time>2018-02-17T10:32:22Z</time>
      </trkpt>
      <trkpt lat="27.967843" lon="-15.580219">
        <ele>1698.07</ele>
        <time>2018-02-17T10:32:24Z</time>
      </trkpt>
      <trkpt lat="27.967825" lon="-15.580216">
        <ele>1698.61</ele>
        <time>2018-02-17T10:32:25Z</time>
      </trkpt>
      <trkpt lat="27.967798" lon="-15.580204">
        <ele>1698.81</ele>
        <time>2018-02-17T10:32:27Z</time>
      </trkpt>
      <trkpt lat="27.967778" lon="-15.580196">
        <ele>1698.79</ele>
        <time>2018-02-17T10:32:29Z</time>
      </trkpt>
      <trkpt lat="27.967752" lon="-15.580183">
        <ele>1698.09</ele>
        <time>2018-02-17T10:32:31Z</time>
      </trkpt>
      <trkpt lat="27.967728" lon="-15.580175">
        <ele>1697.60</ele>
        <time>2018-02-17T10:32:33Z</time>
      </trkpt>
      <trkpt lat="27.967703" lon="-15.580162">
        <ele>1697.50</ele>
        <time>2018-02-17T10:32:35Z</time>
      </trkpt>
      <trkpt lat="27.967685" lon="-15.580138">
        <ele>1697.14</ele>
        <time>2018-02-17T10:32:38Z</time>
      </trkpt>
      <trkpt lat="27.967666" lon="-15.580120">
        <ele>1696.90</ele>
        <time>2018-02-17T10:32:40Z</time>
      </trkpt>
      <trkpt lat="27.967657" lon="-15.580098">
        <ele>1696.95</ele>
        <time>2018-02-17T10:32:42Z</time>
      </trkpt>
      <trkpt lat="27.967641" lon="-15.580073">
        <ele>1697.00</ele>
        <time>2018-02-17T10:32:44Z</time>
      </trkpt>
      <trkpt lat="27.967613" lon="-15.580050">
        <ele>1697.00</ele>
        <time>2018-02-17T10:32:46Z</time>
      </trkpt>
      <trkpt lat="27.967596" lon="-15.580036">
        <ele>1697.10</ele>
        <time>2018-02-17T10:32:47Z</time>
      </trkpt>
      <trkpt lat="27.967583" lon="-15.580020">
        <ele>1697.10</ele>
        <time>2018-02-17T10:32:48Z</time>
      </trkpt>
      <trkpt lat="27.967560" lon="-15.580002">
        <ele>1697.05</ele>
        <time>2018-02-17T10:32:50Z</time>
      </trkpt>
      <trkpt lat="27.967536" lon="-15.579987">
        <ele>1697.35</ele>
        <time>2018-02-17T10:32:52Z</time>
      </trkpt>
      <trkpt lat="27.967514" lon="-15.579957">
        <ele>1697.30</ele>
        <time>2018-02-17T10:32:54Z</time>
      </trkpt>
      <trkpt lat="27.967494" lon="-15.579940">
        <ele>1697.20</ele>
        <time>2018-02-17T10:32:56Z</time>
      </trkpt>
      <trkpt lat="27.967477" lon="-15.579925">
        <ele>1697.11</ele>
        <time>2018-02-17T10:32:58Z</time>
      </trkpt>
      <trkpt lat="27.967458" lon="-15.579900">
        <ele>1697.00</ele>
        <time>2018-02-17T10:33:00Z</time>
      </trkpt>
      <trkpt lat="27.967452" lon="-15.579874">
        <ele>1697.05</ele>
        <time>2018-02-17T10:33:02Z</time>
      </trkpt>
      <trkpt lat="27.967445" lon="-15.579850">
        <ele>1697.19</ele>
        <time>2018-02-17T10:33:04Z</time>
      </trkpt>
      <trkpt lat="27.967441" lon="-15.579823">
        <ele>1697.50</ele>
        <time>2018-02-17T10:33:06Z</time>
      </trkpt>
      <trkpt lat="27.967446" lon="-15.579801">
        <ele>1697.50</ele>
        <time>2018-02-17T10:33:08Z</time>
      </trkpt>
      <trkpt lat="27.967448" lon="-15.579771">
        <ele>1697.60</ele>
        <time>2018-02-17T10:33:10Z</time>
      </trkpt>
      <trkpt lat="27.967438" lon="-15.579736">
        <ele>1697.60</ele>
        <time>2018-02-17T10:33:13Z</time>
      </trkpt>
      <trkpt lat="27.967397" lon="-15.579638">
        <ele>1698.00</ele>
        <time>2018-02-17T10:33:21Z</time>
      </trkpt>
      <trkpt lat="27.967345" lon="-15.579544">
        <ele>1699.50</ele>
        <time>2018-02-17T10:33:28Z</time>
      </trkpt>
      <trkpt lat="27.967260" lon="-15.579492">
        <ele>1699.00</ele>
        <time>2018-02-17T10:33:34Z</time>
      </trkpt>
      <trkpt lat="27.967225" lon="-15.579395">
        <ele>1700.95</ele>
        <time>2018-02-17T10:33:44Z</time>
      </trkpt>
      <trkpt lat="27.967182" lon="-15.579286">
        <ele>1703.21</ele>
        <time>2018-02-17T10:33:51Z</time>
      </trkpt>
      <trkpt lat="27.967165" lon="-15.579265">
        <ele>1703.70</ele>
        <time>2018-02-17T10:33:53Z</time>
      </trkpt>
      <trkpt lat="27.967156" lon="-15.579236">
        <ele>1703.80</ele>
        <time>2018-02-17T10:33:56Z</time>
      </trkpt>
      <trkpt lat="27.967195" lon="-15.579138">
        <ele>1705.50</ele>
        <time>2018-02-17T10:34:05Z</time>
      </trkpt>
      <trkpt lat="27.967239" lon="-15.579042">
        <ele>1707.14</ele>
        <time>2018-02-17T10:34:16Z</time>
      </trkpt>
      <trkpt lat="27.967265" lon="-15.579023">
        <ele>1707.00</ele>
        <time>2018-02-17T10:34:19Z</time>
      </trkpt>
      <trkpt lat="27.967321" lon="-15.578931">
        <ele>1706.56</ele>
        <time>2018-02-17T10:34:24Z</time>
      </trkpt>
      <trkpt lat="27.967316" lon="-15.578853">
        <ele>1707.40</ele>
        <time>2018-02-17T10:34:28Z</time>
      </trkpt>
      <trkpt lat="27.967300" lon="-15.578837">
        <ele>1706.70</ele>
        <time>2018-02-17T10:34:30Z</time>
      </trkpt>
      <trkpt lat="27.967291" lon="-15.578816">
        <ele>1706.60</ele>
        <time>2018-02-17T10:34:32Z</time>
      </trkpt>
      <trkpt lat="27.967282" lon="-15.578796">
        <ele>1706.60</ele>
        <time>2018-02-17T10:34:34Z</time>
      </trkpt>
      <trkpt lat="27.967282" lon="-15.578765">
        <ele>1707.79</ele>
        <time>2018-02-17T10:34:37Z</time>
      </trkpt>
      <trkpt lat="27.967300" lon="-15.578736">
        <ele>1709.40</ele>
        <time>2018-02-17T10:34:40Z</time>
      </trkpt>
      <trkpt lat="27.967306" lon="-15.578711">
        <ele>1709.32</ele>
        <time>2018-02-17T10:34:42Z</time>
      </trkpt>
      <trkpt lat="27.967254" lon="-15.578626">
        <ele>1709.78</ele>
        <time>2018-02-17T10:34:51Z</time>
      </trkpt>
      <trkpt lat="27.967177" lon="-15.578568">
        <ele>1712.11</ele>
        <time>2018-02-17T10:35:00Z</time>
      </trkpt>
      <trkpt lat="27.967097" lon="-15.578517">
        <ele>1713.73</ele>
        <time>2018-02-17T10:35:08Z</time>
      </trkpt>
      <trkpt lat="27.967001" lon="-15.578488">
        <ele>1716.16</ele>
        <time>2018-02-17T10:35:16Z</time>
      </trkpt>
      <trkpt lat="27.966891" lon="-15.578475">
        <ele>1718.34</ele>
        <time>2018-02-17T10:35:25Z</time>
      </trkpt>
      <trkpt lat="27.966800" lon="-15.578488">
        <ele>1720.41</ele>
        <time>2018-02-17T10:35:32Z</time>
      </trkpt>
      <trkpt lat="27.966756" lon="-15.578487">
        <ele>1720.73</ele>
        <time>2018-02-17T10:35:36Z</time>
      </trkpt>
      <trkpt lat="27.966680" lon="-15.578462">
        <ele>1722.51</ele>
        <time>2018-02-17T10:35:42Z</time>
      </trkpt>
      <trkpt lat="27.966665" lon="-15.578441">
        <ele>1723.60</ele>
        <time>2018-02-17T10:35:44Z</time>
      </trkpt>
      <trkpt lat="27.966634" lon="-15.578434">
        <ele>1723.91</ele>
        <time>2018-02-17T10:35:48Z</time>
      </trkpt>
      <trkpt lat="27.966540" lon="-15.578426">
        <ele>1728.00</ele>
        <time>2018-02-17T10:36:02Z</time>
      </trkpt>
      <trkpt lat="27.966485" lon="-15.578346">
        <ele>1730.34</ele>
        <time>2018-02-17T10:36:14Z</time>
      </trkpt>
      <trkpt lat="27.966474" lon="-15.578325">
        <ele>1731.70</ele>
        <time>2018-02-17T10:36:17Z</time>
      </trkpt>
      <trkpt lat="27.966463" lon="-15.578308">
        <ele>1733.50</ele>
        <time>2018-02-17T10:36:23Z</time>
      </trkpt>
      <trkpt lat="27.966453" lon="-15.578268">
        <ele>1733.72</ele>
        <time>2018-02-17T10:36:26Z</time>
      </trkpt>
      <trkpt lat="27.966486" lon="-15.578172">
        <ele>1737.43</ele>
        <time>2018-02-17T10:36:41Z</time>
      </trkpt>
      <trkpt lat="27.966501" lon="-15.578067">
        <ele>1740.41</ele>
        <time>2018-02-17T10:36:55Z</time>
      </trkpt>
      <trkpt lat="27.966523" lon="-15.578008">
        <ele>1742.89</ele>
        <time>2018-02-17T10:37:02Z</time>
      </trkpt>
      <trkpt lat="27.966555" lon="-15.577960">
        <ele>1743.60</ele>
        <time>2018-02-17T10:37:07Z</time>
      </trkpt>
      <trkpt lat="27.966568" lon="-15.577945">
        <ele>1743.60</ele>
        <time>2018-02-17T10:37:09Z</time>
      </trkpt>
      <trkpt lat="27.966575" lon="-15.577907">
        <ele>1744.80</ele>
        <time>2018-02-17T10:37:13Z</time>
      </trkpt>
      <trkpt lat="27.966572" lon="-15.577862">
        <ele>1745.90</ele>
        <time>2018-02-17T10:37:18Z</time>
      </trkpt>
      <trkpt lat="27.966555" lon="-15.577837">
        <ele>1746.70</ele>
        <time>2018-02-17T10:37:21Z</time>
      </trkpt>
      <trkpt lat="27.966530" lon="-15.577820">
        <ele>1747.30</ele>
        <time>2018-02-17T10:37:23Z</time>
      </trkpt>
      <trkpt lat="27.966498" lon="-15.577803">
        <ele>1748.60</ele>
        <time>2018-02-17T10:37:28Z</time>
      </trkpt>
      <trkpt lat="27.966482" lon="-15.577782">
        <ele>1749.10</ele>
        <time>2018-02-17T10:37:31Z</time>
      </trkpt>
      <trkpt lat="27.966467" lon="-15.577764">
        <ele>1750.10</ele>
        <time>2018-02-17T10:37:34Z</time>
      </trkpt>
      <trkpt lat="27.966445" lon="-15.577744">
        <ele>1750.70</ele>
        <time>2018-02-17T10:37:36Z</time>
      </trkpt>
      <trkpt lat="27.966428" lon="-15.577725">
        <ele>1750.90</ele>
        <time>2018-02-17T10:37:38Z</time>
      </trkpt>
      <trkpt lat="27.966414" lon="-15.577703">
        <ele>1751.69</ele>
        <time>2018-02-17T10:37:41Z</time>
      </trkpt>
      <trkpt lat="27.966414" lon="-15.577683">
        <ele>1752.79</ele>
        <time>2018-02-17T10:37:46Z</time>
      </trkpt>
      <trkpt lat="27.966419" lon="-15.577661">
        <ele>1753.89</ele>
        <time>2018-02-17T10:37:52Z</time>
      </trkpt>
      <trkpt lat="27.966409" lon="-15.577638">
        <ele>1754.39</ele>
        <time>2018-02-17T10:37:54Z</time>
      </trkpt>
      <trkpt lat="27.966391" lon="-15.577626">
        <ele>1756.19</ele>
        <time>2018-02-17T10:37:59Z</time>
      </trkpt>
      <trkpt lat="27.966377" lon="-15.577605">
        <ele>1757.09</ele>
        <time>2018-02-17T10:38:03Z</time>
      </trkpt>
      <trkpt lat="27.966374" lon="-15.577582">
        <ele>1757.19</ele>
        <time>2018-02-17T10:38:05Z</time>
      </trkpt>
      <trkpt lat="27.966366" lon="-15.577561">
        <ele>1758.55</ele>
        <time>2018-02-17T10:38:07Z</time>
      </trkpt>
      <trkpt lat="27.966340" lon="-15.577544">
        <ele>1758.60</ele>
        <time>2018-02-17T10:38:09Z</time>
      </trkpt>
      <trkpt lat="27.966326" lon="-15.577529">
        <ele>1759.38</ele>
        <time>2018-02-17T10:38:12Z</time>
      </trkpt>
      <trkpt lat="27.966334" lon="-15.577505">
        <ele>1760.37</ele>
        <time>2018-02-17T10:38:15Z</time>
      </trkpt>
      <trkpt lat="27.966318" lon="-15.577490">
        <ele>1760.79</ele>
        <time>2018-02-17T10:38:17Z</time>
      </trkpt>
      <trkpt lat="27.966290" lon="-15.577488">
        <ele>1761.17</ele>
        <time>2018-02-17T10:38:19Z</time>
      </trkpt>
      <trkpt lat="27.966283" lon="-15.577468">
        <ele>1761.49</ele>
        <time>2018-02-17T10:38:21Z</time>
      </trkpt>
      <trkpt lat="27.966285" lon="-15.577445">
        <ele>1762.69</ele>
        <time>2018-02-17T10:38:24Z</time>
      </trkpt>
      <trkpt lat="27.966281" lon="-15.577419">
        <ele>1762.89</ele>
        <time>2018-02-17T10:38:26Z</time>
      </trkpt>
      <trkpt lat="27.966266" lon="-15.577408">
        <ele>1763.55</ele>
        <time>2018-02-17T10:38:28Z</time>
      </trkpt>
      <trkpt lat="27.966254" lon="-15.577391">
        <ele>1764.09</ele>
        <time>2018-02-17T10:38:31Z</time>
      </trkpt>
      <trkpt lat="27.966231" lon="-15.577380">
        <ele>1765.77</ele>
        <time>2018-02-17T10:38:36Z</time>
      </trkpt>
      <trkpt lat="27.966209" lon="-15.577363">
        <ele>1765.80</ele>
        <time>2018-02-17T10:38:38Z</time>
      </trkpt>
      <trkpt lat="27.966196" lon="-15.577347">
        <ele>1766.16</ele>
        <time>2018-02-17T10:38:40Z</time>
      </trkpt>
      <trkpt lat="27.966190" lon="-15.577326">
        <ele>1767.29</ele>
        <time>2018-02-17T10:38:45Z</time>
      </trkpt>
      <trkpt lat="27.966175" lon="-15.577310">
        <ele>1769.19</ele>
        <time>2018-02-17T10:38:51Z</time>
      </trkpt>
      <trkpt lat="27.966166" lon="-15.577286">
        <ele>1769.96</ele>
        <time>2018-02-17T10:38:58Z</time>
      </trkpt>
      <trkpt lat="27.966147" lon="-15.577274">
        <ele>1771.14</ele>
        <time>2018-02-17T10:39:00Z</time>
      </trkpt>
      <trkpt lat="27.966137" lon="-15.577255">
        <ele>1771.83</ele>
        <time>2018-02-17T10:39:03Z</time>
      </trkpt>
      <trkpt lat="27.966122" lon="-15.577232">
        <ele>1773.17</ele>
        <time>2018-02-17T10:39:08Z</time>
      </trkpt>
      <trkpt lat="27.966121" lon="-15.577208">
        <ele>1773.45</ele>
        <time>2018-02-17T10:39:10Z</time>
      </trkpt>
      <trkpt lat="27.966113" lon="-15.577185">
        <ele>1773.95</ele>
        <time>2018-02-17T10:39:12Z</time>
      </trkpt>
      <trkpt lat="27.966108" lon="-15.577160">
        <ele>1775.10</ele>
        <time>2018-02-17T10:39:15Z</time>
      </trkpt>
      <trkpt lat="27.966097" lon="-15.577136">
        <ele>1775.78</ele>
        <time>2018-02-17T10:39:18Z</time>
      </trkpt>
      <trkpt lat="27.966093" lon="-15.577111">
        <ele>1776.29</ele>
        <time>2018-02-17T10:39:21Z</time>
      </trkpt>
      <trkpt lat="27.966086" lon="-15.577086">
        <ele>1776.90</ele>
        <time>2018-02-17T10:39:24Z</time>
      </trkpt>
      <trkpt lat="27.966076" lon="-15.577065">
        <ele>1777.88</ele>
        <time>2018-02-17T10:39:28Z</time>
      </trkpt>
      <trkpt lat="27.966059" lon="-15.577041">
        <ele>1778.79</ele>
        <time>2018-02-17T10:39:32Z</time>
      </trkpt>
      <trkpt lat="27.966036" lon="-15.577028">
        <ele>1779.40</ele>
        <time>2018-02-17T10:39:35Z</time>
      </trkpt>
      <trkpt lat="27.966015" lon="-15.577018">
        <ele>1780.38</ele>
        <time>2018-02-17T10:39:38Z</time>
      </trkpt>
      <trkpt lat="27.966005" lon="-15.576998">
        <ele>1781.82</ele>
        <time>2018-02-17T10:39:43Z</time>
      </trkpt>
      <trkpt lat="27.965997" lon="-15.576974">
        <ele>1782.58</ele>
        <time>2018-02-17T10:39:46Z</time>
      </trkpt>
      <trkpt lat="27.965986" lon="-15.576957">
        <ele>1783.52</ele>
        <time>2018-02-17T10:39:48Z</time>
      </trkpt>
      <trkpt lat="27.965969" lon="-15.576945">
        <ele>1784.46</ele>
        <time>2018-02-17T10:39:51Z</time>
      </trkpt>
      <trkpt lat="27.965950" lon="-15.576927">
        <ele>1785.38</ele>
        <time>2018-02-17T10:39:55Z</time>
      </trkpt>
      <trkpt lat="27.965951" lon="-15.576904">
        <ele>1786.42</ele>
        <time>2018-02-17T10:39:58Z</time>
      </trkpt>
      <trkpt lat="27.965940" lon="-15.576871">
        <ele>1786.70</ele>
        <time>2018-02-17T10:40:00Z</time>
      </trkpt>
      <trkpt lat="27.965931" lon="-15.576850">
        <ele>1787.18</ele>
        <time>2018-02-17T10:40:04Z</time>
      </trkpt>
      <trkpt lat="27.965928" lon="-15.576827">
        <ele>1788.58</ele>
        <time>2018-02-17T10:40:06Z</time>
      </trkpt>
      <trkpt lat="27.965926" lon="-15.576802">
        <ele>1788.96</ele>
        <time>2018-02-17T10:40:08Z</time>
      </trkpt>
      <trkpt lat="27.965924" lon="-15.576781">
        <ele>1789.00</ele>
        <time>2018-02-17T10:40:10Z</time>
      </trkpt>
      <trkpt lat="27.965912" lon="-15.576757">
        <ele>1790.56</ele>
        <time>2018-02-17T10:40:13Z</time>
      </trkpt>
      <trkpt lat="27.965899" lon="-15.576733">
        <ele>1791.64</ele>
        <time>2018-02-17T10:40:16Z</time>
      </trkpt>
      <trkpt lat="27.965885" lon="-15.576715">
        <ele>1792.24</ele>
        <time>2018-02-17T10:40:19Z</time>
      </trkpt>
      <trkpt lat="27.965869" lon="-15.576695">
        <ele>1792.66</ele>
        <time>2018-02-17T10:40:22Z</time>
      </trkpt>
      <trkpt lat="27.965840" lon="-15.576689">
        <ele>1793.08</ele>
        <time>2018-02-17T10:40:25Z</time>
      </trkpt>
      <trkpt lat="27.965815" lon="-15.576681">
        <ele>1793.42</ele>
        <time>2018-02-17T10:40:27Z</time>
      </trkpt>
      <trkpt lat="27.965802" lon="-15.576658">
        <ele>1794.06</ele>
        <time>2018-02-17T10:40:30Z</time>
      </trkpt>
      <trkpt lat="27.965800" lon="-15.576636">
        <ele>1794.40</ele>
        <time>2018-02-17T10:40:33Z</time>
      </trkpt>
      <trkpt lat="27.965810" lon="-15.576612">
        <ele>1795.46</ele>
        <time>2018-02-17T10:40:37Z</time>
      </trkpt>
      <trkpt lat="27.965821" lon="-15.576595">
        <ele>1797.88</ele>
        <time>2018-02-17T10:40:45Z</time>
      </trkpt>
      <trkpt lat="27.965760" lon="-15.576518">
        <ele>1802.69</ele>
        <time>2018-02-17T10:41:08Z</time>
      </trkpt>
      <trkpt lat="27.965753" lon="-15.576414">
        <ele>1805.94</ele>
        <time>2018-02-17T10:41:22Z</time>
      </trkpt>
      <trkpt lat="27.965736" lon="-15.576312">
        <ele>1807.90</ele>
        <time>2018-02-17T10:41:35Z</time>
      </trkpt>
      <trkpt lat="27.965729" lon="-15.576206">
        <ele>1810.80</ele>
        <time>2018-02-17T10:41:48Z</time>
      </trkpt>
      <trkpt lat="27.965714" lon="-15.576098">
        <ele>1815.50</ele>
        <time>2018-02-17T10:42:08Z</time>
      </trkpt>
      <trkpt lat="27.965685" lon="-15.576001">
        <ele>1819.20</ele>
        <time>2018-02-17T10:42:24Z</time>
      </trkpt>
      <trkpt lat="27.965640" lon="-15.575908">
        <ele>1822.89</ele>
        <time>2018-02-17T10:42:38Z</time>
      </trkpt>
      <trkpt lat="27.965588" lon="-15.575824">
        <ele>1826.38</ele>
        <time>2018-02-17T10:42:55Z</time>
      </trkpt>
      <trkpt lat="27.965569" lon="-15.575756">
        <ele>1827.98</ele>
        <time>2018-02-17T10:43:02Z</time>
      </trkpt>
      <trkpt lat="27.965557" lon="-15.575731">
        <ele>1829.60</ele>
        <time>2018-02-17T10:43:11Z</time>
      </trkpt>
      <trkpt lat="27.965539" lon="-15.575728">
        <ele>1829.60</ele>
        <time>2018-02-17T10:43:13Z</time>
      </trkpt>
      <trkpt lat="27.965518" lon="-15.575713">
        <ele>1829.60</ele>
        <time>2018-02-17T10:43:15Z</time>
      </trkpt>
      <trkpt lat="27.965500" lon="-15.575695">
        <ele>1829.68</ele>
        <time>2018-02-17T10:43:17Z</time>
      </trkpt>
      <trkpt lat="27.965480" lon="-15.575676">
        <ele>1829.86</ele>
        <time>2018-02-17T10:43:19Z</time>
      </trkpt>
      <trkpt lat="27.965464" lon="-15.575660">
        <ele>1830.40</ele>
        <time>2018-02-17T10:43:21Z</time>
      </trkpt>
      <trkpt lat="27.965449" lon="-15.575638">
        <ele>1830.68</ele>
        <time>2018-02-17T10:43:23Z</time>
      </trkpt>
      <trkpt lat="27.965437" lon="-15.575621">
        <ele>1830.80</ele>
        <time>2018-02-17T10:43:25Z</time>
      </trkpt>
      <trkpt lat="27.965422" lon="-15.575600">
        <ele>1831.10</ele>
        <time>2018-02-17T10:43:27Z</time>
      </trkpt>
      <trkpt lat="27.965407" lon="-15.575574">
        <ele>1831.26</ele>
        <time>2018-02-17T10:43:29Z</time>
      </trkpt>
      <trkpt lat="27.965391" lon="-15.575557">
        <ele>1831.68</ele>
        <time>2018-02-17T10:43:31Z</time>
      </trkpt>
      <trkpt lat="27.965367" lon="-15.575545">
        <ele>1831.86</ele>
        <time>2018-02-17T10:43:33Z</time>
      </trkpt>
      <trkpt lat="27.965342" lon="-15.575532">
        <ele>1832.16</ele>
        <time>2018-02-17T10:43:35Z</time>
      </trkpt>
      <trkpt lat="27.965318" lon="-15.575509">
        <ele>1832.20</ele>
        <time>2018-02-17T10:43:37Z</time>
      </trkpt>
      <trkpt lat="27.965291" lon="-15.575493">
        <ele>1832.46</ele>
        <time>2018-02-17T10:43:39Z</time>
      </trkpt>
      <trkpt lat="27.965275" lon="-15.575483">
        <ele>1832.70</ele>
        <time>2018-02-17T10:43:42Z</time>
      </trkpt>
      <trkpt lat="27.965265" lon="-15.575460">
        <ele>1833.40</ele>
        <time>2018-02-17T10:43:45Z</time>
      </trkpt>
      <trkpt lat="27.965253" lon="-15.575430">
        <ele>1834.25</ele>
        <time>2018-02-17T10:43:48Z</time>
      </trkpt>
      <trkpt lat="27.965240" lon="-15.575402">
        <ele>1834.50</ele>
        <time>2018-02-17T10:43:51Z</time>
      </trkpt>
      <trkpt lat="27.965233" lon="-15.575383">
        <ele>1835.29</ele>
        <time>2018-02-17T10:43:53Z</time>
      </trkpt>
      <trkpt lat="27.965233" lon="-15.575362">
        <ele>1836.36</ele>
        <time>2018-02-17T10:43:56Z</time>
      </trkpt>
      <trkpt lat="27.965225" lon="-15.575340">
        <ele>1836.89</ele>
        <time>2018-02-17T10:43:59Z</time>
      </trkpt>
      <trkpt lat="27.965228" lon="-15.575317">
        <ele>1837.30</ele>
        <time>2018-02-17T10:44:02Z</time>
      </trkpt>
      <trkpt lat="27.965238" lon="-15.575292">
        <ele>1838.74</ele>
        <time>2018-02-17T10:44:07Z</time>
      </trkpt>
      <trkpt lat="27.965247" lon="-15.575271">
        <ele>1839.62</ele>
        <time>2018-02-17T10:44:10Z</time>
      </trkpt>
      <trkpt lat="27.965258" lon="-15.575249">
        <ele>1840.41</ele>
        <time>2018-02-17T10:44:13Z</time>
      </trkpt>
      <trkpt lat="27.965268" lon="-15.575230">
        <ele>1840.84</ele>
        <time>2018-02-17T10:44:15Z</time>
      </trkpt>
      <trkpt lat="27.965280" lon="-15.575212">
        <ele>1841.34</ele>
        <time>2018-02-17T10:44:17Z</time>
      </trkpt>
      <trkpt lat="27.965283" lon="-15.575187">
        <ele>1842.24</ele>
        <time>2018-02-17T10:44:20Z</time>
      </trkpt>
      <trkpt lat="27.965278" lon="-15.575165">
        <ele>1842.64</ele>
        <time>2018-02-17T10:44:22Z</time>
      </trkpt>
      <trkpt lat="27.965276" lon="-15.575140">
        <ele>1843.67</ele>
        <time>2018-02-17T10:44:25Z</time>
      </trkpt>
      <trkpt lat="27.965289" lon="-15.575121">
        <ele>1844.90</ele>
        <time>2018-02-17T10:44:29Z</time>
      </trkpt>
      <trkpt lat="27.965288" lon="-15.575098">
        <ele>1845.73</ele>
        <time>2018-02-17T10:44:33Z</time>
      </trkpt>
      <trkpt lat="27.965284" lon="-15.575070">
        <ele>1846.36</ele>
        <time>2018-02-17T10:44:36Z</time>
      </trkpt>
      <trkpt lat="27.965276" lon="-15.575049">
        <ele>1846.82</ele>
        <time>2018-02-17T10:44:38Z</time>
      </trkpt>
      <trkpt lat="27.965268" lon="-15.575027">
        <ele>1847.13</ele>
        <time>2018-02-17T10:44:40Z</time>
      </trkpt>
      <trkpt lat="27.965263" lon="-15.575008">
        <ele>1847.73</ele>
        <time>2018-02-17T10:44:42Z</time>
      </trkpt>
      <trkpt lat="27.965246" lon="-15.574985">
        <ele>1848.60</ele>
        <time>2018-02-17T10:44:45Z</time>
      </trkpt>
      <trkpt lat="27.965234" lon="-15.574969">
        <ele>1849.18</ele>
        <time>2018-02-17T10:44:47Z</time>
      </trkpt>
      <trkpt lat="27.965215" lon="-15.574948">
        <ele>1849.52</ele>
        <time>2018-02-17T10:44:50Z</time>
      </trkpt>
      <trkpt lat="27.965196" lon="-15.574931">
        <ele>1849.84</ele>
        <time>2018-02-17T10:44:52Z</time>
      </trkpt>
      <trkpt lat="27.965182" lon="-15.574916">
        <ele>1850.20</ele>
        <time>2018-02-17T10:44:54Z</time>
      </trkpt>
      <trkpt lat="27.965171" lon="-15.574896">
        <ele>1850.56</ele>
        <time>2018-02-17T10:44:56Z</time>
      </trkpt>
      <trkpt lat="27.965158" lon="-15.574875">
        <ele>1850.90</ele>
        <time>2018-02-17T10:44:59Z</time>
      </trkpt>
      <trkpt lat="27.965142" lon="-15.574855">
        <ele>1851.66</ele>
        <time>2018-02-17T10:45:02Z</time>
      </trkpt>
      <trkpt lat="27.965126" lon="-15.574842">
        <ele>1852.00</ele>
        <time>2018-02-17T10:45:04Z</time>
      </trkpt>
      <trkpt lat="27.965107" lon="-15.574823">
        <ele>1852.36</ele>
        <time>2018-02-17T10:45:07Z</time>
      </trkpt>
      <trkpt lat="27.965084" lon="-15.574803">
        <ele>1852.40</ele>
        <time>2018-02-17T10:45:09Z</time>
      </trkpt>
      <trkpt lat="27.965068" lon="-15.574781">
        <ele>1852.40</ele>
        <time>2018-02-17T10:45:10Z</time>
      </trkpt>
      <trkpt lat="27.965048" lon="-15.574769">
        <ele>1852.97</ele>
        <time>2018-02-17T10:45:13Z</time>
      </trkpt>
      <trkpt lat="27.965031" lon="-15.574761">
        <ele>1853.68</ele>
        <time>2018-02-17T10:45:15Z</time>
      </trkpt>
      <trkpt lat="27.965014" lon="-15.574741">
        <ele>1854.66</ele>
        <time>2018-02-17T10:45:18Z</time>
      </trkpt>
      <trkpt lat="27.964997" lon="-15.574722">
        <ele>1855.31</ele>
        <time>2018-02-17T10:45:20Z</time>
      </trkpt>
      <trkpt lat="27.964984" lon="-15.574705">
        <ele>1855.40</ele>
        <time>2018-02-17T10:45:23Z</time>
      </trkpt>
      <trkpt lat="27.964963" lon="-15.574695">
        <ele>1855.73</ele>
        <time>2018-02-17T10:45:25Z</time>
      </trkpt>
      <trkpt lat="27.964944" lon="-15.574691">
        <ele>1855.96</ele>
        <time>2018-02-17T10:45:27Z</time>
      </trkpt>
      <trkpt lat="27.964926" lon="-15.574676">
        <ele>1856.71</ele>
        <time>2018-02-17T10:45:30Z</time>
      </trkpt>
      <trkpt lat="27.964918" lon="-15.574656">
        <ele>1857.27</ele>
        <time>2018-02-17T10:45:32Z</time>
      </trkpt>
      <trkpt lat="27.964902" lon="-15.574641">
        <ele>1857.61</ele>
        <time>2018-02-17T10:45:34Z</time>
      </trkpt>
      <trkpt lat="27.964890" lon="-15.574624">
        <ele>1858.42</ele>
        <time>2018-02-17T10:45:36Z</time>
      </trkpt>
      <trkpt lat="27.964875" lon="-15.574605">
        <ele>1858.95</ele>
        <time>2018-02-17T10:45:39Z</time>
      </trkpt>
      <trkpt lat="27.964867" lon="-15.574584">
        <ele>1859.20</ele>
        <time>2018-02-17T10:45:42Z</time>
      </trkpt>
      <trkpt lat="27.964860" lon="-15.574560">
        <ele>1860.25</ele>
        <time>2018-02-17T10:45:47Z</time>
      </trkpt>
      <trkpt lat="27.964841" lon="-15.574536">
        <ele>1860.75</ele>
        <time>2018-02-17T10:45:50Z</time>
      </trkpt>
      <trkpt lat="27.964830" lon="-15.574514">
        <ele>1860.85</ele>
        <time>2018-02-17T10:45:52Z</time>
      </trkpt>
      <trkpt lat="27.964818" lon="-15.574491">
        <ele>1862.10</ele>
        <time>2018-02-17T10:45:55Z</time>
      </trkpt>
      <trkpt lat="27.964798" lon="-15.574482">
        <ele>1862.20</ele>
        <time>2018-02-17T10:45:57Z</time>
      </trkpt>
      <trkpt lat="27.964780" lon="-15.574459">
        <ele>1862.20</ele>
        <time>2018-02-17T10:46:00Z</time>
      </trkpt>
      <trkpt lat="27.964765" lon="-15.574438">
        <ele>1862.61</ele>
        <time>2018-02-17T10:46:03Z</time>
      </trkpt>
      <trkpt lat="27.964750" lon="-15.574421">
        <ele>1863.00</ele>
        <time>2018-02-17T10:46:05Z</time>
      </trkpt>
      <trkpt lat="27.964744" lon="-15.574400">
        <ele>1863.05</ele>
        <time>2018-02-17T10:46:07Z</time>
      </trkpt>
      <trkpt lat="27.964736" lon="-15.574382">
        <ele>1863.50</ele>
        <time>2018-02-17T10:46:10Z</time>
      </trkpt>
      <trkpt lat="27.964725" lon="-15.574354">
        <ele>1863.85</ele>
        <time>2018-02-17T10:46:13Z</time>
      </trkpt>
      <trkpt lat="27.964742" lon="-15.574340">
        <ele>1864.90</ele>
        <time>2018-02-17T10:46:17Z</time>
      </trkpt>
      <trkpt lat="27.964744" lon="-15.574318">
        <ele>1865.70</ele>
        <time>2018-02-17T10:46:20Z</time>
      </trkpt>
      <trkpt lat="27.964729" lon="-15.574291">
        <ele>1866.60</ele>
        <time>2018-02-17T10:46:24Z</time>
      </trkpt>
      <trkpt lat="27.964717" lon="-15.574270">
        <ele>1866.95</ele>
        <time>2018-02-17T10:46:27Z</time>
      </trkpt>
      <trkpt lat="27.964731" lon="-15.574256">
        <ele>1868.20</ele>
        <time>2018-02-17T10:46:32Z</time>
      </trkpt>
      <trkpt lat="27.964747" lon="-15.574235">
        <ele>1868.69</ele>
        <time>2018-02-17T10:46:35Z</time>
      </trkpt>
      <trkpt lat="27.964760" lon="-15.574214">
        <ele>1869.15</ele>
        <time>2018-02-17T10:46:38Z</time>
      </trkpt>
      <trkpt lat="27.964763" lon="-15.574189">
        <ele>1869.55</ele>
        <time>2018-02-17T10:46:41Z</time>
      </trkpt>
      <trkpt lat="27.964757" lon="-15.574165">
        <ele>1869.84</ele>
        <time>2018-02-17T10:46:44Z</time>
      </trkpt>
      <trkpt lat="27.964743" lon="-15.574150">
        <ele>1870.14</ele>
        <time>2018-02-17T10:46:46Z</time>
      </trkpt>
      <trkpt lat="27.964723" lon="-15.574131">
        <ele>1870.74</ele>
        <time>2018-02-17T10:46:49Z</time>
      </trkpt>
      <trkpt lat="27.964713" lon="-15.574114">
        <ele>1871.54</ele>
        <time>2018-02-17T10:46:52Z</time>
      </trkpt>
      <trkpt lat="27.964697" lon="-15.574099">
        <ele>1873.20</ele>
        <time>2018-02-17T10:47:05Z</time>
      </trkpt>
      <trkpt lat="27.964690" lon="-15.574078">
        <ele>1873.00</ele>
        <time>2018-02-17T10:47:08Z</time>
      </trkpt>
      <trkpt lat="27.964688" lon="-15.574058">
        <ele>1873.12</ele>
        <time>2018-02-17T10:47:29Z</time>
      </trkpt>
      <trkpt lat="27.964678" lon="-15.574040">
        <ele>1873.88</ele>
        <time>2018-02-17T10:47:33Z</time>
      </trkpt>
      <trkpt lat="27.964669" lon="-15.574020">
        <ele>1874.22</ele>
        <time>2018-02-17T10:47:36Z</time>
      </trkpt>
      <trkpt lat="27.964652" lon="-15.574012">
        <ele>1874.48</ele>
        <time>2018-02-17T10:47:39Z</time>
      </trkpt>
      <trkpt lat="27.964644" lon="-15.573993">
        <ele>1875.04</ele>
        <time>2018-02-17T10:47:42Z</time>
      </trkpt>
      <trkpt lat="27.964643" lon="-15.573971">
        <ele>1875.54</ele>
        <time>2018-02-17T10:47:45Z</time>
      </trkpt>
      <trkpt lat="27.964631" lon="-15.573952">
        <ele>1876.60</ele>
        <time>2018-02-17T10:47:48Z</time>
      </trkpt>
      <trkpt lat="27.964614" lon="-15.573944">
        <ele>1876.74</ele>
        <time>2018-02-17T10:47:50Z</time>
      </trkpt>
      <trkpt lat="27.964595" lon="-15.573927">
        <ele>1877.50</ele>
        <time>2018-02-17T10:47:55Z</time>
      </trkpt>
      <trkpt lat="27.964589" lon="-15.573900">
        <ele>1878.14</ele>
        <time>2018-02-17T10:47:58Z</time>
      </trkpt>
      <trkpt lat="27.964574" lon="-15.573877">
        <ele>1878.50</ele>
        <time>2018-02-17T10:48:01Z</time>
      </trkpt>
      <trkpt lat="27.964561" lon="-15.573863">
        <ele>1879.44</ele>
        <time>2018-02-17T10:48:03Z</time>
      </trkpt>
      <trkpt lat="27.964540" lon="-15.573851">
        <ele>1881.30</ele>
        <time>2018-02-17T10:48:10Z</time>
      </trkpt>
      <trkpt lat="27.964522" lon="-15.573842">
        <ele>1881.07</ele>
        <time>2018-02-17T10:48:13Z</time>
      </trkpt>
      <trkpt lat="27.964503" lon="-15.573829">
        <ele>1880.70</ele>
        <time>2018-02-17T10:48:16Z</time>
      </trkpt>
      <trkpt lat="27.964487" lon="-15.573810">
        <ele>1881.00</ele>
        <time>2018-02-17T10:48:19Z</time>
      </trkpt>
      <trkpt lat="27.964469" lon="-15.573798">
        <ele>1881.59</ele>
        <time>2018-02-17T10:48:22Z</time>
      </trkpt>
      <trkpt lat="27.964451" lon="-15.573788">
        <ele>1882.62</ele>
        <time>2018-02-17T10:48:25Z</time>
      </trkpt>
      <trkpt lat="27.964430" lon="-15.573783">
        <ele>1883.14</ele>
        <time>2018-02-17T10:48:28Z</time>
      </trkpt>
      <trkpt lat="27.964415" lon="-15.573770">
        <ele>1883.89</ele>
        <time>2018-02-17T10:48:32Z</time>
      </trkpt>
      <trkpt lat="27.964404" lon="-15.573746">
        <ele>1884.61</ele>
        <time>2018-02-17T10:48:36Z</time>
      </trkpt>
      <trkpt lat="27.964395" lon="-15.573728">
        <ele>1885.20</ele>
        <time>2018-02-17T10:48:39Z</time>
      </trkpt>
      <trkpt lat="27.964384" lon="-15.573707">
        <ele>1885.24</ele>
        <time>2018-02-17T10:48:42Z</time>
      </trkpt>
      <trkpt lat="27.964373" lon="-15.573689">
        <ele>1885.75</ele>
        <time>2018-02-17T10:48:45Z</time>
      </trkpt>
      <trkpt lat="27.964366" lon="-15.573660">
        <ele>1886.34</ele>
        <time>2018-02-17T10:48:48Z</time>
      </trkpt>
      <trkpt lat="27.964362" lon="-15.573633">
        <ele>1887.07</ele>
        <time>2018-02-17T10:48:51Z</time>
      </trkpt>
      <trkpt lat="27.964351" lon="-15.573613">
        <ele>1887.80</ele>
        <time>2018-02-17T10:48:54Z</time>
      </trkpt>
      <trkpt lat="27.964341" lon="-15.573588">
        <ele>1888.21</ele>
        <time>2018-02-17T10:48:58Z</time>
      </trkpt>
      <trkpt lat="27.964331" lon="-15.573569">
        <ele>1888.90</ele>
        <time>2018-02-17T10:49:01Z</time>
      </trkpt>
      <trkpt lat="27.964310" lon="-15.573545">
        <ele>1889.60</ele>
        <time>2018-02-17T10:49:04Z</time>
      </trkpt>
      <trkpt lat="27.964295" lon="-15.573520">
        <ele>1889.60</ele>
        <time>2018-02-17T10:49:07Z</time>
      </trkpt>
      <trkpt lat="27.964287" lon="-15.573500">
        <ele>1889.60</ele>
        <time>2018-02-17T10:49:09Z</time>
      </trkpt>
      <trkpt lat="27.964274" lon="-15.573483">
        <ele>1890.26</ele>
        <time>2018-02-17T10:49:11Z</time>
      </trkpt>
      <trkpt lat="27.964259" lon="-15.573471">
        <ele>1890.87</ele>
        <time>2018-02-17T10:49:13Z</time>
      </trkpt>
      <trkpt lat="27.964244" lon="-15.573459">
        <ele>1891.64</ele>
        <time>2018-02-17T10:49:16Z</time>
      </trkpt>
      <trkpt lat="27.964250" lon="-15.573433">
        <ele>1892.60</ele>
        <time>2018-02-17T10:49:20Z</time>
      </trkpt>
      <trkpt lat="27.964263" lon="-15.573405">
        <ele>1892.80</ele>
        <time>2018-02-17T10:49:23Z</time>
      </trkpt>
      <trkpt lat="27.964261" lon="-15.573385">
        <ele>1893.81</ele>
        <time>2018-02-17T10:49:25Z</time>
      </trkpt>
      <trkpt lat="27.964260" lon="-15.573362">
        <ele>1894.19</ele>
        <time>2018-02-17T10:49:28Z</time>
      </trkpt>
      <trkpt lat="27.964264" lon="-15.573334">
        <ele>1894.84</ele>
        <time>2018-02-17T10:49:31Z</time>
      </trkpt>
      <trkpt lat="27.964264" lon="-15.573312">
        <ele>1895.00</ele>
        <time>2018-02-17T10:49:33Z</time>
      </trkpt>
      <trkpt lat="27.964254" lon="-15.573284">
        <ele>1895.43</ele>
        <time>2018-02-17T10:49:36Z</time>
      </trkpt>
      <trkpt lat="27.964243" lon="-15.573263">
        <ele>1896.51</ele>
        <time>2018-02-17T10:49:39Z</time>
      </trkpt>
      <trkpt lat="27.964222" lon="-15.573250">
        <ele>1896.85</ele>
        <time>2018-02-17T10:49:42Z</time>
      </trkpt>
      <trkpt lat="27.964204" lon="-15.573247">
        <ele>1897.27</ele>
        <time>2018-02-17T10:49:44Z</time>
      </trkpt>
      <trkpt lat="27.964196" lon="-15.573224">
        <ele>1898.29</ele>
        <time>2018-02-17T10:49:47Z</time>
      </trkpt>
      <trkpt lat="27.964177" lon="-15.573202">
        <ele>1898.94</ele>
        <time>2018-02-17T10:49:49Z</time>
      </trkpt>
      <trkpt lat="27.964157" lon="-15.573188">
        <ele>1899.37</ele>
        <time>2018-02-17T10:49:52Z</time>
      </trkpt>
      <trkpt lat="27.964132" lon="-15.573220">
        <ele>1901.03</ele>
        <time>2018-02-17T10:49:56Z</time>
      </trkpt>
      <trkpt lat="27.964122" lon="-15.573237">
        <ele>1901.10</ele>
        <time>2018-02-17T10:49:57Z</time>
      </trkpt>
      <trkpt lat="27.964106" lon="-15.573252">
        <ele>1901.50</ele>
        <time>2018-02-17T10:49:59Z</time>
      </trkpt>
      <trkpt lat="27.964083" lon="-15.573251">
        <ele>1901.82</ele>
        <time>2018-02-17T10:50:02Z</time>
      </trkpt>
      <trkpt lat="27.964062" lon="-15.573244">
        <ele>1902.12</ele>
        <time>2018-02-17T10:50:05Z</time>
      </trkpt>
      <trkpt lat="27.964048" lon="-15.573230">
        <ele>1902.40</ele>
        <time>2018-02-17T10:50:07Z</time>
      </trkpt>
      <trkpt lat="27.964029" lon="-15.573228">
        <ele>1903.36</ele>
        <time>2018-02-17T10:50:09Z</time>
      </trkpt>
      <trkpt lat="27.964004" lon="-15.573211">
        <ele>1904.21</ele>
        <time>2018-02-17T10:50:12Z</time>
      </trkpt>
      <trkpt lat="27.963985" lon="-15.573205">
        <ele>1905.78</ele>
        <time>2018-02-17T10:50:19Z</time>
      </trkpt>
      <trkpt lat="27.963970" lon="-15.573186">
        <ele>1906.18</ele>
        <time>2018-02-17T10:50:27Z</time>
      </trkpt>
      <trkpt lat="27.963950" lon="-15.573177">
        <ele>1906.10</ele>
        <time>2018-02-17T10:50:30Z</time>
      </trkpt>
      <trkpt lat="27.963924" lon="-15.573169">
        <ele>1906.90</ele>
        <time>2018-02-17T10:50:34Z</time>
      </trkpt>
      <trkpt lat="27.963908" lon="-15.573154">
        <ele>1907.10</ele>
        <time>2018-02-17T10:50:37Z</time>
      </trkpt>
      <trkpt lat="27.963893" lon="-15.573134">
        <ele>1907.90</ele>
        <time>2018-02-17T10:50:40Z</time>
      </trkpt>
      <trkpt lat="27.963877" lon="-15.573115">
        <ele>1909.04</ele>
        <time>2018-02-17T10:50:43Z</time>
      </trkpt>
      <trkpt lat="27.963861" lon="-15.573095">
        <ele>1909.66</ele>
        <time>2018-02-17T10:50:46Z</time>
      </trkpt>
      <trkpt lat="27.963856" lon="-15.573069">
        <ele>1910.56</ele>
        <time>2018-02-17T10:50:49Z</time>
      </trkpt>
      <trkpt lat="27.963855" lon="-15.573046">
        <ele>1912.00</ele>
        <time>2018-02-17T10:50:54Z</time>
      </trkpt>
      <trkpt lat="27.963867" lon="-15.573022">
        <ele>1912.46</ele>
        <time>2018-02-17T10:50:57Z</time>
      </trkpt>
      <trkpt lat="27.963877" lon="-15.573004">
        <ele>1913.34</ele>
        <time>2018-02-17T10:51:00Z</time>
      </trkpt>
      <trkpt lat="27.963886" lon="-15.572980">
        <ele>1913.88</ele>
        <time>2018-02-17T10:51:03Z</time>
      </trkpt>
      <trkpt lat="27.963884" lon="-15.572959">
        <ele>1914.70</ele>
        <time>2018-02-17T10:51:05Z</time>
      </trkpt>
      <trkpt lat="27.963884" lon="-15.572937">
        <ele>1915.12</ele>
        <time>2018-02-17T10:51:07Z</time>
      </trkpt>
      <trkpt lat="27.963888" lon="-15.572909">
        <ele>1915.82</ele>
        <time>2018-02-17T10:51:10Z</time>
      </trkpt>
      <trkpt lat="27.963889" lon="-15.572885">
        <ele>1916.23</ele>
        <time>2018-02-17T10:51:12Z</time>
      </trkpt>
      <trkpt lat="27.963887" lon="-15.572864">
        <ele>1916.71</ele>
        <time>2018-02-17T10:51:15Z</time>
      </trkpt>
      <trkpt lat="27.963894" lon="-15.572840">
        <ele>1917.22</ele>
        <time>2018-02-17T10:51:19Z</time>
      </trkpt>
      <trkpt lat="27.963900" lon="-15.572817">
        <ele>1917.91</ele>
        <time>2018-02-17T10:51:22Z</time>
      </trkpt>
      <trkpt lat="27.963901" lon="-15.572796">
        <ele>1918.06</ele>
        <time>2018-02-17T10:51:24Z</time>
      </trkpt>
      <trkpt lat="27.963899" lon="-15.572776">
        <ele>1918.71</ele>
        <time>2018-02-17T10:51:26Z</time>
      </trkpt>
      <trkpt lat="27.963899" lon="-15.572753">
        <ele>1919.14</ele>
        <time>2018-02-17T10:51:28Z</time>
      </trkpt>
      <trkpt lat="27.963904" lon="-15.572731">
        <ele>1919.70</ele>
        <time>2018-02-17T10:51:32Z</time>
      </trkpt>
      <trkpt lat="27.963908" lon="-15.572709">
        <ele>1920.45</ele>
        <time>2018-02-17T10:51:35Z</time>
      </trkpt>
      <trkpt lat="27.963888" lon="-15.572699">
        <ele>1921.52</ele>
        <time>2018-02-17T10:51:38Z</time>
      </trkpt>
      <trkpt lat="27.963864" lon="-15.572689">
        <ele>1921.74</ele>
        <time>2018-02-17T10:51:40Z</time>
      </trkpt>
      <trkpt lat="27.963849" lon="-15.572679">
        <ele>1922.28</ele>
        <time>2018-02-17T10:51:42Z</time>
      </trkpt>
      <trkpt lat="27.963827" lon="-15.572675">
        <ele>1922.30</ele>
        <time>2018-02-17T10:51:44Z</time>
      </trkpt>
      <trkpt lat="27.963803" lon="-15.572675">
        <ele>1922.62</ele>
        <time>2018-02-17T10:51:48Z</time>
      </trkpt>
      <trkpt lat="27.963781" lon="-15.572675">
        <ele>1923.62</ele>
        <time>2018-02-17T10:51:52Z</time>
      </trkpt>
      <trkpt lat="27.963764" lon="-15.572692">
        <ele>1925.53</ele>
        <time>2018-02-17T10:51:59Z</time>
      </trkpt>
      <trkpt lat="27.963744" lon="-15.572671">
        <ele>1927.10</ele>
        <time>2018-02-17T10:52:04Z</time>
      </trkpt>
      <trkpt lat="27.963731" lon="-15.572648">
        <ele>1928.01</ele>
        <time>2018-02-17T10:52:07Z</time>
      </trkpt>
      <trkpt lat="27.963721" lon="-15.572621">
        <ele>1928.21</ele>
        <time>2018-02-17T10:52:11Z</time>
      </trkpt>
      <trkpt lat="27.963712" lon="-15.572601">
        <ele>1928.50</ele>
        <time>2018-02-17T10:52:14Z</time>
      </trkpt>
      <trkpt lat="27.963707" lon="-15.572581">
        <ele>1929.61</ele>
        <time>2018-02-17T10:52:18Z</time>
      </trkpt>
      <trkpt lat="27.963700" lon="-15.572559">
        <ele>1929.91</ele>
        <time>2018-02-17T10:52:21Z</time>
      </trkpt>
      <trkpt lat="27.963697" lon="-15.572537">
        <ele>1930.50</ele>
        <time>2018-02-17T10:52:23Z</time>
      </trkpt>
      <trkpt lat="27.963686" lon="-15.572510">
        <ele>1930.71</ele>
        <time>2018-02-17T10:52:26Z</time>
      </trkpt>
      <trkpt lat="27.963672" lon="-15.572492">
        <ele>1931.71</ele>
        <time>2018-02-17T10:52:30Z</time>
      </trkpt>
      <trkpt lat="27.963654" lon="-15.572476">
        <ele>1932.90</ele>
        <time>2018-02-17T10:52:34Z</time>
      </trkpt>
      <trkpt lat="27.963634" lon="-15.572462">
        <ele>1933.90</ele>
        <time>2018-02-17T10:52:38Z</time>
      </trkpt>
      <trkpt lat="27.963629" lon="-15.572439">
        <ele>1936.00</ele>
        <time>2018-02-17T10:52:44Z</time>
      </trkpt>
      <trkpt lat="27.963632" lon="-15.572413">
        <ele>1936.60</ele>
        <time>2018-02-17T10:52:48Z</time>
      </trkpt>
      <trkpt lat="27.963612" lon="-15.572398">
        <ele>1937.99</ele>
        <time>2018-02-17T10:52:51Z</time>
      </trkpt>
      <trkpt lat="27.963596" lon="-15.572390">
        <ele>1938.60</ele>
        <time>2018-02-17T10:52:53Z</time>
      </trkpt>
      <trkpt lat="27.963583" lon="-15.572376">
        <ele>1938.80</ele>
        <time>2018-02-17T10:52:55Z</time>
      </trkpt>
      <trkpt lat="27.963558" lon="-15.572367">
        <ele>1939.60</ele>
        <time>2018-02-17T10:53:00Z</time>
      </trkpt>
      <trkpt lat="27.963555" lon="-15.572347">
        <ele>1940.40</ele>
        <time>2018-02-17T10:56:07Z</time>
      </trkpt>
      <trkpt lat="27.963535" lon="-15.572346">
        <ele>1940.60</ele>
        <time>2018-02-17T10:56:12Z</time>
      </trkpt>
      <trkpt lat="27.963516" lon="-15.572344">
        <ele>1940.40</ele>
        <time>2018-02-17T10:56:19Z</time>
      </trkpt>
      <trkpt lat="27.963498" lon="-15.572352">
        <ele>1940.50</ele>
        <time>2018-02-17T10:56:24Z</time>
      </trkpt>
      <trkpt lat="27.963512" lon="-15.572366">
        <ele>1940.36</ele>
        <time>2018-02-17T10:56:34Z</time>
      </trkpt>
      <trkpt lat="27.963500" lon="-15.572385">
        <ele>1940.80</ele>
        <time>2018-02-17T10:57:58Z</time>
      </trkpt>
      <trkpt lat="27.963498" lon="-15.572361">
        <ele>1940.80</ele>
        <time>2018-02-17T10:58:25Z</time>
      </trkpt>
      <trkpt lat="27.963481" lon="-15.572346">
        <ele>1940.97</ele>
        <time>2018-02-17T10:58:29Z</time>
      </trkpt>
      <trkpt lat="27.963461" lon="-15.572324">
        <ele>1940.79</ele>
        <time>2018-02-17T10:58:33Z</time>
      </trkpt>
      <trkpt lat="27.963452" lon="-15.572301">
        <ele>1940.40</ele>
        <time>2018-02-17T10:58:36Z</time>
      </trkpt>
      <trkpt lat="27.963439" lon="-15.572285">
        <ele>1940.30</ele>
        <time>2018-02-17T10:58:39Z</time>
      </trkpt>
      <trkpt lat="27.963426" lon="-15.572267">
        <ele>1940.34</ele>
        <time>2018-02-17T10:58:41Z</time>
      </trkpt>
      <trkpt lat="27.963413" lon="-15.572250">
        <ele>1940.27</ele>
        <time>2018-02-17T10:58:44Z</time>
      </trkpt>
      <trkpt lat="27.963392" lon="-15.572226">
        <ele>1940.40</ele>
        <time>2018-02-17T10:58:47Z</time>
      </trkpt>
      <trkpt lat="27.963376" lon="-15.572211">
        <ele>1940.40</ele>
        <time>2018-02-17T10:58:49Z</time>
      </trkpt>
      <trkpt lat="27.963362" lon="-15.572196">
        <ele>1940.44</ele>
        <time>2018-02-17T10:58:51Z</time>
      </trkpt>
      <trkpt lat="27.963346" lon="-15.572176">
        <ele>1940.54</ele>
        <time>2018-02-17T10:58:53Z</time>
      </trkpt>
      <trkpt lat="27.963326" lon="-15.572165">
        <ele>1940.63</ele>
        <time>2018-02-17T10:58:56Z</time>
      </trkpt>
      <trkpt lat="27.963301" lon="-15.572148">
        <ele>1940.80</ele>
        <time>2018-02-17T10:58:58Z</time>
      </trkpt>
      <trkpt lat="27.963274" lon="-15.572133">
        <ele>1940.91</ele>
        <time>2018-02-17T10:59:00Z</time>
      </trkpt>
      <trkpt lat="27.963252" lon="-15.572123">
        <ele>1941.17</ele>
        <time>2018-02-17T10:59:03Z</time>
      </trkpt>
      <trkpt lat="27.963225" lon="-15.572118">
        <ele>1941.34</ele>
        <time>2018-02-17T10:59:06Z</time>
      </trkpt>
      <trkpt lat="27.963206" lon="-15.572103">
        <ele>1941.70</ele>
        <time>2018-02-17T10:59:09Z</time>
      </trkpt>
      <trkpt lat="27.963186" lon="-15.572097">
        <ele>1941.97</ele>
        <time>2018-02-17T10:59:12Z</time>
      </trkpt>
      <trkpt lat="27.963165" lon="-15.572075">
        <ele>1942.13</ele>
        <time>2018-02-17T10:59:14Z</time>
      </trkpt>
      <trkpt lat="27.963140" lon="-15.572051">
        <ele>1942.27</ele>
        <time>2018-02-17T10:59:16Z</time>
      </trkpt>
      <trkpt lat="27.963111" lon="-15.572034">
        <ele>1942.64</ele>
        <time>2018-02-17T10:59:18Z</time>
      </trkpt>
      <trkpt lat="27.963088" lon="-15.572019">
        <ele>1942.74</ele>
        <time>2018-02-17T10:59:20Z</time>
      </trkpt>
      <trkpt lat="27.963065" lon="-15.572003">
        <ele>1942.91</ele>
        <time>2018-02-17T10:59:22Z</time>
      </trkpt>
      <trkpt lat="27.963046" lon="-15.571991">
        <ele>1943.38</ele>
        <time>2018-02-17T10:59:24Z</time>
      </trkpt>
      <trkpt lat="27.963024" lon="-15.571973">
        <ele>1943.73</ele>
        <time>2018-02-17T10:59:26Z</time>
      </trkpt>
      <trkpt lat="27.963012" lon="-15.571958">
        <ele>1943.90</ele>
        <time>2018-02-17T10:59:28Z</time>
      </trkpt>
      <trkpt lat="27.962993" lon="-15.571954">
        <ele>1944.20</ele>
        <time>2018-02-17T10:59:30Z</time>
      </trkpt>
      <trkpt lat="27.962972" lon="-15.571946">
        <ele>1944.20</ele>
        <time>2018-02-17T10:59:32Z</time>
      </trkpt>
      <trkpt lat="27.962947" lon="-15.571941">
        <ele>1944.24</ele>
        <time>2018-02-17T10:59:34Z</time>
      </trkpt>
      <trkpt lat="27.962922" lon="-15.571938">
        <ele>1944.34</ele>
        <time>2018-02-17T10:59:36Z</time>
      </trkpt>
      <trkpt lat="27.962897" lon="-15.571935">
        <ele>1944.55</ele>
        <time>2018-02-17T10:59:38Z</time>
      </trkpt>
      <trkpt lat="27.962869" lon="-15.571936">
        <ele>1945.20</ele>
        <time>2018-02-17T10:59:40Z</time>
      </trkpt>
      <trkpt lat="27.962841" lon="-15.571944">
        <ele>1945.20</ele>
        <time>2018-02-17T10:59:42Z</time>
      </trkpt>
      <trkpt lat="27.962815" lon="-15.571944">
        <ele>1945.31</ele>
        <time>2018-02-17T10:59:44Z</time>
      </trkpt>
      <trkpt lat="27.962793" lon="-15.571931">
        <ele>1945.64</ele>
        <time>2018-02-17T10:59:47Z</time>
      </trkpt>
      <trkpt lat="27.962774" lon="-15.571927">
        <ele>1945.76</ele>
        <time>2018-02-17T10:59:49Z</time>
      </trkpt>
      <trkpt lat="27.962752" lon="-15.571927">
        <ele>1945.98</ele>
        <time>2018-02-17T10:59:51Z</time>
      </trkpt>
      <trkpt lat="27.962732" lon="-15.571924">
        <ele>1946.41</ele>
        <time>2018-02-17T10:59:53Z</time>
      </trkpt>
      <trkpt lat="27.962707" lon="-15.571928">
        <ele>1946.60</ele>
        <time>2018-02-17T10:59:55Z</time>
      </trkpt>
      <trkpt lat="27.962680" lon="-15.571934">
        <ele>1946.70</ele>
        <time>2018-02-17T10:59:57Z</time>
      </trkpt>
      <trkpt lat="27.962660" lon="-15.571936">
        <ele>1947.42</ele>
        <time>2018-02-17T11:00:00Z</time>
      </trkpt>
      <trkpt lat="27.962641" lon="-15.571938">
        <ele>1947.80</ele>
        <time>2018-02-17T11:00:02Z</time>
      </trkpt>
      <trkpt lat="27.962619" lon="-15.571933">
        <ele>1947.80</ele>
        <time>2018-02-17T11:00:04Z</time>
      </trkpt>
      <trkpt lat="27.962599" lon="-15.571928">
        <ele>1947.80</ele>
        <time>2018-02-17T11:00:06Z</time>
      </trkpt>
      <trkpt lat="27.962566" lon="-15.571924">
        <ele>1947.83</ele>
        <time>2018-02-17T11:00:08Z</time>
      </trkpt>
      <trkpt lat="27.962547" lon="-15.571924">
        <ele>1947.93</ele>
        <time>2018-02-17T11:00:09Z</time>
      </trkpt>
      <trkpt lat="27.962521" lon="-15.571918">
        <ele>1948.13</ele>
        <time>2018-02-17T11:00:11Z</time>
      </trkpt>
      <trkpt lat="27.962492" lon="-15.571918">
        <ele>1948.50</ele>
        <time>2018-02-17T11:00:13Z</time>
      </trkpt>
      <trkpt lat="27.962470" lon="-15.571927">
        <ele>1948.59</ele>
        <time>2018-02-17T11:00:15Z</time>
      </trkpt>
      <trkpt lat="27.962444" lon="-15.571935">
        <ele>1949.30</ele>
        <time>2018-02-17T11:00:18Z</time>
      </trkpt>
      <trkpt lat="27.962426" lon="-15.571936">
        <ele>1949.40</ele>
        <time>2018-02-17T11:00:20Z</time>
      </trkpt>
      <trkpt lat="27.962401" lon="-15.571927">
        <ele>1949.40</ele>
        <time>2018-02-17T11:00:22Z</time>
      </trkpt>
      <trkpt lat="27.962379" lon="-15.571932">
        <ele>1949.40</ele>
        <time>2018-02-17T11:00:24Z</time>
      </trkpt>
      <trkpt lat="27.962357" lon="-15.571928">
        <ele>1950.05</ele>
        <time>2018-02-17T11:00:26Z</time>
      </trkpt>
      <trkpt lat="27.962332" lon="-15.571932">
        <ele>1950.32</ele>
        <time>2018-02-17T11:00:28Z</time>
      </trkpt>
      <trkpt lat="27.962310" lon="-15.571935">
        <ele>1950.50</ele>
        <time>2018-02-17T11:00:30Z</time>
      </trkpt>
      <trkpt lat="27.962289" lon="-15.571933">
        <ele>1950.85</ele>
        <time>2018-02-17T11:00:32Z</time>
      </trkpt>
      <trkpt lat="27.962270" lon="-15.571932">
        <ele>1951.00</ele>
        <time>2018-02-17T11:00:34Z</time>
      </trkpt>
      <trkpt lat="27.962247" lon="-15.571942">
        <ele>1951.25</ele>
        <time>2018-02-17T11:00:37Z</time>
      </trkpt>
      <trkpt lat="27.962235" lon="-15.571961">
        <ele>1951.95</ele>
        <time>2018-02-17T11:00:39Z</time>
      </trkpt>
      <trkpt lat="27.962211" lon="-15.571974">
        <ele>1953.95</ele>
        <time>2018-02-17T11:00:42Z</time>
      </trkpt>
      <trkpt lat="27.962188" lon="-15.571979">
        <ele>1954.10</ele>
        <time>2018-02-17T11:00:44Z</time>
      </trkpt>
      <trkpt lat="27.962163" lon="-15.571980">
        <ele>1954.10</ele>
        <time>2018-02-17T11:00:46Z</time>
      </trkpt>
      <trkpt lat="27.962141" lon="-15.571978">
        <ele>1953.07</ele>
        <time>2018-02-17T11:00:48Z</time>
      </trkpt>
      <trkpt lat="27.962122" lon="-15.571979">
        <ele>1953.00</ele>
        <time>2018-02-17T11:00:50Z</time>
      </trkpt>
      <trkpt lat="27.962092" lon="-15.571973">
        <ele>1952.93</ele>
        <time>2018-02-17T11:00:53Z</time>
      </trkpt>
      <trkpt lat="27.962071" lon="-15.571969">
        <ele>1953.00</ele>
        <time>2018-02-17T11:00:55Z</time>
      </trkpt>
      <trkpt lat="27.962050" lon="-15.571971">
        <ele>1952.97</ele>
        <time>2018-02-17T11:00:57Z</time>
      </trkpt>
      <trkpt lat="27.962023" lon="-15.571974">
        <ele>1953.10</ele>
        <time>2018-02-17T11:00:59Z</time>
      </trkpt>
      <trkpt lat="27.962003" lon="-15.571990">
        <ele>1953.13</ele>
        <time>2018-02-17T11:01:01Z</time>
      </trkpt>
      <trkpt lat="27.961985" lon="-15.571940">
        <ele>1950.44</ele>
        <time>2018-01-13T09:19:28Z</time>
      </trkpt>
      <trkpt lat="27.962006" lon="-15.571944">
        <ele>1949.88</ele>
        <time>2018-01-13T09:20:35Z</time>
      </trkpt>
      <trkpt lat="27.962018" lon="-15.571923">
        <ele>1949.20</ele>
        <time>2018-01-13T09:20:38Z</time>
      </trkpt>
      <trkpt lat="27.962039" lon="-15.571921">
        <ele>1949.20</ele>
        <time>2018-01-13T09:20:40Z</time>
      </trkpt>
      <trkpt lat="27.962070" lon="-15.571913">
        <ele>1948.99</ele>
        <time>2018-01-13T09:20:42Z</time>
      </trkpt>
      <trkpt lat="27.962170" lon="-15.571898">
        <ele>1947.66</ele>
        <time>2018-01-13T09:20:50Z</time>
      </trkpt>
      <trkpt lat="27.962250" lon="-15.571892">
        <ele>1947.50</ele>
        <time>2018-01-13T09:20:57Z</time>
      </trkpt>
      <trkpt lat="27.962280" lon="-15.571895">
        <ele>1947.47</ele>
        <time>2018-01-13T09:20:59Z</time>
      </trkpt>
      <trkpt lat="27.962308" lon="-15.571894">
        <ele>1947.10</ele>
        <time>2018-01-13T09:21:01Z</time>
      </trkpt>
      <trkpt lat="27.962341" lon="-15.571898">
        <ele>1945.90</ele>
        <time>2018-01-13T09:21:03Z</time>
      </trkpt>
      <trkpt lat="27.962369" lon="-15.571908">
        <ele>1945.59</ele>
        <time>2018-01-13T09:21:05Z</time>
      </trkpt>
      <trkpt lat="27.962393" lon="-15.571901">
        <ele>1945.44</ele>
        <time>2018-01-13T09:21:07Z</time>
      </trkpt>
      <trkpt lat="27.962420" lon="-15.571885">
        <ele>1944.89</ele>
        <time>2018-01-13T09:21:09Z</time>
      </trkpt>
      <trkpt lat="27.962526" lon="-15.571881">
        <ele>1944.00</ele>
        <time>2018-01-13T09:21:16Z</time>
      </trkpt>
      <trkpt lat="27.962564" lon="-15.571880">
        <ele>1944.00</ele>
        <time>2018-01-13T09:21:19Z</time>
      </trkpt>
      <trkpt lat="27.962595" lon="-15.571885">
        <ele>1943.92</ele>
        <time>2018-01-13T09:21:21Z</time>
      </trkpt>
      <trkpt lat="27.962618" lon="-15.571882">
        <ele>1943.20</ele>
        <time>2018-01-13T09:21:23Z</time>
      </trkpt>
      <trkpt lat="27.962712" lon="-15.571886">
        <ele>1942.30</ele>
        <time>2018-01-13T09:21:29Z</time>
      </trkpt>
      <trkpt lat="27.962732" lon="-15.571884">
        <ele>1942.30</ele>
        <time>2018-01-13T09:21:30Z</time>
      </trkpt>
      <trkpt lat="27.962826" lon="-15.571892">
        <ele>1941.40</ele>
        <time>2018-01-13T09:21:36Z</time>
      </trkpt>
      <trkpt lat="27.962916" lon="-15.571913">
        <ele>1940.66</ele>
        <time>2018-01-13T09:21:42Z</time>
      </trkpt>
      <trkpt lat="27.963017" lon="-15.571948">
        <ele>1939.95</ele>
        <time>2018-01-13T09:21:48Z</time>
      </trkpt>
      <trkpt lat="27.963120" lon="-15.571974">
        <ele>1938.50</ele>
        <time>2018-01-13T09:21:55Z</time>
      </trkpt>
      <trkpt lat="27.963196" lon="-15.571998">
        <ele>1937.90</ele>
        <time>2018-01-13T09:21:59Z</time>
      </trkpt>
      <trkpt lat="27.963270" lon="-15.572077">
        <ele>1937.37</ele>
        <time>2018-01-13T09:22:06Z</time>
      </trkpt>
      <trkpt lat="27.963350" lon="-15.572149">
        <ele>1937.30</ele>
        <time>2018-01-13T09:22:14Z</time>
      </trkpt>
      <trkpt lat="27.963368" lon="-15.572170">
        <ele>1937.30</ele>
        <time>2018-01-13T09:22:16Z</time>
      </trkpt>
      <trkpt lat="27.963389" lon="-15.572185">
        <ele>1937.00</ele>
        <time>2018-01-13T09:22:18Z</time>
      </trkpt>
      <trkpt lat="27.963414" lon="-15.572196">
        <ele>1936.86</ele>
        <time>2018-01-13T09:22:21Z</time>
      </trkpt>
      <trkpt lat="27.963438" lon="-15.572204">
        <ele>1937.00</ele>
        <time>2018-01-13T09:22:23Z</time>
      </trkpt>
      <trkpt lat="27.963460" lon="-15.572215">
        <ele>1936.70</ele>
        <time>2018-01-13T09:22:25Z</time>
      </trkpt>
      <trkpt lat="27.963483" lon="-15.572231">
        <ele>1936.47</ele>
        <time>2018-01-13T09:22:27Z</time>
      </trkpt>
      <trkpt lat="27.963499" lon="-15.572242">
        <ele>1936.30</ele>
        <time>2018-01-13T09:22:29Z</time>
      </trkpt>
      <trkpt lat="27.963521" lon="-15.572258">
        <ele>1936.27</ele>
        <time>2018-01-13T09:22:31Z</time>
      </trkpt>
      <trkpt lat="27.963543" lon="-15.572272">
        <ele>1936.20</ele>
        <time>2018-01-13T09:22:33Z</time>
      </trkpt>
      <trkpt lat="27.963566" lon="-15.572274">
        <ele>1935.67</ele>
        <time>2018-01-13T09:22:35Z</time>
      </trkpt>
      <trkpt lat="27.963590" lon="-15.572279">
        <ele>1934.04</ele>
        <time>2018-01-13T09:22:37Z</time>
      </trkpt>
      <trkpt lat="27.963619" lon="-15.572284">
        <ele>1933.70</ele>
        <time>2018-01-13T09:22:39Z</time>
      </trkpt>
      <trkpt lat="27.963653" lon="-15.572267">
        <ele>1933.27</ele>
        <time>2018-01-13T09:22:42Z</time>
      </trkpt>
      <trkpt lat="27.963719" lon="-15.572213">
        <ele>1932.94</ele>
        <time>2018-01-13T09:22:47Z</time>
      </trkpt>
      <trkpt lat="27.963739" lon="-15.572192">
        <ele>1932.61</ele>
        <time>2018-01-13T09:22:49Z</time>
      </trkpt>
      <trkpt lat="27.963825" lon="-15.572133">
        <ele>1931.24</ele>
        <time>2018-01-13T09:22:56Z</time>
      </trkpt>
      <trkpt lat="27.963913" lon="-15.572091">
        <ele>1931.30</ele>
        <time>2018-01-13T09:23:03Z</time>
      </trkpt>
      <trkpt lat="27.963991" lon="-15.572030">
        <ele>1930.17</ele>
        <time>2018-01-13T09:23:10Z</time>
      </trkpt>
      <trkpt lat="27.964079" lon="-15.571983">
        <ele>1928.75</ele>
        <time>2018-01-13T09:23:16Z</time>
      </trkpt>
      <trkpt lat="27.964157" lon="-15.571923">
        <ele>1927.00</ele>
        <time>2018-01-13T09:23:21Z</time>
      </trkpt>
      <trkpt lat="27.964240" lon="-15.571866">
        <ele>1926.50</ele>
        <time>2018-01-13T09:23:26Z</time>
      </trkpt>
      <trkpt lat="27.964300" lon="-15.571779">
        <ele>1926.40</ele>
        <time>2018-01-13T09:23:31Z</time>
      </trkpt>
      <trkpt lat="27.964266" lon="-15.571670">
        <ele>1926.50</ele>
        <time>2018-01-13T09:23:38Z</time>
      </trkpt>
      <trkpt lat="27.964268" lon="-15.571552">
        <ele>1927.10</ele>
        <time>2018-01-13T09:23:45Z</time>
      </trkpt>
      <trkpt lat="27.964251" lon="-15.571441">
        <ele>1926.72</ele>
        <time>2018-01-13T09:23:51Z</time>
      </trkpt>
      <trkpt lat="27.964243" lon="-15.571336">
        <ele>1926.70</ele>
        <time>2018-01-13T09:23:55Z</time>
      </trkpt>
      <trkpt lat="27.964207" lon="-15.571226">
        <ele>1926.50</ele>
        <time>2018-01-13T09:24:00Z</time>
      </trkpt>
      <trkpt lat="27.964176" lon="-15.571129">
        <ele>1927.00</ele>
        <time>2018-01-13T09:24:04Z</time>
      </trkpt>
      <trkpt lat="27.964132" lon="-15.571037">
        <ele>1928.65</ele>
        <time>2018-01-13T09:24:08Z</time>
      </trkpt>
      <trkpt lat="27.964091" lon="-15.570930">
        <ele>1928.60</ele>
        <time>2018-01-13T09:24:12Z</time>
      </trkpt>
      <trkpt lat="27.964064" lon="-15.570817">
        <ele>1928.30</ele>
        <time>2018-01-13T09:24:16Z</time>
      </trkpt>
      <trkpt lat="27.964019" lon="-15.570704">
        <ele>1928.15</ele>
        <time>2018-01-13T09:24:21Z</time>
      </trkpt>
      <trkpt lat="27.963975" lon="-15.570602">
        <ele>1928.40</ele>
        <time>2018-01-13T09:24:26Z</time>
      </trkpt>
      <trkpt lat="27.963917" lon="-15.570506">
        <ele>1929.00</ele>
        <time>2018-01-13T09:24:31Z</time>
      </trkpt>
      <trkpt lat="27.963866" lon="-15.570410">
        <ele>1929.00</ele>
        <time>2018-01-13T09:24:36Z</time>
      </trkpt>
      <trkpt lat="27.963823" lon="-15.570307">
        <ele>1928.45</ele>
        <time>2018-01-13T09:24:41Z</time>
      </trkpt>
      <trkpt lat="27.963774" lon="-15.570218">
        <ele>1928.40</ele>
        <time>2018-01-13T09:24:45Z</time>
      </trkpt>
      <trkpt lat="27.963713" lon="-15.570132">
        <ele>1928.40</ele>
        <time>2018-01-13T09:24:50Z</time>
      </trkpt>
      <trkpt lat="27.963664" lon="-15.570014">
        <ele>1928.30</ele>
        <time>2018-01-13T09:24:55Z</time>
      </trkpt>
      <trkpt lat="27.963618" lon="-15.569920">
        <ele>1927.66</ele>
        <time>2018-01-13T09:24:59Z</time>
      </trkpt>
      <trkpt lat="27.963589" lon="-15.569824">
        <ele>1927.03</ele>
        <time>2018-01-13T09:25:04Z</time>
      </trkpt>
      <trkpt lat="27.963531" lon="-15.569731">
        <ele>1927.50</ele>
        <time>2018-01-13T09:25:09Z</time>
      </trkpt>
      <trkpt lat="27.963482" lon="-15.569641">
        <ele>1927.64</ele>
        <time>2018-01-13T09:25:13Z</time>
      </trkpt>
      <trkpt lat="27.963434" lon="-15.569545">
        <ele>1926.50</ele>
        <time>2018-01-13T09:25:17Z</time>
      </trkpt>
      <trkpt lat="27.963385" lon="-15.569459">
        <ele>1926.44</ele>
        <time>2018-01-13T09:25:21Z</time>
      </trkpt>
      <trkpt lat="27.963370" lon="-15.569438">
        <ele>1926.95</ele>
        <time>2018-01-13T09:25:22Z</time>
      </trkpt>
      <trkpt lat="27.963355" lon="-15.569416">
        <ele>1927.24</ele>
        <time>2018-01-13T09:25:23Z</time>
      </trkpt>
      <trkpt lat="27.963343" lon="-15.569395">
        <ele>1927.20</ele>
        <time>2018-01-13T09:25:24Z</time>
      </trkpt>
      <trkpt lat="27.963298" lon="-15.569307">
        <ele>1926.90</ele>
        <time>2018-01-13T09:25:28Z</time>
      </trkpt>
      <trkpt lat="27.963249" lon="-15.569216">
        <ele>1926.35</ele>
        <time>2018-01-13T09:25:32Z</time>
      </trkpt>
      <trkpt lat="27.963208" lon="-15.569087">
        <ele>1926.50</ele>
        <time>2018-01-13T09:25:36Z</time>
      </trkpt>
      <trkpt lat="27.963208" lon="-15.568977">
        <ele>1926.24</ele>
        <time>2018-01-13T09:25:42Z</time>
      </trkpt>
      <trkpt lat="27.963195" lon="-15.568860">
        <ele>1925.90</ele>
        <time>2018-01-13T09:25:48Z</time>
      </trkpt>
      <trkpt lat="27.963149" lon="-15.568748">
        <ele>1925.34</ele>
        <time>2018-01-13T09:25:53Z</time>
      </trkpt>
      <trkpt lat="27.963101" lon="-15.568644">
        <ele>1926.10</ele>
        <time>2018-01-13T09:25:58Z</time>
      </trkpt>
      <trkpt lat="27.963069" lon="-15.568539">
        <ele>1925.10</ele>
        <time>2018-01-13T09:26:03Z</time>
      </trkpt>
      <trkpt lat="27.963039" lon="-15.568438">
        <ele>1925.22</ele>
        <time>2018-01-13T09:26:07Z</time>
      </trkpt>
      <trkpt lat="27.962992" lon="-15.568328">
        <ele>1924.70</ele>
        <time>2018-01-13T09:26:12Z</time>
      </trkpt>
      <trkpt lat="27.962953" lon="-15.568218">
        <ele>1924.06</ele>
        <time>2018-01-13T09:26:17Z</time>
      </trkpt>
      <trkpt lat="27.962913" lon="-15.568100">
        <ele>1923.80</ele>
        <time>2018-01-13T09:26:22Z</time>
      </trkpt>
      <trkpt lat="27.962874" lon="-15.568000">
        <ele>1924.30</ele>
        <time>2018-01-13T09:26:26Z</time>
      </trkpt>
      <trkpt lat="27.962837" lon="-15.567893">
        <ele>1924.20</ele>
        <time>2018-01-13T09:26:31Z</time>
      </trkpt>
      <trkpt lat="27.962794" lon="-15.567797">
        <ele>1923.80</ele>
        <time>2018-01-13T09:26:36Z</time>
      </trkpt>
      <trkpt lat="27.962750" lon="-15.567708">
        <ele>1923.66</ele>
        <time>2018-01-13T09:26:41Z</time>
      </trkpt>
      <trkpt lat="27.962701" lon="-15.567604">
        <ele>1923.11</ele>
        <time>2018-01-13T09:26:46Z</time>
      </trkpt>
      <trkpt lat="27.962648" lon="-15.567510">
        <ele>1922.48</ele>
        <time>2018-01-13T09:26:51Z</time>
      </trkpt>
      <trkpt lat="27.962592" lon="-15.567402">
        <ele>1921.10</ele>
        <time>2018-01-13T09:26:57Z</time>
      </trkpt>
      <trkpt lat="27.962527" lon="-15.567315">
        <ele>1921.77</ele>
        <time>2018-01-13T09:27:03Z</time>
      </trkpt>
      <trkpt lat="27.962449" lon="-15.567231">
        <ele>1920.30</ele>
        <time>2018-01-13T09:27:08Z</time>
      </trkpt>
      <trkpt lat="27.962380" lon="-15.567140">
        <ele>1920.56</ele>
        <time>2018-01-13T09:27:13Z</time>
      </trkpt>
      <trkpt lat="27.962312" lon="-15.567062">
        <ele>1921.10</ele>
        <time>2018-01-13T09:27:17Z</time>
      </trkpt>
      <trkpt lat="27.962251" lon="-15.566981">
        <ele>1921.00</ele>
        <time>2018-01-13T09:27:21Z</time>
      </trkpt>
      <trkpt lat="27.962175" lon="-15.566913">
        <ele>1921.56</ele>
        <time>2018-01-13T09:27:25Z</time>
      </trkpt>
      <trkpt lat="27.962157" lon="-15.566894">
        <ele>1921.60</ele>
        <time>2018-01-13T09:27:26Z</time>
      </trkpt>
      <trkpt lat="27.962135" lon="-15.566871">
        <ele>1921.52</ele>
        <time>2018-01-13T09:27:27Z</time>
      </trkpt>
      <trkpt lat="27.962115" lon="-15.566849">
        <ele>1921.90</ele>
        <time>2018-01-13T09:27:28Z</time>
      </trkpt>
      <trkpt lat="27.962100" lon="-15.566832">
        <ele>1922.00</ele>
        <time>2018-01-13T09:27:29Z</time>
      </trkpt>
      <trkpt lat="27.962083" lon="-15.566814">
        <ele>1922.32</ele>
        <time>2018-01-13T09:27:30Z</time>
      </trkpt>
      <trkpt lat="27.962068" lon="-15.566796">
        <ele>1922.32</ele>
        <time>2018-01-13T09:27:31Z</time>
      </trkpt>
      <trkpt lat="27.962051" lon="-15.566775">
        <ele>1922.30</ele>
        <time>2018-01-13T09:27:32Z</time>
      </trkpt>
      <trkpt lat="27.962031" lon="-15.566753">
        <ele>1922.30</ele>
        <time>2018-01-13T09:27:33Z</time>
      </trkpt>
      <trkpt lat="27.962014" lon="-15.566733">
        <ele>1922.30</ele>
        <time>2018-01-13T09:27:34Z</time>
      </trkpt>
      <trkpt lat="27.961998" lon="-15.566711">
        <ele>1923.12</ele>
        <time>2018-01-13T09:27:35Z</time>
      </trkpt>
      <trkpt lat="27.961979" lon="-15.566689">
        <ele>1923.46</ele>
        <time>2018-01-13T09:27:36Z</time>
      </trkpt>
      <trkpt lat="27.961965" lon="-15.566671">
        <ele>1923.50</ele>
        <time>2018-01-13T09:27:37Z</time>
      </trkpt>
      <trkpt lat="27.961948" lon="-15.566651">
        <ele>1923.50</ele>
        <time>2018-01-13T09:27:38Z</time>
      </trkpt>
      <trkpt lat="27.961931" lon="-15.566634">
        <ele>1923.50</ele>
        <time>2018-01-13T09:27:39Z</time>
      </trkpt>
      <trkpt lat="27.961915" lon="-15.566615">
        <ele>1923.42</ele>
        <time>2018-01-13T09:27:40Z</time>
      </trkpt>
      <trkpt lat="27.961897" lon="-15.566596">
        <ele>1923.40</ele>
        <time>2018-01-13T09:27:41Z</time>
      </trkpt>
      <trkpt lat="27.961881" lon="-15.566579">
        <ele>1923.40</ele>
        <time>2018-01-13T09:27:42Z</time>
      </trkpt>
      <trkpt lat="27.961863" lon="-15.566562">
        <ele>1923.90</ele>
        <time>2018-01-13T09:27:43Z</time>
      </trkpt>
      <trkpt lat="27.961848" lon="-15.566542">
        <ele>1923.92</ele>
        <time>2018-01-13T09:27:44Z</time>
      </trkpt>
      <trkpt lat="27.961830" lon="-15.566522">
        <ele>1923.90</ele>
        <time>2018-01-13T09:27:45Z</time>
      </trkpt>
      <trkpt lat="27.961813" lon="-15.566502">
        <ele>1923.90</ele>
        <time>2018-01-13T09:27:46Z</time>
      </trkpt>
      <trkpt lat="27.961795" lon="-15.566485">
        <ele>1923.90</ele>
        <time>2018-01-13T09:27:47Z</time>
      </trkpt>
      <trkpt lat="27.961779" lon="-15.566466">
        <ele>1923.90</ele>
        <time>2018-01-13T09:27:48Z</time>
      </trkpt>
      <trkpt lat="27.961764" lon="-15.566449">
        <ele>1923.82</ele>
        <time>2018-01-13T09:27:49Z</time>
      </trkpt>
      <trkpt lat="27.961747" lon="-15.566432">
        <ele>1923.88</ele>
        <time>2018-01-13T09:27:50Z</time>
      </trkpt>
      <trkpt lat="27.961730" lon="-15.566416">
        <ele>1923.90</ele>
        <time>2018-01-13T09:27:51Z</time>
      </trkpt>
      <trkpt lat="27.961713" lon="-15.566398">
        <ele>1923.90</ele>
        <time>2018-01-13T09:27:52Z</time>
      </trkpt>
      <trkpt lat="27.961696" lon="-15.566377">
        <ele>1923.90</ele>
        <time>2018-01-13T09:27:53Z</time>
      </trkpt>
      <trkpt lat="27.961682" lon="-15.566357">
        <ele>1923.90</ele>
        <time>2018-01-13T09:27:54Z</time>
      </trkpt>
      <trkpt lat="27.961664" lon="-15.566333">
        <ele>1923.90</ele>
        <time>2018-01-13T09:27:55Z</time>
      </trkpt>
      <trkpt lat="27.961652" lon="-15.566314">
        <ele>1923.82</ele>
        <time>2018-01-13T09:27:56Z</time>
      </trkpt>
      <trkpt lat="27.961622" lon="-15.566272">
        <ele>1923.80</ele>
        <time>2018-01-13T09:27:58Z</time>
      </trkpt>
      <trkpt lat="27.961573" lon="-15.566186">
        <ele>1923.80</ele>
        <time>2018-01-13T09:28:02Z</time>
      </trkpt>
      <trkpt lat="27.961561" lon="-15.566167">
        <ele>1924.57</ele>
        <time>2018-01-13T09:28:03Z</time>
      </trkpt>
      <trkpt lat="27.961502" lon="-15.566080">
        <ele>1923.66</ele>
        <time>2018-01-13T09:28:07Z</time>
      </trkpt>
      <trkpt lat="27.961453" lon="-15.565994">
        <ele>1924.54</ele>
        <time>2018-01-13T09:28:11Z</time>
      </trkpt>
      <trkpt lat="27.961402" lon="-15.565890">
        <ele>1924.60</ele>
        <time>2018-01-13T09:28:15Z</time>
      </trkpt>
      <trkpt lat="27.961378" lon="-15.565781">
        <ele>1925.79</ele>
        <time>2018-01-13T09:28:18Z</time>
      </trkpt>
      <trkpt lat="27.961365" lon="-15.565668">
        <ele>1925.85</ele>
        <time>2018-01-13T09:28:22Z</time>
      </trkpt>
      <trkpt lat="27.961392" lon="-15.565558">
        <ele>1926.80</ele>
        <time>2018-01-13T09:28:26Z</time>
      </trkpt>
      <trkpt lat="27.961432" lon="-15.565440">
        <ele>1926.53</ele>
        <time>2018-01-13T09:28:31Z</time>
      </trkpt>
      <trkpt lat="27.961458" lon="-15.565339">
        <ele>1926.32</ele>
        <time>2018-01-13T09:28:36Z</time>
      </trkpt>
      <trkpt lat="27.961472" lon="-15.565298">
        <ele>1926.30</ele>
        <time>2018-01-13T09:28:38Z</time>
      </trkpt>
      <trkpt lat="27.961479" lon="-15.565263">
        <ele>1926.60</ele>
        <time>2018-01-13T09:28:40Z</time>
      </trkpt>
      <trkpt lat="27.961484" lon="-15.565225">
        <ele>1926.30</ele>
        <time>2018-01-13T09:28:42Z</time>
      </trkpt>
      <trkpt lat="27.961489" lon="-15.565190">
        <ele>1926.59</ele>
        <time>2018-01-13T09:28:44Z</time>
      </trkpt>
      <trkpt lat="27.961498" lon="-15.565162">
        <ele>1926.50</ele>
        <time>2018-01-13T09:28:46Z</time>
      </trkpt>
      <trkpt lat="27.961503" lon="-15.565130">
        <ele>1926.50</ele>
        <time>2018-01-13T09:28:48Z</time>
      </trkpt>
      <trkpt lat="27.961512" lon="-15.565102">
        <ele>1925.90</ele>
        <time>2018-01-13T09:28:50Z</time>
      </trkpt>
      <trkpt lat="27.961517" lon="-15.565074">
        <ele>1925.90</ele>
        <time>2018-01-13T09:28:52Z</time>
      </trkpt>
      <trkpt lat="27.961515" lon="-15.565046">
        <ele>1925.81</ele>
        <time>2018-01-13T09:28:54Z</time>
      </trkpt>
      <trkpt lat="27.961507" lon="-15.565008">
        <ele>1925.34</ele>
        <time>2018-01-13T09:28:56Z</time>
      </trkpt>
      <trkpt lat="27.961499" lon="-15.564966">
        <ele>1924.54</ele>
        <time>2018-01-13T09:28:58Z</time>
      </trkpt>
      <trkpt lat="27.961498" lon="-15.564930">
        <ele>1924.50</ele>
        <time>2018-01-13T09:29:00Z</time>
      </trkpt>
      <trkpt lat="27.961501" lon="-15.564906">
        <ele>1924.60</ele>
        <time>2018-01-13T09:29:02Z</time>
      </trkpt>
      <trkpt lat="27.961528" lon="-15.564832">
        <ele>1923.82</ele>
        <time>2018-01-13T09:29:09Z</time>
      </trkpt>
      <trkpt lat="27.961520" lon="-15.564813">
        <ele>1923.71</ele>
        <time>2018-01-13T09:29:11Z</time>
      </trkpt>
      <trkpt lat="27.961514" lon="-15.564788">
        <ele>1923.20</ele>
        <time>2018-01-13T09:29:13Z</time>
      </trkpt>
      <trkpt lat="27.961504" lon="-15.564757">
        <ele>1922.70</ele>
        <time>2018-01-13T09:29:16Z</time>
      </trkpt>
      <trkpt lat="27.961498" lon="-15.564732">
        <ele>1921.83</ele>
        <time>2018-01-13T09:29:18Z</time>
      </trkpt>
      <trkpt lat="27.961486" lon="-15.564701">
        <ele>1921.61</ele>
        <time>2018-01-13T09:29:20Z</time>
      </trkpt>
      <trkpt lat="27.961491" lon="-15.564681">
        <ele>1921.30</ele>
        <time>2018-01-13T09:29:22Z</time>
      </trkpt>
      <trkpt lat="27.961513" lon="-15.564665">
        <ele>1921.01</ele>
        <time>2018-01-13T09:29:25Z</time>
      </trkpt>
      <trkpt lat="27.961518" lon="-15.564645">
        <ele>1920.70</ele>
        <time>2018-01-13T09:29:27Z</time>
      </trkpt>
      <trkpt lat="27.961515" lon="-15.564618">
        <ele>1920.30</ele>
        <time>2018-01-13T09:29:29Z</time>
      </trkpt>
      <trkpt lat="27.961517" lon="-15.564598">
        <ele>1920.30</ele>
        <time>2018-01-13T09:29:30Z</time>
      </trkpt>
      <trkpt lat="27.961506" lon="-15.564580">
        <ele>1919.90</ele>
        <time>2018-01-13T09:29:32Z</time>
      </trkpt>
      <trkpt lat="27.961491" lon="-15.564561">
        <ele>1919.90</ele>
        <time>2018-01-13T09:29:34Z</time>
      </trkpt>
      <trkpt lat="27.961474" lon="-15.564543">
        <ele>1919.70</ele>
        <time>2018-01-13T09:29:36Z</time>
      </trkpt>
      <trkpt lat="27.961459" lon="-15.564525">
        <ele>1919.70</ele>
        <time>2018-01-13T09:29:38Z</time>
      </trkpt>
      <trkpt lat="27.961446" lon="-15.564503">
        <ele>1919.60</ele>
        <time>2018-01-13T09:29:40Z</time>
      </trkpt>
      <trkpt lat="27.961428" lon="-15.564477">
        <ele>1919.20</ele>
        <time>2018-01-13T09:29:42Z</time>
      </trkpt>
      <trkpt lat="27.961409" lon="-15.564450">
        <ele>1919.00</ele>
        <time>2018-01-13T09:29:44Z</time>
      </trkpt>
      <trkpt lat="27.961393" lon="-15.564427">
        <ele>1918.70</ele>
        <time>2018-01-13T09:29:46Z</time>
      </trkpt>
      <trkpt lat="27.961378" lon="-15.564403">
        <ele>1918.50</ele>
        <time>2018-01-13T09:29:48Z</time>
      </trkpt>
      <trkpt lat="27.961355" lon="-15.564383">
        <ele>1918.20</ele>
        <time>2018-01-13T09:29:50Z</time>
      </trkpt>
      <trkpt lat="27.961338" lon="-15.564366">
        <ele>1918.00</ele>
        <time>2018-01-13T09:29:52Z</time>
      </trkpt>
      <trkpt lat="27.961318" lon="-15.564349">
        <ele>1917.70</ele>
        <time>2018-01-13T09:29:54Z</time>
      </trkpt>
      <trkpt lat="27.961301" lon="-15.564332">
        <ele>1917.00</ele>
        <time>2018-01-13T09:29:56Z</time>
      </trkpt>
      <trkpt lat="27.961285" lon="-15.564316">
        <ele>1916.90</ele>
        <time>2018-01-13T09:29:58Z</time>
      </trkpt>
      <trkpt lat="27.961270" lon="-15.564296">
        <ele>1916.60</ele>
        <time>2018-01-13T09:30:00Z</time>
      </trkpt>
      <trkpt lat="27.961256" lon="-15.564274">
        <ele>1916.40</ele>
        <time>2018-01-13T09:30:02Z</time>
      </trkpt>
      <trkpt lat="27.961242" lon="-15.564258">
        <ele>1915.99</ele>
        <time>2018-01-13T09:30:04Z</time>
      </trkpt>
      <trkpt lat="27.961228" lon="-15.564239">
        <ele>1915.10</ele>
        <time>2018-01-13T09:30:06Z</time>
      </trkpt>
      <trkpt lat="27.961210" lon="-15.564217">
        <ele>1915.00</ele>
        <time>2018-01-13T09:30:09Z</time>
      </trkpt>
      <trkpt lat="27.961193" lon="-15.564202">
        <ele>1914.80</ele>
        <time>2018-01-13T09:30:11Z</time>
      </trkpt>
      <trkpt lat="27.961176" lon="-15.564181">
        <ele>1914.59</ele>
        <time>2018-01-13T09:30:13Z</time>
      </trkpt>
      <trkpt lat="27.961162" lon="-15.564161">
        <ele>1913.70</ele>
        <time>2018-01-13T09:30:15Z</time>
      </trkpt>
      <trkpt lat="27.961143" lon="-15.564146">
        <ele>1913.60</ele>
        <time>2018-01-13T09:30:17Z</time>
      </trkpt>
      <trkpt lat="27.961129" lon="-15.564131">
        <ele>1913.10</ele>
        <time>2018-01-13T09:30:19Z</time>
      </trkpt>
      <trkpt lat="27.961111" lon="-15.564114">
        <ele>1912.70</ele>
        <time>2018-01-13T09:30:21Z</time>
      </trkpt>
      <trkpt lat="27.961094" lon="-15.564099">
        <ele>1912.30</ele>
        <time>2018-01-13T09:30:23Z</time>
      </trkpt>
      <trkpt lat="27.961077" lon="-15.564082">
        <ele>1912.10</ele>
        <time>2018-01-13T09:30:25Z</time>
      </trkpt>
      <trkpt lat="27.961062" lon="-15.564059">
        <ele>1911.50</ele>
        <time>2018-01-13T09:30:27Z</time>
      </trkpt>
      <trkpt lat="27.961047" lon="-15.564041">
        <ele>1911.10</ele>
        <time>2018-01-13T09:30:29Z</time>
      </trkpt>
      <trkpt lat="27.961034" lon="-15.564021">
        <ele>1910.19</ele>
        <time>2018-01-13T09:30:31Z</time>
      </trkpt>
      <trkpt lat="27.961019" lon="-15.564002">
        <ele>1909.40</ele>
        <time>2018-01-13T09:30:33Z</time>
      </trkpt>
      <trkpt lat="27.961001" lon="-15.563981">
        <ele>1909.20</ele>
        <time>2018-01-13T09:30:35Z</time>
      </trkpt>
      <trkpt lat="27.960992" lon="-15.563962">
        <ele>1909.20</ele>
        <time>2018-01-13T09:30:37Z</time>
      </trkpt>
      <trkpt lat="27.960989" lon="-15.563936">
        <ele>1909.00</ele>
        <time>2018-01-13T09:30:39Z</time>
      </trkpt>
      <trkpt lat="27.960989" lon="-15.563914">
        <ele>1908.60</ele>
        <time>2018-01-13T09:30:41Z</time>
      </trkpt>
      <trkpt lat="27.960992" lon="-15.563891">
        <ele>1908.48</ele>
        <time>2018-01-13T09:30:43Z</time>
      </trkpt>
      <trkpt lat="27.960992" lon="-15.563864">
        <ele>1907.09</ele>
        <time>2018-01-13T09:30:46Z</time>
      </trkpt>
      <trkpt lat="27.960991" lon="-15.563841">
        <ele>1906.59</ele>
        <time>2018-01-13T09:30:48Z</time>
      </trkpt>
      <trkpt lat="27.960991" lon="-15.563813">
        <ele>1906.00</ele>
        <time>2018-01-13T09:30:52Z</time>
      </trkpt>
      <trkpt lat="27.960992" lon="-15.563785">
        <ele>1906.10</ele>
        <time>2018-01-13T09:30:55Z</time>
      </trkpt>
      <trkpt lat="27.960993" lon="-15.563764">
        <ele>1906.10</ele>
        <time>2018-01-13T09:30:57Z</time>
      </trkpt>
      <trkpt lat="27.960997" lon="-15.563743">
        <ele>1906.10</ele>
        <time>2018-01-13T09:30:59Z</time>
      </trkpt>
      <trkpt lat="27.961004" lon="-15.563716">
        <ele>1905.09</ele>
        <time>2018-01-13T09:31:02Z</time>
      </trkpt>
      <trkpt lat="27.961010" lon="-15.563693">
        <ele>1904.50</ele>
        <time>2018-01-13T09:31:04Z</time>
      </trkpt>
      <trkpt lat="27.961021" lon="-15.563672">
        <ele>1904.40</ele>
        <time>2018-01-13T09:31:06Z</time>
      </trkpt>
      <trkpt lat="27.961033" lon="-15.563647">
        <ele>1904.40</ele>
        <time>2018-01-13T09:31:08Z</time>
      </trkpt>
      <trkpt lat="27.961040" lon="-15.563620">
        <ele>1904.21</ele>
        <time>2018-01-13T09:31:10Z</time>
      </trkpt>
      <trkpt lat="27.961045" lon="-15.563592">
        <ele>1904.40</ele>
        <time>2018-01-13T09:31:12Z</time>
      </trkpt>
      <trkpt lat="27.961050" lon="-15.563568">
        <ele>1904.40</ele>
        <time>2018-01-13T09:31:14Z</time>
      </trkpt>
      <trkpt lat="27.961058" lon="-15.563545">
        <ele>1904.30</ele>
        <time>2018-01-13T09:31:16Z</time>
      </trkpt>
      <trkpt lat="27.961061" lon="-15.563516">
        <ele>1904.29</ele>
        <time>2018-01-13T09:31:18Z</time>
      </trkpt>
      <trkpt lat="27.961064" lon="-15.563496">
        <ele>1903.92</ele>
        <time>2018-01-13T09:31:20Z</time>
      </trkpt>
      <trkpt lat="27.961073" lon="-15.563474">
        <ele>1902.80</ele>
        <time>2018-01-13T09:31:22Z</time>
      </trkpt>
      <trkpt lat="27.961086" lon="-15.563452">
        <ele>1902.49</ele>
        <time>2018-01-13T09:31:24Z</time>
      </trkpt>
      <trkpt lat="27.961091" lon="-15.563425">
        <ele>1902.14</ele>
        <time>2018-01-13T09:31:26Z</time>
      </trkpt>
      <trkpt lat="27.961094" lon="-15.563404">
        <ele>1901.70</ele>
        <time>2018-01-13T09:31:28Z</time>
      </trkpt>
      <trkpt lat="27.961113" lon="-15.563314">
        <ele>1900.10</ele>
        <time>2018-01-13T09:31:35Z</time>
      </trkpt>
      <trkpt lat="27.961124" lon="-15.563199">
        <ele>1898.20</ele>
        <time>2018-01-13T09:31:44Z</time>
      </trkpt>
      <trkpt lat="27.961141" lon="-15.563131">
        <ele>1896.80</ele>
        <time>2018-01-13T09:31:50Z</time>
      </trkpt>
      <trkpt lat="27.961136" lon="-15.563104">
        <ele>1896.70</ele>
        <time>2018-01-13T09:31:52Z</time>
      </trkpt>
      <trkpt lat="27.961137" lon="-15.563049">
        <ele>1895.50</ele>
        <time>2018-01-13T09:31:57Z</time>
      </trkpt>
      <trkpt lat="27.961137" lon="-15.563020">
        <ele>1895.30</ele>
        <time>2018-01-13T09:31:59Z</time>
      </trkpt>
      <trkpt lat="27.961134" lon="-15.562993">
        <ele>1895.30</ele>
        <time>2018-01-13T09:32:01Z</time>
      </trkpt>
      <trkpt lat="27.961123" lon="-15.562918">
        <ele>1893.90</ele>
        <time>2018-01-13T09:32:07Z</time>
      </trkpt>
      <trkpt lat="27.961118" lon="-15.562888">
        <ele>1893.60</ele>
        <time>2018-01-13T09:32:09Z</time>
      </trkpt>
      <trkpt lat="27.961114" lon="-15.562854">
        <ele>1893.60</ele>
        <time>2018-01-13T09:32:11Z</time>
      </trkpt>
      <trkpt lat="27.961114" lon="-15.562820">
        <ele>1893.60</ele>
        <time>2018-01-13T09:32:13Z</time>
      </trkpt>
      <trkpt lat="27.961113" lon="-15.562798">
        <ele>1893.50</ele>
        <time>2018-01-13T09:32:15Z</time>
      </trkpt>
      <trkpt lat="27.961105" lon="-15.562766">
        <ele>1893.20</ele>
        <time>2018-01-13T09:32:17Z</time>
      </trkpt>
      <trkpt lat="27.961103" lon="-15.562735">
        <ele>1893.20</ele>
        <time>2018-01-13T09:32:19Z</time>
      </trkpt>
      <trkpt lat="27.961105" lon="-15.562699">
        <ele>1893.21</ele>
        <time>2018-01-13T09:32:21Z</time>
      </trkpt>
      <trkpt lat="27.961112" lon="-15.562665">
        <ele>1893.90</ele>
        <time>2018-01-13T09:32:23Z</time>
      </trkpt>
      <trkpt lat="27.961120" lon="-15.562634">
        <ele>1893.90</ele>
        <time>2018-01-13T09:32:25Z</time>
      </trkpt>
      <trkpt lat="27.961127" lon="-15.562604">
        <ele>1893.70</ele>
        <time>2018-01-13T09:32:27Z</time>
      </trkpt>
      <trkpt lat="27.961138" lon="-15.562570">
        <ele>1893.20</ele>
        <time>2018-01-13T09:32:29Z</time>
      </trkpt>
      <trkpt lat="27.961146" lon="-15.562541">
        <ele>1892.30</ele>
        <time>2018-01-13T09:32:31Z</time>
      </trkpt>
      <trkpt lat="27.961148" lon="-15.562510">
        <ele>1892.20</ele>
        <time>2018-01-13T09:32:33Z</time>
      </trkpt>
      <trkpt lat="27.961144" lon="-15.562471">
        <ele>1892.20</ele>
        <time>2018-01-13T09:32:36Z</time>
      </trkpt>
      <trkpt lat="27.961080" lon="-15.562398">
        <ele>1892.40</ele>
        <time>2018-01-13T09:32:41Z</time>
      </trkpt>
      <trkpt lat="27.961026" lon="-15.562304">
        <ele>1892.80</ele>
        <time>2018-01-13T09:32:48Z</time>
      </trkpt>
      <trkpt lat="27.960963" lon="-15.562211">
        <ele>1892.90</ele>
        <time>2018-01-13T09:32:54Z</time>
      </trkpt>
      <trkpt lat="27.960898" lon="-15.562136">
        <ele>1892.40</ele>
        <time>2018-01-13T09:33:00Z</time>
      </trkpt>
      <trkpt lat="27.960875" lon="-15.562106">
        <ele>1892.10</ele>
        <time>2018-01-13T09:33:02Z</time>
      </trkpt>
      <trkpt lat="27.960818" lon="-15.562008">
        <ele>1891.60</ele>
        <time>2018-01-13T09:33:09Z</time>
      </trkpt>
      <trkpt lat="27.960751" lon="-15.561930">
        <ele>1891.91</ele>
        <time>2018-01-13T09:33:15Z</time>
      </trkpt>
      <trkpt lat="27.960692" lon="-15.561843">
        <ele>1893.91</ele>
        <time>2018-01-13T09:33:22Z</time>
      </trkpt>
      <trkpt lat="27.960653" lon="-15.561730">
        <ele>1894.40</ele>
        <time>2018-01-13T09:33:29Z</time>
      </trkpt>
      <trkpt lat="27.960624" lon="-15.561619">
        <ele>1893.99</ele>
        <time>2018-01-13T09:33:36Z</time>
      </trkpt>
      <trkpt lat="27.960585" lon="-15.561513">
        <ele>1893.83</ele>
        <time>2018-01-13T09:33:43Z</time>
      </trkpt>
      <trkpt lat="27.960538" lon="-15.561422">
        <ele>1893.98</ele>
        <time>2018-01-13T09:33:50Z</time>
      </trkpt>
      <trkpt lat="27.960506" lon="-15.561370">
        <ele>1893.80</ele>
        <time>2018-01-13T09:33:54Z</time>
      </trkpt>
      <trkpt lat="27.960487" lon="-15.561335">
        <ele>1893.80</ele>
        <time>2018-01-13T09:33:56Z</time>
      </trkpt>
      <trkpt lat="27.960472" lon="-15.561306">
        <ele>1893.80</ele>
        <time>2018-01-13T09:33:58Z</time>
      </trkpt>
      <trkpt lat="27.960460" lon="-15.561279">
        <ele>1893.80</ele>
        <time>2018-01-13T09:34:00Z</time>
      </trkpt>
      <trkpt lat="27.960456" lon="-15.561257">
        <ele>1893.89</ele>
        <time>2018-01-13T09:34:02Z</time>
      </trkpt>
      <trkpt lat="27.960437" lon="-15.561230">
        <ele>1893.70</ele>
        <time>2018-01-13T09:34:04Z</time>
      </trkpt>
      <trkpt lat="27.960419" lon="-15.561212">
        <ele>1893.70</ele>
        <time>2018-01-13T09:34:06Z</time>
      </trkpt>
      <trkpt lat="27.960395" lon="-15.561185">
        <ele>1893.30</ele>
        <time>2018-01-13T09:34:08Z</time>
      </trkpt>
      <trkpt lat="27.960376" lon="-15.561164">
        <ele>1893.18</ele>
        <time>2018-01-13T09:34:10Z</time>
      </trkpt>
      <trkpt lat="27.960356" lon="-15.561140">
        <ele>1893.10</ele>
        <time>2018-01-13T09:34:12Z</time>
      </trkpt>
      <trkpt lat="27.960344" lon="-15.561118">
        <ele>1893.10</ele>
        <time>2018-01-13T09:34:14Z</time>
      </trkpt>
      <trkpt lat="27.960318" lon="-15.561079">
        <ele>1892.80</ele>
        <time>2018-01-13T09:34:17Z</time>
      </trkpt>
      <trkpt lat="27.960302" lon="-15.561056">
        <ele>1891.61</ele>
        <time>2018-01-13T09:34:19Z</time>
      </trkpt>
      <trkpt lat="27.960286" lon="-15.561034">
        <ele>1891.50</ele>
        <time>2018-01-13T09:34:21Z</time>
      </trkpt>
      <trkpt lat="27.960266" lon="-15.561010">
        <ele>1891.40</ele>
        <time>2018-01-13T09:34:23Z</time>
      </trkpt>
      <trkpt lat="27.960250" lon="-15.560992">
        <ele>1891.20</ele>
        <time>2018-01-13T09:34:25Z</time>
      </trkpt>
      <trkpt lat="27.960227" lon="-15.560968">
        <ele>1891.00</ele>
        <time>2018-01-13T09:34:27Z</time>
      </trkpt>
      <trkpt lat="27.960200" lon="-15.560942">
        <ele>1890.89</ele>
        <time>2018-01-13T09:34:29Z</time>
      </trkpt>
      <trkpt lat="27.960186" lon="-15.560922">
        <ele>1890.71</ele>
        <time>2018-01-13T09:34:31Z</time>
      </trkpt>
      <trkpt lat="27.960164" lon="-15.560897">
        <ele>1890.40</ele>
        <time>2018-01-13T09:34:33Z</time>
      </trkpt>
      <trkpt lat="27.960129" lon="-15.560859">
        <ele>1889.91</ele>
        <time>2018-01-13T09:34:36Z</time>
      </trkpt>
      <trkpt lat="27.960115" lon="-15.560839">
        <ele>1889.61</ele>
        <time>2018-01-13T09:34:38Z</time>
      </trkpt>
      <trkpt lat="27.960102" lon="-15.560815">
        <ele>1889.31</ele>
        <time>2018-01-13T09:34:40Z</time>
      </trkpt>
      <trkpt lat="27.960084" lon="-15.560794">
        <ele>1889.10</ele>
        <time>2018-01-13T09:34:42Z</time>
      </trkpt>
      <trkpt lat="27.960066" lon="-15.560772">
        <ele>1888.30</ele>
        <time>2018-01-13T09:34:44Z</time>
      </trkpt>
      <trkpt lat="27.960041" lon="-15.560749">
        <ele>1888.30</ele>
        <time>2018-01-13T09:34:46Z</time>
      </trkpt>
      <trkpt lat="27.960026" lon="-15.560736">
        <ele>1888.20</ele>
        <time>2018-01-13T09:34:47Z</time>
      </trkpt>
      <trkpt lat="27.960009" lon="-15.560725">
        <ele>1887.72</ele>
        <time>2018-01-13T09:34:48Z</time>
      </trkpt>
      <trkpt lat="27.959989" lon="-15.560710">
        <ele>1887.70</ele>
        <time>2018-01-13T09:34:49Z</time>
      </trkpt>
      <trkpt lat="27.959902" lon="-15.560639">
        <ele>1886.70</ele>
        <time>2018-01-13T09:34:57Z</time>
      </trkpt>
      <trkpt lat="27.959870" lon="-15.560610">
        <ele>1886.02</ele>
        <time>2018-01-13T09:35:00Z</time>
      </trkpt>
      <trkpt lat="27.959842" lon="-15.560592">
        <ele>1885.81</ele>
        <time>2018-01-13T09:35:02Z</time>
      </trkpt>
      <trkpt lat="27.959819" lon="-15.560573">
        <ele>1885.61</ele>
        <time>2018-01-13T09:35:04Z</time>
      </trkpt>
      <trkpt lat="27.959799" lon="-15.560557">
        <ele>1885.32</ele>
        <time>2018-01-13T09:35:06Z</time>
      </trkpt>
      <trkpt lat="27.959773" lon="-15.560543">
        <ele>1884.91</ele>
        <time>2018-01-13T09:35:08Z</time>
      </trkpt>
      <trkpt lat="27.959744" lon="-15.560529">
        <ele>1884.81</ele>
        <time>2018-01-13T09:35:10Z</time>
      </trkpt>
      <trkpt lat="27.959724" lon="-15.560517">
        <ele>1884.50</ele>
        <time>2018-01-13T09:35:12Z</time>
      </trkpt>
      <trkpt lat="27.959697" lon="-15.560505">
        <ele>1884.21</ele>
        <time>2018-01-13T09:35:14Z</time>
      </trkpt>
      <trkpt lat="27.959666" lon="-15.560493">
        <ele>1883.72</ele>
        <time>2018-01-13T09:35:16Z</time>
      </trkpt>
      <trkpt lat="27.959649" lon="-15.560485">
        <ele>1883.70</ele>
        <time>2018-01-13T09:35:17Z</time>
      </trkpt>
      <trkpt lat="27.959630" lon="-15.560476">
        <ele>1883.61</ele>
        <time>2018-01-13T09:35:18Z</time>
      </trkpt>
      <trkpt lat="27.959613" lon="-15.560469">
        <ele>1883.51</ele>
        <time>2018-01-13T09:35:19Z</time>
      </trkpt>
      <trkpt lat="27.959596" lon="-15.560460">
        <ele>1883.41</ele>
        <time>2018-01-13T09:35:20Z</time>
      </trkpt>
      <trkpt lat="27.959579" lon="-15.560450">
        <ele>1883.40</ele>
        <time>2018-01-13T09:35:21Z</time>
      </trkpt>
      <trkpt lat="27.959550" lon="-15.560438">
        <ele>1883.30</ele>
        <time>2018-01-13T09:35:23Z</time>
      </trkpt>
      <trkpt lat="27.959518" lon="-15.560427">
        <ele>1883.30</ele>
        <time>2018-01-13T09:35:25Z</time>
      </trkpt>
      <trkpt lat="27.959488" lon="-15.560412">
        <ele>1883.02</ele>
        <time>2018-01-13T09:35:27Z</time>
      </trkpt>
      <trkpt lat="27.959456" lon="-15.560400">
        <ele>1882.71</ele>
        <time>2018-01-13T09:35:29Z</time>
      </trkpt>
      <trkpt lat="27.959435" lon="-15.560388">
        <ele>1882.11</ele>
        <time>2018-01-13T09:35:34Z</time>
      </trkpt>
      <trkpt lat="27.959408" lon="-15.560373">
        <ele>1881.70</ele>
        <time>2018-01-13T09:35:36Z</time>
      </trkpt>
      <trkpt lat="27.959386" lon="-15.560359">
        <ele>1881.70</ele>
        <time>2018-01-13T09:35:38Z</time>
      </trkpt>
      <trkpt lat="27.959361" lon="-15.560340">
        <ele>1881.03</ele>
        <time>2018-01-13T09:35:40Z</time>
      </trkpt>
      <trkpt lat="27.959342" lon="-15.560314">
        <ele>1880.90</ele>
        <time>2018-01-13T09:35:42Z</time>
      </trkpt>
      <trkpt lat="27.959330" lon="-15.560296">
        <ele>1880.90</ele>
        <time>2018-01-13T09:35:43Z</time>
      </trkpt>
      <trkpt lat="27.959320" lon="-15.560264">
        <ele>1880.80</ele>
        <time>2018-01-13T09:35:45Z</time>
      </trkpt>
      <trkpt lat="27.959315" lon="-15.560242">
        <ele>1879.94</ele>
        <time>2018-01-13T09:35:46Z</time>
      </trkpt>
      <trkpt lat="27.959306" lon="-15.560212">
        <ele>1879.70</ele>
        <time>2018-01-13T09:35:48Z</time>
      </trkpt>
      <trkpt lat="27.959304" lon="-15.560181">
        <ele>1879.51</ele>
        <time>2018-01-13T09:35:50Z</time>
      </trkpt>
      <trkpt lat="27.959300" lon="-15.560153">
        <ele>1879.31</ele>
        <time>2018-01-13T09:35:52Z</time>
      </trkpt>
      <trkpt lat="27.959297" lon="-15.560130">
        <ele>1879.30</ele>
        <time>2018-01-13T09:35:54Z</time>
      </trkpt>
      <trkpt lat="27.959292" lon="-15.560100">
        <ele>1879.11</ele>
        <time>2018-01-13T09:35:56Z</time>
      </trkpt>
      <trkpt lat="27.959286" lon="-15.560072">
        <ele>1878.81</ele>
        <time>2018-01-13T09:35:58Z</time>
      </trkpt>
      <trkpt lat="27.959282" lon="-15.560041">
        <ele>1879.10</ele>
        <time>2018-01-13T09:36:00Z</time>
      </trkpt>
      <trkpt lat="27.959274" lon="-15.560011">
        <ele>1878.70</ele>
        <time>2018-01-13T09:36:02Z</time>
      </trkpt>
      <trkpt lat="27.959263" lon="-15.559982">
        <ele>1878.70</ele>
        <time>2018-01-13T09:36:04Z</time>
      </trkpt>
      <trkpt lat="27.959255" lon="-15.559950">
        <ele>1878.32</ele>
        <time>2018-01-13T09:36:06Z</time>
      </trkpt>
      <trkpt lat="27.959250" lon="-15.559922">
        <ele>1877.91</ele>
        <time>2018-01-13T09:36:08Z</time>
      </trkpt>
      <trkpt lat="27.959245" lon="-15.559898">
        <ele>1877.61</ele>
        <time>2018-01-13T09:36:10Z</time>
      </trkpt>
      <trkpt lat="27.959236" lon="-15.559871">
        <ele>1877.60</ele>
        <time>2018-01-13T09:36:12Z</time>
      </trkpt>
      <trkpt lat="27.959227" lon="-15.559842">
        <ele>1877.12</ele>
        <time>2018-01-13T09:36:14Z</time>
      </trkpt>
      <trkpt lat="27.959213" lon="-15.559816">
        <ele>1876.41</ele>
        <time>2018-01-13T09:36:16Z</time>
      </trkpt>
      <trkpt lat="27.959196" lon="-15.559790">
        <ele>1876.10</ele>
        <time>2018-01-13T09:36:18Z</time>
      </trkpt>
      <trkpt lat="27.959180" lon="-15.559767">
        <ele>1875.90</ele>
        <time>2018-01-13T09:36:20Z</time>
      </trkpt>
      <trkpt lat="27.959163" lon="-15.559742">
        <ele>1875.80</ele>
        <time>2018-01-13T09:36:22Z</time>
      </trkpt>
      <trkpt lat="27.959147" lon="-15.559716">
        <ele>1875.60</ele>
        <time>2018-01-13T09:36:24Z</time>
      </trkpt>
      <trkpt lat="27.959137" lon="-15.559694">
        <ele>1875.50</ele>
        <time>2018-01-13T09:36:26Z</time>
      </trkpt>
      <trkpt lat="27.959081" lon="-15.559611">
        <ele>1875.10</ele>
        <time>2018-01-13T09:36:32Z</time>
      </trkpt>
      <trkpt lat="27.959061" lon="-15.559588">
        <ele>1875.10</ele>
        <time>2018-01-13T09:36:34Z</time>
      </trkpt>
      <trkpt lat="27.959043" lon="-15.559565">
        <ele>1875.10</ele>
        <time>2018-01-13T09:36:36Z</time>
      </trkpt>
      <trkpt lat="27.959033" lon="-15.559544">
        <ele>1873.94</ele>
        <time>2018-01-13T09:36:38Z</time>
      </trkpt>
      <trkpt lat="27.959020" lon="-15.559524">
        <ele>1873.60</ele>
        <time>2018-01-13T09:36:40Z</time>
      </trkpt>
      <trkpt lat="27.959005" lon="-15.559504">
        <ele>1873.21</ele>
        <time>2018-01-13T09:36:42Z</time>
      </trkpt>
      <trkpt lat="27.958989" lon="-15.559482">
        <ele>1873.10</ele>
        <time>2018-01-13T09:36:44Z</time>
      </trkpt>
      <trkpt lat="27.958973" lon="-15.559462">
        <ele>1872.60</ele>
        <time>2018-01-13T09:36:46Z</time>
      </trkpt>
      <trkpt lat="27.958958" lon="-15.559440">
        <ele>1872.03</ele>
        <time>2018-01-13T09:36:48Z</time>
      </trkpt>
      <trkpt lat="27.958939" lon="-15.559417">
        <ele>1872.00</ele>
        <time>2018-01-13T09:36:50Z</time>
      </trkpt>
      <trkpt lat="27.958922" lon="-15.559396">
        <ele>1871.21</ele>
        <time>2018-01-13T09:36:52Z</time>
      </trkpt>
      <trkpt lat="27.958908" lon="-15.559378">
        <ele>1870.91</ele>
        <time>2018-01-13T09:36:54Z</time>
      </trkpt>
      <trkpt lat="27.958892" lon="-15.559355">
        <ele>1870.90</ele>
        <time>2018-01-13T09:36:56Z</time>
      </trkpt>
      <trkpt lat="27.958876" lon="-15.559333">
        <ele>1870.99</ele>
        <time>2018-01-13T09:36:58Z</time>
      </trkpt>
      <trkpt lat="27.958859" lon="-15.559311">
        <ele>1870.91</ele>
        <time>2018-01-13T09:37:00Z</time>
      </trkpt>
      <trkpt lat="27.958844" lon="-15.559291">
        <ele>1870.71</ele>
        <time>2018-01-13T09:37:02Z</time>
      </trkpt>
      <trkpt lat="27.958826" lon="-15.559269">
        <ele>1870.70</ele>
        <time>2018-01-13T09:37:04Z</time>
      </trkpt>
      <trkpt lat="27.958809" lon="-15.559248">
        <ele>1870.31</ele>
        <time>2018-01-13T09:37:06Z</time>
      </trkpt>
      <trkpt lat="27.958794" lon="-15.559226">
        <ele>1869.64</ele>
        <time>2018-01-13T09:37:08Z</time>
      </trkpt>
      <trkpt lat="27.958778" lon="-15.559208">
        <ele>1869.41</ele>
        <time>2018-01-13T09:37:10Z</time>
      </trkpt>
      <trkpt lat="27.958755" lon="-15.559184">
        <ele>1869.21</ele>
        <time>2018-01-13T09:37:12Z</time>
      </trkpt>
      <trkpt lat="27.958734" lon="-15.559154">
        <ele>1869.30</ele>
        <time>2018-01-13T09:37:14Z</time>
      </trkpt>
      <trkpt lat="27.958720" lon="-15.559139">
        <ele>1869.30</ele>
        <time>2018-01-13T09:37:15Z</time>
      </trkpt>
      <trkpt lat="27.958699" lon="-15.559117">
        <ele>1869.30</ele>
        <time>2018-01-13T09:37:17Z</time>
      </trkpt>
      <trkpt lat="27.958684" lon="-15.559100">
        <ele>1869.30</ele>
        <time>2018-01-13T09:37:19Z</time>
      </trkpt>
      <trkpt lat="27.958665" lon="-15.559077">
        <ele>1869.02</ele>
        <time>2018-01-13T09:37:21Z</time>
      </trkpt>
      <trkpt lat="27.958645" lon="-15.559056">
        <ele>1868.81</ele>
        <time>2018-01-13T09:37:23Z</time>
      </trkpt>
      <trkpt lat="27.958628" lon="-15.559031">
        <ele>1868.42</ele>
        <time>2018-01-13T09:37:25Z</time>
      </trkpt>
      <trkpt lat="27.958617" lon="-15.559014">
        <ele>1868.40</ele>
        <time>2018-01-13T09:37:26Z</time>
      </trkpt>
      <trkpt lat="27.958600" lon="-15.558987">
        <ele>1867.90</ele>
        <time>2018-01-13T09:37:28Z</time>
      </trkpt>
      <trkpt lat="27.958560" lon="-15.558938">
        <ele>1867.70</ele>
        <time>2018-01-13T09:37:32Z</time>
      </trkpt>
      <trkpt lat="27.958544" lon="-15.558908">
        <ele>1867.50</ele>
        <time>2018-01-13T09:37:34Z</time>
      </trkpt>
      <trkpt lat="27.958530" lon="-15.558879">
        <ele>1867.40</ele>
        <time>2018-01-13T09:37:36Z</time>
      </trkpt>
      <trkpt lat="27.958517" lon="-15.558852">
        <ele>1867.30</ele>
        <time>2018-01-13T09:37:38Z</time>
      </trkpt>
      <trkpt lat="27.958510" lon="-15.558829">
        <ele>1867.01</ele>
        <time>2018-01-13T09:37:40Z</time>
      </trkpt>
      <trkpt lat="27.958469" lon="-15.558730">
        <ele>1866.60</ele>
        <time>2018-01-13T09:37:46Z</time>
      </trkpt>
      <trkpt lat="27.958459" lon="-15.558705">
        <ele>1866.50</ele>
        <time>2018-01-13T09:37:48Z</time>
      </trkpt>
      <trkpt lat="27.958446" lon="-15.558679">
        <ele>1866.40</ele>
        <time>2018-01-13T09:37:50Z</time>
      </trkpt>
      <trkpt lat="27.958432" lon="-15.558649">
        <ele>1866.30</ele>
        <time>2018-01-13T09:37:52Z</time>
      </trkpt>
      <trkpt lat="27.958420" lon="-15.558620">
        <ele>1866.30</ele>
        <time>2018-01-13T09:37:54Z</time>
      </trkpt>
      <trkpt lat="27.958411" lon="-15.558603">
        <ele>1866.30</ele>
        <time>2018-01-13T09:37:55Z</time>
      </trkpt>
      <trkpt lat="27.958396" lon="-15.558577">
        <ele>1866.20</ele>
        <time>2018-01-13T09:37:57Z</time>
      </trkpt>
      <trkpt lat="27.958382" lon="-15.558551">
        <ele>1865.77</ele>
        <time>2018-01-13T09:37:59Z</time>
      </trkpt>
      <trkpt lat="27.958365" lon="-15.558522">
        <ele>1865.51</ele>
        <time>2018-01-13T09:38:01Z</time>
      </trkpt>
      <trkpt lat="27.958321" lon="-15.558452">
        <ele>1866.29</ele>
        <time>2018-01-13T09:38:06Z</time>
      </trkpt>
      <trkpt lat="27.958303" lon="-15.558435">
        <ele>1867.10</ele>
        <time>2018-01-13T09:38:08Z</time>
      </trkpt>
      <trkpt lat="27.958289" lon="-15.558414">
        <ele>1867.10</ele>
        <time>2018-01-13T09:38:10Z</time>
      </trkpt>
      <trkpt lat="27.958272" lon="-15.558389">
        <ele>1867.10</ele>
        <time>2018-01-13T09:38:12Z</time>
      </trkpt>
      <trkpt lat="27.958259" lon="-15.558366">
        <ele>1867.20</ele>
        <time>2018-01-13T09:38:14Z</time>
      </trkpt>
      <trkpt lat="27.958242" lon="-15.558343">
        <ele>1867.20</ele>
        <time>2018-01-13T09:38:16Z</time>
      </trkpt>
      <trkpt lat="27.958223" lon="-15.558321">
        <ele>1866.60</ele>
        <time>2018-01-13T09:38:18Z</time>
      </trkpt>
      <trkpt lat="27.958205" lon="-15.558296">
        <ele>1866.60</ele>
        <time>2018-01-13T09:38:20Z</time>
      </trkpt>
      <trkpt lat="27.958185" lon="-15.558272">
        <ele>1866.60</ele>
        <time>2018-01-13T09:38:22Z</time>
      </trkpt>
      <trkpt lat="27.958167" lon="-15.558246">
        <ele>1867.09</ele>
        <time>2018-01-13T09:38:24Z</time>
      </trkpt>
      <trkpt lat="27.958148" lon="-15.558218">
        <ele>1867.40</ele>
        <time>2018-01-13T09:38:26Z</time>
      </trkpt>
      <trkpt lat="27.958130" lon="-15.558194">
        <ele>1867.88</ele>
        <time>2018-01-13T09:38:28Z</time>
      </trkpt>
      <trkpt lat="27.958109" lon="-15.558169">
        <ele>1868.29</ele>
        <time>2018-01-13T09:38:30Z</time>
      </trkpt>
      <trkpt lat="27.958091" lon="-15.558143">
        <ele>1868.40</ele>
        <time>2018-01-13T09:38:32Z</time>
      </trkpt>
      <trkpt lat="27.958072" lon="-15.558116">
        <ele>1868.31</ele>
        <time>2018-01-13T09:38:34Z</time>
      </trkpt>
      <trkpt lat="27.958055" lon="-15.558092">
        <ele>1868.21</ele>
        <time>2018-01-13T09:38:36Z</time>
      </trkpt>
      <trkpt lat="27.958037" lon="-15.558068">
        <ele>1868.11</ele>
        <time>2018-01-13T09:38:38Z</time>
      </trkpt>
      <trkpt lat="27.958020" lon="-15.558041">
        <ele>1868.20</ele>
        <time>2018-01-13T09:38:40Z</time>
      </trkpt>
      <trkpt lat="27.958004" lon="-15.558017">
        <ele>1868.20</ele>
        <time>2018-01-13T09:38:42Z</time>
      </trkpt>
      <trkpt lat="27.957986" lon="-15.557993">
        <ele>1868.30</ele>
        <time>2018-01-13T09:38:44Z</time>
      </trkpt>
      <trkpt lat="27.957972" lon="-15.557968">
        <ele>1868.30</ele>
        <time>2018-01-13T09:38:46Z</time>
      </trkpt>
      <trkpt lat="27.957964" lon="-15.557937">
        <ele>1868.12</ele>
        <time>2018-01-13T09:38:48Z</time>
      </trkpt>
      <trkpt lat="27.957956" lon="-15.557906">
        <ele>1867.62</ele>
        <time>2018-01-13T09:38:50Z</time>
      </trkpt>
      <trkpt lat="27.957953" lon="-15.557874">
        <ele>1867.51</ele>
        <time>2018-01-13T09:38:52Z</time>
      </trkpt>
      <trkpt lat="27.957954" lon="-15.557844">
        <ele>1867.60</ele>
        <time>2018-01-13T09:38:54Z</time>
      </trkpt>
      <trkpt lat="27.957953" lon="-15.557814">
        <ele>1867.51</ele>
        <time>2018-01-13T09:38:56Z</time>
      </trkpt>
      <trkpt lat="27.957951" lon="-15.557784">
        <ele>1867.31</ele>
        <time>2018-01-13T09:38:58Z</time>
      </trkpt>
      <trkpt lat="27.957948" lon="-15.557754">
        <ele>1867.13</ele>
        <time>2018-01-13T09:39:00Z</time>
      </trkpt>
      <trkpt lat="27.957945" lon="-15.557722">
        <ele>1866.90</ele>
        <time>2018-01-13T09:39:02Z</time>
      </trkpt>
      <trkpt lat="27.957947" lon="-15.557694">
        <ele>1866.61</ele>
        <time>2018-01-13T09:39:04Z</time>
      </trkpt>
      <trkpt lat="27.957945" lon="-15.557665">
        <ele>1866.11</ele>
        <time>2018-01-13T09:39:06Z</time>
      </trkpt>
      <trkpt lat="27.957938" lon="-15.557638">
        <ele>1865.79</ele>
        <time>2018-01-13T09:39:08Z</time>
      </trkpt>
      <trkpt lat="27.957931" lon="-15.557615">
        <ele>1865.71</ele>
        <time>2018-01-13T09:39:10Z</time>
      </trkpt>
      <trkpt lat="27.957929" lon="-15.557585">
        <ele>1865.60</ele>
        <time>2018-01-13T09:39:12Z</time>
      </trkpt>
      <trkpt lat="27.957927" lon="-15.557555">
        <ele>1865.01</ele>
        <time>2018-01-13T09:39:14Z</time>
      </trkpt>
      <trkpt lat="27.957931" lon="-15.557529">
        <ele>1864.90</ele>
        <time>2018-01-13T09:39:16Z</time>
      </trkpt>
      <trkpt lat="27.957932" lon="-15.557501">
        <ele>1864.60</ele>
        <time>2018-01-13T09:39:18Z</time>
      </trkpt>
      <trkpt lat="27.957935" lon="-15.557470">
        <ele>1864.14</ele>
        <time>2018-01-13T09:39:20Z</time>
      </trkpt>
      <trkpt lat="27.957936" lon="-15.557438">
        <ele>1863.90</ele>
        <time>2018-01-13T09:39:22Z</time>
      </trkpt>
      <trkpt lat="27.957936" lon="-15.557412">
        <ele>1863.24</ele>
        <time>2018-01-13T09:39:24Z</time>
      </trkpt>
      <trkpt lat="27.957937" lon="-15.557386">
        <ele>1863.20</ele>
        <time>2018-01-13T09:39:26Z</time>
      </trkpt>
      <trkpt lat="27.957942" lon="-15.557356">
        <ele>1862.91</ele>
        <time>2018-01-13T09:39:28Z</time>
      </trkpt>
      <trkpt lat="27.957946" lon="-15.557331">
        <ele>1862.20</ele>
        <time>2018-01-13T09:39:30Z</time>
      </trkpt>
      <trkpt lat="27.957953" lon="-15.557310">
        <ele>1861.80</ele>
        <time>2018-01-13T09:39:32Z</time>
      </trkpt>
      <trkpt lat="27.957961" lon="-15.557273">
        <ele>1861.80</ele>
        <time>2018-01-13T09:39:35Z</time>
      </trkpt>
      <trkpt lat="27.957972" lon="-15.557249">
        <ele>1861.71</ele>
        <time>2018-01-13T09:39:37Z</time>
      </trkpt>
      <trkpt lat="27.957982" lon="-15.557223">
        <ele>1861.73</ele>
        <time>2018-01-13T09:39:39Z</time>
      </trkpt>
      <trkpt lat="27.957986" lon="-15.557193">
        <ele>1861.33</ele>
        <time>2018-01-13T09:39:41Z</time>
      </trkpt>
      <trkpt lat="27.957988" lon="-15.557166">
        <ele>1861.01</ele>
        <time>2018-01-13T09:39:43Z</time>
      </trkpt>
      <trkpt lat="27.957990" lon="-15.557139">
        <ele>1860.63</ele>
        <time>2018-01-13T09:39:45Z</time>
      </trkpt>
      <trkpt lat="27.957992" lon="-15.557111">
        <ele>1860.32</ele>
        <time>2018-01-13T09:39:47Z</time>
      </trkpt>
      <trkpt lat="27.957996" lon="-15.557081">
        <ele>1859.14</ele>
        <time>2018-01-13T09:39:49Z</time>
      </trkpt>
      <trkpt lat="27.958007" lon="-15.557055">
        <ele>1859.10</ele>
        <time>2018-01-13T09:39:51Z</time>
      </trkpt>
      <trkpt lat="27.958019" lon="-15.557032">
        <ele>1858.90</ele>
        <time>2018-01-13T09:39:53Z</time>
      </trkpt>
      <trkpt lat="27.958024" lon="-15.557004">
        <ele>1858.23</ele>
        <time>2018-01-13T09:39:55Z</time>
      </trkpt>
      <trkpt lat="27.958030" lon="-15.556978">
        <ele>1857.71</ele>
        <time>2018-01-13T09:39:57Z</time>
      </trkpt>
      <trkpt lat="27.958031" lon="-15.556952">
        <ele>1857.04</ele>
        <time>2018-01-13T09:39:59Z</time>
      </trkpt>
      <trkpt lat="27.958037" lon="-15.556929">
        <ele>1856.73</ele>
        <time>2018-01-13T09:40:01Z</time>
      </trkpt>
      <trkpt lat="27.958049" lon="-15.556904">
        <ele>1856.51</ele>
        <time>2018-01-13T09:40:03Z</time>
      </trkpt>
      <trkpt lat="27.958066" lon="-15.556892">
        <ele>1855.85</ele>
        <time>2018-01-13T09:40:05Z</time>
      </trkpt>
      <trkpt lat="27.958082" lon="-15.556877">
        <ele>1855.24</ele>
        <time>2018-01-13T09:40:07Z</time>
      </trkpt>
      <trkpt lat="27.958099" lon="-15.556865">
        <ele>1855.20</ele>
        <time>2018-01-13T09:40:09Z</time>
      </trkpt>
      <trkpt lat="27.958119" lon="-15.556850">
        <ele>1855.11</ele>
        <time>2018-01-13T09:40:11Z</time>
      </trkpt>
      <trkpt lat="27.958140" lon="-15.556831">
        <ele>1854.25</ele>
        <time>2018-01-13T09:40:13Z</time>
      </trkpt>
      <trkpt lat="27.958167" lon="-15.556818">
        <ele>1854.11</ele>
        <time>2018-01-13T09:40:15Z</time>
      </trkpt>
      <trkpt lat="27.958190" lon="-15.556805">
        <ele>1853.90</ele>
        <time>2018-01-13T09:40:17Z</time>
      </trkpt>
      <trkpt lat="27.958213" lon="-15.556792">
        <ele>1853.71</ele>
        <time>2018-01-13T09:40:19Z</time>
      </trkpt>
      <trkpt lat="27.958239" lon="-15.556776">
        <ele>1853.33</ele>
        <time>2018-01-13T09:40:21Z</time>
      </trkpt>
      <trkpt lat="27.958262" lon="-15.556762">
        <ele>1853.20</ele>
        <time>2018-01-13T09:40:23Z</time>
      </trkpt>
      <trkpt lat="27.958287" lon="-15.556750">
        <ele>1852.92</ele>
        <time>2018-01-13T09:40:25Z</time>
      </trkpt>
      <trkpt lat="27.958303" lon="-15.556739">
        <ele>1852.90</ele>
        <time>2018-01-13T09:40:27Z</time>
      </trkpt>
      <trkpt lat="27.958324" lon="-15.556722">
        <ele>1852.25</ele>
        <time>2018-01-13T09:40:29Z</time>
      </trkpt>
      <trkpt lat="27.958351" lon="-15.556710">
        <ele>1852.02</ele>
        <time>2018-01-13T09:40:31Z</time>
      </trkpt>
      <trkpt lat="27.958375" lon="-15.556701">
        <ele>1851.53</ele>
        <time>2018-01-13T09:40:33Z</time>
      </trkpt>
      <trkpt lat="27.958398" lon="-15.556696">
        <ele>1851.31</ele>
        <time>2018-01-13T09:40:35Z</time>
      </trkpt>
      <trkpt lat="27.958418" lon="-15.556682">
        <ele>1851.02</ele>
        <time>2018-01-13T09:40:37Z</time>
      </trkpt>
      <trkpt lat="27.958437" lon="-15.556667">
        <ele>1850.71</ele>
        <time>2018-01-13T09:40:39Z</time>
      </trkpt>
      <trkpt lat="27.958457" lon="-15.556653">
        <ele>1850.70</ele>
        <time>2018-01-13T09:40:41Z</time>
      </trkpt>
      <trkpt lat="27.958477" lon="-15.556637">
        <ele>1850.51</ele>
        <time>2018-01-13T09:40:43Z</time>
      </trkpt>
      <trkpt lat="27.958499" lon="-15.556621">
        <ele>1850.41</ele>
        <time>2018-01-13T09:40:45Z</time>
      </trkpt>
      <trkpt lat="27.958523" lon="-15.556601">
        <ele>1850.30</ele>
        <time>2018-01-13T09:40:47Z</time>
      </trkpt>
      <trkpt lat="27.958550" lon="-15.556585">
        <ele>1849.75</ele>
        <time>2018-01-13T09:40:49Z</time>
      </trkpt>
      <trkpt lat="27.958573" lon="-15.556571">
        <ele>1849.70</ele>
        <time>2018-01-13T09:40:51Z</time>
      </trkpt>
      <trkpt lat="27.958593" lon="-15.556558">
        <ele>1849.70</ele>
        <time>2018-01-13T09:40:53Z</time>
      </trkpt>
      <trkpt lat="27.958615" lon="-15.556548">
        <ele>1849.70</ele>
        <time>2018-01-13T09:40:55Z</time>
      </trkpt>
      <trkpt lat="27.958639" lon="-15.556538">
        <ele>1849.23</ele>
        <time>2018-01-13T09:40:57Z</time>
      </trkpt>
      <trkpt lat="27.958662" lon="-15.556531">
        <ele>1848.81</ele>
        <time>2018-01-13T09:40:59Z</time>
      </trkpt>
      <trkpt lat="27.958689" lon="-15.556526">
        <ele>1848.32</ele>
        <time>2018-01-13T09:41:01Z</time>
      </trkpt>
      <trkpt lat="27.958718" lon="-15.556528">
        <ele>1848.30</ele>
        <time>2018-01-13T09:41:03Z</time>
      </trkpt>
      <trkpt lat="27.958748" lon="-15.556524">
        <ele>1848.20</ele>
        <time>2018-01-13T09:41:05Z</time>
      </trkpt>
      <trkpt lat="27.958767" lon="-15.556515">
        <ele>1847.42</ele>
        <time>2018-01-13T09:41:07Z</time>
      </trkpt>
      <trkpt lat="27.958792" lon="-15.556507">
        <ele>1847.40</ele>
        <time>2018-01-13T09:41:09Z</time>
      </trkpt>
      <trkpt lat="27.958820" lon="-15.556502">
        <ele>1847.11</ele>
        <time>2018-01-13T09:41:11Z</time>
      </trkpt>
      <trkpt lat="27.958846" lon="-15.556502">
        <ele>1847.10</ele>
        <time>2018-01-13T09:41:13Z</time>
      </trkpt>
      <trkpt lat="27.958870" lon="-15.556496">
        <ele>1847.10</ele>
        <time>2018-01-13T09:41:15Z</time>
      </trkpt>
      <trkpt lat="27.958895" lon="-15.556490">
        <ele>1846.73</ele>
        <time>2018-01-13T09:41:17Z</time>
      </trkpt>
      <trkpt lat="27.958916" lon="-15.556477">
        <ele>1846.51</ele>
        <time>2018-01-13T09:41:19Z</time>
      </trkpt>
      <trkpt lat="27.958939" lon="-15.556468">
        <ele>1846.11</ele>
        <time>2018-01-13T09:41:21Z</time>
      </trkpt>
      <trkpt lat="27.958959" lon="-15.556465">
        <ele>1845.92</ele>
        <time>2018-01-13T09:41:23Z</time>
      </trkpt>
      <trkpt lat="27.958979" lon="-15.556455">
        <ele>1845.34</ele>
        <time>2018-01-13T09:41:25Z</time>
      </trkpt>
      <trkpt lat="27.959007" lon="-15.556458">
        <ele>1845.30</ele>
        <time>2018-01-13T09:41:27Z</time>
      </trkpt>
      <trkpt lat="27.959033" lon="-15.556456">
        <ele>1844.61</ele>
        <time>2018-01-13T09:41:29Z</time>
      </trkpt>
      <trkpt lat="27.959058" lon="-15.556458">
        <ele>1844.30</ele>
        <time>2018-01-13T09:41:31Z</time>
      </trkpt>
      <trkpt lat="27.959080" lon="-15.556459">
        <ele>1844.11</ele>
        <time>2018-01-13T09:41:33Z</time>
      </trkpt>
      <trkpt lat="27.959099" lon="-15.556465">
        <ele>1843.62</ele>
        <time>2018-01-13T09:41:35Z</time>
      </trkpt>
      <trkpt lat="27.959114" lon="-15.556450">
        <ele>1843.03</ele>
        <time>2018-01-13T09:41:38Z</time>
      </trkpt>
      <trkpt lat="27.959109" lon="-15.556421">
        <ele>1842.52</ele>
        <time>2018-01-13T09:41:41Z</time>
      </trkpt>
      <trkpt lat="27.959092" lon="-15.556410">
        <ele>1842.23</ele>
        <time>2018-01-13T09:41:43Z</time>
      </trkpt>
      <trkpt lat="27.959070" lon="-15.556395">
        <ele>1842.00</ele>
        <time>2018-01-13T09:41:45Z</time>
      </trkpt>
      <trkpt lat="27.959048" lon="-15.556384">
        <ele>1841.53</ele>
        <time>2018-01-13T09:41:47Z</time>
      </trkpt>
      <trkpt lat="27.959023" lon="-15.556375">
        <ele>1841.02</ele>
        <time>2018-01-13T09:41:49Z</time>
      </trkpt>
      <trkpt lat="27.958998" lon="-15.556367">
        <ele>1841.00</ele>
        <time>2018-01-13T09:41:51Z</time>
      </trkpt>
      <trkpt lat="27.958978" lon="-15.556350">
        <ele>1841.00</ele>
        <time>2018-01-13T09:41:53Z</time>
      </trkpt>
      <trkpt lat="27.958954" lon="-15.556338">
        <ele>1840.60</ele>
        <time>2018-01-13T09:41:55Z</time>
      </trkpt>
      <trkpt lat="27.958932" lon="-15.556329">
        <ele>1840.60</ele>
        <time>2018-01-13T09:41:57Z</time>
      </trkpt>
      <trkpt lat="27.958842" lon="-15.556314">
        <ele>1840.70</ele>
        <time>2018-01-13T09:42:05Z</time>
      </trkpt>
      <trkpt lat="27.958819" lon="-15.556312">
        <ele>1840.90</ele>
        <time>2018-01-13T09:42:07Z</time>
      </trkpt>
      <trkpt lat="27.958801" lon="-15.556313">
        <ele>1841.09</ele>
        <time>2018-01-13T09:42:08Z</time>
      </trkpt>
      <trkpt lat="27.958769" lon="-15.556320">
        <ele>1841.10</ele>
        <time>2018-01-13T09:42:10Z</time>
      </trkpt>
      <trkpt lat="27.958697" lon="-15.556333">
        <ele>1840.32</ele>
        <time>2018-01-13T09:42:15Z</time>
      </trkpt>
      <trkpt lat="27.958598" lon="-15.556349">
        <ele>1840.60</ele>
        <time>2018-01-13T09:42:22Z</time>
      </trkpt>
      <trkpt lat="27.958562" lon="-15.556349">
        <ele>1840.60</ele>
        <time>2018-01-13T09:42:25Z</time>
      </trkpt>
      <trkpt lat="27.958533" lon="-15.556346">
        <ele>1840.60</ele>
        <time>2018-01-13T09:42:27Z</time>
      </trkpt>
      <trkpt lat="27.958504" lon="-15.556350">
        <ele>1840.40</ele>
        <time>2018-01-13T09:42:29Z</time>
      </trkpt>
      <trkpt lat="27.958474" lon="-15.556354">
        <ele>1840.00</ele>
        <time>2018-01-13T09:42:31Z</time>
      </trkpt>
      <trkpt lat="27.958440" lon="-15.556369">
        <ele>1839.90</ele>
        <time>2018-01-13T09:42:33Z</time>
      </trkpt>
      <trkpt lat="27.958413" lon="-15.556373">
        <ele>1839.60</ele>
        <time>2018-01-13T09:42:35Z</time>
      </trkpt>
      <trkpt lat="27.958388" lon="-15.556376">
        <ele>1838.90</ele>
        <time>2018-01-13T09:42:37Z</time>
      </trkpt>
      <trkpt lat="27.958358" lon="-15.556381">
        <ele>1838.90</ele>
        <time>2018-01-13T09:42:39Z</time>
      </trkpt>
      <trkpt lat="27.958331" lon="-15.556383">
        <ele>1838.80</ele>
        <time>2018-01-13T09:42:41Z</time>
      </trkpt>
      <trkpt lat="27.958301" lon="-15.556384">
        <ele>1838.40</ele>
        <time>2018-01-13T09:42:43Z</time>
      </trkpt>
      <trkpt lat="27.958271" lon="-15.556382">
        <ele>1838.20</ele>
        <time>2018-01-13T09:42:45Z</time>
      </trkpt>
      <trkpt lat="27.958246" lon="-15.556381">
        <ele>1838.20</ele>
        <time>2018-01-13T09:42:47Z</time>
      </trkpt>
      <trkpt lat="27.958217" lon="-15.556377">
        <ele>1837.99</ele>
        <time>2018-01-13T09:42:49Z</time>
      </trkpt>
      <trkpt lat="27.958189" lon="-15.556375">
        <ele>1837.50</ele>
        <time>2018-01-13T09:42:51Z</time>
      </trkpt>
      <trkpt lat="27.958163" lon="-15.556380">
        <ele>1837.00</ele>
        <time>2018-01-13T09:42:53Z</time>
      </trkpt>
      <trkpt lat="27.958140" lon="-15.556378">
        <ele>1836.80</ele>
        <time>2018-01-13T09:42:55Z</time>
      </trkpt>
      <trkpt lat="27.958112" lon="-15.556386">
        <ele>1836.60</ele>
        <time>2018-01-13T09:42:57Z</time>
      </trkpt>
      <trkpt lat="27.958083" lon="-15.556393">
        <ele>1836.40</ele>
        <time>2018-01-13T09:42:59Z</time>
      </trkpt>
      <trkpt lat="27.958053" lon="-15.556390">
        <ele>1836.20</ele>
        <time>2018-01-13T09:43:01Z</time>
      </trkpt>
      <trkpt lat="27.958024" lon="-15.556384">
        <ele>1836.20</ele>
        <time>2018-01-13T09:43:03Z</time>
      </trkpt>
      <trkpt lat="27.957996" lon="-15.556376">
        <ele>1836.10</ele>
        <time>2018-01-13T09:43:05Z</time>
      </trkpt>
      <trkpt lat="27.957968" lon="-15.556369">
        <ele>1836.20</ele>
        <time>2018-01-13T09:43:07Z</time>
      </trkpt>
      <trkpt lat="27.957944" lon="-15.556359">
        <ele>1836.00</ele>
        <time>2018-01-13T09:43:09Z</time>
      </trkpt>
      <trkpt lat="27.957912" lon="-15.556356">
        <ele>1835.80</ele>
        <time>2018-01-13T09:43:11Z</time>
      </trkpt>
      <trkpt lat="27.957884" lon="-15.556351">
        <ele>1835.67</ele>
        <time>2018-01-13T09:43:13Z</time>
      </trkpt>
      <trkpt lat="27.957854" lon="-15.556341">
        <ele>1835.20</ele>
        <time>2018-01-13T09:43:15Z</time>
      </trkpt>
      <trkpt lat="27.957824" lon="-15.556335">
        <ele>1835.10</ele>
        <time>2018-01-13T09:43:17Z</time>
      </trkpt>
      <trkpt lat="27.957796" lon="-15.556328">
        <ele>1835.20</ele>
        <time>2018-01-13T09:43:19Z</time>
      </trkpt>
      <trkpt lat="27.957770" lon="-15.556323">
        <ele>1835.10</ele>
        <time>2018-01-13T09:43:21Z</time>
      </trkpt>
      <trkpt lat="27.957746" lon="-15.556317">
        <ele>1835.05</ele>
        <time>2018-01-13T09:43:23Z</time>
      </trkpt>
      <trkpt lat="27.957724" lon="-15.556315">
        <ele>1834.95</ele>
        <time>2018-01-13T09:43:25Z</time>
      </trkpt>
      <trkpt lat="27.957698" lon="-15.556313">
        <ele>1834.38</ele>
        <time>2018-01-13T09:43:27Z</time>
      </trkpt>
      <trkpt lat="27.957671" lon="-15.556309">
        <ele>1833.69</ele>
        <time>2018-01-13T09:43:29Z</time>
      </trkpt>
      <trkpt lat="27.957638" lon="-15.556304">
        <ele>1833.60</ele>
        <time>2018-01-13T09:43:31Z</time>
      </trkpt>
      <trkpt lat="27.957606" lon="-15.556306">
        <ele>1833.58</ele>
        <time>2018-01-13T09:43:33Z</time>
      </trkpt>
      <trkpt lat="27.957574" lon="-15.556310">
        <ele>1833.21</ele>
        <time>2018-01-13T09:43:35Z</time>
      </trkpt>
      <trkpt lat="27.957538" lon="-15.556310">
        <ele>1833.27</ele>
        <time>2018-01-13T09:43:37Z</time>
      </trkpt>
      <trkpt lat="27.957507" lon="-15.556307">
        <ele>1832.40</ele>
        <time>2018-01-13T09:43:39Z</time>
      </trkpt>
      <trkpt lat="27.957481" lon="-15.556296">
        <ele>1832.31</ele>
        <time>2018-01-13T09:43:41Z</time>
      </trkpt>
      <trkpt lat="27.957454" lon="-15.556287">
        <ele>1832.20</ele>
        <time>2018-01-13T09:43:43Z</time>
      </trkpt>
      <trkpt lat="27.957436" lon="-15.556280">
        <ele>1832.16</ele>
        <time>2018-01-13T09:43:44Z</time>
      </trkpt>
      <trkpt lat="27.957409" lon="-15.556270">
        <ele>1831.60</ele>
        <time>2018-01-13T09:43:46Z</time>
      </trkpt>
      <trkpt lat="27.957384" lon="-15.556256">
        <ele>1831.47</ele>
        <time>2018-01-13T09:43:48Z</time>
      </trkpt>
      <trkpt lat="27.957366" lon="-15.556247">
        <ele>1831.19</ele>
        <time>2018-01-13T09:43:49Z</time>
      </trkpt>
      <trkpt lat="27.957331" lon="-15.556231">
        <ele>1831.08</ele>
        <time>2018-01-13T09:43:51Z</time>
      </trkpt>
      <trkpt lat="27.957312" lon="-15.556221">
        <ele>1830.89</ele>
        <time>2018-01-13T09:43:52Z</time>
      </trkpt>
      <trkpt lat="27.957294" lon="-15.556212">
        <ele>1830.80</ele>
        <time>2018-01-13T09:43:53Z</time>
      </trkpt>
      <trkpt lat="27.957277" lon="-15.556205">
        <ele>1830.76</ele>
        <time>2018-01-13T09:43:54Z</time>
      </trkpt>
      <trkpt lat="27.957247" lon="-15.556190">
        <ele>1830.29</ele>
        <time>2018-01-13T09:43:56Z</time>
      </trkpt>
      <trkpt lat="27.957230" lon="-15.556187">
        <ele>1829.10</ele>
        <time>2018-01-13T09:44:06Z</time>
      </trkpt>
      <trkpt lat="27.957203" lon="-15.556179">
        <ele>1828.90</ele>
        <time>2018-01-13T09:44:08Z</time>
      </trkpt>
      <trkpt lat="27.957178" lon="-15.556173">
        <ele>1828.70</ele>
        <time>2018-01-13T09:44:10Z</time>
      </trkpt>
      <trkpt lat="27.957158" lon="-15.556164">
        <ele>1828.46</ele>
        <time>2018-01-13T09:44:12Z</time>
      </trkpt>
      <trkpt lat="27.957134" lon="-15.556152">
        <ele>1827.39</ele>
        <time>2018-01-13T09:44:14Z</time>
      </trkpt>
      <trkpt lat="27.957109" lon="-15.556146">
        <ele>1827.27</ele>
        <time>2018-01-13T09:44:16Z</time>
      </trkpt>
      <trkpt lat="27.957080" lon="-15.556144">
        <ele>1826.49</ele>
        <time>2018-01-13T09:44:18Z</time>
      </trkpt>
      <trkpt lat="27.957054" lon="-15.556145">
        <ele>1826.07</ele>
        <time>2018-01-13T09:44:20Z</time>
      </trkpt>
      <trkpt lat="27.957029" lon="-15.556151">
        <ele>1825.18</ele>
        <time>2018-01-13T09:44:22Z</time>
      </trkpt>
      <trkpt lat="27.956999" lon="-15.556156">
        <ele>1825.00</ele>
        <time>2018-01-13T09:44:24Z</time>
      </trkpt>
      <trkpt lat="27.956972" lon="-15.556156">
        <ele>1824.80</ele>
        <time>2018-01-13T09:44:26Z</time>
      </trkpt>
      <trkpt lat="27.956942" lon="-15.556153">
        <ele>1824.79</ele>
        <time>2018-01-13T09:44:28Z</time>
      </trkpt>
      <trkpt lat="27.956921" lon="-15.556137">
        <ele>1824.69</ele>
        <time>2018-01-13T09:44:30Z</time>
      </trkpt>
      <trkpt lat="27.956904" lon="-15.556105">
        <ele>1824.50</ele>
        <time>2018-01-13T09:44:32Z</time>
      </trkpt>
      <trkpt lat="27.956912" lon="-15.556070">
        <ele>1824.50</ele>
        <time>2018-01-13T09:44:34Z</time>
      </trkpt>
      <trkpt lat="27.956935" lon="-15.556044">
        <ele>1824.20</ele>
        <time>2018-01-13T09:44:36Z</time>
      </trkpt>
      <trkpt lat="27.956960" lon="-15.556026">
        <ele>1824.20</ele>
        <time>2018-01-13T09:44:38Z</time>
      </trkpt>
      <trkpt lat="27.956986" lon="-15.556011">
        <ele>1824.50</ele>
        <time>2018-01-13T09:44:40Z</time>
      </trkpt>
      <trkpt lat="27.957009" lon="-15.555995">
        <ele>1824.50</ele>
        <time>2018-01-13T09:44:42Z</time>
      </trkpt>
      <trkpt lat="27.957035" lon="-15.555980">
        <ele>1824.40</ele>
        <time>2018-01-13T09:44:44Z</time>
      </trkpt>
      <trkpt lat="27.957060" lon="-15.555972">
        <ele>1824.39</ele>
        <time>2018-01-13T09:44:46Z</time>
      </trkpt>
      <trkpt lat="27.957082" lon="-15.555975">
        <ele>1824.31</ele>
        <time>2018-01-13T09:44:48Z</time>
      </trkpt>
      <trkpt lat="27.957108" lon="-15.555975">
        <ele>1824.40</ele>
        <time>2018-01-13T09:44:50Z</time>
      </trkpt>
      <trkpt lat="27.957138" lon="-15.555980">
        <ele>1824.58</ele>
        <time>2018-01-13T09:44:52Z</time>
      </trkpt>
      <trkpt lat="27.957167" lon="-15.555987">
        <ele>1824.38</ele>
        <time>2018-01-13T09:44:54Z</time>
      </trkpt>
      <trkpt lat="27.957199" lon="-15.555994">
        <ele>1824.12</ele>
        <time>2018-01-13T09:44:56Z</time>
      </trkpt>
      <trkpt lat="27.957228" lon="-15.556000">
        <ele>1823.29</ele>
        <time>2018-01-13T09:44:58Z</time>
      </trkpt>
      <trkpt lat="27.957253" lon="-15.556011">
        <ele>1823.06</ele>
        <time>2018-01-13T09:45:00Z</time>
      </trkpt>
      <trkpt lat="27.957272" lon="-15.556015">
        <ele>1822.79</ele>
        <time>2018-01-13T09:45:01Z</time>
      </trkpt>
      <trkpt lat="27.957309" lon="-15.556021">
        <ele>1822.58</ele>
        <time>2018-01-13T09:45:03Z</time>
      </trkpt>
      <trkpt lat="27.957339" lon="-15.556025">
        <ele>1822.00</ele>
        <time>2018-01-13T09:45:05Z</time>
      </trkpt>
      <trkpt lat="27.957371" lon="-15.556030">
        <ele>1821.69</ele>
        <time>2018-01-13T09:45:07Z</time>
      </trkpt>
      <trkpt lat="27.957402" lon="-15.556028">
        <ele>1821.34</ele>
        <time>2018-01-13T09:45:09Z</time>
      </trkpt>
      <trkpt lat="27.957423" lon="-15.556017">
        <ele>1820.59</ele>
        <time>2018-01-13T09:45:12Z</time>
      </trkpt>
      <trkpt lat="27.957419" lon="-15.555994">
        <ele>1820.20</ele>
        <time>2018-01-13T09:45:14Z</time>
      </trkpt>
      <trkpt lat="27.957400" lon="-15.555963">
        <ele>1820.17</ele>
        <time>2018-01-13T09:45:16Z</time>
      </trkpt>
      <trkpt lat="27.957377" lon="-15.555946">
        <ele>1819.99</ele>
        <time>2018-01-13T09:45:18Z</time>
      </trkpt>
      <trkpt lat="27.957351" lon="-15.555938">
        <ele>1820.00</ele>
        <time>2018-01-13T09:45:20Z</time>
      </trkpt>
      <trkpt lat="27.957326" lon="-15.555923">
        <ele>1819.68</ele>
        <time>2018-01-13T09:45:22Z</time>
      </trkpt>
      <trkpt lat="27.957299" lon="-15.555904">
        <ele>1819.55</ele>
        <time>2018-01-13T09:45:24Z</time>
      </trkpt>
      <trkpt lat="27.957271" lon="-15.555889">
        <ele>1819.22</ele>
        <time>2018-01-13T09:45:26Z</time>
      </trkpt>
      <trkpt lat="27.957238" lon="-15.555873">
        <ele>1819.20</ele>
        <time>2018-01-13T09:45:28Z</time>
      </trkpt>
      <trkpt lat="27.957207" lon="-15.555856">
        <ele>1818.90</ele>
        <time>2018-01-13T09:45:30Z</time>
      </trkpt>
      <trkpt lat="27.957188" lon="-15.555846">
        <ele>1818.88</ele>
        <time>2018-01-13T09:45:31Z</time>
      </trkpt>
      <trkpt lat="27.957166" lon="-15.555836">
        <ele>1817.98</ele>
        <time>2018-01-13T09:45:37Z</time>
      </trkpt>
      <trkpt lat="27.957144" lon="-15.555828">
        <ele>1817.70</ele>
        <time>2018-01-13T09:45:39Z</time>
      </trkpt>
      <trkpt lat="27.957119" lon="-15.555818">
        <ele>1817.74</ele>
        <time>2018-01-13T09:45:41Z</time>
      </trkpt>
      <trkpt lat="27.957087" lon="-15.555811">
        <ele>1817.70</ele>
        <time>2018-01-13T09:45:43Z</time>
      </trkpt>
      <trkpt lat="27.957062" lon="-15.555803">
        <ele>1817.90</ele>
        <time>2018-01-13T09:45:45Z</time>
      </trkpt>
      <trkpt lat="27.957040" lon="-15.555795">
        <ele>1818.23</ele>
        <time>2018-01-13T09:45:47Z</time>
      </trkpt>
      <trkpt lat="27.957014" lon="-15.555791">
        <ele>1817.97</ele>
        <time>2018-01-13T09:45:49Z</time>
      </trkpt>
      <trkpt lat="27.956984" lon="-15.555792">
        <ele>1818.40</ele>
        <time>2018-01-13T09:45:51Z</time>
      </trkpt>
      <trkpt lat="27.956956" lon="-15.555794">
        <ele>1817.96</ele>
        <time>2018-01-13T09:45:53Z</time>
      </trkpt>
      <trkpt lat="27.956933" lon="-15.555788">
        <ele>1817.56</ele>
        <time>2018-01-13T09:45:55Z</time>
      </trkpt>
      <trkpt lat="27.956909" lon="-15.555789">
        <ele>1817.36</ele>
        <time>2018-01-13T09:45:57Z</time>
      </trkpt>
      <trkpt lat="27.956882" lon="-15.555786">
        <ele>1817.00</ele>
        <time>2018-01-13T09:45:59Z</time>
      </trkpt>
      <trkpt lat="27.956851" lon="-15.555781">
        <ele>1816.66</ele>
        <time>2018-01-13T09:46:01Z</time>
      </trkpt>
      <trkpt lat="27.956819" lon="-15.555783">
        <ele>1816.48</ele>
        <time>2018-01-13T09:46:03Z</time>
      </trkpt>
      <trkpt lat="27.956788" lon="-15.555785">
        <ele>1816.18</ele>
        <time>2018-01-13T09:46:05Z</time>
      </trkpt>
      <trkpt lat="27.956757" lon="-15.555782">
        <ele>1816.10</ele>
        <time>2018-01-13T09:46:07Z</time>
      </trkpt>
      <trkpt lat="27.956728" lon="-15.555783">
        <ele>1816.12</ele>
        <time>2018-01-13T09:46:09Z</time>
      </trkpt>
      <trkpt lat="27.956704" lon="-15.555783">
        <ele>1816.70</ele>
        <time>2018-01-13T09:46:11Z</time>
      </trkpt>
      <trkpt lat="27.956682" lon="-15.555779">
        <ele>1816.70</ele>
        <time>2018-01-13T09:46:13Z</time>
      </trkpt>
      <trkpt lat="27.956655" lon="-15.555775">
        <ele>1816.25</ele>
        <time>2018-01-13T09:46:15Z</time>
      </trkpt>
      <trkpt lat="27.956626" lon="-15.555779">
        <ele>1815.50</ele>
        <time>2018-01-13T09:46:17Z</time>
      </trkpt>
      <trkpt lat="27.956598" lon="-15.555782">
        <ele>1815.39</ele>
        <time>2018-01-13T09:46:19Z</time>
      </trkpt>
      <trkpt lat="27.956571" lon="-15.555786">
        <ele>1814.80</ele>
        <time>2018-01-13T09:46:21Z</time>
      </trkpt>
      <trkpt lat="27.956543" lon="-15.555785">
        <ele>1814.29</ele>
        <time>2018-01-13T09:46:23Z</time>
      </trkpt>
      <trkpt lat="27.956512" lon="-15.555787">
        <ele>1813.77</ele>
        <time>2018-01-13T09:46:25Z</time>
      </trkpt>
      <trkpt lat="27.956486" lon="-15.555791">
        <ele>1813.27</ele>
        <time>2018-01-13T09:46:27Z</time>
      </trkpt>
      <trkpt lat="27.956464" lon="-15.555786">
        <ele>1813.10</ele>
        <time>2018-01-13T09:46:29Z</time>
      </trkpt>
      <trkpt lat="27.956439" lon="-15.555773">
        <ele>1812.80</ele>
        <time>2018-01-13T09:46:31Z</time>
      </trkpt>
      <trkpt lat="27.956410" lon="-15.555765">
        <ele>1812.64</ele>
        <time>2018-01-13T09:46:33Z</time>
      </trkpt>
      <trkpt lat="27.956381" lon="-15.555753">
        <ele>1812.39</ele>
        <time>2018-01-13T09:46:35Z</time>
      </trkpt>
      <trkpt lat="27.956357" lon="-15.555733">
        <ele>1811.77</ele>
        <time>2018-01-13T09:46:37Z</time>
      </trkpt>
      <trkpt lat="27.956337" lon="-15.555711">
        <ele>1811.70</ele>
        <time>2018-01-13T09:46:39Z</time>
      </trkpt>
      <trkpt lat="27.956325" lon="-15.555683">
        <ele>1811.67</ele>
        <time>2018-01-13T09:46:41Z</time>
      </trkpt>
      <trkpt lat="27.956320" lon="-15.555661">
        <ele>1811.60</ele>
        <time>2018-01-13T09:46:42Z</time>
      </trkpt>
      <trkpt lat="27.956316" lon="-15.555626">
        <ele>1811.70</ele>
        <time>2018-01-13T09:46:44Z</time>
      </trkpt>
      <trkpt lat="27.956315" lon="-15.555593">
        <ele>1811.70</ele>
        <time>2018-01-13T09:46:46Z</time>
      </trkpt>
      <trkpt lat="27.956317" lon="-15.555561">
        <ele>1811.10</ele>
        <time>2018-01-13T09:46:48Z</time>
      </trkpt>
      <trkpt lat="27.956325" lon="-15.555527">
        <ele>1810.40</ele>
        <time>2018-01-13T09:46:50Z</time>
      </trkpt>
      <trkpt lat="27.956333" lon="-15.555495">
        <ele>1810.40</ele>
        <time>2018-01-13T09:46:52Z</time>
      </trkpt>
      <trkpt lat="27.956343" lon="-15.555466">
        <ele>1810.32</ele>
        <time>2018-01-13T09:46:54Z</time>
      </trkpt>
      <trkpt lat="27.956358" lon="-15.555439">
        <ele>1809.77</ele>
        <time>2018-01-13T09:46:56Z</time>
      </trkpt>
      <trkpt lat="27.956380" lon="-15.555414">
        <ele>1809.76</ele>
        <time>2018-01-13T09:46:58Z</time>
      </trkpt>
      <trkpt lat="27.956400" lon="-15.555398">
        <ele>1809.70</ele>
        <time>2018-01-13T09:47:00Z</time>
      </trkpt>
      <trkpt lat="27.956424" lon="-15.555385">
        <ele>1809.70</ele>
        <time>2018-01-13T09:47:02Z</time>
      </trkpt>
      <trkpt lat="27.956450" lon="-15.555368">
        <ele>1809.60</ele>
        <time>2018-01-13T09:47:04Z</time>
      </trkpt>
      <trkpt lat="27.956467" lon="-15.555338">
        <ele>1809.23</ele>
        <time>2018-01-13T09:47:06Z</time>
      </trkpt>
      <trkpt lat="27.956474" lon="-15.555319">
        <ele>1809.27</ele>
        <time>2018-01-13T09:47:07Z</time>
      </trkpt>
      <trkpt lat="27.956501" lon="-15.555308">
        <ele>1809.27</ele>
        <time>2018-01-13T09:47:09Z</time>
      </trkpt>
      <trkpt lat="27.956528" lon="-15.555307">
        <ele>1809.20</ele>
        <time>2018-01-13T09:47:11Z</time>
      </trkpt>
      <trkpt lat="27.956558" lon="-15.555311">
        <ele>1809.00</ele>
        <time>2018-01-13T09:47:13Z</time>
      </trkpt>
      <trkpt lat="27.956589" lon="-15.555315">
        <ele>1808.84</ele>
        <time>2018-01-13T09:47:15Z</time>
      </trkpt>
      <trkpt lat="27.956620" lon="-15.555322">
        <ele>1808.76</ele>
        <time>2018-01-13T09:47:17Z</time>
      </trkpt>
      <trkpt lat="27.956645" lon="-15.555325">
        <ele>1808.90</ele>
        <time>2018-01-13T09:47:19Z</time>
      </trkpt>
      <trkpt lat="27.956673" lon="-15.555329">
        <ele>1808.70</ele>
        <time>2018-01-13T09:47:21Z</time>
      </trkpt>
      <trkpt lat="27.956703" lon="-15.555333">
        <ele>1807.77</ele>
        <time>2018-01-13T09:47:23Z</time>
      </trkpt>
      <trkpt lat="27.956735" lon="-15.555339">
        <ele>1807.70</ele>
        <time>2018-01-13T09:47:25Z</time>
      </trkpt>
      <trkpt lat="27.956757" lon="-15.555342">
        <ele>1807.80</ele>
        <time>2018-01-13T09:47:27Z</time>
      </trkpt>
      <trkpt lat="27.956783" lon="-15.555347">
        <ele>1807.54</ele>
        <time>2018-01-13T09:47:29Z</time>
      </trkpt>
      <trkpt lat="27.956813" lon="-15.555361">
        <ele>1807.35</ele>
        <time>2018-01-13T09:47:31Z</time>
      </trkpt>
      <trkpt lat="27.956839" lon="-15.555369">
        <ele>1807.10</ele>
        <time>2018-01-13T09:47:33Z</time>
      </trkpt>
      <trkpt lat="27.956864" lon="-15.555373">
        <ele>1807.07</ele>
        <time>2018-01-13T09:47:35Z</time>
      </trkpt>
      <trkpt lat="27.956888" lon="-15.555378">
        <ele>1806.47</ele>
        <time>2018-01-13T09:47:37Z</time>
      </trkpt>
      <trkpt lat="27.956916" lon="-15.555381">
        <ele>1805.80</ele>
        <time>2018-01-13T09:47:39Z</time>
      </trkpt>
      <trkpt lat="27.956941" lon="-15.555388">
        <ele>1805.64</ele>
        <time>2018-01-13T09:47:41Z</time>
      </trkpt>
      <trkpt lat="27.956970" lon="-15.555396">
        <ele>1805.50</ele>
        <time>2018-01-13T09:47:43Z</time>
      </trkpt>
      <trkpt lat="27.956998" lon="-15.555410">
        <ele>1805.39</ele>
        <time>2018-01-13T09:47:45Z</time>
      </trkpt>
      <trkpt lat="27.957028" lon="-15.555421">
        <ele>1804.50</ele>
        <time>2018-01-13T09:47:47Z</time>
      </trkpt>
      <trkpt lat="27.957054" lon="-15.555412">
        <ele>1804.30</ele>
        <time>2018-01-13T09:47:49Z</time>
      </trkpt>
      <trkpt lat="27.957074" lon="-15.555396">
        <ele>1804.30</ele>
        <time>2018-01-13T09:47:51Z</time>
      </trkpt>
      <trkpt lat="27.957085" lon="-15.555372">
        <ele>1803.67</ele>
        <time>2018-01-13T09:47:53Z</time>
      </trkpt>
      <trkpt lat="27.957086" lon="-15.555342">
        <ele>1803.60</ele>
        <time>2018-01-13T09:47:55Z</time>
      </trkpt>
      <trkpt lat="27.957081" lon="-15.555309">
        <ele>1803.60</ele>
        <time>2018-01-13T09:47:57Z</time>
      </trkpt>
      <trkpt lat="27.957072" lon="-15.555281">
        <ele>1803.54</ele>
        <time>2018-01-13T09:47:59Z</time>
      </trkpt>
      <trkpt lat="27.957068" lon="-15.555256">
        <ele>1802.64</ele>
        <time>2018-01-13T09:48:01Z</time>
      </trkpt>
      <trkpt lat="27.957061" lon="-15.555231">
        <ele>1802.22</ele>
        <time>2018-01-13T09:48:03Z</time>
      </trkpt>
      <trkpt lat="27.957050" lon="-15.555202">
        <ele>1801.95</ele>
        <time>2018-01-13T09:48:05Z</time>
      </trkpt>
      <trkpt lat="27.957034" lon="-15.555173">
        <ele>1801.80</ele>
        <time>2018-01-13T09:48:07Z</time>
      </trkpt>
      <trkpt lat="27.957020" lon="-15.555144">
        <ele>1801.80</ele>
        <time>2018-01-13T09:48:09Z</time>
      </trkpt>
      <trkpt lat="27.957008" lon="-15.555121">
        <ele>1801.75</ele>
        <time>2018-01-13T09:48:11Z</time>
      </trkpt>
      <trkpt lat="27.956994" lon="-15.555099">
        <ele>1800.80</ele>
        <time>2018-01-13T09:48:13Z</time>
      </trkpt>
      <trkpt lat="27.956977" lon="-15.555076">
        <ele>1800.60</ele>
        <time>2018-01-13T09:48:15Z</time>
      </trkpt>
      <trkpt lat="27.956960" lon="-15.555050">
        <ele>1800.20</ele>
        <time>2018-01-13T09:48:17Z</time>
      </trkpt>
      <trkpt lat="27.956944" lon="-15.555020">
        <ele>1800.20</ele>
        <time>2018-01-13T09:48:19Z</time>
      </trkpt>
      <trkpt lat="27.956933" lon="-15.554990">
        <ele>1800.10</ele>
        <time>2018-01-13T09:48:21Z</time>
      </trkpt>
      <trkpt lat="27.956918" lon="-15.554968">
        <ele>1799.57</ele>
        <time>2018-01-13T09:48:23Z</time>
      </trkpt>
      <trkpt lat="27.956906" lon="-15.554946">
        <ele>1799.50</ele>
        <time>2018-01-13T09:48:25Z</time>
      </trkpt>
      <trkpt lat="27.956894" lon="-15.554920">
        <ele>1799.42</ele>
        <time>2018-01-13T09:48:27Z</time>
      </trkpt>
      <trkpt lat="27.956877" lon="-15.554897">
        <ele>1799.20</ele>
        <time>2018-01-13T09:48:29Z</time>
      </trkpt>
      <trkpt lat="27.956857" lon="-15.554876">
        <ele>1798.72</ele>
        <time>2018-01-13T09:48:31Z</time>
      </trkpt>
      <trkpt lat="27.956834" lon="-15.554858">
        <ele>1798.40</ele>
        <time>2018-01-13T09:48:33Z</time>
      </trkpt>
      <trkpt lat="27.956810" lon="-15.554839">
        <ele>1798.17</ele>
        <time>2018-01-13T09:48:35Z</time>
      </trkpt>
      <trkpt lat="27.956786" lon="-15.554823">
        <ele>1797.92</ele>
        <time>2018-01-13T09:48:37Z</time>
      </trkpt>
      <trkpt lat="27.956768" lon="-15.554808">
        <ele>1797.47</ele>
        <time>2018-01-13T09:48:39Z</time>
      </trkpt>
      <trkpt lat="27.956747" lon="-15.554793">
        <ele>1797.26</ele>
        <time>2018-01-13T09:48:41Z</time>
      </trkpt>
      <trkpt lat="27.956720" lon="-15.554781">
        <ele>1796.87</ele>
        <time>2018-01-13T09:48:43Z</time>
      </trkpt>
      <trkpt lat="27.956695" lon="-15.554768">
        <ele>1796.55</ele>
        <time>2018-01-13T09:48:45Z</time>
      </trkpt>
      <trkpt lat="27.956670" lon="-15.554759">
        <ele>1796.27</ele>
        <time>2018-01-13T09:48:47Z</time>
      </trkpt>
      <trkpt lat="27.956650" lon="-15.554753">
        <ele>1796.17</ele>
        <time>2018-01-13T09:48:49Z</time>
      </trkpt>
      <trkpt lat="27.956627" lon="-15.554746">
        <ele>1795.96</ele>
        <time>2018-01-13T09:48:51Z</time>
      </trkpt>
      <trkpt lat="27.956605" lon="-15.554737">
        <ele>1795.07</ele>
        <time>2018-01-13T09:48:53Z</time>
      </trkpt>
      <trkpt lat="27.956580" lon="-15.554731">
        <ele>1794.87</ele>
        <time>2018-01-13T09:48:55Z</time>
      </trkpt>
      <trkpt lat="27.956555" lon="-15.554725">
        <ele>1794.77</ele>
        <time>2018-01-13T09:48:57Z</time>
      </trkpt>
      <trkpt lat="27.956532" lon="-15.554727">
        <ele>1794.64</ele>
        <time>2018-01-13T09:48:59Z</time>
      </trkpt>
      <trkpt lat="27.956506" lon="-15.554730">
        <ele>1794.50</ele>
        <time>2018-01-13T09:49:01Z</time>
      </trkpt>
      <trkpt lat="27.956477" lon="-15.554732">
        <ele>1794.40</ele>
        <time>2018-01-13T09:49:03Z</time>
      </trkpt>
      <trkpt lat="27.956450" lon="-15.554734">
        <ele>1794.30</ele>
        <time>2018-01-13T09:49:05Z</time>
      </trkpt>
      <trkpt lat="27.956424" lon="-15.554734">
        <ele>1793.92</ele>
        <time>2018-01-13T09:49:07Z</time>
      </trkpt>
      <trkpt lat="27.956391" lon="-15.554740">
        <ele>1793.08</ele>
        <time>2018-01-13T09:49:09Z</time>
      </trkpt>
      <trkpt lat="27.956366" lon="-15.554741">
        <ele>1792.77</ele>
        <time>2018-01-13T09:49:11Z</time>
      </trkpt>
      <trkpt lat="27.956340" lon="-15.554749">
        <ele>1792.67</ele>
        <time>2018-01-13T09:49:13Z</time>
      </trkpt>
      <trkpt lat="27.956313" lon="-15.554754">
        <ele>1792.63</ele>
        <time>2018-01-13T09:49:15Z</time>
      </trkpt>
      <trkpt lat="27.956289" lon="-15.554757">
        <ele>1792.61</ele>
        <time>2018-01-13T09:49:17Z</time>
      </trkpt>
      <trkpt lat="27.956261" lon="-15.554763">
        <ele>1792.40</ele>
        <time>2018-01-13T09:49:19Z</time>
      </trkpt>
      <trkpt lat="27.956237" lon="-15.554762">
        <ele>1791.97</ele>
        <time>2018-01-13T09:49:21Z</time>
      </trkpt>
      <trkpt lat="27.956208" lon="-15.554766">
        <ele>1791.10</ele>
        <time>2018-01-13T09:49:23Z</time>
      </trkpt>
      <trkpt lat="27.956182" lon="-15.554770">
        <ele>1791.00</ele>
        <time>2018-01-13T09:49:25Z</time>
      </trkpt>
      <trkpt lat="27.956161" lon="-15.554773">
        <ele>1791.10</ele>
        <time>2018-01-13T09:49:27Z</time>
      </trkpt>
      <trkpt lat="27.956135" lon="-15.554779">
        <ele>1790.27</ele>
        <time>2018-01-13T09:49:29Z</time>
      </trkpt>
      <trkpt lat="27.956108" lon="-15.554786">
        <ele>1790.20</ele>
        <time>2018-01-13T09:49:31Z</time>
      </trkpt>
      <trkpt lat="27.956084" lon="-15.554792">
        <ele>1789.60</ele>
        <time>2018-01-13T09:49:33Z</time>
      </trkpt>
      <trkpt lat="27.956054" lon="-15.554795">
        <ele>1788.97</ele>
        <time>2018-01-13T09:49:35Z</time>
      </trkpt>
      <trkpt lat="27.956024" lon="-15.554799">
        <ele>1788.50</ele>
        <time>2018-01-13T09:49:37Z</time>
      </trkpt>
      <trkpt lat="27.955994" lon="-15.554800">
        <ele>1788.23</ele>
        <time>2018-01-13T09:49:39Z</time>
      </trkpt>
      <trkpt lat="27.955974" lon="-15.554798">
        <ele>1788.07</ele>
        <time>2018-01-13T09:49:40Z</time>
      </trkpt>
      <trkpt lat="27.955947" lon="-15.554801">
        <ele>1787.60</ele>
        <time>2018-01-13T09:49:42Z</time>
      </trkpt>
      <trkpt lat="27.955917" lon="-15.554800">
        <ele>1787.46</ele>
        <time>2018-01-13T09:49:44Z</time>
      </trkpt>
      <trkpt lat="27.955892" lon="-15.554803">
        <ele>1787.13</ele>
        <time>2018-01-13T09:49:46Z</time>
      </trkpt>
      <trkpt lat="27.955867" lon="-15.554802">
        <ele>1787.00</ele>
        <time>2018-01-13T09:49:48Z</time>
      </trkpt>
      <trkpt lat="27.955841" lon="-15.554808">
        <ele>1786.76</ele>
        <time>2018-01-13T09:49:50Z</time>
      </trkpt>
      <trkpt lat="27.955811" lon="-15.554810">
        <ele>1786.40</ele>
        <time>2018-01-13T09:49:52Z</time>
      </trkpt>
      <trkpt lat="27.955779" lon="-15.554804">
        <ele>1786.20</ele>
        <time>2018-01-13T09:49:54Z</time>
      </trkpt>
      <trkpt lat="27.955747" lon="-15.554801">
        <ele>1786.00</ele>
        <time>2018-01-13T09:49:56Z</time>
      </trkpt>
      <trkpt lat="27.955718" lon="-15.554796">
        <ele>1785.80</ele>
        <time>2018-01-13T09:49:58Z</time>
      </trkpt>
      <trkpt lat="27.955692" lon="-15.554793">
        <ele>1785.50</ele>
        <time>2018-01-13T09:50:00Z</time>
      </trkpt>
      <trkpt lat="27.955663" lon="-15.554786">
        <ele>1785.19</ele>
        <time>2018-01-13T09:50:02Z</time>
      </trkpt>
      <trkpt lat="27.955634" lon="-15.554778">
        <ele>1784.76</ele>
        <time>2018-01-13T09:50:04Z</time>
      </trkpt>
      <trkpt lat="27.955607" lon="-15.554775">
        <ele>1784.60</ele>
        <time>2018-01-13T09:50:06Z</time>
      </trkpt>
      <trkpt lat="27.955582" lon="-15.554769">
        <ele>1783.40</ele>
        <time>2018-01-13T09:50:08Z</time>
      </trkpt>
      <trkpt lat="27.955556" lon="-15.554767">
        <ele>1783.36</ele>
        <time>2018-01-13T09:50:10Z</time>
      </trkpt>
      <trkpt lat="27.955527" lon="-15.554764">
        <ele>1783.23</ele>
        <time>2018-01-13T09:50:12Z</time>
      </trkpt>
      <trkpt lat="27.955498" lon="-15.554759">
        <ele>1782.84</ele>
        <time>2018-01-13T09:50:14Z</time>
      </trkpt>
      <trkpt lat="27.955468" lon="-15.554753">
        <ele>1782.99</ele>
        <time>2018-01-13T09:50:16Z</time>
      </trkpt>
      <trkpt lat="27.955439" lon="-15.554749">
        <ele>1782.74</ele>
        <time>2018-01-13T09:50:18Z</time>
      </trkpt>
      <trkpt lat="27.955409" lon="-15.554746">
        <ele>1782.84</ele>
        <time>2018-01-13T09:50:20Z</time>
      </trkpt>
      <trkpt lat="27.955384" lon="-15.554743">
        <ele>1782.80</ele>
        <time>2018-01-13T09:50:22Z</time>
      </trkpt>
      <trkpt lat="27.955359" lon="-15.554738">
        <ele>1782.56</ele>
        <time>2018-01-13T09:50:24Z</time>
      </trkpt>
      <trkpt lat="27.955334" lon="-15.554723">
        <ele>1781.86</ele>
        <time>2018-01-13T09:50:26Z</time>
      </trkpt>
      <trkpt lat="27.955308" lon="-15.554716">
        <ele>1781.40</ele>
        <time>2018-01-13T09:50:28Z</time>
      </trkpt>
      <trkpt lat="27.955281" lon="-15.554713">
        <ele>1781.10</ele>
        <time>2018-01-13T09:50:30Z</time>
      </trkpt>
      <trkpt lat="27.955254" lon="-15.554712">
        <ele>1781.17</ele>
        <time>2018-01-13T09:50:32Z</time>
      </trkpt>
      <trkpt lat="27.955231" lon="-15.554703">
        <ele>1781.23</ele>
        <time>2018-01-13T09:50:34Z</time>
      </trkpt>
      <trkpt lat="27.955202" lon="-15.554701">
        <ele>1780.39</ele>
        <time>2018-01-13T09:50:36Z</time>
      </trkpt>
      <trkpt lat="27.955174" lon="-15.554694">
        <ele>1780.00</ele>
        <time>2018-01-13T09:50:38Z</time>
      </trkpt>
      <trkpt lat="27.955147" lon="-15.554688">
        <ele>1779.80</ele>
        <time>2018-01-13T09:50:40Z</time>
      </trkpt>
      <trkpt lat="27.955120" lon="-15.554685">
        <ele>1779.74</ele>
        <time>2018-01-13T09:50:42Z</time>
      </trkpt>
      <trkpt lat="27.955092" lon="-15.554678">
        <ele>1779.60</ele>
        <time>2018-01-13T09:50:44Z</time>
      </trkpt>
      <trkpt lat="27.955063" lon="-15.554669">
        <ele>1779.60</ele>
        <time>2018-01-13T09:50:46Z</time>
      </trkpt>
      <trkpt lat="27.955032" lon="-15.554664">
        <ele>1779.60</ele>
        <time>2018-01-13T09:50:48Z</time>
      </trkpt>
      <trkpt lat="27.955005" lon="-15.554655">
        <ele>1779.60</ele>
        <time>2018-01-13T09:50:50Z</time>
      </trkpt>
      <trkpt lat="27.954975" lon="-15.554644">
        <ele>1779.15</ele>
        <time>2018-01-13T09:50:52Z</time>
      </trkpt>
      <trkpt lat="27.954947" lon="-15.554632">
        <ele>1778.90</ele>
        <time>2018-01-13T09:50:54Z</time>
      </trkpt>
      <trkpt lat="27.954918" lon="-15.554613">
        <ele>1779.20</ele>
        <time>2018-01-13T09:50:56Z</time>
      </trkpt>
      <trkpt lat="27.954892" lon="-15.554594">
        <ele>1779.24</ele>
        <time>2018-01-13T09:50:58Z</time>
      </trkpt>
      <trkpt lat="27.954871" lon="-15.554578">
        <ele>1779.38</ele>
        <time>2018-01-13T09:51:00Z</time>
      </trkpt>
      <trkpt lat="27.954852" lon="-15.554554">
        <ele>1779.50</ele>
        <time>2018-01-13T09:51:02Z</time>
      </trkpt>
      <trkpt lat="27.954831" lon="-15.554529">
        <ele>1779.50</ele>
        <time>2018-01-13T09:51:04Z</time>
      </trkpt>
      <trkpt lat="27.954812" lon="-15.554502">
        <ele>1779.50</ele>
        <time>2018-01-13T09:51:06Z</time>
      </trkpt>
      <trkpt lat="27.954795" lon="-15.554472">
        <ele>1779.50</ele>
        <time>2018-01-13T09:51:08Z</time>
      </trkpt>
      <trkpt lat="27.954780" lon="-15.554447">
        <ele>1779.62</ele>
        <time>2018-01-13T09:51:10Z</time>
      </trkpt>
      <trkpt lat="27.954765" lon="-15.554416">
        <ele>1779.80</ele>
        <time>2018-01-13T09:51:12Z</time>
      </trkpt>
      <trkpt lat="27.954749" lon="-15.554386">
        <ele>1779.72</ele>
        <time>2018-01-13T09:51:14Z</time>
      </trkpt>
      <trkpt lat="27.954734" lon="-15.554357">
        <ele>1779.30</ele>
        <time>2018-01-13T09:51:16Z</time>
      </trkpt>
      <trkpt lat="27.954720" lon="-15.554326">
        <ele>1779.30</ele>
        <time>2018-01-13T09:51:18Z</time>
      </trkpt>
      <trkpt lat="27.954702" lon="-15.554296">
        <ele>1779.38</ele>
        <time>2018-01-13T09:51:20Z</time>
      </trkpt>
      <trkpt lat="27.954685" lon="-15.554269">
        <ele>1779.60</ele>
        <time>2018-01-13T09:51:22Z</time>
      </trkpt>
      <trkpt lat="27.954668" lon="-15.554241">
        <ele>1779.60</ele>
        <time>2018-01-13T09:51:24Z</time>
      </trkpt>
      <trkpt lat="27.954649" lon="-15.554215">
        <ele>1779.64</ele>
        <time>2018-01-13T09:51:26Z</time>
      </trkpt>
      <trkpt lat="27.954630" lon="-15.554190">
        <ele>1779.66</ele>
        <time>2018-01-13T09:51:28Z</time>
      </trkpt>
      <trkpt lat="27.954614" lon="-15.554169">
        <ele>1779.70</ele>
        <time>2018-01-13T09:51:30Z</time>
      </trkpt>
      <trkpt lat="27.954591" lon="-15.554144">
        <ele>1779.70</ele>
        <time>2018-01-13T09:51:32Z</time>
      </trkpt>
      <trkpt lat="27.954568" lon="-15.554122">
        <ele>1779.40</ele>
        <time>2018-01-13T09:51:34Z</time>
      </trkpt>
      <trkpt lat="27.954547" lon="-15.554099">
        <ele>1779.36</ele>
        <time>2018-01-13T09:51:36Z</time>
      </trkpt>
      <trkpt lat="27.954526" lon="-15.554070">
        <ele>1779.26</ele>
        <time>2018-01-13T09:51:38Z</time>
      </trkpt>
      <trkpt lat="27.954503" lon="-15.554042">
        <ele>1778.80</ele>
        <time>2018-01-13T09:51:40Z</time>
      </trkpt>
      <trkpt lat="27.954484" lon="-15.554017">
        <ele>1778.66</ele>
        <time>2018-01-13T09:51:42Z</time>
      </trkpt>
      <trkpt lat="27.954460" lon="-15.554000">
        <ele>1778.60</ele>
        <time>2018-01-13T09:51:44Z</time>
      </trkpt>
      <trkpt lat="27.954436" lon="-15.553983">
        <ele>1778.24</ele>
        <time>2018-01-13T09:51:46Z</time>
      </trkpt>
      <trkpt lat="27.954417" lon="-15.553963">
        <ele>1777.76</ele>
        <time>2018-01-13T09:51:48Z</time>
      </trkpt>
      <trkpt lat="27.954397" lon="-15.553940">
        <ele>1777.50</ele>
        <time>2018-01-13T09:51:50Z</time>
      </trkpt>
      <trkpt lat="27.954373" lon="-15.553923">
        <ele>1777.50</ele>
        <time>2018-01-13T09:51:52Z</time>
      </trkpt>
      <trkpt lat="27.954351" lon="-15.553900">
        <ele>1777.60</ele>
        <time>2018-01-13T09:51:54Z</time>
      </trkpt>
      <trkpt lat="27.954326" lon="-15.553878">
        <ele>1777.60</ele>
        <time>2018-01-13T09:51:56Z</time>
      </trkpt>
      <trkpt lat="27.954305" lon="-15.553860">
        <ele>1777.46</ele>
        <time>2018-01-13T09:51:58Z</time>
      </trkpt>
      <trkpt lat="27.954282" lon="-15.553843">
        <ele>1777.16</ele>
        <time>2018-01-13T09:52:00Z</time>
      </trkpt>
      <trkpt lat="27.954261" lon="-15.553829">
        <ele>1777.00</ele>
        <time>2018-01-13T09:52:02Z</time>
      </trkpt>
      <trkpt lat="27.954243" lon="-15.553816">
        <ele>1776.60</ele>
        <time>2018-01-13T09:52:04Z</time>
      </trkpt>
      <trkpt lat="27.954221" lon="-15.553798">
        <ele>1776.36</ele>
        <time>2018-01-13T09:52:06Z</time>
      </trkpt>
      <trkpt lat="27.954201" lon="-15.553777">
        <ele>1775.61</ele>
        <time>2018-01-13T09:52:08Z</time>
      </trkpt>
      <trkpt lat="27.954179" lon="-15.553757">
        <ele>1775.40</ele>
        <time>2018-01-13T09:52:10Z</time>
      </trkpt>
      <trkpt lat="27.954153" lon="-15.553743">
        <ele>1775.40</ele>
        <time>2018-01-13T09:52:12Z</time>
      </trkpt>
      <trkpt lat="27.954127" lon="-15.553716">
        <ele>1775.35</ele>
        <time>2018-01-13T09:52:14Z</time>
      </trkpt>
      <trkpt lat="27.954111" lon="-15.553706">
        <ele>1775.30</ele>
        <time>2018-01-13T09:52:15Z</time>
      </trkpt>
      <trkpt lat="27.954085" lon="-15.553689">
        <ele>1775.10</ele>
        <time>2018-01-13T09:52:17Z</time>
      </trkpt>
      <trkpt lat="27.954060" lon="-15.553671">
        <ele>1774.95</ele>
        <time>2018-01-13T09:52:19Z</time>
      </trkpt>
      <trkpt lat="27.954034" lon="-15.553656">
        <ele>1774.55</ele>
        <time>2018-01-13T09:52:21Z</time>
      </trkpt>
      <trkpt lat="27.954012" lon="-15.553643">
        <ele>1774.10</ele>
        <time>2018-01-13T09:52:23Z</time>
      </trkpt>
      <trkpt lat="27.953992" lon="-15.553629">
        <ele>1774.00</ele>
        <time>2018-01-13T09:52:25Z</time>
      </trkpt>
      <trkpt lat="27.953969" lon="-15.553608">
        <ele>1773.90</ele>
        <time>2018-01-13T09:52:27Z</time>
      </trkpt>
      <trkpt lat="27.953948" lon="-15.553588">
        <ele>1773.64</ele>
        <time>2018-01-13T09:52:29Z</time>
      </trkpt>
      <trkpt lat="27.953926" lon="-15.553569">
        <ele>1773.30</ele>
        <time>2018-01-13T09:52:31Z</time>
      </trkpt>
      <trkpt lat="27.953907" lon="-15.553548">
        <ele>1772.79</ele>
        <time>2018-01-13T09:52:33Z</time>
      </trkpt>
      <trkpt lat="27.953882" lon="-15.553533">
        <ele>1772.60</ele>
        <time>2018-01-13T09:52:35Z</time>
      </trkpt>
      <trkpt lat="27.953853" lon="-15.553523">
        <ele>1772.50</ele>
        <time>2018-01-13T09:52:37Z</time>
      </trkpt>
      <trkpt lat="27.953826" lon="-15.553510">
        <ele>1772.50</ele>
        <time>2018-01-13T09:52:39Z</time>
      </trkpt>
      <trkpt lat="27.953808" lon="-15.553499">
        <ele>1772.35</ele>
        <time>2018-01-13T09:52:41Z</time>
      </trkpt>
      <trkpt lat="27.953792" lon="-15.553481">
        <ele>1772.10</ele>
        <time>2018-01-13T09:52:43Z</time>
      </trkpt>
      <trkpt lat="27.953767" lon="-15.553467">
        <ele>1771.89</ele>
        <time>2018-01-13T09:52:45Z</time>
      </trkpt>
      <trkpt lat="27.953742" lon="-15.553451">
        <ele>1771.10</ele>
        <time>2018-01-13T09:52:47Z</time>
      </trkpt>
      <trkpt lat="27.953712" lon="-15.553441">
        <ele>1771.70</ele>
        <time>2018-01-13T09:52:49Z</time>
      </trkpt>
      <trkpt lat="27.953687" lon="-15.553434">
        <ele>1771.20</ele>
        <time>2018-01-13T09:52:51Z</time>
      </trkpt>
      <trkpt lat="27.953660" lon="-15.553423">
        <ele>1771.20</ele>
        <time>2018-01-13T09:52:53Z</time>
      </trkpt>
      <trkpt lat="27.953635" lon="-15.553415">
        <ele>1770.78</ele>
        <time>2018-01-13T09:52:55Z</time>
      </trkpt>
      <trkpt lat="27.953610" lon="-15.553404">
        <ele>1770.60</ele>
        <time>2018-01-13T09:52:57Z</time>
      </trkpt>
      <trkpt lat="27.953581" lon="-15.553392">
        <ele>1770.60</ele>
        <time>2018-01-13T09:52:59Z</time>
      </trkpt>
      <trkpt lat="27.953551" lon="-15.553379">
        <ele>1770.65</ele>
        <time>2018-01-13T09:53:01Z</time>
      </trkpt>
      <trkpt lat="27.953525" lon="-15.553362">
        <ele>1770.70</ele>
        <time>2018-01-13T09:53:03Z</time>
      </trkpt>
      <trkpt lat="27.953503" lon="-15.553340">
        <ele>1770.48</ele>
        <time>2018-01-13T09:53:05Z</time>
      </trkpt>
      <trkpt lat="27.953479" lon="-15.553325">
        <ele>1770.02</ele>
        <time>2018-01-13T09:53:07Z</time>
      </trkpt>
      <trkpt lat="27.953454" lon="-15.553311">
        <ele>1769.63</ele>
        <time>2018-01-13T09:53:09Z</time>
      </trkpt>
      <trkpt lat="27.953426" lon="-15.553292">
        <ele>1769.20</ele>
        <time>2018-01-13T09:53:11Z</time>
      </trkpt>
      <trkpt lat="27.953401" lon="-15.553271">
        <ele>1769.09</ele>
        <time>2018-01-13T09:53:13Z</time>
      </trkpt>
      <trkpt lat="27.953378" lon="-15.553250">
        <ele>1768.83</ele>
        <time>2018-01-13T09:53:15Z</time>
      </trkpt>
      <trkpt lat="27.953355" lon="-15.553234">
        <ele>1768.38</ele>
        <time>2018-01-13T09:53:17Z</time>
      </trkpt>
      <trkpt lat="27.953334" lon="-15.553215">
        <ele>1768.18</ele>
        <time>2018-01-13T09:53:19Z</time>
      </trkpt>
      <trkpt lat="27.953319" lon="-15.553194">
        <ele>1767.70</ele>
        <time>2018-01-13T09:53:21Z</time>
      </trkpt>
      <trkpt lat="27.953295" lon="-15.553174">
        <ele>1767.70</ele>
        <time>2018-01-13T09:53:23Z</time>
      </trkpt>
      <trkpt lat="27.953271" lon="-15.553155">
        <ele>1767.60</ele>
        <time>2018-01-13T09:53:25Z</time>
      </trkpt>
      <trkpt lat="27.953249" lon="-15.553137">
        <ele>1767.50</ele>
        <time>2018-01-13T09:53:27Z</time>
      </trkpt>
      <trkpt lat="27.953228" lon="-15.553114">
        <ele>1767.16</ele>
        <time>2018-01-13T09:53:29Z</time>
      </trkpt>
      <trkpt lat="27.953209" lon="-15.553088">
        <ele>1766.60</ele>
        <time>2018-01-13T09:53:31Z</time>
      </trkpt>
      <trkpt lat="27.953190" lon="-15.553064">
        <ele>1766.36</ele>
        <time>2018-01-13T09:53:33Z</time>
      </trkpt>
      <trkpt lat="27.953172" lon="-15.553044">
        <ele>1766.60</ele>
        <time>2018-01-13T09:53:35Z</time>
      </trkpt>
      <trkpt lat="27.953151" lon="-15.553022">
        <ele>1766.60</ele>
        <time>2018-01-13T09:53:37Z</time>
      </trkpt>
      <trkpt lat="27.953128" lon="-15.553001">
        <ele>1767.30</ele>
        <time>2018-01-13T09:53:39Z</time>
      </trkpt>
      <trkpt lat="27.953107" lon="-15.552982">
        <ele>1767.30</ele>
        <time>2018-01-13T09:53:41Z</time>
      </trkpt>
      <trkpt lat="27.953087" lon="-15.552957">
        <ele>1767.34</ele>
        <time>2018-01-13T09:53:43Z</time>
      </trkpt>
      <trkpt lat="27.953068" lon="-15.552933">
        <ele>1767.56</ele>
        <time>2018-01-13T09:53:45Z</time>
      </trkpt>
      <trkpt lat="27.953050" lon="-15.552904">
        <ele>1767.70</ele>
        <time>2018-01-13T09:53:47Z</time>
      </trkpt>
      <trkpt lat="27.953034" lon="-15.552875">
        <ele>1767.64</ele>
        <time>2018-01-13T09:53:49Z</time>
      </trkpt>
      <trkpt lat="27.953014" lon="-15.552847">
        <ele>1767.70</ele>
        <time>2018-01-13T09:53:51Z</time>
      </trkpt>
      <trkpt lat="27.952995" lon="-15.552817">
        <ele>1767.47</ele>
        <time>2018-01-13T09:53:53Z</time>
      </trkpt>
      <trkpt lat="27.952982" lon="-15.552785">
        <ele>1767.34</ele>
        <time>2018-01-13T09:53:55Z</time>
      </trkpt>
      <trkpt lat="27.952975" lon="-15.552750">
        <ele>1767.10</ele>
        <time>2018-01-13T09:53:57Z</time>
      </trkpt>
      <trkpt lat="27.952964" lon="-15.552714">
        <ele>1767.10</ele>
        <time>2018-01-13T09:53:59Z</time>
      </trkpt>
      <trkpt lat="27.952957" lon="-15.552695">
        <ele>1767.03</ele>
        <time>2018-01-13T09:54:00Z</time>
      </trkpt>
      <trkpt lat="27.952946" lon="-15.552666">
        <ele>1767.00</ele>
        <time>2018-01-13T09:54:02Z</time>
      </trkpt>
      <trkpt lat="27.952934" lon="-15.552639">
        <ele>1767.07</ele>
        <time>2018-01-13T09:54:04Z</time>
      </trkpt>
      <trkpt lat="27.952924" lon="-15.552611">
        <ele>1767.10</ele>
        <time>2018-01-13T09:54:06Z</time>
      </trkpt>
      <trkpt lat="27.952917" lon="-15.552577">
        <ele>1767.10</ele>
        <time>2018-01-13T09:54:08Z</time>
      </trkpt>
      <trkpt lat="27.952904" lon="-15.552545">
        <ele>1766.96</ele>
        <time>2018-01-13T09:54:10Z</time>
      </trkpt>
      <trkpt lat="27.952879" lon="-15.552522">
        <ele>1766.90</ele>
        <time>2018-01-13T09:54:12Z</time>
      </trkpt>
      <trkpt lat="27.952860" lon="-15.552496">
        <ele>1766.97</ele>
        <time>2018-01-13T09:54:14Z</time>
      </trkpt>
      <trkpt lat="27.952840" lon="-15.552472">
        <ele>1767.00</ele>
        <time>2018-01-13T09:54:16Z</time>
      </trkpt>
      <trkpt lat="27.952814" lon="-15.552452">
        <ele>1767.00</ele>
        <time>2018-01-13T09:54:18Z</time>
      </trkpt>
      <trkpt lat="27.952789" lon="-15.552431">
        <ele>1766.72</ele>
        <time>2018-01-13T09:54:20Z</time>
      </trkpt>
      <trkpt lat="27.952766" lon="-15.552412">
        <ele>1766.20</ele>
        <time>2018-01-13T09:54:22Z</time>
      </trkpt>
      <trkpt lat="27.952742" lon="-15.552391">
        <ele>1766.00</ele>
        <time>2018-01-13T09:54:24Z</time>
      </trkpt>
      <trkpt lat="27.952721" lon="-15.552370">
        <ele>1765.93</ele>
        <time>2018-01-13T09:54:26Z</time>
      </trkpt>
      <trkpt lat="27.952703" lon="-15.552348">
        <ele>1766.07</ele>
        <time>2018-01-13T09:54:28Z</time>
      </trkpt>
      <trkpt lat="27.952684" lon="-15.552327">
        <ele>1765.76</ele>
        <time>2018-01-13T09:54:30Z</time>
      </trkpt>
      <trkpt lat="27.952664" lon="-15.552298">
        <ele>1765.46</ele>
        <time>2018-01-13T09:54:32Z</time>
      </trkpt>
      <trkpt lat="27.952645" lon="-15.552269">
        <ele>1765.23</ele>
        <time>2018-01-13T09:54:34Z</time>
      </trkpt>
      <trkpt lat="27.952624" lon="-15.552246">
        <ele>1765.13</ele>
        <time>2018-01-13T09:54:36Z</time>
      </trkpt>
      <trkpt lat="27.952601" lon="-15.552219">
        <ele>1765.00</ele>
        <time>2018-01-13T09:54:38Z</time>
      </trkpt>
      <trkpt lat="27.952580" lon="-15.552192">
        <ele>1764.93</ele>
        <time>2018-01-13T09:54:40Z</time>
      </trkpt>
      <trkpt lat="27.952561" lon="-15.552168">
        <ele>1764.93</ele>
        <time>2018-01-13T09:54:42Z</time>
      </trkpt>
      <trkpt lat="27.952543" lon="-15.552138">
        <ele>1764.90</ele>
        <time>2018-01-13T09:54:44Z</time>
      </trkpt>
      <trkpt lat="27.952525" lon="-15.552107">
        <ele>1764.80</ele>
        <time>2018-01-13T09:54:46Z</time>
      </trkpt>
      <trkpt lat="27.952511" lon="-15.552077">
        <ele>1764.87</ele>
        <time>2018-01-13T09:54:48Z</time>
      </trkpt>
      <trkpt lat="27.952492" lon="-15.552047">
        <ele>1764.63</ele>
        <time>2018-01-13T09:54:50Z</time>
      </trkpt>
      <trkpt lat="27.952472" lon="-15.552019">
        <ele>1764.20</ele>
        <time>2018-01-13T09:54:52Z</time>
      </trkpt>
      <trkpt lat="27.952453" lon="-15.551998">
        <ele>1764.10</ele>
        <time>2018-01-13T09:54:54Z</time>
      </trkpt>
      <trkpt lat="27.952435" lon="-15.551972">
        <ele>1763.70</ele>
        <time>2018-01-13T09:54:56Z</time>
      </trkpt>
      <trkpt lat="27.952418" lon="-15.551945">
        <ele>1764.30</ele>
        <time>2018-01-13T09:54:58Z</time>
      </trkpt>
      <trkpt lat="27.952398" lon="-15.551928">
        <ele>1764.30</ele>
        <time>2018-01-13T09:55:00Z</time>
      </trkpt>
      <trkpt lat="27.952379" lon="-15.551903">
        <ele>1764.30</ele>
        <time>2018-01-13T09:55:02Z</time>
      </trkpt>
      <trkpt lat="27.952360" lon="-15.551875">
        <ele>1764.15</ele>
        <time>2018-01-13T09:55:04Z</time>
      </trkpt>
      <trkpt lat="27.952338" lon="-15.551855">
        <ele>1763.70</ele>
        <time>2018-01-13T09:55:06Z</time>
      </trkpt>
      <trkpt lat="27.952314" lon="-15.551836">
        <ele>1763.45</ele>
        <time>2018-01-13T09:55:08Z</time>
      </trkpt>
      <trkpt lat="27.952289" lon="-15.551809">
        <ele>1762.92</ele>
        <time>2018-01-13T09:55:10Z</time>
      </trkpt>
      <trkpt lat="27.952268" lon="-15.551788">
        <ele>1763.00</ele>
        <time>2018-01-13T09:55:12Z</time>
      </trkpt>
      <trkpt lat="27.952248" lon="-15.551767">
        <ele>1763.00</ele>
        <time>2018-01-13T09:55:14Z</time>
      </trkpt>
      <trkpt lat="27.952229" lon="-15.551741">
        <ele>1763.20</ele>
        <time>2018-01-13T09:55:16Z</time>
      </trkpt>
      <trkpt lat="27.952207" lon="-15.551718">
        <ele>1763.50</ele>
        <time>2018-01-13T09:55:18Z</time>
      </trkpt>
      <trkpt lat="27.952186" lon="-15.551695">
        <ele>1763.20</ele>
        <time>2018-01-13T09:55:20Z</time>
      </trkpt>
      <trkpt lat="27.952157" lon="-15.551677">
        <ele>1763.20</ele>
        <time>2018-01-13T09:55:22Z</time>
      </trkpt>
      <trkpt lat="27.952134" lon="-15.551649">
        <ele>1762.82</ele>
        <time>2018-01-13T09:55:24Z</time>
      </trkpt>
      <trkpt lat="27.952115" lon="-15.551617">
        <ele>1762.60</ele>
        <time>2018-01-13T09:55:26Z</time>
      </trkpt>
      <trkpt lat="27.952092" lon="-15.551593">
        <ele>1762.44</ele>
        <time>2018-01-13T09:55:28Z</time>
      </trkpt>
      <trkpt lat="27.952068" lon="-15.551570">
        <ele>1762.40</ele>
        <time>2018-01-13T09:55:30Z</time>
      </trkpt>
      <trkpt lat="27.952046" lon="-15.551541">
        <ele>1762.50</ele>
        <time>2018-01-13T09:55:32Z</time>
      </trkpt>
      <trkpt lat="27.952027" lon="-15.551519">
        <ele>1762.22</ele>
        <time>2018-01-13T09:55:34Z</time>
      </trkpt>
      <trkpt lat="27.952004" lon="-15.551502">
        <ele>1762.00</ele>
        <time>2018-01-13T09:55:36Z</time>
      </trkpt>
      <trkpt lat="27.951976" lon="-15.551490">
        <ele>1762.10</ele>
        <time>2018-01-13T09:55:38Z</time>
      </trkpt>
      <trkpt lat="27.951950" lon="-15.551479">
        <ele>1762.00</ele>
        <time>2018-01-13T09:55:40Z</time>
      </trkpt>
      <trkpt lat="27.951923" lon="-15.551474">
        <ele>1761.60</ele>
        <time>2018-01-13T09:55:42Z</time>
      </trkpt>
      <trkpt lat="27.951895" lon="-15.551468">
        <ele>1761.30</ele>
        <time>2018-01-13T09:55:44Z</time>
      </trkpt>
      <trkpt lat="27.951861" lon="-15.551460">
        <ele>1761.10</ele>
        <time>2018-01-13T09:55:46Z</time>
      </trkpt>
      <trkpt lat="27.951834" lon="-15.551458">
        <ele>1761.02</ele>
        <time>2018-01-13T09:55:48Z</time>
      </trkpt>
      <trkpt lat="27.951803" lon="-15.551461">
        <ele>1761.10</ele>
        <time>2018-01-13T09:55:50Z</time>
      </trkpt>
      <trkpt lat="27.951771" lon="-15.551460">
        <ele>1761.00</ele>
        <time>2018-01-13T09:55:52Z</time>
      </trkpt>
      <trkpt lat="27.951743" lon="-15.551458">
        <ele>1760.75</ele>
        <time>2018-01-13T09:55:54Z</time>
      </trkpt>
      <trkpt lat="27.951711" lon="-15.551460">
        <ele>1760.62</ele>
        <time>2018-01-13T09:55:56Z</time>
      </trkpt>
      <trkpt lat="27.951684" lon="-15.551456">
        <ele>1760.53</ele>
        <time>2018-01-13T09:55:58Z</time>
      </trkpt>
      <trkpt lat="27.951656" lon="-15.551445">
        <ele>1760.40</ele>
        <time>2018-01-13T09:56:00Z</time>
      </trkpt>
      <trkpt lat="27.951626" lon="-15.551433">
        <ele>1760.40</ele>
        <time>2018-01-13T09:56:02Z</time>
      </trkpt>
      <trkpt lat="27.951594" lon="-15.551419">
        <ele>1760.30</ele>
        <time>2018-01-13T09:56:04Z</time>
      </trkpt>
      <trkpt lat="27.951568" lon="-15.551413">
        <ele>1760.20</ele>
        <time>2018-01-13T09:56:06Z</time>
      </trkpt>
      <trkpt lat="27.951539" lon="-15.551407">
        <ele>1759.92</ele>
        <time>2018-01-13T09:56:08Z</time>
      </trkpt>
      <trkpt lat="27.951510" lon="-15.551390">
        <ele>1759.72</ele>
        <time>2018-01-13T09:56:10Z</time>
      </trkpt>
      <trkpt lat="27.951487" lon="-15.551369">
        <ele>1759.53</ele>
        <time>2018-01-13T09:56:12Z</time>
      </trkpt>
      <trkpt lat="27.951469" lon="-15.551340">
        <ele>1759.50</ele>
        <time>2018-01-13T09:56:14Z</time>
      </trkpt>
      <trkpt lat="27.951460" lon="-15.551321">
        <ele>1759.50</ele>
        <time>2018-01-13T09:56:15Z</time>
      </trkpt>
      <trkpt lat="27.951451" lon="-15.551286">
        <ele>1759.31</ele>
        <time>2018-01-13T09:56:17Z</time>
      </trkpt>
      <trkpt lat="27.951448" lon="-15.551265">
        <ele>1759.04</ele>
        <time>2018-01-13T09:56:18Z</time>
      </trkpt>
      <trkpt lat="27.951448" lon="-15.551226">
        <ele>1758.63</ele>
        <time>2018-01-13T09:56:20Z</time>
      </trkpt>
      <trkpt lat="27.951449" lon="-15.551190">
        <ele>1758.60</ele>
        <time>2018-01-13T09:56:22Z</time>
      </trkpt>
      <trkpt lat="27.951453" lon="-15.551158">
        <ele>1758.30</ele>
        <time>2018-01-13T09:56:24Z</time>
      </trkpt>
      <trkpt lat="27.951512" lon="-15.551378">
        <ele>0.03</ele>
        <time>2014-11-18T06:30:13Z</time>
      </trkpt>
      <trkpt lat="27.951595" lon="-15.551560">
        <ele>0.07</ele>
        <time>2014-11-18T06:30:33Z</time>
      </trkpt>
      <trkpt lat="27.951749" lon="-15.551944">
        <ele>0.05</ele>
        <time>2014-11-18T06:30:53Z</time>
      </trkpt>
      <trkpt lat="27.951920" lon="-15.552193">
        <ele>0.04</ele>
        <time>2014-11-18T06:31:13Z</time>
      </trkpt>
      <trkpt lat="27.952061" lon="-15.552293">
        <ele>0.03</ele>
        <time>2014-11-18T06:31:33Z</time>
      </trkpt>
      <trkpt lat="27.952177" lon="-15.552526">
        <ele>0.07</ele>
        <time>2014-11-18T06:31:53Z</time>
      </trkpt>
      <trkpt lat="27.952312" lon="-15.552923">
        <ele>0.01</ele>
        <time>2014-11-18T06:32:13Z</time>
      </trkpt>
      <trkpt lat="27.952438" lon="-15.553114">
        <ele>0.03</ele>
        <time>2014-11-18T06:32:33Z</time>
      </trkpt>
      <trkpt lat="27.952706" lon="-15.553344">
        <ele>0.04</ele>
        <time>2014-11-18T06:32:53Z</time>
      </trkpt>
      <trkpt lat="27.952830" lon="-15.553795">
        <ele>0.09</ele>
        <time>2014-11-18T06:33:13Z</time>
      </trkpt>
      <trkpt lat="27.952980" lon="-15.554279">
        <ele>0.04</ele>
        <time>2014-11-18T06:33:33Z</time>
      </trkpt>
      <trkpt lat="27.953153" lon="-15.554680">
        <ele>0.10</ele>
        <time>2014-11-18T06:33:53Z</time>
      </trkpt>
      <trkpt lat="27.953312" lon="-15.554850">
        <ele>0.03</ele>
        <time>2014-11-18T06:34:13Z</time>
      </trkpt>
      <trkpt lat="27.953188" lon="-15.554851">
        <ele>0.10</ele>
        <time>2014-11-18T06:34:33Z</time>
      </trkpt>
      <trkpt lat="27.952799" lon="-15.554590">
        <ele>0.04</ele>
        <time>2014-11-18T06:34:53Z</time>
      </trkpt>
      <trkpt lat="27.952514" lon="-15.554235">
        <ele>0.03</ele>
        <time>2014-11-18T06:35:13Z</time>
      </trkpt>
      <trkpt lat="27.952294" lon="-15.553875">
        <ele>0.09</ele>
        <time>2014-11-18T06:35:33Z</time>
      </trkpt>
      <trkpt lat="27.951633" lon="-15.553720">
        <ele>0.01</ele>
        <time>2014-11-18T06:35:53Z</time>
      </trkpt>
      <trkpt lat="27.951531" lon="-15.553389">
        <ele>0.03</ele>
        <time>2014-11-18T06:36:13Z</time>
      </trkpt>
      <trkpt lat="27.951413" lon="-15.553087">
        <ele>0.01</ele>
        <time>2014-11-18T06:36:33Z</time>
      </trkpt>
      <trkpt lat="27.951272" lon="-15.553075">
        <ele>0.10</ele>
        <time>2014-11-18T06:36:53Z</time>
      </trkpt>
      <trkpt lat="27.950850" lon="-15.552755">
        <ele>0.01</ele>
        <time>2014-11-18T06:37:13Z</time>
      </trkpt>
      <trkpt lat="27.950778" lon="-15.552602">
        <ele>0.03</ele>
        <time>2014-11-18T06:37:33Z</time>
      </trkpt>
      <trkpt lat="27.950839" lon="-15.552125">
        <ele>0.05</ele>
        <time>2014-11-18T06:37:53Z</time>
      </trkpt>
      <trkpt lat="27.950788" lon="-15.551869">
        <ele>0.07</ele>
        <time>2014-11-18T06:38:13Z</time>
      </trkpt>
      <trkpt lat="27.950594" lon="-15.551289">
        <ele>0.02</ele>
        <time>2014-11-18T06:38:33Z</time>
      </trkpt>
      <trkpt lat="27.950068" lon="-15.551154">
        <ele>0.07</ele>
        <time>2014-11-18T06:38:53Z</time>
      </trkpt>
      <trkpt lat="27.949775" lon="-15.551174">
        <ele>0.04</ele>
        <time>2014-11-18T06:39:13Z</time>
      </trkpt>
      <trkpt lat="27.949197" lon="-15.551338">
        <ele>0.01</ele>
        <time>2014-11-18T06:39:33Z</time>
      </trkpt>
      <trkpt lat="27.949000" lon="-15.551248">
        <ele>0.02</ele>
        <time>2014-11-18T06:39:53Z</time>
      </trkpt>
      <trkpt lat="27.948768" lon="-15.551367">
        <ele>0.05</ele>
        <time>2014-11-18T06:40:13Z</time>
      </trkpt>
      <trkpt lat="27.948566" lon="-15.551253">
        <ele>0.10</ele>
        <time>2014-11-18T06:40:33Z</time>
      </trkpt>
      <trkpt lat="27.948404" lon="-15.550767">
        <ele>0.07</ele>
        <time>2014-11-18T06:40:53Z</time>
      </trkpt>
      <trkpt lat="27.948379" lon="-15.550002">
        <ele>0.10</ele>
        <time>2014-11-18T06:41:13Z</time>
      </trkpt>
      <trkpt lat="27.948104" lon="-15.549790">
        <ele>0.02</ele>
        <time>2014-11-18T06:41:33Z</time>
      </trkpt>
      <trkpt lat="27.948042" lon="-15.549053">
        <ele>0.07</ele>
        <time>2014-11-18T06:41:53Z</time>
      </trkpt>
      <trkpt lat="27.948268" lon="-15.548693">
        <ele>0.03</ele>
        <time>2014-11-18T06:42:13Z</time>
      </trkpt>
      <trkpt lat="27.948358" lon="-15.548427">
        <ele>0.04</ele>
        <time>2014-11-18T06:42:33Z</time>
      </trkpt>
      <trkpt lat="27.948635" lon="-15.547984">
        <ele>0.07</ele>
        <time>2014-11-18T06:42:53Z</time>
      </trkpt>
      <trkpt lat="27.948668" lon="-15.547612">
        <ele>0.01</ele>
        <time>2014-11-18T06:43:13Z</time>
      </trkpt>
      <trkpt lat="27.948145" lon="-15.547335">
        <ele>0.02</ele>
        <time>2014-11-18T06:43:33Z</time>
      </trkpt>
      <trkpt lat="27.948099" lon="-15.546911">
        <ele>0.03</ele>
        <time>2014-11-18T06:43:53Z</time>
      </trkpt>
      <trkpt lat="27.948274" lon="-15.546801">
        <ele>0.07</ele>
        <time>2014-11-18T06:44:13Z</time>
      </trkpt>
      <trkpt lat="27.948203" lon="-15.545483">
        <ele>0.06</ele>
        <time>2014-11-18T06:44:33Z</time>
      </trkpt>
      <trkpt lat="27.948157" lon="-15.544409">
        <ele>0.07</ele>
        <time>2014-11-18T06:44:53Z</time>
      </trkpt>
      <trkpt lat="27.948045" lon="-15.543860">
        <ele>0.07</ele>
        <time>2014-11-18T06:45:13Z</time>
      </trkpt>
      <trkpt lat="27.947977" lon="-15.543397">
        <ele>0.04</ele>
        <time>2014-11-18T06:45:33Z</time>
      </trkpt>
      <trkpt lat="27.947918" lon="-15.543106">
        <ele>1655.82</ele>
        <time>2017-12-09T14:08:27Z</time>
      </trkpt>
      <trkpt lat="27.947937" lon="-15.543110">
        <ele>1656.10</ele>
        <time>2017-12-09T14:08:29Z</time>
      </trkpt>
      <trkpt lat="27.947955" lon="-15.543116">
        <ele>1656.22</ele>
        <time>2017-12-09T14:08:31Z</time>
      </trkpt>
      <trkpt lat="27.947982" lon="-15.543119">
        <ele>1656.60</ele>
        <time>2017-12-09T14:08:33Z</time>
      </trkpt>
      <trkpt lat="27.948001" lon="-15.543125">
        <ele>1656.80</ele>
        <time>2017-12-09T14:08:35Z</time>
      </trkpt>
      <trkpt lat="27.948025" lon="-15.543137">
        <ele>1657.02</ele>
        <time>2017-12-09T14:08:37Z</time>
      </trkpt>
      <trkpt lat="27.948052" lon="-15.543155">
        <ele>1657.50</ele>
        <time>2017-12-09T14:08:39Z</time>
      </trkpt>
      <trkpt lat="27.948079" lon="-15.543170">
        <ele>1657.55</ele>
        <time>2017-12-09T14:08:41Z</time>
      </trkpt>
      <trkpt lat="27.948105" lon="-15.543176">
        <ele>1658.40</ele>
        <time>2017-12-09T14:08:43Z</time>
      </trkpt>
      <trkpt lat="27.948128" lon="-15.543178">
        <ele>1658.52</ele>
        <time>2017-12-09T14:08:45Z</time>
      </trkpt>
      <trkpt lat="27.948155" lon="-15.543183">
        <ele>1658.90</ele>
        <time>2017-12-09T14:08:47Z</time>
      </trkpt>
      <trkpt lat="27.948182" lon="-15.543190">
        <ele>1658.90</ele>
        <time>2017-12-09T14:08:49Z</time>
      </trkpt>
      <trkpt lat="27.948204" lon="-15.543202">
        <ele>1658.80</ele>
        <time>2017-12-09T14:08:51Z</time>
      </trkpt>
      <trkpt lat="27.948223" lon="-15.543213">
        <ele>1658.80</ele>
        <time>2017-12-09T14:08:53Z</time>
      </trkpt>
      <trkpt lat="27.948242" lon="-15.543232">
        <ele>1659.21</ele>
        <time>2017-12-09T14:08:56Z</time>
      </trkpt>
      <trkpt lat="27.948258" lon="-15.543243">
        <ele>1659.80</ele>
        <time>2017-12-09T14:08:58Z</time>
      </trkpt>
      <trkpt lat="27.948274" lon="-15.543255">
        <ele>1660.11</ele>
        <time>2017-12-09T14:09:00Z</time>
      </trkpt>
      <trkpt lat="27.948297" lon="-15.543270">
        <ele>1660.80</ele>
        <time>2017-12-09T14:09:03Z</time>
      </trkpt>
      <trkpt lat="27.948318" lon="-15.543279">
        <ele>1660.81</ele>
        <time>2017-12-09T14:09:05Z</time>
      </trkpt>
      <trkpt lat="27.948338" lon="-15.543300">
        <ele>1661.11</ele>
        <time>2017-12-09T14:09:08Z</time>
      </trkpt>
      <trkpt lat="27.948374" lon="-15.543310">
        <ele>1661.50</ele>
        <time>2017-12-09T14:09:10Z</time>
      </trkpt>
      <trkpt lat="27.948396" lon="-15.543308">
        <ele>1661.80</ele>
        <time>2017-12-09T14:09:11Z</time>
      </trkpt>
      <trkpt lat="27.948426" lon="-15.543316">
        <ele>1661.90</ele>
        <time>2017-12-09T14:09:13Z</time>
      </trkpt>
      <trkpt lat="27.948452" lon="-15.543324">
        <ele>1662.60</ele>
        <time>2017-12-09T14:09:15Z</time>
      </trkpt>
      <trkpt lat="27.948474" lon="-15.543335">
        <ele>1663.00</ele>
        <time>2017-12-09T14:09:17Z</time>
      </trkpt>
      <trkpt lat="27.948495" lon="-15.543346">
        <ele>1663.30</ele>
        <time>2017-12-09T14:09:19Z</time>
      </trkpt>
      <trkpt lat="27.948514" lon="-15.543353">
        <ele>1663.80</ele>
        <time>2017-12-09T14:09:21Z</time>
      </trkpt>
      <trkpt lat="27.948534" lon="-15.543364">
        <ele>1664.20</ele>
        <time>2017-12-09T14:09:23Z</time>
      </trkpt>
      <trkpt lat="27.948552" lon="-15.543378">
        <ele>1664.30</ele>
        <time>2017-12-09T14:09:26Z</time>
      </trkpt>
      <trkpt lat="27.948571" lon="-15.543391">
        <ele>1664.60</ele>
        <time>2017-12-09T14:09:29Z</time>
      </trkpt>
      <trkpt lat="27.948586" lon="-15.543420">
        <ele>1664.02</ele>
        <time>2017-12-09T14:09:32Z</time>
      </trkpt>
      <trkpt lat="27.948592" lon="-15.543445">
        <ele>1664.14</ele>
        <time>2017-12-09T14:09:35Z</time>
      </trkpt>
      <trkpt lat="27.948598" lon="-15.543464">
        <ele>1664.00</ele>
        <time>2017-12-09T14:09:37Z</time>
      </trkpt>
      <trkpt lat="27.948653" lon="-15.543539">
        <ele>1664.76</ele>
        <time>2017-12-09T14:09:43Z</time>
      </trkpt>
      <trkpt lat="27.948666" lon="-15.543571">
        <ele>1665.17</ele>
        <time>2017-12-09T14:09:45Z</time>
      </trkpt>
      <trkpt lat="27.948675" lon="-15.543590">
        <ele>1665.41</ele>
        <time>2017-12-09T14:09:46Z</time>
      </trkpt>
      <trkpt lat="27.948687" lon="-15.543609">
        <ele>1665.50</ele>
        <time>2017-12-09T14:09:47Z</time>
      </trkpt>
      <trkpt lat="27.948711" lon="-15.543636">
        <ele>1666.01</ele>
        <time>2017-12-09T14:09:49Z</time>
      </trkpt>
      <trkpt lat="27.948728" lon="-15.543644">
        <ele>1666.10</ele>
        <time>2017-12-09T14:09:50Z</time>
      </trkpt>
      <trkpt lat="27.948750" lon="-15.543646">
        <ele>1666.20</ele>
        <time>2017-12-09T14:09:52Z</time>
      </trkpt>
      <trkpt lat="27.948770" lon="-15.543654">
        <ele>1666.73</ele>
        <time>2017-12-09T14:09:54Z</time>
      </trkpt>
      <trkpt lat="27.948788" lon="-15.543667">
        <ele>1667.24</ele>
        <time>2017-12-09T14:09:56Z</time>
      </trkpt>
      <trkpt lat="27.948797" lon="-15.543685">
        <ele>1667.92</ele>
        <time>2017-12-09T14:09:58Z</time>
      </trkpt>
      <trkpt lat="27.948809" lon="-15.543701">
        <ele>1667.88</ele>
        <time>2017-12-09T14:10:00Z</time>
      </trkpt>
      <trkpt lat="27.948825" lon="-15.543726">
        <ele>1668.17</ele>
        <time>2017-12-09T14:10:03Z</time>
      </trkpt>
      <trkpt lat="27.948838" lon="-15.543740">
        <ele>1668.10</ele>
        <time>2017-12-09T14:10:05Z</time>
      </trkpt>
      <trkpt lat="27.948857" lon="-15.543752">
        <ele>1668.36</ele>
        <time>2017-12-09T14:10:07Z</time>
      </trkpt>
      <trkpt lat="27.948880" lon="-15.543763">
        <ele>1668.93</ele>
        <time>2017-12-09T14:10:09Z</time>
      </trkpt>
      <trkpt lat="27.948900" lon="-15.543765">
        <ele>1669.20</ele>
        <time>2017-12-09T14:10:11Z</time>
      </trkpt>
      <trkpt lat="27.948924" lon="-15.543768">
        <ele>1669.34</ele>
        <time>2017-12-09T14:10:13Z</time>
      </trkpt>
      <trkpt lat="27.948953" lon="-15.543776">
        <ele>1669.68</ele>
        <time>2017-12-09T14:10:15Z</time>
      </trkpt>
      <trkpt lat="27.948972" lon="-15.543765">
        <ele>1669.80</ele>
        <time>2017-12-09T14:10:17Z</time>
      </trkpt>
      <trkpt lat="27.948994" lon="-15.543773">
        <ele>1670.10</ele>
        <time>2017-12-09T14:10:19Z</time>
      </trkpt>
      <trkpt lat="27.949015" lon="-15.543782">
        <ele>1671.10</ele>
        <time>2017-12-09T14:10:21Z</time>
      </trkpt>
      <trkpt lat="27.949037" lon="-15.543789">
        <ele>1671.27</ele>
        <time>2017-12-09T14:10:24Z</time>
      </trkpt>
      <trkpt lat="27.949053" lon="-15.543804">
        <ele>1671.62</ele>
        <time>2017-12-09T14:10:28Z</time>
      </trkpt>
      <trkpt lat="27.949073" lon="-15.543800">
        <ele>1672.00</ele>
        <time>2017-12-09T14:10:32Z</time>
      </trkpt>
      <trkpt lat="27.949092" lon="-15.543795">
        <ele>1672.90</ele>
        <time>2017-12-09T14:10:36Z</time>
      </trkpt>
      <trkpt lat="27.949111" lon="-15.543809">
        <ele>1673.03</ele>
        <time>2017-12-09T14:10:39Z</time>
      </trkpt>
      <trkpt lat="27.949133" lon="-15.543819">
        <ele>1672.64</ele>
        <time>2017-12-09T14:10:41Z</time>
      </trkpt>
      <trkpt lat="27.949156" lon="-15.543839">
        <ele>1672.70</ele>
        <time>2017-12-09T14:10:44Z</time>
      </trkpt>
      <trkpt lat="27.949180" lon="-15.543857">
        <ele>1673.16</ele>
        <time>2017-12-09T14:10:46Z</time>
      </trkpt>
      <trkpt lat="27.949216" lon="-15.543880">
        <ele>1673.40</ele>
        <time>2017-12-09T14:10:49Z</time>
      </trkpt>
      <trkpt lat="27.949249" lon="-15.543898">
        <ele>1673.40</ele>
        <time>2017-12-09T14:10:51Z</time>
      </trkpt>
      <trkpt lat="27.949275" lon="-15.543908">
        <ele>1673.55</ele>
        <time>2017-12-09T14:10:53Z</time>
      </trkpt>
      <trkpt lat="27.949300" lon="-15.543913">
        <ele>1673.90</ele>
        <time>2017-12-09T14:10:55Z</time>
      </trkpt>
      <trkpt lat="27.949319" lon="-15.543921">
        <ele>1674.53</ele>
        <time>2017-12-09T14:10:57Z</time>
      </trkpt>
      <trkpt lat="27.949348" lon="-15.543933">
        <ele>1674.75</ele>
        <time>2017-12-09T14:10:59Z</time>
      </trkpt>
      <trkpt lat="27.949372" lon="-15.543952">
        <ele>1674.90</ele>
        <time>2017-12-09T14:11:01Z</time>
      </trkpt>
      <trkpt lat="27.949389" lon="-15.543961">
        <ele>1675.08</ele>
        <time>2017-12-09T14:11:03Z</time>
      </trkpt>
      <trkpt lat="27.949425" lon="-15.543968">
        <ele>1675.08</ele>
        <time>2017-12-09T14:11:05Z</time>
      </trkpt>
      <trkpt lat="27.949449" lon="-15.543982">
        <ele>1675.18</ele>
        <time>2017-12-09T14:11:07Z</time>
      </trkpt>
      <trkpt lat="27.949469" lon="-15.543990">
        <ele>1675.30</ele>
        <time>2017-12-09T14:11:09Z</time>
      </trkpt>
      <trkpt lat="27.949488" lon="-15.543995">
        <ele>1675.56</ele>
        <time>2017-12-09T14:11:11Z</time>
      </trkpt>
      <trkpt lat="27.949513" lon="-15.544000">
        <ele>1675.60</ele>
        <time>2017-12-09T14:11:13Z</time>
      </trkpt>
      <trkpt lat="27.949536" lon="-15.544005">
        <ele>1675.78</ele>
        <time>2017-12-09T14:11:15Z</time>
      </trkpt>
      <trkpt lat="27.949561" lon="-15.544011">
        <ele>1675.88</ele>
        <time>2017-12-09T14:11:17Z</time>
      </trkpt>
      <trkpt lat="27.949583" lon="-15.544000">
        <ele>1675.88</ele>
        <time>2017-12-09T14:11:19Z</time>
      </trkpt>
      <trkpt lat="27.949608" lon="-15.543986">
        <ele>1676.12</ele>
        <time>2017-12-09T14:11:21Z</time>
      </trkpt>
      <trkpt lat="27.949642" lon="-15.543969">
        <ele>1676.60</ele>
        <time>2017-12-09T14:11:23Z</time>
      </trkpt>
      <trkpt lat="27.949671" lon="-15.543963">
        <ele>1676.50</ele>
        <time>2017-12-09T14:11:25Z</time>
      </trkpt>
      <trkpt lat="27.949697" lon="-15.543958">
        <ele>1676.20</ele>
        <time>2017-12-09T14:11:27Z</time>
      </trkpt>
      <trkpt lat="27.949725" lon="-15.543946">
        <ele>1676.20</ele>
        <time>2017-12-09T14:11:29Z</time>
      </trkpt>
      <trkpt lat="27.949757" lon="-15.543933">
        <ele>1676.36</ele>
        <time>2017-12-09T14:11:31Z</time>
      </trkpt>
      <trkpt lat="27.949780" lon="-15.543914">
        <ele>1676.40</ele>
        <time>2017-12-09T14:11:33Z</time>
      </trkpt>
      <trkpt lat="27.949803" lon="-15.543895">
        <ele>1676.50</ele>
        <time>2017-12-09T14:11:35Z</time>
      </trkpt>
      <trkpt lat="27.949824" lon="-15.543876">
        <ele>1676.59</ele>
        <time>2017-12-09T14:11:37Z</time>
      </trkpt>
      <trkpt lat="27.949842" lon="-15.543856">
        <ele>1676.86</ele>
        <time>2017-12-09T14:11:39Z</time>
      </trkpt>
      <trkpt lat="27.949860" lon="-15.543833">
        <ele>1677.34</ele>
        <time>2017-12-09T14:11:41Z</time>
      </trkpt>
      <trkpt lat="27.949881" lon="-15.543813">
        <ele>1677.40</ele>
        <time>2017-12-09T14:11:43Z</time>
      </trkpt>
      <trkpt lat="27.949896" lon="-15.543793">
        <ele>1677.60</ele>
        <time>2017-12-09T14:11:45Z</time>
      </trkpt>
      <trkpt lat="27.949912" lon="-15.543769">
        <ele>1677.98</ele>
        <time>2017-12-09T14:11:47Z</time>
      </trkpt>
      <trkpt lat="27.949932" lon="-15.543744">
        <ele>1678.00</ele>
        <time>2017-12-09T14:11:49Z</time>
      </trkpt>
      <trkpt lat="27.949954" lon="-15.543722">
        <ele>1678.10</ele>
        <time>2017-12-09T14:11:51Z</time>
      </trkpt>
      <trkpt lat="27.949973" lon="-15.543698">
        <ele>1678.20</ele>
        <time>2017-12-09T14:11:53Z</time>
      </trkpt>
      <trkpt lat="27.949993" lon="-15.543679">
        <ele>1678.30</ele>
        <time>2017-12-09T14:11:55Z</time>
      </trkpt>
      <trkpt lat="27.949952" lon="-15.543424">
        <ele>1673.10</ele>
        <time>2018-01-13T10:09:19Z</time>
      </trkpt>
      <trkpt lat="27.949942" lon="-15.543448">
        <ele>1672.70</ele>
        <time>2018-01-13T10:09:21Z</time>
      </trkpt>
      <trkpt lat="27.949921" lon="-15.543448">
        <ele>1672.00</ele>
        <time>2018-01-13T10:09:24Z</time>
      </trkpt>
      <trkpt lat="27.949911" lon="-15.543419">
        <ele>1671.30</ele>
        <time>2018-01-13T10:09:27Z</time>
      </trkpt>
      <trkpt lat="27.949911" lon="-15.543389">
        <ele>1671.00</ele>
        <time>2018-01-13T10:09:29Z</time>
      </trkpt>
      <trkpt lat="27.949908" lon="-15.543363">
        <ele>1670.71</ele>
        <time>2018-01-13T10:09:31Z</time>
      </trkpt>
      <trkpt lat="27.949909" lon="-15.543332">
        <ele>1670.21</ele>
        <time>2018-01-13T10:09:34Z</time>
      </trkpt>
      <trkpt lat="27.949915" lon="-15.543301">
        <ele>1670.20</ele>
        <time>2018-01-13T10:09:36Z</time>
      </trkpt>
      <trkpt lat="27.949919" lon="-15.543274">
        <ele>1669.22</ele>
        <time>2018-01-13T10:09:38Z</time>
      </trkpt>
      <trkpt lat="27.949923" lon="-15.543250">
        <ele>1668.91</ele>
        <time>2018-01-13T10:09:40Z</time>
      </trkpt>
      <trkpt lat="27.949924" lon="-15.543229">
        <ele>1668.04</ele>
        <time>2018-01-13T10:09:42Z</time>
      </trkpt>
      <trkpt lat="27.949929" lon="-15.543204">
        <ele>1667.90</ele>
        <time>2018-01-13T10:09:46Z</time>
      </trkpt>
      <trkpt lat="27.949931" lon="-15.543184">
        <ele>1667.62</ele>
        <time>2018-01-13T10:09:48Z</time>
      </trkpt>
      <trkpt lat="27.949936" lon="-15.543157">
        <ele>1667.30</ele>
        <time>2018-01-13T10:09:51Z</time>
      </trkpt>
      <trkpt lat="27.949929" lon="-15.543139">
        <ele>1666.43</ele>
        <time>2018-01-13T10:09:53Z</time>
      </trkpt>
      <trkpt lat="27.949918" lon="-15.543113">
        <ele>1665.82</ele>
        <time>2018-01-13T10:09:55Z</time>
      </trkpt>
      <trkpt lat="27.949910" lon="-15.543089">
        <ele>1665.50</ele>
        <time>2018-01-13T10:09:57Z</time>
      </trkpt>
      <trkpt lat="27.949903" lon="-15.543069">
        <ele>1665.32</ele>
        <time>2018-01-13T10:09:59Z</time>
      </trkpt>
      <trkpt lat="27.949894" lon="-15.543046">
        <ele>1665.05</ele>
        <time>2018-01-13T10:10:01Z</time>
      </trkpt>
      <trkpt lat="27.949890" lon="-15.543018">
        <ele>1664.15</ele>
        <time>2018-01-13T10:10:04Z</time>
      </trkpt>
      <trkpt lat="27.949883" lon="-15.542990">
        <ele>1663.13</ele>
        <time>2018-01-13T10:10:07Z</time>
      </trkpt>
      <trkpt lat="27.949870" lon="-15.542967">
        <ele>1662.50</ele>
        <time>2018-01-13T10:10:10Z</time>
      </trkpt>
      <trkpt lat="27.949870" lon="-15.542945">
        <ele>1661.98</ele>
        <time>2018-01-13T10:10:13Z</time>
      </trkpt>
      <trkpt lat="27.949856" lon="-15.542929">
        <ele>1660.78</ele>
        <time>2018-01-13T10:10:17Z</time>
      </trkpt>
      <trkpt lat="27.949843" lon="-15.542911">
        <ele>1660.60</ele>
        <time>2018-01-13T10:10:20Z</time>
      </trkpt>
      <trkpt lat="27.949832" lon="-15.542892">
        <ele>1660.42</ele>
        <time>2018-01-13T10:10:22Z</time>
      </trkpt>
      <trkpt lat="27.949823" lon="-15.542870">
        <ele>1659.75</ele>
        <time>2018-01-13T10:10:24Z</time>
      </trkpt>
      <trkpt lat="27.949814" lon="-15.542852">
        <ele>1659.52</ele>
        <time>2018-01-13T10:10:26Z</time>
      </trkpt>
      <trkpt lat="27.949804" lon="-15.542833">
        <ele>1659.22</ele>
        <time>2018-01-13T10:10:28Z</time>
      </trkpt>
      <trkpt lat="27.949789" lon="-15.542813">
        <ele>1658.87</ele>
        <time>2018-01-13T10:10:30Z</time>
      </trkpt>
      <trkpt lat="27.949774" lon="-15.542793">
        <ele>1658.30</ele>
        <time>2018-01-13T10:10:32Z</time>
      </trkpt>
      <trkpt lat="27.949764" lon="-15.542773">
        <ele>1657.95</ele>
        <time>2018-01-13T10:10:34Z</time>
      </trkpt>
      <trkpt lat="27.949757" lon="-15.542750">
        <ele>1657.27</ele>
        <time>2018-01-13T10:10:36Z</time>
      </trkpt>
      <trkpt lat="27.949747" lon="-15.542726">
        <ele>1656.62</ele>
        <time>2018-01-13T10:10:39Z</time>
      </trkpt>
      <trkpt lat="27.949738" lon="-15.542699">
        <ele>1656.12</ele>
        <time>2018-01-13T10:10:42Z</time>
      </trkpt>
      <trkpt lat="27.949720" lon="-15.542680">
        <ele>1655.74</ele>
        <time>2018-01-13T10:10:44Z</time>
      </trkpt>
      <trkpt lat="27.949705" lon="-15.542665">
        <ele>1655.32</ele>
        <time>2018-01-13T10:10:46Z</time>
      </trkpt>
      <trkpt lat="27.949693" lon="-15.542648">
        <ele>1655.30</ele>
        <time>2018-01-13T10:10:48Z</time>
      </trkpt>
      <trkpt lat="27.949682" lon="-15.542628">
        <ele>1655.20</ele>
        <time>2018-01-13T10:10:50Z</time>
      </trkpt>
      <trkpt lat="27.949675" lon="-15.542606">
        <ele>1654.20</ele>
        <time>2018-01-13T10:10:52Z</time>
      </trkpt>
      <trkpt lat="27.949665" lon="-15.542588">
        <ele>1653.05</ele>
        <time>2018-01-13T10:10:55Z</time>
      </trkpt>
      <trkpt lat="27.949654" lon="-15.542570">
        <ele>1652.90</ele>
        <time>2018-01-13T10:10:57Z</time>
      </trkpt>
      <trkpt lat="27.949641" lon="-15.542551">
        <ele>1652.90</ele>
        <time>2018-01-13T10:10:59Z</time>
      </trkpt>
      <trkpt lat="27.949626" lon="-15.542534">
        <ele>1653.00</ele>
        <time>2018-01-13T10:11:01Z</time>
      </trkpt>
      <trkpt lat="27.949608" lon="-15.542515">
        <ele>1653.12</ele>
        <time>2018-01-13T10:11:04Z</time>
      </trkpt>
      <trkpt lat="27.949594" lon="-15.542497">
        <ele>1653.10</ele>
        <time>2018-01-13T10:11:06Z</time>
      </trkpt>
      <trkpt lat="27.949584" lon="-15.542476">
        <ele>1652.80</ele>
        <time>2018-01-13T10:11:08Z</time>
      </trkpt>
      <trkpt lat="27.949573" lon="-15.542453">
        <ele>1651.15</ele>
        <time>2018-01-13T10:11:11Z</time>
      </trkpt>
      <trkpt lat="27.949559" lon="-15.542429">
        <ele>1650.33</ele>
        <time>2018-01-13T10:11:14Z</time>
      </trkpt>
      <trkpt lat="27.949546" lon="-15.542413">
        <ele>1650.10</ele>
        <time>2018-01-13T10:11:16Z</time>
      </trkpt>
      <trkpt lat="27.949531" lon="-15.542398">
        <ele>1650.10</ele>
        <time>2018-01-13T10:11:18Z</time>
      </trkpt>
      <trkpt lat="27.949517" lon="-15.542374">
        <ele>1650.03</ele>
        <time>2018-01-13T10:11:20Z</time>
      </trkpt>
      <trkpt lat="27.949510" lon="-15.542353">
        <ele>1649.72</ele>
        <time>2018-01-13T10:11:22Z</time>
      </trkpt>
      <trkpt lat="27.949501" lon="-15.542327">
        <ele>1648.67</ele>
        <time>2018-01-13T10:11:26Z</time>
      </trkpt>
      <trkpt lat="27.949496" lon="-15.542303">
        <ele>1648.32</ele>
        <time>2018-01-13T10:11:29Z</time>
      </trkpt>
      <trkpt lat="27.949486" lon="-15.542280">
        <ele>1647.40</ele>
        <time>2018-01-13T10:11:32Z</time>
      </trkpt>
      <trkpt lat="27.949483" lon="-15.542256">
        <ele>1647.30</ele>
        <time>2018-01-13T10:11:34Z</time>
      </trkpt>
      <trkpt lat="27.949477" lon="-15.542228">
        <ele>1647.30</ele>
        <time>2018-01-13T10:11:36Z</time>
      </trkpt>
      <trkpt lat="27.949470" lon="-15.542206">
        <ele>1646.66</ele>
        <time>2018-01-13T10:11:38Z</time>
      </trkpt>
      <trkpt lat="27.949465" lon="-15.542183">
        <ele>1646.40</ele>
        <time>2018-01-13T10:11:40Z</time>
      </trkpt>
      <trkpt lat="27.949459" lon="-15.542158">
        <ele>1646.19</ele>
        <time>2018-01-13T10:11:42Z</time>
      </trkpt>
      <trkpt lat="27.949450" lon="-15.542135">
        <ele>1645.49</ele>
        <time>2018-01-13T10:11:44Z</time>
      </trkpt>
      <trkpt lat="27.949443" lon="-15.542110">
        <ele>1645.03</ele>
        <time>2018-01-13T10:11:46Z</time>
      </trkpt>
      <trkpt lat="27.949432" lon="-15.542080">
        <ele>1644.53</ele>
        <time>2018-01-13T10:11:48Z</time>
      </trkpt>
      <trkpt lat="27.949426" lon="-15.542053">
        <ele>1643.93</ele>
        <time>2018-01-13T10:11:50Z</time>
      </trkpt>
      <trkpt lat="27.949419" lon="-15.542030">
        <ele>1643.80</ele>
        <time>2018-01-13T10:11:52Z</time>
      </trkpt>
      <trkpt lat="27.949412" lon="-15.542001">
        <ele>1643.20</ele>
        <time>2018-01-13T10:11:54Z</time>
      </trkpt>
      <trkpt lat="27.949411" lon="-15.541979">
        <ele>1642.60</ele>
        <time>2018-01-13T10:11:56Z</time>
      </trkpt>
      <trkpt lat="27.949402" lon="-15.541946">
        <ele>1642.40</ele>
        <time>2018-01-13T10:11:58Z</time>
      </trkpt>
      <trkpt lat="27.949395" lon="-15.541916">
        <ele>1641.44</ele>
        <time>2018-01-13T10:12:01Z</time>
      </trkpt>
      <trkpt lat="27.949391" lon="-15.541890">
        <ele>1640.93</ele>
        <time>2018-01-13T10:12:04Z</time>
      </trkpt>
      <trkpt lat="27.949386" lon="-15.541870">
        <ele>1640.77</ele>
        <time>2018-01-13T10:12:06Z</time>
      </trkpt>
      <trkpt lat="27.949386" lon="-15.541846">
        <ele>1640.30</ele>
        <time>2018-01-13T10:12:08Z</time>
      </trkpt>
      <trkpt lat="27.949378" lon="-15.541819">
        <ele>1639.84</ele>
        <time>2018-01-13T10:12:10Z</time>
      </trkpt>
      <trkpt lat="27.949373" lon="-15.541793">
        <ele>1639.37</ele>
        <time>2018-01-13T10:12:12Z</time>
      </trkpt>
      <trkpt lat="27.949371" lon="-15.541765">
        <ele>1638.84</ele>
        <time>2018-01-13T10:12:15Z</time>
      </trkpt>
      <trkpt lat="27.949367" lon="-15.541738">
        <ele>1638.37</ele>
        <time>2018-01-13T10:12:18Z</time>
      </trkpt>
      <trkpt lat="27.949355" lon="-15.541715">
        <ele>1638.20</ele>
        <time>2018-01-13T10:12:20Z</time>
      </trkpt>
      <trkpt lat="27.949351" lon="-15.541695">
        <ele>1637.57</ele>
        <time>2018-01-13T10:12:22Z</time>
      </trkpt>
      <trkpt lat="27.949345" lon="-15.541668">
        <ele>1637.07</ele>
        <time>2018-01-13T10:12:24Z</time>
      </trkpt>
      <trkpt lat="27.949339" lon="-15.541642">
        <ele>1636.97</ele>
        <time>2018-01-13T10:12:26Z</time>
      </trkpt>
      <trkpt lat="27.949334" lon="-15.541614">
        <ele>1636.83</ele>
        <time>2018-01-13T10:12:28Z</time>
      </trkpt>
      <trkpt lat="27.949335" lon="-15.541585">
        <ele>1636.70</ele>
        <time>2018-01-13T10:12:30Z</time>
      </trkpt>
      <trkpt lat="27.949339" lon="-15.541557">
        <ele>1636.56</ele>
        <time>2018-01-13T10:12:32Z</time>
      </trkpt>
      <trkpt lat="27.949350" lon="-15.541529">
        <ele>1636.24</ele>
        <time>2018-01-13T10:12:34Z</time>
      </trkpt>
      <trkpt lat="27.949358" lon="-15.541494">
        <ele>1636.14</ele>
        <time>2018-01-13T10:12:36Z</time>
      </trkpt>
      <trkpt lat="27.949361" lon="-15.541465">
        <ele>1635.66</ele>
        <time>2018-01-13T10:12:38Z</time>
      </trkpt>
      <trkpt lat="27.949368" lon="-15.541439">
        <ele>1635.40</ele>
        <time>2018-01-13T10:12:40Z</time>
      </trkpt>
      <trkpt lat="27.949382" lon="-15.541412">
        <ele>1635.30</ele>
        <time>2018-01-13T10:12:42Z</time>
      </trkpt>
      <trkpt lat="27.949392" lon="-15.541385">
        <ele>1634.76</ele>
        <time>2018-01-13T10:12:44Z</time>
      </trkpt>
      <trkpt lat="27.949403" lon="-15.541366">
        <ele>1634.01</ele>
        <time>2018-01-13T10:12:46Z</time>
      </trkpt>
      <trkpt lat="27.949419" lon="-15.541347">
        <ele>1633.18</ele>
        <time>2018-01-13T10:12:48Z</time>
      </trkpt>
      <trkpt lat="27.949433" lon="-15.541328">
        <ele>1632.34</ele>
        <time>2018-01-13T10:12:50Z</time>
      </trkpt>
      <trkpt lat="27.949447" lon="-15.541307">
        <ele>1631.65</ele>
        <time>2018-01-13T10:12:53Z</time>
      </trkpt>
      <trkpt lat="27.949457" lon="-15.541287">
        <ele>1631.05</ele>
        <time>2018-01-13T10:12:56Z</time>
      </trkpt>
      <trkpt lat="27.949443" lon="-15.541272">
        <ele>1630.01</ele>
        <time>2018-01-13T10:13:00Z</time>
      </trkpt>
      <trkpt lat="27.949417" lon="-15.541257">
        <ele>1629.63</ele>
        <time>2018-01-13T10:13:02Z</time>
      </trkpt>
      <trkpt lat="27.949396" lon="-15.541247">
        <ele>1628.80</ele>
        <time>2018-01-13T10:13:05Z</time>
      </trkpt>
      <trkpt lat="27.949369" lon="-15.541251">
        <ele>1628.36</ele>
        <time>2018-01-13T10:13:08Z</time>
      </trkpt>
      <trkpt lat="27.949339" lon="-15.541246">
        <ele>1628.00</ele>
        <time>2018-01-13T10:13:10Z</time>
      </trkpt>
      <trkpt lat="27.949314" lon="-15.541239">
        <ele>1627.70</ele>
        <time>2018-01-13T10:13:12Z</time>
      </trkpt>
      <trkpt lat="27.949288" lon="-15.541236">
        <ele>1627.46</ele>
        <time>2018-01-13T10:13:14Z</time>
      </trkpt>
      <trkpt lat="27.949263" lon="-15.541237">
        <ele>1626.73</ele>
        <time>2018-01-13T10:13:16Z</time>
      </trkpt>
      <trkpt lat="27.949239" lon="-15.541232">
        <ele>1626.30</ele>
        <time>2018-01-13T10:13:18Z</time>
      </trkpt>
      <trkpt lat="27.949218" lon="-15.541225">
        <ele>1626.20</ele>
        <time>2018-01-13T10:13:20Z</time>
      </trkpt>
      <trkpt lat="27.949194" lon="-15.541227">
        <ele>1626.00</ele>
        <time>2018-01-13T10:13:22Z</time>
      </trkpt>
      <trkpt lat="27.949172" lon="-15.541230">
        <ele>1625.74</ele>
        <time>2018-01-13T10:13:25Z</time>
      </trkpt>
      <trkpt lat="27.949152" lon="-15.541229">
        <ele>1625.30</ele>
        <time>2018-01-13T10:13:27Z</time>
      </trkpt>
      <trkpt lat="27.949133" lon="-15.541225">
        <ele>1625.23</ele>
        <time>2018-01-13T10:13:29Z</time>
      </trkpt>
      <trkpt lat="27.949113" lon="-15.541212">
        <ele>1625.20</ele>
        <time>2018-01-13T10:13:32Z</time>
      </trkpt>
      <trkpt lat="27.949084" lon="-15.541199">
        <ele>1624.59</ele>
        <time>2018-01-13T10:13:34Z</time>
      </trkpt>
      <trkpt lat="27.949064" lon="-15.541180">
        <ele>1623.57</ele>
        <time>2018-01-13T10:13:36Z</time>
      </trkpt>
      <trkpt lat="27.949030" lon="-15.541179">
        <ele>1623.43</ele>
        <time>2018-01-13T10:13:38Z</time>
      </trkpt>
      <trkpt lat="27.949010" lon="-15.541178">
        <ele>1623.50</ele>
        <time>2018-01-13T10:13:39Z</time>
      </trkpt>
      <trkpt lat="27.948984" lon="-15.541166">
        <ele>1623.43</ele>
        <time>2018-01-13T10:13:41Z</time>
      </trkpt>
      <trkpt lat="27.948968" lon="-15.541152">
        <ele>1623.50</ele>
        <time>2018-01-13T10:13:44Z</time>
      </trkpt>
      <trkpt lat="27.948953" lon="-15.541128">
        <ele>1623.24</ele>
        <time>2018-01-13T10:13:46Z</time>
      </trkpt>
      <trkpt lat="27.948928" lon="-15.541101">
        <ele>1622.87</ele>
        <time>2018-01-13T10:13:48Z</time>
      </trkpt>
      <trkpt lat="27.948876" lon="-15.541047">
        <ele>1622.83</ele>
        <time>2018-01-13T10:13:52Z</time>
      </trkpt>
      <trkpt lat="27.948855" lon="-15.541022">
        <ele>1622.80</ele>
        <time>2018-01-13T10:13:54Z</time>
      </trkpt>
      <trkpt lat="27.948836" lon="-15.541008">
        <ele>1622.80</ele>
        <time>2018-01-13T10:13:56Z</time>
      </trkpt>
      <trkpt lat="27.948817" lon="-15.540986">
        <ele>1622.90</ele>
        <time>2018-01-13T10:13:58Z</time>
      </trkpt>
      <trkpt lat="27.948804" lon="-15.540970">
        <ele>1622.93</ele>
        <time>2018-01-13T10:13:59Z</time>
      </trkpt>
      <trkpt lat="27.948793" lon="-15.540954">
        <ele>1623.00</ele>
        <time>2018-01-13T10:14:00Z</time>
      </trkpt>
      <trkpt lat="27.948776" lon="-15.540923">
        <ele>1623.35</ele>
        <time>2018-01-13T10:14:02Z</time>
      </trkpt>
      <trkpt lat="27.948763" lon="-15.540887">
        <ele>1623.76</ele>
        <time>2018-01-13T10:14:04Z</time>
      </trkpt>
      <trkpt lat="27.948738" lon="-15.540853">
        <ele>1623.90</ele>
        <time>2018-01-13T10:14:07Z</time>
      </trkpt>
      <trkpt lat="27.948727" lon="-15.540833">
        <ele>1623.99</ele>
        <time>2018-01-13T10:14:08Z</time>
      </trkpt>
      <trkpt lat="27.948709" lon="-15.540805">
        <ele>1624.30</ele>
        <time>2018-01-13T10:14:10Z</time>
      </trkpt>
      <trkpt lat="27.948704" lon="-15.540783">
        <ele>1624.96</ele>
        <time>2018-01-13T10:14:12Z</time>
      </trkpt>
      <trkpt lat="27.948696" lon="-15.540761">
        <ele>1625.20</ele>
        <time>2018-01-13T10:14:14Z</time>
      </trkpt>
      <trkpt lat="27.948680" lon="-15.540734">
        <ele>1625.20</ele>
        <time>2018-01-13T10:14:16Z</time>
      </trkpt>
      <trkpt lat="27.948672" lon="-15.540712">
        <ele>1624.30</ele>
        <time>2018-01-13T10:14:18Z</time>
      </trkpt>
      <trkpt lat="27.948656" lon="-15.540692">
        <ele>1624.30</ele>
        <time>2018-01-13T10:14:20Z</time>
      </trkpt>
      <trkpt lat="27.948643" lon="-15.540671">
        <ele>1624.43</ele>
        <time>2018-01-13T10:14:22Z</time>
      </trkpt>
      <trkpt lat="27.948624" lon="-15.540646">
        <ele>1624.50</ele>
        <time>2018-01-13T10:14:24Z</time>
      </trkpt>
      <trkpt lat="27.948605" lon="-15.540626">
        <ele>1624.54</ele>
        <time>2018-01-13T10:14:26Z</time>
      </trkpt>
      <trkpt lat="27.948585" lon="-15.540610">
        <ele>1624.50</ele>
        <time>2018-01-13T10:14:28Z</time>
      </trkpt>
      <trkpt lat="27.948569" lon="-15.540592">
        <ele>1624.50</ele>
        <time>2018-01-13T10:14:30Z</time>
      </trkpt>
      <trkpt lat="27.948552" lon="-15.540570">
        <ele>1624.60</ele>
        <time>2018-01-13T10:14:32Z</time>
      </trkpt>
      <trkpt lat="27.948534" lon="-15.540547">
        <ele>1624.47</ele>
        <time>2018-01-13T10:14:34Z</time>
      </trkpt>
      <trkpt lat="27.948515" lon="-15.540519">
        <ele>1624.40</ele>
        <time>2018-01-13T10:14:36Z</time>
      </trkpt>
      <trkpt lat="27.948501" lon="-15.540505">
        <ele>1624.37</ele>
        <time>2018-01-13T10:14:37Z</time>
      </trkpt>
      <trkpt lat="27.948477" lon="-15.540490">
        <ele>1624.18</ele>
        <time>2018-01-13T10:14:39Z</time>
      </trkpt>
      <trkpt lat="27.948454" lon="-15.540472">
        <ele>1623.69</ele>
        <time>2018-01-13T10:14:41Z</time>
      </trkpt>
      <trkpt lat="27.948437" lon="-15.540460">
        <ele>1623.40</ele>
        <time>2018-01-13T10:14:43Z</time>
      </trkpt>
      <trkpt lat="27.948414" lon="-15.540445">
        <ele>1623.37</ele>
        <time>2018-01-13T10:14:45Z</time>
      </trkpt>
      <trkpt lat="27.948388" lon="-15.540435">
        <ele>1623.30</ele>
        <time>2018-01-13T10:14:47Z</time>
      </trkpt>
      <trkpt lat="27.948363" lon="-15.540423">
        <ele>1622.20</ele>
        <time>2018-01-13T10:14:49Z</time>
      </trkpt>
      <trkpt lat="27.948346" lon="-15.540401">
        <ele>1622.14</ele>
        <time>2018-01-13T10:14:51Z</time>
      </trkpt>
      <trkpt lat="27.948327" lon="-15.540383">
        <ele>1621.78</ele>
        <time>2018-01-13T10:14:53Z</time>
      </trkpt>
      <trkpt lat="27.948305" lon="-15.540369">
        <ele>1621.24</ele>
        <time>2018-01-13T10:14:55Z</time>
      </trkpt>
      <trkpt lat="27.948283" lon="-15.540360">
        <ele>1620.86</ele>
        <time>2018-01-13T10:14:57Z</time>
      </trkpt>
      <trkpt lat="27.948266" lon="-15.540346">
        <ele>1620.30</ele>
        <time>2018-01-13T10:14:59Z</time>
      </trkpt>
      <trkpt lat="27.948253" lon="-15.540328">
        <ele>1619.94</ele>
        <time>2018-01-13T10:15:01Z</time>
      </trkpt>
      <trkpt lat="27.948245" lon="-15.540304">
        <ele>1619.74</ele>
        <time>2018-01-13T10:15:03Z</time>
      </trkpt>
      <trkpt lat="27.948232" lon="-15.540276">
        <ele>1619.60</ele>
        <time>2018-01-13T10:15:05Z</time>
      </trkpt>
      <trkpt lat="27.948222" lon="-15.540250">
        <ele>1619.40</ele>
        <time>2018-01-13T10:15:07Z</time>
      </trkpt>
      <trkpt lat="27.948214" lon="-15.540228">
        <ele>1619.17</ele>
        <time>2018-01-13T10:15:09Z</time>
      </trkpt>
      <trkpt lat="27.948206" lon="-15.540197">
        <ele>1619.01</ele>
        <time>2018-01-13T10:15:12Z</time>
      </trkpt>
      <trkpt lat="27.948206" lon="-15.540175">
        <ele>1618.50</ele>
        <time>2018-01-13T10:15:14Z</time>
      </trkpt>
      <trkpt lat="27.948201" lon="-15.540148">
        <ele>1617.97</ele>
        <time>2018-01-13T10:15:16Z</time>
      </trkpt>
      <trkpt lat="27.948198" lon="-15.540125">
        <ele>1617.40</ele>
        <time>2018-01-13T10:15:18Z</time>
      </trkpt>
      <trkpt lat="27.948194" lon="-15.540104">
        <ele>1617.30</ele>
        <time>2018-01-13T10:15:20Z</time>
      </trkpt>
      <trkpt lat="27.948199" lon="-15.540084">
        <ele>1617.24</ele>
        <time>2018-01-13T10:15:22Z</time>
      </trkpt>
      <trkpt lat="27.948199" lon="-15.540061">
        <ele>1616.90</ele>
        <time>2018-01-13T10:15:24Z</time>
      </trkpt>
      <trkpt lat="27.948196" lon="-15.540036">
        <ele>1616.74</ele>
        <time>2018-01-13T10:15:26Z</time>
      </trkpt>
      <trkpt lat="27.948191" lon="-15.540006">
        <ele>1616.50</ele>
        <time>2018-01-13T10:15:29Z</time>
      </trkpt>
      <trkpt lat="27.948185" lon="-15.539979">
        <ele>1616.04</ele>
        <time>2018-01-13T10:15:32Z</time>
      </trkpt>
      <trkpt lat="27.948175" lon="-15.539952">
        <ele>1615.87</ele>
        <time>2018-01-13T10:15:34Z</time>
      </trkpt>
      <trkpt lat="27.948167" lon="-15.539934">
        <ele>1615.69</ele>
        <time>2018-01-13T10:15:35Z</time>
      </trkpt>
      <trkpt lat="27.948155" lon="-15.539911">
        <ele>1615.22</ele>
        <time>2018-01-13T10:15:37Z</time>
      </trkpt>
      <trkpt lat="27.948141" lon="-15.539889">
        <ele>1614.57</ele>
        <time>2018-01-13T10:15:39Z</time>
      </trkpt>
      <trkpt lat="27.948121" lon="-15.539869">
        <ele>1614.29</ele>
        <time>2018-01-13T10:15:41Z</time>
      </trkpt>
      <trkpt lat="27.948109" lon="-15.539854">
        <ele>1613.60</ele>
        <time>2018-01-13T10:15:43Z</time>
      </trkpt>
      <trkpt lat="27.948092" lon="-15.539844">
        <ele>1613.10</ele>
        <time>2018-01-13T10:15:46Z</time>
      </trkpt>
      <trkpt lat="27.948076" lon="-15.539829">
        <ele>1612.87</ele>
        <time>2018-01-13T10:15:49Z</time>
      </trkpt>
      <trkpt lat="27.948057" lon="-15.539816">
        <ele>1612.69</ele>
        <time>2018-01-13T10:15:52Z</time>
      </trkpt>
      <trkpt lat="27.948042" lon="-15.539796">
        <ele>1611.90</ele>
        <time>2018-01-13T10:15:55Z</time>
      </trkpt>
      <trkpt lat="27.948028" lon="-15.539776">
        <ele>1611.62</ele>
        <time>2018-01-13T10:15:57Z</time>
      </trkpt>
      <trkpt lat="27.948005" lon="-15.539758">
        <ele>1611.11</ele>
        <time>2018-01-13T10:15:59Z</time>
      </trkpt>
      <trkpt lat="27.947980" lon="-15.539743">
        <ele>1610.90</ele>
        <time>2018-01-13T10:16:01Z</time>
      </trkpt>
      <trkpt lat="27.947957" lon="-15.539723">
        <ele>1610.30</ele>
        <time>2018-01-13T10:16:04Z</time>
      </trkpt>
      <trkpt lat="27.947932" lon="-15.539715">
        <ele>1609.91</ele>
        <time>2018-01-13T10:16:07Z</time>
      </trkpt>
      <trkpt lat="27.947909" lon="-15.539712">
        <ele>1609.47</ele>
        <time>2018-01-13T10:16:10Z</time>
      </trkpt>
      <trkpt lat="27.947882" lon="-15.539709">
        <ele>1609.10</ele>
        <time>2018-01-13T10:16:13Z</time>
      </trkpt>
      <trkpt lat="27.947860" lon="-15.539712">
        <ele>1608.97</ele>
        <time>2018-01-13T10:16:15Z</time>
      </trkpt>
      <trkpt lat="27.947834" lon="-15.539718">
        <ele>1607.94</ele>
        <time>2018-01-13T10:16:17Z</time>
      </trkpt>
      <trkpt lat="27.947808" lon="-15.539724">
        <ele>1607.48</ele>
        <time>2018-01-13T10:16:19Z</time>
      </trkpt>
      <trkpt lat="27.947786" lon="-15.539730">
        <ele>1607.24</ele>
        <time>2018-01-13T10:16:21Z</time>
      </trkpt>
      <trkpt lat="27.947759" lon="-15.539741">
        <ele>1606.50</ele>
        <time>2018-01-13T10:16:23Z</time>
      </trkpt>
      <trkpt lat="27.947736" lon="-15.539756">
        <ele>1606.20</ele>
        <time>2018-01-13T10:16:25Z</time>
      </trkpt>
      <trkpt lat="27.947711" lon="-15.539770">
        <ele>1606.00</ele>
        <time>2018-01-13T10:16:27Z</time>
      </trkpt>
      <trkpt lat="27.947694" lon="-15.539779">
        <ele>1605.57</ele>
        <time>2018-01-13T10:16:29Z</time>
      </trkpt>
      <trkpt lat="27.947675" lon="-15.539790">
        <ele>1605.20</ele>
        <time>2018-01-13T10:16:31Z</time>
      </trkpt>
      <trkpt lat="27.947658" lon="-15.539804">
        <ele>1604.70</ele>
        <time>2018-01-13T10:16:33Z</time>
      </trkpt>
      <trkpt lat="27.947637" lon="-15.539824">
        <ele>1604.47</ele>
        <time>2018-01-13T10:16:35Z</time>
      </trkpt>
      <trkpt lat="27.947614" lon="-15.539843">
        <ele>1603.87</ele>
        <time>2018-01-13T10:16:37Z</time>
      </trkpt>
      <trkpt lat="27.947604" lon="-15.539866">
        <ele>1603.71</ele>
        <time>2018-01-13T10:16:39Z</time>
      </trkpt>
      <trkpt lat="27.947590" lon="-15.539893">
        <ele>1603.34</ele>
        <time>2018-01-13T10:16:41Z</time>
      </trkpt>
      <trkpt lat="27.947573" lon="-15.539923">
        <ele>1602.63</ele>
        <time>2018-01-13T10:16:43Z</time>
      </trkpt>
      <trkpt lat="27.947565" lon="-15.539946">
        <ele>1602.09</ele>
        <time>2018-01-13T10:16:45Z</time>
      </trkpt>
      <trkpt lat="27.947553" lon="-15.539967">
        <ele>1601.66</ele>
        <time>2018-01-13T10:16:47Z</time>
      </trkpt>
      <trkpt lat="27.947529" lon="-15.539995">
        <ele>1600.77</ele>
        <time>2018-01-13T10:16:49Z</time>
      </trkpt>
      <trkpt lat="27.947507" lon="-15.540023">
        <ele>1600.46</ele>
        <time>2018-01-13T10:16:51Z</time>
      </trkpt>
      <trkpt lat="27.947485" lon="-15.540046">
        <ele>1599.91</ele>
        <time>2018-01-13T10:16:53Z</time>
      </trkpt>
      <trkpt lat="27.947460" lon="-15.540066">
        <ele>1599.07</ele>
        <time>2018-01-13T10:16:56Z</time>
      </trkpt>
      <trkpt lat="27.947438" lon="-15.540059">
        <ele>1598.67</ele>
        <time>2018-01-13T10:16:58Z</time>
      </trkpt>
      <trkpt lat="27.947419" lon="-15.540046">
        <ele>1598.46</ele>
        <time>2018-01-13T10:17:00Z</time>
      </trkpt>
      <trkpt lat="27.947391" lon="-15.540035">
        <ele>1597.90</ele>
        <time>2018-01-13T10:17:02Z</time>
      </trkpt>
      <trkpt lat="27.947363" lon="-15.540018">
        <ele>1597.82</ele>
        <time>2018-01-13T10:17:04Z</time>
      </trkpt>
      <trkpt lat="27.947338" lon="-15.540000">
        <ele>1597.20</ele>
        <time>2018-01-13T10:17:06Z</time>
      </trkpt>
      <trkpt lat="27.947310" lon="-15.539985">
        <ele>1597.10</ele>
        <time>2018-01-13T10:17:09Z</time>
      </trkpt>
      <trkpt lat="27.947289" lon="-15.539975">
        <ele>1597.10</ele>
        <time>2018-01-13T10:17:11Z</time>
      </trkpt>
      <trkpt lat="27.947261" lon="-15.539955">
        <ele>1597.00</ele>
        <time>2018-01-13T10:17:13Z</time>
      </trkpt>
      <trkpt lat="27.947240" lon="-15.539937">
        <ele>1596.50</ele>
        <time>2018-01-13T10:17:15Z</time>
      </trkpt>
      <trkpt lat="27.947221" lon="-15.539916">
        <ele>1596.37</ele>
        <time>2018-01-13T10:17:17Z</time>
      </trkpt>
      <trkpt lat="27.947157" lon="-15.539885">
        <ele>1596.20</ele>
        <time>2018-01-13T10:17:22Z</time>
      </trkpt>
      <trkpt lat="27.947138" lon="-15.539867">
        <ele>1595.54</ele>
        <time>2018-01-13T10:17:24Z</time>
      </trkpt>
      <trkpt lat="27.947120" lon="-15.539847">
        <ele>1595.29</ele>
        <time>2018-01-13T10:17:26Z</time>
      </trkpt>
      <trkpt lat="27.947102" lon="-15.539819">
        <ele>1594.80</ele>
        <time>2018-01-13T10:17:28Z</time>
      </trkpt>
      <trkpt lat="27.947081" lon="-15.539800">
        <ele>1594.61</ele>
        <time>2018-01-13T10:17:30Z</time>
      </trkpt>
      <trkpt lat="27.947057" lon="-15.539779">
        <ele>1594.37</ele>
        <time>2018-01-13T10:17:32Z</time>
      </trkpt>
      <trkpt lat="27.947034" lon="-15.539764">
        <ele>1594.20</ele>
        <time>2018-01-13T10:17:34Z</time>
      </trkpt>
      <trkpt lat="27.947009" lon="-15.539737">
        <ele>1594.30</ele>
        <time>2018-01-13T10:17:36Z</time>
      </trkpt>
      <trkpt lat="27.946986" lon="-15.539713">
        <ele>1594.50</ele>
        <time>2018-01-13T10:17:38Z</time>
      </trkpt>
      <trkpt lat="27.946964" lon="-15.539687">
        <ele>1594.53</ele>
        <time>2018-01-13T10:17:40Z</time>
      </trkpt>
      <trkpt lat="27.946947" lon="-15.539671">
        <ele>1594.50</ele>
        <time>2018-01-13T10:17:42Z</time>
      </trkpt>
      <trkpt lat="27.946928" lon="-15.539654">
        <ele>1594.01</ele>
        <time>2018-01-13T10:17:44Z</time>
      </trkpt>
      <trkpt lat="27.946909" lon="-15.539632">
        <ele>1593.67</ele>
        <time>2018-01-13T10:17:46Z</time>
      </trkpt>
      <trkpt lat="27.946894" lon="-15.539609">
        <ele>1593.29</ele>
        <time>2018-01-13T10:17:48Z</time>
      </trkpt>
      <trkpt lat="27.946877" lon="-15.539589">
        <ele>1592.84</ele>
        <time>2018-01-13T10:17:50Z</time>
      </trkpt>
      <trkpt lat="27.946857" lon="-15.539562">
        <ele>1592.20</ele>
        <time>2018-01-13T10:17:52Z</time>
      </trkpt>
      <trkpt lat="27.946838" lon="-15.539528">
        <ele>1592.20</ele>
        <time>2018-01-13T10:17:54Z</time>
      </trkpt>
      <trkpt lat="27.946822" lon="-15.539500">
        <ele>1592.20</ele>
        <time>2018-01-13T10:17:56Z</time>
      </trkpt>
      <trkpt lat="27.946808" lon="-15.539474">
        <ele>1592.23</ele>
        <time>2018-01-13T10:17:58Z</time>
      </trkpt>
      <trkpt lat="27.946787" lon="-15.539453">
        <ele>1592.30</ele>
        <time>2018-01-13T10:18:00Z</time>
      </trkpt>
      <trkpt lat="27.946769" lon="-15.539438">
        <ele>1592.18</ele>
        <time>2018-01-13T10:18:02Z</time>
      </trkpt>
      <trkpt lat="27.946756" lon="-15.539417">
        <ele>1592.40</ele>
        <time>2018-01-13T10:18:04Z</time>
      </trkpt>
      <trkpt lat="27.946735" lon="-15.539400">
        <ele>1592.40</ele>
        <time>2018-01-13T10:18:06Z</time>
      </trkpt>
      <trkpt lat="27.946718" lon="-15.539377">
        <ele>1592.82</ele>
        <time>2018-01-13T10:18:08Z</time>
      </trkpt>
      <trkpt lat="27.946701" lon="-15.539344">
        <ele>1592.78</ele>
        <time>2018-01-13T10:18:10Z</time>
      </trkpt>
      <trkpt lat="27.946691" lon="-15.539326">
        <ele>1592.68</ele>
        <time>2018-01-13T10:18:11Z</time>
      </trkpt>
      <trkpt lat="27.946677" lon="-15.539297">
        <ele>1592.40</ele>
        <time>2018-01-13T10:18:13Z</time>
      </trkpt>
      <trkpt lat="27.946661" lon="-15.539269">
        <ele>1591.28</ele>
        <time>2018-01-13T10:18:15Z</time>
      </trkpt>
      <trkpt lat="27.946651" lon="-15.539247">
        <ele>1590.98</ele>
        <time>2018-01-13T10:18:17Z</time>
      </trkpt>
      <trkpt lat="27.946642" lon="-15.539228">
        <ele>1590.55</ele>
        <time>2018-01-13T10:18:19Z</time>
      </trkpt>
      <trkpt lat="27.946633" lon="-15.539199">
        <ele>1590.40</ele>
        <time>2018-01-13T10:18:21Z</time>
      </trkpt>
      <trkpt lat="27.946625" lon="-15.539174">
        <ele>1590.30</ele>
        <time>2018-01-13T10:18:23Z</time>
      </trkpt>
      <trkpt lat="27.946619" lon="-15.539151">
        <ele>1590.30</ele>
        <time>2018-01-13T10:18:25Z</time>
      </trkpt>
      <trkpt lat="27.946610" lon="-15.539126">
        <ele>1590.30</ele>
        <time>2018-01-13T10:18:27Z</time>
      </trkpt>
      <trkpt lat="27.946604" lon="-15.539104">
        <ele>1590.10</ele>
        <time>2018-01-13T10:18:29Z</time>
      </trkpt>
      <trkpt lat="27.946594" lon="-15.539080">
        <ele>1589.96</ele>
        <time>2018-01-13T10:18:31Z</time>
      </trkpt>
      <trkpt lat="27.946586" lon="-15.539055">
        <ele>1589.34</ele>
        <time>2018-01-13T10:18:33Z</time>
      </trkpt>
      <trkpt lat="27.946579" lon="-15.539025">
        <ele>1588.50</ele>
        <time>2018-01-13T10:18:35Z</time>
      </trkpt>
      <trkpt lat="27.946572" lon="-15.538997">
        <ele>1588.00</ele>
        <time>2018-01-13T10:18:37Z</time>
      </trkpt>
      <trkpt lat="27.946559" lon="-15.538967">
        <ele>1587.96</ele>
        <time>2018-01-13T10:18:39Z</time>
      </trkpt>
      <trkpt lat="27.946548" lon="-15.538939">
        <ele>1587.56</ele>
        <time>2018-01-13T10:18:41Z</time>
      </trkpt>
      <trkpt lat="27.946536" lon="-15.538911">
        <ele>1587.16</ele>
        <time>2018-01-13T10:18:43Z</time>
      </trkpt>
      <trkpt lat="27.946529" lon="-15.538878">
        <ele>1586.89</ele>
        <time>2018-01-13T10:18:45Z</time>
      </trkpt>
      <trkpt lat="27.946528" lon="-15.538846">
        <ele>1586.80</ele>
        <time>2018-01-13T10:18:47Z</time>
      </trkpt>
      <trkpt lat="27.946528" lon="-15.538812">
        <ele>1586.10</ele>
        <time>2018-01-13T10:18:49Z</time>
      </trkpt>
      <trkpt lat="27.946527" lon="-15.538781">
        <ele>1586.02</ele>
        <time>2018-01-13T10:18:51Z</time>
      </trkpt>
      <trkpt lat="27.946524" lon="-15.538749">
        <ele>1585.58</ele>
        <time>2018-01-13T10:18:53Z</time>
      </trkpt>
      <trkpt lat="27.946533" lon="-15.538719">
        <ele>1585.37</ele>
        <time>2018-01-13T10:18:55Z</time>
      </trkpt>
      <trkpt lat="27.946547" lon="-15.538690">
        <ele>1585.20</ele>
        <time>2018-01-13T10:18:57Z</time>
      </trkpt>
      <trkpt lat="27.946562" lon="-15.538663">
        <ele>1585.10</ele>
        <time>2018-01-13T10:18:59Z</time>
      </trkpt>
      <trkpt lat="27.946570" lon="-15.538643">
        <ele>1585.10</ele>
        <time>2018-01-13T10:19:00Z</time>
      </trkpt>
      <trkpt lat="27.946581" lon="-15.538614">
        <ele>1584.68</ele>
        <time>2018-01-13T10:19:02Z</time>
      </trkpt>
      <trkpt lat="27.946592" lon="-15.538589">
        <ele>1584.18</ele>
        <time>2018-01-13T10:19:04Z</time>
      </trkpt>
      <trkpt lat="27.946600" lon="-15.538565">
        <ele>1583.92</ele>
        <time>2018-01-13T10:19:06Z</time>
      </trkpt>
      <trkpt lat="27.946606" lon="-15.538540">
        <ele>1583.50</ele>
        <time>2018-01-13T10:19:08Z</time>
      </trkpt>
      <trkpt lat="27.946599" lon="-15.538510">
        <ele>1582.98</ele>
        <time>2018-01-13T10:19:10Z</time>
      </trkpt>
      <trkpt lat="27.946596" lon="-15.538482">
        <ele>1582.74</ele>
        <time>2018-01-13T10:19:12Z</time>
      </trkpt>
      <trkpt lat="27.946590" lon="-15.538452">
        <ele>1582.48</ele>
        <time>2018-01-13T10:19:14Z</time>
      </trkpt>
      <trkpt lat="27.946589" lon="-15.538431">
        <ele>1581.96</ele>
        <time>2018-01-13T10:19:16Z</time>
      </trkpt>
      <trkpt lat="27.946586" lon="-15.538397">
        <ele>1581.51</ele>
        <time>2018-01-13T10:19:18Z</time>
      </trkpt>
      <trkpt lat="27.946584" lon="-15.538364">
        <ele>1580.70</ele>
        <time>2018-01-13T10:19:20Z</time>
      </trkpt>
      <trkpt lat="27.946580" lon="-15.538340">
        <ele>1580.65</ele>
        <time>2018-01-13T10:19:22Z</time>
      </trkpt>
      <trkpt lat="27.946574" lon="-15.538317">
        <ele>1580.28</ele>
        <time>2018-01-13T10:19:24Z</time>
      </trkpt>
      <trkpt lat="27.946569" lon="-15.538290">
        <ele>1579.60</ele>
        <time>2018-01-13T10:19:26Z</time>
      </trkpt>
      <trkpt lat="27.946565" lon="-15.538262">
        <ele>1579.48</ele>
        <time>2018-01-13T10:19:28Z</time>
      </trkpt>
      <trkpt lat="27.946561" lon="-15.538237">
        <ele>1579.08</ele>
        <time>2018-01-13T10:19:30Z</time>
      </trkpt>
      <trkpt lat="27.946553" lon="-15.538206">
        <ele>1578.50</ele>
        <time>2018-01-13T10:19:33Z</time>
      </trkpt>
      <trkpt lat="27.946552" lon="-15.538176">
        <ele>1577.65</ele>
        <time>2018-01-13T10:19:36Z</time>
      </trkpt>
      <trkpt lat="27.946550" lon="-15.538153">
        <ele>1577.34</ele>
        <time>2018-01-13T10:19:38Z</time>
      </trkpt>
      <trkpt lat="27.946548" lon="-15.538126">
        <ele>1576.55</ele>
        <time>2018-01-13T10:19:40Z</time>
      </trkpt>
      <trkpt lat="27.946546" lon="-15.538105">
        <ele>1576.27</ele>
        <time>2018-01-13T10:19:42Z</time>
      </trkpt>
      <trkpt lat="27.946545" lon="-15.538083">
        <ele>1575.85</ele>
        <time>2018-01-13T10:19:44Z</time>
      </trkpt>
      <trkpt lat="27.946543" lon="-15.538057">
        <ele>1575.62</ele>
        <time>2018-01-13T10:19:46Z</time>
      </trkpt>
      <trkpt lat="27.946541" lon="-15.538034">
        <ele>1575.22</ele>
        <time>2018-01-13T10:19:48Z</time>
      </trkpt>
      <trkpt lat="27.946541" lon="-15.538013">
        <ele>1574.82</ele>
        <time>2018-01-13T10:19:50Z</time>
      </trkpt>
      <trkpt lat="27.946540" lon="-15.537991">
        <ele>1574.36</ele>
        <time>2018-01-13T10:19:52Z</time>
      </trkpt>
      <trkpt lat="27.946531" lon="-15.537970">
        <ele>1574.00</ele>
        <time>2018-01-13T10:19:54Z</time>
      </trkpt>
      <trkpt lat="27.946519" lon="-15.537944">
        <ele>1573.53</ele>
        <time>2018-01-13T10:19:57Z</time>
      </trkpt>
      <trkpt lat="27.946511" lon="-15.537920">
        <ele>1573.31</ele>
        <time>2018-01-13T10:19:59Z</time>
      </trkpt>
      <trkpt lat="27.946506" lon="-15.537891">
        <ele>1572.70</ele>
        <time>2018-01-13T10:20:01Z</time>
      </trkpt>
      <trkpt lat="27.946498" lon="-15.537866">
        <ele>1572.30</ele>
        <time>2018-01-13T10:20:03Z</time>
      </trkpt>
      <trkpt lat="27.946483" lon="-15.537848">
        <ele>1572.17</ele>
        <time>2018-01-13T10:20:05Z</time>
      </trkpt>
      <trkpt lat="27.946465" lon="-15.537839">
        <ele>1571.87</ele>
        <time>2018-01-13T10:20:07Z</time>
      </trkpt>
      <trkpt lat="27.946440" lon="-15.537832">
        <ele>1571.60</ele>
        <time>2018-01-13T10:20:09Z</time>
      </trkpt>
      <trkpt lat="27.946423" lon="-15.537821">
        <ele>1571.03</ele>
        <time>2018-01-13T10:20:11Z</time>
      </trkpt>
      <trkpt lat="27.946407" lon="-15.537797">
        <ele>1569.90</ele>
        <time>2018-01-13T10:20:13Z</time>
      </trkpt>
      <trkpt lat="27.946396" lon="-15.537780">
        <ele>1569.57</ele>
        <time>2018-01-13T10:20:15Z</time>
      </trkpt>
      <trkpt lat="27.946366" lon="-15.537760">
        <ele>1569.20</ele>
        <time>2018-01-13T10:20:17Z</time>
      </trkpt>
      <trkpt lat="27.946348" lon="-15.537732">
        <ele>1568.77</ele>
        <time>2018-01-13T10:20:19Z</time>
      </trkpt>
      <trkpt lat="27.946336" lon="-15.537713">
        <ele>1568.53</ele>
        <time>2018-01-13T10:20:20Z</time>
      </trkpt>
      <trkpt lat="27.946324" lon="-15.537696">
        <ele>1568.13</ele>
        <time>2018-01-13T10:20:21Z</time>
      </trkpt>
      <trkpt lat="27.946307" lon="-15.537666">
        <ele>1567.73</ele>
        <time>2018-01-13T10:20:23Z</time>
      </trkpt>
      <trkpt lat="27.946303" lon="-15.537639">
        <ele>1567.36</ele>
        <time>2018-01-13T10:20:25Z</time>
      </trkpt>
      <trkpt lat="27.946300" lon="-15.537607">
        <ele>1566.49</ele>
        <time>2018-01-13T10:20:27Z</time>
      </trkpt>
      <trkpt lat="27.946293" lon="-15.537579">
        <ele>1566.30</ele>
        <time>2018-01-13T10:20:29Z</time>
      </trkpt>
      <trkpt lat="27.946291" lon="-15.537556">
        <ele>1566.00</ele>
        <time>2018-01-13T10:20:31Z</time>
      </trkpt>
      <trkpt lat="27.946286" lon="-15.537533">
        <ele>1565.80</ele>
        <time>2018-01-13T10:20:33Z</time>
      </trkpt>
      <trkpt lat="27.946288" lon="-15.537504">
        <ele>1565.59</ele>
        <time>2018-01-13T10:20:35Z</time>
      </trkpt>
      <trkpt lat="27.946287" lon="-15.537477">
        <ele>1565.16</ele>
        <time>2018-01-13T10:20:37Z</time>
      </trkpt>
      <trkpt lat="27.946294" lon="-15.537456">
        <ele>1564.53</ele>
        <time>2018-01-13T10:20:39Z</time>
      </trkpt>
      <trkpt lat="27.946297" lon="-15.537432">
        <ele>1564.36</ele>
        <time>2018-01-13T10:20:41Z</time>
      </trkpt>
      <trkpt lat="27.946303" lon="-15.537405">
        <ele>1564.20</ele>
        <time>2018-01-13T10:20:43Z</time>
      </trkpt>
      <trkpt lat="27.946309" lon="-15.537384">
        <ele>1563.86</ele>
        <time>2018-01-13T10:20:45Z</time>
      </trkpt>
      <trkpt lat="27.946316" lon="-15.537357">
        <ele>1563.70</ele>
        <time>2018-01-13T10:20:48Z</time>
      </trkpt>
      <trkpt lat="27.946320" lon="-15.537332">
        <ele>1563.20</ele>
        <time>2018-01-13T10:20:50Z</time>
      </trkpt>
      <trkpt lat="27.946327" lon="-15.537303">
        <ele>1562.80</ele>
        <time>2018-01-13T10:20:52Z</time>
      </trkpt>
      <trkpt lat="27.946334" lon="-15.537279">
        <ele>1562.58</ele>
        <time>2018-01-13T10:20:54Z</time>
      </trkpt>
      <trkpt lat="27.946341" lon="-15.537255">
        <ele>1562.10</ele>
        <time>2018-01-13T10:20:56Z</time>
      </trkpt>
      <trkpt lat="27.946349" lon="-15.537235">
        <ele>1562.10</ele>
        <time>2018-01-13T10:20:58Z</time>
      </trkpt>
      <trkpt lat="27.946358" lon="-15.537207">
        <ele>1561.26</ele>
        <time>2018-01-13T10:21:01Z</time>
      </trkpt>
      <trkpt lat="27.946362" lon="-15.537186">
        <ele>1561.16</ele>
        <time>2018-01-13T10:21:03Z</time>
      </trkpt>
      <trkpt lat="27.946369" lon="-15.537162">
        <ele>1561.10</ele>
        <time>2018-01-13T10:21:06Z</time>
      </trkpt>
      <trkpt lat="27.946371" lon="-15.537137">
        <ele>1559.50</ele>
        <time>2018-01-13T10:21:08Z</time>
      </trkpt>
      <trkpt lat="27.946367" lon="-15.537111">
        <ele>1559.46</ele>
        <time>2018-01-13T10:21:10Z</time>
      </trkpt>
      <trkpt lat="27.946366" lon="-15.537088">
        <ele>1559.80</ele>
        <time>2018-01-13T10:21:12Z</time>
      </trkpt>
      <trkpt lat="27.946363" lon="-15.537066">
        <ele>1559.70</ele>
        <time>2018-01-13T10:21:14Z</time>
      </trkpt>
      <trkpt lat="27.946362" lon="-15.537045">
        <ele>1559.04</ele>
        <time>2018-01-13T10:21:16Z</time>
      </trkpt>
      <trkpt lat="27.946357" lon="-15.537020">
        <ele>1558.56</ele>
        <time>2018-01-13T10:21:18Z</time>
      </trkpt>
      <trkpt lat="27.946348" lon="-15.536992">
        <ele>1558.46</ele>
        <time>2018-01-13T10:21:20Z</time>
      </trkpt>
      <trkpt lat="27.946340" lon="-15.536972">
        <ele>1558.36</ele>
        <time>2018-01-13T10:21:22Z</time>
      </trkpt>
      <trkpt lat="27.946334" lon="-15.536950">
        <ele>1557.76</ele>
        <time>2018-01-13T10:21:24Z</time>
      </trkpt>
      <trkpt lat="27.946327" lon="-15.536923">
        <ele>1557.60</ele>
        <time>2018-01-13T10:21:26Z</time>
      </trkpt>
      <trkpt lat="27.946319" lon="-15.536894">
        <ele>1557.60</ele>
        <time>2018-01-13T10:21:28Z</time>
      </trkpt>
      <trkpt lat="27.946310" lon="-15.536862">
        <ele>1557.80</ele>
        <time>2018-01-13T10:21:30Z</time>
      </trkpt>
      <trkpt lat="27.946291" lon="-15.536842">
        <ele>1558.60</ele>
        <time>2018-01-13T10:21:32Z</time>
      </trkpt>
      <trkpt lat="27.946277" lon="-15.536817">
        <ele>1558.60</ele>
        <time>2018-01-13T10:21:34Z</time>
      </trkpt>
      <trkpt lat="27.946264" lon="-15.536792">
        <ele>1557.80</ele>
        <time>2018-01-13T10:21:36Z</time>
      </trkpt>
      <trkpt lat="27.946244" lon="-15.536765">
        <ele>1558.40</ele>
        <time>2018-01-13T10:21:38Z</time>
      </trkpt>
      <trkpt lat="27.946221" lon="-15.536748">
        <ele>1558.60</ele>
        <time>2018-01-13T10:21:40Z</time>
      </trkpt>
      <trkpt lat="27.946160" lon="-15.536705">
        <ele>1559.31</ele>
        <time>2018-01-13T10:21:44Z</time>
      </trkpt>
      <trkpt lat="27.946145" lon="-15.536689">
        <ele>1560.10</ele>
        <time>2018-01-13T10:21:45Z</time>
      </trkpt>
      <trkpt lat="27.946095" lon="-15.536615">
        <ele>1560.10</ele>
        <time>2018-01-13T10:21:48Z</time>
      </trkpt>
      <trkpt lat="27.946029" lon="-15.536536">
        <ele>1561.00</ele>
        <time>2018-01-13T10:21:52Z</time>
      </trkpt>
      <trkpt lat="27.946017" lon="-15.536517">
        <ele>1561.05</ele>
        <time>2018-01-13T10:21:53Z</time>
      </trkpt>
      <trkpt lat="27.946002" lon="-15.536502">
        <ele>1561.10</ele>
        <time>2018-01-13T10:21:54Z</time>
      </trkpt>
      <trkpt lat="27.945985" lon="-15.536491">
        <ele>1560.95</ele>
        <time>2018-01-13T10:21:55Z</time>
      </trkpt>
      <trkpt lat="27.945952" lon="-15.536468">
        <ele>1560.80</ele>
        <time>2018-01-13T10:21:57Z</time>
      </trkpt>
      <trkpt lat="27.945929" lon="-15.536462">
        <ele>1560.80</ele>
        <time>2018-01-13T10:21:58Z</time>
      </trkpt>
      <trkpt lat="27.945912" lon="-15.536453">
        <ele>1560.80</ele>
        <time>2018-01-13T10:21:59Z</time>
      </trkpt>
      <trkpt lat="27.945891" lon="-15.536448">
        <ele>1560.80</ele>
        <time>2018-01-13T10:22:00Z</time>
      </trkpt>
      <trkpt lat="27.945871" lon="-15.536445">
        <ele>1561.01</ele>
        <time>2018-01-13T10:22:01Z</time>
      </trkpt>
      <trkpt lat="27.945850" lon="-15.536438">
        <ele>1561.51</ele>
        <time>2018-01-13T10:22:02Z</time>
      </trkpt>
      <trkpt lat="27.945829" lon="-15.536430">
        <ele>1561.85</ele>
        <time>2018-01-13T10:22:03Z</time>
      </trkpt>
      <trkpt lat="27.945809" lon="-15.536426">
        <ele>1561.90</ele>
        <time>2018-01-13T10:22:04Z</time>
      </trkpt>
      <trkpt lat="27.945790" lon="-15.536415">
        <ele>1561.90</ele>
        <time>2018-01-13T10:22:05Z</time>
      </trkpt>
      <trkpt lat="27.945771" lon="-15.536401">
        <ele>1561.90</ele>
        <time>2018-01-13T10:22:06Z</time>
      </trkpt>
      <trkpt lat="27.945752" lon="-15.536386">
        <ele>1561.85</ele>
        <time>2018-01-13T10:22:07Z</time>
      </trkpt>
      <trkpt lat="27.945721" lon="-15.536358">
        <ele>1561.80</ele>
        <time>2018-01-13T10:22:09Z</time>
      </trkpt>
      <trkpt lat="27.945705" lon="-15.536344">
        <ele>1561.80</ele>
        <time>2018-01-13T10:22:10Z</time>
      </trkpt>
      <trkpt lat="27.945690" lon="-15.536325">
        <ele>1562.55</ele>
        <time>2018-01-13T10:22:11Z</time>
      </trkpt>
      <trkpt lat="27.945671" lon="-15.536309">
        <ele>1563.20</ele>
        <time>2018-01-13T10:22:12Z</time>
      </trkpt>
      <trkpt lat="27.945648" lon="-15.536294">
        <ele>1563.31</ele>
        <time>2018-01-13T10:22:13Z</time>
      </trkpt>
      <trkpt lat="27.945630" lon="-15.536279">
        <ele>1563.40</ele>
        <time>2018-01-13T10:22:14Z</time>
      </trkpt>
      <trkpt lat="27.945611" lon="-15.536262">
        <ele>1563.56</ele>
        <time>2018-01-13T10:22:15Z</time>
      </trkpt>
      <trkpt lat="27.945568" lon="-15.536242">
        <ele>1563.70</ele>
        <time>2018-01-13T10:22:17Z</time>
      </trkpt>
      <trkpt lat="27.945551" lon="-15.536237">
        <ele>1563.70</ele>
        <time>2018-01-13T10:22:18Z</time>
      </trkpt>
      <trkpt lat="27.945531" lon="-15.536224">
        <ele>1563.70</ele>
        <time>2018-01-13T10:22:19Z</time>
      </trkpt>
      <trkpt lat="27.945509" lon="-15.536216">
        <ele>1564.62</ele>
        <time>2018-01-13T10:22:20Z</time>
      </trkpt>
      <trkpt lat="27.945487" lon="-15.536206">
        <ele>1565.40</ele>
        <time>2018-01-13T10:22:21Z</time>
      </trkpt>
      <trkpt lat="27.945464" lon="-15.536195">
        <ele>1565.51</ele>
        <time>2018-01-13T10:22:22Z</time>
      </trkpt>
      <trkpt lat="27.945436" lon="-15.536182">
        <ele>1565.60</ele>
        <time>2018-01-13T10:22:23Z</time>
      </trkpt>
      <trkpt lat="27.945392" lon="-15.536158">
        <ele>1564.63</ele>
        <time>2018-01-13T10:22:25Z</time>
      </trkpt>
      <trkpt lat="27.945369" lon="-15.536150">
        <ele>1565.18</ele>
        <time>2018-01-13T10:22:26Z</time>
      </trkpt>
      <trkpt lat="27.945345" lon="-15.536139">
        <ele>1565.00</ele>
        <time>2018-01-13T10:22:27Z</time>
      </trkpt>
      <trkpt lat="27.945326" lon="-15.536132">
        <ele>1564.95</ele>
        <time>2018-01-13T10:22:28Z</time>
      </trkpt>
      <trkpt lat="27.945289" lon="-15.536129">
        <ele>1564.90</ele>
        <time>2018-01-13T10:22:30Z</time>
      </trkpt>
      <trkpt lat="27.945270" lon="-15.536126">
        <ele>1564.84</ele>
        <time>2018-01-13T10:22:31Z</time>
      </trkpt>
      <trkpt lat="27.945233" lon="-15.536120">
        <ele>1564.46</ele>
        <time>2018-01-13T10:22:33Z</time>
      </trkpt>
      <trkpt lat="27.945213" lon="-15.536114">
        <ele>1564.20</ele>
        <time>2018-01-13T10:22:34Z</time>
      </trkpt>
      <trkpt lat="27.945190" lon="-15.536108">
        <ele>1564.09</ele>
        <time>2018-01-13T10:22:35Z</time>
      </trkpt>
      <trkpt lat="27.945149" lon="-15.536089">
        <ele>1564.40</ele>
        <time>2018-01-13T10:22:37Z</time>
      </trkpt>
      <trkpt lat="27.945055" lon="-15.536043">
        <ele>1564.70</ele>
        <time>2018-01-13T10:22:42Z</time>
      </trkpt>
      <trkpt lat="27.944958" lon="-15.536011">
        <ele>1564.50</ele>
        <time>2018-01-13T10:22:47Z</time>
      </trkpt>
      <trkpt lat="27.944927" lon="-15.535998">
        <ele>1564.38</ele>
        <time>2018-01-13T10:22:49Z</time>
      </trkpt>
      <trkpt lat="27.944834" lon="-15.535966">
        <ele>1565.34</ele>
        <time>2018-01-13T10:22:54Z</time>
      </trkpt>
      <trkpt lat="27.944812" lon="-15.535955">
        <ele>1565.36</ele>
        <time>2018-01-13T10:22:55Z</time>
      </trkpt>
      <trkpt lat="27.944794" lon="-15.535950">
        <ele>1565.34</ele>
        <time>2018-01-13T10:22:56Z</time>
      </trkpt>
      <trkpt lat="27.944773" lon="-15.535938">
        <ele>1565.36</ele>
        <time>2018-01-13T10:22:57Z</time>
      </trkpt>
      <trkpt lat="27.944758" lon="-15.535927">
        <ele>1565.40</ele>
        <time>2018-01-13T10:22:58Z</time>
      </trkpt>
      <trkpt lat="27.944740" lon="-15.535917">
        <ele>1565.40</ele>
        <time>2018-01-13T10:22:59Z</time>
      </trkpt>
      <trkpt lat="27.944722" lon="-15.535904">
        <ele>1565.96</ele>
        <time>2018-01-13T10:23:00Z</time>
      </trkpt>
      <trkpt lat="27.944700" lon="-15.535893">
        <ele>1566.30</ele>
        <time>2018-01-13T10:23:01Z</time>
      </trkpt>
      <trkpt lat="27.944680" lon="-15.535883">
        <ele>1566.73</ele>
        <time>2018-01-13T10:23:02Z</time>
      </trkpt>
      <trkpt lat="27.944659" lon="-15.535874">
        <ele>1567.00</ele>
        <time>2018-01-13T10:23:03Z</time>
      </trkpt>
      <trkpt lat="27.944641" lon="-15.535866">
        <ele>1566.94</ele>
        <time>2018-01-13T10:23:04Z</time>
      </trkpt>
      <trkpt lat="27.944623" lon="-15.535860">
        <ele>1567.09</ele>
        <time>2018-01-13T10:23:05Z</time>
      </trkpt>
      <trkpt lat="27.944599" lon="-15.535856">
        <ele>1567.39</ele>
        <time>2018-01-13T10:23:06Z</time>
      </trkpt>
      <trkpt lat="27.944575" lon="-15.535854">
        <ele>1567.69</ele>
        <time>2018-01-13T10:23:07Z</time>
      </trkpt>
      <trkpt lat="27.944548" lon="-15.535852">
        <ele>1567.80</ele>
        <time>2018-01-13T10:23:08Z</time>
      </trkpt>
      <trkpt lat="27.944494" lon="-15.535842">
        <ele>1568.63</ele>
        <time>2018-01-13T10:23:10Z</time>
      </trkpt>
      <trkpt lat="27.944445" lon="-15.535833">
        <ele>1570.04</ele>
        <time>2018-01-13T10:23:12Z</time>
      </trkpt>
      <trkpt lat="27.944388" lon="-15.535824">
        <ele>1570.85</ele>
        <time>2018-01-13T10:23:14Z</time>
      </trkpt>
      <trkpt lat="27.944295" lon="-15.535776">
        <ele>1571.77</ele>
        <time>2018-01-13T10:23:18Z</time>
      </trkpt>
      <trkpt lat="27.944276" lon="-15.535765">
        <ele>1571.76</ele>
        <time>2018-01-13T10:23:19Z</time>
      </trkpt>
      <trkpt lat="27.944254" lon="-15.535758">
        <ele>1571.80</ele>
        <time>2018-01-13T10:23:20Z</time>
      </trkpt>
      <trkpt lat="27.944233" lon="-15.535754">
        <ele>1571.99</ele>
        <time>2018-01-13T10:23:21Z</time>
      </trkpt>
      <trkpt lat="27.944211" lon="-15.535747">
        <ele>1572.10</ele>
        <time>2018-01-13T10:23:22Z</time>
      </trkpt>
      <trkpt lat="27.944190" lon="-15.535737">
        <ele>1571.78</ele>
        <time>2018-01-13T10:23:23Z</time>
      </trkpt>
      <trkpt lat="27.944168" lon="-15.535724">
        <ele>1571.54</ele>
        <time>2018-01-13T10:23:24Z</time>
      </trkpt>
      <trkpt lat="27.944148" lon="-15.535714">
        <ele>1571.56</ele>
        <time>2018-01-13T10:23:25Z</time>
      </trkpt>
      <trkpt lat="27.944126" lon="-15.535706">
        <ele>1571.60</ele>
        <time>2018-01-13T10:23:26Z</time>
      </trkpt>
      <trkpt lat="27.944102" lon="-15.535692">
        <ele>1571.60</ele>
        <time>2018-01-13T10:23:27Z</time>
      </trkpt>
      <trkpt lat="27.944061" lon="-15.535680">
        <ele>1571.46</ele>
        <time>2018-01-13T10:23:29Z</time>
      </trkpt>
      <trkpt lat="27.944041" lon="-15.535679">
        <ele>1571.50</ele>
        <time>2018-01-13T10:23:30Z</time>
      </trkpt>
      <trkpt lat="27.944009" lon="-15.535674">
        <ele>1571.56</ele>
        <time>2018-01-13T10:23:32Z</time>
      </trkpt>
      <trkpt lat="27.943991" lon="-15.535668">
        <ele>1571.47</ele>
        <time>2018-01-13T10:23:33Z</time>
      </trkpt>
      <trkpt lat="27.943968" lon="-15.535663">
        <ele>1571.43</ele>
        <time>2018-01-13T10:23:35Z</time>
      </trkpt>
      <trkpt lat="27.943939" lon="-15.535659">
        <ele>1571.60</ele>
        <time>2018-01-13T10:23:37Z</time>
      </trkpt>
      <trkpt lat="27.943910" lon="-15.535653">
        <ele>1571.57</ele>
        <time>2018-01-13T10:23:39Z</time>
      </trkpt>
      <trkpt lat="27.943880" lon="-15.535651">
        <ele>1571.63</ele>
        <time>2018-01-13T10:23:41Z</time>
      </trkpt>
      <trkpt lat="27.943854" lon="-15.535645">
        <ele>1571.70</ele>
        <time>2018-01-13T10:23:43Z</time>
      </trkpt>
      <trkpt lat="27.943836" lon="-15.535640">
        <ele>1571.70</ele>
        <time>2018-01-13T10:23:44Z</time>
      </trkpt>
      <trkpt lat="27.943801" lon="-15.535634">
        <ele>1571.70</ele>
        <time>2018-01-13T10:23:46Z</time>
      </trkpt>
      <trkpt lat="27.943776" lon="-15.535621">
        <ele>1571.63</ele>
        <time>2018-01-13T10:23:48Z</time>
      </trkpt>
      <trkpt lat="27.943750" lon="-15.535611">
        <ele>1571.36</ele>
        <time>2018-01-13T10:23:50Z</time>
      </trkpt>
      <trkpt lat="27.943726" lon="-15.535598">
        <ele>1570.96</ele>
        <time>2018-01-13T10:23:52Z</time>
      </trkpt>
      <trkpt lat="27.943703" lon="-15.535580">
        <ele>1570.90</ele>
        <time>2018-01-13T10:23:54Z</time>
      </trkpt>
      <trkpt lat="27.943681" lon="-15.535562">
        <ele>1570.90</ele>
        <time>2018-01-13T10:23:56Z</time>
      </trkpt>
      <trkpt lat="27.943658" lon="-15.535550">
        <ele>1570.90</ele>
        <time>2018-01-13T10:23:58Z</time>
      </trkpt>
      <trkpt lat="27.943635" lon="-15.535528">
        <ele>1570.59</ele>
        <time>2018-01-13T10:24:00Z</time>
      </trkpt>
      <trkpt lat="27.943613" lon="-15.535509">
        <ele>1570.40</ele>
        <time>2018-01-13T10:24:02Z</time>
      </trkpt>
      <trkpt lat="27.943593" lon="-15.535494">
        <ele>1570.26</ele>
        <time>2018-01-13T10:24:04Z</time>
      </trkpt>
      <trkpt lat="27.943575" lon="-15.535476">
        <ele>1569.93</ele>
        <time>2018-01-13T10:24:06Z</time>
      </trkpt>
      <trkpt lat="27.943556" lon="-15.535456">
        <ele>1569.70</ele>
        <time>2018-01-13T10:24:08Z</time>
      </trkpt>
      <trkpt lat="27.943539" lon="-15.535431">
        <ele>1569.36</ele>
        <time>2018-01-13T10:24:10Z</time>
      </trkpt>
      <trkpt lat="27.943524" lon="-15.535409">
        <ele>1569.23</ele>
        <time>2018-01-13T10:24:12Z</time>
      </trkpt>
      <trkpt lat="27.943503" lon="-15.535388">
        <ele>1568.02</ele>
        <time>2018-01-13T10:24:15Z</time>
      </trkpt>
      <trkpt lat="27.943490" lon="-15.535374">
        <ele>1567.10</ele>
        <time>2018-01-13T10:24:17Z</time>
      </trkpt>
      <trkpt lat="27.943473" lon="-15.535368">
        <ele>1566.54</ele>
        <time>2018-01-13T10:24:19Z</time>
      </trkpt>
      <trkpt lat="27.943455" lon="-15.535357">
        <ele>1565.80</ele>
        <time>2018-01-13T10:24:21Z</time>
      </trkpt>
      <trkpt lat="27.943436" lon="-15.535342">
        <ele>1565.80</ele>
        <time>2018-01-13T10:24:23Z</time>
      </trkpt>
      <trkpt lat="27.943415" lon="-15.535324">
        <ele>1566.30</ele>
        <time>2018-01-13T10:24:25Z</time>
      </trkpt>
      <trkpt lat="27.943397" lon="-15.535307">
        <ele>1566.19</ele>
        <time>2018-01-13T10:24:27Z</time>
      </trkpt>
      <trkpt lat="27.943377" lon="-15.535288">
        <ele>1566.74</ele>
        <time>2018-01-13T10:24:29Z</time>
      </trkpt>
      <trkpt lat="27.943357" lon="-15.535269">
        <ele>1566.90</ele>
        <time>2018-01-13T10:24:31Z</time>
      </trkpt>
      <trkpt lat="27.943339" lon="-15.535243">
        <ele>1567.80</ele>
        <time>2018-01-13T10:24:33Z</time>
      </trkpt>
      <trkpt lat="27.943317" lon="-15.535221">
        <ele>1567.80</ele>
        <time>2018-01-13T10:24:35Z</time>
      </trkpt>
      <trkpt lat="27.943302" lon="-15.535206">
        <ele>1567.80</ele>
        <time>2018-01-13T10:24:36Z</time>
      </trkpt>
      <trkpt lat="27.943289" lon="-15.535188">
        <ele>1567.80</ele>
        <time>2018-01-13T10:24:37Z</time>
      </trkpt>
      <trkpt lat="27.943277" lon="-15.535170">
        <ele>1567.80</ele>
        <time>2018-01-13T10:24:38Z</time>
      </trkpt>
      <trkpt lat="27.943265" lon="-15.535151">
        <ele>1568.56</ele>
        <time>2018-01-13T10:24:39Z</time>
      </trkpt>
      <trkpt lat="27.943249" lon="-15.535133">
        <ele>1569.41</ele>
        <time>2018-01-13T10:24:40Z</time>
      </trkpt>
      <trkpt lat="27.943229" lon="-15.535116">
        <ele>1569.30</ele>
        <time>2018-01-13T10:24:41Z</time>
      </trkpt>
      <trkpt lat="27.943208" lon="-15.535099">
        <ele>1569.50</ele>
        <time>2018-01-13T10:24:42Z</time>
      </trkpt>
      <trkpt lat="27.943190" lon="-15.535079">
        <ele>1569.75</ele>
        <time>2018-01-13T10:24:43Z</time>
      </trkpt>
      <trkpt lat="27.943172" lon="-15.535059">
        <ele>1569.88</ele>
        <time>2018-01-13T10:24:44Z</time>
      </trkpt>
      <trkpt lat="27.943156" lon="-15.535038">
        <ele>1569.90</ele>
        <time>2018-01-13T10:24:45Z</time>
      </trkpt>
      <trkpt lat="27.943139" lon="-15.535013">
        <ele>1569.90</ele>
        <time>2018-01-13T10:24:46Z</time>
      </trkpt>
      <trkpt lat="27.943126" lon="-15.534993">
        <ele>1570.59</ele>
        <time>2018-01-13T10:24:47Z</time>
      </trkpt>
      <trkpt lat="27.943110" lon="-15.534976">
        <ele>1570.95</ele>
        <time>2018-01-13T10:24:48Z</time>
      </trkpt>
      <trkpt lat="27.943094" lon="-15.534956">
        <ele>1571.00</ele>
        <time>2018-01-13T10:24:49Z</time>
      </trkpt>
      <trkpt lat="27.943082" lon="-15.534938">
        <ele>1571.85</ele>
        <time>2018-01-13T10:24:50Z</time>
      </trkpt>
      <trkpt lat="27.943068" lon="-15.534922">
        <ele>1572.10</ele>
        <time>2018-01-13T10:24:51Z</time>
      </trkpt>
      <trkpt lat="27.943052" lon="-15.534905">
        <ele>1572.80</ele>
        <time>2018-01-13T10:24:52Z</time>
      </trkpt>
      <trkpt lat="27.943037" lon="-15.534888">
        <ele>1573.15</ele>
        <time>2018-01-13T10:24:53Z</time>
      </trkpt>
      <trkpt lat="27.943021" lon="-15.534868">
        <ele>1573.43</ele>
        <time>2018-01-13T10:24:54Z</time>
      </trkpt>
      <trkpt lat="27.943009" lon="-15.534844">
        <ele>1573.66</ele>
        <time>2018-01-13T10:24:55Z</time>
      </trkpt>
      <trkpt lat="27.942997" lon="-15.534824">
        <ele>1573.93</ele>
        <time>2018-01-13T10:24:56Z</time>
      </trkpt>
      <trkpt lat="27.942983" lon="-15.534803">
        <ele>1574.00</ele>
        <time>2018-01-13T10:24:57Z</time>
      </trkpt>
      <trkpt lat="27.942970" lon="-15.534783">
        <ele>1574.00</ele>
        <time>2018-01-13T10:24:58Z</time>
      </trkpt>
      <trkpt lat="27.942955" lon="-15.534760">
        <ele>1574.16</ele>
        <time>2018-01-13T10:24:59Z</time>
      </trkpt>
      <trkpt lat="27.942942" lon="-15.534740">
        <ele>1574.12</ele>
        <time>2018-01-13T10:25:00Z</time>
      </trkpt>
      <trkpt lat="27.942928" lon="-15.534719">
        <ele>1574.18</ele>
        <time>2018-01-13T10:25:01Z</time>
      </trkpt>
      <trkpt lat="27.942913" lon="-15.534698">
        <ele>1574.12</ele>
        <time>2018-01-13T10:25:02Z</time>
      </trkpt>
      <trkpt lat="27.942898" lon="-15.534679">
        <ele>1574.02</ele>
        <time>2018-01-13T10:25:03Z</time>
      </trkpt>
      <trkpt lat="27.942884" lon="-15.534662">
        <ele>1574.00</ele>
        <time>2018-01-13T10:25:04Z</time>
      </trkpt>
      <trkpt lat="27.942870" lon="-15.534646">
        <ele>1574.08</ele>
        <time>2018-01-13T10:25:05Z</time>
      </trkpt>
      <trkpt lat="27.942857" lon="-15.534632">
        <ele>1574.10</ele>
        <time>2018-01-13T10:25:06Z</time>
      </trkpt>
      <trkpt lat="27.942843" lon="-15.534617">
        <ele>1574.58</ele>
        <time>2018-01-13T10:25:07Z</time>
      </trkpt>
      <trkpt lat="27.942821" lon="-15.534593">
        <ele>1574.70</ele>
        <time>2018-01-13T10:25:09Z</time>
      </trkpt>
      <trkpt lat="27.942803" lon="-15.534572">
        <ele>1575.16</ele>
        <time>2018-01-13T10:25:11Z</time>
      </trkpt>
      <trkpt lat="27.942786" lon="-15.534549">
        <ele>1575.12</ele>
        <time>2018-01-13T10:25:13Z</time>
      </trkpt>
      <trkpt lat="27.942771" lon="-15.534526">
        <ele>1575.10</ele>
        <time>2018-01-13T10:25:15Z</time>
      </trkpt>
      <trkpt lat="27.942756" lon="-15.534500">
        <ele>1574.44</ele>
        <time>2018-01-13T10:25:17Z</time>
      </trkpt>
      <trkpt lat="27.942739" lon="-15.534475">
        <ele>1574.04</ele>
        <time>2018-01-13T10:25:19Z</time>
      </trkpt>
      <trkpt lat="27.942719" lon="-15.534453">
        <ele>1573.70</ele>
        <time>2018-01-13T10:25:21Z</time>
      </trkpt>
      <trkpt lat="27.942705" lon="-15.534429">
        <ele>1573.70</ele>
        <time>2018-01-13T10:25:23Z</time>
      </trkpt>
      <trkpt lat="27.942692" lon="-15.534403">
        <ele>1573.94</ele>
        <time>2018-01-13T10:25:25Z</time>
      </trkpt>
      <trkpt lat="27.942678" lon="-15.534377">
        <ele>1574.24</ele>
        <time>2018-01-13T10:25:27Z</time>
      </trkpt>
      <trkpt lat="27.942656" lon="-15.534349">
        <ele>1574.30</ele>
        <time>2018-01-13T10:25:29Z</time>
      </trkpt>
      <trkpt lat="27.942644" lon="-15.534319">
        <ele>1573.37</ele>
        <time>2018-01-13T10:25:31Z</time>
      </trkpt>
      <trkpt lat="27.942648" lon="-15.534290">
        <ele>1573.00</ele>
        <time>2018-01-13T10:25:34Z</time>
      </trkpt>
      <trkpt lat="27.942631" lon="-15.534276">
        <ele>1572.50</ele>
        <time>2018-01-13T10:25:37Z</time>
      </trkpt>
      <trkpt lat="27.942606" lon="-15.534275">
        <ele>1572.50</ele>
        <time>2018-01-13T10:25:39Z</time>
      </trkpt>
      <trkpt lat="27.942582" lon="-15.534259">
        <ele>1571.83</ele>
        <time>2018-01-13T10:25:41Z</time>
      </trkpt>
      <trkpt lat="27.942566" lon="-15.534233">
        <ele>1571.35</ele>
        <time>2018-01-13T10:25:43Z</time>
      </trkpt>
      <trkpt lat="27.942551" lon="-15.534211">
        <ele>1570.60</ele>
        <time>2018-01-13T10:25:45Z</time>
      </trkpt>
      <trkpt lat="27.942532" lon="-15.534194">
        <ele>1570.40</ele>
        <time>2018-01-13T10:25:47Z</time>
      </trkpt>
      <trkpt lat="27.942509" lon="-15.534168">
        <ele>1569.73</ele>
        <time>2018-01-13T10:25:49Z</time>
      </trkpt>
      <trkpt lat="27.942489" lon="-15.534144">
        <ele>1569.60</ele>
        <time>2018-01-13T10:25:52Z</time>
      </trkpt>
      <trkpt lat="27.942472" lon="-15.534133">
        <ele>1569.52</ele>
        <time>2018-01-13T10:25:54Z</time>
      </trkpt>
      <trkpt lat="27.942455" lon="-15.534121">
        <ele>1568.83</ele>
        <time>2018-01-13T10:25:56Z</time>
      </trkpt>
      <trkpt lat="27.942436" lon="-15.534102">
        <ele>1568.17</ele>
        <time>2018-01-13T10:25:58Z</time>
      </trkpt>
      <trkpt lat="27.942416" lon="-15.534083">
        <ele>1567.74</ele>
        <time>2018-01-13T10:26:00Z</time>
      </trkpt>
      <trkpt lat="27.942403" lon="-15.534057">
        <ele>1567.36</ele>
        <time>2018-01-13T10:26:02Z</time>
      </trkpt>
      <trkpt lat="27.942392" lon="-15.534040">
        <ele>1567.10</ele>
        <time>2018-01-13T10:26:04Z</time>
      </trkpt>
      <trkpt lat="27.942371" lon="-15.534024">
        <ele>1566.67</ele>
        <time>2018-01-13T10:26:06Z</time>
      </trkpt>
      <trkpt lat="27.942350" lon="-15.534007">
        <ele>1566.60</ele>
        <time>2018-01-13T10:26:08Z</time>
      </trkpt>
      <trkpt lat="27.942331" lon="-15.533990">
        <ele>1565.93</ele>
        <time>2018-01-13T10:26:10Z</time>
      </trkpt>
      <trkpt lat="27.942315" lon="-15.533976">
        <ele>1565.72</ele>
        <time>2018-01-13T10:26:12Z</time>
      </trkpt>
      <trkpt lat="27.942301" lon="-15.533959">
        <ele>1565.35</ele>
        <time>2018-01-13T10:26:14Z</time>
      </trkpt>
      <trkpt lat="27.942281" lon="-15.533933">
        <ele>1565.10</ele>
        <time>2018-01-13T10:26:16Z</time>
      </trkpt>
      <trkpt lat="27.942264" lon="-15.533916">
        <ele>1564.55</ele>
        <time>2018-01-13T10:26:18Z</time>
      </trkpt>
      <trkpt lat="27.942251" lon="-15.533898">
        <ele>1564.50</ele>
        <time>2018-01-13T10:26:20Z</time>
      </trkpt>
      <trkpt lat="27.942238" lon="-15.533876">
        <ele>1563.80</ele>
        <time>2018-01-13T10:26:22Z</time>
      </trkpt>
      <trkpt lat="27.942227" lon="-15.533850">
        <ele>1563.70</ele>
        <time>2018-01-13T10:26:24Z</time>
      </trkpt>
      <trkpt lat="27.942213" lon="-15.533825">
        <ele>1563.24</ele>
        <time>2018-01-13T10:26:26Z</time>
      </trkpt>
      <trkpt lat="27.942202" lon="-15.533803">
        <ele>1562.92</ele>
        <time>2018-01-13T10:26:28Z</time>
      </trkpt>
      <trkpt lat="27.942195" lon="-15.533780">
        <ele>1562.13</ele>
        <time>2018-01-13T10:26:30Z</time>
      </trkpt>
      <trkpt lat="27.942189" lon="-15.533760">
        <ele>1561.64</ele>
        <time>2018-01-13T10:26:32Z</time>
      </trkpt>
      <trkpt lat="27.942184" lon="-15.533740">
        <ele>1561.42</ele>
        <time>2018-01-13T10:26:34Z</time>
      </trkpt>
      <trkpt lat="27.942181" lon="-15.533720">
        <ele>1561.31</ele>
        <time>2018-01-13T10:26:36Z</time>
      </trkpt>
      <trkpt lat="27.942175" lon="-15.533698">
        <ele>1560.65</ele>
        <time>2018-01-13T10:26:38Z</time>
      </trkpt>
      <trkpt lat="27.942168" lon="-15.533677">
        <ele>1560.03</ele>
        <time>2018-01-13T10:26:40Z</time>
      </trkpt>
      <trkpt lat="27.942166" lon="-15.533649">
        <ele>1559.91</ele>
        <time>2018-01-13T10:26:42Z</time>
      </trkpt>
      <trkpt lat="27.942163" lon="-15.533619">
        <ele>1559.51</ele>
        <time>2018-01-13T10:26:45Z</time>
      </trkpt>
      <trkpt lat="27.942156" lon="-15.533595">
        <ele>1559.21</ele>
        <time>2018-01-13T10:26:47Z</time>
      </trkpt>
      <trkpt lat="27.942149" lon="-15.533572">
        <ele>1558.71</ele>
        <time>2018-01-13T10:26:49Z</time>
      </trkpt>
      <trkpt lat="27.942146" lon="-15.533549">
        <ele>1558.40</ele>
        <time>2018-01-13T10:26:51Z</time>
      </trkpt>
      <trkpt lat="27.942140" lon="-15.533516">
        <ele>1557.11</ele>
        <time>2018-01-13T10:26:54Z</time>
      </trkpt>
      <trkpt lat="27.942136" lon="-15.533494">
        <ele>1556.80</ele>
        <time>2018-01-13T10:26:56Z</time>
      </trkpt>
      <trkpt lat="27.942132" lon="-15.533474">
        <ele>1556.50</ele>
        <time>2018-01-13T10:26:58Z</time>
      </trkpt>
      <trkpt lat="27.942126" lon="-15.533450">
        <ele>1556.20</ele>
        <time>2018-01-13T10:27:00Z</time>
      </trkpt>
      <trkpt lat="27.942110" lon="-15.533422">
        <ele>1555.80</ele>
        <time>2018-01-13T10:27:03Z</time>
      </trkpt>
      <trkpt lat="27.942105" lon="-15.533399">
        <ele>1555.10</ele>
        <time>2018-01-13T10:27:05Z</time>
      </trkpt>
      <trkpt lat="27.942093" lon="-15.533375">
        <ele>1554.60</ele>
        <time>2018-01-13T10:27:07Z</time>
      </trkpt>
      <trkpt lat="27.942081" lon="-15.533356">
        <ele>1554.50</ele>
        <time>2018-01-13T10:27:09Z</time>
      </trkpt>
      <trkpt lat="27.942068" lon="-15.533334">
        <ele>1554.30</ele>
        <time>2018-01-13T10:27:11Z</time>
      </trkpt>
      <trkpt lat="27.942060" lon="-15.533314">
        <ele>1554.30</ele>
        <time>2018-01-13T10:27:13Z</time>
      </trkpt>
      <trkpt lat="27.942046" lon="-15.533288">
        <ele>1553.60</ele>
        <time>2018-01-13T10:27:15Z</time>
      </trkpt>
      <trkpt lat="27.942036" lon="-15.533270">
        <ele>1552.80</ele>
        <time>2018-01-13T10:27:17Z</time>
      </trkpt>
      <trkpt lat="27.942023" lon="-15.533253">
        <ele>1552.20</ele>
        <time>2018-01-13T10:27:19Z</time>
      </trkpt>
      <trkpt lat="27.942008" lon="-15.533230">
        <ele>1552.00</ele>
        <time>2018-01-13T10:27:21Z</time>
      </trkpt>
      <trkpt lat="27.941992" lon="-15.533212">
        <ele>1551.80</ele>
        <time>2018-01-13T10:27:23Z</time>
      </trkpt>
      <trkpt lat="27.941980" lon="-15.533193">
        <ele>1551.19</ele>
        <time>2018-01-13T10:27:25Z</time>
      </trkpt>
      <trkpt lat="27.941965" lon="-15.533172">
        <ele>1550.90</ele>
        <time>2018-01-13T10:27:27Z</time>
      </trkpt>
      <trkpt lat="27.941952" lon="-15.533151">
        <ele>1550.39</ele>
        <time>2018-01-13T10:27:29Z</time>
      </trkpt>
      <trkpt lat="27.941938" lon="-15.533132">
        <ele>1549.90</ele>
        <time>2018-01-13T10:27:31Z</time>
      </trkpt>
      <trkpt lat="27.941920" lon="-15.533111">
        <ele>1549.49</ele>
        <time>2018-01-13T10:27:33Z</time>
      </trkpt>
      <trkpt lat="27.941906" lon="-15.533092">
        <ele>1548.89</ele>
        <time>2018-01-13T10:27:35Z</time>
      </trkpt>
      <trkpt lat="27.941890" lon="-15.533067">
        <ele>1548.38</ele>
        <time>2018-01-13T10:27:37Z</time>
      </trkpt>
      <trkpt lat="27.941875" lon="-15.533047">
        <ele>1547.60</ele>
        <time>2018-01-13T10:27:39Z</time>
      </trkpt>
      <trkpt lat="27.941857" lon="-15.533032">
        <ele>1547.50</ele>
        <time>2018-01-13T10:27:41Z</time>
      </trkpt>
      <trkpt lat="27.941841" lon="-15.533011">
        <ele>1547.40</ele>
        <time>2018-01-13T10:27:43Z</time>
      </trkpt>
      <trkpt lat="27.941824" lon="-15.532992">
        <ele>1546.69</ele>
        <time>2018-01-13T10:27:46Z</time>
      </trkpt>
      <trkpt lat="27.941810" lon="-15.532972">
        <ele>1546.50</ele>
        <time>2018-01-13T10:27:48Z</time>
      </trkpt>
      <trkpt lat="27.941796" lon="-15.532956">
        <ele>1545.99</ele>
        <time>2018-01-13T10:27:50Z</time>
      </trkpt>
      <trkpt lat="27.941784" lon="-15.532940">
        <ele>1545.81</ele>
        <time>2018-01-13T10:27:52Z</time>
      </trkpt>
      <trkpt lat="27.941771" lon="-15.532922">
        <ele>1545.78</ele>
        <time>2018-01-13T10:27:54Z</time>
      </trkpt>
      <trkpt lat="27.941755" lon="-15.532899">
        <ele>1545.30</ele>
        <time>2018-01-13T10:27:56Z</time>
      </trkpt>
      <trkpt lat="27.941742" lon="-15.532874">
        <ele>1544.98</ele>
        <time>2018-01-13T10:27:58Z</time>
      </trkpt>
      <trkpt lat="27.941735" lon="-15.532850">
        <ele>1544.66</ele>
        <time>2018-01-13T10:28:00Z</time>
      </trkpt>
      <trkpt lat="27.941725" lon="-15.532824">
        <ele>1544.21</ele>
        <time>2018-01-13T10:28:02Z</time>
      </trkpt>
      <trkpt lat="27.941712" lon="-15.532802">
        <ele>1544.20</ele>
        <time>2018-01-13T10:28:04Z</time>
      </trkpt>
      <trkpt lat="27.941701" lon="-15.532778">
        <ele>1544.19</ele>
        <time>2018-01-13T10:28:06Z</time>
      </trkpt>
      <trkpt lat="27.941686" lon="-15.532753">
        <ele>1543.87</ele>
        <time>2018-01-13T10:28:08Z</time>
      </trkpt>
      <trkpt lat="27.941671" lon="-15.532727">
        <ele>1543.38</ele>
        <time>2018-01-13T10:28:10Z</time>
      </trkpt>
      <trkpt lat="27.941656" lon="-15.532706">
        <ele>1542.99</ele>
        <time>2018-01-13T10:28:12Z</time>
      </trkpt>
      <trkpt lat="27.941638" lon="-15.532687">
        <ele>1542.74</ele>
        <time>2018-01-13T10:28:14Z</time>
      </trkpt>
      <trkpt lat="27.941620" lon="-15.532663">
        <ele>1542.96</ele>
        <time>2018-01-13T10:28:16Z</time>
      </trkpt>
      <trkpt lat="27.941599" lon="-15.532642">
        <ele>1542.67</ele>
        <time>2018-01-13T10:28:18Z</time>
      </trkpt>
      <trkpt lat="27.941582" lon="-15.532621">
        <ele>1542.41</ele>
        <time>2018-01-13T10:28:20Z</time>
      </trkpt>
      <trkpt lat="27.941570" lon="-15.532602">
        <ele>1542.26</ele>
        <time>2018-01-13T10:28:22Z</time>
      </trkpt>
      <trkpt lat="27.941554" lon="-15.532583">
        <ele>1541.79</ele>
        <time>2018-01-13T10:28:24Z</time>
      </trkpt>
      <trkpt lat="27.941532" lon="-15.532562">
        <ele>1541.70</ele>
        <time>2018-01-13T10:28:26Z</time>
      </trkpt>
      <trkpt lat="27.941510" lon="-15.532560">
        <ele>1541.50</ele>
        <time>2018-01-13T10:28:28Z</time>
      </trkpt>
      <trkpt lat="27.941491" lon="-15.532556">
        <ele>1541.44</ele>
        <time>2018-01-13T10:28:30Z</time>
      </trkpt>
      <trkpt lat="27.941471" lon="-15.532541">
        <ele>1541.04</ele>
        <time>2018-01-13T10:28:32Z</time>
      </trkpt>
      <trkpt lat="27.941444" lon="-15.532534">
        <ele>1540.17</ele>
        <time>2018-01-13T10:28:34Z</time>
      </trkpt>
      <trkpt lat="27.941420" lon="-15.532529">
        <ele>1540.00</ele>
        <time>2018-01-13T10:28:36Z</time>
      </trkpt>
      <trkpt lat="27.941391" lon="-15.532530">
        <ele>1540.00</ele>
        <time>2018-01-13T10:28:38Z</time>
      </trkpt>
      <trkpt lat="27.941362" lon="-15.532538">
        <ele>1540.04</ele>
        <time>2018-01-13T10:28:40Z</time>
      </trkpt>
      <trkpt lat="27.941337" lon="-15.532551">
        <ele>1540.06</ele>
        <time>2018-01-13T10:28:42Z</time>
      </trkpt>
      <trkpt lat="27.941315" lon="-15.532559">
        <ele>1539.23</ele>
        <time>2018-01-13T10:28:44Z</time>
      </trkpt>
      <trkpt lat="27.941296" lon="-15.532559">
        <ele>1538.88</ele>
        <time>2018-01-13T10:28:46Z</time>
      </trkpt>
      <trkpt lat="27.941271" lon="-15.532553">
        <ele>1538.64</ele>
        <time>2018-01-13T10:28:48Z</time>
      </trkpt>
      <trkpt lat="27.941245" lon="-15.532540">
        <ele>1537.10</ele>
        <time>2018-01-13T10:28:50Z</time>
      </trkpt>
      <trkpt lat="27.941219" lon="-15.532528">
        <ele>1536.98</ele>
        <time>2018-01-13T10:28:52Z</time>
      </trkpt>
      <trkpt lat="27.941199" lon="-15.532514">
        <ele>1536.80</ele>
        <time>2018-01-13T10:28:54Z</time>
      </trkpt>
      <trkpt lat="27.941184" lon="-15.532498">
        <ele>1536.36</ele>
        <time>2018-01-13T10:28:56Z</time>
      </trkpt>
      <trkpt lat="27.941167" lon="-15.532490">
        <ele>1536.10</ele>
        <time>2018-01-13T10:28:58Z</time>
      </trkpt>
      <trkpt lat="27.941142" lon="-15.532483">
        <ele>1536.00</ele>
        <time>2018-01-13T10:29:00Z</time>
      </trkpt>
      <trkpt lat="27.941111" lon="-15.532471">
        <ele>1534.75</ele>
        <time>2018-01-13T10:29:03Z</time>
      </trkpt>
      <trkpt lat="27.941089" lon="-15.532461">
        <ele>1534.58</ele>
        <time>2018-01-13T10:29:05Z</time>
      </trkpt>
      <trkpt lat="27.941068" lon="-15.532449">
        <ele>1533.93</ele>
        <time>2018-01-13T10:29:07Z</time>
      </trkpt>
      <trkpt lat="27.941049" lon="-15.532443">
        <ele>1533.58</ele>
        <time>2018-01-13T10:29:09Z</time>
      </trkpt>
      <trkpt lat="27.941028" lon="-15.532433">
        <ele>1533.48</ele>
        <time>2018-01-13T10:29:11Z</time>
      </trkpt>
      <trkpt lat="27.941008" lon="-15.532417">
        <ele>1532.60</ele>
        <time>2018-01-13T10:29:13Z</time>
      </trkpt>
      <trkpt lat="27.940986" lon="-15.532401">
        <ele>1532.42</ele>
        <time>2018-01-13T10:29:15Z</time>
      </trkpt>
      <trkpt lat="27.940967" lon="-15.532384">
        <ele>1532.00</ele>
        <time>2018-01-13T10:29:17Z</time>
      </trkpt>
      <trkpt lat="27.940947" lon="-15.532372">
        <ele>1531.77</ele>
        <time>2018-01-13T10:29:19Z</time>
      </trkpt>
      <trkpt lat="27.940930" lon="-15.532355">
        <ele>1531.37</ele>
        <time>2018-01-13T10:29:21Z</time>
      </trkpt>
      <trkpt lat="27.940917" lon="-15.532332">
        <ele>1531.20</ele>
        <time>2018-01-13T10:29:23Z</time>
      </trkpt>
      <trkpt lat="27.940894" lon="-15.532310">
        <ele>1531.04</ele>
        <time>2018-01-13T10:29:25Z</time>
      </trkpt>
      <trkpt lat="27.940878" lon="-15.532296">
        <ele>1530.45</ele>
        <time>2018-01-13T10:29:27Z</time>
      </trkpt>
      <trkpt lat="27.940860" lon="-15.532273">
        <ele>1530.25</ele>
        <time>2018-01-13T10:29:29Z</time>
      </trkpt>
      <trkpt lat="27.940841" lon="-15.532254">
        <ele>1529.49</ele>
        <time>2018-01-13T10:29:31Z</time>
      </trkpt>
      <trkpt lat="27.940823" lon="-15.532247">
        <ele>1528.76</ele>
        <time>2018-01-13T10:29:33Z</time>
      </trkpt>
      <trkpt lat="27.940804" lon="-15.532237">
        <ele>1528.37</ele>
        <time>2018-01-13T10:29:35Z</time>
      </trkpt>
      <trkpt lat="27.940781" lon="-15.532221">
        <ele>1527.54</ele>
        <time>2018-01-13T10:29:37Z</time>
      </trkpt>
      <trkpt lat="27.940767" lon="-15.532200">
        <ele>1526.87</ele>
        <time>2018-01-13T10:29:39Z</time>
      </trkpt>
      <trkpt lat="27.940753" lon="-15.532176">
        <ele>1526.80</ele>
        <time>2018-01-13T10:29:41Z</time>
      </trkpt>
      <trkpt lat="27.940735" lon="-15.532163">
        <ele>1526.71</ele>
        <time>2018-01-13T10:29:43Z</time>
      </trkpt>
      <trkpt lat="27.940722" lon="-15.532141">
        <ele>1526.40</ele>
        <time>2018-01-13T10:29:45Z</time>
      </trkpt>
      <trkpt lat="27.940703" lon="-15.532110">
        <ele>1525.68</ele>
        <time>2018-01-13T10:29:47Z</time>
      </trkpt>
      <trkpt lat="27.940686" lon="-15.532095">
        <ele>1525.37</ele>
        <time>2018-01-13T10:29:49Z</time>
      </trkpt>
      <trkpt lat="27.940672" lon="-15.532082">
        <ele>1525.30</ele>
        <time>2018-01-13T10:29:51Z</time>
      </trkpt>
      <trkpt lat="27.940651" lon="-15.532070">
        <ele>1525.07</ele>
        <time>2018-01-13T10:29:53Z</time>
      </trkpt>
      <trkpt lat="27.940630" lon="-15.532061">
        <ele>1524.97</ele>
        <time>2018-01-13T10:29:55Z</time>
      </trkpt>
      <trkpt lat="27.940623" lon="-15.532038">
        <ele>1524.57</ele>
        <time>2018-01-13T10:29:58Z</time>
      </trkpt>
      <trkpt lat="27.940626" lon="-15.532017">
        <ele>1523.40</ele>
        <time>2018-01-13T10:30:01Z</time>
      </trkpt>
      <trkpt lat="27.940621" lon="-15.531992">
        <ele>1522.80</ele>
        <time>2018-01-13T10:30:04Z</time>
      </trkpt>
      <trkpt lat="27.940618" lon="-15.531969">
        <ele>1522.67</ele>
        <time>2018-01-13T10:30:06Z</time>
      </trkpt>
      <trkpt lat="27.940613" lon="-15.531944">
        <ele>1522.46</ele>
        <time>2018-01-13T10:30:08Z</time>
      </trkpt>
      <trkpt lat="27.940610" lon="-15.531922">
        <ele>1522.20</ele>
        <time>2018-01-13T10:30:10Z</time>
      </trkpt>
      <trkpt lat="27.940611" lon="-15.531900">
        <ele>1521.99</ele>
        <time>2018-01-13T10:30:12Z</time>
      </trkpt>
      <trkpt lat="27.940614" lon="-15.531869">
        <ele>1521.22</ele>
        <time>2018-01-13T10:30:15Z</time>
      </trkpt>
      <trkpt lat="27.940620" lon="-15.531845">
        <ele>1520.46</ele>
        <time>2018-01-13T10:30:17Z</time>
      </trkpt>
      <trkpt lat="27.940624" lon="-15.531822">
        <ele>1520.19</ele>
        <time>2018-01-13T10:30:19Z</time>
      </trkpt>
      <trkpt lat="27.940626" lon="-15.531800">
        <ele>1519.49</ele>
        <time>2018-01-13T10:30:21Z</time>
      </trkpt>
      <trkpt lat="27.940628" lon="-15.531768">
        <ele>1519.03</ele>
        <time>2018-01-13T10:30:24Z</time>
      </trkpt>
      <trkpt lat="27.940626" lon="-15.531743">
        <ele>1518.90</ele>
        <time>2018-01-13T10:30:26Z</time>
      </trkpt>
      <trkpt lat="27.940632" lon="-15.531714">
        <ele>1518.90</ele>
        <time>2018-01-13T10:30:28Z</time>
      </trkpt>
      <trkpt lat="27.940638" lon="-15.531689">
        <ele>1518.39</ele>
        <time>2018-01-13T10:30:30Z</time>
      </trkpt>
      <trkpt lat="27.940643" lon="-15.531664">
        <ele>1517.46</ele>
        <time>2018-01-13T10:30:32Z</time>
      </trkpt>
      <trkpt lat="27.940644" lon="-15.531636">
        <ele>1517.22</ele>
        <time>2018-01-13T10:30:35Z</time>
      </trkpt>
      <trkpt lat="27.940648" lon="-15.531614">
        <ele>1516.76</ele>
        <time>2018-01-13T10:30:37Z</time>
      </trkpt>
      <trkpt lat="27.940649" lon="-15.531588">
        <ele>1516.50</ele>
        <time>2018-01-13T10:30:39Z</time>
      </trkpt>
      <trkpt lat="27.940650" lon="-15.531564">
        <ele>1516.02</ele>
        <time>2018-01-13T10:30:41Z</time>
      </trkpt>
      <trkpt lat="27.940652" lon="-15.531531">
        <ele>1515.30</ele>
        <time>2018-01-13T10:30:44Z</time>
      </trkpt>
      <trkpt lat="27.940654" lon="-15.531501">
        <ele>1515.24</ele>
        <time>2018-01-13T10:30:47Z</time>
      </trkpt>
      <trkpt lat="27.940651" lon="-15.531474">
        <ele>1514.51</ele>
        <time>2018-01-13T10:30:50Z</time>
      </trkpt>
      <trkpt lat="27.940650" lon="-15.531449">
        <ele>1514.17</ele>
        <time>2018-01-13T10:30:53Z</time>
      </trkpt>
      <trkpt lat="27.940651" lon="-15.531426">
        <ele>1513.16</ele>
        <time>2018-01-13T10:30:56Z</time>
      </trkpt>
      <trkpt lat="27.940654" lon="-15.531397">
        <ele>1512.60</ele>
        <time>2018-01-13T10:30:59Z</time>
      </trkpt>
      <trkpt lat="27.940656" lon="-15.531375">
        <ele>1512.51</ele>
        <time>2018-01-13T10:31:02Z</time>
      </trkpt>
      <trkpt lat="27.940655" lon="-15.531347">
        <ele>1511.76</ele>
        <time>2018-01-13T10:31:05Z</time>
      </trkpt>
      <trkpt lat="27.940648" lon="-15.531324">
        <ele>1511.35</ele>
        <time>2018-01-13T10:31:07Z</time>
      </trkpt>
      <trkpt lat="27.940641" lon="-15.531301">
        <ele>1510.90</ele>
        <time>2018-01-13T10:31:09Z</time>
      </trkpt>
      <trkpt lat="27.940632" lon="-15.531280">
        <ele>1510.85</ele>
        <time>2018-01-13T10:31:11Z</time>
      </trkpt>
      <trkpt lat="27.940623" lon="-15.531262">
        <ele>1510.80</ele>
        <time>2018-01-13T10:31:13Z</time>
      </trkpt>
      <trkpt lat="27.940613" lon="-15.531240">
        <ele>1510.90</ele>
        <time>2018-01-13T10:31:15Z</time>
      </trkpt>
      <trkpt lat="27.940607" lon="-15.531210">
        <ele>1510.25</ele>
        <time>2018-01-13T10:31:18Z</time>
      </trkpt>
      <trkpt lat="27.940601" lon="-15.531189">
        <ele>1510.20</ele>
        <time>2018-01-13T10:31:20Z</time>
      </trkpt>
      <trkpt lat="27.940586" lon="-15.531167">
        <ele>1508.45</ele>
        <time>2018-01-13T10:31:23Z</time>
      </trkpt>
      <trkpt lat="27.940569" lon="-15.531152">
        <ele>1508.14</ele>
        <time>2018-01-13T10:31:25Z</time>
      </trkpt>
      <trkpt lat="27.940556" lon="-15.531137">
        <ele>1507.79</ele>
        <time>2018-01-13T10:31:27Z</time>
      </trkpt>
      <trkpt lat="27.940543" lon="-15.531118">
        <ele>1507.59</ele>
        <time>2018-01-13T10:31:29Z</time>
      </trkpt>
      <trkpt lat="27.940530" lon="-15.531102">
        <ele>1506.83</ele>
        <time>2018-01-13T10:31:31Z</time>
      </trkpt>
      <trkpt lat="27.940516" lon="-15.531086">
        <ele>1506.29</ele>
        <time>2018-01-13T10:31:33Z</time>
      </trkpt>
      <trkpt lat="27.940506" lon="-15.531068">
        <ele>1506.20</ele>
        <time>2018-01-13T10:31:35Z</time>
      </trkpt>
      <trkpt lat="27.940489" lon="-15.531048">
        <ele>1505.79</ele>
        <time>2018-01-13T10:31:37Z</time>
      </trkpt>
      <trkpt lat="27.940470" lon="-15.531034">
        <ele>1505.19</ele>
        <time>2018-01-13T10:31:39Z</time>
      </trkpt>
      <trkpt lat="27.940454" lon="-15.531019">
        <ele>1505.05</ele>
        <time>2018-01-13T10:31:41Z</time>
      </trkpt>
      <trkpt lat="27.940442" lon="-15.530997">
        <ele>1504.62</ele>
        <time>2018-01-13T10:31:43Z</time>
      </trkpt>
      <trkpt lat="27.940429" lon="-15.530972">
        <ele>1504.13</ele>
        <time>2018-01-13T10:31:45Z</time>
      </trkpt>
      <trkpt lat="27.940418" lon="-15.530953">
        <ele>1503.80</ele>
        <time>2018-01-13T10:31:47Z</time>
      </trkpt>
      <trkpt lat="27.940406" lon="-15.530925">
        <ele>1503.70</ele>
        <time>2018-01-13T10:31:49Z</time>
      </trkpt>
      <trkpt lat="27.940398" lon="-15.530904">
        <ele>1502.70</ele>
        <time>2018-01-13T10:31:51Z</time>
      </trkpt>
      <trkpt lat="27.940382" lon="-15.530880">
        <ele>1502.54</ele>
        <time>2018-01-13T10:31:53Z</time>
      </trkpt>
      <trkpt lat="27.940372" lon="-15.530857">
        <ele>1502.39</ele>
        <time>2018-01-13T10:31:55Z</time>
      </trkpt>
      <trkpt lat="27.940364" lon="-15.530835">
        <ele>1502.10</ele>
        <time>2018-01-13T10:31:57Z</time>
      </trkpt>
      <trkpt lat="27.940351" lon="-15.530812">
        <ele>1502.04</ele>
        <time>2018-01-13T10:31:59Z</time>
      </trkpt>
      <trkpt lat="27.940329" lon="-15.530791">
        <ele>1501.24</ele>
        <time>2018-01-13T10:32:02Z</time>
      </trkpt>
      <trkpt lat="27.940306" lon="-15.530781">
        <ele>1500.60</ele>
        <time>2018-01-13T10:32:05Z</time>
      </trkpt>
      <trkpt lat="27.940286" lon="-15.530778">
        <ele>1500.02</ele>
        <time>2018-01-13T10:32:07Z</time>
      </trkpt>
      <trkpt lat="27.940267" lon="-15.530769">
        <ele>1499.30</ele>
        <time>2018-01-13T10:32:09Z</time>
      </trkpt>
      <trkpt lat="27.940248" lon="-15.530759">
        <ele>1499.18</ele>
        <time>2018-01-13T10:32:11Z</time>
      </trkpt>
      <trkpt lat="27.940224" lon="-15.530746">
        <ele>1498.80</ele>
        <time>2018-01-13T10:32:14Z</time>
      </trkpt>
      <trkpt lat="27.940207" lon="-15.530738">
        <ele>1498.62</ele>
        <time>2018-01-13T10:32:16Z</time>
      </trkpt>
      <trkpt lat="27.940183" lon="-15.530728">
        <ele>1497.80</ele>
        <time>2018-01-13T10:32:19Z</time>
      </trkpt>
      <trkpt lat="27.940158" lon="-15.530718">
        <ele>1496.78</ele>
        <time>2018-01-13T10:32:22Z</time>
      </trkpt>
      <trkpt lat="27.940137" lon="-15.530712">
        <ele>1496.70</ele>
        <time>2018-01-13T10:32:24Z</time>
      </trkpt>
      <trkpt lat="27.940118" lon="-15.530708">
        <ele>1496.54</ele>
        <time>2018-01-13T10:32:26Z</time>
      </trkpt>
      <trkpt lat="27.940096" lon="-15.530701">
        <ele>1496.50</ele>
        <time>2018-01-13T10:32:28Z</time>
      </trkpt>
      <trkpt lat="27.940070" lon="-15.530693">
        <ele>1495.45</ele>
        <time>2018-01-13T10:32:31Z</time>
      </trkpt>
      <trkpt lat="27.940051" lon="-15.530688">
        <ele>1495.05</ele>
        <time>2018-01-13T10:32:33Z</time>
      </trkpt>
      <trkpt lat="27.940032" lon="-15.530685">
        <ele>1494.84</ele>
        <time>2018-01-13T10:32:35Z</time>
      </trkpt>
      <trkpt lat="27.940005" lon="-15.530682">
        <ele>1494.21</ele>
        <time>2018-01-13T10:32:38Z</time>
      </trkpt>
      <trkpt lat="27.939981" lon="-15.530685">
        <ele>1493.54</ele>
        <time>2018-01-13T10:32:41Z</time>
      </trkpt>
      <trkpt lat="27.939959" lon="-15.530690">
        <ele>1493.20</ele>
        <time>2018-01-13T10:32:43Z</time>
      </trkpt>
      <trkpt lat="27.939935" lon="-15.530696">
        <ele>1492.81</ele>
        <time>2018-01-13T10:32:45Z</time>
      </trkpt>
      <trkpt lat="27.939916" lon="-15.530690">
        <ele>1491.94</ele>
        <time>2018-01-13T10:32:47Z</time>
      </trkpt>
      <trkpt lat="27.939892" lon="-15.530680">
        <ele>1491.73</ele>
        <time>2018-01-13T10:32:50Z</time>
      </trkpt>
      <trkpt lat="27.939879" lon="-15.530665">
        <ele>1490.60</ele>
        <time>2018-01-13T10:32:52Z</time>
      </trkpt>
      <trkpt lat="27.939863" lon="-15.530637">
        <ele>1490.30</ele>
        <time>2018-01-13T10:32:54Z</time>
      </trkpt>
      <trkpt lat="27.939860" lon="-15.530611">
        <ele>1490.20</ele>
        <time>2018-01-13T10:32:56Z</time>
      </trkpt>
      <trkpt lat="27.939864" lon="-15.530585">
        <ele>1490.07</ele>
        <time>2018-01-13T10:32:58Z</time>
      </trkpt>
      <trkpt lat="27.939876" lon="-15.530564">
        <ele>1489.93</ele>
        <time>2018-01-13T10:33:00Z</time>
      </trkpt>
      <trkpt lat="27.939887" lon="-15.530543">
        <ele>1489.40</ele>
        <time>2018-01-13T10:33:02Z</time>
      </trkpt>
      <trkpt lat="27.939897" lon="-15.530520">
        <ele>1489.23</ele>
        <time>2018-01-13T10:33:04Z</time>
      </trkpt>
      <trkpt lat="27.939903" lon="-15.530493">
        <ele>1488.66</ele>
        <time>2018-01-13T10:33:06Z</time>
      </trkpt>
      <trkpt lat="27.939905" lon="-15.530466">
        <ele>1488.36</ele>
        <time>2018-01-13T10:33:08Z</time>
      </trkpt>
      <trkpt lat="27.939908" lon="-15.530439">
        <ele>1488.03</ele>
        <time>2018-01-13T10:33:10Z</time>
      </trkpt>
      <trkpt lat="27.939901" lon="-15.530408">
        <ele>1487.65</ele>
        <time>2018-01-13T10:33:13Z</time>
      </trkpt>
      <trkpt lat="27.939890" lon="-15.530389">
        <ele>1487.00</ele>
        <time>2018-01-13T10:33:15Z</time>
      </trkpt>
      <trkpt lat="27.939873" lon="-15.530370">
        <ele>1487.11</ele>
        <time>2018-01-13T10:33:17Z</time>
      </trkpt>
      <trkpt lat="27.939854" lon="-15.530357">
        <ele>1487.00</ele>
        <time>2018-01-13T10:33:19Z</time>
      </trkpt>
      <trkpt lat="27.939834" lon="-15.530352">
        <ele>1486.40</ele>
        <time>2018-01-13T10:33:21Z</time>
      </trkpt>
      <trkpt lat="27.939810" lon="-15.530335">
        <ele>1486.00</ele>
        <time>2018-01-13T10:33:23Z</time>
      </trkpt>
      <trkpt lat="27.939787" lon="-15.530320">
        <ele>1485.63</ele>
        <time>2018-01-13T10:33:25Z</time>
      </trkpt>
      <trkpt lat="27.939764" lon="-15.530305">
        <ele>1485.18</ele>
        <time>2018-01-13T10:33:28Z</time>
      </trkpt>
      <trkpt lat="27.939744" lon="-15.530292">
        <ele>1484.51</ele>
        <time>2018-01-13T10:33:30Z</time>
      </trkpt>
      <trkpt lat="27.939727" lon="-15.530284">
        <ele>1484.25</ele>
        <time>2018-01-13T10:33:32Z</time>
      </trkpt>
      <trkpt lat="27.939708" lon="-15.530278">
        <ele>1484.10</ele>
        <time>2018-01-13T10:33:34Z</time>
      </trkpt>
      <trkpt lat="27.939683" lon="-15.530266">
        <ele>1483.43</ele>
        <time>2018-01-13T10:33:36Z</time>
      </trkpt>
      <trkpt lat="27.939658" lon="-15.530261">
        <ele>1483.20</ele>
        <time>2018-01-13T10:33:38Z</time>
      </trkpt>
      <trkpt lat="27.939637" lon="-15.530257">
        <ele>1482.90</ele>
        <time>2018-01-13T10:33:40Z</time>
      </trkpt>
      <trkpt lat="27.939612" lon="-15.530258">
        <ele>1482.80</ele>
        <time>2018-01-13T10:33:42Z</time>
      </trkpt>
      <trkpt lat="27.939588" lon="-15.530255">
        <ele>1482.73</ele>
        <time>2018-01-13T10:33:44Z</time>
      </trkpt>
      <trkpt lat="27.939565" lon="-15.530243">
        <ele>1482.50</ele>
        <time>2018-01-13T10:33:46Z</time>
      </trkpt>
      <trkpt lat="27.939544" lon="-15.530223">
        <ele>1482.32</ele>
        <time>2018-01-13T10:33:48Z</time>
      </trkpt>
      <trkpt lat="27.939524" lon="-15.530209">
        <ele>1482.00</ele>
        <time>2018-01-13T10:33:50Z</time>
      </trkpt>
      <trkpt lat="27.939512" lon="-15.530189">
        <ele>1480.67</ele>
        <time>2018-01-13T10:33:52Z</time>
      </trkpt>
      <trkpt lat="27.939501" lon="-15.530170">
        <ele>1480.37</ele>
        <time>2018-01-13T10:33:54Z</time>
      </trkpt>
      <trkpt lat="27.939487" lon="-15.530148">
        <ele>1479.90</ele>
        <time>2018-01-13T10:33:56Z</time>
      </trkpt>
      <trkpt lat="27.939469" lon="-15.530123">
        <ele>1479.65</ele>
        <time>2018-01-13T10:33:58Z</time>
      </trkpt>
      <trkpt lat="27.939452" lon="-15.530093">
        <ele>1479.68</ele>
        <time>2018-01-13T10:34:01Z</time>
      </trkpt>
      <trkpt lat="27.939438" lon="-15.530070">
        <ele>1479.70</ele>
        <time>2018-01-13T10:34:03Z</time>
      </trkpt>
      <trkpt lat="27.939422" lon="-15.530053">
        <ele>1479.62</ele>
        <time>2018-01-13T10:34:05Z</time>
      </trkpt>
      <trkpt lat="27.939405" lon="-15.530031">
        <ele>1479.10</ele>
        <time>2018-01-13T10:34:07Z</time>
      </trkpt>
      <trkpt lat="27.939387" lon="-15.530009">
        <ele>1478.59</ele>
        <time>2018-01-13T10:34:09Z</time>
      </trkpt>
      <trkpt lat="27.939369" lon="-15.529986">
        <ele>1478.32</ele>
        <time>2018-01-13T10:34:11Z</time>
      </trkpt>
      <trkpt lat="27.939358" lon="-15.529962">
        <ele>1477.84</ele>
        <time>2018-01-13T10:34:13Z</time>
      </trkpt>
      <trkpt lat="27.939345" lon="-15.529945">
        <ele>1477.30</ele>
        <time>2018-01-13T10:34:15Z</time>
      </trkpt>
      <trkpt lat="27.939333" lon="-15.529923">
        <ele>1477.12</ele>
        <time>2018-01-13T10:34:17Z</time>
      </trkpt>
      <trkpt lat="27.939322" lon="-15.529904">
        <ele>1476.72</ele>
        <time>2018-01-13T10:34:19Z</time>
      </trkpt>
      <trkpt lat="27.939315" lon="-15.529884">
        <ele>1476.32</ele>
        <time>2018-01-13T10:34:21Z</time>
      </trkpt>
      <trkpt lat="27.939301" lon="-15.529864">
        <ele>1476.00</ele>
        <time>2018-01-13T10:34:23Z</time>
      </trkpt>
      <trkpt lat="27.939286" lon="-15.529845">
        <ele>1476.00</ele>
        <time>2018-01-13T10:34:25Z</time>
      </trkpt>
      <trkpt lat="27.939271" lon="-15.529827">
        <ele>1475.82</ele>
        <time>2018-01-13T10:34:27Z</time>
      </trkpt>
      <trkpt lat="27.939257" lon="-15.529806">
        <ele>1475.21</ele>
        <time>2018-01-13T10:34:29Z</time>
      </trkpt>
      <trkpt lat="27.939244" lon="-15.529781">
        <ele>1475.02</ele>
        <time>2018-01-13T10:34:31Z</time>
      </trkpt>
      <trkpt lat="27.939229" lon="-15.529754">
        <ele>1474.70</ele>
        <time>2018-01-13T10:34:33Z</time>
      </trkpt>
      <trkpt lat="27.939211" lon="-15.529728">
        <ele>1474.70</ele>
        <time>2018-01-13T10:34:35Z</time>
      </trkpt>
      <trkpt lat="27.939193" lon="-15.529703">
        <ele>1474.50</ele>
        <time>2018-01-13T10:34:37Z</time>
      </trkpt>
      <trkpt lat="27.939174" lon="-15.529681">
        <ele>1474.18</ele>
        <time>2018-01-13T10:34:39Z</time>
      </trkpt>
      <trkpt lat="27.939158" lon="-15.529657">
        <ele>1473.78</ele>
        <time>2018-01-13T10:34:41Z</time>
      </trkpt>
      <trkpt lat="27.939143" lon="-15.529635">
        <ele>1473.34</ele>
        <time>2018-01-13T10:34:43Z</time>
      </trkpt>
      <trkpt lat="27.939128" lon="-15.529609">
        <ele>1473.30</ele>
        <time>2018-01-13T10:34:45Z</time>
      </trkpt>
      <trkpt lat="27.939116" lon="-15.529580">
        <ele>1473.20</ele>
        <time>2018-01-13T10:34:47Z</time>
      </trkpt>
      <trkpt lat="27.939103" lon="-15.529553">
        <ele>1473.02</ele>
        <time>2018-01-13T10:34:49Z</time>
      </trkpt>
      <trkpt lat="27.939092" lon="-15.529533">
        <ele>1472.90</ele>
        <time>2018-01-13T10:34:51Z</time>
      </trkpt>
      <trkpt lat="27.939078" lon="-15.529511">
        <ele>1473.06</ele>
        <time>2018-01-13T10:34:53Z</time>
      </trkpt>
      <trkpt lat="27.939063" lon="-15.529486">
        <ele>1473.10</ele>
        <time>2018-01-13T10:34:55Z</time>
      </trkpt>
      <trkpt lat="27.939048" lon="-15.529460">
        <ele>1473.10</ele>
        <time>2018-01-13T10:34:57Z</time>
      </trkpt>
      <trkpt lat="27.939032" lon="-15.529434">
        <ele>1472.50</ele>
        <time>2018-01-13T10:34:59Z</time>
      </trkpt>
      <trkpt lat="27.939014" lon="-15.529410">
        <ele>1472.07</ele>
        <time>2018-01-13T10:35:01Z</time>
      </trkpt>
      <trkpt lat="27.938994" lon="-15.529387">
        <ele>1471.72</ele>
        <time>2018-01-13T10:35:03Z</time>
      </trkpt>
      <trkpt lat="27.938978" lon="-15.529362">
        <ele>1471.40</ele>
        <time>2018-01-13T10:35:05Z</time>
      </trkpt>
      <trkpt lat="27.938962" lon="-15.529339">
        <ele>1471.22</ele>
        <time>2018-01-13T10:35:07Z</time>
      </trkpt>
      <trkpt lat="27.938950" lon="-15.529315">
        <ele>1471.00</ele>
        <time>2018-01-13T10:35:09Z</time>
      </trkpt>
      <trkpt lat="27.938932" lon="-15.529298">
        <ele>1471.00</ele>
        <time>2018-01-13T10:35:11Z</time>
      </trkpt>
      <trkpt lat="27.938917" lon="-15.529272">
        <ele>1470.32</ele>
        <time>2018-01-13T10:35:13Z</time>
      </trkpt>
      <trkpt lat="27.938906" lon="-15.529248">
        <ele>1470.10</ele>
        <time>2018-01-13T10:35:15Z</time>
      </trkpt>
      <trkpt lat="27.938890" lon="-15.529224">
        <ele>1470.00</ele>
        <time>2018-01-13T10:35:17Z</time>
      </trkpt>
      <trkpt lat="27.938873" lon="-15.529194">
        <ele>1470.00</ele>
        <time>2018-01-13T10:35:19Z</time>
      </trkpt>
      <trkpt lat="27.938858" lon="-15.529169">
        <ele>1469.64</ele>
        <time>2018-01-13T10:35:21Z</time>
      </trkpt>
      <trkpt lat="27.938845" lon="-15.529145">
        <ele>1469.60</ele>
        <time>2018-01-13T10:35:23Z</time>
      </trkpt>
      <trkpt lat="27.938834" lon="-15.529121">
        <ele>1469.60</ele>
        <time>2018-01-13T10:35:25Z</time>
      </trkpt>
      <trkpt lat="27.938815" lon="-15.529096">
        <ele>1469.60</ele>
        <time>2018-01-13T10:35:27Z</time>
      </trkpt>
      <trkpt lat="27.938797" lon="-15.529067">
        <ele>1469.64</ele>
        <time>2018-01-13T10:35:29Z</time>
      </trkpt>
      <trkpt lat="27.938780" lon="-15.529040">
        <ele>1469.60</ele>
        <time>2018-01-13T10:35:31Z</time>
      </trkpt>
      <trkpt lat="27.938765" lon="-15.529011">
        <ele>1469.00</ele>
        <time>2018-01-13T10:35:33Z</time>
      </trkpt>
      <trkpt lat="27.938752" lon="-15.528979">
        <ele>1469.00</ele>
        <time>2018-01-13T10:35:35Z</time>
      </trkpt>
      <trkpt lat="27.938736" lon="-15.528952">
        <ele>1468.70</ele>
        <time>2018-01-13T10:35:37Z</time>
      </trkpt>
      <trkpt lat="27.938720" lon="-15.528929">
        <ele>1468.20</ele>
        <time>2018-01-13T10:35:39Z</time>
      </trkpt>
      <trkpt lat="27.938710" lon="-15.528910">
        <ele>1468.12</ele>
        <time>2018-01-13T10:35:40Z</time>
      </trkpt>
      <trkpt lat="27.938701" lon="-15.528887">
        <ele>1467.86</ele>
        <time>2018-01-13T10:35:42Z</time>
      </trkpt>
      <trkpt lat="27.938684" lon="-15.528864">
        <ele>1467.56</ele>
        <time>2018-01-13T10:35:44Z</time>
      </trkpt>
      <trkpt lat="27.938665" lon="-15.528839">
        <ele>1467.50</ele>
        <time>2018-01-13T10:35:46Z</time>
      </trkpt>
      <trkpt lat="27.938647" lon="-15.528814">
        <ele>1467.56</ele>
        <time>2018-01-13T10:35:48Z</time>
      </trkpt>
      <trkpt lat="27.938630" lon="-15.528788">
        <ele>1467.84</ele>
        <time>2018-01-13T10:35:50Z</time>
      </trkpt>
      <trkpt lat="27.938611" lon="-15.528767">
        <ele>1467.66</ele>
        <time>2018-01-13T10:35:52Z</time>
      </trkpt>
      <trkpt lat="27.938597" lon="-15.528740">
        <ele>1467.14</ele>
        <time>2018-01-13T10:35:54Z</time>
      </trkpt>
      <trkpt lat="27.938584" lon="-15.528712">
        <ele>1466.90</ele>
        <time>2018-01-13T10:35:56Z</time>
      </trkpt>
      <trkpt lat="27.938574" lon="-15.528679">
        <ele>1466.90</ele>
        <time>2018-01-13T10:35:58Z</time>
      </trkpt>
      <trkpt lat="27.938562" lon="-15.528648">
        <ele>1466.82</ele>
        <time>2018-01-13T10:36:00Z</time>
      </trkpt>
      <trkpt lat="27.938556" lon="-15.528618">
        <ele>1466.72</ele>
        <time>2018-01-13T10:36:02Z</time>
      </trkpt>
      <trkpt lat="27.938547" lon="-15.528586">
        <ele>1466.70</ele>
        <time>2018-01-13T10:36:04Z</time>
      </trkpt>
      <trkpt lat="27.938540" lon="-15.528560">
        <ele>1466.44</ele>
        <time>2018-01-13T10:36:06Z</time>
      </trkpt>
      <trkpt lat="27.938527" lon="-15.528530">
        <ele>1466.21</ele>
        <time>2018-01-13T10:36:08Z</time>
      </trkpt>
      <trkpt lat="27.938513" lon="-15.528502">
        <ele>1465.80</ele>
        <time>2018-01-13T10:36:10Z</time>
      </trkpt>
      <trkpt lat="27.938497" lon="-15.528477">
        <ele>1465.80</ele>
        <time>2018-01-13T10:36:12Z</time>
      </trkpt>
      <trkpt lat="27.938485" lon="-15.528451">
        <ele>1465.64</ele>
        <time>2018-01-13T10:36:14Z</time>
      </trkpt>
      <trkpt lat="27.938473" lon="-15.528426">
        <ele>1465.60</ele>
        <time>2018-01-13T10:36:16Z</time>
      </trkpt>
      <trkpt lat="27.938461" lon="-15.528401">
        <ele>1464.72</ele>
        <time>2018-01-13T10:36:18Z</time>
      </trkpt>
      <trkpt lat="27.938453" lon="-15.528377">
        <ele>1464.52</ele>
        <time>2018-01-13T10:36:20Z</time>
      </trkpt>
      <trkpt lat="27.938441" lon="-15.528351">
        <ele>1464.25</ele>
        <time>2018-01-13T10:36:22Z</time>
      </trkpt>
      <trkpt lat="27.938431" lon="-15.528327">
        <ele>1464.20</ele>
        <time>2018-01-13T10:36:24Z</time>
      </trkpt>
      <trkpt lat="27.938417" lon="-15.528304">
        <ele>1463.83</ele>
        <time>2018-01-13T10:36:26Z</time>
      </trkpt>
      <trkpt lat="27.938408" lon="-15.528280">
        <ele>1463.63</ele>
        <time>2018-01-13T10:36:28Z</time>
      </trkpt>
      <trkpt lat="27.938401" lon="-15.528253">
        <ele>1463.60</ele>
        <time>2018-01-13T10:36:30Z</time>
      </trkpt>
      <trkpt lat="27.938385" lon="-15.528229">
        <ele>1463.60</ele>
        <time>2018-01-13T10:36:32Z</time>
      </trkpt>
      <trkpt lat="27.938370" lon="-15.528204">
        <ele>1463.78</ele>
        <time>2018-01-13T10:36:34Z</time>
      </trkpt>
      <trkpt lat="27.938359" lon="-15.528177">
        <ele>1463.80</ele>
        <time>2018-01-13T10:36:36Z</time>
      </trkpt>
      <trkpt lat="27.938346" lon="-15.528153">
        <ele>1463.70</ele>
        <time>2018-01-13T10:36:38Z</time>
      </trkpt>
      <trkpt lat="27.938331" lon="-15.528128">
        <ele>1463.36</ele>
        <time>2018-01-13T10:36:40Z</time>
      </trkpt>
      <trkpt lat="27.938318" lon="-15.528100">
        <ele>1462.76</ele>
        <time>2018-01-13T10:36:42Z</time>
      </trkpt>
      <trkpt lat="27.938303" lon="-15.528073">
        <ele>1462.40</ele>
        <time>2018-01-13T10:36:44Z</time>
      </trkpt>
      <trkpt lat="27.938291" lon="-15.528050">
        <ele>1462.31</ele>
        <time>2018-01-13T10:36:46Z</time>
      </trkpt>
      <trkpt lat="27.938279" lon="-15.528024">
        <ele>1462.20</ele>
        <time>2018-01-13T10:36:48Z</time>
      </trkpt>
      <trkpt lat="27.938270" lon="-15.527999">
        <ele>1461.90</ele>
        <time>2018-01-13T10:36:50Z</time>
      </trkpt>
      <trkpt lat="27.938265" lon="-15.527969">
        <ele>1461.90</ele>
        <time>2018-01-13T10:36:52Z</time>
      </trkpt>
      <trkpt lat="27.938257" lon="-15.527940">
        <ele>1461.71</ele>
        <time>2018-01-13T10:36:54Z</time>
      </trkpt>
      <trkpt lat="27.938245" lon="-15.527912">
        <ele>1461.80</ele>
        <time>2018-01-13T10:36:56Z</time>
      </trkpt>
      <trkpt lat="27.938230" lon="-15.527889">
        <ele>1461.71</ele>
        <time>2018-01-13T10:36:58Z</time>
      </trkpt>
      <trkpt lat="27.938215" lon="-15.527865">
        <ele>1461.70</ele>
        <time>2018-01-13T10:37:00Z</time>
      </trkpt>
      <trkpt lat="27.938202" lon="-15.527841">
        <ele>1461.25</ele>
        <time>2018-01-13T10:37:02Z</time>
      </trkpt>
      <trkpt lat="27.938196" lon="-15.527817">
        <ele>1460.75</ele>
        <time>2018-01-13T10:37:04Z</time>
      </trkpt>
      <trkpt lat="27.938192" lon="-15.527790">
        <ele>1460.43</ele>
        <time>2018-01-13T10:37:06Z</time>
      </trkpt>
      <trkpt lat="27.938186" lon="-15.527761">
        <ele>1459.57</ele>
        <time>2018-01-13T10:37:08Z</time>
      </trkpt>
      <trkpt lat="27.938188" lon="-15.527735">
        <ele>1459.50</ele>
        <time>2018-01-13T10:37:10Z</time>
      </trkpt>
      <trkpt lat="27.938204" lon="-15.527716">
        <ele>1459.32</ele>
        <time>2018-01-13T10:37:12Z</time>
      </trkpt>
      <trkpt lat="27.938224" lon="-15.527702">
        <ele>1459.20</ele>
        <time>2018-01-13T10:37:14Z</time>
      </trkpt>
      <trkpt lat="27.938248" lon="-15.527699">
        <ele>1458.43</ele>
        <time>2018-01-13T10:37:16Z</time>
      </trkpt>
      <trkpt lat="27.938274" lon="-15.527709">
        <ele>1457.40</ele>
        <time>2018-01-13T10:37:20Z</time>
      </trkpt>
      <trkpt lat="27.938295" lon="-15.527703">
        <ele>1457.20</ele>
        <time>2018-01-13T10:37:22Z</time>
      </trkpt>
      <trkpt lat="27.938314" lon="-15.527699">
        <ele>1457.20</ele>
        <time>2018-01-13T10:37:24Z</time>
      </trkpt>
      <trkpt lat="27.938336" lon="-15.527700">
        <ele>1457.01</ele>
        <time>2018-01-13T10:37:26Z</time>
      </trkpt>
      <trkpt lat="27.938356" lon="-15.527704">
        <ele>1457.00</ele>
        <time>2018-01-13T10:37:28Z</time>
      </trkpt>
      <trkpt lat="27.938379" lon="-15.527710">
        <ele>1456.98</ele>
        <time>2018-01-13T10:37:30Z</time>
      </trkpt>
      <trkpt lat="27.938403" lon="-15.527710">
        <ele>1457.20</ele>
        <time>2018-01-13T10:37:32Z</time>
      </trkpt>
      <trkpt lat="27.938417" lon="-15.527691">
        <ele>1456.81</ele>
        <time>2018-01-13T10:37:35Z</time>
      </trkpt>
      <trkpt lat="27.938398" lon="-15.527668">
        <ele>1456.90</ele>
        <time>2018-01-13T10:37:37Z</time>
      </trkpt>
      <trkpt lat="27.938368" lon="-15.527653">
        <ele>1456.71</ele>
        <time>2018-01-13T10:37:39Z</time>
      </trkpt>
      <trkpt lat="27.938348" lon="-15.527647">
        <ele>1456.79</ele>
        <time>2018-01-13T10:37:40Z</time>
      </trkpt>
      <trkpt lat="27.938330" lon="-15.527640">
        <ele>1456.80</ele>
        <time>2018-01-13T10:37:41Z</time>
      </trkpt>
      <trkpt lat="27.938305" lon="-15.527619">
        <ele>1456.60</ele>
        <time>2018-01-13T10:37:43Z</time>
      </trkpt>
      <trkpt lat="27.938277" lon="-15.527603">
        <ele>1455.92</ele>
        <time>2018-01-13T10:37:45Z</time>
      </trkpt>
      <trkpt lat="27.938256" lon="-15.527589">
        <ele>1455.50</ele>
        <time>2018-01-13T10:37:47Z</time>
      </trkpt>
      <trkpt lat="27.938234" lon="-15.527575">
        <ele>1455.05</ele>
        <time>2018-01-13T10:37:49Z</time>
      </trkpt>
      <trkpt lat="27.938208" lon="-15.527559">
        <ele>1454.90</ele>
        <time>2018-01-13T10:37:51Z</time>
      </trkpt>
      <trkpt lat="27.938187" lon="-15.527547">
        <ele>1454.33</ele>
        <time>2018-01-13T10:37:53Z</time>
      </trkpt>
      <trkpt lat="27.938170" lon="-15.527540">
        <ele>1453.93</ele>
        <time>2018-01-13T10:37:55Z</time>
      </trkpt>
      <trkpt lat="27.938149" lon="-15.527525">
        <ele>1453.62</ele>
        <time>2018-01-13T10:37:57Z</time>
      </trkpt>
      <trkpt lat="27.938124" lon="-15.527503">
        <ele>1453.60</ele>
        <time>2018-01-13T10:37:59Z</time>
      </trkpt>
      <trkpt lat="27.938099" lon="-15.527482">
        <ele>1453.51</ele>
        <time>2018-01-13T10:38:01Z</time>
      </trkpt>
      <trkpt lat="27.938076" lon="-15.527462">
        <ele>1452.91</ele>
        <time>2018-01-13T10:38:03Z</time>
      </trkpt>
      <trkpt lat="27.938057" lon="-15.527451">
        <ele>1452.51</ele>
        <time>2018-01-13T10:38:05Z</time>
      </trkpt>
      <trkpt lat="27.938037" lon="-15.527436">
        <ele>1452.11</ele>
        <time>2018-01-13T10:38:07Z</time>
      </trkpt>
      <trkpt lat="27.938018" lon="-15.527421">
        <ele>1451.91</ele>
        <time>2018-01-13T10:38:09Z</time>
      </trkpt>
      <trkpt lat="27.937999" lon="-15.527409">
        <ele>1451.90</ele>
        <time>2018-01-13T10:38:11Z</time>
      </trkpt>
      <trkpt lat="27.937983" lon="-15.527395">
        <ele>1451.01</ele>
        <time>2018-01-13T10:38:13Z</time>
      </trkpt>
      <trkpt lat="27.937964" lon="-15.527378">
        <ele>1450.50</ele>
        <time>2018-01-13T10:38:15Z</time>
      </trkpt>
      <trkpt lat="27.937950" lon="-15.527360">
        <ele>1450.31</ele>
        <time>2018-01-13T10:38:17Z</time>
      </trkpt>
      <trkpt lat="27.937933" lon="-15.527335">
        <ele>1450.21</ele>
        <time>2018-01-13T10:38:20Z</time>
      </trkpt>
      <trkpt lat="27.937919" lon="-15.527311">
        <ele>1450.10</ele>
        <time>2018-01-13T10:38:22Z</time>
      </trkpt>
      <trkpt lat="27.937901" lon="-15.527288">
        <ele>1450.00</ele>
        <time>2018-01-13T10:38:24Z</time>
      </trkpt>
      <trkpt lat="27.937885" lon="-15.527273">
        <ele>1449.85</ele>
        <time>2018-01-13T10:38:26Z</time>
      </trkpt>
      <trkpt lat="27.937870" lon="-15.527248">
        <ele>1449.80</ele>
        <time>2018-01-13T10:38:28Z</time>
      </trkpt>
      <trkpt lat="27.937856" lon="-15.527222">
        <ele>1449.42</ele>
        <time>2018-01-13T10:38:30Z</time>
      </trkpt>
      <trkpt lat="27.937843" lon="-15.527196">
        <ele>1449.12</ele>
        <time>2018-01-13T10:38:32Z</time>
      </trkpt>
      <trkpt lat="27.937823" lon="-15.527169">
        <ele>1448.04</ele>
        <time>2018-01-13T10:38:35Z</time>
      </trkpt>
      <trkpt lat="27.937805" lon="-15.527150">
        <ele>1447.70</ele>
        <time>2018-01-13T10:38:37Z</time>
      </trkpt>
      <trkpt lat="27.937791" lon="-15.527122">
        <ele>1447.34</ele>
        <time>2018-01-13T10:38:39Z</time>
      </trkpt>
      <trkpt lat="27.937779" lon="-15.527092">
        <ele>1447.38</ele>
        <time>2018-01-13T10:38:41Z</time>
      </trkpt>
      <trkpt lat="27.937773" lon="-15.527067">
        <ele>1446.52</ele>
        <time>2018-01-13T10:38:43Z</time>
      </trkpt>
      <trkpt lat="27.937767" lon="-15.527044">
        <ele>1446.12</ele>
        <time>2018-01-13T10:38:45Z</time>
      </trkpt>
      <trkpt lat="27.937756" lon="-15.527021">
        <ele>1445.65</ele>
        <time>2018-01-13T10:38:47Z</time>
      </trkpt>
      <trkpt lat="27.937744" lon="-15.526998">
        <ele>1445.60</ele>
        <time>2018-01-13T10:38:49Z</time>
      </trkpt>
      <trkpt lat="27.937739" lon="-15.526972">
        <ele>1445.25</ele>
        <time>2018-01-13T10:38:51Z</time>
      </trkpt>
      <trkpt lat="27.937729" lon="-15.526945">
        <ele>1444.92</ele>
        <time>2018-01-13T10:38:53Z</time>
      </trkpt>
      <trkpt lat="27.937712" lon="-15.526919">
        <ele>1444.72</ele>
        <time>2018-01-13T10:38:55Z</time>
      </trkpt>
      <trkpt lat="27.937693" lon="-15.526898">
        <ele>1444.11</ele>
        <time>2018-01-13T10:38:57Z</time>
      </trkpt>
      <trkpt lat="27.937675" lon="-15.526880">
        <ele>1443.91</ele>
        <time>2018-01-13T10:38:59Z</time>
      </trkpt>
      <trkpt lat="27.937653" lon="-15.526865">
        <ele>1443.61</ele>
        <time>2018-01-13T10:39:01Z</time>
      </trkpt>
      <trkpt lat="27.937628" lon="-15.526850">
        <ele>1443.60</ele>
        <time>2018-01-13T10:39:03Z</time>
      </trkpt>
      <trkpt lat="27.937605" lon="-15.526835">
        <ele>1443.50</ele>
        <time>2018-01-13T10:39:05Z</time>
      </trkpt>
      <trkpt lat="27.937583" lon="-15.526822">
        <ele>1443.10</ele>
        <time>2018-01-13T10:39:07Z</time>
      </trkpt>
      <trkpt lat="27.937560" lon="-15.526804">
        <ele>1443.40</ele>
        <time>2018-01-13T10:39:09Z</time>
      </trkpt>
      <trkpt lat="27.937538" lon="-15.526784">
        <ele>1443.10</ele>
        <time>2018-01-13T10:39:11Z</time>
      </trkpt>
      <trkpt lat="27.937514" lon="-15.526764">
        <ele>1443.35</ele>
        <time>2018-01-13T10:39:13Z</time>
      </trkpt>
      <trkpt lat="27.937493" lon="-15.526744">
        <ele>1443.14</ele>
        <time>2018-01-13T10:39:15Z</time>
      </trkpt>
      <trkpt lat="27.937473" lon="-15.526723">
        <ele>1442.90</ele>
        <time>2018-01-13T10:39:17Z</time>
      </trkpt>
      <trkpt lat="27.937452" lon="-15.526703">
        <ele>1443.00</ele>
        <time>2018-01-13T10:39:19Z</time>
      </trkpt>
      <trkpt lat="27.937431" lon="-15.526683">
        <ele>1442.20</ele>
        <time>2018-01-13T10:39:21Z</time>
      </trkpt>
      <trkpt lat="27.937412" lon="-15.526662">
        <ele>1441.52</ele>
        <time>2018-01-13T10:39:23Z</time>
      </trkpt>
      <trkpt lat="27.937399" lon="-15.526642">
        <ele>1440.86</ele>
        <time>2018-01-13T10:39:25Z</time>
      </trkpt>
      <trkpt lat="27.937380" lon="-15.526620">
        <ele>1440.80</ele>
        <time>2018-01-13T10:39:27Z</time>
      </trkpt>
      <trkpt lat="27.937361" lon="-15.526597">
        <ele>1439.92</ele>
        <time>2018-01-13T10:39:29Z</time>
      </trkpt>
      <trkpt lat="27.937342" lon="-15.526575">
        <ele>1439.31</ele>
        <time>2018-01-13T10:39:31Z</time>
      </trkpt>
      <trkpt lat="27.937320" lon="-15.526552">
        <ele>1439.03</ele>
        <time>2018-01-13T10:39:33Z</time>
      </trkpt>
      <trkpt lat="27.937301" lon="-15.526529">
        <ele>1439.03</ele>
        <time>2018-01-13T10:39:35Z</time>
      </trkpt>
      <trkpt lat="27.937283" lon="-15.526506">
        <ele>1438.71</ele>
        <time>2018-01-13T10:39:37Z</time>
      </trkpt>
      <trkpt lat="27.937263" lon="-15.526485">
        <ele>1438.50</ele>
        <time>2018-01-13T10:39:39Z</time>
      </trkpt>
      <trkpt lat="27.937242" lon="-15.526457">
        <ele>1437.86</ele>
        <time>2018-01-13T10:39:41Z</time>
      </trkpt>
      <trkpt lat="27.937226" lon="-15.526433">
        <ele>1437.70</ele>
        <time>2018-01-13T10:39:43Z</time>
      </trkpt>
      <trkpt lat="27.937205" lon="-15.526411">
        <ele>1436.90</ele>
        <time>2018-01-13T10:39:48Z</time>
      </trkpt>
      <trkpt lat="27.937185" lon="-15.526392">
        <ele>1436.41</ele>
        <time>2018-01-13T10:39:50Z</time>
      </trkpt>
      <trkpt lat="27.937165" lon="-15.526374">
        <ele>1436.40</ele>
        <time>2018-01-13T10:39:52Z</time>
      </trkpt>
      <trkpt lat="27.937143" lon="-15.526359">
        <ele>1436.40</ele>
        <time>2018-01-13T10:39:54Z</time>
      </trkpt>
      <trkpt lat="27.937126" lon="-15.526343">
        <ele>1436.03</ele>
        <time>2018-01-13T10:39:56Z</time>
      </trkpt>
      <trkpt lat="27.937110" lon="-15.526324">
        <ele>1435.82</ele>
        <time>2018-01-13T10:39:58Z</time>
      </trkpt>
      <trkpt lat="27.937092" lon="-15.526308">
        <ele>1435.62</ele>
        <time>2018-01-13T10:40:00Z</time>
      </trkpt>
      <trkpt lat="27.937075" lon="-15.526290">
        <ele>1435.31</ele>
        <time>2018-01-13T10:40:02Z</time>
      </trkpt>
      <trkpt lat="27.937059" lon="-15.526269">
        <ele>1435.11</ele>
        <time>2018-01-13T10:40:04Z</time>
      </trkpt>
      <trkpt lat="27.937042" lon="-15.526250">
        <ele>1434.34</ele>
        <time>2018-01-13T10:40:06Z</time>
      </trkpt>
      <trkpt lat="27.937021" lon="-15.526230">
        <ele>1434.30</ele>
        <time>2018-01-13T10:40:08Z</time>
      </trkpt>
      <trkpt lat="27.936996" lon="-15.526209">
        <ele>1433.92</ele>
        <time>2018-01-13T10:40:10Z</time>
      </trkpt>
      <trkpt lat="27.936980" lon="-15.526188">
        <ele>1433.60</ele>
        <time>2018-01-13T10:40:12Z</time>
      </trkpt>
      <trkpt lat="27.936967" lon="-15.526167">
        <ele>1433.62</ele>
        <time>2018-01-13T10:40:14Z</time>
      </trkpt>
      <trkpt lat="27.936952" lon="-15.526142">
        <ele>1432.92</ele>
        <time>2018-01-13T10:40:16Z</time>
      </trkpt>
      <trkpt lat="27.936932" lon="-15.526117">
        <ele>1432.80</ele>
        <time>2018-01-13T10:40:18Z</time>
      </trkpt>
      <trkpt lat="27.936912" lon="-15.526098">
        <ele>1432.50</ele>
        <time>2018-01-13T10:40:20Z</time>
      </trkpt>
      <trkpt lat="27.936892" lon="-15.526082">
        <ele>1432.50</ele>
        <time>2018-01-13T10:40:22Z</time>
      </trkpt>
      <trkpt lat="27.936869" lon="-15.526065">
        <ele>1431.91</ele>
        <time>2018-01-13T10:40:24Z</time>
      </trkpt>
      <trkpt lat="27.936853" lon="-15.526045">
        <ele>1431.61</ele>
        <time>2018-01-13T10:40:26Z</time>
      </trkpt>
      <trkpt lat="27.936834" lon="-15.526023">
        <ele>1431.70</ele>
        <time>2018-01-13T10:40:28Z</time>
      </trkpt>
      <trkpt lat="27.936816" lon="-15.526006">
        <ele>1431.80</ele>
        <time>2018-01-13T10:40:30Z</time>
      </trkpt>
      <trkpt lat="27.936797" lon="-15.525984">
        <ele>1431.80</ele>
        <time>2018-01-13T10:40:32Z</time>
      </trkpt>
      <trkpt lat="27.936776" lon="-15.525961">
        <ele>1431.23</ele>
        <time>2018-01-13T10:40:34Z</time>
      </trkpt>
      <trkpt lat="27.936759" lon="-15.525941">
        <ele>1431.20</ele>
        <time>2018-01-13T10:40:36Z</time>
      </trkpt>
      <trkpt lat="27.936742" lon="-15.525919">
        <ele>1430.99</ele>
        <time>2018-01-13T10:40:38Z</time>
      </trkpt>
      <trkpt lat="27.936727" lon="-15.525895">
        <ele>1431.00</ele>
        <time>2018-01-13T10:40:40Z</time>
      </trkpt>
      <trkpt lat="27.936711" lon="-15.525872">
        <ele>1430.81</ele>
        <time>2018-01-13T10:40:42Z</time>
      </trkpt>
      <trkpt lat="27.936695" lon="-15.525850">
        <ele>1430.70</ele>
        <time>2018-01-13T10:40:44Z</time>
      </trkpt>
      <trkpt lat="27.936676" lon="-15.525828">
        <ele>1430.50</ele>
        <time>2018-01-13T10:40:46Z</time>
      </trkpt>
      <trkpt lat="27.936656" lon="-15.525804">
        <ele>1430.50</ele>
        <time>2018-01-13T10:40:48Z</time>
      </trkpt>
      <trkpt lat="27.936632" lon="-15.525781">
        <ele>1429.92</ele>
        <time>2018-01-13T10:40:50Z</time>
      </trkpt>
      <trkpt lat="27.936610" lon="-15.525760">
        <ele>1429.70</ele>
        <time>2018-01-13T10:40:52Z</time>
      </trkpt>
      <trkpt lat="27.936588" lon="-15.525740">
        <ele>1429.50</ele>
        <time>2018-01-13T10:40:54Z</time>
      </trkpt>
      <trkpt lat="27.936568" lon="-15.525721">
        <ele>1429.00</ele>
        <time>2018-01-13T10:40:56Z</time>
      </trkpt>
      <trkpt lat="27.936549" lon="-15.525701">
        <ele>1429.00</ele>
        <time>2018-01-13T10:40:58Z</time>
      </trkpt>
      <trkpt lat="27.936528" lon="-15.525677">
        <ele>1429.20</ele>
        <time>2018-01-13T10:41:00Z</time>
      </trkpt>
      <trkpt lat="27.936509" lon="-15.525653">
        <ele>1429.20</ele>
        <time>2018-01-13T10:41:02Z</time>
      </trkpt>
      <trkpt lat="27.936490" lon="-15.525627">
        <ele>1428.91</ele>
        <time>2018-01-13T10:41:04Z</time>
      </trkpt>
      <trkpt lat="27.936472" lon="-15.525605">
        <ele>1428.80</ele>
        <time>2018-01-13T10:41:06Z</time>
      </trkpt>
      <trkpt lat="27.936452" lon="-15.525588">
        <ele>1428.51</ele>
        <time>2018-01-13T10:41:08Z</time>
      </trkpt>
      <trkpt lat="27.936433" lon="-15.525572">
        <ele>1428.50</ele>
        <time>2018-01-13T10:41:10Z</time>
      </trkpt>
      <trkpt lat="27.936417" lon="-15.525549">
        <ele>1428.00</ele>
        <time>2018-01-13T10:41:12Z</time>
      </trkpt>
      <trkpt lat="27.936398" lon="-15.525526">
        <ele>1428.00</ele>
        <time>2018-01-13T10:41:14Z</time>
      </trkpt>
      <trkpt lat="27.936379" lon="-15.525498">
        <ele>1427.90</ele>
        <time>2018-01-13T10:41:16Z</time>
      </trkpt>
      <trkpt lat="27.936362" lon="-15.525466">
        <ele>1427.32</ele>
        <time>2018-01-13T10:41:18Z</time>
      </trkpt>
      <trkpt lat="27.936345" lon="-15.525436">
        <ele>1427.60</ele>
        <time>2018-01-13T10:41:20Z</time>
      </trkpt>
      <trkpt lat="27.936336" lon="-15.525404">
        <ele>1427.31</ele>
        <time>2018-01-13T10:41:22Z</time>
      </trkpt>
      <trkpt lat="27.936331" lon="-15.525377">
        <ele>1427.30</ele>
        <time>2018-01-13T10:41:24Z</time>
      </trkpt>
      <trkpt lat="27.936326" lon="-15.525350">
        <ele>1427.30</ele>
        <time>2018-01-13T10:41:26Z</time>
      </trkpt>
      <trkpt lat="27.936317" lon="-15.525320">
        <ele>1427.01</ele>
        <time>2018-01-13T10:41:28Z</time>
      </trkpt>
      <trkpt lat="27.936310" lon="-15.525293">
        <ele>1427.10</ele>
        <time>2018-01-13T10:41:30Z</time>
      </trkpt>
      <trkpt lat="27.936303" lon="-15.525264">
        <ele>1427.00</ele>
        <time>2018-01-13T10:41:32Z</time>
      </trkpt>
      <trkpt lat="27.936296" lon="-15.525233">
        <ele>1427.00</ele>
        <time>2018-01-13T10:41:34Z</time>
      </trkpt>
      <trkpt lat="27.936288" lon="-15.525205">
        <ele>1426.60</ele>
        <time>2018-01-13T10:41:36Z</time>
      </trkpt>
      <trkpt lat="27.936281" lon="-15.525174">
        <ele>1426.60</ele>
        <time>2018-01-13T10:41:38Z</time>
      </trkpt>
      <trkpt lat="27.936276" lon="-15.525144">
        <ele>1426.11</ele>
        <time>2018-01-13T10:41:40Z</time>
      </trkpt>
      <trkpt lat="27.936271" lon="-15.525113">
        <ele>1425.80</ele>
        <time>2018-01-13T10:41:42Z</time>
      </trkpt>
      <trkpt lat="27.936266" lon="-15.525083">
        <ele>1425.60</ele>
        <time>2018-01-13T10:41:44Z</time>
      </trkpt>
      <trkpt lat="27.936263" lon="-15.525056">
        <ele>1425.30</ele>
        <time>2018-01-13T10:41:46Z</time>
      </trkpt>
      <trkpt lat="27.936260" lon="-15.525030">
        <ele>1425.30</ele>
        <time>2018-01-13T10:41:48Z</time>
      </trkpt>
      <trkpt lat="27.936258" lon="-15.525003">
        <ele>1424.71</ele>
        <time>2018-01-13T10:41:50Z</time>
      </trkpt>
      <trkpt lat="27.936253" lon="-15.524974">
        <ele>1424.60</ele>
        <time>2018-01-13T10:41:52Z</time>
      </trkpt>
      <trkpt lat="27.936246" lon="-15.524947">
        <ele>1424.60</ele>
        <time>2018-01-13T10:41:54Z</time>
      </trkpt>
      <trkpt lat="27.936241" lon="-15.524922">
        <ele>1424.60</ele>
        <time>2018-01-13T10:41:56Z</time>
      </trkpt>
      <trkpt lat="27.936236" lon="-15.524896">
        <ele>1424.40</ele>
        <time>2018-01-13T10:41:58Z</time>
      </trkpt>
      <trkpt lat="27.936228" lon="-15.524870">
        <ele>1424.10</ele>
        <time>2018-01-13T10:42:00Z</time>
      </trkpt>
      <trkpt lat="27.936223" lon="-15.524842">
        <ele>1424.10</ele>
        <time>2018-01-13T10:42:02Z</time>
      </trkpt>
      <trkpt lat="27.936217" lon="-15.524811">
        <ele>1423.80</ele>
        <time>2018-01-13T10:42:04Z</time>
      </trkpt>
      <trkpt lat="27.936216" lon="-15.524785">
        <ele>1423.79</ele>
        <time>2018-01-13T10:42:06Z</time>
      </trkpt>
      <trkpt lat="27.936212" lon="-15.524755">
        <ele>1423.10</ele>
        <time>2018-01-13T10:42:08Z</time>
      </trkpt>
      <trkpt lat="27.936202" lon="-15.524729">
        <ele>1423.10</ele>
        <time>2018-01-13T10:42:10Z</time>
      </trkpt>
      <trkpt lat="27.936193" lon="-15.524700">
        <ele>1422.99</ele>
        <time>2018-01-13T10:42:12Z</time>
      </trkpt>
      <trkpt lat="27.936191" lon="-15.524673">
        <ele>1422.69</ele>
        <time>2018-01-13T10:42:14Z</time>
      </trkpt>
      <trkpt lat="27.936184" lon="-15.524646">
        <ele>1421.80</ele>
        <time>2018-01-13T10:42:16Z</time>
      </trkpt>
      <trkpt lat="27.936179" lon="-15.524616">
        <ele>1421.80</ele>
        <time>2018-01-13T10:42:18Z</time>
      </trkpt>
      <trkpt lat="27.936172" lon="-15.524587">
        <ele>1421.70</ele>
        <time>2018-01-13T10:42:20Z</time>
      </trkpt>
      <trkpt lat="27.936168" lon="-15.524562">
        <ele>1421.39</ele>
        <time>2018-01-13T10:42:22Z</time>
      </trkpt>
      <trkpt lat="27.936158" lon="-15.524534">
        <ele>1420.79</ele>
        <time>2018-01-13T10:42:24Z</time>
      </trkpt>
      <trkpt lat="27.936147" lon="-15.524506">
        <ele>1420.40</ele>
        <time>2018-01-13T10:42:26Z</time>
      </trkpt>
      <trkpt lat="27.936142" lon="-15.524478">
        <ele>1420.20</ele>
        <time>2018-01-13T10:42:28Z</time>
      </trkpt>
      <trkpt lat="27.936134" lon="-15.524455">
        <ele>1420.10</ele>
        <time>2018-01-13T10:42:30Z</time>
      </trkpt>
      <trkpt lat="27.936125" lon="-15.524428">
        <ele>1419.89</ele>
        <time>2018-01-13T10:42:32Z</time>
      </trkpt>
      <trkpt lat="27.936119" lon="-15.524404">
        <ele>1419.40</ele>
        <time>2018-01-13T10:42:34Z</time>
      </trkpt>
      <trkpt lat="27.936114" lon="-15.524381">
        <ele>1419.30</ele>
        <time>2018-01-13T10:42:36Z</time>
      </trkpt>
      <trkpt lat="27.936105" lon="-15.524355">
        <ele>1419.28</ele>
        <time>2018-01-13T10:42:38Z</time>
      </trkpt>
      <trkpt lat="27.936093" lon="-15.524328">
        <ele>1418.79</ele>
        <time>2018-01-13T10:42:40Z</time>
      </trkpt>
      <trkpt lat="27.936081" lon="-15.524306">
        <ele>1418.81</ele>
        <time>2018-01-13T10:42:42Z</time>
      </trkpt>
      <trkpt lat="27.936070" lon="-15.524287">
        <ele>1419.18</ele>
        <time>2018-01-13T10:42:44Z</time>
      </trkpt>
      <trkpt lat="27.936061" lon="-15.524263">
        <ele>1418.70</ele>
        <time>2018-01-13T10:42:46Z</time>
      </trkpt>
      <trkpt lat="27.936051" lon="-15.524232">
        <ele>1418.47</ele>
        <time>2018-01-13T10:42:48Z</time>
      </trkpt>
      <trkpt lat="27.936039" lon="-15.524207">
        <ele>1418.04</ele>
        <time>2018-01-13T10:42:50Z</time>
      </trkpt>
      <trkpt lat="27.936027" lon="-15.524182">
        <ele>1417.20</ele>
        <time>2018-01-13T10:42:52Z</time>
      </trkpt>
      <trkpt lat="27.936018" lon="-15.524155">
        <ele>1417.21</ele>
        <time>2018-01-13T10:42:54Z</time>
      </trkpt>
      <trkpt lat="27.936004" lon="-15.524132">
        <ele>1417.20</ele>
        <time>2018-01-13T10:42:56Z</time>
      </trkpt>
      <trkpt lat="27.935993" lon="-15.524111">
        <ele>1417.08</ele>
        <time>2018-01-13T10:42:58Z</time>
      </trkpt>
      <trkpt lat="27.935982" lon="-15.524087">
        <ele>1416.41</ele>
        <time>2018-01-13T10:43:00Z</time>
      </trkpt>
      <trkpt lat="27.935973" lon="-15.524063">
        <ele>1415.60</ele>
        <time>2018-01-13T10:43:02Z</time>
      </trkpt>
      <trkpt lat="27.935961" lon="-15.524039">
        <ele>1415.42</ele>
        <time>2018-01-13T10:43:04Z</time>
      </trkpt>
      <trkpt lat="27.935948" lon="-15.524019">
        <ele>1415.60</ele>
        <time>2018-01-13T10:43:06Z</time>
      </trkpt>
      <trkpt lat="27.935935" lon="-15.523995">
        <ele>1415.51</ele>
        <time>2018-01-13T10:43:08Z</time>
      </trkpt>
      <trkpt lat="27.935924" lon="-15.523969">
        <ele>1414.70</ele>
        <time>2018-01-13T10:43:10Z</time>
      </trkpt>
      <trkpt lat="27.935912" lon="-15.523951">
        <ele>1414.46</ele>
        <time>2018-01-13T10:43:12Z</time>
      </trkpt>
      <trkpt lat="27.935902" lon="-15.523928">
        <ele>1414.16</ele>
        <time>2018-01-13T10:43:14Z</time>
      </trkpt>
      <trkpt lat="27.935888" lon="-15.523900">
        <ele>1412.96</ele>
        <time>2018-01-13T10:43:17Z</time>
      </trkpt>
      <trkpt lat="27.935880" lon="-15.523881">
        <ele>1412.60</ele>
        <time>2018-01-13T10:43:19Z</time>
      </trkpt>
      <trkpt lat="27.935868" lon="-15.523857">
        <ele>1412.22</ele>
        <time>2018-01-13T10:43:22Z</time>
      </trkpt>
      <trkpt lat="27.935856" lon="-15.523836">
        <ele>1411.65</ele>
        <time>2018-01-13T10:43:24Z</time>
      </trkpt>
      <trkpt lat="27.935841" lon="-15.523813">
        <ele>1410.60</ele>
        <time>2018-01-13T10:43:27Z</time>
      </trkpt>
      <trkpt lat="27.935828" lon="-15.523790">
        <ele>1410.60</ele>
        <time>2018-01-13T10:43:29Z</time>
      </trkpt>
      <trkpt lat="27.935818" lon="-15.523772">
        <ele>1410.30</ele>
        <time>2018-01-13T10:43:31Z</time>
      </trkpt>
      <trkpt lat="27.935806" lon="-15.523752">
        <ele>1410.01</ele>
        <time>2018-01-13T10:43:33Z</time>
      </trkpt>
      <trkpt lat="27.935794" lon="-15.523728">
        <ele>1410.00</ele>
        <time>2018-01-13T10:43:36Z</time>
      </trkpt>
      <trkpt lat="27.935779" lon="-15.523704">
        <ele>1409.86</ele>
        <time>2018-01-13T10:43:38Z</time>
      </trkpt>
      <trkpt lat="27.935764" lon="-15.523679">
        <ele>1409.49</ele>
        <time>2018-01-13T10:43:40Z</time>
      </trkpt>
      <trkpt lat="27.935748" lon="-15.523650">
        <ele>1409.29</ele>
        <time>2018-01-13T10:43:42Z</time>
      </trkpt>
      <trkpt lat="27.935732" lon="-15.523625">
        <ele>1409.29</ele>
        <time>2018-01-13T10:43:44Z</time>
      </trkpt>
      <trkpt lat="27.935714" lon="-15.523606">
        <ele>1409.09</ele>
        <time>2018-01-13T10:43:46Z</time>
      </trkpt>
      <trkpt lat="27.935693" lon="-15.523589">
        <ele>1409.00</ele>
        <time>2018-01-13T10:43:48Z</time>
      </trkpt>
      <trkpt lat="27.935669" lon="-15.523578">
        <ele>1408.50</ele>
        <time>2018-01-13T10:43:50Z</time>
      </trkpt>
      <trkpt lat="27.935647" lon="-15.523565">
        <ele>1407.80</ele>
        <time>2018-01-13T10:43:52Z</time>
      </trkpt>
      <trkpt lat="27.935624" lon="-15.523553">
        <ele>1407.68</ele>
        <time>2018-01-13T10:43:54Z</time>
      </trkpt>
      <trkpt lat="27.935603" lon="-15.523540">
        <ele>1407.15</ele>
        <time>2018-01-13T10:43:56Z</time>
      </trkpt>
      <trkpt lat="27.935581" lon="-15.523529">
        <ele>1406.87</ele>
        <time>2018-01-13T10:43:58Z</time>
      </trkpt>
      <trkpt lat="27.935563" lon="-15.523514">
        <ele>1406.68</ele>
        <time>2018-01-13T10:44:00Z</time>
      </trkpt>
      <trkpt lat="27.935544" lon="-15.523489">
        <ele>1406.47</ele>
        <time>2018-01-13T10:44:02Z</time>
      </trkpt>
      <trkpt lat="27.935533" lon="-15.523464">
        <ele>1406.24</ele>
        <time>2018-01-13T10:44:04Z</time>
      </trkpt>
      <trkpt lat="27.935525" lon="-15.523438">
        <ele>1405.77</ele>
        <time>2018-01-13T10:44:06Z</time>
      </trkpt>
      <trkpt lat="27.935517" lon="-15.523408">
        <ele>1405.48</ele>
        <time>2018-01-13T10:44:08Z</time>
      </trkpt>
      <trkpt lat="27.935513" lon="-15.523381">
        <ele>1404.98</ele>
        <time>2018-01-13T10:44:10Z</time>
      </trkpt>
      <trkpt lat="27.935505" lon="-15.523349">
        <ele>1404.20</ele>
        <time>2018-01-13T10:44:12Z</time>
      </trkpt>
      <trkpt lat="27.935504" lon="-15.523323">
        <ele>1404.20</ele>
        <time>2018-01-13T10:44:14Z</time>
      </trkpt>
      <trkpt lat="27.935499" lon="-15.523294">
        <ele>1404.02</ele>
        <time>2018-01-13T10:44:16Z</time>
      </trkpt>
      <trkpt lat="27.935494" lon="-15.523267">
        <ele>1404.00</ele>
        <time>2018-01-13T10:44:18Z</time>
      </trkpt>
      <trkpt lat="27.935483" lon="-15.523237">
        <ele>1403.80</ele>
        <time>2018-01-13T10:44:20Z</time>
      </trkpt>
      <trkpt lat="27.935474" lon="-15.523208">
        <ele>1403.63</ele>
        <time>2018-01-13T10:44:22Z</time>
      </trkpt>
      <trkpt lat="27.935467" lon="-15.523178">
        <ele>1403.55</ele>
        <time>2018-01-13T10:44:24Z</time>
      </trkpt>
      <trkpt lat="27.935466" lon="-15.523141">
        <ele>1403.18</ele>
        <time>2018-01-13T10:44:26Z</time>
      </trkpt>
      <trkpt lat="27.935466" lon="-15.523103">
        <ele>1403.20</ele>
        <time>2018-01-13T10:44:28Z</time>
      </trkpt>
      <trkpt lat="27.935461" lon="-15.523073">
        <ele>1403.24</ele>
        <time>2018-01-13T10:44:30Z</time>
      </trkpt>
      <trkpt lat="27.935460" lon="-15.523043">
        <ele>1403.44</ele>
        <time>2018-01-13T10:44:32Z</time>
      </trkpt>
      <trkpt lat="27.935457" lon="-15.523012">
        <ele>1403.60</ele>
        <time>2018-01-13T10:44:34Z</time>
      </trkpt>
      <trkpt lat="27.935451" lon="-15.522978">
        <ele>1403.30</ele>
        <time>2018-01-13T10:44:36Z</time>
      </trkpt>
      <trkpt lat="27.935447" lon="-15.522945">
        <ele>1403.18</ele>
        <time>2018-01-13T10:44:38Z</time>
      </trkpt>
      <trkpt lat="27.935444" lon="-15.522909">
        <ele>1403.12</ele>
        <time>2018-01-13T10:44:40Z</time>
      </trkpt>
      <trkpt lat="27.935443" lon="-15.522871">
        <ele>1403.20</ele>
        <time>2018-01-13T10:44:42Z</time>
      </trkpt>
      <trkpt lat="27.935442" lon="-15.522837">
        <ele>1403.04</ele>
        <time>2018-01-13T10:44:44Z</time>
      </trkpt>
      <trkpt lat="27.935435" lon="-15.522803">
        <ele>1402.30</ele>
        <time>2018-01-13T10:44:46Z</time>
      </trkpt>
      <trkpt lat="27.935421" lon="-15.522772">
        <ele>1402.54</ele>
        <time>2018-01-13T10:44:50Z</time>
      </trkpt>
      <trkpt lat="27.935409" lon="-15.522746">
        <ele>1402.54</ele>
        <time>2018-01-13T10:44:52Z</time>
      </trkpt>
      <trkpt lat="27.935400" lon="-15.522714">
        <ele>1402.70</ele>
        <time>2018-01-13T10:44:54Z</time>
      </trkpt>
      <trkpt lat="27.935387" lon="-15.522681">
        <ele>1402.18</ele>
        <time>2018-01-13T10:44:56Z</time>
      </trkpt>
      <trkpt lat="27.935382" lon="-15.522651">
        <ele>1401.89</ele>
        <time>2018-01-13T10:44:58Z</time>
      </trkpt>
      <trkpt lat="27.935377" lon="-15.522620">
        <ele>1401.48</ele>
        <time>2018-01-13T10:45:00Z</time>
      </trkpt>
      <trkpt lat="27.935365" lon="-15.522593">
        <ele>1401.30</ele>
        <time>2018-01-13T10:45:02Z</time>
      </trkpt>
      <trkpt lat="27.935355" lon="-15.522564">
        <ele>1400.40</ele>
        <time>2018-01-13T10:45:04Z</time>
      </trkpt>
      <trkpt lat="27.935358" lon="-15.522535">
        <ele>1400.40</ele>
        <time>2018-01-13T10:45:06Z</time>
      </trkpt>
      <trkpt lat="27.935368" lon="-15.522503">
        <ele>1400.52</ele>
        <time>2018-01-13T10:45:09Z</time>
      </trkpt>
      <trkpt lat="27.935366" lon="-15.522477">
        <ele>1400.60</ele>
        <time>2018-01-13T10:45:11Z</time>
      </trkpt>
      <trkpt lat="27.935359" lon="-15.522449">
        <ele>1400.40</ele>
        <time>2018-01-13T10:45:13Z</time>
      </trkpt>
      <trkpt lat="27.935347" lon="-15.522422">
        <ele>1400.24</ele>
        <time>2018-01-13T10:45:15Z</time>
      </trkpt>
      <trkpt lat="27.935337" lon="-15.522391">
        <ele>1400.06</ele>
        <time>2018-01-13T10:45:17Z</time>
      </trkpt>
      <trkpt lat="27.935327" lon="-15.522362">
        <ele>1400.42</ele>
        <time>2018-01-13T10:45:19Z</time>
      </trkpt>
      <trkpt lat="27.935309" lon="-15.522334">
        <ele>1401.20</ele>
        <time>2018-01-13T10:45:21Z</time>
      </trkpt>
      <trkpt lat="27.935292" lon="-15.522305">
        <ele>1401.16</ele>
        <time>2018-01-13T10:45:23Z</time>
      </trkpt>
      <trkpt lat="27.935279" lon="-15.522272">
        <ele>1400.88</ele>
        <time>2018-01-13T10:45:25Z</time>
      </trkpt>
      <trkpt lat="27.935265" lon="-15.522239">
        <ele>1400.88</ele>
        <time>2018-01-13T10:45:27Z</time>
      </trkpt>
      <trkpt lat="27.935255" lon="-15.522208">
        <ele>1400.98</ele>
        <time>2018-01-13T10:45:29Z</time>
      </trkpt>
      <trkpt lat="27.935240" lon="-15.522175">
        <ele>1401.30</ele>
        <time>2018-01-13T10:45:31Z</time>
      </trkpt>
      <trkpt lat="27.935227" lon="-15.522146">
        <ele>1401.30</ele>
        <time>2018-01-13T10:45:33Z</time>
      </trkpt>
      <trkpt lat="27.935215" lon="-15.522118">
        <ele>1401.60</ele>
        <time>2018-01-13T10:45:35Z</time>
      </trkpt>
      <trkpt lat="27.935203" lon="-15.522085">
        <ele>1401.70</ele>
        <time>2018-01-13T10:45:37Z</time>
      </trkpt>
      <trkpt lat="27.935192" lon="-15.522054">
        <ele>1401.76</ele>
        <time>2018-01-13T10:45:39Z</time>
      </trkpt>
      <trkpt lat="27.935181" lon="-15.522024">
        <ele>1402.16</ele>
        <time>2018-01-13T10:45:41Z</time>
      </trkpt>
      <trkpt lat="27.935170" lon="-15.521992">
        <ele>1402.16</ele>
        <time>2018-01-13T10:45:43Z</time>
      </trkpt>
      <trkpt lat="27.935162" lon="-15.521962">
        <ele>1401.98</ele>
        <time>2018-01-13T10:45:45Z</time>
      </trkpt>
      <trkpt lat="27.935151" lon="-15.521929">
        <ele>1401.80</ele>
        <time>2018-01-13T10:45:47Z</time>
      </trkpt>
      <trkpt lat="27.935141" lon="-15.521899">
        <ele>1401.38</ele>
        <time>2018-01-13T10:45:49Z</time>
      </trkpt>
      <trkpt lat="27.935130" lon="-15.521873">
        <ele>1401.32</ele>
        <time>2018-01-13T10:45:51Z</time>
      </trkpt>
      <trkpt lat="27.935117" lon="-15.521843">
        <ele>1401.40</ele>
        <time>2018-01-13T10:45:53Z</time>
      </trkpt>
      <trkpt lat="27.935103" lon="-15.521814">
        <ele>1401.40</ele>
        <time>2018-01-13T10:45:55Z</time>
      </trkpt>
      <trkpt lat="27.935086" lon="-15.521785">
        <ele>1401.40</ele>
        <time>2018-01-13T10:45:57Z</time>
      </trkpt>
      <trkpt lat="27.935066" lon="-15.521760">
        <ele>1401.16</ele>
        <time>2018-01-13T10:45:59Z</time>
      </trkpt>
      <trkpt lat="27.935045" lon="-15.521737">
        <ele>1400.96</ele>
        <time>2018-01-13T10:46:01Z</time>
      </trkpt>
      <trkpt lat="27.935025" lon="-15.521717">
        <ele>1401.00</ele>
        <time>2018-01-13T10:46:03Z</time>
      </trkpt>
      <trkpt lat="27.935003" lon="-15.521696">
        <ele>1401.06</ele>
        <time>2018-01-13T10:46:05Z</time>
      </trkpt>
      <trkpt lat="27.934982" lon="-15.521676">
        <ele>1400.82</ele>
        <time>2018-01-13T10:46:07Z</time>
      </trkpt>
      <trkpt lat="27.934962" lon="-15.521654">
        <ele>1400.48</ele>
        <time>2018-01-13T10:46:09Z</time>
      </trkpt>
      <trkpt lat="27.934938" lon="-15.521632">
        <ele>1400.12</ele>
        <time>2018-01-13T10:46:11Z</time>
      </trkpt>
      <trkpt lat="27.934915" lon="-15.521609">
        <ele>1399.69</ele>
        <time>2018-01-13T10:46:13Z</time>
      </trkpt>
      <trkpt lat="27.934895" lon="-15.521587">
        <ele>1399.20</ele>
        <time>2018-01-13T10:46:15Z</time>
      </trkpt>
      <trkpt lat="27.934877" lon="-15.521568">
        <ele>1399.30</ele>
        <time>2018-01-13T10:46:17Z</time>
      </trkpt>
      <trkpt lat="27.934850" lon="-15.521549">
        <ele>1398.88</ele>
        <time>2018-01-13T10:46:19Z</time>
      </trkpt>
      <trkpt lat="27.934830" lon="-15.521530">
        <ele>1398.78</ele>
        <time>2018-01-13T10:46:21Z</time>
      </trkpt>
      <trkpt lat="27.934815" lon="-15.521505">
        <ele>1398.57</ele>
        <time>2018-01-13T10:46:24Z</time>
      </trkpt>
      <trkpt lat="27.934797" lon="-15.521483">
        <ele>1398.50</ele>
        <time>2018-01-13T10:46:26Z</time>
      </trkpt>
      <trkpt lat="27.934780" lon="-15.521460">
        <ele>1398.33</ele>
        <time>2018-01-13T10:46:28Z</time>
      </trkpt>
      <trkpt lat="27.934759" lon="-15.521437">
        <ele>1397.70</ele>
        <time>2018-01-13T10:46:30Z</time>
      </trkpt>
      <trkpt lat="27.934742" lon="-15.521416">
        <ele>1397.07</ele>
        <time>2018-01-13T10:46:32Z</time>
      </trkpt>
      <trkpt lat="27.934724" lon="-15.521396">
        <ele>1396.75</ele>
        <time>2018-01-13T10:46:34Z</time>
      </trkpt>
      <trkpt lat="27.934704" lon="-15.521379">
        <ele>1396.50</ele>
        <time>2018-01-13T10:46:36Z</time>
      </trkpt>
      <trkpt lat="27.934687" lon="-15.521363">
        <ele>1396.07</ele>
        <time>2018-01-13T10:46:38Z</time>
      </trkpt>
      <trkpt lat="27.934672" lon="-15.521339">
        <ele>1395.92</ele>
        <time>2018-01-13T10:46:40Z</time>
      </trkpt>
      <trkpt lat="27.934654" lon="-15.521321">
        <ele>1395.70</ele>
        <time>2018-01-13T10:46:42Z</time>
      </trkpt>
      <trkpt lat="27.934633" lon="-15.521300">
        <ele>1395.73</ele>
        <time>2018-01-13T10:46:44Z</time>
      </trkpt>
      <trkpt lat="27.934612" lon="-15.521281">
        <ele>1395.70</ele>
        <time>2018-01-13T10:46:46Z</time>
      </trkpt>
      <trkpt lat="27.934591" lon="-15.521259">
        <ele>1395.23</ele>
        <time>2018-01-13T10:46:48Z</time>
      </trkpt>
      <trkpt lat="27.934567" lon="-15.521236">
        <ele>1394.70</ele>
        <time>2018-01-13T10:46:50Z</time>
      </trkpt>
      <trkpt lat="27.934547" lon="-15.521214">
        <ele>1394.70</ele>
        <time>2018-01-13T10:46:52Z</time>
      </trkpt>
      <trkpt lat="27.934526" lon="-15.521196">
        <ele>1394.80</ele>
        <time>2018-01-13T10:46:54Z</time>
      </trkpt>
      <trkpt lat="27.934507" lon="-15.521177">
        <ele>1394.87</ele>
        <time>2018-01-13T10:46:56Z</time>
      </trkpt>
      <trkpt lat="27.934488" lon="-15.521157">
        <ele>1394.77</ele>
        <time>2018-01-13T10:46:58Z</time>
      </trkpt>
      <trkpt lat="27.934468" lon="-15.521135">
        <ele>1394.47</ele>
        <time>2018-01-13T10:47:00Z</time>
      </trkpt>
      <trkpt lat="27.934449" lon="-15.521112">
        <ele>1394.20</ele>
        <time>2018-01-13T10:47:02Z</time>
      </trkpt>
      <trkpt lat="27.934430" lon="-15.521087">
        <ele>1394.17</ele>
        <time>2018-01-13T10:47:04Z</time>
      </trkpt>
      <trkpt lat="27.934411" lon="-15.521060">
        <ele>1393.94</ele>
        <time>2018-01-13T10:47:06Z</time>
      </trkpt>
      <trkpt lat="27.934392" lon="-15.521035">
        <ele>1393.70</ele>
        <time>2018-01-13T10:47:08Z</time>
      </trkpt>
      <trkpt lat="27.934378" lon="-15.521006">
        <ele>1393.57</ele>
        <time>2018-01-13T10:47:10Z</time>
      </trkpt>
      <trkpt lat="27.934361" lon="-15.520979">
        <ele>1393.04</ele>
        <time>2018-01-13T10:47:12Z</time>
      </trkpt>
      <trkpt lat="27.934347" lon="-15.520955">
        <ele>1392.90</ele>
        <time>2018-01-13T10:47:14Z</time>
      </trkpt>
      <trkpt lat="27.934331" lon="-15.520929">
        <ele>1392.90</ele>
        <time>2018-01-13T10:47:16Z</time>
      </trkpt>
      <trkpt lat="27.934312" lon="-15.520903">
        <ele>1392.90</ele>
        <time>2018-01-13T10:47:18Z</time>
      </trkpt>
      <trkpt lat="27.934292" lon="-15.520878">
        <ele>1392.84</ele>
        <time>2018-01-13T10:47:20Z</time>
      </trkpt>
      <trkpt lat="27.934271" lon="-15.520854">
        <ele>1392.60</ele>
        <time>2018-01-13T10:47:22Z</time>
      </trkpt>
      <trkpt lat="27.934251" lon="-15.520828">
        <ele>1392.30</ele>
        <time>2018-01-13T10:47:24Z</time>
      </trkpt>
      <trkpt lat="27.934232" lon="-15.520803">
        <ele>1392.10</ele>
        <time>2018-01-13T10:47:26Z</time>
      </trkpt>
      <trkpt lat="27.934216" lon="-15.520778">
        <ele>1392.10</ele>
        <time>2018-01-13T10:47:28Z</time>
      </trkpt>
      <trkpt lat="27.934197" lon="-15.520752">
        <ele>1392.24</ele>
        <time>2018-01-13T10:47:30Z</time>
      </trkpt>
      <trkpt lat="27.934180" lon="-15.520724">
        <ele>1392.10</ele>
        <time>2018-01-13T10:47:32Z</time>
      </trkpt>
      <trkpt lat="27.934163" lon="-15.520699">
        <ele>1392.10</ele>
        <time>2018-01-13T10:47:34Z</time>
      </trkpt>
      <trkpt lat="27.934144" lon="-15.520674">
        <ele>1392.10</ele>
        <time>2018-01-13T10:47:36Z</time>
      </trkpt>
      <trkpt lat="27.934127" lon="-15.520650">
        <ele>1392.10</ele>
        <time>2018-01-13T10:47:38Z</time>
      </trkpt>
      <trkpt lat="27.934109" lon="-15.520626">
        <ele>1392.13</ele>
        <time>2018-01-13T10:47:40Z</time>
      </trkpt>
      <trkpt lat="27.934092" lon="-15.520600">
        <ele>1392.60</ele>
        <time>2018-01-13T10:47:42Z</time>
      </trkpt>
      <trkpt lat="27.934074" lon="-15.520577">
        <ele>1392.90</ele>
        <time>2018-01-13T10:47:44Z</time>
      </trkpt>
      <trkpt lat="27.934055" lon="-15.520551">
        <ele>1392.75</ele>
        <time>2018-01-13T10:47:46Z</time>
      </trkpt>
      <trkpt lat="27.934038" lon="-15.520525">
        <ele>1392.30</ele>
        <time>2018-01-13T10:47:48Z</time>
      </trkpt>
      <trkpt lat="27.934025" lon="-15.520498">
        <ele>1392.30</ele>
        <time>2018-01-13T10:47:50Z</time>
      </trkpt>
      <trkpt lat="27.934014" lon="-15.520473">
        <ele>1392.30</ele>
        <time>2018-01-13T10:47:52Z</time>
      </trkpt>
      <trkpt lat="27.933999" lon="-15.520447">
        <ele>1392.30</ele>
        <time>2018-01-13T10:47:54Z</time>
      </trkpt>
      <trkpt lat="27.933988" lon="-15.520423">
        <ele>1392.28</ele>
        <time>2018-01-13T10:47:56Z</time>
      </trkpt>
      <trkpt lat="27.933979" lon="-15.520403">
        <ele>1392.00</ele>
        <time>2018-01-13T10:47:58Z</time>
      </trkpt>
      <trkpt lat="27.933966" lon="-15.520380">
        <ele>1391.79</ele>
        <time>2018-01-13T10:48:00Z</time>
      </trkpt>
      <trkpt lat="27.933953" lon="-15.520356">
        <ele>1391.30</ele>
        <time>2018-01-13T10:48:02Z</time>
      </trkpt>
      <trkpt lat="27.933938" lon="-15.520332">
        <ele>1391.30</ele>
        <time>2018-01-13T10:48:04Z</time>
      </trkpt>
      <trkpt lat="27.933920" lon="-15.520314">
        <ele>1390.80</ele>
        <time>2018-01-13T10:48:06Z</time>
      </trkpt>
      <trkpt lat="27.933904" lon="-15.520294">
        <ele>1390.80</ele>
        <time>2018-01-13T10:48:08Z</time>
      </trkpt>
      <trkpt lat="27.933888" lon="-15.520273">
        <ele>1390.89</ele>
        <time>2018-01-13T10:48:10Z</time>
      </trkpt>
      <trkpt lat="27.933874" lon="-15.520251">
        <ele>1391.45</ele>
        <time>2018-01-13T10:48:12Z</time>
      </trkpt>
      <trkpt lat="27.933856" lon="-15.520230">
        <ele>1391.80</ele>
        <time>2018-01-13T10:48:14Z</time>
      </trkpt>
      <trkpt lat="27.933846" lon="-15.520205">
        <ele>1391.90</ele>
        <time>2018-01-13T10:48:16Z</time>
      </trkpt>
      <trkpt lat="27.933834" lon="-15.520182">
        <ele>1391.73</ele>
        <time>2018-01-13T10:48:18Z</time>
      </trkpt>
      <trkpt lat="27.933824" lon="-15.520159">
        <ele>1391.17</ele>
        <time>2018-01-13T10:48:20Z</time>
      </trkpt>
      <trkpt lat="27.933811" lon="-15.520139">
        <ele>1391.10</ele>
        <time>2018-01-13T10:48:22Z</time>
      </trkpt>
      <trkpt lat="27.933799" lon="-15.520116">
        <ele>1391.01</ele>
        <time>2018-01-13T10:48:24Z</time>
      </trkpt>
      <trkpt lat="27.933790" lon="-15.520094">
        <ele>1390.80</ele>
        <time>2018-01-13T10:48:26Z</time>
      </trkpt>
      <trkpt lat="27.933778" lon="-15.520072">
        <ele>1390.71</ele>
        <time>2018-01-13T10:48:28Z</time>
      </trkpt>
      <trkpt lat="27.933766" lon="-15.520049">
        <ele>1390.30</ele>
        <time>2018-01-13T10:48:30Z</time>
      </trkpt>
      <trkpt lat="27.933754" lon="-15.520026">
        <ele>1390.30</ele>
        <time>2018-01-13T10:48:32Z</time>
      </trkpt>
      <trkpt lat="27.933742" lon="-15.520005">
        <ele>1390.37</ele>
        <time>2018-01-13T10:48:34Z</time>
      </trkpt>
      <trkpt lat="27.933732" lon="-15.519983">
        <ele>1389.67</ele>
        <time>2018-01-13T10:48:36Z</time>
      </trkpt>
      <trkpt lat="27.933723" lon="-15.519956">
        <ele>1389.54</ele>
        <time>2018-01-13T10:48:38Z</time>
      </trkpt>
      <trkpt lat="27.933709" lon="-15.519930">
        <ele>1389.27</ele>
        <time>2018-01-13T10:48:40Z</time>
      </trkpt>
      <trkpt lat="27.933696" lon="-15.519906">
        <ele>1389.08</ele>
        <time>2018-01-13T10:48:42Z</time>
      </trkpt>
      <trkpt lat="27.933683" lon="-15.519884">
        <ele>1388.77</ele>
        <time>2018-01-13T10:48:44Z</time>
      </trkpt>
      <trkpt lat="27.933675" lon="-15.519860">
        <ele>1388.58</ele>
        <time>2018-01-13T10:48:46Z</time>
      </trkpt>
      <trkpt lat="27.933659" lon="-15.519835">
        <ele>1387.38</ele>
        <time>2018-01-13T10:48:49Z</time>
      </trkpt>
      <trkpt lat="27.933646" lon="-15.519812">
        <ele>1386.91</ele>
        <time>2018-01-13T10:48:51Z</time>
      </trkpt>
      <trkpt lat="27.933633" lon="-15.519786">
        <ele>1386.70</ele>
        <time>2018-01-13T10:48:53Z</time>
      </trkpt>
      <trkpt lat="27.933623" lon="-15.519758">
        <ele>1386.70</ele>
        <time>2018-01-13T10:48:55Z</time>
      </trkpt>
      <trkpt lat="27.933616" lon="-15.519734">
        <ele>1386.70</ele>
        <time>2018-01-13T10:48:57Z</time>
      </trkpt>
      <trkpt lat="27.933608" lon="-15.519707">
        <ele>1386.61</ele>
        <time>2018-01-13T10:48:59Z</time>
      </trkpt>
      <trkpt lat="27.933600" lon="-15.519682">
        <ele>1385.97</ele>
        <time>2018-01-13T10:49:01Z</time>
      </trkpt>
      <trkpt lat="27.933594" lon="-15.519657">
        <ele>1385.34</ele>
        <time>2018-01-13T10:49:03Z</time>
      </trkpt>
      <trkpt lat="27.933588" lon="-15.519633">
        <ele>1385.20</ele>
        <time>2018-01-13T10:49:05Z</time>
      </trkpt>
      <trkpt lat="27.933585" lon="-15.519605">
        <ele>1385.23</ele>
        <time>2018-01-13T10:49:07Z</time>
      </trkpt>
      <trkpt lat="27.933585" lon="-15.519576">
        <ele>1385.41</ele>
        <time>2018-01-13T10:49:09Z</time>
      </trkpt>
      <trkpt lat="27.933583" lon="-15.519547">
        <ele>1385.59</ele>
        <time>2018-01-13T10:49:11Z</time>
      </trkpt>
      <trkpt lat="27.933577" lon="-15.519520">
        <ele>1385.00</ele>
        <time>2018-01-13T10:49:13Z</time>
      </trkpt>
      <trkpt lat="27.933565" lon="-15.519492">
        <ele>1385.00</ele>
        <time>2018-01-13T10:49:15Z</time>
      </trkpt>
      <trkpt lat="27.933553" lon="-15.519463">
        <ele>1384.94</ele>
        <time>2018-01-13T10:49:17Z</time>
      </trkpt>
      <trkpt lat="27.933550" lon="-15.519432">
        <ele>1384.54</ele>
        <time>2018-01-13T10:49:19Z</time>
      </trkpt>
      <trkpt lat="27.933544" lon="-15.519402">
        <ele>1384.37</ele>
        <time>2018-01-13T10:49:21Z</time>
      </trkpt>
      <trkpt lat="27.933538" lon="-15.519372">
        <ele>1384.30</ele>
        <time>2018-01-13T10:49:23Z</time>
      </trkpt>
      <trkpt lat="27.933528" lon="-15.519344">
        <ele>1384.40</ele>
        <time>2018-01-13T10:49:25Z</time>
      </trkpt>
      <trkpt lat="27.933526" lon="-15.519314">
        <ele>1384.55</ele>
        <time>2018-01-13T10:49:27Z</time>
      </trkpt>
      <trkpt lat="27.933529" lon="-15.519287">
        <ele>1384.70</ele>
        <time>2018-01-13T10:49:29Z</time>
      </trkpt>
      <trkpt lat="27.933531" lon="-15.519261">
        <ele>1384.70</ele>
        <time>2018-01-13T10:49:31Z</time>
      </trkpt>
      <trkpt lat="27.933532" lon="-15.519228">
        <ele>1384.70</ele>
        <time>2018-01-13T10:49:33Z</time>
      </trkpt>
      <trkpt lat="27.933533" lon="-15.519198">
        <ele>1384.70</ele>
        <time>2018-01-13T10:49:35Z</time>
      </trkpt>
      <trkpt lat="27.933529" lon="-15.519172">
        <ele>1384.73</ele>
        <time>2018-01-13T10:49:37Z</time>
      </trkpt>
      <trkpt lat="27.933521" lon="-15.519140">
        <ele>1384.65</ele>
        <time>2018-01-13T10:49:39Z</time>
      </trkpt>
      <trkpt lat="27.933516" lon="-15.519110">
        <ele>1384.60</ele>
        <time>2018-01-13T10:49:41Z</time>
      </trkpt>
      <trkpt lat="27.933510" lon="-15.519078">
        <ele>1384.60</ele>
        <time>2018-01-13T10:49:43Z</time>
      </trkpt>
      <trkpt lat="27.933504" lon="-15.519048">
        <ele>1384.60</ele>
        <time>2018-01-13T10:49:45Z</time>
      </trkpt>
      <trkpt lat="27.933499" lon="-15.519024">
        <ele>1384.63</ele>
        <time>2018-01-13T10:49:47Z</time>
      </trkpt>
      <trkpt lat="27.933492" lon="-15.518999">
        <ele>1384.52</ele>
        <time>2018-01-13T10:49:49Z</time>
      </trkpt>
      <trkpt lat="27.933482" lon="-15.518975">
        <ele>1384.20</ele>
        <time>2018-01-13T10:49:51Z</time>
      </trkpt>
      <trkpt lat="27.933477" lon="-15.518948">
        <ele>1384.02</ele>
        <time>2018-01-13T10:49:53Z</time>
      </trkpt>
      <trkpt lat="27.933474" lon="-15.518923">
        <ele>1383.65</ele>
        <time>2018-01-13T10:49:55Z</time>
      </trkpt>
      <trkpt lat="27.933470" lon="-15.518897">
        <ele>1383.42</ele>
        <time>2018-01-13T10:49:57Z</time>
      </trkpt>
      <trkpt lat="27.933464" lon="-15.518872">
        <ele>1383.50</ele>
        <time>2018-01-13T10:49:59Z</time>
      </trkpt>
      <trkpt lat="27.933457" lon="-15.518845">
        <ele>1383.30</ele>
        <time>2018-01-13T10:50:01Z</time>
      </trkpt>
      <trkpt lat="27.933448" lon="-15.518819">
        <ele>1383.40</ele>
        <time>2018-01-13T10:50:03Z</time>
      </trkpt>
      <trkpt lat="27.933440" lon="-15.518793">
        <ele>1383.37</ele>
        <time>2018-01-13T10:50:05Z</time>
      </trkpt>
      <trkpt lat="27.933433" lon="-15.518772">
        <ele>1383.20</ele>
        <time>2018-01-13T10:50:07Z</time>
      </trkpt>
      <trkpt lat="27.933422" lon="-15.518751">
        <ele>1383.10</ele>
        <time>2018-01-13T10:50:09Z</time>
      </trkpt>
      <trkpt lat="27.933412" lon="-15.518726">
        <ele>1382.72</ele>
        <time>2018-01-13T10:50:11Z</time>
      </trkpt>
      <trkpt lat="27.933407" lon="-15.518700">
        <ele>1382.25</ele>
        <time>2018-01-13T10:50:13Z</time>
      </trkpt>
      <trkpt lat="27.933404" lon="-15.518674">
        <ele>1382.15</ele>
        <time>2018-01-13T10:50:15Z</time>
      </trkpt>
      <trkpt lat="27.933402" lon="-15.518648">
        <ele>1382.33</ele>
        <time>2018-01-13T10:50:17Z</time>
      </trkpt>
      <trkpt lat="27.933397" lon="-15.518619">
        <ele>1382.40</ele>
        <time>2018-01-13T10:50:19Z</time>
      </trkpt>
      <trkpt lat="27.933392" lon="-15.518586">
        <ele>1382.40</ele>
        <time>2018-01-13T10:50:21Z</time>
      </trkpt>
      <trkpt lat="27.933384" lon="-15.518559">
        <ele>1382.45</ele>
        <time>2018-01-13T10:50:23Z</time>
      </trkpt>
      <trkpt lat="27.933374" lon="-15.518532">
        <ele>1382.70</ele>
        <time>2018-01-13T10:50:25Z</time>
      </trkpt>
      <trkpt lat="27.933370" lon="-15.518504">
        <ele>1382.78</ele>
        <time>2018-01-13T10:50:27Z</time>
      </trkpt>
      <trkpt lat="27.933365" lon="-15.518474">
        <ele>1383.00</ele>
        <time>2018-01-13T10:50:29Z</time>
      </trkpt>
      <trkpt lat="27.933359" lon="-15.518443">
        <ele>1382.70</ele>
        <time>2018-01-13T10:50:31Z</time>
      </trkpt>
      <trkpt lat="27.933353" lon="-15.518417">
        <ele>1382.80</ele>
        <time>2018-01-13T10:50:33Z</time>
      </trkpt>
      <trkpt lat="27.933344" lon="-15.518394">
        <ele>1382.70</ele>
        <time>2018-01-13T10:50:35Z</time>
      </trkpt>
      <trkpt lat="27.933333" lon="-15.518372">
        <ele>1382.70</ele>
        <time>2018-01-13T10:50:37Z</time>
      </trkpt>
      <trkpt lat="27.933326" lon="-15.518350">
        <ele>1382.60</ele>
        <time>2018-01-13T10:50:39Z</time>
      </trkpt>
      <trkpt lat="27.933326" lon="-15.518325">
        <ele>1381.79</ele>
        <time>2018-01-13T10:50:41Z</time>
      </trkpt>
      <trkpt lat="27.933326" lon="-15.518293">
        <ele>1380.95</ele>
        <time>2018-01-13T10:50:43Z</time>
      </trkpt>
      <trkpt lat="27.933322" lon="-15.518267">
        <ele>1380.67</ele>
        <time>2018-01-13T10:50:45Z</time>
      </trkpt>
      <trkpt lat="27.933319" lon="-15.518240">
        <ele>1380.29</ele>
        <time>2018-01-13T10:50:47Z</time>
      </trkpt>
      <trkpt lat="27.933320" lon="-15.518216">
        <ele>1380.00</ele>
        <time>2018-01-13T10:50:49Z</time>
      </trkpt>
      <trkpt lat="27.933324" lon="-15.518189">
        <ele>1380.40</ele>
        <time>2018-01-13T10:50:51Z</time>
      </trkpt>
      <trkpt lat="27.933326" lon="-15.518168">
        <ele>1380.35</ele>
        <time>2018-01-13T10:50:53Z</time>
      </trkpt>
      <trkpt lat="27.933333" lon="-15.518147">
        <ele>1380.15</ele>
        <time>2018-01-13T10:50:55Z</time>
      </trkpt>
      <trkpt lat="27.933334" lon="-15.518123">
        <ele>1379.64</ele>
        <time>2018-01-13T10:50:57Z</time>
      </trkpt>
      <trkpt lat="27.933340" lon="-15.518100">
        <ele>1378.90</ele>
        <time>2018-01-13T10:50:59Z</time>
      </trkpt>
      <trkpt lat="27.933340" lon="-15.518076">
        <ele>1378.70</ele>
        <time>2018-01-13T10:51:01Z</time>
      </trkpt>
      <trkpt lat="27.933336" lon="-15.518050">
        <ele>1378.60</ele>
        <time>2018-01-13T10:51:03Z</time>
      </trkpt>
      <trkpt lat="27.933329" lon="-15.518024">
        <ele>1378.57</ele>
        <time>2018-01-13T10:51:05Z</time>
      </trkpt>
      <trkpt lat="27.933321" lon="-15.517997">
        <ele>1378.93</ele>
        <time>2018-01-13T10:51:07Z</time>
      </trkpt>
      <trkpt lat="27.933311" lon="-15.517975">
        <ele>1379.00</ele>
        <time>2018-01-13T10:51:09Z</time>
      </trkpt>
      <trkpt lat="27.933301" lon="-15.517953">
        <ele>1378.50</ele>
        <time>2018-01-13T10:51:11Z</time>
      </trkpt>
      <trkpt lat="27.933286" lon="-15.517933">
        <ele>1378.65</ele>
        <time>2018-01-13T10:51:13Z</time>
      </trkpt>
      <trkpt lat="27.933269" lon="-15.517917">
        <ele>1378.42</ele>
        <time>2018-01-13T10:51:15Z</time>
      </trkpt>
      <trkpt lat="27.933250" lon="-15.517896">
        <ele>1378.50</ele>
        <time>2018-01-13T10:51:17Z</time>
      </trkpt>
      <trkpt lat="27.933238" lon="-15.517876">
        <ele>1377.97</ele>
        <time>2018-01-13T10:51:19Z</time>
      </trkpt>
      <trkpt lat="27.933223" lon="-15.517858">
        <ele>1377.35</ele>
        <time>2018-01-13T10:51:21Z</time>
      </trkpt>
      <trkpt lat="27.933204" lon="-15.517840">
        <ele>1377.10</ele>
        <time>2018-01-13T10:51:23Z</time>
      </trkpt>
      <trkpt lat="27.933182" lon="-15.517827">
        <ele>1377.02</ele>
        <time>2018-01-13T10:51:25Z</time>
      </trkpt>
      <trkpt lat="27.933162" lon="-15.517810">
        <ele>1376.45</ele>
        <time>2018-01-13T10:51:27Z</time>
      </trkpt>
      <trkpt lat="27.933143" lon="-15.517793">
        <ele>1376.35</ele>
        <time>2018-01-13T10:51:29Z</time>
      </trkpt>
      <trkpt lat="27.933130" lon="-15.517772">
        <ele>1376.45</ele>
        <time>2018-01-13T10:51:31Z</time>
      </trkpt>
      <trkpt lat="27.933117" lon="-15.517747">
        <ele>1376.55</ele>
        <time>2018-01-13T10:51:33Z</time>
      </trkpt>
      <trkpt lat="27.933104" lon="-15.517725">
        <ele>1376.75</ele>
        <time>2018-01-13T10:51:35Z</time>
      </trkpt>
      <trkpt lat="27.933096" lon="-15.517702">
        <ele>1377.03</ele>
        <time>2018-01-13T10:51:37Z</time>
      </trkpt>
      <trkpt lat="27.933091" lon="-15.517678">
        <ele>1377.10</ele>
        <time>2018-01-13T10:51:39Z</time>
      </trkpt>
      <trkpt lat="27.933072" lon="-15.517658">
        <ele>1377.07</ele>
        <time>2018-01-13T10:51:42Z</time>
      </trkpt>
      <trkpt lat="27.933052" lon="-15.517659">
        <ele>1376.66</ele>
        <time>2018-01-13T10:51:44Z</time>
      </trkpt>
      <trkpt lat="27.933035" lon="-15.517644">
        <ele>1375.75</ele>
        <time>2018-01-13T10:51:47Z</time>
      </trkpt>
      <trkpt lat="27.933021" lon="-15.517630">
        <ele>1375.15</ele>
        <time>2018-01-13T10:51:49Z</time>
      </trkpt>
      <trkpt lat="27.932999" lon="-15.517615">
        <ele>1374.97</ele>
        <time>2018-01-13T10:51:52Z</time>
      </trkpt>
      <trkpt lat="27.932981" lon="-15.517596">
        <ele>1374.53</ele>
        <time>2018-01-13T10:51:55Z</time>
      </trkpt>
      <trkpt lat="27.932963" lon="-15.517585">
        <ele>1373.37</ele>
        <time>2018-01-13T10:51:58Z</time>
      </trkpt>
      <trkpt lat="27.932962" lon="-15.517562">
        <ele>1372.67</ele>
        <time>2018-01-13T10:52:01Z</time>
      </trkpt>
      <trkpt lat="27.932976" lon="-15.517543">
        <ele>1371.72</ele>
        <time>2018-01-13T10:52:04Z</time>
      </trkpt>
      <trkpt lat="27.932991" lon="-15.517520">
        <ele>1370.97</ele>
        <time>2018-01-13T10:52:07Z</time>
      </trkpt>
      <trkpt lat="27.932998" lon="-15.517495">
        <ele>1369.90</ele>
        <time>2018-01-13T10:52:11Z</time>
      </trkpt>
      <trkpt lat="27.932999" lon="-15.517467">
        <ele>1368.62</ele>
        <time>2018-01-13T10:52:15Z</time>
      </trkpt>
      <trkpt lat="27.933005" lon="-15.517443">
        <ele>1367.90</ele>
        <time>2018-01-13T10:52:18Z</time>
      </trkpt>
      <trkpt lat="27.933008" lon="-15.517420">
        <ele>1367.27</ele>
        <time>2018-01-13T10:52:21Z</time>
      </trkpt>
      <trkpt lat="27.933015" lon="-15.517395">
        <ele>1366.32</ele>
        <time>2018-01-13T10:52:24Z</time>
      </trkpt>
      <trkpt lat="27.933020" lon="-15.517370">
        <ele>1365.70</ele>
        <time>2018-01-13T10:52:27Z</time>
      </trkpt>
      <trkpt lat="27.933021" lon="-15.517343">
        <ele>1365.08</ele>
        <time>2018-01-13T10:52:30Z</time>
      </trkpt>
      <trkpt lat="27.933022" lon="-15.517318">
        <ele>1363.87</ele>
        <time>2018-01-13T10:52:33Z</time>
      </trkpt>
      <trkpt lat="27.933022" lon="-15.517288">
        <ele>1363.31</ele>
        <time>2018-01-13T10:52:36Z</time>
      </trkpt>
      <trkpt lat="27.933026" lon="-15.517263">
        <ele>1362.44</ele>
        <time>2018-01-13T10:52:39Z</time>
      </trkpt>
      <trkpt lat="27.933030" lon="-15.517235">
        <ele>1362.13</ele>
        <time>2018-01-13T10:52:42Z</time>
      </trkpt>
      <trkpt lat="27.933039" lon="-15.517211">
        <ele>1361.20</ele>
        <time>2018-01-13T10:52:45Z</time>
      </trkpt>
      <trkpt lat="27.933045" lon="-15.517184">
        <ele>1361.10</ele>
        <time>2018-01-13T10:52:48Z</time>
      </trkpt>
      <trkpt lat="27.933048" lon="-15.517155">
        <ele>1361.10</ele>
        <time>2018-01-13T10:52:51Z</time>
      </trkpt>
      <trkpt lat="27.933053" lon="-15.517133">
        <ele>1360.64</ele>
        <time>2018-01-13T10:52:53Z</time>
      </trkpt>
      <trkpt lat="27.933063" lon="-15.517110">
        <ele>1359.48</ele>
        <time>2018-01-13T10:52:56Z</time>
      </trkpt>
      <trkpt lat="27.933074" lon="-15.517091">
        <ele>1358.64</ele>
        <time>2018-01-13T10:53:03Z</time>
      </trkpt>
      <trkpt lat="27.933079" lon="-15.517064">
        <ele>1358.57</ele>
        <time>2018-01-13T10:53:06Z</time>
      </trkpt>
      <trkpt lat="27.933081" lon="-15.517035">
        <ele>1358.53</ele>
        <time>2018-01-13T10:53:09Z</time>
      </trkpt>
      <trkpt lat="27.933094" lon="-15.517014">
        <ele>1358.90</ele>
        <time>2018-01-13T10:53:14Z</time>
      </trkpt>
      <trkpt lat="27.933099" lon="-15.516993">
        <ele>1357.40</ele>
        <time>2018-01-13T10:53:22Z</time>
      </trkpt>
      <trkpt lat="27.933112" lon="-15.516971">
        <ele>1356.60</ele>
        <time>2018-01-13T10:53:25Z</time>
      </trkpt>
      <trkpt lat="27.933132" lon="-15.516971">
        <ele>1355.92</ele>
        <time>2018-01-13T10:53:27Z</time>
      </trkpt>
      <trkpt lat="27.933154" lon="-15.516975">
        <ele>1355.13</ele>
        <time>2018-01-13T10:53:29Z</time>
      </trkpt>
      <trkpt lat="27.933177" lon="-15.516986">
        <ele>1354.60</ele>
        <time>2018-01-13T10:53:31Z</time>
      </trkpt>
      <trkpt lat="27.933195" lon="-15.516997">
        <ele>1354.32</ele>
        <time>2018-01-13T10:53:33Z</time>
      </trkpt>
      <trkpt lat="27.933220" lon="-15.517005">
        <ele>1354.00</ele>
        <time>2018-01-13T10:53:35Z</time>
      </trkpt>
      <trkpt lat="27.933247" lon="-15.517014">
        <ele>1354.07</ele>
        <time>2018-01-13T10:53:37Z</time>
      </trkpt>
      <trkpt lat="27.933271" lon="-15.517024">
        <ele>1354.20</ele>
        <time>2018-01-13T10:53:39Z</time>
      </trkpt>
      <trkpt lat="27.933298" lon="-15.517041">
        <ele>1354.06</ele>
        <time>2018-01-13T10:53:41Z</time>
      </trkpt>
      <trkpt lat="27.933319" lon="-15.517064">
        <ele>1353.56</ele>
        <time>2018-01-13T10:53:43Z</time>
      </trkpt>
      <trkpt lat="27.933338" lon="-15.517088">
        <ele>1353.44</ele>
        <time>2018-01-13T10:53:45Z</time>
      </trkpt>
      <trkpt lat="27.933361" lon="-15.517109">
        <ele>1353.40</ele>
        <time>2018-01-13T10:53:47Z</time>
      </trkpt>
      <trkpt lat="27.933384" lon="-15.517140">
        <ele>1353.23</ele>
        <time>2018-01-13T10:53:49Z</time>
      </trkpt>
      <trkpt lat="27.933404" lon="-15.517164">
        <ele>1353.00</ele>
        <time>2018-01-13T10:53:51Z</time>
      </trkpt>
      <trkpt lat="27.933425" lon="-15.517183">
        <ele>1352.96</ele>
        <time>2018-01-13T10:53:53Z</time>
      </trkpt>
      <trkpt lat="27.933448" lon="-15.517205">
        <ele>1352.65</ele>
        <time>2018-01-13T10:53:55Z</time>
      </trkpt>
      <trkpt lat="27.933470" lon="-15.517224">
        <ele>1352.33</ele>
        <time>2018-01-13T10:53:57Z</time>
      </trkpt>
      <trkpt lat="27.933489" lon="-15.517246">
        <ele>1352.20</ele>
        <time>2018-01-13T10:53:59Z</time>
      </trkpt>
      <trkpt lat="27.933511" lon="-15.517270">
        <ele>1352.28</ele>
        <time>2018-01-13T10:54:01Z</time>
      </trkpt>
      <trkpt lat="27.933530" lon="-15.517291">
        <ele>1352.52</ele>
        <time>2018-01-13T10:54:03Z</time>
      </trkpt>
      <trkpt lat="27.933550" lon="-15.517315">
        <ele>1352.40</ele>
        <time>2018-01-13T10:54:05Z</time>
      </trkpt>
      <trkpt lat="27.933571" lon="-15.517334">
        <ele>1352.10</ele>
        <time>2018-01-13T10:54:07Z</time>
      </trkpt>
      <trkpt lat="27.933593" lon="-15.517352">
        <ele>1352.20</ele>
        <time>2018-01-13T10:54:09Z</time>
      </trkpt>
      <trkpt lat="27.933614" lon="-15.517374">
        <ele>1352.16</ele>
        <time>2018-01-13T10:54:11Z</time>
      </trkpt>
      <trkpt lat="27.933635" lon="-15.517398">
        <ele>1351.50</ele>
        <time>2018-01-13T10:54:13Z</time>
      </trkpt>
      <trkpt lat="27.933659" lon="-15.517420">
        <ele>1351.30</ele>
        <time>2018-01-13T10:54:15Z</time>
      </trkpt>
      <trkpt lat="27.933681" lon="-15.517438">
        <ele>1351.30</ele>
        <time>2018-01-13T10:54:17Z</time>
      </trkpt>
      <trkpt lat="27.933702" lon="-15.517460">
        <ele>1351.30</ele>
        <time>2018-01-13T10:54:19Z</time>
      </trkpt>
      <trkpt lat="27.933722" lon="-15.517483">
        <ele>1351.30</ele>
        <time>2018-01-13T10:54:21Z</time>
      </trkpt>
      <trkpt lat="27.933738" lon="-15.517503">
        <ele>1351.30</ele>
        <time>2018-01-13T10:54:23Z</time>
      </trkpt>
      <trkpt lat="27.933755" lon="-15.517525">
        <ele>1350.43</ele>
        <time>2018-01-13T10:54:25Z</time>
      </trkpt>
      <trkpt lat="27.933772" lon="-15.517549">
        <ele>1350.16</ele>
        <time>2018-01-13T10:54:27Z</time>
      </trkpt>
      <trkpt lat="27.933789" lon="-15.517577">
        <ele>1350.10</ele>
        <time>2018-01-13T10:54:29Z</time>
      </trkpt>
      <trkpt lat="27.933804" lon="-15.517606">
        <ele>1349.91</ele>
        <time>2018-01-13T10:54:31Z</time>
      </trkpt>
      <trkpt lat="27.933817" lon="-15.517638">
        <ele>1349.50</ele>
        <time>2018-01-13T10:54:33Z</time>
      </trkpt>
      <trkpt lat="27.933830" lon="-15.517665">
        <ele>1349.44</ele>
        <time>2018-01-13T10:54:35Z</time>
      </trkpt>
      <trkpt lat="27.933848" lon="-15.517689">
        <ele>1349.41</ele>
        <time>2018-01-13T10:54:37Z</time>
      </trkpt>
      <trkpt lat="27.933865" lon="-15.517711">
        <ele>1349.07</ele>
        <time>2018-01-13T10:54:39Z</time>
      </trkpt>
      <trkpt lat="27.933880" lon="-15.517735">
        <ele>1348.90</ele>
        <time>2018-01-13T10:54:41Z</time>
      </trkpt>
      <trkpt lat="27.933897" lon="-15.517760">
        <ele>1348.84</ele>
        <time>2018-01-13T10:54:43Z</time>
      </trkpt>
      <trkpt lat="27.933909" lon="-15.517789">
        <ele>1348.90</ele>
        <time>2018-01-13T10:54:45Z</time>
      </trkpt>
      <trkpt lat="27.933920" lon="-15.517821">
        <ele>1348.86</ele>
        <time>2018-01-13T10:54:47Z</time>
      </trkpt>
      <trkpt lat="27.933934" lon="-15.517851">
        <ele>1348.56</ele>
        <time>2018-01-13T10:54:49Z</time>
      </trkpt>
      <trkpt lat="27.933944" lon="-15.517881">
        <ele>1347.90</ele>
        <time>2018-01-13T10:54:51Z</time>
      </trkpt>
      <trkpt lat="27.933955" lon="-15.517909">
        <ele>1347.60</ele>
        <time>2018-01-13T10:54:53Z</time>
      </trkpt>
      <trkpt lat="27.933969" lon="-15.517939">
        <ele>1347.50</ele>
        <time>2018-01-13T10:54:55Z</time>
      </trkpt>
      <trkpt lat="27.933985" lon="-15.517965">
        <ele>1347.50</ele>
        <time>2018-01-13T10:54:57Z</time>
      </trkpt>
      <trkpt lat="27.933999" lon="-15.517994">
        <ele>1347.19</ele>
        <time>2018-01-13T10:54:59Z</time>
      </trkpt>
      <trkpt lat="27.934011" lon="-15.518023">
        <ele>1346.80</ele>
        <time>2018-01-13T10:55:01Z</time>
      </trkpt>
      <trkpt lat="27.934022" lon="-15.518050">
        <ele>1346.80</ele>
        <time>2018-01-13T10:55:03Z</time>
      </trkpt>
      <trkpt lat="27.934035" lon="-15.518074">
        <ele>1346.80</ele>
        <time>2018-01-13T10:55:05Z</time>
      </trkpt>
      <trkpt lat="27.934052" lon="-15.518100">
        <ele>1346.80</ele>
        <time>2018-01-13T10:55:07Z</time>
      </trkpt>
      <trkpt lat="27.934067" lon="-15.518128">
        <ele>1346.58</ele>
        <time>2018-01-13T10:55:09Z</time>
      </trkpt>
      <trkpt lat="27.934085" lon="-15.518153">
        <ele>1345.90</ele>
        <time>2018-01-13T10:55:11Z</time>
      </trkpt>
      <trkpt lat="27.934101" lon="-15.518178">
        <ele>1345.80</ele>
        <time>2018-01-13T10:55:13Z</time>
      </trkpt>
      <trkpt lat="27.934116" lon="-15.518204">
        <ele>1345.67</ele>
        <time>2018-01-13T10:55:15Z</time>
      </trkpt>
      <trkpt lat="27.934128" lon="-15.518228">
        <ele>1345.67</ele>
        <time>2018-01-13T10:55:17Z</time>
      </trkpt>
      <trkpt lat="27.934140" lon="-15.518253">
        <ele>1345.40</ele>
        <time>2018-01-13T10:55:19Z</time>
      </trkpt>
      <trkpt lat="27.934154" lon="-15.518280">
        <ele>1345.20</ele>
        <time>2018-01-13T10:55:21Z</time>
      </trkpt>
      <trkpt lat="27.934171" lon="-15.518307">
        <ele>1344.82</ele>
        <time>2018-01-13T10:55:23Z</time>
      </trkpt>
      <trkpt lat="27.934191" lon="-15.518331">
        <ele>1344.10</ele>
        <time>2018-01-13T10:55:25Z</time>
      </trkpt>
      <trkpt lat="27.934209" lon="-15.518355">
        <ele>1344.06</ele>
        <time>2018-01-13T10:55:27Z</time>
      </trkpt>
      <trkpt lat="27.934224" lon="-15.518377">
        <ele>1343.96</ele>
        <time>2018-01-13T10:55:29Z</time>
      </trkpt>
      <trkpt lat="27.934237" lon="-15.518402">
        <ele>1343.67</ele>
        <time>2018-01-13T10:55:31Z</time>
      </trkpt>
      <trkpt lat="27.934254" lon="-15.518426">
        <ele>1343.50</ele>
        <time>2018-01-13T10:55:33Z</time>
      </trkpt>
      <trkpt lat="27.934274" lon="-15.518447">
        <ele>1343.14</ele>
        <time>2018-01-13T10:55:35Z</time>
      </trkpt>
      <trkpt lat="27.934291" lon="-15.518470">
        <ele>1343.16</ele>
        <time>2018-01-13T10:55:37Z</time>
      </trkpt>
      <trkpt lat="27.934308" lon="-15.518494">
        <ele>1342.91</ele>
        <time>2018-01-13T10:55:39Z</time>
      </trkpt>
      <trkpt lat="27.934323" lon="-15.518516">
        <ele>1342.58</ele>
        <time>2018-01-13T10:55:41Z</time>
      </trkpt>
      <trkpt lat="27.934338" lon="-15.518542">
        <ele>1342.16</ele>
        <time>2018-01-13T10:55:43Z</time>
      </trkpt>
      <trkpt lat="27.934354" lon="-15.518566">
        <ele>1342.00</ele>
        <time>2018-01-13T10:55:45Z</time>
      </trkpt>
      <trkpt lat="27.934368" lon="-15.518592">
        <ele>1342.00</ele>
        <time>2018-01-13T10:55:47Z</time>
      </trkpt>
      <trkpt lat="27.934386" lon="-15.518616">
        <ele>1341.60</ele>
        <time>2018-01-13T10:55:49Z</time>
      </trkpt>
      <trkpt lat="27.934402" lon="-15.518641">
        <ele>1341.50</ele>
        <time>2018-01-13T10:55:51Z</time>
      </trkpt>
      <trkpt lat="27.934418" lon="-15.518668">
        <ele>1341.50</ele>
        <time>2018-01-13T10:55:53Z</time>
      </trkpt>
      <trkpt lat="27.934434" lon="-15.518694">
        <ele>1341.32</ele>
        <time>2018-01-13T10:55:55Z</time>
      </trkpt>
      <trkpt lat="27.934450" lon="-15.518722">
        <ele>1340.63</ele>
        <time>2018-01-13T10:55:57Z</time>
      </trkpt>
      <trkpt lat="27.934458" lon="-15.518750">
        <ele>1340.30</ele>
        <time>2018-01-13T10:55:59Z</time>
      </trkpt>
      <trkpt lat="27.934470" lon="-15.518778">
        <ele>1340.30</ele>
        <time>2018-01-13T10:56:01Z</time>
      </trkpt>
      <trkpt lat="27.934481" lon="-15.518806">
        <ele>1340.34</ele>
        <time>2018-01-13T10:56:03Z</time>
      </trkpt>
      <trkpt lat="27.934491" lon="-15.518836">
        <ele>1340.40</ele>
        <time>2018-01-13T10:56:05Z</time>
      </trkpt>
      <trkpt lat="27.934502" lon="-15.518864">
        <ele>1340.23</ele>
        <time>2018-01-13T10:56:07Z</time>
      </trkpt>
      <trkpt lat="27.934513" lon="-15.518897">
        <ele>1340.62</ele>
        <time>2018-01-13T10:56:09Z</time>
      </trkpt>
      <trkpt lat="27.934528" lon="-15.518925">
        <ele>1340.12</ele>
        <time>2018-01-13T10:56:11Z</time>
      </trkpt>
      <trkpt lat="27.934544" lon="-15.518960">
        <ele>1340.90</ele>
        <time>2018-01-13T10:56:13Z</time>
      </trkpt>
      <trkpt lat="27.934554" lon="-15.518979">
        <ele>1340.90</ele>
        <time>2018-01-13T10:56:14Z</time>
      </trkpt>
      <trkpt lat="27.934562" lon="-15.518998">
        <ele>1341.08</ele>
        <time>2018-01-13T10:56:15Z</time>
      </trkpt>
      <trkpt lat="27.934574" lon="-15.519021">
        <ele>1341.30</ele>
        <time>2018-01-13T10:56:16Z</time>
      </trkpt>
      <trkpt lat="27.934583" lon="-15.519041">
        <ele>1341.30</ele>
        <time>2018-01-13T10:56:17Z</time>
      </trkpt>
      <trkpt lat="27.934612" lon="-15.519072">
        <ele>1341.43</ele>
        <time>2018-01-13T10:56:19Z</time>
      </trkpt>
      <trkpt lat="27.934631" lon="-15.519071">
        <ele>1341.91</ele>
        <time>2018-01-13T10:56:20Z</time>
      </trkpt>
      <trkpt lat="27.934650" lon="-15.519058">
        <ele>1342.48</ele>
        <time>2018-01-13T10:56:21Z</time>
      </trkpt>
      <trkpt lat="27.934670" lon="-15.519041">
        <ele>1342.74</ele>
        <time>2018-01-13T10:56:22Z</time>
      </trkpt>
      <trkpt lat="27.934688" lon="-15.519023">
        <ele>1342.89</ele>
        <time>2018-01-13T10:56:23Z</time>
      </trkpt>
      <trkpt lat="27.934706" lon="-15.519005">
        <ele>1343.00</ele>
        <time>2018-01-13T10:56:24Z</time>
      </trkpt>
      <trkpt lat="27.934729" lon="-15.518985">
        <ele>1343.04</ele>
        <time>2018-01-13T10:56:25Z</time>
      </trkpt>
      <trkpt lat="27.934749" lon="-15.518968">
        <ele>1343.10</ele>
        <time>2018-01-13T10:56:26Z</time>
      </trkpt>
      <trkpt lat="27.934769" lon="-15.518953">
        <ele>1343.01</ele>
        <time>2018-01-13T10:56:27Z</time>
      </trkpt>
      <trkpt lat="27.934788" lon="-15.518934">
        <ele>1342.90</ele>
        <time>2018-01-13T10:56:28Z</time>
      </trkpt>
      <trkpt lat="27.934806" lon="-15.518916">
        <ele>1343.25</ele>
        <time>2018-01-13T10:56:29Z</time>
      </trkpt>
      <trkpt lat="27.934826" lon="-15.518900">
        <ele>1343.83</ele>
        <time>2018-01-13T10:56:30Z</time>
      </trkpt>
      <trkpt lat="27.934845" lon="-15.518880">
        <ele>1344.13</ele>
        <time>2018-01-13T10:56:31Z</time>
      </trkpt>
      <trkpt lat="27.934866" lon="-15.518862">
        <ele>1344.43</ele>
        <time>2018-01-13T10:56:32Z</time>
      </trkpt>
      <trkpt lat="27.934885" lon="-15.518847">
        <ele>1344.64</ele>
        <time>2018-01-13T10:56:33Z</time>
      </trkpt>
      <trkpt lat="27.934907" lon="-15.518839">
        <ele>1344.70</ele>
        <time>2018-01-13T10:56:34Z</time>
      </trkpt>
      <trkpt lat="27.934930" lon="-15.518832">
        <ele>1344.74</ele>
        <time>2018-01-13T10:56:35Z</time>
      </trkpt>
      <trkpt lat="27.934954" lon="-15.518824">
        <ele>1344.89</ele>
        <time>2018-01-13T10:56:36Z</time>
      </trkpt>
      <trkpt lat="27.934978" lon="-15.518813">
        <ele>1345.00</ele>
        <time>2018-01-13T10:56:37Z</time>
      </trkpt>
      <trkpt lat="27.935001" lon="-15.518800">
        <ele>1345.26</ele>
        <time>2018-01-13T10:56:38Z</time>
      </trkpt>
      <trkpt lat="27.935023" lon="-15.518787">
        <ele>1345.60</ele>
        <time>2018-01-13T10:56:39Z</time>
      </trkpt>
      <trkpt lat="27.935047" lon="-15.518778">
        <ele>1345.78</ele>
        <time>2018-01-13T10:56:40Z</time>
      </trkpt>
      <trkpt lat="27.935068" lon="-15.518772">
        <ele>1346.00</ele>
        <time>2018-01-13T10:56:41Z</time>
      </trkpt>
      <trkpt lat="27.935093" lon="-15.518764">
        <ele>1345.96</ele>
        <time>2018-01-13T10:56:42Z</time>
      </trkpt>
      <trkpt lat="27.935114" lon="-15.518757">
        <ele>1345.90</ele>
        <time>2018-01-13T10:56:43Z</time>
      </trkpt>
      <trkpt lat="27.935136" lon="-15.518752">
        <ele>1345.77</ele>
        <time>2018-01-13T10:56:44Z</time>
      </trkpt>
      <trkpt lat="27.935157" lon="-15.518743">
        <ele>1345.47</ele>
        <time>2018-01-13T10:56:45Z</time>
      </trkpt>
      <trkpt lat="27.935179" lon="-15.518733">
        <ele>1345.30</ele>
        <time>2018-01-13T10:56:46Z</time>
      </trkpt>
      <trkpt lat="27.935201" lon="-15.518725">
        <ele>1344.99</ele>
        <time>2018-01-13T10:56:47Z</time>
      </trkpt>
      <trkpt lat="27.935219" lon="-15.518720">
        <ele>1344.38</ele>
        <time>2018-01-13T10:56:48Z</time>
      </trkpt>
      <trkpt lat="27.935240" lon="-15.518719">
        <ele>1344.10</ele>
        <time>2018-01-13T10:56:49Z</time>
      </trkpt>
      <trkpt lat="27.935260" lon="-15.518721">
        <ele>1344.10</ele>
        <time>2018-01-13T10:56:50Z</time>
      </trkpt>
      <trkpt lat="27.935278" lon="-15.518726">
        <ele>1344.10</ele>
        <time>2018-01-13T10:56:51Z</time>
      </trkpt>
      <trkpt lat="27.935296" lon="-15.518738">
        <ele>1344.10</ele>
        <time>2018-01-13T10:56:52Z</time>
      </trkpt>
      <trkpt lat="27.935314" lon="-15.518751">
        <ele>1344.10</ele>
        <time>2018-01-13T10:56:53Z</time>
      </trkpt>
      <trkpt lat="27.935330" lon="-15.518766">
        <ele>1343.75</ele>
        <time>2018-01-13T10:56:54Z</time>
      </trkpt>
      <trkpt lat="27.935346" lon="-15.518777">
        <ele>1343.79</ele>
        <time>2018-01-13T10:56:55Z</time>
      </trkpt>
      <trkpt lat="27.935364" lon="-15.518789">
        <ele>1344.44</ele>
        <time>2018-01-13T10:56:56Z</time>
      </trkpt>
      <trkpt lat="27.935382" lon="-15.518802">
        <ele>1344.50</ele>
        <time>2018-01-13T10:56:57Z</time>
      </trkpt>
      <trkpt lat="27.935401" lon="-15.518816">
        <ele>1344.50</ele>
        <time>2018-01-13T10:56:58Z</time>
      </trkpt>
      <trkpt lat="27.935417" lon="-15.518830">
        <ele>1344.50</ele>
        <time>2018-01-13T10:56:59Z</time>
      </trkpt>
      <trkpt lat="27.935432" lon="-15.518841">
        <ele>1344.50</ele>
        <time>2018-01-13T10:57:00Z</time>
      </trkpt>
      <trkpt lat="27.935449" lon="-15.518856">
        <ele>1344.50</ele>
        <time>2018-01-13T10:57:01Z</time>
      </trkpt>
      <trkpt lat="27.935466" lon="-15.518871">
        <ele>1344.32</ele>
        <time>2018-01-13T10:57:02Z</time>
      </trkpt>
      <trkpt lat="27.935484" lon="-15.518886">
        <ele>1344.10</ele>
        <time>2018-01-13T10:57:03Z</time>
      </trkpt>
      <trkpt lat="27.935500" lon="-15.518897">
        <ele>1344.10</ele>
        <time>2018-01-13T10:57:04Z</time>
      </trkpt>
      <trkpt lat="27.935521" lon="-15.518914">
        <ele>1344.10</ele>
        <time>2018-01-13T10:57:05Z</time>
      </trkpt>
      <trkpt lat="27.935540" lon="-15.518932">
        <ele>1344.28</ele>
        <time>2018-01-13T10:57:06Z</time>
      </trkpt>
      <trkpt lat="27.935557" lon="-15.518952">
        <ele>1344.59</ele>
        <time>2018-01-13T10:57:07Z</time>
      </trkpt>
      <trkpt lat="27.935575" lon="-15.518977">
        <ele>1344.74</ele>
        <time>2018-01-13T10:57:08Z</time>
      </trkpt>
      <trkpt lat="27.935593" lon="-15.518997">
        <ele>1344.84</ele>
        <time>2018-01-13T10:57:09Z</time>
      </trkpt>
      <trkpt lat="27.935606" lon="-15.519019">
        <ele>1344.90</ele>
        <time>2018-01-13T10:57:10Z</time>
      </trkpt>
      <trkpt lat="27.935619" lon="-15.519042">
        <ele>1344.90</ele>
        <time>2018-01-13T10:57:11Z</time>
      </trkpt>
      <trkpt lat="27.935629" lon="-15.519067">
        <ele>1344.90</ele>
        <time>2018-01-13T10:57:12Z</time>
      </trkpt>
      <trkpt lat="27.935645" lon="-15.519107">
        <ele>1344.90</ele>
        <time>2018-01-13T10:57:14Z</time>
      </trkpt>
      <trkpt lat="27.935655" lon="-15.519125">
        <ele>1344.94</ele>
        <time>2018-01-13T10:57:15Z</time>
      </trkpt>
      <trkpt lat="27.935676" lon="-15.519151">
        <ele>1345.00</ele>
        <time>2018-01-13T10:57:17Z</time>
      </trkpt>
      <trkpt lat="27.935696" lon="-15.519173">
        <ele>1345.00</ele>
        <time>2018-01-13T10:57:19Z</time>
      </trkpt>
      <trkpt lat="27.935722" lon="-15.519188">
        <ele>1345.63</ele>
        <time>2018-01-13T10:57:24Z</time>
      </trkpt>
      <trkpt lat="27.935738" lon="-15.519197">
        <ele>1345.63</ele>
        <time>2018-01-13T10:57:29Z</time>
      </trkpt>
      <trkpt lat="27.935758" lon="-15.519213">
        <ele>1345.84</ele>
        <time>2018-01-13T10:57:32Z</time>
      </trkpt>
      <trkpt lat="27.935771" lon="-15.519229">
        <ele>1346.24</ele>
        <time>2018-01-13T10:57:34Z</time>
      </trkpt>
      <trkpt lat="27.935789" lon="-15.519246">
        <ele>1346.40</ele>
        <time>2018-01-13T10:57:36Z</time>
      </trkpt>
      <trkpt lat="27.935803" lon="-15.519263">
        <ele>1346.40</ele>
        <time>2018-01-13T10:57:37Z</time>
      </trkpt>
      <trkpt lat="27.935816" lon="-15.519280">
        <ele>1346.40</ele>
        <time>2018-01-13T10:57:38Z</time>
      </trkpt>
      <trkpt lat="27.935827" lon="-15.519297">
        <ele>1346.40</ele>
        <time>2018-01-13T10:57:39Z</time>
      </trkpt>
      <trkpt lat="27.935838" lon="-15.519315">
        <ele>1345.91</ele>
        <time>2018-01-13T10:57:40Z</time>
      </trkpt>
      <trkpt lat="27.935850" lon="-15.519335">
        <ele>1345.30</ele>
        <time>2018-01-13T10:57:41Z</time>
      </trkpt>
      <trkpt lat="27.935863" lon="-15.519354">
        <ele>1345.17</ele>
        <time>2018-01-13T10:57:42Z</time>
      </trkpt>
      <trkpt lat="27.935880" lon="-15.519372">
        <ele>1344.78</ele>
        <time>2018-01-13T10:57:43Z</time>
      </trkpt>
      <trkpt lat="27.935898" lon="-15.519388">
        <ele>1344.68</ele>
        <time>2018-01-13T10:57:44Z</time>
      </trkpt>
      <trkpt lat="27.935911" lon="-15.519406">
        <ele>1344.90</ele>
        <time>2018-01-13T10:57:45Z</time>
      </trkpt>
      <trkpt lat="27.935934" lon="-15.519437">
        <ele>1345.18</ele>
        <time>2018-01-13T10:57:47Z</time>
      </trkpt>
      <trkpt lat="27.935953" lon="-15.519469">
        <ele>1345.30</ele>
        <time>2018-01-13T10:57:49Z</time>
      </trkpt>
      <trkpt lat="27.935963" lon="-15.519488">
        <ele>1345.30</ele>
        <time>2018-01-13T10:57:50Z</time>
      </trkpt>
      <trkpt lat="27.935974" lon="-15.519522">
        <ele>1345.30</ele>
        <time>2018-01-13T10:57:52Z</time>
      </trkpt>
      <trkpt lat="27.935982" lon="-15.519543">
        <ele>1345.30</ele>
        <time>2018-01-13T10:57:53Z</time>
      </trkpt>
      <trkpt lat="27.935988" lon="-15.519565">
        <ele>1345.30</ele>
        <time>2018-01-13T10:57:54Z</time>
      </trkpt>
      <trkpt lat="27.935991" lon="-15.519585">
        <ele>1345.30</ele>
        <time>2018-01-13T10:57:55Z</time>
      </trkpt>
      <trkpt lat="27.935995" lon="-15.519625">
        <ele>1345.30</ele>
        <time>2018-01-13T10:57:57Z</time>
      </trkpt>
      <trkpt lat="27.935999" lon="-15.519646">
        <ele>1345.30</ele>
        <time>2018-01-13T10:57:58Z</time>
      </trkpt>
      <trkpt lat="27.936010" lon="-15.519662">
        <ele>1345.61</ele>
        <time>2018-01-13T10:57:59Z</time>
      </trkpt>
      <trkpt lat="27.936025" lon="-15.519679">
        <ele>1345.87</ele>
        <time>2018-01-13T10:58:00Z</time>
      </trkpt>
      <trkpt lat="27.936038" lon="-15.519698">
        <ele>1345.70</ele>
        <time>2018-01-13T10:58:01Z</time>
      </trkpt>
      <trkpt lat="27.936052" lon="-15.519713">
        <ele>1345.79</ele>
        <time>2018-01-13T10:58:02Z</time>
      </trkpt>
      <trkpt lat="27.936067" lon="-15.519730">
        <ele>1345.90</ele>
        <time>2018-01-13T10:58:03Z</time>
      </trkpt>
      <trkpt lat="27.936080" lon="-15.519749">
        <ele>1345.94</ele>
        <time>2018-01-13T10:58:04Z</time>
      </trkpt>
      <trkpt lat="27.936095" lon="-15.519769">
        <ele>1346.00</ele>
        <time>2018-01-13T10:58:05Z</time>
      </trkpt>
      <trkpt lat="27.936110" lon="-15.519787">
        <ele>1346.35</ele>
        <time>2018-01-13T10:58:06Z</time>
      </trkpt>
      <trkpt lat="27.936126" lon="-15.519804">
        <ele>1346.80</ele>
        <time>2018-01-13T10:58:07Z</time>
      </trkpt>
      <trkpt lat="27.936144" lon="-15.519820">
        <ele>1346.76</ele>
        <time>2018-01-13T10:58:08Z</time>
      </trkpt>
      <trkpt lat="27.936157" lon="-15.519837">
        <ele>1346.70</ele>
        <time>2018-01-13T10:58:09Z</time>
      </trkpt>
      <trkpt lat="27.936171" lon="-15.519856">
        <ele>1346.70</ele>
        <time>2018-01-13T10:58:10Z</time>
      </trkpt>
      <trkpt lat="27.936186" lon="-15.519873">
        <ele>1346.70</ele>
        <time>2018-01-13T10:58:11Z</time>
      </trkpt>
      <trkpt lat="27.936199" lon="-15.519895">
        <ele>1346.70</ele>
        <time>2018-01-13T10:58:12Z</time>
      </trkpt>
      <trkpt lat="27.936213" lon="-15.519918">
        <ele>1346.66</ele>
        <time>2018-01-13T10:58:13Z</time>
      </trkpt>
      <trkpt lat="27.936223" lon="-15.519941">
        <ele>1346.64</ele>
        <time>2018-01-13T10:58:14Z</time>
      </trkpt>
      <trkpt lat="27.936236" lon="-15.519961">
        <ele>1346.70</ele>
        <time>2018-01-13T10:58:15Z</time>
      </trkpt>
      <trkpt lat="27.936249" lon="-15.519984">
        <ele>1346.66</ele>
        <time>2018-01-13T10:58:16Z</time>
      </trkpt>
      <trkpt lat="27.936263" lon="-15.520004">
        <ele>1346.60</ele>
        <time>2018-01-13T10:58:17Z</time>
      </trkpt>
      <trkpt lat="27.936277" lon="-15.520022">
        <ele>1346.56</ele>
        <time>2018-01-13T10:58:18Z</time>
      </trkpt>
      <trkpt lat="27.936294" lon="-15.520040">
        <ele>1346.50</ele>
        <time>2018-01-13T10:58:19Z</time>
      </trkpt>
      <trkpt lat="27.936310" lon="-15.520054">
        <ele>1346.50</ele>
        <time>2018-01-13T10:58:20Z</time>
      </trkpt>
      <trkpt lat="27.936325" lon="-15.520072">
        <ele>1346.50</ele>
        <time>2018-01-13T10:58:21Z</time>
      </trkpt>
      <trkpt lat="27.936340" lon="-15.520090">
        <ele>1346.94</ele>
        <time>2018-01-13T10:58:22Z</time>
      </trkpt>
      <trkpt lat="27.936352" lon="-15.520111">
        <ele>1347.50</ele>
        <time>2018-01-13T10:58:23Z</time>
      </trkpt>
      <trkpt lat="27.936365" lon="-15.520129">
        <ele>1347.50</ele>
        <time>2018-01-13T10:58:24Z</time>
      </trkpt>
      <trkpt lat="27.936375" lon="-15.520146">
        <ele>1347.50</ele>
        <time>2018-01-13T10:58:25Z</time>
      </trkpt>
      <trkpt lat="27.936388" lon="-15.520166">
        <ele>1347.41</ele>
        <time>2018-01-13T10:58:26Z</time>
      </trkpt>
      <trkpt lat="27.936400" lon="-15.520205">
        <ele>1347.00</ele>
        <time>2018-01-13T10:58:28Z</time>
      </trkpt>
      <trkpt lat="27.936410" lon="-15.520234">
        <ele>1346.70</ele>
        <time>2018-01-13T10:58:30Z</time>
      </trkpt>
      <trkpt lat="27.936417" lon="-15.520253">
        <ele>1346.70</ele>
        <time>2018-01-13T10:58:31Z</time>
      </trkpt>
      <trkpt lat="27.936429" lon="-15.520281">
        <ele>1346.74</ele>
        <time>2018-01-13T10:58:33Z</time>
      </trkpt>
      <trkpt lat="27.936447" lon="-15.520302">
        <ele>1346.90</ele>
        <time>2018-01-13T10:58:35Z</time>
      </trkpt>
      <trkpt lat="27.936469" lon="-15.520320">
        <ele>1347.14</ele>
        <time>2018-01-13T10:58:37Z</time>
      </trkpt>
      <trkpt lat="27.936487" lon="-15.520344">
        <ele>1347.49</ele>
        <time>2018-01-13T10:58:39Z</time>
      </trkpt>
      <trkpt lat="27.936503" lon="-15.520371">
        <ele>1347.60</ele>
        <time>2018-01-13T10:58:41Z</time>
      </trkpt>
      <trkpt lat="27.936518" lon="-15.520396">
        <ele>1347.84</ele>
        <time>2018-01-13T10:58:43Z</time>
      </trkpt>
      <trkpt lat="27.936537" lon="-15.520419">
        <ele>1348.09</ele>
        <time>2018-01-13T10:58:45Z</time>
      </trkpt>
      <trkpt lat="27.936549" lon="-15.520447">
        <ele>1348.24</ele>
        <time>2018-01-13T10:58:47Z</time>
      </trkpt>
      <trkpt lat="27.936563" lon="-15.520478">
        <ele>1348.84</ele>
        <time>2018-01-13T10:58:49Z</time>
      </trkpt>
      <trkpt lat="27.936580" lon="-15.520508">
        <ele>1348.90</ele>
        <time>2018-01-13T10:58:51Z</time>
      </trkpt>
      <trkpt lat="27.936590" lon="-15.520539">
        <ele>1348.90</ele>
        <time>2018-01-13T10:58:53Z</time>
      </trkpt>
      <trkpt lat="27.936598" lon="-15.520569">
        <ele>1348.60</ele>
        <time>2018-01-13T10:58:55Z</time>
      </trkpt>
      <trkpt lat="27.936607" lon="-15.520596">
        <ele>1348.40</ele>
        <time>2018-01-13T10:58:57Z</time>
      </trkpt>
      <trkpt lat="27.936617" lon="-15.520624">
        <ele>1347.96</ele>
        <time>2018-01-13T10:58:59Z</time>
      </trkpt>
      <trkpt lat="27.936628" lon="-15.520654">
        <ele>1347.60</ele>
        <time>2018-01-13T10:59:01Z</time>
      </trkpt>
      <trkpt lat="27.936638" lon="-15.520682">
        <ele>1347.60</ele>
        <time>2018-01-13T10:59:03Z</time>
      </trkpt>
      <trkpt lat="27.936655" lon="-15.520706">
        <ele>1347.60</ele>
        <time>2018-01-13T10:59:05Z</time>
      </trkpt>
      <trkpt lat="27.936667" lon="-15.520735">
        <ele>1347.69</ele>
        <time>2018-01-13T10:59:07Z</time>
      </trkpt>
      <trkpt lat="27.936681" lon="-15.520764">
        <ele>1347.80</ele>
        <time>2018-01-13T10:59:09Z</time>
      </trkpt>
      <trkpt lat="27.936689" lon="-15.520796">
        <ele>1347.80</ele>
        <time>2018-01-13T10:59:11Z</time>
      </trkpt>
      <trkpt lat="27.936693" lon="-15.520827">
        <ele>1347.94</ele>
        <time>2018-01-13T10:59:13Z</time>
      </trkpt>
      <trkpt lat="27.936698" lon="-15.520860">
        <ele>1347.94</ele>
        <time>2018-01-13T10:59:15Z</time>
      </trkpt>
      <trkpt lat="27.936692" lon="-15.520891">
        <ele>1348.05</ele>
        <time>2018-01-13T10:59:17Z</time>
      </trkpt>
      <trkpt lat="27.936688" lon="-15.520925">
        <ele>1348.15</ele>
        <time>2018-01-13T10:59:19Z</time>
      </trkpt>
      <trkpt lat="27.936687" lon="-15.520956">
        <ele>1348.90</ele>
        <time>2018-01-13T10:59:21Z</time>
      </trkpt>
      <trkpt lat="27.936685" lon="-15.520989">
        <ele>1348.35</ele>
        <time>2018-01-13T10:59:23Z</time>
      </trkpt>
      <trkpt lat="27.936684" lon="-15.521026">
        <ele>1348.95</ele>
        <time>2018-01-13T10:59:25Z</time>
      </trkpt>
      <trkpt lat="27.936674" lon="-15.521062">
        <ele>1348.65</ele>
        <time>2018-01-13T10:59:27Z</time>
      </trkpt>
      <trkpt lat="27.936672" lon="-15.521098">
        <ele>1348.70</ele>
        <time>2018-01-13T10:59:29Z</time>
      </trkpt>
      <trkpt lat="27.936673" lon="-15.521133">
        <ele>1348.70</ele>
        <time>2018-01-13T10:59:31Z</time>
      </trkpt>
      <trkpt lat="27.936665" lon="-15.521169">
        <ele>1348.55</ele>
        <time>2018-01-13T10:59:33Z</time>
      </trkpt>
      <trkpt lat="27.936654" lon="-15.521203">
        <ele>1348.40</ele>
        <time>2018-01-13T10:59:35Z</time>
      </trkpt>
      <trkpt lat="27.936649" lon="-15.521235">
        <ele>1348.40</ele>
        <time>2018-01-13T10:59:37Z</time>
      </trkpt>
      <trkpt lat="27.936643" lon="-15.521266">
        <ele>1348.40</ele>
        <time>2018-01-13T10:59:39Z</time>
      </trkpt>
      <trkpt lat="27.936647" lon="-15.521292">
        <ele>1348.40</ele>
        <time>2018-01-13T10:59:41Z</time>
      </trkpt>
      <trkpt lat="27.936655" lon="-15.521318">
        <ele>1348.40</ele>
        <time>2018-01-13T10:59:43Z</time>
      </trkpt>
      <trkpt lat="27.936662" lon="-15.521344">
        <ele>1348.40</ele>
        <time>2018-01-13T10:59:45Z</time>
      </trkpt>
      <trkpt lat="27.936677" lon="-15.521371">
        <ele>1348.40</ele>
        <time>2018-01-13T10:59:47Z</time>
      </trkpt>
      <trkpt lat="27.936697" lon="-15.521394">
        <ele>1348.40</ele>
        <time>2018-01-13T10:59:49Z</time>
      </trkpt>
      <trkpt lat="27.936710" lon="-15.521423">
        <ele>1348.25</ele>
        <time>2018-01-13T10:59:51Z</time>
      </trkpt>
      <trkpt lat="27.936719" lon="-15.521453">
        <ele>1348.30</ele>
        <time>2018-01-13T10:59:53Z</time>
      </trkpt>
      <trkpt lat="27.936730" lon="-15.521477">
        <ele>1348.10</ele>
        <time>2018-01-13T10:59:55Z</time>
      </trkpt>
      <trkpt lat="27.936744" lon="-15.521499">
        <ele>1348.05</ele>
        <time>2018-01-13T10:59:57Z</time>
      </trkpt>
      <trkpt lat="27.936762" lon="-15.521521">
        <ele>1347.75</ele>
        <time>2018-01-13T10:59:59Z</time>
      </trkpt>
      <trkpt lat="27.936774" lon="-15.521547">
        <ele>1347.25</ele>
        <time>2018-01-13T11:00:01Z</time>
      </trkpt>
      <trkpt lat="27.936789" lon="-15.521567">
        <ele>1346.83</ele>
        <time>2018-01-13T11:00:03Z</time>
      </trkpt>
      <trkpt lat="27.936800" lon="-15.521584">
        <ele>1346.60</ele>
        <time>2018-01-13T11:00:05Z</time>
      </trkpt>
      <trkpt lat="27.936814" lon="-15.521606">
        <ele>1346.60</ele>
        <time>2018-01-13T11:00:07Z</time>
      </trkpt>
      <trkpt lat="27.936826" lon="-15.521628">
        <ele>1346.66</ele>
        <time>2018-01-13T11:00:09Z</time>
      </trkpt>
      <trkpt lat="27.936840" lon="-15.521652">
        <ele>1346.06</ele>
        <time>2018-01-13T11:00:11Z</time>
      </trkpt>
      <trkpt lat="27.936851" lon="-15.521675">
        <ele>1345.80</ele>
        <time>2018-01-13T11:00:13Z</time>
      </trkpt>
      <trkpt lat="27.936862" lon="-15.521695">
        <ele>1345.50</ele>
        <time>2018-01-13T11:00:15Z</time>
      </trkpt>
      <trkpt lat="27.936872" lon="-15.521719">
        <ele>1345.39</ele>
        <time>2018-01-13T11:00:17Z</time>
      </trkpt>
      <trkpt lat="27.936875" lon="-15.521742">
        <ele>1344.98</ele>
        <time>2018-01-13T11:00:19Z</time>
      </trkpt>
      <trkpt lat="27.936877" lon="-15.521766">
        <ele>1344.70</ele>
        <time>2018-01-13T11:00:21Z</time>
      </trkpt>
      <trkpt lat="27.936876" lon="-15.521792">
        <ele>1344.30</ele>
        <time>2018-01-13T11:00:23Z</time>
      </trkpt>
      <trkpt lat="27.936877" lon="-15.521820">
        <ele>1344.24</ele>
        <time>2018-01-13T11:00:25Z</time>
      </trkpt>
      <trkpt lat="27.936878" lon="-15.521851">
        <ele>1344.24</ele>
        <time>2018-01-13T11:00:27Z</time>
      </trkpt>
      <trkpt lat="27.936870" lon="-15.521877">
        <ele>1344.22</ele>
        <time>2018-01-13T11:00:29Z</time>
      </trkpt>
      <trkpt lat="27.936859" lon="-15.521904">
        <ele>1343.94</ele>
        <time>2018-01-13T11:00:31Z</time>
      </trkpt>
      <trkpt lat="27.936850" lon="-15.521927">
        <ele>1343.66</ele>
        <time>2018-01-13T11:00:33Z</time>
      </trkpt>
      <trkpt lat="27.936842" lon="-15.521949">
        <ele>1342.94</ele>
        <time>2018-01-13T11:00:35Z</time>
      </trkpt>
      <trkpt lat="27.936835" lon="-15.521974">
        <ele>1343.00</ele>
        <time>2018-01-13T11:00:37Z</time>
      </trkpt>
      <trkpt lat="27.936826" lon="-15.522001">
        <ele>1342.78</ele>
        <time>2018-01-13T11:00:40Z</time>
      </trkpt>
      <trkpt lat="27.936831" lon="-15.522022">
        <ele>1341.38</ele>
        <time>2018-01-13T11:00:44Z</time>
      </trkpt>
      <trkpt lat="27.936848" lon="-15.522014">
        <ele>1340.86</ele>
        <time>2018-01-13T11:00:46Z</time>
      </trkpt>
      <trkpt lat="27.936865" lon="-15.522004">
        <ele>1340.50</ele>
        <time>2018-01-13T11:00:48Z</time>
      </trkpt>
      <trkpt lat="27.936886" lon="-15.521997">
        <ele>1339.70</ele>
        <time>2018-01-13T11:00:51Z</time>
      </trkpt>
      <trkpt lat="27.936904" lon="-15.521986">
        <ele>1339.64</ele>
        <time>2018-01-13T11:00:54Z</time>
      </trkpt>
      <trkpt lat="27.936921" lon="-15.521977">
        <ele>1339.50</ele>
        <time>2018-01-13T11:00:56Z</time>
      </trkpt>
      <trkpt lat="27.936938" lon="-15.521967">
        <ele>1338.94</ele>
        <time>2018-01-13T11:00:58Z</time>
      </trkpt>
      <trkpt lat="27.936964" lon="-15.521957">
        <ele>1337.74</ele>
        <time>2018-01-13T11:01:01Z</time>
      </trkpt>
      <trkpt lat="27.936978" lon="-15.521942">
        <ele>1337.58</ele>
        <time>2018-01-13T11:01:04Z</time>
      </trkpt>
      <trkpt lat="27.936996" lon="-15.521923">
        <ele>1337.20</ele>
        <time>2018-01-13T11:01:07Z</time>
      </trkpt>
      <trkpt lat="27.937014" lon="-15.521903">
        <ele>1336.46</ele>
        <time>2018-01-13T11:01:10Z</time>
      </trkpt>
      <trkpt lat="27.937016" lon="-15.521873">
        <ele>1336.24</ele>
        <time>2018-01-13T11:01:12Z</time>
      </trkpt>
      <trkpt lat="27.937024" lon="-15.521849">
        <ele>1335.50</ele>
        <time>2018-01-13T11:01:14Z</time>
      </trkpt>
      <trkpt lat="27.937044" lon="-15.521830">
        <ele>1335.28</ele>
        <time>2018-01-13T11:01:17Z</time>
      </trkpt>
      <trkpt lat="27.937057" lon="-15.521809">
        <ele>1334.90</ele>
        <time>2018-01-13T11:01:20Z</time>
      </trkpt>
      <trkpt lat="27.937069" lon="-15.521784">
        <ele>1334.70</ele>
        <time>2018-01-13T11:01:23Z</time>
      </trkpt>
      <trkpt lat="27.937084" lon="-15.521762">
        <ele>1334.77</ele>
        <time>2018-01-13T11:01:26Z</time>
      </trkpt>
      <trkpt lat="27.937090" lon="-15.521732">
        <ele>1333.24</ele>
        <time>2018-01-13T11:01:35Z</time>
      </trkpt>
      <trkpt lat="27.937099" lon="-15.521710">
        <ele>1332.01</ele>
        <time>2018-01-13T11:01:38Z</time>
      </trkpt>
      <trkpt lat="27.937103" lon="-15.521688">
        <ele>1331.37</ele>
        <time>2018-01-13T11:01:40Z</time>
      </trkpt>
      <trkpt lat="27.937111" lon="-15.521659">
        <ele>1330.70</ele>
        <time>2018-01-13T11:01:43Z</time>
      </trkpt>
      <trkpt lat="27.937120" lon="-15.521632">
        <ele>1330.60</ele>
        <time>2018-01-13T11:01:46Z</time>
      </trkpt>
      <trkpt lat="27.937132" lon="-15.521573">
        <ele>1329.40</ele>
        <time>2018-01-13T11:01:52Z</time>
      </trkpt>
      <trkpt lat="27.937140" lon="-15.521550">
        <ele>1330.20</ele>
        <time>2018-01-13T11:01:56Z</time>
      </trkpt>
      <trkpt lat="27.937156" lon="-15.521535">
        <ele>1330.64</ele>
        <time>2018-01-13T11:01:59Z</time>
      </trkpt>
      <trkpt lat="27.937161" lon="-15.521511">
        <ele>1331.55</ele>
        <time>2018-01-13T11:02:01Z</time>
      </trkpt>
      <trkpt lat="27.937166" lon="-15.521481">
        <ele>1332.21</ele>
        <time>2018-01-13T11:02:03Z</time>
      </trkpt>
      <trkpt lat="27.937174" lon="-15.521446">
        <ele>1332.60</ele>
        <time>2018-01-13T11:02:05Z</time>
      </trkpt>
      <trkpt lat="27.937170" lon="-15.521415">
        <ele>1332.60</ele>
        <time>2018-01-13T11:02:07Z</time>
      </trkpt>
      <trkpt lat="27.937162" lon="-15.521389">
        <ele>1332.43</ele>
        <time>2018-01-13T11:02:09Z</time>
      </trkpt>
      <trkpt lat="27.937158" lon="-15.521366">
        <ele>1331.64</ele>
        <time>2018-01-13T11:02:11Z</time>
      </trkpt>
      <trkpt lat="27.937153" lon="-15.521341">
        <ele>1331.23</ele>
        <time>2018-01-13T11:02:13Z</time>
      </trkpt>
      <trkpt lat="27.937144" lon="-15.521313">
        <ele>1330.82</ele>
        <time>2018-01-13T11:02:15Z</time>
      </trkpt>
      <trkpt lat="27.937137" lon="-15.521287">
        <ele>1330.06</ele>
        <time>2018-01-13T11:02:17Z</time>
      </trkpt>
      <trkpt lat="27.937129" lon="-15.521267">
        <ele>1329.78</ele>
        <time>2018-01-13T11:02:19Z</time>
      </trkpt>
      <trkpt lat="27.937121" lon="-15.521244">
        <ele>1329.63</ele>
        <time>2018-01-13T11:02:21Z</time>
      </trkpt>
      <trkpt lat="27.937108" lon="-15.521228">
        <ele>1329.00</ele>
        <time>2018-01-13T11:02:23Z</time>
      </trkpt>
      <trkpt lat="27.937101" lon="-15.521204">
        <ele>1328.40</ele>
        <time>2018-01-13T11:02:26Z</time>
      </trkpt>
      <trkpt lat="27.937097" lon="-15.521184">
        <ele>1328.40</ele>
        <time>2018-01-13T11:02:28Z</time>
      </trkpt>
      <trkpt lat="27.937096" lon="-15.521162">
        <ele>1327.40</ele>
        <time>2018-01-13T11:02:30Z</time>
      </trkpt>
      <trkpt lat="27.937107" lon="-15.521135">
        <ele>1327.20</ele>
        <time>2018-01-13T11:02:32Z</time>
      </trkpt>
      <trkpt lat="27.937115" lon="-15.521116">
        <ele>1327.03</ele>
        <time>2018-01-13T11:02:34Z</time>
      </trkpt>
      <trkpt lat="27.937126" lon="-15.521089">
        <ele>1326.77</ele>
        <time>2018-01-13T11:02:36Z</time>
      </trkpt>
      <trkpt lat="27.937138" lon="-15.521066">
        <ele>1326.30</ele>
        <time>2018-01-13T11:02:38Z</time>
      </trkpt>
      <trkpt lat="27.937154" lon="-15.521040">
        <ele>1325.52</ele>
        <time>2018-01-13T11:02:40Z</time>
      </trkpt>
      <trkpt lat="27.937170" lon="-15.521018">
        <ele>1325.35</ele>
        <time>2018-01-13T11:02:42Z</time>
      </trkpt>
      <trkpt lat="27.937177" lon="-15.520997">
        <ele>1325.07</ele>
        <time>2018-01-13T11:02:44Z</time>
      </trkpt>
      <trkpt lat="27.937184" lon="-15.520974">
        <ele>1324.70</ele>
        <time>2018-01-13T11:02:46Z</time>
      </trkpt>
      <trkpt lat="27.937193" lon="-15.520950">
        <ele>1324.47</ele>
        <time>2018-01-13T11:02:48Z</time>
      </trkpt>
      <trkpt lat="27.937200" lon="-15.520930">
        <ele>1323.84</ele>
        <time>2018-01-13T11:02:50Z</time>
      </trkpt>
      <trkpt lat="27.937210" lon="-15.520906">
        <ele>1323.55</ele>
        <time>2018-01-13T11:02:52Z</time>
      </trkpt>
      <trkpt lat="27.937218" lon="-15.520882">
        <ele>1323.42</ele>
        <time>2018-01-13T11:02:54Z</time>
      </trkpt>
      <trkpt lat="27.937232" lon="-15.520851">
        <ele>1323.80</ele>
        <time>2018-01-13T11:02:56Z</time>
      </trkpt>
      <trkpt lat="27.937249" lon="-15.520826">
        <ele>1323.72</ele>
        <time>2018-01-13T11:02:58Z</time>
      </trkpt>
      <trkpt lat="27.937268" lon="-15.520805">
        <ele>1323.80</ele>
        <time>2018-01-13T11:03:00Z</time>
      </trkpt>
      <trkpt lat="27.937286" lon="-15.520782">
        <ele>1323.70</ele>
        <time>2018-01-13T11:03:02Z</time>
      </trkpt>
      <trkpt lat="27.937305" lon="-15.520753">
        <ele>1323.60</ele>
        <time>2018-01-13T11:03:04Z</time>
      </trkpt>
      <trkpt lat="27.937320" lon="-15.520724">
        <ele>1323.13</ele>
        <time>2018-01-13T11:03:06Z</time>
      </trkpt>
      <trkpt lat="27.937329" lon="-15.520702">
        <ele>1322.84</ele>
        <time>2018-01-13T11:03:07Z</time>
      </trkpt>
      <trkpt lat="27.937344" lon="-15.520679">
        <ele>1322.80</ele>
        <time>2018-01-13T11:03:08Z</time>
      </trkpt>
      <trkpt lat="27.937359" lon="-15.520661">
        <ele>1322.33</ele>
        <time>2018-01-13T11:03:09Z</time>
      </trkpt>
      <trkpt lat="27.937370" lon="-15.520644">
        <ele>1322.12</ele>
        <time>2018-01-13T11:03:10Z</time>
      </trkpt>
      <trkpt lat="27.937380" lon="-15.520616">
        <ele>1322.00</ele>
        <time>2018-01-13T11:03:12Z</time>
      </trkpt>
      <trkpt lat="27.937381" lon="-15.520585">
        <ele>1321.80</ele>
        <time>2018-01-13T11:03:14Z</time>
      </trkpt>
      <trkpt lat="27.937376" lon="-15.520553">
        <ele>1321.52</ele>
        <time>2018-01-13T11:03:16Z</time>
      </trkpt>
      <trkpt lat="27.937371" lon="-15.520521">
        <ele>1321.30</ele>
        <time>2018-01-13T11:03:18Z</time>
      </trkpt>
      <trkpt lat="27.937362" lon="-15.520486">
        <ele>1321.30</ele>
        <time>2018-01-13T11:03:20Z</time>
      </trkpt>
      <trkpt lat="27.937356" lon="-15.520451">
        <ele>1321.07</ele>
        <time>2018-01-13T11:03:22Z</time>
      </trkpt>
      <trkpt lat="27.937351" lon="-15.520419">
        <ele>1320.84</ele>
        <time>2018-01-13T11:03:24Z</time>
      </trkpt>
      <trkpt lat="27.937347" lon="-15.520399">
        <ele>1320.96</ele>
        <time>2018-01-13T11:03:25Z</time>
      </trkpt>
      <trkpt lat="27.937340" lon="-15.520372">
        <ele>1321.36</ele>
        <time>2018-01-13T11:03:27Z</time>
      </trkpt>
      <trkpt lat="27.937334" lon="-15.520334">
        <ele>1321.79</ele>
        <time>2018-01-13T11:03:29Z</time>
      </trkpt>
      <trkpt lat="27.937331" lon="-15.520299">
        <ele>1322.08</ele>
        <time>2018-01-13T11:03:31Z</time>
      </trkpt>
      <trkpt lat="27.937318" lon="-15.520281">
        <ele>1322.18</ele>
        <time>2018-01-13T11:03:32Z</time>
      </trkpt>
      <trkpt lat="27.937308" lon="-15.520261">
        <ele>1322.59</ele>
        <time>2018-01-13T11:03:33Z</time>
      </trkpt>
      <trkpt lat="27.937308" lon="-15.520230">
        <ele>1322.70</ele>
        <time>2018-01-13T11:03:34Z</time>
      </trkpt>
      <trkpt lat="27.937316" lon="-15.520199">
        <ele>1323.40</ele>
        <time>2018-01-13T11:03:35Z</time>
      </trkpt>
      <trkpt lat="27.937330" lon="-15.520176">
        <ele>1323.60</ele>
        <time>2018-01-13T11:03:36Z</time>
      </trkpt>
      <trkpt lat="27.937350" lon="-15.520157">
        <ele>1323.60</ele>
        <time>2018-01-13T11:03:37Z</time>
      </trkpt>
      <trkpt lat="27.937373" lon="-15.520148">
        <ele>1323.68</ele>
        <time>2018-01-13T11:03:38Z</time>
      </trkpt>
      <trkpt lat="27.937394" lon="-15.520150">
        <ele>1323.93</ele>
        <time>2018-01-13T11:03:39Z</time>
      </trkpt>
      <trkpt lat="27.937411" lon="-15.520163">
        <ele>1324.00</ele>
        <time>2018-01-13T11:03:40Z</time>
      </trkpt>
      <trkpt lat="27.937426" lon="-15.520179">
        <ele>1324.39</ele>
        <time>2018-01-13T11:03:41Z</time>
      </trkpt>
      <trkpt lat="27.937441" lon="-15.520196">
        <ele>1324.50</ele>
        <time>2018-01-13T11:03:42Z</time>
      </trkpt>
      <trkpt lat="27.937458" lon="-15.520212">
        <ele>1324.58</ele>
        <time>2018-01-13T11:03:43Z</time>
      </trkpt>
      <trkpt lat="27.937473" lon="-15.520227">
        <ele>1324.52</ele>
        <time>2018-01-13T11:03:44Z</time>
      </trkpt>
      <trkpt lat="27.937503" lon="-15.520256">
        <ele>1323.32</ele>
        <time>2018-01-13T11:03:46Z</time>
      </trkpt>
      <trkpt lat="27.937518" lon="-15.520272">
        <ele>1323.30</ele>
        <time>2018-01-13T11:03:47Z</time>
      </trkpt>
      <trkpt lat="27.937534" lon="-15.520285">
        <ele>1323.30</ele>
        <time>2018-01-13T11:03:48Z</time>
      </trkpt>
      <trkpt lat="27.937553" lon="-15.520298">
        <ele>1323.38</ele>
        <time>2018-01-13T11:03:49Z</time>
      </trkpt>
      <trkpt lat="27.937571" lon="-15.520314">
        <ele>1323.40</ele>
        <time>2018-01-13T11:03:50Z</time>
      </trkpt>
      <trkpt lat="27.937588" lon="-15.520332">
        <ele>1323.48</ele>
        <time>2018-01-13T11:03:51Z</time>
      </trkpt>
      <trkpt lat="27.937605" lon="-15.520349">
        <ele>1323.89</ele>
        <time>2018-01-13T11:03:52Z</time>
      </trkpt>
      <trkpt lat="27.937621" lon="-15.520366">
        <ele>1324.39</ele>
        <time>2018-01-13T11:03:53Z</time>
      </trkpt>
      <trkpt lat="27.937636" lon="-15.520385">
        <ele>1324.73</ele>
        <time>2018-01-13T11:03:54Z</time>
      </trkpt>
      <trkpt lat="27.937653" lon="-15.520405">
        <ele>1324.57</ele>
        <time>2018-01-13T11:03:55Z</time>
      </trkpt>
      <trkpt lat="27.937671" lon="-15.520420">
        <ele>1324.73</ele>
        <time>2018-01-13T11:03:56Z</time>
      </trkpt>
      <trkpt lat="27.937691" lon="-15.520438">
        <ele>1324.80</ele>
        <time>2018-01-13T11:03:57Z</time>
      </trkpt>
      <trkpt lat="27.937708" lon="-15.520450">
        <ele>1324.80</ele>
        <time>2018-01-13T11:03:58Z</time>
      </trkpt>
      <trkpt lat="27.937728" lon="-15.520465">
        <ele>1324.80</ele>
        <time>2018-01-13T11:03:59Z</time>
      </trkpt>
      <trkpt lat="27.937746" lon="-15.520479">
        <ele>1324.88</ele>
        <time>2018-01-13T11:04:00Z</time>
      </trkpt>
      <trkpt lat="27.937764" lon="-15.520491">
        <ele>1325.21</ele>
        <time>2018-01-13T11:04:01Z</time>
      </trkpt>
      <trkpt lat="27.937782" lon="-15.520504">
        <ele>1325.46</ele>
        <time>2018-01-13T11:04:02Z</time>
      </trkpt>
      <trkpt lat="27.937800" lon="-15.520519">
        <ele>1325.66</ele>
        <time>2018-01-13T11:04:03Z</time>
      </trkpt>
      <trkpt lat="27.937819" lon="-15.520532">
        <ele>1325.70</ele>
        <time>2018-01-13T11:04:04Z</time>
      </trkpt>
      <trkpt lat="27.937840" lon="-15.520547">
        <ele>1325.93</ele>
        <time>2018-01-13T11:04:05Z</time>
      </trkpt>
      <trkpt lat="27.937884" lon="-15.520630">
        <ele>1326.14</ele>
        <time>2018-01-13T11:04:09Z</time>
      </trkpt>
      <trkpt lat="27.937892" lon="-15.520649">
        <ele>1326.10</ele>
        <time>2018-01-13T11:04:10Z</time>
      </trkpt>
      <trkpt lat="27.937912" lon="-15.520692">
        <ele>1326.10</ele>
        <time>2018-01-13T11:04:12Z</time>
      </trkpt>
      <trkpt lat="27.937959" lon="-15.520761">
        <ele>1326.62</ele>
        <time>2018-01-13T11:04:16Z</time>
      </trkpt>
      <trkpt lat="27.938014" lon="-15.520858">
        <ele>1327.28</ele>
        <time>2018-01-13T11:04:21Z</time>
      </trkpt>
      <trkpt lat="27.938096" lon="-15.520937">
        <ele>1328.20</ele>
        <time>2018-01-13T11:04:26Z</time>
      </trkpt>
      <trkpt lat="27.938186" lon="-15.521003">
        <ele>1328.20</ele>
        <time>2018-01-13T11:04:31Z</time>
      </trkpt>
      <trkpt lat="27.938268" lon="-15.521059">
        <ele>1328.60</ele>
        <time>2018-01-13T11:04:35Z</time>
      </trkpt>
      <trkpt lat="27.938279" lon="-15.521102">
        <ele>1329.00</ele>
        <time>2018-01-13T11:04:37Z</time>
      </trkpt>
      <trkpt lat="27.938295" lon="-15.521114">
        <ele>1328.69</ele>
        <time>2018-01-13T11:04:38Z</time>
      </trkpt>
      <trkpt lat="27.938314" lon="-15.521124">
        <ele>1328.91</ele>
        <time>2018-01-13T11:04:39Z</time>
      </trkpt>
      <trkpt lat="27.938335" lon="-15.521132">
        <ele>1329.00</ele>
        <time>2018-01-13T11:04:40Z</time>
      </trkpt>
      <trkpt lat="27.938356" lon="-15.521133">
        <ele>1329.00</ele>
        <time>2018-01-13T11:04:41Z</time>
      </trkpt>
      <trkpt lat="27.938379" lon="-15.521136">
        <ele>1329.00</ele>
        <time>2018-01-13T11:04:42Z</time>
      </trkpt>
      <trkpt lat="27.938400" lon="-15.521136">
        <ele>1329.62</ele>
        <time>2018-01-13T11:04:43Z</time>
      </trkpt>
      <trkpt lat="27.938420" lon="-15.521135">
        <ele>1330.11</ele>
        <time>2018-01-13T11:04:44Z</time>
      </trkpt>
      <trkpt lat="27.938443" lon="-15.521133">
        <ele>1330.36</ele>
        <time>2018-01-13T11:04:45Z</time>
      </trkpt>
      <trkpt lat="27.938465" lon="-15.521141">
        <ele>1330.40</ele>
        <time>2018-01-13T11:04:46Z</time>
      </trkpt>
      <trkpt lat="27.938486" lon="-15.521149">
        <ele>1330.87</ele>
        <time>2018-01-13T11:04:47Z</time>
      </trkpt>
      <trkpt lat="27.938507" lon="-15.521160">
        <ele>1331.00</ele>
        <time>2018-01-13T11:04:48Z</time>
      </trkpt>
      <trkpt lat="27.938526" lon="-15.521172">
        <ele>1331.00</ele>
        <time>2018-01-13T11:04:49Z</time>
      </trkpt>
      <trkpt lat="27.938547" lon="-15.521183">
        <ele>1331.00</ele>
        <time>2018-01-13T11:04:50Z</time>
      </trkpt>
      <trkpt lat="27.938568" lon="-15.521194">
        <ele>1331.00</ele>
        <time>2018-01-13T11:04:51Z</time>
      </trkpt>
      <trkpt lat="27.938586" lon="-15.521202">
        <ele>1331.00</ele>
        <time>2018-01-13T11:04:52Z</time>
      </trkpt>
      <trkpt lat="27.938605" lon="-15.521205">
        <ele>1331.00</ele>
        <time>2018-01-13T11:04:53Z</time>
      </trkpt>
      <trkpt lat="27.938629" lon="-15.521213">
        <ele>1331.16</ele>
        <time>2018-01-13T11:04:54Z</time>
      </trkpt>
      <trkpt lat="27.938652" lon="-15.521222">
        <ele>1331.20</ele>
        <time>2018-01-13T11:04:55Z</time>
      </trkpt>
      <trkpt lat="27.938676" lon="-15.521229">
        <ele>1331.20</ele>
        <time>2018-01-13T11:04:56Z</time>
      </trkpt>
      <trkpt lat="27.938701" lon="-15.521231">
        <ele>1331.20</ele>
        <time>2018-01-13T11:04:57Z</time>
      </trkpt>
      <trkpt lat="27.938724" lon="-15.521235">
        <ele>1331.20</ele>
        <time>2018-01-13T11:04:58Z</time>
      </trkpt>
      <trkpt lat="27.938750" lon="-15.521245">
        <ele>1331.20</ele>
        <time>2018-01-13T11:04:59Z</time>
      </trkpt>
      <trkpt lat="27.938772" lon="-15.521257">
        <ele>1331.44</ele>
        <time>2018-01-13T11:05:00Z</time>
      </trkpt>
      <trkpt lat="27.938793" lon="-15.521264">
        <ele>1331.19</ele>
        <time>2018-01-13T11:05:01Z</time>
      </trkpt>
      <trkpt lat="27.938811" lon="-15.521269">
        <ele>1331.10</ele>
        <time>2018-01-13T11:05:02Z</time>
      </trkpt>
      <trkpt lat="27.938830" lon="-15.521270">
        <ele>1331.10</ele>
        <time>2018-01-13T11:05:03Z</time>
      </trkpt>
      <trkpt lat="27.938852" lon="-15.521269">
        <ele>1331.10</ele>
        <time>2018-01-13T11:05:04Z</time>
      </trkpt>
      <trkpt lat="27.938870" lon="-15.521264">
        <ele>1331.26</ele>
        <time>2018-01-13T11:05:05Z</time>
      </trkpt>
      <trkpt lat="27.938890" lon="-15.521254">
        <ele>1331.30</ele>
        <time>2018-01-13T11:05:06Z</time>
      </trkpt>
      <trkpt lat="27.938912" lon="-15.521247">
        <ele>1331.30</ele>
        <time>2018-01-13T11:05:07Z</time>
      </trkpt>
      <trkpt lat="27.938951" lon="-15.521245">
        <ele>1332.10</ele>
        <time>2018-01-13T11:05:09Z</time>
      </trkpt>
      <trkpt lat="27.938971" lon="-15.521249">
        <ele>1332.10</ele>
        <time>2018-01-13T11:05:10Z</time>
      </trkpt>
      <trkpt lat="27.938992" lon="-15.521256">
        <ele>1332.72</ele>
        <time>2018-01-13T11:05:11Z</time>
      </trkpt>
      <trkpt lat="27.939012" lon="-15.521265">
        <ele>1333.06</ele>
        <time>2018-01-13T11:05:12Z</time>
      </trkpt>
      <trkpt lat="27.939032" lon="-15.521273">
        <ele>1333.49</ele>
        <time>2018-01-13T11:05:13Z</time>
      </trkpt>
      <trkpt lat="27.939054" lon="-15.521284">
        <ele>1333.60</ele>
        <time>2018-01-13T11:05:14Z</time>
      </trkpt>
      <trkpt lat="27.939076" lon="-15.521297">
        <ele>1333.60</ele>
        <time>2018-01-13T11:05:15Z</time>
      </trkpt>
      <trkpt lat="27.939097" lon="-15.521312">
        <ele>1333.60</ele>
        <time>2018-01-13T11:05:16Z</time>
      </trkpt>
      <trkpt lat="27.939119" lon="-15.521324">
        <ele>1333.60</ele>
        <time>2018-01-13T11:05:17Z</time>
      </trkpt>
      <trkpt lat="27.939140" lon="-15.521339">
        <ele>1333.60</ele>
        <time>2018-01-13T11:05:18Z</time>
      </trkpt>
      <trkpt lat="27.939162" lon="-15.521352">
        <ele>1333.60</ele>
        <time>2018-01-13T11:05:19Z</time>
      </trkpt>
      <trkpt lat="27.939183" lon="-15.521363">
        <ele>1333.44</ele>
        <time>2018-01-13T11:05:20Z</time>
      </trkpt>
      <trkpt lat="27.939204" lon="-15.521372">
        <ele>1333.40</ele>
        <time>2018-01-13T11:05:21Z</time>
      </trkpt>
      <trkpt lat="27.939227" lon="-15.521379">
        <ele>1333.16</ele>
        <time>2018-01-13T11:05:22Z</time>
      </trkpt>
      <trkpt lat="27.939246" lon="-15.521383">
        <ele>1333.10</ele>
        <time>2018-01-13T11:05:23Z</time>
      </trkpt>
      <trkpt lat="27.939264" lon="-15.521388">
        <ele>1333.02</ele>
        <time>2018-01-13T11:05:24Z</time>
      </trkpt>
      <trkpt lat="27.939295" lon="-15.521390">
        <ele>1332.80</ele>
        <time>2018-01-13T11:05:26Z</time>
      </trkpt>
      <trkpt lat="27.939321" lon="-15.521395">
        <ele>1332.60</ele>
        <time>2018-01-13T11:05:28Z</time>
      </trkpt>
      <trkpt lat="27.939336" lon="-15.521416">
        <ele>1331.90</ele>
        <time>2018-01-13T11:05:30Z</time>
      </trkpt>
      <trkpt lat="27.939354" lon="-15.521439">
        <ele>1332.14</ele>
        <time>2018-01-13T11:05:32Z</time>
      </trkpt>
      <trkpt lat="27.939380" lon="-15.521463">
        <ele>1332.76</ele>
        <time>2018-01-13T11:05:34Z</time>
      </trkpt>
      <trkpt lat="27.939412" lon="-15.521507">
        <ele>1333.16</ele>
        <time>2018-01-13T11:05:37Z</time>
      </trkpt>
      <trkpt lat="27.939428" lon="-15.521520">
        <ele>1333.52</ele>
        <time>2018-01-13T11:05:38Z</time>
      </trkpt>
      <trkpt lat="27.939449" lon="-15.521532">
        <ele>1334.24</ele>
        <time>2018-01-13T11:05:39Z</time>
      </trkpt>
      <trkpt lat="27.939473" lon="-15.521540">
        <ele>1334.56</ele>
        <time>2018-01-13T11:05:40Z</time>
      </trkpt>
      <trkpt lat="27.939494" lon="-15.521549">
        <ele>1334.60</ele>
        <time>2018-01-13T11:05:41Z</time>
      </trkpt>
      <trkpt lat="27.939512" lon="-15.521558">
        <ele>1334.60</ele>
        <time>2018-01-13T11:05:42Z</time>
      </trkpt>
      <trkpt lat="27.939533" lon="-15.521575">
        <ele>1335.15</ele>
        <time>2018-01-13T11:05:43Z</time>
      </trkpt>
      <trkpt lat="27.939554" lon="-15.521588">
        <ele>1335.30</ele>
        <time>2018-01-13T11:05:44Z</time>
      </trkpt>
      <trkpt lat="27.939580" lon="-15.521604">
        <ele>1335.69</ele>
        <time>2018-01-13T11:05:45Z</time>
      </trkpt>
      <trkpt lat="27.939603" lon="-15.521611">
        <ele>1336.03</ele>
        <time>2018-01-13T11:05:46Z</time>
      </trkpt>
      <trkpt lat="27.939624" lon="-15.521622">
        <ele>1336.26</ele>
        <time>2018-01-13T11:05:47Z</time>
      </trkpt>
      <trkpt lat="27.939645" lon="-15.521636">
        <ele>1336.77</ele>
        <time>2018-01-13T11:05:48Z</time>
      </trkpt>
      <trkpt lat="27.939664" lon="-15.521641">
        <ele>1336.98</ele>
        <time>2018-01-13T11:05:49Z</time>
      </trkpt>
      <trkpt lat="27.939684" lon="-15.521644">
        <ele>1337.00</ele>
        <time>2018-01-13T11:05:50Z</time>
      </trkpt>
      <trkpt lat="27.939702" lon="-15.521644">
        <ele>1337.00</ele>
        <time>2018-01-13T11:05:51Z</time>
      </trkpt>
      <trkpt lat="27.939722" lon="-15.521645">
        <ele>1336.61</ele>
        <time>2018-01-13T11:05:52Z</time>
      </trkpt>
      <trkpt lat="27.939740" lon="-15.521646">
        <ele>1336.50</ele>
        <time>2018-01-13T11:05:53Z</time>
      </trkpt>
      <trkpt lat="27.939760" lon="-15.521647">
        <ele>1335.96</ele>
        <time>2018-01-13T11:05:54Z</time>
      </trkpt>
      <trkpt lat="27.939796" lon="-15.521653">
        <ele>1335.49</ele>
        <time>2018-01-13T11:05:56Z</time>
      </trkpt>
      <trkpt lat="27.939825" lon="-15.521660">
        <ele>1334.83</ele>
        <time>2018-01-13T11:05:58Z</time>
      </trkpt>
      <trkpt lat="27.939852" lon="-15.521672">
        <ele>1334.40</ele>
        <time>2018-01-13T11:06:00Z</time>
      </trkpt>
      <trkpt lat="27.939876" lon="-15.521685">
        <ele>1334.30</ele>
        <time>2018-01-13T11:06:02Z</time>
      </trkpt>
      <trkpt lat="27.939899" lon="-15.521699">
        <ele>1333.76</ele>
        <time>2018-01-13T11:06:04Z</time>
      </trkpt>
      <trkpt lat="27.939919" lon="-15.521719">
        <ele>1333.32</ele>
        <time>2018-01-13T11:06:06Z</time>
      </trkpt>
      <trkpt lat="27.939937" lon="-15.521731">
        <ele>1333.10</ele>
        <time>2018-01-13T11:06:08Z</time>
      </trkpt>
      <trkpt lat="27.939954" lon="-15.521742">
        <ele>1333.10</ele>
        <time>2018-01-13T11:06:10Z</time>
      </trkpt>
      <trkpt lat="27.939971" lon="-15.521752">
        <ele>1332.90</ele>
        <time>2018-01-13T11:06:12Z</time>
      </trkpt>
      <trkpt lat="27.939989" lon="-15.521764">
        <ele>1332.65</ele>
        <time>2018-01-13T11:06:14Z</time>
      </trkpt>
      <trkpt lat="27.940001" lon="-15.521787">
        <ele>1332.21</ele>
        <time>2018-01-13T11:06:16Z</time>
      </trkpt>
      <trkpt lat="27.940016" lon="-15.521817">
        <ele>1332.10</ele>
        <time>2018-01-13T11:06:18Z</time>
      </trkpt>
      <trkpt lat="27.940023" lon="-15.521849">
        <ele>1331.59</ele>
        <time>2018-01-13T11:06:20Z</time>
      </trkpt>
      <trkpt lat="27.940007" lon="-15.521926">
        <ele>1331.40</ele>
        <time>2018-01-13T11:06:25Z</time>
      </trkpt>
      <trkpt lat="27.939992" lon="-15.521954">
        <ele>1330.30</ele>
        <time>2018-01-13T11:06:27Z</time>
      </trkpt>
      <trkpt lat="27.939991" lon="-15.521990">
        <ele>1330.12</ele>
        <time>2018-01-13T11:06:29Z</time>
      </trkpt>
      <trkpt lat="27.940000" lon="-15.522020">
        <ele>1330.02</ele>
        <time>2018-01-13T11:06:31Z</time>
      </trkpt>
      <trkpt lat="27.940012" lon="-15.522049">
        <ele>1329.94</ele>
        <time>2018-01-13T11:06:33Z</time>
      </trkpt>
      <trkpt lat="27.940026" lon="-15.522066">
        <ele>1329.70</ele>
        <time>2018-01-13T11:06:35Z</time>
      </trkpt>
      <trkpt lat="27.940045" lon="-15.522083">
        <ele>1329.61</ele>
        <time>2018-01-13T11:06:37Z</time>
      </trkpt>
      <trkpt lat="27.940067" lon="-15.522100">
        <ele>1329.24</ele>
        <time>2018-01-13T11:06:39Z</time>
      </trkpt>
      <trkpt lat="27.940086" lon="-15.522125">
        <ele>1329.10</ele>
        <time>2018-01-13T11:06:41Z</time>
      </trkpt>
      <trkpt lat="27.940105" lon="-15.522146">
        <ele>1329.10</ele>
        <time>2018-01-13T11:06:43Z</time>
      </trkpt>
      <trkpt lat="27.940120" lon="-15.522172">
        <ele>1328.94</ele>
        <time>2018-01-13T11:06:45Z</time>
      </trkpt>
      <trkpt lat="27.940128" lon="-15.522202">
        <ele>1328.80</ele>
        <time>2018-01-13T11:06:47Z</time>
      </trkpt>
      <trkpt lat="27.940138" lon="-15.522235">
        <ele>1328.60</ele>
        <time>2018-01-13T11:06:49Z</time>
      </trkpt>
      <trkpt lat="27.940150" lon="-15.522268">
        <ele>1328.50</ele>
        <time>2018-01-13T11:06:51Z</time>
      </trkpt>
      <trkpt lat="27.940170" lon="-15.522298">
        <ele>1328.30</ele>
        <time>2018-01-13T11:06:53Z</time>
      </trkpt>
      <trkpt lat="27.940183" lon="-15.522327">
        <ele>1328.18</ele>
        <time>2018-01-13T11:06:55Z</time>
      </trkpt>
      <trkpt lat="27.940196" lon="-15.522356">
        <ele>1328.02</ele>
        <time>2018-01-13T11:06:57Z</time>
      </trkpt>
      <trkpt lat="27.940210" lon="-15.522381">
        <ele>1327.53</ele>
        <time>2018-01-13T11:06:59Z</time>
      </trkpt>
      <trkpt lat="27.940230" lon="-15.522401">
        <ele>1327.14</ele>
        <time>2018-01-13T11:07:01Z</time>
      </trkpt>
      <trkpt lat="27.940252" lon="-15.522411">
        <ele>1326.82</ele>
        <time>2018-01-13T11:07:03Z</time>
      </trkpt>
      <trkpt lat="27.940276" lon="-15.522414">
        <ele>1326.80</ele>
        <time>2018-01-13T11:07:05Z</time>
      </trkpt>
      <trkpt lat="27.940299" lon="-15.522420">
        <ele>1326.80</ele>
        <time>2018-01-13T11:07:07Z</time>
      </trkpt>
      <trkpt lat="27.940322" lon="-15.522419">
        <ele>1326.96</ele>
        <time>2018-01-13T11:07:09Z</time>
      </trkpt>
      <trkpt lat="27.940352" lon="-15.522423">
        <ele>1326.85</ele>
        <time>2018-01-13T11:07:11Z</time>
      </trkpt>
      <trkpt lat="27.940381" lon="-15.522426">
        <ele>1325.42</ele>
        <time>2018-01-13T11:07:13Z</time>
      </trkpt>
      <trkpt lat="27.940410" lon="-15.522435">
        <ele>1325.30</ele>
        <time>2018-01-13T11:07:15Z</time>
      </trkpt>
      <trkpt lat="27.940434" lon="-15.522444">
        <ele>1325.30</ele>
        <time>2018-01-13T11:07:17Z</time>
      </trkpt>
      <trkpt lat="27.940456" lon="-15.522453">
        <ele>1324.57</ele>
        <time>2018-01-13T11:07:19Z</time>
      </trkpt>
      <trkpt lat="27.940475" lon="-15.522458">
        <ele>1324.40</ele>
        <time>2018-01-13T11:07:21Z</time>
      </trkpt>
      <trkpt lat="27.940495" lon="-15.522462">
        <ele>1324.40</ele>
        <time>2018-01-13T11:07:23Z</time>
      </trkpt>
      <trkpt lat="27.940515" lon="-15.522468">
        <ele>1323.90</ele>
        <time>2018-01-13T11:07:25Z</time>
      </trkpt>
      <trkpt lat="27.940542" lon="-15.522469">
        <ele>1323.80</ele>
        <time>2018-01-13T11:07:27Z</time>
      </trkpt>
      <trkpt lat="27.940560" lon="-15.522470">
        <ele>1323.80</ele>
        <time>2018-01-13T11:07:28Z</time>
      </trkpt>
      <trkpt lat="27.940580" lon="-15.522471">
        <ele>1324.03</ele>
        <time>2018-01-13T11:07:29Z</time>
      </trkpt>
      <trkpt lat="27.940614" lon="-15.522469">
        <ele>1324.10</ele>
        <time>2018-01-13T11:07:31Z</time>
      </trkpt>
      <trkpt lat="27.940636" lon="-15.522477">
        <ele>1324.10</ele>
        <time>2018-01-13T11:07:32Z</time>
      </trkpt>
      <trkpt lat="27.940656" lon="-15.522489">
        <ele>1324.10</ele>
        <time>2018-01-13T11:07:33Z</time>
      </trkpt>
      <trkpt lat="27.940672" lon="-15.522504">
        <ele>1324.10</ele>
        <time>2018-01-13T11:07:34Z</time>
      </trkpt>
      <trkpt lat="27.940686" lon="-15.522524">
        <ele>1324.10</ele>
        <time>2018-01-13T11:07:35Z</time>
      </trkpt>
      <trkpt lat="27.940698" lon="-15.522542">
        <ele>1323.94</ele>
        <time>2018-01-13T11:07:36Z</time>
      </trkpt>
      <trkpt lat="27.940711" lon="-15.522561">
        <ele>1323.90</ele>
        <time>2018-01-13T11:07:37Z</time>
      </trkpt>
      <trkpt lat="27.940724" lon="-15.522578">
        <ele>1323.90</ele>
        <time>2018-01-13T11:07:38Z</time>
      </trkpt>
      <trkpt lat="27.940736" lon="-15.522597">
        <ele>1323.90</ele>
        <time>2018-01-13T11:07:39Z</time>
      </trkpt>
      <trkpt lat="27.940745" lon="-15.522618">
        <ele>1323.59</ele>
        <time>2018-01-13T11:07:40Z</time>
      </trkpt>
      <trkpt lat="27.940756" lon="-15.522636">
        <ele>1323.50</ele>
        <time>2018-01-13T11:07:41Z</time>
      </trkpt>
      <trkpt lat="27.940766" lon="-15.522654">
        <ele>1323.03</ele>
        <time>2018-01-13T11:07:42Z</time>
      </trkpt>
      <trkpt lat="27.940775" lon="-15.522673">
        <ele>1322.67</ele>
        <time>2018-01-13T11:07:43Z</time>
      </trkpt>
      <trkpt lat="27.940797" lon="-15.522703">
        <ele>1322.58</ele>
        <time>2018-01-13T11:07:45Z</time>
      </trkpt>
      <trkpt lat="27.940823" lon="-15.522723">
        <ele>1322.60</ele>
        <time>2018-01-13T11:07:47Z</time>
      </trkpt>
      <trkpt lat="27.940843" lon="-15.522744">
        <ele>1322.67</ele>
        <time>2018-01-13T11:07:49Z</time>
      </trkpt>
      <trkpt lat="27.940863" lon="-15.522768">
        <ele>1322.60</ele>
        <time>2018-01-13T11:07:51Z</time>
      </trkpt>
      <trkpt lat="27.940878" lon="-15.522800">
        <ele>1321.50</ele>
        <time>2018-01-13T11:07:53Z</time>
      </trkpt>
      <trkpt lat="27.940879" lon="-15.522827">
        <ele>1321.50</ele>
        <time>2018-01-13T11:07:55Z</time>
      </trkpt>
      <trkpt lat="27.940883" lon="-15.522856">
        <ele>1321.11</ele>
        <time>2018-01-13T11:07:57Z</time>
      </trkpt>
      <trkpt lat="27.940875" lon="-15.522886">
        <ele>1321.00</ele>
        <time>2018-01-13T11:07:59Z</time>
      </trkpt>
      <trkpt lat="27.940871" lon="-15.522912">
        <ele>1321.00</ele>
        <time>2018-01-13T11:08:01Z</time>
      </trkpt>
      <trkpt lat="27.940851" lon="-15.522925">
        <ele>1320.60</ele>
        <time>2018-01-13T11:08:03Z</time>
      </trkpt>
      <trkpt lat="27.940825" lon="-15.523015">
        <ele>1321.61</ele>
        <time>2018-01-13T11:08:09Z</time>
      </trkpt>
      <trkpt lat="27.940837" lon="-15.523036">
        <ele>1321.70</ele>
        <time>2018-01-13T11:08:10Z</time>
      </trkpt>
      <trkpt lat="27.940852" lon="-15.523060">
        <ele>1322.25</ele>
        <time>2018-01-13T11:08:11Z</time>
      </trkpt>
      <trkpt lat="27.940861" lon="-15.523080">
        <ele>1322.40</ele>
        <time>2018-01-13T11:08:12Z</time>
      </trkpt>
      <trkpt lat="27.940869" lon="-15.523101">
        <ele>1322.40</ele>
        <time>2018-01-13T11:08:13Z</time>
      </trkpt>
      <trkpt lat="27.940886" lon="-15.523137">
        <ele>1322.70</ele>
        <time>2018-01-13T11:08:15Z</time>
      </trkpt>
      <trkpt lat="27.940896" lon="-15.523154">
        <ele>1323.01</ele>
        <time>2018-01-13T11:08:16Z</time>
      </trkpt>
      <trkpt lat="27.940910" lon="-15.523168">
        <ele>1323.18</ele>
        <time>2018-01-13T11:08:17Z</time>
      </trkpt>
      <trkpt lat="27.940926" lon="-15.523180">
        <ele>1323.20</ele>
        <time>2018-01-13T11:08:18Z</time>
      </trkpt>
      <trkpt lat="27.940943" lon="-15.523192">
        <ele>1323.43</ele>
        <time>2018-01-13T11:08:19Z</time>
      </trkpt>
      <trkpt lat="27.940966" lon="-15.523208">
        <ele>1323.81</ele>
        <time>2018-01-13T11:08:20Z</time>
      </trkpt>
      <trkpt lat="27.940984" lon="-15.523222">
        <ele>1324.06</ele>
        <time>2018-01-13T11:08:21Z</time>
      </trkpt>
      <trkpt lat="27.941002" lon="-15.523239">
        <ele>1323.94</ele>
        <time>2018-01-13T11:08:22Z</time>
      </trkpt>
      <trkpt lat="27.941018" lon="-15.523254">
        <ele>1324.06</ele>
        <time>2018-01-13T11:08:23Z</time>
      </trkpt>
      <trkpt lat="27.941035" lon="-15.523269">
        <ele>1324.10</ele>
        <time>2018-01-13T11:08:24Z</time>
      </trkpt>
      <trkpt lat="27.941052" lon="-15.523283">
        <ele>1324.88</ele>
        <time>2018-01-13T11:08:25Z</time>
      </trkpt>
      <trkpt lat="27.941071" lon="-15.523294">
        <ele>1325.10</ele>
        <time>2018-01-13T11:08:26Z</time>
      </trkpt>
      <trkpt lat="27.941091" lon="-15.523308">
        <ele>1324.87</ele>
        <time>2018-01-13T11:08:27Z</time>
      </trkpt>
      <trkpt lat="27.941111" lon="-15.523322">
        <ele>1325.03</ele>
        <time>2018-01-13T11:08:28Z</time>
      </trkpt>
      <trkpt lat="27.941131" lon="-15.523335">
        <ele>1325.10</ele>
        <time>2018-01-13T11:08:29Z</time>
      </trkpt>
      <trkpt lat="27.941146" lon="-15.523348">
        <ele>1325.10</ele>
        <time>2018-01-13T11:08:30Z</time>
      </trkpt>
      <trkpt lat="27.941161" lon="-15.523362">
        <ele>1325.41</ele>
        <time>2018-01-13T11:08:31Z</time>
      </trkpt>
      <trkpt lat="27.941174" lon="-15.523382">
        <ele>1325.50</ele>
        <time>2018-01-13T11:08:32Z</time>
      </trkpt>
      <trkpt lat="27.941186" lon="-15.523399">
        <ele>1325.73</ele>
        <time>2018-01-13T11:08:33Z</time>
      </trkpt>
      <trkpt lat="27.941199" lon="-15.523418">
        <ele>1325.80</ele>
        <time>2018-01-13T11:08:34Z</time>
      </trkpt>
      <trkpt lat="27.941212" lon="-15.523436">
        <ele>1325.88</ele>
        <time>2018-01-13T11:08:35Z</time>
      </trkpt>
      <trkpt lat="27.941230" lon="-15.523456">
        <ele>1325.90</ele>
        <time>2018-01-13T11:08:36Z</time>
      </trkpt>
      <trkpt lat="27.941245" lon="-15.523473">
        <ele>1325.90</ele>
        <time>2018-01-13T11:08:37Z</time>
      </trkpt>
      <trkpt lat="27.941266" lon="-15.523506">
        <ele>1326.28</ele>
        <time>2018-01-13T11:08:39Z</time>
      </trkpt>
      <trkpt lat="27.941273" lon="-15.523525">
        <ele>1326.30</ele>
        <time>2018-01-13T11:08:40Z</time>
      </trkpt>
      <trkpt lat="27.941275" lon="-15.523547">
        <ele>1326.30</ele>
        <time>2018-01-13T11:08:41Z</time>
      </trkpt>
      <trkpt lat="27.941276" lon="-15.523568">
        <ele>1326.30</ele>
        <time>2018-01-13T11:08:42Z</time>
      </trkpt>
      <trkpt lat="27.941279" lon="-15.523590">
        <ele>1326.69</ele>
        <time>2018-01-13T11:08:43Z</time>
      </trkpt>
      <trkpt lat="27.941300" lon="-15.523616">
        <ele>1326.72</ele>
        <time>2018-01-13T11:08:45Z</time>
      </trkpt>
      <trkpt lat="27.941326" lon="-15.523639">
        <ele>1325.59</ele>
        <time>2018-01-13T11:08:47Z</time>
      </trkpt>
      <trkpt lat="27.941340" lon="-15.523653">
        <ele>1325.58</ele>
        <time>2018-01-13T11:08:48Z</time>
      </trkpt>
      <trkpt lat="27.941353" lon="-15.523670">
        <ele>1325.37</ele>
        <time>2018-01-13T11:08:49Z</time>
      </trkpt>
      <trkpt lat="27.941378" lon="-15.523694">
        <ele>1324.73</ele>
        <time>2018-01-13T11:08:51Z</time>
      </trkpt>
      <trkpt lat="27.941402" lon="-15.523705">
        <ele>1324.52</ele>
        <time>2018-01-13T11:08:53Z</time>
      </trkpt>
      <trkpt lat="27.941423" lon="-15.523712">
        <ele>1324.30</ele>
        <time>2018-01-13T11:08:55Z</time>
      </trkpt>
      <trkpt lat="27.941440" lon="-15.523721">
        <ele>1323.91</ele>
        <time>2018-01-13T11:08:57Z</time>
      </trkpt>
      <trkpt lat="27.941453" lon="-15.523741">
        <ele>1323.24</ele>
        <time>2018-01-13T11:08:59Z</time>
      </trkpt>
      <trkpt lat="27.941468" lon="-15.523759">
        <ele>1322.95</ele>
        <time>2018-01-13T11:09:01Z</time>
      </trkpt>
      <trkpt lat="27.941491" lon="-15.523757">
        <ele>1322.15</ele>
        <time>2018-01-13T11:09:03Z</time>
      </trkpt>
      <trkpt lat="27.941519" lon="-15.523753">
        <ele>1321.70</ele>
        <time>2018-01-13T11:09:06Z</time>
      </trkpt>
      <trkpt lat="27.941536" lon="-15.523757">
        <ele>1321.62</ele>
        <time>2018-01-13T11:09:08Z</time>
      </trkpt>
      <trkpt lat="27.941559" lon="-15.523766">
        <ele>1321.60</ele>
        <time>2018-01-13T11:09:10Z</time>
      </trkpt>
      <trkpt lat="27.941587" lon="-15.523786">
        <ele>1321.80</ele>
        <time>2018-01-13T11:09:12Z</time>
      </trkpt>
      <trkpt lat="27.941598" lon="-15.523811">
        <ele>1321.32</ele>
        <time>2018-01-13T11:09:14Z</time>
      </trkpt>
      <trkpt lat="27.941611" lon="-15.523833">
        <ele>1321.30</ele>
        <time>2018-01-13T11:09:16Z</time>
      </trkpt>
      <trkpt lat="27.941631" lon="-15.523844">
        <ele>1321.30</ele>
        <time>2018-01-13T11:09:18Z</time>
      </trkpt>
      <trkpt lat="27.941658" lon="-15.523844">
        <ele>1321.30</ele>
        <time>2018-01-13T11:09:20Z</time>
      </trkpt>
      <trkpt lat="27.941685" lon="-15.523830">
        <ele>1321.30</ele>
        <time>2018-01-13T11:09:22Z</time>
      </trkpt>
      <trkpt lat="27.941709" lon="-15.523810">
        <ele>1320.97</ele>
        <time>2018-01-13T11:09:24Z</time>
      </trkpt>
      <trkpt lat="27.941727" lon="-15.523788">
        <ele>1320.12</ele>
        <time>2018-01-13T11:09:26Z</time>
      </trkpt>
      <trkpt lat="27.941742" lon="-15.523771">
        <ele>1319.94</ele>
        <time>2018-01-13T11:09:28Z</time>
      </trkpt>
      <trkpt lat="27.941759" lon="-15.523750">
        <ele>1319.71</ele>
        <time>2018-01-13T11:09:30Z</time>
      </trkpt>
      <trkpt lat="27.941765" lon="-15.523729">
        <ele>1319.44</ele>
        <time>2018-01-13T11:09:32Z</time>
      </trkpt>
      <trkpt lat="27.941772" lon="-15.523705">
        <ele>1319.36</ele>
        <time>2018-01-13T11:09:34Z</time>
      </trkpt>
      <trkpt lat="27.941767" lon="-15.523682">
        <ele>1319.40</ele>
        <time>2018-01-13T11:09:36Z</time>
      </trkpt>
      <trkpt lat="27.941776" lon="-15.523649">
        <ele>1319.20</ele>
        <time>2018-01-13T11:09:38Z</time>
      </trkpt>
      <trkpt lat="27.941790" lon="-15.523616">
        <ele>1319.59</ele>
        <time>2018-01-13T11:09:40Z</time>
      </trkpt>
      <trkpt lat="27.941808" lon="-15.523590">
        <ele>1319.20</ele>
        <time>2018-01-13T11:09:42Z</time>
      </trkpt>
      <trkpt lat="27.941824" lon="-15.523564">
        <ele>1319.12</ele>
        <time>2018-01-13T11:09:44Z</time>
      </trkpt>
      <trkpt lat="27.941845" lon="-15.523541">
        <ele>1317.89</ele>
        <time>2018-01-13T11:09:46Z</time>
      </trkpt>
      <trkpt lat="27.941870" lon="-15.523525">
        <ele>1317.37</ele>
        <time>2018-01-13T11:09:48Z</time>
      </trkpt>
      <trkpt lat="27.941891" lon="-15.523512">
        <ele>1317.10</ele>
        <time>2018-01-13T11:09:50Z</time>
      </trkpt>
      <trkpt lat="27.941907" lon="-15.523495">
        <ele>1316.80</ele>
        <time>2018-01-13T11:09:52Z</time>
      </trkpt>
      <trkpt lat="27.941932" lon="-15.523470">
        <ele>1316.60</ele>
        <time>2018-01-13T11:09:54Z</time>
      </trkpt>
      <trkpt lat="27.941956" lon="-15.523445">
        <ele>1315.80</ele>
        <time>2018-01-13T11:09:56Z</time>
      </trkpt>
      <trkpt lat="27.941981" lon="-15.523433">
        <ele>1315.60</ele>
        <time>2018-01-13T11:09:58Z</time>
      </trkpt>
      <trkpt lat="27.942007" lon="-15.523421">
        <ele>1315.52</ele>
        <time>2018-01-13T11:10:00Z</time>
      </trkpt>
      <trkpt lat="27.942033" lon="-15.523406">
        <ele>1315.58</ele>
        <time>2018-01-13T11:10:02Z</time>
      </trkpt>
      <trkpt lat="27.942061" lon="-15.523385">
        <ele>1315.61</ele>
        <time>2018-01-13T11:10:04Z</time>
      </trkpt>
      <trkpt lat="27.942082" lon="-15.523377">
        <ele>1315.81</ele>
        <time>2018-01-13T11:10:06Z</time>
      </trkpt>
      <trkpt lat="27.942098" lon="-15.523361">
        <ele>1315.90</ele>
        <time>2018-01-13T11:10:07Z</time>
      </trkpt>
      <trkpt lat="27.942122" lon="-15.523344">
        <ele>1315.90</ele>
        <time>2018-01-13T11:10:08Z</time>
      </trkpt>
      <trkpt lat="27.942139" lon="-15.523329">
        <ele>1315.90</ele>
        <time>2018-01-13T11:10:09Z</time>
      </trkpt>
      <trkpt lat="27.942156" lon="-15.523310">
        <ele>1315.59</ele>
        <time>2018-01-13T11:10:10Z</time>
      </trkpt>
      <trkpt lat="27.942174" lon="-15.523295">
        <ele>1315.81</ele>
        <time>2018-01-13T11:10:11Z</time>
      </trkpt>
      <trkpt lat="27.942194" lon="-15.523280">
        <ele>1315.82</ele>
        <time>2018-01-13T11:10:12Z</time>
      </trkpt>
      <trkpt lat="27.942210" lon="-15.523269">
        <ele>1315.80</ele>
        <time>2018-01-13T11:10:13Z</time>
      </trkpt>
      <trkpt lat="27.942246" lon="-15.523252">
        <ele>1315.80</ele>
        <time>2018-01-13T11:10:15Z</time>
      </trkpt>
      <trkpt lat="27.942277" lon="-15.523255">
        <ele>1315.20</ele>
        <time>2018-01-13T11:10:17Z</time>
      </trkpt>
      <trkpt lat="27.942305" lon="-15.523276">
        <ele>1315.20</ele>
        <time>2018-01-13T11:10:19Z</time>
      </trkpt>
      <trkpt lat="27.942327" lon="-15.523303">
        <ele>1315.74</ele>
        <time>2018-01-13T11:10:21Z</time>
      </trkpt>
      <trkpt lat="27.942344" lon="-15.523329">
        <ele>1315.90</ele>
        <time>2018-01-13T11:10:23Z</time>
      </trkpt>
      <trkpt lat="27.942359" lon="-15.523355">
        <ele>1315.90</ele>
        <time>2018-01-13T11:10:25Z</time>
      </trkpt>
      <trkpt lat="27.942376" lon="-15.523377">
        <ele>1314.09</ele>
        <time>2018-01-13T11:10:27Z</time>
      </trkpt>
      <trkpt lat="27.942386" lon="-15.523398">
        <ele>1313.92</ele>
        <time>2018-01-13T11:10:29Z</time>
      </trkpt>
      <trkpt lat="27.942399" lon="-15.523422">
        <ele>1313.62</ele>
        <time>2018-01-13T11:10:31Z</time>
      </trkpt>
      <trkpt lat="27.942413" lon="-15.523440">
        <ele>1313.13</ele>
        <time>2018-01-13T11:10:33Z</time>
      </trkpt>
      <trkpt lat="27.942432" lon="-15.523450">
        <ele>1313.13</ele>
        <time>2018-01-13T11:10:35Z</time>
      </trkpt>
      <trkpt lat="27.942455" lon="-15.523459">
        <ele>1312.80</ele>
        <time>2018-01-13T11:10:37Z</time>
      </trkpt>
      <trkpt lat="27.942480" lon="-15.523469">
        <ele>1312.24</ele>
        <time>2018-01-13T11:10:39Z</time>
      </trkpt>
      <trkpt lat="27.942505" lon="-15.523480">
        <ele>1312.10</ele>
        <time>2018-01-13T11:10:41Z</time>
      </trkpt>
      <trkpt lat="27.942527" lon="-15.523492">
        <ele>1312.10</ele>
        <time>2018-01-13T11:10:43Z</time>
      </trkpt>
      <trkpt lat="27.942548" lon="-15.523519">
        <ele>1312.10</ele>
        <time>2018-01-13T11:10:45Z</time>
      </trkpt>
      <trkpt lat="27.942571" lon="-15.523539">
        <ele>1312.29</ele>
        <time>2018-01-13T11:10:47Z</time>
      </trkpt>
      <trkpt lat="27.942585" lon="-15.523556">
        <ele>1312.71</ele>
        <time>2018-01-13T11:10:48Z</time>
      </trkpt>
      <trkpt lat="27.942599" lon="-15.523572">
        <ele>1312.80</ele>
        <time>2018-01-13T11:10:49Z</time>
      </trkpt>
      <trkpt lat="27.942613" lon="-15.523589">
        <ele>1312.80</ele>
        <time>2018-01-13T11:10:50Z</time>
      </trkpt>
      <trkpt lat="27.942628" lon="-15.523609">
        <ele>1313.42</ele>
        <time>2018-01-13T11:10:51Z</time>
      </trkpt>
      <trkpt lat="27.942644" lon="-15.523629">
        <ele>1314.07</ele>
        <time>2018-01-13T11:10:52Z</time>
      </trkpt>
      <trkpt lat="27.942660" lon="-15.523648">
        <ele>1314.20</ele>
        <time>2018-01-13T11:10:53Z</time>
      </trkpt>
      <trkpt lat="27.942676" lon="-15.523665">
        <ele>1314.20</ele>
        <time>2018-01-13T11:10:54Z</time>
      </trkpt>
      <trkpt lat="27.942693" lon="-15.523680">
        <ele>1314.20</ele>
        <time>2018-01-13T11:10:55Z</time>
      </trkpt>
      <trkpt lat="27.942711" lon="-15.523695">
        <ele>1314.20</ele>
        <time>2018-01-13T11:10:56Z</time>
      </trkpt>
      <trkpt lat="27.942750" lon="-15.523723">
        <ele>1314.04</ele>
        <time>2018-01-13T11:10:58Z</time>
      </trkpt>
      <trkpt lat="27.942825" lon="-15.523792">
        <ele>1315.10</ele>
        <time>2018-01-13T11:11:02Z</time>
      </trkpt>
      <trkpt lat="27.942839" lon="-15.523808">
        <ele>1315.30</ele>
        <time>2018-01-13T11:11:03Z</time>
      </trkpt>
      <trkpt lat="27.942857" lon="-15.523827">
        <ele>1315.38</ele>
        <time>2018-01-13T11:11:04Z</time>
      </trkpt>
      <trkpt lat="27.942875" lon="-15.523837">
        <ele>1315.40</ele>
        <time>2018-01-13T11:11:05Z</time>
      </trkpt>
      <trkpt lat="27.942896" lon="-15.523845">
        <ele>1315.40</ele>
        <time>2018-01-13T11:11:06Z</time>
      </trkpt>
      <trkpt lat="27.942917" lon="-15.523851">
        <ele>1315.63</ele>
        <time>2018-01-13T11:11:07Z</time>
      </trkpt>
      <trkpt lat="27.942937" lon="-15.523856">
        <ele>1315.70</ele>
        <time>2018-01-13T11:11:08Z</time>
      </trkpt>
      <trkpt lat="27.942959" lon="-15.523864">
        <ele>1315.70</ele>
        <time>2018-01-13T11:11:09Z</time>
      </trkpt>
      <trkpt lat="27.942978" lon="-15.523867">
        <ele>1315.70</ele>
        <time>2018-01-13T11:11:10Z</time>
      </trkpt>
      <trkpt lat="27.942997" lon="-15.523877">
        <ele>1315.70</ele>
        <time>2018-01-13T11:11:11Z</time>
      </trkpt>
      <trkpt lat="27.943016" lon="-15.523892">
        <ele>1315.86</ele>
        <time>2018-01-13T11:11:12Z</time>
      </trkpt>
      <trkpt lat="27.943033" lon="-15.523909">
        <ele>1315.74</ele>
        <time>2018-01-13T11:11:13Z</time>
      </trkpt>
      <trkpt lat="27.943048" lon="-15.523927">
        <ele>1315.86</ele>
        <time>2018-01-13T11:11:14Z</time>
      </trkpt>
      <trkpt lat="27.943066" lon="-15.523940">
        <ele>1315.90</ele>
        <time>2018-01-13T11:11:15Z</time>
      </trkpt>
      <trkpt lat="27.943084" lon="-15.523949">
        <ele>1316.13</ele>
        <time>2018-01-13T11:11:16Z</time>
      </trkpt>
      <trkpt lat="27.943103" lon="-15.523955">
        <ele>1316.20</ele>
        <time>2018-01-13T11:11:17Z</time>
      </trkpt>
      <trkpt lat="27.943126" lon="-15.523958">
        <ele>1316.20</ele>
        <time>2018-01-13T11:11:18Z</time>
      </trkpt>
      <trkpt lat="27.943147" lon="-15.523961">
        <ele>1315.50</ele>
        <time>2018-01-13T11:11:19Z</time>
      </trkpt>
      <trkpt lat="27.943167" lon="-15.523958">
        <ele>1315.30</ele>
        <time>2018-01-13T11:11:20Z</time>
      </trkpt>
      <trkpt lat="27.943188" lon="-15.523962">
        <ele>1315.30</ele>
        <time>2018-01-13T11:11:21Z</time>
      </trkpt>
      <trkpt lat="27.943207" lon="-15.523966">
        <ele>1316.16</ele>
        <time>2018-01-13T11:11:22Z</time>
      </trkpt>
      <trkpt lat="27.943228" lon="-15.523977">
        <ele>1316.40</ele>
        <time>2018-01-13T11:11:23Z</time>
      </trkpt>
      <trkpt lat="27.943247" lon="-15.523986">
        <ele>1316.71</ele>
        <time>2018-01-13T11:11:24Z</time>
      </trkpt>
      <trkpt lat="27.943265" lon="-15.523989">
        <ele>1316.49</ele>
        <time>2018-01-13T11:11:25Z</time>
      </trkpt>
      <trkpt lat="27.943287" lon="-15.523986">
        <ele>1316.71</ele>
        <time>2018-01-13T11:11:26Z</time>
      </trkpt>
      <trkpt lat="27.943307" lon="-15.523981">
        <ele>1317.19</ele>
        <time>2018-01-13T11:11:27Z</time>
      </trkpt>
      <trkpt lat="27.943329" lon="-15.523978">
        <ele>1317.46</ele>
        <time>2018-01-13T11:11:28Z</time>
      </trkpt>
      <trkpt lat="27.943351" lon="-15.523978">
        <ele>1317.66</ele>
        <time>2018-01-13T11:11:29Z</time>
      </trkpt>
      <trkpt lat="27.943379" lon="-15.523986">
        <ele>1318.40</ele>
        <time>2018-01-13T11:11:30Z</time>
      </trkpt>
      <trkpt lat="27.943398" lon="-15.523994">
        <ele>1318.60</ele>
        <time>2018-01-13T11:11:31Z</time>
      </trkpt>
      <trkpt lat="27.943418" lon="-15.524007">
        <ele>1318.60</ele>
        <time>2018-01-13T11:11:32Z</time>
      </trkpt>
      <trkpt lat="27.943438" lon="-15.524025">
        <ele>1318.68</ele>
        <time>2018-01-13T11:11:33Z</time>
      </trkpt>
      <trkpt lat="27.943457" lon="-15.524039">
        <ele>1318.70</ele>
        <time>2018-01-13T11:11:34Z</time>
      </trkpt>
      <trkpt lat="27.943477" lon="-15.524049">
        <ele>1318.70</ele>
        <time>2018-01-13T11:11:35Z</time>
      </trkpt>
      <trkpt lat="27.943499" lon="-15.524055">
        <ele>1318.70</ele>
        <time>2018-01-13T11:11:36Z</time>
      </trkpt>
      <trkpt lat="27.943523" lon="-15.524065">
        <ele>1318.70</ele>
        <time>2018-01-13T11:11:37Z</time>
      </trkpt>
      <trkpt lat="27.943545" lon="-15.524076">
        <ele>1318.93</ele>
        <time>2018-01-13T11:11:38Z</time>
      </trkpt>
      <trkpt lat="27.943565" lon="-15.524082">
        <ele>1319.00</ele>
        <time>2018-01-13T11:11:39Z</time>
      </trkpt>
      <trkpt lat="27.943587" lon="-15.524093">
        <ele>1319.00</ele>
        <time>2018-01-13T11:11:40Z</time>
      </trkpt>
      <trkpt lat="27.943619" lon="-15.524122">
        <ele>1319.28</ele>
        <time>2018-01-13T11:11:42Z</time>
      </trkpt>
      <trkpt lat="27.943648" lon="-15.524135">
        <ele>1319.58</ele>
        <time>2018-01-13T11:11:44Z</time>
      </trkpt>
      <trkpt lat="27.943666" lon="-15.524138">
        <ele>1319.60</ele>
        <time>2018-01-13T11:11:45Z</time>
      </trkpt>
      <trkpt lat="27.943684" lon="-15.524144">
        <ele>1319.60</ele>
        <time>2018-01-13T11:11:46Z</time>
      </trkpt>
      <trkpt lat="27.943704" lon="-15.524152">
        <ele>1319.44</ele>
        <time>2018-01-13T11:11:47Z</time>
      </trkpt>
      <trkpt lat="27.943723" lon="-15.524162">
        <ele>1319.32</ele>
        <time>2018-01-13T11:11:48Z</time>
      </trkpt>
      <trkpt lat="27.943742" lon="-15.524170">
        <ele>1319.30</ele>
        <time>2018-01-13T11:11:49Z</time>
      </trkpt>
      <trkpt lat="27.943759" lon="-15.524177">
        <ele>1318.91</ele>
        <time>2018-01-13T11:11:50Z</time>
      </trkpt>
      <trkpt lat="27.943778" lon="-15.524185">
        <ele>1318.57</ele>
        <time>2018-01-13T11:11:51Z</time>
      </trkpt>
      <trkpt lat="27.943797" lon="-15.524195">
        <ele>1318.11</ele>
        <time>2018-01-13T11:11:52Z</time>
      </trkpt>
      <trkpt lat="27.943828" lon="-15.524208">
        <ele>1317.85</ele>
        <time>2018-01-13T11:11:54Z</time>
      </trkpt>
      <trkpt lat="27.943854" lon="-15.524208">
        <ele>1317.51</ele>
        <time>2018-01-13T11:11:56Z</time>
      </trkpt>
      <trkpt lat="27.943883" lon="-15.524215">
        <ele>1317.48</ele>
        <time>2018-01-13T11:11:58Z</time>
      </trkpt>
      <trkpt lat="27.943906" lon="-15.524206">
        <ele>1317.18</ele>
        <time>2018-01-13T11:12:00Z</time>
      </trkpt>
      <trkpt lat="27.943930" lon="-15.524200">
        <ele>1317.08</ele>
        <time>2018-01-13T11:12:03Z</time>
      </trkpt>
      <trkpt lat="27.943949" lon="-15.524200">
        <ele>1316.82</ele>
        <time>2018-01-13T11:12:05Z</time>
      </trkpt>
      <trkpt lat="27.943973" lon="-15.524204">
        <ele>1316.64</ele>
        <time>2018-01-13T11:12:07Z</time>
      </trkpt>
      <trkpt lat="27.943998" lon="-15.524209">
        <ele>1315.92</ele>
        <time>2018-01-13T11:12:09Z</time>
      </trkpt>
      <trkpt lat="27.944013" lon="-15.524225">
        <ele>1315.14</ele>
        <time>2018-01-13T11:12:11Z</time>
      </trkpt>
      <trkpt lat="27.944026" lon="-15.524240">
        <ele>1314.77</ele>
        <time>2018-01-13T11:12:13Z</time>
      </trkpt>
      <trkpt lat="27.944042" lon="-15.524260">
        <ele>1314.42</ele>
        <time>2018-01-13T11:12:16Z</time>
      </trkpt>
      <trkpt lat="27.944058" lon="-15.524276">
        <ele>1314.00</ele>
        <time>2018-01-13T11:12:19Z</time>
      </trkpt>
      <trkpt lat="27.944073" lon="-15.524296">
        <ele>1313.12</ele>
        <time>2018-01-13T11:12:22Z</time>
      </trkpt>
      <trkpt lat="27.944086" lon="-15.524312">
        <ele>1313.04</ele>
        <time>2018-01-13T11:12:24Z</time>
      </trkpt>
      <trkpt lat="27.944103" lon="-15.524332">
        <ele>1312.08</ele>
        <time>2018-01-13T11:12:27Z</time>
      </trkpt>
      <trkpt lat="27.944116" lon="-15.524353">
        <ele>1311.20</ele>
        <time>2018-01-13T11:12:30Z</time>
      </trkpt>
      <trkpt lat="27.944128" lon="-15.524375">
        <ele>1310.50</ele>
        <time>2018-01-13T11:12:33Z</time>
      </trkpt>
      <trkpt lat="27.944137" lon="-15.524393">
        <ele>1309.94</ele>
        <time>2018-01-13T11:12:36Z</time>
      </trkpt>
      <trkpt lat="27.944151" lon="-15.524414">
        <ele>1309.52</ele>
        <time>2018-01-13T11:12:39Z</time>
      </trkpt>
      <trkpt lat="27.944170" lon="-15.524428">
        <ele>1308.52</ele>
        <time>2018-01-13T11:12:42Z</time>
      </trkpt>
      <trkpt lat="27.944187" lon="-15.524447">
        <ele>1308.48</ele>
        <time>2018-01-13T11:12:45Z</time>
      </trkpt>
      <trkpt lat="27.944196" lon="-15.524468">
        <ele>1307.43</ele>
        <time>2018-01-13T11:12:48Z</time>
      </trkpt>
      <trkpt lat="27.944211" lon="-15.524486">
        <ele>1306.70</ele>
        <time>2018-01-13T11:12:51Z</time>
      </trkpt>
      <trkpt lat="27.944235" lon="-15.524494">
        <ele>1306.40</ele>
        <time>2018-01-13T11:12:55Z</time>
      </trkpt>
      <trkpt lat="27.944246" lon="-15.524517">
        <ele>1306.08</ele>
        <time>2018-01-13T11:12:58Z</time>
      </trkpt>
      <trkpt lat="27.944266" lon="-15.524531">
        <ele>1305.25</ele>
        <time>2018-01-13T11:13:01Z</time>
      </trkpt>
      <trkpt lat="27.944278" lon="-15.524552">
        <ele>1304.50</ele>
        <time>2018-01-13T11:13:05Z</time>
      </trkpt>
      <trkpt lat="27.944289" lon="-15.524575">
        <ele>1303.53</ele>
        <time>2018-01-13T11:13:10Z</time>
      </trkpt>
      <trkpt lat="27.944305" lon="-15.524593">
        <ele>1301.95</ele>
        <time>2018-01-13T11:13:13Z</time>
      </trkpt>
      <trkpt lat="27.944316" lon="-15.524611">
        <ele>1301.90</ele>
        <time>2018-01-13T11:13:16Z</time>
      </trkpt>
      <trkpt lat="27.944333" lon="-15.524627">
        <ele>1301.91</ele>
        <time>2018-01-13T11:13:19Z</time>
      </trkpt>
      <trkpt lat="27.944340" lon="-15.524648">
        <ele>1300.93</ele>
        <time>2018-01-13T11:13:22Z</time>
      </trkpt>
      <trkpt lat="27.944343" lon="-15.524681">
        <ele>1300.59</ele>
        <time>2018-01-13T11:13:25Z</time>
      </trkpt>
      <trkpt lat="27.944342" lon="-15.524706">
        <ele>1300.51</ele>
        <time>2018-01-13T11:13:27Z</time>
      </trkpt>
      <trkpt lat="27.944353" lon="-15.524731">
        <ele>1299.61</ele>
        <time>2018-01-13T11:13:30Z</time>
      </trkpt>
      <trkpt lat="27.944364" lon="-15.524749">
        <ele>1299.12</ele>
        <time>2018-01-13T11:13:33Z</time>
      </trkpt>
      <trkpt lat="27.944374" lon="-15.524767">
        <ele>1298.25</ele>
        <time>2018-01-13T11:13:36Z</time>
      </trkpt>
      <trkpt lat="27.944379" lon="-15.524788">
        <ele>1298.11</ele>
        <time>2018-01-13T11:13:38Z</time>
      </trkpt>
      <trkpt lat="27.944388" lon="-15.524806">
        <ele>1297.65</ele>
        <time>2018-01-13T11:13:40Z</time>
      </trkpt>
      <trkpt lat="27.944404" lon="-15.524815">
        <ele>1297.15</ele>
        <time>2018-01-13T11:13:43Z</time>
      </trkpt>
      <trkpt lat="27.944425" lon="-15.524818">
        <ele>1296.92</ele>
        <time>2018-01-13T11:13:46Z</time>
      </trkpt>
      <trkpt lat="27.944444" lon="-15.524827">
        <ele>1296.80</ele>
        <time>2018-01-13T11:13:49Z</time>
      </trkpt>
      <trkpt lat="27.944460" lon="-15.524841">
        <ele>1296.51</ele>
        <time>2018-01-13T11:13:52Z</time>
      </trkpt>
      <trkpt lat="27.944475" lon="-15.524859">
        <ele>1296.20</ele>
        <time>2018-01-13T11:13:55Z</time>
      </trkpt>
      <trkpt lat="27.944489" lon="-15.524884">
        <ele>1295.72</ele>
        <time>2018-01-13T11:13:58Z</time>
      </trkpt>
      <trkpt lat="27.944502" lon="-15.524902">
        <ele>1294.80</ele>
        <time>2018-01-13T11:14:06Z</time>
      </trkpt>
      <trkpt lat="27.944503" lon="-15.524879">
        <ele>1294.71</ele>
        <time>2018-01-13T11:14:09Z</time>
      </trkpt>
      <trkpt lat="27.944506" lon="-15.524854">
        <ele>1293.30</ele>
        <time>2018-01-13T11:14:12Z</time>
      </trkpt>
      <trkpt lat="27.944522" lon="-15.524842">
        <ele>1292.72</ele>
        <time>2018-01-13T11:14:15Z</time>
      </trkpt>
      <trkpt lat="27.944537" lon="-15.524861">
        <ele>1292.51</ele>
        <time>2018-01-13T11:14:18Z</time>
      </trkpt>
      <trkpt lat="27.944553" lon="-15.524881">
        <ele>1292.10</ele>
        <time>2018-01-13T11:14:21Z</time>
      </trkpt>
      <trkpt lat="27.944573" lon="-15.524882">
        <ele>1291.60</ele>
        <time>2018-01-13T11:14:26Z</time>
      </trkpt>
      <trkpt lat="27.944575" lon="-15.524857">
        <ele>1291.50</ele>
        <time>2018-01-13T11:14:31Z</time>
      </trkpt>
      <trkpt lat="27.944585" lon="-15.524838">
        <ele>1290.10</ele>
        <time>2018-01-13T11:14:41Z</time>
      </trkpt>
      <trkpt lat="27.944605" lon="-15.524832">
        <ele>1289.51</ele>
        <time>2018-01-13T11:14:44Z</time>
      </trkpt>
      <trkpt lat="27.944618" lon="-15.524848">
        <ele>1288.30</ele>
        <time>2018-01-13T11:14:49Z</time>
      </trkpt>
      <trkpt lat="27.944627" lon="-15.524870">
        <ele>1287.80</ele>
        <time>2018-01-13T11:14:52Z</time>
      </trkpt>
      <trkpt lat="27.944644" lon="-15.524889">
        <ele>1286.61</ele>
        <time>2018-01-13T11:14:57Z</time>
      </trkpt>
      <trkpt lat="27.944655" lon="-15.524871">
        <ele>1286.60</ele>
        <time>2018-01-13T11:15:01Z</time>
      </trkpt>
      <trkpt lat="27.944668" lon="-15.524854">
        <ele>1286.40</ele>
        <time>2018-01-13T11:15:05Z</time>
      </trkpt>
      <trkpt lat="27.944672" lon="-15.524833">
        <ele>1285.51</ele>
        <time>2018-01-13T11:15:08Z</time>
      </trkpt>
      <trkpt lat="27.944691" lon="-15.524823">
        <ele>1284.80</ele>
        <time>2018-01-13T11:15:13Z</time>
      </trkpt>
      <trkpt lat="27.944706" lon="-15.524841">
        <ele>1284.60</ele>
        <time>2018-01-13T11:15:16Z</time>
      </trkpt>
      <trkpt lat="27.944717" lon="-15.524871">
        <ele>1284.10</ele>
        <time>2018-01-13T11:15:19Z</time>
      </trkpt>
      <trkpt lat="27.944724" lon="-15.524895">
        <ele>1282.71</ele>
        <time>2018-01-13T11:15:21Z</time>
      </trkpt>
      <trkpt lat="27.944734" lon="-15.524922">
        <ele>1281.90</ele>
        <time>2018-01-13T11:15:27Z</time>
      </trkpt>
      <trkpt lat="27.944745" lon="-15.524904">
        <ele>1281.80</ele>
        <time>2018-01-13T11:15:29Z</time>
      </trkpt>
      <trkpt lat="27.944755" lon="-15.524883">
        <ele>1281.20</ele>
        <time>2018-01-13T11:15:31Z</time>
      </trkpt>
      <trkpt lat="27.944761" lon="-15.524851">
        <ele>1280.99</ele>
        <time>2018-01-13T11:15:34Z</time>
      </trkpt>
      <trkpt lat="27.944761" lon="-15.524824">
        <ele>1279.80</ele>
        <time>2018-01-13T11:15:37Z</time>
      </trkpt>
      <trkpt lat="27.944765" lon="-15.524801">
        <ele>1279.40</ele>
        <time>2018-01-13T11:15:40Z</time>
      </trkpt>
      <trkpt lat="27.944786" lon="-15.524783">
        <ele>1279.10</ele>
        <time>2018-01-13T11:15:43Z</time>
      </trkpt>
      <trkpt lat="27.944805" lon="-15.524788">
        <ele>1279.00</ele>
        <time>2018-01-13T11:15:45Z</time>
      </trkpt>
      <trkpt lat="27.944820" lon="-15.524815">
        <ele>1277.99</ele>
        <time>2018-01-13T11:15:48Z</time>
      </trkpt>
      <trkpt lat="27.944830" lon="-15.524836">
        <ele>1277.60</ele>
        <time>2018-01-13T11:15:50Z</time>
      </trkpt>
      <trkpt lat="27.944837" lon="-15.524859">
        <ele>1277.29</ele>
        <time>2018-01-13T11:15:53Z</time>
      </trkpt>
      <trkpt lat="27.944852" lon="-15.524873">
        <ele>1275.79</ele>
        <time>2018-01-13T11:16:00Z</time>
      </trkpt>
      <trkpt lat="27.944861" lon="-15.524842">
        <ele>1274.99</ele>
        <time>2018-01-13T11:16:03Z</time>
      </trkpt>
      <trkpt lat="27.944879" lon="-15.524839">
        <ele>1274.48</ele>
        <time>2018-01-13T11:16:07Z</time>
      </trkpt>
      <trkpt lat="27.944877" lon="-15.524865">
        <ele>1273.40</ele>
        <time>2018-01-13T11:16:10Z</time>
      </trkpt>
      <trkpt lat="27.944893" lon="-15.524886">
        <ele>1272.69</ele>
        <time>2018-01-13T11:16:15Z</time>
      </trkpt>
      <trkpt lat="27.944908" lon="-15.524874">
        <ele>1272.17</ele>
        <time>2018-01-13T11:16:18Z</time>
      </trkpt>
      <trkpt lat="27.944930" lon="-15.524868">
        <ele>1271.29</ele>
        <time>2018-01-13T11:16:22Z</time>
      </trkpt>
      <trkpt lat="27.944949" lon="-15.524884">
        <ele>1270.49</ele>
        <time>2018-01-13T11:16:25Z</time>
      </trkpt>
      <trkpt lat="27.944958" lon="-15.524903">
        <ele>1270.02</ele>
        <time>2018-01-13T11:16:28Z</time>
      </trkpt>
      <trkpt lat="27.944974" lon="-15.524920">
        <ele>1269.09</ele>
        <time>2018-01-13T11:16:31Z</time>
      </trkpt>
      <trkpt lat="27.944993" lon="-15.524920">
        <ele>1268.77</ele>
        <time>2018-01-13T11:16:34Z</time>
      </trkpt>
      <trkpt lat="27.945000" lon="-15.524893">
        <ele>1268.16</ele>
        <time>2018-01-13T11:16:37Z</time>
      </trkpt>
      <trkpt lat="27.945007" lon="-15.524859">
        <ele>1267.50</ele>
        <time>2018-01-13T11:16:40Z</time>
      </trkpt>
      <trkpt lat="27.945022" lon="-15.524846">
        <ele>1267.40</ele>
        <time>2018-01-13T11:16:42Z</time>
      </trkpt>
      <trkpt lat="27.945041" lon="-15.524858">
        <ele>1267.27</ele>
        <time>2018-01-13T11:16:44Z</time>
      </trkpt>
      <trkpt lat="27.945052" lon="-15.524880">
        <ele>1266.60</ele>
        <time>2018-01-13T11:16:46Z</time>
      </trkpt>
      <trkpt lat="27.945056" lon="-15.524907">
        <ele>1266.50</ele>
        <time>2018-01-13T11:16:49Z</time>
      </trkpt>
      <trkpt lat="27.945067" lon="-15.524924">
        <ele>1265.90</ele>
        <time>2018-01-13T11:16:52Z</time>
      </trkpt>
      <trkpt lat="27.945082" lon="-15.524937">
        <ele>1265.87</ele>
        <time>2018-01-13T11:16:54Z</time>
      </trkpt>
      <trkpt lat="27.945096" lon="-15.524954">
        <ele>1265.65</ele>
        <time>2018-01-13T11:16:56Z</time>
      </trkpt>
      <trkpt lat="27.945111" lon="-15.524970">
        <ele>1265.12</ele>
        <time>2018-01-13T11:16:58Z</time>
      </trkpt>
      <trkpt lat="27.945121" lon="-15.524994">
        <ele>1264.62</ele>
        <time>2018-01-13T11:17:01Z</time>
      </trkpt>
      <trkpt lat="27.945129" lon="-15.525019">
        <ele>1264.61</ele>
        <time>2018-01-13T11:17:04Z</time>
      </trkpt>
      <trkpt lat="27.945141" lon="-15.525043">
        <ele>1264.20</ele>
        <time>2018-01-13T11:17:07Z</time>
      </trkpt>
      <trkpt lat="27.945156" lon="-15.525063">
        <ele>1263.58</ele>
        <time>2018-01-13T11:17:10Z</time>
      </trkpt>
      <trkpt lat="27.945171" lon="-15.525083">
        <ele>1263.08</ele>
        <time>2018-01-13T11:17:13Z</time>
      </trkpt>
      <trkpt lat="27.945162" lon="-15.525105">
        <ele>1262.34</ele>
        <time>2018-01-13T11:17:16Z</time>
      </trkpt>
      <trkpt lat="27.945152" lon="-15.525124">
        <ele>1262.28</ele>
        <time>2018-01-13T11:17:18Z</time>
      </trkpt>
      <trkpt lat="27.945150" lon="-15.525154">
        <ele>1261.24</ele>
        <time>2018-01-13T11:17:22Z</time>
      </trkpt>
      <trkpt lat="27.945229" lon="-15.525137">
        <ele>1257.34</ele>
        <time>2018-01-13T11:17:36Z</time>
      </trkpt>
      <trkpt lat="27.945249" lon="-15.525146">
        <ele>1256.60</ele>
        <time>2018-01-13T11:17:40Z</time>
      </trkpt>
      <trkpt lat="27.945265" lon="-15.525127">
        <ele>1256.52</ele>
        <time>2018-01-13T11:17:43Z</time>
      </trkpt>
      <trkpt lat="27.945278" lon="-15.525113">
        <ele>1256.70</ele>
        <time>2018-01-13T11:17:45Z</time>
      </trkpt>
      <trkpt lat="27.945303" lon="-15.525101">
        <ele>1256.85</ele>
        <time>2018-01-13T11:17:48Z</time>
      </trkpt>
      <trkpt lat="27.945323" lon="-15.525104">
        <ele>1256.95</ele>
        <time>2018-01-13T11:17:50Z</time>
      </trkpt>
      <trkpt lat="27.945339" lon="-15.525117">
        <ele>1256.80</ele>
        <time>2018-01-13T11:17:57Z</time>
      </trkpt>
      <trkpt lat="27.945327" lon="-15.525132">
        <ele>1255.98</ele>
        <time>2018-01-13T11:18:03Z</time>
      </trkpt>
      <trkpt lat="27.945339" lon="-15.525148">
        <ele>1255.70</ele>
        <time>2018-01-13T11:18:09Z</time>
      </trkpt>
      <trkpt lat="27.945350" lon="-15.525169">
        <ele>1255.75</ele>
        <time>2018-01-13T11:18:12Z</time>
      </trkpt>
      <trkpt lat="27.945367" lon="-15.525180">
        <ele>1255.91</ele>
        <time>2018-01-13T11:18:21Z</time>
      </trkpt>
      <trkpt lat="27.945402" lon="-15.525171">
        <ele>1255.05</ele>
        <time>2018-01-13T11:18:28Z</time>
      </trkpt>
      <trkpt lat="27.945356" lon="-15.525081">
        <ele>1256.10</ele>
        <time>2018-01-13T11:18:52Z</time>
      </trkpt>
      <trkpt lat="27.945348" lon="-15.525053">
        <ele>1255.90</ele>
        <time>2018-01-13T11:18:56Z</time>
      </trkpt>
      <trkpt lat="27.945367" lon="-15.525059">
        <ele>1256.30</ele>
        <time>2018-01-13T11:18:58Z</time>
      </trkpt>
      <trkpt lat="27.945385" lon="-15.525073">
        <ele>1256.30</ele>
        <time>2018-01-13T11:18:59Z</time>
      </trkpt>
      <trkpt lat="27.945508" lon="-15.524593">
        <ele>1227.96</ele>
        <time>2015-06-28T08:38:32Z</time>
      </trkpt>
      <trkpt lat="27.945565" lon="-15.524468">
        <ele>1223.68</ele>
        <time>2015-06-28T08:38:45Z</time>
      </trkpt>
      <trkpt lat="27.945565" lon="-15.524423">
        <ele>1222.84</ele>
        <time>2015-06-28T08:38:49Z</time>
      </trkpt>
      <trkpt lat="27.945563" lon="-15.524415">
        <ele>1222.72</ele>
        <time>2015-06-28T08:38:57Z</time>
      </trkpt>
      <trkpt lat="27.945678" lon="-15.524125">
        <ele>1220.61</ele>
        <time>2015-06-28T08:43:45Z</time>
      </trkpt>
      <trkpt lat="27.945942" lon="-15.524037">
        <ele>1228.15</ele>
        <time>2015-06-28T08:49:27Z</time>
      </trkpt>
      <trkpt lat="27.945942" lon="-15.524037">
        <ele>1228.20</ele>
        <time>2015-06-28T08:52:25Z</time>
      </trkpt>
      <trkpt lat="27.945955" lon="-15.523800">
        <ele>1229.86</ele>
        <time>2015-06-28T08:55:45Z</time>
      </trkpt>
      <trkpt lat="27.945902" lon="-15.523650">
        <ele>1228.67</ele>
        <time>2015-06-28T08:55:59Z</time>
      </trkpt>
      <trkpt lat="27.945822" lon="-15.523502">
        <ele>1225.57</ele>
        <time>2015-06-28T08:56:15Z</time>
      </trkpt>
      <trkpt lat="27.945713" lon="-15.523030">
        <ele>1221.47</ele>
        <time>2015-06-28T08:56:31Z</time>
      </trkpt>
      <trkpt lat="27.945765" lon="-15.522735">
        <ele>1229.28</ele>
        <time>2015-06-28T08:56:37Z</time>
      </trkpt>
      <trkpt lat="27.945692" lon="-15.522577">
        <ele>1230.15</ele>
        <time>2015-06-28T08:56:44Z</time>
      </trkpt>
      <trkpt lat="27.945637" lon="-15.522342">
        <ele>1234.00</ele>
        <time>2015-06-28T08:56:56Z</time>
      </trkpt>
      <trkpt lat="27.945528" lon="-15.522285">
        <ele>1231.21</ele>
        <time>2015-06-28T08:57:04Z</time>
      </trkpt>
      <trkpt lat="27.945450" lon="-15.522155">
        <ele>1232.53</ele>
        <time>2015-06-28T08:57:19Z</time>
      </trkpt>
      <trkpt lat="27.945742" lon="-15.522303">
        <ele>1238.81</ele>
        <time>2015-06-28T08:58:15Z</time>
      </trkpt>
      <trkpt lat="27.945845" lon="-15.522415">
        <ele>1239.34</ele>
        <time>2015-06-28T08:58:26Z</time>
      </trkpt>
      <trkpt lat="27.945912" lon="-15.522482">
        <ele>1240.08</ele>
        <time>2015-06-28T08:58:36Z</time>
      </trkpt>
      <trkpt lat="27.946057" lon="-15.522585">
        <ele>1243.69</ele>
        <time>2015-06-28T08:58:53Z</time>
      </trkpt>
      <trkpt lat="27.946205" lon="-15.522645">
        <ele>1247.96</ele>
        <time>2015-06-28T08:59:08Z</time>
      </trkpt>
      <trkpt lat="27.946255" lon="-15.522655">
        <ele>1249.67</ele>
        <time>2015-06-28T08:59:14Z</time>
      </trkpt>
      <trkpt lat="27.946350" lon="-15.522737">
        <ele>1251.48</ele>
        <time>2015-06-28T08:59:30Z</time>
      </trkpt>
      <trkpt lat="27.946470" lon="-15.522823">
        <ele>1255.97</ele>
        <time>2015-06-28T08:59:47Z</time>
      </trkpt>
      <trkpt lat="27.946583" lon="-15.523225">
        <ele>1261.95</ele>
        <time>2015-06-28T09:00:37Z</time>
      </trkpt>
      <trkpt lat="27.946590" lon="-15.523255">
        <ele>1262.75</ele>
        <time>2015-06-28T09:00:40Z</time>
      </trkpt>
      <trkpt lat="27.946605" lon="-15.523282">
        <ele>1264.05</ele>
        <time>2015-06-28T09:00:48Z</time>
      </trkpt>
      <trkpt lat="27.946808" lon="-15.523417">
        <ele>1274.21</ele>
        <time>2015-06-28T09:01:20Z</time>
      </trkpt>
      <trkpt lat="27.946893" lon="-15.523292">
        <ele>1276.71</ele>
        <time>2015-06-28T09:01:37Z</time>
      </trkpt>
      <trkpt lat="27.946932" lon="-15.523263">
        <ele>1278.55</ele>
        <time>2015-06-28T09:01:41Z</time>
      </trkpt>
      <trkpt lat="27.946945" lon="-15.523152">
        <ele>1280.62</ele>
        <time>2015-06-28T09:01:56Z</time>
      </trkpt>
      <trkpt lat="27.947092" lon="-15.523067">
        <ele>1284.68</ele>
        <time>2015-06-28T09:02:11Z</time>
      </trkpt>
      <trkpt lat="27.947100" lon="-15.522955">
        <ele>1288.04</ele>
        <time>2015-06-28T09:02:19Z</time>
      </trkpt>
      <trkpt lat="27.947025" lon="-15.522818">
        <ele>1289.83</ele>
        <time>2015-06-28T09:02:33Z</time>
      </trkpt>
      <trkpt lat="27.947012" lon="-15.522797">
        <ele>1289.99</ele>
        <time>2015-06-28T09:02:35Z</time>
      </trkpt>
      <trkpt lat="27.947095" lon="-15.522747">
        <ele>1294.78</ele>
        <time>2015-06-28T09:02:48Z</time>
      </trkpt>
      <trkpt lat="27.947262" lon="-15.522815">
        <ele>1298.85</ele>
        <time>2015-06-28T09:03:05Z</time>
      </trkpt>
      <trkpt lat="27.947380" lon="-15.522853">
        <ele>1303.46</ele>
        <time>2015-06-28T09:03:19Z</time>
      </trkpt>
      <trkpt lat="27.947365" lon="-15.522907">
        <ele>1299.74</ele>
        <time>2015-06-28T09:03:22Z</time>
      </trkpt>
      <trkpt lat="27.947370" lon="-15.523040">
        <ele>1292.62</ele>
        <time>2015-06-28T09:03:36Z</time>
      </trkpt>
      <trkpt lat="27.947357" lon="-15.523090">
        <ele>1291.51</ele>
        <time>2015-06-28T09:03:40Z</time>
      </trkpt>
      <trkpt lat="27.947352" lon="-15.523103">
        <ele>1291.43</ele>
        <time>2015-06-28T09:03:47Z</time>
      </trkpt>
      <trkpt lat="27.947298" lon="-15.523480">
        <ele>1293.34</ele>
        <time>2015-06-28T09:04:26Z</time>
      </trkpt>
      <trkpt lat="27.947230" lon="-15.523673">
        <ele>1292.48</ele>
        <time>2015-06-28T09:04:43Z</time>
      </trkpt>
      <trkpt lat="27.947235" lon="-15.523890">
        <ele>1292.98</ele>
        <time>2015-06-28T09:05:02Z</time>
      </trkpt>
      <trkpt lat="27.947247" lon="-15.523925">
        <ele>1293.31</ele>
        <time>2015-06-28T09:05:05Z</time>
      </trkpt>
      <trkpt lat="27.947332" lon="-15.523943">
        <ele>1299.11</ele>
        <time>2015-06-28T09:05:21Z</time>
      </trkpt>
      <trkpt lat="27.947600" lon="-15.523968">
        <ele>1317.19</ele>
        <time>2015-06-28T09:05:54Z</time>
      </trkpt>
      <trkpt lat="27.947762" lon="-15.524070">
        <ele>1325.35</ele>
        <time>2015-06-28T09:06:15Z</time>
      </trkpt>
      <trkpt lat="27.947823" lon="-15.524223">
        <ele>1323.97</ele>
        <time>2015-06-28T09:06:29Z</time>
      </trkpt>
      <trkpt lat="27.947932" lon="-15.524358">
        <ele>1323.93</ele>
        <time>2015-06-28T09:06:45Z</time>
      </trkpt>
      <trkpt lat="27.947993" lon="-15.524442">
        <ele>1323.72</ele>
        <time>2015-06-28T09:06:57Z</time>
      </trkpt>
      <trkpt lat="27.948083" lon="-15.524517">
        <ele>1326.31</ele>
        <time>2015-06-28T09:07:11Z</time>
      </trkpt>
      <trkpt lat="27.948083" lon="-15.524517">
        <ele>1326.33</ele>
        <time>2015-06-28T09:07:19Z</time>
      </trkpt>
      <trkpt lat="27.948212" lon="-15.524623">
        <ele>1329.14</ele>
        <time>2015-06-28T09:07:31Z</time>
      </trkpt>
      <trkpt lat="27.948293" lon="-15.524697">
        <ele>1330.90</ele>
        <time>2015-06-28T09:07:44Z</time>
      </trkpt>
      <trkpt lat="27.948348" lon="-15.524740">
        <ele>1332.56</ele>
        <time>2015-06-28T09:07:54Z</time>
      </trkpt>
      <trkpt lat="27.948428" lon="-15.524823">
        <ele>1335.18</ele>
        <time>2015-06-28T09:08:05Z</time>
      </trkpt>
      <trkpt lat="27.948508" lon="-15.524983">
        <ele>1335.65</ele>
        <time>2015-06-28T09:08:21Z</time>
      </trkpt>
      <trkpt lat="27.948598" lon="-15.525120">
        <ele>1337.72</ele>
        <time>2015-06-28T09:08:35Z</time>
      </trkpt>
      <trkpt lat="27.948598" lon="-15.525120">
        <ele>1337.75</ele>
        <time>2015-06-28T09:08:42Z</time>
      </trkpt>
      <trkpt lat="27.948598" lon="-15.525120">
        <ele>1337.78</ele>
        <time>2015-06-28T09:08:43Z</time>
      </trkpt>
      <trkpt lat="27.948720" lon="-15.525322">
        <ele>1342.01</ele>
        <time>2015-06-28T09:09:00Z</time>
      </trkpt>
      <trkpt lat="27.948792" lon="-15.525492">
        <ele>1344.63</ele>
        <time>2015-06-28T09:09:18Z</time>
      </trkpt>
      <trkpt lat="27.948742" lon="-15.525668">
        <ele>1346.11</ele>
        <time>2015-06-28T09:09:35Z</time>
      </trkpt>
      <trkpt lat="27.948797" lon="-15.525795">
        <ele>1353.37</ele>
        <time>2015-06-28T09:09:48Z</time>
      </trkpt>
      <trkpt lat="27.948857" lon="-15.525600">
        <ele>1348.99</ele>
        <time>2015-06-28T09:10:03Z</time>
      </trkpt>
      <trkpt lat="27.948903" lon="-15.525418">
        <ele>1351.29</ele>
        <time>2015-06-28T09:10:20Z</time>
      </trkpt>
      <trkpt lat="27.948902" lon="-15.525365">
        <ele>1351.79</ele>
        <time>2015-06-28T09:10:24Z</time>
      </trkpt>
      <trkpt lat="27.948963" lon="-15.525303">
        <ele>1355.58</ele>
        <time>2015-06-28T09:10:33Z</time>
      </trkpt>
      <trkpt lat="27.948978" lon="-15.525108">
        <ele>1359.56</ele>
        <time>2015-06-28T09:10:52Z</time>
      </trkpt>
      <trkpt lat="27.948882" lon="-15.525032">
        <ele>1355.19</ele>
        <time>2015-06-28T09:11:05Z</time>
      </trkpt>
      <trkpt lat="27.948917" lon="-15.524863">
        <ele>1363.07</ele>
        <time>2015-06-28T09:11:20Z</time>
      </trkpt>
      <trkpt lat="27.948993" lon="-15.524708">
        <ele>1373.23</ele>
        <time>2015-06-28T09:11:36Z</time>
      </trkpt>
      <trkpt lat="27.948955" lon="-15.524545">
        <ele>1377.99</ele>
        <time>2015-06-28T09:11:46Z</time>
      </trkpt>
      <trkpt lat="27.948867" lon="-15.524375">
        <ele>1379.82</ele>
        <time>2015-06-28T09:12:04Z</time>
      </trkpt>
      <trkpt lat="27.948757" lon="-15.524297">
        <ele>1373.91</ele>
        <time>2015-06-28T09:12:15Z</time>
      </trkpt>
      <trkpt lat="27.948602" lon="-15.524228">
        <ele>1364.23</ele>
        <time>2015-06-28T09:12:28Z</time>
      </trkpt>
      <trkpt lat="27.948497" lon="-15.524153">
        <ele>1360.51</ele>
        <time>2015-06-28T09:12:39Z</time>
      </trkpt>
      <trkpt lat="27.948428" lon="-15.523972">
        <ele>1363.32</ele>
        <time>2015-06-28T09:12:59Z</time>
      </trkpt>
      <trkpt lat="27.948362" lon="-15.523758">
        <ele>1367.77</ele>
        <time>2015-06-28T09:13:14Z</time>
      </trkpt>
      <trkpt lat="27.948317" lon="-15.523548">
        <ele>1372.11</ele>
        <time>2015-06-28T09:13:31Z</time>
      </trkpt>
      <trkpt lat="27.948340" lon="-15.523358">
        <ele>1376.06</ele>
        <time>2015-06-28T09:13:47Z</time>
      </trkpt>
      <trkpt lat="27.948460" lon="-15.523238">
        <ele>1380.54</ele>
        <time>2015-06-28T09:14:01Z</time>
      </trkpt>
      <trkpt lat="27.948512" lon="-15.523110">
        <ele>1378.27</ele>
        <time>2015-06-28T09:14:16Z</time>
      </trkpt>
      <trkpt lat="27.948517" lon="-15.523085">
        <ele>1377.45</ele>
        <time>2015-06-28T09:14:18Z</time>
      </trkpt>
      <trkpt lat="27.948553" lon="-15.522950">
        <ele>1376.36</ele>
        <time>2015-06-28T09:14:34Z</time>
      </trkpt>
      <trkpt lat="27.948553" lon="-15.522950">
        <ele>1376.32</ele>
        <time>2015-06-28T09:14:41Z</time>
      </trkpt>
      <trkpt lat="27.948553" lon="-15.522950">
        <ele>1376.31</ele>
        <time>2015-06-28T09:14:42Z</time>
      </trkpt>
      <trkpt lat="27.948703" lon="-15.522757">
        <ele>1388.82</ele>
        <time>2015-06-28T09:15:02Z</time>
      </trkpt>
      <trkpt lat="27.948703" lon="-15.522757">
        <ele>1388.82</ele>
        <time>2015-06-28T09:15:09Z</time>
      </trkpt>
      <trkpt lat="27.948703" lon="-15.522757">
        <ele>1388.86</ele>
        <time>2015-06-28T09:15:10Z</time>
      </trkpt>
      <trkpt lat="27.948795" lon="-15.522400">
        <ele>1413.83</ele>
        <time>2015-06-28T09:15:46Z</time>
      </trkpt>
      <trkpt lat="27.948712" lon="-15.522198">
        <ele>1410.66</ele>
        <time>2015-06-28T09:16:08Z</time>
      </trkpt>
      <trkpt lat="27.948692" lon="-15.522172">
        <ele>1409.55</ele>
        <time>2015-06-28T09:16:11Z</time>
      </trkpt>
      <trkpt lat="27.948622" lon="-15.522067">
        <ele>1407.11</ele>
        <time>2015-06-28T09:16:24Z</time>
      </trkpt>
      <trkpt lat="27.948578" lon="-15.521868">
        <ele>1412.75</ele>
        <time>2015-06-28T09:16:42Z</time>
      </trkpt>
      <trkpt lat="27.948483" lon="-15.521815">
        <ele>1410.19</ele>
        <time>2015-06-28T09:16:51Z</time>
      </trkpt>
      <trkpt lat="27.948433" lon="-15.521715">
        <ele>1412.51</ele>
        <time>2015-06-28T09:17:04Z</time>
      </trkpt>
      <trkpt lat="27.948382" lon="-15.521623">
        <ele>1414.83</ele>
        <time>2015-06-28T09:17:15Z</time>
      </trkpt>
      <trkpt lat="27.948345" lon="-15.521543">
        <ele>1417.61</ele>
        <time>2015-06-28T09:17:25Z</time>
      </trkpt>
      <trkpt lat="27.948295" lon="-15.521450">
        <ele>1421.48</ele>
        <time>2015-06-28T09:17:38Z</time>
      </trkpt>
      <trkpt lat="27.948247" lon="-15.521347">
        <ele>1425.26</ele>
        <time>2015-06-28T09:17:48Z</time>
      </trkpt>
      <trkpt lat="27.948157" lon="-15.521235">
        <ele>1426.58</ele>
        <time>2015-06-28T09:18:02Z</time>
      </trkpt>
      <trkpt lat="27.948038" lon="-15.521107">
        <ele>1426.96</ele>
        <time>2015-06-28T09:18:19Z</time>
      </trkpt>
      <trkpt lat="27.947897" lon="-15.520968">
        <ele>1421.98</ele>
        <time>2015-06-28T09:18:36Z</time>
      </trkpt>
      <trkpt lat="27.947795" lon="-15.520843">
        <ele>1423.02</ele>
        <time>2015-06-28T09:18:50Z</time>
      </trkpt>
      <trkpt lat="27.947692" lon="-15.520737">
        <ele>1417.73</ele>
        <time>2015-06-28T09:19:02Z</time>
      </trkpt>
      <trkpt lat="27.947570" lon="-15.520598">
        <ele>1415.36</ele>
        <time>2015-06-28T09:19:17Z</time>
      </trkpt>
      <trkpt lat="27.947505" lon="-15.520510">
        <ele>1415.42</ele>
        <time>2015-06-28T09:19:25Z</time>
      </trkpt>
      <trkpt lat="27.947402" lon="-15.520307">
        <ele>1414.10</ele>
        <time>2015-06-28T09:19:39Z</time>
      </trkpt>
      <trkpt lat="27.947502" lon="-15.520284">
        <ele>1417.04</ele>
        <time>2018-03-17T10:46:09Z</time>
      </trkpt>
      <trkpt lat="27.947456" lon="-15.520278">
        <ele>1415.95</ele>
        <time>2018-03-17T10:46:15Z</time>
      </trkpt>
      <trkpt lat="27.947400" lon="-15.520253">
        <ele>1414.37</ele>
        <time>2018-03-17T10:51:39Z</time>
      </trkpt>
      <trkpt lat="27.947364" lon="-15.520216">
        <ele>1413.48</ele>
        <time>2018-03-17T10:52:35Z</time>
      </trkpt>
      <trkpt lat="27.947360" lon="-15.520163">
        <ele>1413.33</ele>
        <time>2018-03-17T10:52:41Z</time>
      </trkpt>
      <trkpt lat="27.947329" lon="-15.520122">
        <ele>1412.93</ele>
        <time>2018-03-17T10:53:15Z</time>
      </trkpt>
      <trkpt lat="27.947288" lon="-15.520082">
        <ele>1412.61</ele>
        <time>2018-03-17T10:53:27Z</time>
      </trkpt>
      <trkpt lat="27.947257" lon="-15.520033">
        <ele>1412.78</ele>
        <time>2018-03-17T10:53:31Z</time>
      </trkpt>
      <trkpt lat="27.947219" lon="-15.520003">
        <ele>1413.05</ele>
        <time>2018-03-17T10:53:38Z</time>
      </trkpt>
      <trkpt lat="27.947186" lon="-15.519968">
        <ele>1413.37</ele>
        <time>2018-03-17T10:53:42Z</time>
      </trkpt>
      <trkpt lat="27.947152" lon="-15.519931">
        <ele>1413.94</ele>
        <time>2018-03-17T10:53:46Z</time>
      </trkpt>
      <trkpt lat="27.947115" lon="-15.519892">
        <ele>1414.84</ele>
        <time>2018-03-17T10:53:52Z</time>
      </trkpt>
      <trkpt lat="27.947089" lon="-15.519839">
        <ele>1416.28</ele>
        <time>2018-03-17T10:53:58Z</time>
      </trkpt>
      <trkpt lat="27.947053" lon="-15.519790">
        <ele>1417.93</ele>
        <time>2018-03-17T10:54:04Z</time>
      </trkpt>
      <trkpt lat="27.947029" lon="-15.519746">
        <ele>1419.55</ele>
        <time>2018-03-17T10:54:08Z</time>
      </trkpt>
      <trkpt lat="27.947022" lon="-15.519693">
        <ele>1420.98</ele>
        <time>2018-03-17T10:54:12Z</time>
      </trkpt>
      <trkpt lat="27.947013" lon="-15.519638">
        <ele>1422.22</ele>
        <time>2018-03-17T10:54:16Z</time>
      </trkpt>
      <trkpt lat="27.947003" lon="-15.519584">
        <ele>1423.52</ele>
        <time>2018-03-17T10:54:21Z</time>
      </trkpt>
      <trkpt lat="27.946977" lon="-15.519539">
        <ele>1425.11</ele>
        <time>2018-03-17T10:54:25Z</time>
      </trkpt>
      <trkpt lat="27.946948" lon="-15.519492">
        <ele>1426.92</ele>
        <time>2018-03-17T10:54:29Z</time>
      </trkpt>
      <trkpt lat="27.946925" lon="-15.519442">
        <ele>1427.78</ele>
        <time>2018-03-17T10:54:34Z</time>
      </trkpt>
      <trkpt lat="27.946880" lon="-15.519426">
        <ele>1426.97</ele>
        <time>2018-03-17T10:54:39Z</time>
      </trkpt>
      <trkpt lat="27.946838" lon="-15.519389">
        <ele>1426.24</ele>
        <time>2018-03-17T10:54:44Z</time>
      </trkpt>
      <trkpt lat="27.946816" lon="-15.519334">
        <ele>1425.73</ele>
        <time>2018-03-17T10:54:48Z</time>
      </trkpt>
      <trkpt lat="27.946789" lon="-15.519280">
        <ele>1425.34</ele>
        <time>2018-03-17T10:54:52Z</time>
      </trkpt>
      <trkpt lat="27.946759" lon="-15.519235">
        <ele>1425.12</ele>
        <time>2018-03-17T10:54:56Z</time>
      </trkpt>
      <trkpt lat="27.946719" lon="-15.519190">
        <ele>1425.08</ele>
        <time>2018-03-17T10:55:00Z</time>
      </trkpt>
      <trkpt lat="27.946683" lon="-15.519151">
        <ele>1424.90</ele>
        <time>2018-03-17T10:55:03Z</time>
      </trkpt>
      <trkpt lat="27.946653" lon="-15.519105">
        <ele>1424.31</ele>
        <time>2018-03-17T10:55:10Z</time>
      </trkpt>
      <trkpt lat="27.946629" lon="-15.519054">
        <ele>1423.83</ele>
        <time>2018-03-17T10:55:15Z</time>
      </trkpt>
      <trkpt lat="27.946617" lon="-15.519003">
        <ele>1423.41</ele>
        <time>2018-03-17T10:55:18Z</time>
      </trkpt>
      <trkpt lat="27.946607" lon="-15.518948">
        <ele>1422.99</ele>
        <time>2018-03-17T10:55:22Z</time>
      </trkpt>
      <trkpt lat="27.946586" lon="-15.518898">
        <ele>1422.76</ele>
        <time>2018-03-17T10:55:28Z</time>
      </trkpt>
      <trkpt lat="27.946576" lon="-15.518840">
        <ele>1421.84</ele>
        <time>2018-03-17T10:55:39Z</time>
      </trkpt>
      <trkpt lat="27.946569" lon="-15.518782">
        <ele>1420.90</ele>
        <time>2018-03-17T10:55:45Z</time>
      </trkpt>
      <trkpt lat="27.946580" lon="-15.518732">
        <ele>1419.90</ele>
        <time>2018-03-17T10:55:50Z</time>
      </trkpt>
      <trkpt lat="27.946593" lon="-15.518676">
        <ele>1418.57</ele>
        <time>2018-03-17T10:55:55Z</time>
      </trkpt>
      <trkpt lat="27.946584" lon="-15.518621">
        <ele>1417.80</ele>
        <time>2018-03-17T10:56:00Z</time>
      </trkpt>
      <trkpt lat="27.946575" lon="-15.518560">
        <ele>1418.20</ele>
        <time>2018-03-17T10:56:05Z</time>
      </trkpt>
      <trkpt lat="27.946577" lon="-15.518499">
        <ele>1418.72</ele>
        <time>2018-03-17T10:56:10Z</time>
      </trkpt>
      <trkpt lat="27.946585" lon="-15.518444">
        <ele>1419.20</ele>
        <time>2018-03-17T10:56:17Z</time>
      </trkpt>
      <trkpt lat="27.946615" lon="-15.518390">
        <ele>1419.22</ele>
        <time>2018-03-17T10:56:22Z</time>
      </trkpt>
      <trkpt lat="27.946635" lon="-15.518341">
        <ele>1419.41</ele>
        <time>2018-03-17T10:56:26Z</time>
      </trkpt>
      <trkpt lat="27.946629" lon="-15.518280">
        <ele>1420.56</ele>
        <time>2018-03-17T10:56:31Z</time>
      </trkpt>
      <trkpt lat="27.946625" lon="-15.518225">
        <ele>1421.58</ele>
        <time>2018-03-17T10:56:36Z</time>
      </trkpt>
      <trkpt lat="27.946643" lon="-15.518174">
        <ele>1422.25</ele>
        <time>2018-03-17T10:56:53Z</time>
      </trkpt>
      <trkpt lat="27.946635" lon="-15.518123">
        <ele>1423.22</ele>
        <time>2018-03-17T10:57:02Z</time>
      </trkpt>
      <trkpt lat="27.946636" lon="-15.518069">
        <ele>1424.25</ele>
        <time>2018-03-17T10:57:12Z</time>
      </trkpt>
      <trkpt lat="27.946674" lon="-15.518028">
        <ele>1423.78</ele>
        <time>2018-03-17T10:57:20Z</time>
      </trkpt>
      <trkpt lat="27.946695" lon="-15.517976">
        <ele>1422.93</ele>
        <time>2018-03-17T10:57:32Z</time>
      </trkpt>
      <trkpt lat="27.946683" lon="-15.517923">
        <ele>1423.79</ele>
        <time>2018-03-17T10:57:39Z</time>
      </trkpt>
      <trkpt lat="27.946682" lon="-15.517864">
        <ele>1423.99</ele>
        <time>2018-03-17T10:57:45Z</time>
      </trkpt>
      <trkpt lat="27.946700" lon="-15.517809">
        <ele>1423.26</ele>
        <time>2018-03-17T10:57:55Z</time>
      </trkpt>
      <trkpt lat="27.946697" lon="-15.517754">
        <ele>1423.32</ele>
        <time>2018-03-17T10:58:03Z</time>
      </trkpt>
      <trkpt lat="27.946698" lon="-15.517695">
        <ele>1422.91</ele>
        <time>2018-03-17T10:58:10Z</time>
      </trkpt>
      <trkpt lat="27.946737" lon="-15.517657">
        <ele>1420.76</ele>
        <time>2018-03-17T10:58:22Z</time>
      </trkpt>
      <trkpt lat="27.946768" lon="-15.517616">
        <ele>1418.91</ele>
        <time>2018-03-17T10:58:27Z</time>
      </trkpt>
      <trkpt lat="27.946764" lon="-15.517562">
        <ele>1418.84</ele>
        <time>2018-03-17T10:58:32Z</time>
      </trkpt>
      <trkpt lat="27.946728" lon="-15.517531">
        <ele>1420.32</ele>
        <time>2018-03-17T10:58:44Z</time>
      </trkpt>
      <trkpt lat="27.946741" lon="-15.517476">
        <ele>1418.96</ele>
        <time>2018-03-17T10:58:57Z</time>
      </trkpt>
      <trkpt lat="27.946745" lon="-15.517425">
        <ele>1417.55</ele>
        <time>2018-03-17T10:59:02Z</time>
      </trkpt>
      <trkpt lat="27.946732" lon="-15.517365">
        <ele>1416.58</ele>
        <time>2018-03-17T10:59:07Z</time>
      </trkpt>
      <trkpt lat="27.946730" lon="-15.517308">
        <ele>1415.12</ele>
        <time>2018-03-17T10:59:12Z</time>
      </trkpt>
      <trkpt lat="27.946700" lon="-15.517258">
        <ele>1414.99</ele>
        <time>2018-03-17T10:59:16Z</time>
      </trkpt>
      <trkpt lat="27.946663" lon="-15.517221">
        <ele>1415.15</ele>
        <time>2018-03-17T10:59:20Z</time>
      </trkpt>
      <trkpt lat="27.946624" lon="-15.517192">
        <ele>1415.42</ele>
        <time>2018-03-17T10:59:24Z</time>
      </trkpt>
      <trkpt lat="27.946574" lon="-15.517171">
        <ele>1416.51</ele>
        <time>2018-03-17T10:59:28Z</time>
      </trkpt>
      <trkpt lat="27.946531" lon="-15.517151">
        <ele>1417.33</ele>
        <time>2018-03-17T10:59:32Z</time>
      </trkpt>
      <trkpt lat="27.946491" lon="-15.517120">
        <ele>1417.64</ele>
        <time>2018-03-17T10:59:37Z</time>
      </trkpt>
      <trkpt lat="27.946439" lon="-15.517088">
        <ele>1418.43</ele>
        <time>2018-03-17T10:59:42Z</time>
      </trkpt>
      <trkpt lat="27.946391" lon="-15.517067">
        <ele>1419.32</ele>
        <time>2018-03-17T10:59:45Z</time>
      </trkpt>
      <trkpt lat="27.946342" lon="-15.517045">
        <ele>1420.30</ele>
        <time>2018-03-17T10:59:50Z</time>
      </trkpt>
      <trkpt lat="27.946304" lon="-15.517007">
        <ele>1420.23</ele>
        <time>2018-03-17T10:59:56Z</time>
      </trkpt>
      <trkpt lat="27.946263" lon="-15.516968">
        <ele>1420.38</ele>
        <time>2018-03-17T11:00:02Z</time>
      </trkpt>
      <trkpt lat="27.946236" lon="-15.516922">
        <ele>1419.80</ele>
        <time>2018-03-17T11:00:07Z</time>
      </trkpt>
      <trkpt lat="27.946197" lon="-15.516897">
        <ele>1420.33</ele>
        <time>2018-03-17T11:00:14Z</time>
      </trkpt>
      <trkpt lat="27.946162" lon="-15.516864">
        <ele>1420.56</ele>
        <time>2018-03-17T11:00:26Z</time>
      </trkpt>
      <trkpt lat="27.946132" lon="-15.516821">
        <ele>1420.21</ele>
        <time>2018-03-17T11:00:30Z</time>
      </trkpt>
      <trkpt lat="27.946116" lon="-15.516770">
        <ele>1419.21</ele>
        <time>2018-03-17T11:00:35Z</time>
      </trkpt>
      <trkpt lat="27.946106" lon="-15.516719">
        <ele>1417.98</ele>
        <time>2018-03-17T11:00:39Z</time>
      </trkpt>
      <trkpt lat="27.946084" lon="-15.516665">
        <ele>1417.06</ele>
        <time>2018-03-17T11:00:43Z</time>
      </trkpt>
      <trkpt lat="27.946062" lon="-15.516612">
        <ele>1417.44</ele>
        <time>2018-03-17T11:00:48Z</time>
      </trkpt>
      <trkpt lat="27.946068" lon="-15.516558">
        <ele>1416.81</ele>
        <time>2018-03-17T11:00:54Z</time>
      </trkpt>
      <trkpt lat="27.946090" lon="-15.516508">
        <ele>1415.64</ele>
        <time>2018-03-17T11:01:08Z</time>
      </trkpt>
      <trkpt lat="27.946106" lon="-15.516456">
        <ele>1414.77</ele>
        <time>2018-03-17T11:01:13Z</time>
      </trkpt>
      <trkpt lat="27.946138" lon="-15.516412">
        <ele>1412.74</ele>
        <time>2018-03-17T11:01:19Z</time>
      </trkpt>
      <trkpt lat="27.946117" lon="-15.516367">
        <ele>1413.35</ele>
        <time>2018-03-17T11:05:32Z</time>
      </trkpt>
      <trkpt lat="27.946077" lon="-15.516332">
        <ele>1414.43</ele>
        <time>2018-03-17T11:05:40Z</time>
      </trkpt>
      <trkpt lat="27.946054" lon="-15.516279">
        <ele>1414.66</ele>
        <time>2018-03-17T11:05:47Z</time>
      </trkpt>
      <trkpt lat="27.946018" lon="-15.516229">
        <ele>1415.21</ele>
        <time>2018-03-17T11:05:52Z</time>
      </trkpt>
      <trkpt lat="27.945993" lon="-15.516180">
        <ele>1415.61</ele>
        <time>2018-03-17T11:05:56Z</time>
      </trkpt>
      <trkpt lat="27.945964" lon="-15.516128">
        <ele>1416.02</ele>
        <time>2018-03-17T11:06:01Z</time>
      </trkpt>
      <trkpt lat="27.945947" lon="-15.516052">
        <ele>1415.07</ele>
        <time>2018-03-17T11:06:09Z</time>
      </trkpt>
      <trkpt lat="27.945941" lon="-15.515999">
        <ele>1414.01</ele>
        <time>2018-03-17T11:06:13Z</time>
      </trkpt>
      <trkpt lat="27.945944" lon="-15.515938">
        <ele>1412.44</ele>
        <time>2018-03-17T11:06:17Z</time>
      </trkpt>
      <trkpt lat="27.945941" lon="-15.515887">
        <ele>1411.38</ele>
        <time>2018-03-17T11:06:21Z</time>
      </trkpt>
      <trkpt lat="27.945925" lon="-15.515836">
        <ele>1410.84</ele>
        <time>2018-03-17T11:06:28Z</time>
      </trkpt>
      <trkpt lat="27.945935" lon="-15.515775">
        <ele>1407.87</ele>
        <time>2018-03-17T11:06:33Z</time>
      </trkpt>
      <trkpt lat="27.945924" lon="-15.515720">
        <ele>1406.07</ele>
        <time>2018-03-17T11:06:37Z</time>
      </trkpt>
      <trkpt lat="27.945905" lon="-15.515671">
        <ele>1404.85</ele>
        <time>2018-03-17T11:06:41Z</time>
      </trkpt>
      <trkpt lat="27.945866" lon="-15.515625">
        <ele>1404.60</ele>
        <time>2018-03-17T11:06:45Z</time>
      </trkpt>
      <trkpt lat="27.945830" lon="-15.515588">
        <ele>1404.61</ele>
        <time>2018-03-17T11:06:49Z</time>
      </trkpt>
      <trkpt lat="27.945806" lon="-15.515544">
        <ele>1403.91</ele>
        <time>2018-03-17T11:06:52Z</time>
      </trkpt>
      <trkpt lat="27.945759" lon="-15.515516">
        <ele>1405.29</ele>
        <time>2018-03-17T11:07:00Z</time>
      </trkpt>
      <trkpt lat="27.945725" lon="-15.515475">
        <ele>1405.24</ele>
        <time>2018-03-17T11:07:07Z</time>
      </trkpt>
      <trkpt lat="27.945729" lon="-15.515422">
        <ele>1402.93</ele>
        <time>2018-03-17T11:07:09Z</time>
      </trkpt>
      <trkpt lat="27.945701" lon="-15.515369">
        <ele>1402.07</ele>
        <time>2018-03-17T11:07:47Z</time>
      </trkpt>
      <trkpt lat="27.945525" lon="-15.515303">
        <ele>1406.08</ele>
        <time>2018-03-17T11:08:12Z</time>
      </trkpt>
      <trkpt lat="27.945467" lon="-15.515285">
        <ele>1406.98</ele>
        <time>2018-03-17T11:08:15Z</time>
      </trkpt>
      <trkpt lat="27.945412" lon="-15.515251">
        <ele>1407.22</ele>
        <time>2018-03-17T11:08:18Z</time>
      </trkpt>
      <trkpt lat="27.945338" lon="-15.515210">
        <ele>1408.06</ele>
        <time>2018-03-17T11:08:35Z</time>
      </trkpt>
      <trkpt lat="27.945288" lon="-15.515195">
        <ele>1409.07</ele>
        <time>2018-03-17T11:08:38Z</time>
      </trkpt>
      <trkpt lat="27.945242" lon="-15.515166">
        <ele>1409.21</ele>
        <time>2018-03-17T11:08:41Z</time>
      </trkpt>
      <trkpt lat="27.945196" lon="-15.515130">
        <ele>1409.21</ele>
        <time>2018-03-17T11:08:45Z</time>
      </trkpt>
      <trkpt lat="27.945156" lon="-15.515101">
        <ele>1409.31</ele>
        <time>2018-03-17T11:08:48Z</time>
      </trkpt>
      <trkpt lat="27.945113" lon="-15.515081">
        <ele>1409.92</ele>
        <time>2018-03-17T11:08:51Z</time>
      </trkpt>
      <trkpt lat="27.945056" lon="-15.515063">
        <ele>1410.93</ele>
        <time>2018-03-17T11:08:55Z</time>
      </trkpt>
      <trkpt lat="27.945014" lon="-15.515032">
        <ele>1411.40</ele>
        <time>2018-03-17T11:08:59Z</time>
      </trkpt>
      <trkpt lat="27.944992" lon="-15.514976">
        <ele>1410.79</ele>
        <time>2018-03-17T11:10:14Z</time>
      </trkpt>
      <trkpt lat="27.944951" lon="-15.514924">
        <ele>1410.33</ele>
        <time>2018-03-17T11:10:18Z</time>
      </trkpt>
      <trkpt lat="27.944925" lon="-15.514874">
        <ele>1409.72</ele>
        <time>2018-03-17T11:10:21Z</time>
      </trkpt>
      <trkpt lat="27.944898" lon="-15.514829">
        <ele>1409.33</ele>
        <time>2018-03-17T11:10:25Z</time>
      </trkpt>
      <trkpt lat="27.944865" lon="-15.514781">
        <ele>1408.86</ele>
        <time>2018-03-17T11:10:30Z</time>
      </trkpt>
      <trkpt lat="27.944846" lon="-15.514729">
        <ele>1408.22</ele>
        <time>2018-03-17T11:10:35Z</time>
      </trkpt>
      <trkpt lat="27.944834" lon="-15.514679">
        <ele>1407.20</ele>
        <time>2018-03-17T11:10:40Z</time>
      </trkpt>
      <trkpt lat="27.944809" lon="-15.514622">
        <ele>1405.82</ele>
        <time>2018-03-17T11:13:01Z</time>
      </trkpt>
      <trkpt lat="27.944813" lon="-15.514568">
        <ele>1404.51</ele>
        <time>2018-03-17T11:13:55Z</time>
      </trkpt>
      <trkpt lat="27.944815" lon="-15.514516">
        <ele>1403.13</ele>
        <time>2018-03-17T11:14:09Z</time>
      </trkpt>
      <trkpt lat="27.944848" lon="-15.514477">
        <ele>1401.95</ele>
        <time>2018-03-17T11:14:15Z</time>
      </trkpt>
      <trkpt lat="27.944887" lon="-15.514446">
        <ele>1400.95</ele>
        <time>2018-03-17T11:14:21Z</time>
      </trkpt>
      <trkpt lat="27.944904" lon="-15.514396">
        <ele>1400.06</ele>
        <time>2018-03-17T11:14:31Z</time>
      </trkpt>
      <trkpt lat="27.944917" lon="-15.514342">
        <ele>1399.22</ele>
        <time>2018-03-17T11:14:36Z</time>
      </trkpt>
      <trkpt lat="27.944925" lon="-15.514289">
        <ele>1398.46</ele>
        <time>2018-03-17T11:15:03Z</time>
      </trkpt>
      <trkpt lat="27.944941" lon="-15.514230">
        <ele>1397.63</ele>
        <time>2018-03-17T11:15:16Z</time>
      </trkpt>
      <trkpt lat="27.944966" lon="-15.514172">
        <ele>1396.94</ele>
        <time>2018-03-17T11:15:21Z</time>
      </trkpt>
      <trkpt lat="27.944978" lon="-15.514107">
        <ele>1396.97</ele>
        <time>2018-03-17T11:15:27Z</time>
      </trkpt>
      <trkpt lat="27.944998" lon="-15.514054">
        <ele>1397.00</ele>
        <time>2018-03-17T11:15:32Z</time>
      </trkpt>
      <trkpt lat="27.945036" lon="-15.514011">
        <ele>1396.22</ele>
        <time>2018-03-17T11:15:38Z</time>
      </trkpt>
      <trkpt lat="27.945080" lon="-15.513979">
        <ele>1395.31</ele>
        <time>2018-03-17T11:15:43Z</time>
      </trkpt>
      <trkpt lat="27.945097" lon="-15.513927">
        <ele>1395.14</ele>
        <time>2018-03-17T11:15:48Z</time>
      </trkpt>
      <trkpt lat="27.945118" lon="-15.513876">
        <ele>1395.07</ele>
        <time>2018-03-17T11:15:52Z</time>
      </trkpt>
      <trkpt lat="27.945144" lon="-15.513829">
        <ele>1395.15</ele>
        <time>2018-03-17T11:15:56Z</time>
      </trkpt>
      <trkpt lat="27.945181" lon="-15.513795">
        <ele>1394.85</ele>
        <time>2018-03-17T11:16:00Z</time>
      </trkpt>
      <trkpt lat="27.945198" lon="-15.513742">
        <ele>1395.06</ele>
        <time>2018-03-17T11:16:06Z</time>
      </trkpt>
      <trkpt lat="27.945236" lon="-15.513698">
        <ele>1394.83</ele>
        <time>2018-03-17T11:16:11Z</time>
      </trkpt>
      <trkpt lat="27.945276" lon="-15.513655">
        <ele>1394.63</ele>
        <time>2018-03-17T11:16:16Z</time>
      </trkpt>
      <trkpt lat="27.945315" lon="-15.513614">
        <ele>1393.44</ele>
        <time>2018-03-17T11:16:19Z</time>
      </trkpt>
      <trkpt lat="27.945335" lon="-15.513563">
        <ele>1392.64</ele>
        <time>2018-03-17T11:16:25Z</time>
      </trkpt>
      <trkpt lat="27.945360" lon="-15.513510">
        <ele>1391.65</ele>
        <time>2018-03-17T11:16:28Z</time>
      </trkpt>
      <trkpt lat="27.945425" lon="-15.513456">
        <ele>1388.91</ele>
        <time>2018-03-17T11:16:32Z</time>
      </trkpt>
      <trkpt lat="27.945491" lon="-15.513411">
        <ele>1386.31</ele>
        <time>2018-03-17T11:16:37Z</time>
      </trkpt>
      <trkpt lat="27.945502" lon="-15.513354">
        <ele>1386.18</ele>
        <time>2018-03-17T11:16:44Z</time>
      </trkpt>
      <trkpt lat="27.945470" lon="-15.513316">
        <ele>1387.15</ele>
        <time>2018-03-17T11:16:49Z</time>
      </trkpt>
      <trkpt lat="27.945437" lon="-15.513275">
        <ele>1387.69</ele>
        <time>2018-03-17T11:17:00Z</time>
      </trkpt>
      <trkpt lat="27.945421" lon="-15.513220">
        <ele>1387.33</ele>
        <time>2018-03-17T11:17:06Z</time>
      </trkpt>
      <trkpt lat="27.945384" lon="-15.513186">
        <ele>1388.37</ele>
        <time>2018-03-17T11:17:09Z</time>
      </trkpt>
      <trkpt lat="27.945346" lon="-15.513127">
        <ele>1389.09</ele>
        <time>2018-03-17T11:17:15Z</time>
      </trkpt>
      <trkpt lat="27.945323" lon="-15.513080">
        <ele>1389.37</ele>
        <time>2018-03-17T11:17:20Z</time>
      </trkpt>
      <trkpt lat="27.945310" lon="-15.513030">
        <ele>1389.15</ele>
        <time>2018-03-17T11:17:24Z</time>
      </trkpt>
      <trkpt lat="27.945295" lon="-15.512975">
        <ele>1389.06</ele>
        <time>2018-03-17T11:17:29Z</time>
      </trkpt>
      <trkpt lat="27.945289" lon="-15.512920">
        <ele>1388.40</ele>
        <time>2018-03-17T11:17:33Z</time>
      </trkpt>
      <trkpt lat="27.945296" lon="-15.512865">
        <ele>1387.22</ele>
        <time>2018-03-17T11:17:37Z</time>
      </trkpt>
      <trkpt lat="27.945305" lon="-15.512809">
        <ele>1385.81</ele>
        <time>2018-03-17T11:17:42Z</time>
      </trkpt>
      <trkpt lat="27.945295" lon="-15.512754">
        <ele>1385.78</ele>
        <time>2018-03-17T11:17:46Z</time>
      </trkpt>
      <trkpt lat="27.945284" lon="-15.512699">
        <ele>1385.84</ele>
        <time>2018-03-17T11:17:51Z</time>
      </trkpt>
      <trkpt lat="27.945288" lon="-15.512641">
        <ele>1384.93</ele>
        <time>2018-03-17T11:17:56Z</time>
      </trkpt>
      <trkpt lat="27.945296" lon="-15.512589">
        <ele>1383.86</ele>
        <time>2018-03-17T11:18:00Z</time>
      </trkpt>
      <trkpt lat="27.945304" lon="-15.512539">
        <ele>1382.82</ele>
        <time>2018-03-17T11:18:04Z</time>
      </trkpt>
      <trkpt lat="27.945307" lon="-15.512479">
        <ele>1381.83</ele>
        <time>2018-03-17T11:18:09Z</time>
      </trkpt>
      <trkpt lat="27.945283" lon="-15.512434">
        <ele>1382.58</ele>
        <time>2018-03-17T11:18:14Z</time>
      </trkpt>
      <trkpt lat="27.945249" lon="-15.512398">
        <ele>1383.89</ele>
        <time>2018-03-17T11:18:26Z</time>
      </trkpt>
      <trkpt lat="27.945213" lon="-15.512357">
        <ele>1385.27</ele>
        <time>2018-03-17T11:18:35Z</time>
      </trkpt>
      <trkpt lat="27.945184" lon="-15.512315">
        <ele>1386.16</ele>
        <time>2018-03-17T11:18:40Z</time>
      </trkpt>
      <trkpt lat="27.945205" lon="-15.512266">
        <ele>1384.02</ele>
        <time>2018-03-17T11:18:49Z</time>
      </trkpt>
      <trkpt lat="27.945218" lon="-15.512181">
        <ele>1381.51</ele>
        <time>2018-03-17T11:18:57Z</time>
      </trkpt>
      <trkpt lat="27.945221" lon="-15.512126">
        <ele>1380.18</ele>
        <time>2018-03-17T11:18:59Z</time>
      </trkpt>
      <trkpt lat="27.945187" lon="-15.512073">
        <ele>1380.87</ele>
        <time>2018-03-17T11:19:01Z</time>
      </trkpt>
      <trkpt lat="27.945172" lon="-15.512021">
        <ele>1380.56</ele>
        <time>2018-03-17T11:19:08Z</time>
      </trkpt>
      <trkpt lat="27.945139" lon="-15.511884">
        <ele>1378.93</ele>
        <time>2018-03-17T11:19:09Z</time>
      </trkpt>
      <trkpt lat="27.945101" lon="-15.511849">
        <ele>1379.99</ele>
        <time>2018-03-17T11:19:13Z</time>
      </trkpt>
      <trkpt lat="27.945060" lon="-15.511822">
        <ele>1381.38</ele>
        <time>2018-03-17T11:19:19Z</time>
      </trkpt>
      <trkpt lat="27.945076" lon="-15.511769">
        <ele>1379.07</ele>
        <time>2018-03-17T11:19:29Z</time>
      </trkpt>
      <trkpt lat="27.945127" lon="-15.511759">
        <ele>1376.14</ele>
        <time>2018-03-17T11:20:23Z</time>
      </trkpt>
      <trkpt lat="27.945114" lon="-15.511696">
        <ele>1375.18</ele>
        <time>2018-03-17T11:20:27Z</time>
      </trkpt>
      <trkpt lat="27.945113" lon="-15.511631">
        <ele>1373.53</ele>
        <time>2018-03-17T11:20:32Z</time>
      </trkpt>
      <trkpt lat="27.945086" lon="-15.511573">
        <ele>1373.53</ele>
        <time>2018-03-17T11:20:35Z</time>
      </trkpt>
      <trkpt lat="27.945075" lon="-15.511517">
        <ele>1372.71</ele>
        <time>2018-03-17T11:20:38Z</time>
      </trkpt>
      <trkpt lat="27.945070" lon="-15.511455">
        <ele>1371.58</ele>
        <time>2018-03-17T11:20:42Z</time>
      </trkpt>
      <trkpt lat="27.945071" lon="-15.511402">
        <ele>1370.25</ele>
        <time>2018-03-17T11:20:46Z</time>
      </trkpt>
      <trkpt lat="27.945052" lon="-15.511331">
        <ele>1369.15</ele>
        <time>2018-03-17T11:20:49Z</time>
      </trkpt>
      <trkpt lat="27.945042" lon="-15.511271">
        <ele>1367.87</ele>
        <time>2018-03-17T11:20:53Z</time>
      </trkpt>
      <trkpt lat="27.945012" lon="-15.511220">
        <ele>1367.62</ele>
        <time>2018-03-17T11:20:56Z</time>
      </trkpt>
      <trkpt lat="27.944965" lon="-15.511165">
        <ele>1367.03</ele>
        <time>2018-03-17T11:20:59Z</time>
      </trkpt>
      <trkpt lat="27.944940" lon="-15.511119">
        <ele>1365.95</ele>
        <time>2018-03-17T11:21:03Z</time>
      </trkpt>
      <trkpt lat="27.944926" lon="-15.511070">
        <ele>1364.84</ele>
        <time>2018-03-17T11:21:05Z</time>
      </trkpt>
      <trkpt lat="27.944894" lon="-15.511027">
        <ele>1364.17</ele>
        <time>2018-03-17T11:21:08Z</time>
      </trkpt>
      <trkpt lat="27.944859" lon="-15.510989">
        <ele>1363.74</ele>
        <time>2018-03-17T11:21:13Z</time>
      </trkpt>
      <trkpt lat="27.944809" lon="-15.510978">
        <ele>1364.03</ele>
        <time>2018-03-17T11:21:19Z</time>
      </trkpt>
      <trkpt lat="27.944764" lon="-15.510986">
        <ele>1364.81</ele>
        <time>2018-03-17T11:21:24Z</time>
      </trkpt>
      <trkpt lat="27.944714" lon="-15.510964">
        <ele>1364.82</ele>
        <time>2018-03-17T11:21:30Z</time>
      </trkpt>
      <trkpt lat="27.944668" lon="-15.510946">
        <ele>1364.25</ele>
        <time>2018-03-17T11:21:37Z</time>
      </trkpt>
      <trkpt lat="27.944620" lon="-15.510925">
        <ele>1363.62</ele>
        <time>2018-03-17T11:21:43Z</time>
      </trkpt>
      <trkpt lat="27.944575" lon="-15.510920">
        <ele>1363.35</ele>
        <time>2018-03-17T11:21:48Z</time>
      </trkpt>
      <trkpt lat="27.944530" lon="-15.510908">
        <ele>1362.96</ele>
        <time>2018-03-17T11:21:53Z</time>
      </trkpt>
      <trkpt lat="27.944525" lon="-15.510979">
        <ele>1364.41</ele>
        <time>2018-03-17T11:22:09Z</time>
      </trkpt>
      <trkpt lat="27.944360" lon="-15.510794">
        <ele>1358.63</ele>
        <time>2018-03-17T11:22:43Z</time>
      </trkpt>
      <trkpt lat="27.944318" lon="-15.510700">
        <ele>1356.32</ele>
        <time>2018-03-17T11:22:48Z</time>
      </trkpt>
      <trkpt lat="27.944224" lon="-15.510691">
        <ele>1354.54</ele>
        <time>2018-03-17T11:22:58Z</time>
      </trkpt>
      <trkpt lat="27.944174" lon="-15.510670">
        <ele>1353.46</ele>
        <time>2018-03-17T11:23:02Z</time>
      </trkpt>
      <trkpt lat="27.944129" lon="-15.510644">
        <ele>1352.11</ele>
        <time>2018-03-17T11:23:06Z</time>
      </trkpt>
      <trkpt lat="27.944070" lon="-15.510616">
        <ele>1350.51</ele>
        <time>2018-03-17T11:25:42Z</time>
      </trkpt>
      <trkpt lat="27.944031" lon="-15.510560">
        <ele>1349.70</ele>
        <time>2018-03-17T11:26:25Z</time>
      </trkpt>
      <trkpt lat="27.944075" lon="-15.510530">
        <ele>1349.94</ele>
        <time>2018-03-17T11:31:20Z</time>
      </trkpt>
      <trkpt lat="27.944120" lon="-15.510501">
        <ele>1350.36</ele>
        <time>2018-03-17T11:31:24Z</time>
      </trkpt>
      <trkpt lat="27.944155" lon="-15.510468">
        <ele>1350.57</ele>
        <time>2018-03-17T11:31:28Z</time>
      </trkpt>
      <trkpt lat="27.944205" lon="-15.510453">
        <ele>1351.02</ele>
        <time>2018-03-17T11:32:13Z</time>
      </trkpt>
      <trkpt lat="27.944165" lon="-15.510479">
        <ele>1350.96</ele>
        <time>2018-03-17T11:32:21Z</time>
      </trkpt>
      <trkpt lat="27.944122" lon="-15.510507">
        <ele>1350.43</ele>
        <time>2018-03-17T11:32:32Z</time>
      </trkpt>
      <trkpt lat="27.944063" lon="-15.510490">
        <ele>1349.05</ele>
        <time>2018-03-17T11:35:09Z</time>
      </trkpt>
      <trkpt lat="27.944028" lon="-15.510442">
        <ele>1347.57</ele>
        <time>2018-03-17T11:35:12Z</time>
      </trkpt>
      <trkpt lat="27.943994" lon="-15.510391">
        <ele>1345.83</ele>
        <time>2018-03-17T11:35:14Z</time>
      </trkpt>
      <trkpt lat="27.943962" lon="-15.510331">
        <ele>1343.92</ele>
        <time>2018-03-17T11:35:16Z</time>
      </trkpt>
      <trkpt lat="27.943944" lon="-15.510278">
        <ele>1342.41</ele>
        <time>2018-03-17T11:35:19Z</time>
      </trkpt>
      <trkpt lat="27.943974" lon="-15.510237">
        <ele>1342.36</ele>
        <time>2018-03-17T11:35:23Z</time>
      </trkpt>
      <trkpt lat="27.943999" lon="-15.510189">
        <ele>1341.88</ele>
        <time>2018-03-17T11:35:28Z</time>
      </trkpt>
      <trkpt lat="27.944023" lon="-15.510138">
        <ele>1341.13</ele>
        <time>2018-03-17T11:35:33Z</time>
      </trkpt>
      <trkpt lat="27.944042" lon="-15.510080">
        <ele>1340.12</ele>
        <time>2018-03-17T11:35:37Z</time>
      </trkpt>
      <trkpt lat="27.944072" lon="-15.510027">
        <ele>1339.33</ele>
        <time>2018-03-17T11:35:43Z</time>
      </trkpt>
      <trkpt lat="27.944086" lon="-15.509977">
        <ele>1338.12</ele>
        <time>2018-03-17T11:35:48Z</time>
      </trkpt>
      <trkpt lat="27.944094" lon="-15.509922">
        <ele>1336.51</ele>
        <time>2018-03-17T11:36:30Z</time>
      </trkpt>
      <trkpt lat="27.944086" lon="-15.509866">
        <ele>1334.72</ele>
        <time>2018-03-17T11:37:10Z</time>
      </trkpt>
      <trkpt lat="27.944060" lon="-15.509795">
        <ele>1332.55</ele>
        <time>2018-03-17T11:37:34Z</time>
      </trkpt>
      <trkpt lat="27.944014" lon="-15.509727">
        <ele>1330.73</ele>
        <time>2018-03-17T11:38:14Z</time>
      </trkpt>
      <trkpt lat="27.943984" lon="-15.509688">
        <ele>1329.92</ele>
        <time>2018-03-17T11:38:22Z</time>
      </trkpt>
      <trkpt lat="27.943957" lon="-15.509640">
        <ele>1329.01</ele>
        <time>2018-03-17T11:38:27Z</time>
      </trkpt>
      <trkpt lat="27.943933" lon="-15.509596">
        <ele>1328.34</ele>
        <time>2018-03-17T11:38:35Z</time>
      </trkpt>
      <trkpt lat="27.943907" lon="-15.509545">
        <ele>1327.66</ele>
        <time>2018-03-17T11:38:41Z</time>
      </trkpt>
      <trkpt lat="27.943885" lon="-15.509496">
        <ele>1326.84</ele>
        <time>2018-03-17T11:38:49Z</time>
      </trkpt>
      <trkpt lat="27.943866" lon="-15.509449">
        <ele>1325.79</ele>
        <time>2018-03-17T11:38:55Z</time>
      </trkpt>
      <trkpt lat="27.943842" lon="-15.509401">
        <ele>1323.89</ele>
        <time>2018-03-17T11:39:00Z</time>
      </trkpt>
      <trkpt lat="27.943812" lon="-15.509363">
        <ele>1322.19</ele>
        <time>2018-03-17T11:39:07Z</time>
      </trkpt>
      <trkpt lat="27.943781" lon="-15.509317">
        <ele>1320.16</ele>
        <time>2018-03-17T11:39:13Z</time>
      </trkpt>
      <trkpt lat="27.943755" lon="-15.509267">
        <ele>1318.14</ele>
        <time>2018-03-17T11:39:17Z</time>
      </trkpt>
      <trkpt lat="27.943708" lon="-15.509260">
        <ele>1317.30</ele>
        <time>2018-03-17T11:39:32Z</time>
      </trkpt>
      <trkpt lat="27.943669" lon="-15.509233">
        <ele>1315.82</ele>
        <time>2018-03-17T11:39:42Z</time>
      </trkpt>
      <trkpt lat="27.943611" lon="-15.509175">
        <ele>1313.22</ele>
        <time>2018-03-17T11:42:30Z</time>
      </trkpt>
      <trkpt lat="27.943587" lon="-15.509131">
        <ele>1310.51</ele>
        <time>2018-03-17T11:42:38Z</time>
      </trkpt>
      <trkpt lat="27.943568" lon="-15.509071">
        <ele>1308.38</ele>
        <time>2018-03-17T11:42:55Z</time>
      </trkpt>
      <trkpt lat="27.943575" lon="-15.509014">
        <ele>1308.47</ele>
        <time>2018-03-17T11:43:07Z</time>
      </trkpt>
      <trkpt lat="27.943564" lon="-15.508962">
        <ele>1307.02</ele>
        <time>2018-03-17T11:44:20Z</time>
      </trkpt>
      <trkpt lat="27.943580" lon="-15.508892">
        <ele>1307.74</ele>
        <time>2018-03-17T11:44:43Z</time>
      </trkpt>
      <trkpt lat="27.943576" lon="-15.508840">
        <ele>1306.37</ele>
        <time>2018-03-17T11:45:15Z</time>
      </trkpt>
      <trkpt lat="27.943578" lon="-15.508789">
        <ele>1305.47</ele>
        <time>2018-03-17T11:46:16Z</time>
      </trkpt>
      <trkpt lat="27.943552" lon="-15.508739">
        <ele>1302.97</ele>
        <time>2018-03-17T11:46:22Z</time>
      </trkpt>
      <trkpt lat="27.943545" lon="-15.508685">
        <ele>1301.67</ele>
        <time>2018-03-17T11:46:27Z</time>
      </trkpt>
      <trkpt lat="27.943527" lon="-15.508638">
        <ele>1300.18</ele>
        <time>2018-03-17T11:46:34Z</time>
      </trkpt>
      <trkpt lat="27.943499" lon="-15.508589">
        <ele>1298.29</ele>
        <time>2018-03-17T11:46:40Z</time>
      </trkpt>
      <trkpt lat="27.943474" lon="-15.508541">
        <ele>1296.72</ele>
        <time>2018-03-17T11:46:46Z</time>
      </trkpt>
      <trkpt lat="27.943444" lon="-15.508494">
        <ele>1295.11</ele>
        <time>2018-03-17T11:46:54Z</time>
      </trkpt>
      <trkpt lat="27.943423" lon="-15.508434">
        <ele>1293.97</ele>
        <time>2018-03-17T11:47:04Z</time>
      </trkpt>
      <trkpt lat="27.943410" lon="-15.508381">
        <ele>1293.11</ele>
        <time>2018-03-17T11:47:08Z</time>
      </trkpt>
      <trkpt lat="27.943386" lon="-15.508328">
        <ele>1292.12</ele>
        <time>2018-03-17T11:47:15Z</time>
      </trkpt>
      <trkpt lat="27.943375" lon="-15.508259">
        <ele>1290.92</ele>
        <time>2018-03-17T11:47:43Z</time>
      </trkpt>
      <trkpt lat="27.943374" lon="-15.508190">
        <ele>1289.95</ele>
        <time>2018-03-17T11:47:46Z</time>
      </trkpt>
      <trkpt lat="27.943375" lon="-15.508138">
        <ele>1289.26</ele>
        <time>2018-03-17T11:47:49Z</time>
      </trkpt>
      <trkpt lat="27.943398" lon="-15.508089">
        <ele>1288.55</ele>
        <time>2018-03-17T11:47:56Z</time>
      </trkpt>
      <trkpt lat="27.943400" lon="-15.508025">
        <ele>1287.52</ele>
        <time>2018-03-17T11:48:45Z</time>
      </trkpt>
      <trkpt lat="27.943353" lon="-15.508022">
        <ele>1287.57</ele>
        <time>2018-03-17T11:48:54Z</time>
      </trkpt>
      <trkpt lat="27.943339" lon="-15.508083">
        <ele>1288.33</ele>
        <time>2018-03-17T11:49:06Z</time>
      </trkpt>
      <trkpt lat="27.943305" lon="-15.508125">
        <ele>1287.82</ele>
        <time>2018-03-17T11:49:13Z</time>
      </trkpt>
      <trkpt lat="27.943261" lon="-15.508141">
        <ele>1286.51</ele>
        <time>2018-03-17T11:49:17Z</time>
      </trkpt>
      <trkpt lat="27.943230" lon="-15.508182">
        <ele>1285.75</ele>
        <time>2018-03-17T11:49:23Z</time>
      </trkpt>
      <trkpt lat="27.943218" lon="-15.508237">
        <ele>1285.65</ele>
        <time>2018-03-17T11:49:29Z</time>
      </trkpt>
      <trkpt lat="27.943209" lon="-15.508291">
        <ele>1285.44</ele>
        <time>2018-03-17T11:49:49Z</time>
      </trkpt>
      <trkpt lat="27.943239" lon="-15.508241">
        <ele>1286.45</ele>
        <time>2018-03-17T11:50:10Z</time>
      </trkpt>
      <trkpt lat="27.943184" lon="-15.508213">
        <ele>1284.22</ele>
        <time>2018-03-17T11:51:56Z</time>
      </trkpt>
      <trkpt lat="27.943144" lon="-15.508161">
        <ele>1282.77</ele>
        <time>2018-03-17T11:52:01Z</time>
      </trkpt>
      <trkpt lat="27.943133" lon="-15.508083">
        <ele>1282.25</ele>
        <time>2018-03-17T11:52:03Z</time>
      </trkpt>
      <trkpt lat="27.943150" lon="-15.508022">
        <ele>1282.52</ele>
        <time>2018-03-17T11:52:07Z</time>
      </trkpt>
      <trkpt lat="27.943188" lon="-15.507960">
        <ele>1283.06</ele>
        <time>2018-03-17T11:52:12Z</time>
      </trkpt>
      <trkpt lat="27.943217" lon="-15.507918">
        <ele>1283.34</ele>
        <time>2018-03-17T11:52:14Z</time>
      </trkpt>
      <trkpt lat="27.943197" lon="-15.507854">
        <ele>1282.22</ele>
        <time>2018-03-17T11:52:18Z</time>
      </trkpt>
      <trkpt lat="27.943204" lon="-15.507799">
        <ele>1281.91</ele>
        <time>2018-03-17T11:52:21Z</time>
      </trkpt>
      <trkpt lat="27.943241" lon="-15.507755">
        <ele>1281.87</ele>
        <time>2018-03-17T11:52:25Z</time>
      </trkpt>
      <trkpt lat="27.943273" lon="-15.507713">
        <ele>1281.47</ele>
        <time>2018-03-17T11:52:29Z</time>
      </trkpt>
      <trkpt lat="27.943292" lon="-15.507666">
        <ele>1280.67</ele>
        <time>2018-03-17T11:52:33Z</time>
      </trkpt>
      <trkpt lat="27.943348" lon="-15.507626">
        <ele>1280.08</ele>
        <time>2018-03-17T11:52:38Z</time>
      </trkpt>
      <trkpt lat="27.943391" lon="-15.507590">
        <ele>1278.47</ele>
        <time>2018-03-17T11:52:42Z</time>
      </trkpt>
      <trkpt lat="27.943399" lon="-15.507536">
        <ele>1277.01</ele>
        <time>2018-03-17T11:53:11Z</time>
      </trkpt>
      <trkpt lat="27.943435" lon="-15.507497">
        <ele>1275.57</ele>
        <time>2018-03-17T11:53:17Z</time>
      </trkpt>
      <trkpt lat="27.943441" lon="-15.507437">
        <ele>1274.07</ele>
        <time>2018-03-17T11:53:22Z</time>
      </trkpt>
      <trkpt lat="27.943462" lon="-15.507391">
        <ele>1272.86</ele>
        <time>2018-03-17T11:53:28Z</time>
      </trkpt>
      <trkpt lat="27.943469" lon="-15.507337">
        <ele>1271.50</ele>
        <time>2018-03-17T11:53:34Z</time>
      </trkpt>
      <trkpt lat="27.943460" lon="-15.507283">
        <ele>1270.42</ele>
        <time>2018-03-17T11:53:39Z</time>
      </trkpt>
      <trkpt lat="27.943458" lon="-15.507225">
        <ele>1269.21</ele>
        <time>2018-03-17T11:53:46Z</time>
      </trkpt>
      <trkpt lat="27.943447" lon="-15.507173">
        <ele>1268.12</ele>
        <time>2018-03-17T11:53:52Z</time>
      </trkpt>
      <trkpt lat="27.943470" lon="-15.507116">
        <ele>1266.75</ele>
        <time>2018-03-17T11:53:58Z</time>
      </trkpt>
      <trkpt lat="27.943491" lon="-15.507070">
        <ele>1265.78</ele>
        <time>2018-03-17T11:54:03Z</time>
      </trkpt>
      <trkpt lat="27.943500" lon="-15.507011">
        <ele>1264.41</ele>
        <time>2018-03-17T11:54:10Z</time>
      </trkpt>
      <trkpt lat="27.943471" lon="-15.506963">
        <ele>1263.48</ele>
        <time>2018-03-17T11:54:14Z</time>
      </trkpt>
      <trkpt lat="27.943431" lon="-15.506934">
        <ele>1262.66</ele>
        <time>2018-03-17T11:54:20Z</time>
      </trkpt>
      <trkpt lat="27.943377" lon="-15.506926">
        <ele>1262.44</ele>
        <time>2018-03-17T11:54:43Z</time>
      </trkpt>
      <trkpt lat="27.943397" lon="-15.506874">
        <ele>1260.64</ele>
        <time>2018-03-17T11:54:50Z</time>
      </trkpt>
      <trkpt lat="27.943422" lon="-15.506828">
        <ele>1259.04</ele>
        <time>2018-03-17T11:54:54Z</time>
      </trkpt>
      <trkpt lat="27.943462" lon="-15.506793">
        <ele>1257.69</ele>
        <time>2018-03-17T11:54:58Z</time>
      </trkpt>
      <trkpt lat="27.943516" lon="-15.506776">
        <ele>1256.71</ele>
        <time>2018-03-17T11:55:02Z</time>
      </trkpt>
      <trkpt lat="27.943508" lon="-15.506724">
        <ele>1254.91</ele>
        <time>2018-03-17T11:55:08Z</time>
      </trkpt>
      <trkpt lat="27.943477" lon="-15.506685">
        <ele>1253.69</ele>
        <time>2018-03-17T11:55:12Z</time>
      </trkpt>
      <trkpt lat="27.943487" lon="-15.506634">
        <ele>1251.69</ele>
        <time>2018-03-17T11:55:25Z</time>
      </trkpt>
      <trkpt lat="27.943462" lon="-15.506586">
        <ele>1250.13</ele>
        <time>2018-03-17T11:55:59Z</time>
      </trkpt>
      <trkpt lat="27.943489" lon="-15.506545">
        <ele>1248.28</ele>
        <time>2018-03-17T11:56:06Z</time>
      </trkpt>
      <trkpt lat="27.943450" lon="-15.506508">
        <ele>1247.31</ele>
        <time>2018-03-17T11:56:55Z</time>
      </trkpt>
      <trkpt lat="27.943465" lon="-15.506458">
        <ele>1245.28</ele>
        <time>2018-03-17T11:57:00Z</time>
      </trkpt>
      <trkpt lat="27.943434" lon="-15.506419">
        <ele>1244.31</ele>
        <time>2018-03-17T11:57:14Z</time>
      </trkpt>
      <trkpt lat="27.943391" lon="-15.506363">
        <ele>1243.37</ele>
        <time>2018-03-17T11:57:42Z</time>
      </trkpt>
      <trkpt lat="27.943376" lon="-15.506313">
        <ele>1242.39</ele>
        <time>2018-03-17T11:57:51Z</time>
      </trkpt>
      <trkpt lat="27.943372" lon="-15.506260">
        <ele>1241.06</ele>
        <time>2018-03-17T11:58:15Z</time>
      </trkpt>
      <trkpt lat="27.943385" lon="-15.506207">
        <ele>1239.43</ele>
        <time>2018-03-17T11:58:22Z</time>
      </trkpt>
      <trkpt lat="27.943354" lon="-15.506165">
        <ele>1238.91</ele>
        <time>2018-03-17T11:58:28Z</time>
      </trkpt>
      <trkpt lat="27.943324" lon="-15.506118">
        <ele>1238.18</ele>
        <time>2018-03-17T11:58:44Z</time>
      </trkpt>
      <trkpt lat="27.943296" lon="-15.506072">
        <ele>1236.66</ele>
        <time>2018-03-17T11:58:54Z</time>
      </trkpt>
      <trkpt lat="27.943254" lon="-15.506038">
        <ele>1235.39</ele>
        <time>2018-03-17T11:59:03Z</time>
      </trkpt>
      <trkpt lat="27.943214" lon="-15.506003">
        <ele>1234.04</ele>
        <time>2018-03-17T11:59:11Z</time>
      </trkpt>
      <trkpt lat="27.943178" lon="-15.505964">
        <ele>1232.63</ele>
        <time>2018-03-17T11:59:17Z</time>
      </trkpt>
      <trkpt lat="27.943181" lon="-15.505912">
        <ele>1231.32</ele>
        <time>2018-03-17T11:59:45Z</time>
      </trkpt>
      <trkpt lat="27.943156" lon="-15.505866">
        <ele>1229.99</ele>
        <time>2018-03-17T11:59:54Z</time>
      </trkpt>
      <trkpt lat="27.943110" lon="-15.505866">
        <ele>1229.48</ele>
        <time>2018-03-17T12:00:06Z</time>
      </trkpt>
      <trkpt lat="27.943075" lon="-15.505901">
        <ele>1229.93</ele>
        <time>2018-03-17T12:00:18Z</time>
      </trkpt>
      <trkpt lat="27.943029" lon="-15.505915">
        <ele>1229.70</ele>
        <time>2018-03-17T12:00:27Z</time>
      </trkpt>
      <trkpt lat="27.942981" lon="-15.505916">
        <ele>1229.22</ele>
        <time>2018-03-17T12:00:40Z</time>
      </trkpt>
      <trkpt lat="27.942940" lon="-15.505892">
        <ele>1228.11</ele>
        <time>2018-03-17T12:00:50Z</time>
      </trkpt>
      <trkpt lat="27.942895" lon="-15.505880">
        <ele>1227.37</ele>
        <time>2018-03-17T12:01:09Z</time>
      </trkpt>
      <trkpt lat="27.942862" lon="-15.505834">
        <ele>1225.94</ele>
        <time>2018-03-17T12:01:22Z</time>
      </trkpt>
      <trkpt lat="27.942856" lon="-15.505778">
        <ele>1224.57</ele>
        <time>2018-03-17T12:01:29Z</time>
      </trkpt>
      <trkpt lat="27.942862" lon="-15.505724">
        <ele>1223.36</ele>
        <time>2018-03-17T12:01:35Z</time>
      </trkpt>
      <trkpt lat="27.942854" lon="-15.505668">
        <ele>1221.98</ele>
        <time>2018-03-17T12:01:43Z</time>
      </trkpt>
      <trkpt lat="27.942857" lon="-15.505610">
        <ele>1220.70</ele>
        <time>2018-03-17T12:01:51Z</time>
      </trkpt>
      <trkpt lat="27.942877" lon="-15.505560">
        <ele>1219.54</ele>
        <time>2018-03-17T12:02:02Z</time>
      </trkpt>
      <trkpt lat="27.942859" lon="-15.505508">
        <ele>1218.09</ele>
        <time>2018-03-17T12:02:10Z</time>
      </trkpt>
      <trkpt lat="27.942824" lon="-15.505472">
        <ele>1217.03</ele>
        <time>2018-03-17T12:02:19Z</time>
      </trkpt>
      <trkpt lat="27.942774" lon="-15.505473">
        <ele>1216.90</ele>
        <time>2018-03-17T12:02:28Z</time>
      </trkpt>
      <trkpt lat="27.942724" lon="-15.505483">
        <ele>1217.52</ele>
        <time>2018-03-17T12:02:34Z</time>
      </trkpt>
      <trkpt lat="27.942679" lon="-15.505494">
        <ele>1218.01</ele>
        <time>2018-03-17T12:02:39Z</time>
      </trkpt>
      <trkpt lat="27.942632" lon="-15.505507">
        <ele>1218.63</ele>
        <time>2018-03-17T12:02:47Z</time>
      </trkpt>
      <trkpt lat="27.942583" lon="-15.505525">
        <ele>1219.52</ele>
        <time>2018-03-17T12:02:54Z</time>
      </trkpt>
      <trkpt lat="27.942536" lon="-15.505511">
        <ele>1219.34</ele>
        <time>2018-03-17T12:03:00Z</time>
      </trkpt>
      <trkpt lat="27.942492" lon="-15.505485">
        <ele>1218.81</ele>
        <time>2018-03-17T12:03:06Z</time>
      </trkpt>
      <trkpt lat="27.942455" lon="-15.505453">
        <ele>1217.97</ele>
        <time>2018-03-17T12:03:12Z</time>
      </trkpt>
      <trkpt lat="27.942414" lon="-15.505414">
        <ele>1216.92</ele>
        <time>2018-03-17T12:03:18Z</time>
      </trkpt>
      <trkpt lat="27.942376" lon="-15.505383">
        <ele>1216.19</ele>
        <time>2018-03-17T12:03:24Z</time>
      </trkpt>
      <trkpt lat="27.942342" lon="-15.505341">
        <ele>1215.13</ele>
        <time>2018-03-17T12:03:29Z</time>
      </trkpt>
      <trkpt lat="27.942309" lon="-15.505305">
        <ele>1214.24</ele>
        <time>2018-03-17T12:03:34Z</time>
      </trkpt>
      <trkpt lat="27.942269" lon="-15.505270">
        <ele>1213.58</ele>
        <time>2018-03-17T12:03:43Z</time>
      </trkpt>
      <trkpt lat="27.942237" lon="-15.505229">
        <ele>1213.01</ele>
        <time>2018-03-17T12:03:49Z</time>
      </trkpt>
      <trkpt lat="27.942209" lon="-15.505186">
        <ele>1212.31</ele>
        <time>2018-03-17T12:04:18Z</time>
      </trkpt>
      <trkpt lat="27.942203" lon="-15.505126">
        <ele>1211.28</ele>
        <time>2018-03-17T12:04:28Z</time>
      </trkpt>
      <trkpt lat="27.942249" lon="-15.505099">
        <ele>1210.52</ele>
        <time>2018-03-17T12:04:37Z</time>
      </trkpt>
      <trkpt lat="27.942280" lon="-15.505056">
        <ele>1209.47</ele>
        <time>2018-03-17T12:04:42Z</time>
      </trkpt>
      <trkpt lat="27.942280" lon="-15.505000">
        <ele>1208.41</ele>
        <time>2018-03-17T12:04:46Z</time>
      </trkpt>
      <trkpt lat="27.942297" lon="-15.504947">
        <ele>1207.43</ele>
        <time>2018-03-17T12:04:50Z</time>
      </trkpt>
      <trkpt lat="27.942315" lon="-15.504894">
        <ele>1206.56</ele>
        <time>2018-03-17T12:04:54Z</time>
      </trkpt>
      <trkpt lat="27.942334" lon="-15.504840">
        <ele>1205.62</ele>
        <time>2018-03-17T12:04:58Z</time>
      </trkpt>
      <trkpt lat="27.942359" lon="-15.504786">
        <ele>1204.87</ele>
        <time>2018-03-17T12:05:02Z</time>
      </trkpt>
      <trkpt lat="27.942388" lon="-15.504729">
        <ele>1204.11</ele>
        <time>2018-03-17T12:05:06Z</time>
      </trkpt>
      <trkpt lat="27.942425" lon="-15.504681">
        <ele>1203.64</ele>
        <time>2018-03-17T12:05:10Z</time>
      </trkpt>
      <trkpt lat="27.942458" lon="-15.504634">
        <ele>1203.21</ele>
        <time>2018-03-17T12:05:14Z</time>
      </trkpt>
      <trkpt lat="27.942483" lon="-15.504576">
        <ele>1202.91</ele>
        <time>2018-03-17T12:05:18Z</time>
      </trkpt>
      <trkpt lat="27.942495" lon="-15.504511">
        <ele>1202.46</ele>
        <time>2018-03-17T12:05:22Z</time>
      </trkpt>
      <trkpt lat="27.942499" lon="-15.504458">
        <ele>1202.18</ele>
        <time>2018-03-17T12:05:25Z</time>
      </trkpt>
      <trkpt lat="27.942499" lon="-15.504401">
        <ele>1201.45</ele>
        <time>2018-03-17T12:05:28Z</time>
      </trkpt>
      <trkpt lat="27.942491" lon="-15.504346">
        <ele>1200.57</ele>
        <time>2018-03-17T12:05:31Z</time>
      </trkpt>
      <trkpt lat="27.942478" lon="-15.504281">
        <ele>1199.57</ele>
        <time>2018-03-17T12:05:35Z</time>
      </trkpt>
      <trkpt lat="27.942478" lon="-15.504218">
        <ele>1198.65</ele>
        <time>2018-03-17T12:05:39Z</time>
      </trkpt>
      <trkpt lat="27.942486" lon="-15.504168">
        <ele>1197.95</ele>
        <time>2018-03-17T12:05:42Z</time>
      </trkpt>
      <trkpt lat="27.942496" lon="-15.504115">
        <ele>1197.29</ele>
        <time>2018-03-17T12:05:45Z</time>
      </trkpt>
      <trkpt lat="27.942509" lon="-15.504059">
        <ele>1196.59</ele>
        <time>2018-03-17T12:05:48Z</time>
      </trkpt>
      <trkpt lat="27.942504" lon="-15.503992">
        <ele>1195.56</ele>
        <time>2018-03-17T12:05:52Z</time>
      </trkpt>
      <trkpt lat="27.942490" lon="-15.503942">
        <ele>1194.72</ele>
        <time>2018-03-17T12:05:55Z</time>
      </trkpt>
      <trkpt lat="27.942473" lon="-15.503893">
        <ele>1194.01</ele>
        <time>2018-03-17T12:05:58Z</time>
      </trkpt>
      <trkpt lat="27.942452" lon="-15.503832">
        <ele>1193.26</ele>
        <time>2018-03-17T12:06:02Z</time>
      </trkpt>
      <trkpt lat="27.942431" lon="-15.503779">
        <ele>1192.75</ele>
        <time>2018-03-17T12:06:06Z</time>
      </trkpt>
      <trkpt lat="27.942397" lon="-15.503725">
        <ele>1192.19</ele>
        <time>2018-03-17T12:06:10Z</time>
      </trkpt>
      <trkpt lat="27.942357" lon="-15.503679">
        <ele>1191.66</ele>
        <time>2018-03-17T12:06:14Z</time>
      </trkpt>
      <trkpt lat="27.942323" lon="-15.503633">
        <ele>1191.26</ele>
        <time>2018-03-17T12:06:18Z</time>
      </trkpt>
      <trkpt lat="27.942323" lon="-15.503572">
        <ele>1190.63</ele>
        <time>2018-03-17T12:06:23Z</time>
      </trkpt>
      <trkpt lat="27.942346" lon="-15.503521">
        <ele>1190.03</ele>
        <time>2018-03-17T12:06:47Z</time>
      </trkpt>
      <trkpt lat="27.942370" lon="-15.503476">
        <ele>1189.54</ele>
        <time>2018-03-17T12:12:52Z</time>
      </trkpt>
      <trkpt lat="27.942382" lon="-15.503426">
        <ele>1189.06</ele>
        <time>2018-03-17T12:13:16Z</time>
      </trkpt>
      <trkpt lat="27.942375" lon="-15.503366">
        <ele>1188.41</ele>
        <time>2018-03-17T12:13:23Z</time>
      </trkpt>
      <trkpt lat="27.942360" lon="-15.503304">
        <ele>1187.72</ele>
        <time>2018-03-17T12:13:28Z</time>
      </trkpt>
      <trkpt lat="27.942341" lon="-15.503249">
        <ele>1187.21</ele>
        <time>2018-03-17T12:13:33Z</time>
      </trkpt>
      <trkpt lat="27.942310" lon="-15.503202">
        <ele>1186.77</ele>
        <time>2018-03-17T12:13:39Z</time>
      </trkpt>
      <trkpt lat="27.942280" lon="-15.503152">
        <ele>1186.29</ele>
        <time>2018-03-17T12:13:44Z</time>
      </trkpt>
      <trkpt lat="27.942264" lon="-15.503103">
        <ele>1185.62</ele>
        <time>2018-03-17T12:13:49Z</time>
      </trkpt>
      <trkpt lat="27.942250" lon="-15.503047">
        <ele>1185.12</ele>
        <time>2018-03-17T12:13:57Z</time>
      </trkpt>
      <trkpt lat="27.942231" lon="-15.502991">
        <ele>1185.55</ele>
        <time>2018-03-17T12:14:04Z</time>
      </trkpt>
      <trkpt lat="27.942221" lon="-15.502933">
        <ele>1185.97</ele>
        <time>2018-03-17T12:14:10Z</time>
      </trkpt>
      <trkpt lat="27.942210" lon="-15.502876">
        <ele>1186.02</ele>
        <time>2018-03-17T12:14:15Z</time>
      </trkpt>
      <trkpt lat="27.942197" lon="-15.502819">
        <ele>1186.23</ele>
        <time>2018-03-17T12:14:20Z</time>
      </trkpt>
      <trkpt lat="27.942186" lon="-15.502763">
        <ele>1186.13</ele>
        <time>2018-03-17T12:14:25Z</time>
      </trkpt>
      <trkpt lat="27.942178" lon="-15.502703">
        <ele>1185.69</ele>
        <time>2018-03-17T12:14:31Z</time>
      </trkpt>
      <trkpt lat="27.942175" lon="-15.502640">
        <ele>1185.22</ele>
        <time>2018-03-17T12:14:36Z</time>
      </trkpt>
      <trkpt lat="27.942166" lon="-15.502586">
        <ele>1184.71</ele>
        <time>2018-03-17T12:14:41Z</time>
      </trkpt>
      <trkpt lat="27.942161" lon="-15.502531">
        <ele>1184.32</ele>
        <time>2018-03-17T12:14:45Z</time>
      </trkpt>
      <trkpt lat="27.942142" lon="-15.502475">
        <ele>1183.66</ele>
        <time>2018-03-17T12:14:50Z</time>
      </trkpt>
      <trkpt lat="27.942129" lon="-15.502424">
        <ele>1182.94</ele>
        <time>2018-03-17T12:15:00Z</time>
      </trkpt>
      <trkpt lat="27.942108" lon="-15.502373">
        <ele>1182.22</ele>
        <time>2018-03-17T12:15:08Z</time>
      </trkpt>
      <trkpt lat="27.942109" lon="-15.502315">
        <ele>1181.68</ele>
        <time>2018-03-17T12:15:16Z</time>
      </trkpt>
      <trkpt lat="27.942114" lon="-15.502256">
        <ele>1181.20</ele>
        <time>2018-03-17T12:15:21Z</time>
      </trkpt>
      <trkpt lat="27.942105" lon="-15.502193">
        <ele>1180.54</ele>
        <time>2018-03-17T12:15:26Z</time>
      </trkpt>
      <trkpt lat="27.942098" lon="-15.502139">
        <ele>1179.95</ele>
        <time>2018-03-17T12:15:31Z</time>
      </trkpt>
      <trkpt lat="27.942085" lon="-15.502086">
        <ele>1179.33</ele>
        <time>2018-03-17T12:15:36Z</time>
      </trkpt>
      <trkpt lat="27.942073" lon="-15.502026">
        <ele>1178.62</ele>
        <time>2018-03-17T12:15:42Z</time>
      </trkpt>
      <trkpt lat="27.942090" lon="-15.501971">
        <ele>1178.32</ele>
        <time>2018-03-17T12:15:47Z</time>
      </trkpt>
      <trkpt lat="27.942095" lon="-15.501916">
        <ele>1177.61</ele>
        <time>2018-03-17T12:15:52Z</time>
      </trkpt>
      <trkpt lat="27.942088" lon="-15.501860">
        <ele>1176.56</ele>
        <time>2018-03-17T12:15:57Z</time>
      </trkpt>
      <trkpt lat="27.942083" lon="-15.501808">
        <ele>1175.55</ele>
        <time>2018-03-17T12:16:02Z</time>
      </trkpt>
      <trkpt lat="27.942087" lon="-15.501754">
        <ele>1174.64</ele>
        <time>2018-03-17T12:16:07Z</time>
      </trkpt>
      <trkpt lat="27.942086" lon="-15.501695">
        <ele>1173.55</ele>
        <time>2018-03-17T12:16:12Z</time>
      </trkpt>
      <trkpt lat="27.942081" lon="-15.501637">
        <ele>1171.81</ele>
        <time>2018-03-17T12:16:16Z</time>
      </trkpt>
      <trkpt lat="27.942077" lon="-15.501581">
        <ele>1169.42</ele>
        <time>2018-03-17T12:16:20Z</time>
      </trkpt>
      <trkpt lat="27.942063" lon="-15.501518">
        <ele>1166.57</ele>
        <time>2018-03-17T12:16:25Z</time>
      </trkpt>
      <trkpt lat="27.942045" lon="-15.501458">
        <ele>1163.69</ele>
        <time>2018-03-17T12:16:30Z</time>
      </trkpt>
      <trkpt lat="27.942058" lon="-15.501407">
        <ele>1161.66</ele>
        <time>2018-03-17T12:16:34Z</time>
      </trkpt>
      <trkpt lat="27.942067" lon="-15.501354">
        <ele>1160.46</ele>
        <time>2018-03-17T12:16:38Z</time>
      </trkpt>
      <trkpt lat="27.942085" lon="-15.501301">
        <ele>1160.01</ele>
        <time>2018-03-17T12:16:43Z</time>
      </trkpt>
      <trkpt lat="27.942099" lon="-15.501247">
        <ele>1159.51</ele>
        <time>2018-03-17T12:16:48Z</time>
      </trkpt>
      <trkpt lat="27.942124" lon="-15.501199">
        <ele>1159.60</ele>
        <time>2018-03-17T12:16:53Z</time>
      </trkpt>
      <trkpt lat="27.942145" lon="-15.501148">
        <ele>1159.59</ele>
        <time>2018-03-17T12:16:58Z</time>
      </trkpt>
      <trkpt lat="27.942150" lon="-15.501095">
        <ele>1158.97</ele>
        <time>2018-03-17T12:17:04Z</time>
      </trkpt>
      <trkpt lat="27.942186" lon="-15.501055">
        <ele>1159.95</ele>
        <time>2018-03-17T12:17:11Z</time>
      </trkpt>
      <trkpt lat="27.942200" lon="-15.501000">
        <ele>1160.08</ele>
        <time>2018-03-17T12:17:19Z</time>
      </trkpt>
      <trkpt lat="27.942203" lon="-15.500949">
        <ele>1159.76</ele>
        <time>2018-03-17T12:17:25Z</time>
      </trkpt>
      <trkpt lat="27.942235" lon="-15.500907">
        <ele>1160.59</ele>
        <time>2018-03-17T12:17:30Z</time>
      </trkpt>
      <trkpt lat="27.942279" lon="-15.500885">
        <ele>1160.28</ele>
        <time>2018-03-17T12:17:35Z</time>
      </trkpt>
      <trkpt lat="27.942326" lon="-15.500887">
        <ele>1160.15</ele>
        <time>2018-03-17T12:17:40Z</time>
      </trkpt>
      <trkpt lat="27.942386" lon="-15.500901">
        <ele>1159.95</ele>
        <time>2018-03-17T12:17:54Z</time>
      </trkpt>
      <trkpt lat="27.942417" lon="-15.500854">
        <ele>1159.91</ele>
        <time>2018-03-17T12:18:13Z</time>
      </trkpt>
      <trkpt lat="27.942449" lon="-15.500818">
        <ele>1159.71</ele>
        <time>2018-03-17T12:18:19Z</time>
      </trkpt>
      <trkpt lat="27.942477" lon="-15.500777">
        <ele>1159.00</ele>
        <time>2018-03-17T12:18:25Z</time>
      </trkpt>
      <trkpt lat="27.942504" lon="-15.500734">
        <ele>1158.19</ele>
        <time>2018-03-17T12:18:31Z</time>
      </trkpt>
      <trkpt lat="27.942509" lon="-15.500679">
        <ele>1156.99</ele>
        <time>2018-03-17T12:18:39Z</time>
      </trkpt>
      <trkpt lat="27.942537" lon="-15.500632">
        <ele>1155.04</ele>
        <time>2018-03-17T12:18:47Z</time>
      </trkpt>
      <trkpt lat="27.942540" lon="-15.500578">
        <ele>1154.02</ele>
        <time>2018-03-17T12:18:53Z</time>
      </trkpt>
      <trkpt lat="27.942578" lon="-15.500545">
        <ele>1152.13</ele>
        <time>2018-03-17T12:19:15Z</time>
      </trkpt>
      <trkpt lat="27.942598" lon="-15.500494">
        <ele>1150.78</ele>
        <time>2018-03-17T12:19:21Z</time>
      </trkpt>
      <trkpt lat="27.942612" lon="-15.500440">
        <ele>1149.65</ele>
        <time>2018-03-17T12:19:26Z</time>
      </trkpt>
      <trkpt lat="27.942639" lon="-15.500393">
        <ele>1148.28</ele>
        <time>2018-03-17T12:19:41Z</time>
      </trkpt>
      <trkpt lat="27.942641" lon="-15.500338">
        <ele>1147.69</ele>
        <time>2018-03-17T12:19:47Z</time>
      </trkpt>
      <trkpt lat="27.942644" lon="-15.500285">
        <ele>1146.92</ele>
        <time>2018-03-17T12:20:56Z</time>
      </trkpt>
      <trkpt lat="27.942630" lon="-15.500234">
        <ele>1146.31</ele>
        <time>2018-03-17T12:20:59Z</time>
      </trkpt>
      <trkpt lat="27.942606" lon="-15.500174">
        <ele>1145.46</ele>
        <time>2018-03-17T12:21:03Z</time>
      </trkpt>
      <trkpt lat="27.942603" lon="-15.500115">
        <ele>1143.97</ele>
        <time>2018-03-17T12:21:07Z</time>
      </trkpt>
      <trkpt lat="27.942597" lon="-15.500052">
        <ele>1142.40</ele>
        <time>2018-03-17T12:21:48Z</time>
      </trkpt>
      <trkpt lat="27.942626" lon="-15.500012">
        <ele>1141.35</ele>
        <time>2018-03-17T12:21:56Z</time>
      </trkpt>
      <trkpt lat="27.942671" lon="-15.500003">
        <ele>1141.16</ele>
        <time>2018-03-17T12:22:28Z</time>
      </trkpt>
      <trkpt lat="27.942660" lon="-15.499948">
        <ele>1139.59</ele>
        <time>2018-03-17T12:22:36Z</time>
      </trkpt>
      <trkpt lat="27.942666" lon="-15.499897">
        <ele>1138.04</ele>
        <time>2018-03-17T12:22:45Z</time>
      </trkpt>
      <trkpt lat="27.942649" lon="-15.499849">
        <ele>1136.56</ele>
        <time>2018-03-17T12:22:50Z</time>
      </trkpt>
      <trkpt lat="27.942652" lon="-15.499794">
        <ele>1134.98</ele>
        <time>2018-03-17T12:22:55Z</time>
      </trkpt>
      <trkpt lat="27.942638" lon="-15.499745">
        <ele>1133.21</ele>
        <time>2018-03-17T12:22:59Z</time>
      </trkpt>
      <trkpt lat="27.942631" lon="-15.499685">
        <ele>1131.52</ele>
        <time>2018-03-17T12:23:03Z</time>
      </trkpt>
      <trkpt lat="27.942632" lon="-15.499634">
        <ele>1130.31</ele>
        <time>2018-03-17T12:23:08Z</time>
      </trkpt>
      <trkpt lat="27.942638" lon="-15.499580">
        <ele>1129.21</ele>
        <time>2018-03-17T12:23:31Z</time>
      </trkpt>
      <trkpt lat="27.942661" lon="-15.499532">
        <ele>1128.52</ele>
        <time>2018-03-17T12:23:36Z</time>
      </trkpt>
      <trkpt lat="27.942693" lon="-15.499483">
        <ele>1128.05</ele>
        <time>2018-03-17T12:23:42Z</time>
      </trkpt>
      <trkpt lat="27.942732" lon="-15.499445">
        <ele>1128.03</ele>
        <time>2018-03-17T12:23:48Z</time>
      </trkpt>
      <trkpt lat="27.942754" lon="-15.499390">
        <ele>1127.55</ele>
        <time>2018-03-17T12:23:54Z</time>
      </trkpt>
      <trkpt lat="27.942774" lon="-15.499342">
        <ele>1127.13</ele>
        <time>2018-03-17T12:24:01Z</time>
      </trkpt>
      <trkpt lat="27.942795" lon="-15.499288">
        <ele>1125.97</ele>
        <time>2018-03-17T12:24:08Z</time>
      </trkpt>
      <trkpt lat="27.942797" lon="-15.499235">
        <ele>1124.95</ele>
        <time>2018-03-17T12:24:13Z</time>
      </trkpt>
      <trkpt lat="27.942797" lon="-15.499182">
        <ele>1124.10</ele>
        <time>2018-03-17T12:24:17Z</time>
      </trkpt>
      <trkpt lat="27.942781" lon="-15.499124">
        <ele>1124.05</ele>
        <time>2018-03-17T12:24:22Z</time>
      </trkpt>
      <trkpt lat="27.942751" lon="-15.499065">
        <ele>1123.12</ele>
        <time>2018-03-17T12:25:50Z</time>
      </trkpt>
      <trkpt lat="27.942731" lon="-15.499078">
        <ele>1122.51</ele>
        <time>2018-03-17T12:30:00Z</time>
      </trkpt>
      <trkpt lat="27.942721" lon="-15.499013">
        <ele>1122.05</ele>
        <time>2018-03-17T12:30:24Z</time>
      </trkpt>
      <trkpt lat="27.942738" lon="-15.498951">
        <ele>1122.52</ele>
        <time>2018-03-17T12:30:28Z</time>
      </trkpt>
      <trkpt lat="27.942751" lon="-15.498898">
        <ele>1122.95</ele>
        <time>2018-03-17T12:30:32Z</time>
      </trkpt>
      <trkpt lat="27.942771" lon="-15.498852">
        <ele>1123.94</ele>
        <time>2018-03-17T12:30:37Z</time>
      </trkpt>
      <trkpt lat="27.942779" lon="-15.498800">
        <ele>1124.32</ele>
        <time>2018-03-17T12:30:46Z</time>
      </trkpt>
      <trkpt lat="27.942813" lon="-15.498759">
        <ele>1124.23</ele>
        <time>2018-03-17T12:30:50Z</time>
      </trkpt>
      <trkpt lat="27.942837" lon="-15.498715">
        <ele>1124.35</ele>
        <time>2018-03-17T12:30:56Z</time>
      </trkpt>
      <trkpt lat="27.942853" lon="-15.498657">
        <ele>1124.54</ele>
        <time>2018-03-17T12:31:02Z</time>
      </trkpt>
      <trkpt lat="27.942864" lon="-15.498598">
        <ele>1124.52</ele>
        <time>2018-03-17T12:31:07Z</time>
      </trkpt>
      <trkpt lat="27.942896" lon="-15.498556">
        <ele>1123.74</ele>
        <time>2018-03-17T12:31:12Z</time>
      </trkpt>
      <trkpt lat="27.942927" lon="-15.498515">
        <ele>1122.91</ele>
        <time>2018-03-17T12:31:16Z</time>
      </trkpt>
      <trkpt lat="27.942954" lon="-15.498466">
        <ele>1122.11</ele>
        <time>2018-03-17T12:31:21Z</time>
      </trkpt>
      <trkpt lat="27.942950" lon="-15.498406">
        <ele>1121.14</ele>
        <time>2018-03-17T12:31:26Z</time>
      </trkpt>
      <trkpt lat="27.942908" lon="-15.498375">
        <ele>1120.73</ele>
        <time>2018-03-17T12:31:31Z</time>
      </trkpt>
      <trkpt lat="27.942861" lon="-15.498385">
        <ele>1120.93</ele>
        <time>2018-03-17T12:31:41Z</time>
      </trkpt>
      <trkpt lat="27.942813" lon="-15.498369">
        <ele>1120.63</ele>
        <time>2018-03-17T12:31:52Z</time>
      </trkpt>
      <trkpt lat="27.942759" lon="-15.498370">
        <ele>1120.07</ele>
        <time>2018-03-17T12:31:59Z</time>
      </trkpt>
      <trkpt lat="27.942709" lon="-15.498382">
        <ele>1118.50</ele>
        <time>2018-03-17T12:32:05Z</time>
      </trkpt>
      <trkpt lat="27.942662" lon="-15.498396">
        <ele>1116.97</ele>
        <time>2018-03-17T12:32:14Z</time>
      </trkpt>
      <trkpt lat="27.942656" lon="-15.498340">
        <ele>1115.75</ele>
        <time>2018-03-17T12:32:28Z</time>
      </trkpt>
      <trkpt lat="27.942668" lon="-15.498286">
        <ele>1114.58</ele>
        <time>2018-03-17T12:32:35Z</time>
      </trkpt>
      <trkpt lat="27.942704" lon="-15.498249">
        <ele>1114.54</ele>
        <time>2018-03-17T12:32:41Z</time>
      </trkpt>
      <trkpt lat="27.942743" lon="-15.498209">
        <ele>1114.42</ele>
        <time>2018-03-17T12:32:46Z</time>
      </trkpt>
      <trkpt lat="27.942781" lon="-15.498180">
        <ele>1114.51</ele>
        <time>2018-03-17T12:32:51Z</time>
      </trkpt>
      <trkpt lat="27.942811" lon="-15.498142">
        <ele>1113.46</ele>
        <time>2018-03-17T12:32:57Z</time>
      </trkpt>
      <trkpt lat="27.942815" lon="-15.498089">
        <ele>1111.67</ele>
        <time>2018-03-17T12:33:04Z</time>
      </trkpt>
      <trkpt lat="27.942765" lon="-15.498065">
        <ele>1110.05</ele>
        <time>2018-03-17T12:33:11Z</time>
      </trkpt>
      <trkpt lat="27.942714" lon="-15.498069">
        <ele>1108.88</ele>
        <time>2018-03-17T12:33:18Z</time>
      </trkpt>
      <trkpt lat="27.942663" lon="-15.498085">
        <ele>1108.08</ele>
        <time>2018-03-17T12:33:24Z</time>
      </trkpt>
      <trkpt lat="27.942636" lon="-15.498129">
        <ele>1108.72</ele>
        <time>2018-03-17T12:33:32Z</time>
      </trkpt>
      <trkpt lat="27.942591" lon="-15.498156">
        <ele>1108.24</ele>
        <time>2018-03-17T12:33:38Z</time>
      </trkpt>
      <trkpt lat="27.942552" lon="-15.498189">
        <ele>1107.93</ele>
        <time>2018-03-17T12:33:44Z</time>
      </trkpt>
      <trkpt lat="27.942505" lon="-15.498197">
        <ele>1106.73</ele>
        <time>2018-03-17T12:33:49Z</time>
      </trkpt>
      <trkpt lat="27.942457" lon="-15.498205">
        <ele>1104.79</ele>
        <time>2018-03-17T12:33:57Z</time>
      </trkpt>
      <trkpt lat="27.942409" lon="-15.498222">
        <ele>1102.81</ele>
        <time>2018-03-17T12:34:07Z</time>
      </trkpt>
      <trkpt lat="27.942364" lon="-15.498199">
        <ele>1100.21</ele>
        <time>2018-03-17T12:34:12Z</time>
      </trkpt>
      <trkpt lat="27.942323" lon="-15.498161">
        <ele>1097.72</ele>
        <time>2018-03-17T12:34:16Z</time>
      </trkpt>
      <trkpt lat="27.942289" lon="-15.498126">
        <ele>1095.68</ele>
        <time>2018-03-17T12:34:21Z</time>
      </trkpt>
      <trkpt lat="27.942238" lon="-15.498102">
        <ele>1093.21</ele>
        <time>2018-03-17T12:34:41Z</time>
      </trkpt>
      <trkpt lat="27.942202" lon="-15.498063">
        <ele>1090.82</ele>
        <time>2018-03-17T12:34:56Z</time>
      </trkpt>
      <trkpt lat="27.942167" lon="-15.498028">
        <ele>1088.45</ele>
        <time>2018-03-17T12:35:02Z</time>
      </trkpt>
      <trkpt lat="27.942143" lon="-15.497974">
        <ele>1086.53</ele>
        <time>2018-03-17T12:35:06Z</time>
      </trkpt>
      <trkpt lat="27.942146" lon="-15.497918">
        <ele>1086.39</ele>
        <time>2018-03-17T12:35:11Z</time>
      </trkpt>
      <trkpt lat="27.942149" lon="-15.497862">
        <ele>1086.09</ele>
        <time>2018-03-17T12:35:17Z</time>
      </trkpt>
      <trkpt lat="27.942144" lon="-15.497811">
        <ele>1085.35</ele>
        <time>2018-03-17T12:35:22Z</time>
      </trkpt>
      <trkpt lat="27.942143" lon="-15.497752">
        <ele>1084.73</ele>
        <time>2018-03-17T12:35:27Z</time>
      </trkpt>
      <trkpt lat="27.942117" lon="-15.497704">
        <ele>1082.82</ele>
        <time>2018-03-17T12:35:32Z</time>
      </trkpt>
      <trkpt lat="27.942091" lon="-15.497658">
        <ele>1081.11</ele>
        <time>2018-03-17T12:35:38Z</time>
      </trkpt>
      <trkpt lat="27.942071" lon="-15.497603">
        <ele>1079.54</ele>
        <time>2018-03-17T12:35:46Z</time>
      </trkpt>
      <trkpt lat="27.942079" lon="-15.497543">
        <ele>1079.39</ele>
        <time>2018-03-17T12:35:51Z</time>
      </trkpt>
      <trkpt lat="27.942077" lon="-15.497492">
        <ele>1078.74</ele>
        <time>2018-03-17T12:35:56Z</time>
      </trkpt>
      <trkpt lat="27.942057" lon="-15.497440">
        <ele>1077.54</ele>
        <time>2018-03-17T12:36:03Z</time>
      </trkpt>
      <trkpt lat="27.942063" lon="-15.497379">
        <ele>1077.46</ele>
        <time>2018-03-17T12:36:08Z</time>
      </trkpt>
      <trkpt lat="27.942047" lon="-15.497329">
        <ele>1076.60</ele>
        <time>2018-03-17T12:36:12Z</time>
      </trkpt>
      <trkpt lat="27.942026" lon="-15.497282">
        <ele>1075.67</ele>
        <time>2018-03-17T12:36:18Z</time>
      </trkpt>
      <trkpt lat="27.942012" lon="-15.497231">
        <ele>1075.04</ele>
        <time>2018-03-17T12:36:24Z</time>
      </trkpt>
      <trkpt lat="27.941995" lon="-15.497176">
        <ele>1075.67</ele>
        <time>2018-03-17T12:36:30Z</time>
      </trkpt>
      <trkpt lat="27.941973" lon="-15.497128">
        <ele>1076.31</ele>
        <time>2018-03-17T12:36:35Z</time>
      </trkpt>
      <trkpt lat="27.941962" lon="-15.497077">
        <ele>1077.51</ele>
        <time>2018-03-17T12:36:40Z</time>
      </trkpt>
      <trkpt lat="27.941932" lon="-15.497023">
        <ele>1078.01</ele>
        <time>2018-03-17T12:36:45Z</time>
      </trkpt>
      <trkpt lat="27.941922" lon="-15.496970">
        <ele>1078.86</ele>
        <time>2018-03-17T12:36:49Z</time>
      </trkpt>
      <trkpt lat="27.941912" lon="-15.496916">
        <ele>1079.82</ele>
        <time>2018-03-17T12:36:53Z</time>
      </trkpt>
      <trkpt lat="27.941906" lon="-15.496862">
        <ele>1081.06</ele>
        <time>2018-03-17T12:36:57Z</time>
      </trkpt>
      <trkpt lat="27.941899" lon="-15.496809">
        <ele>1082.10</ele>
        <time>2018-03-17T12:37:02Z</time>
      </trkpt>
      <trkpt lat="27.941923" lon="-15.496763">
        <ele>1085.30</ele>
        <time>2018-03-17T12:37:08Z</time>
      </trkpt>
      <trkpt lat="27.941913" lon="-15.496709">
        <ele>1086.18</ele>
        <time>2018-03-17T12:37:13Z</time>
      </trkpt>
      <trkpt lat="27.941880" lon="-15.496673">
        <ele>1084.52</ele>
        <time>2018-03-17T12:37:18Z</time>
      </trkpt>
      <trkpt lat="27.941857" lon="-15.496623">
        <ele>1082.88</ele>
        <time>2018-03-17T12:37:23Z</time>
      </trkpt>
      <trkpt lat="27.941835" lon="-15.496574">
        <ele>1081.39</ele>
        <time>2018-03-17T12:37:28Z</time>
      </trkpt>
      <trkpt lat="27.941810" lon="-15.496523">
        <ele>1080.17</ele>
        <time>2018-03-17T12:37:35Z</time>
      </trkpt>
      <trkpt lat="27.941793" lon="-15.496464">
        <ele>1079.72</ele>
        <time>2018-03-17T12:37:41Z</time>
      </trkpt>
      <trkpt lat="27.941780" lon="-15.496413">
        <ele>1079.81</ele>
        <time>2018-03-17T12:37:45Z</time>
      </trkpt>
      <trkpt lat="27.941762" lon="-15.496365">
        <ele>1080.38</ele>
        <time>2018-03-17T12:37:50Z</time>
      </trkpt>
      <trkpt lat="27.941743" lon="-15.496318">
        <ele>1081.71</ele>
        <time>2018-03-17T12:37:57Z</time>
      </trkpt>
      <trkpt lat="27.941721" lon="-15.496264">
        <ele>1084.03</ele>
        <time>2018-03-17T12:38:04Z</time>
      </trkpt>
      <trkpt lat="27.941696" lon="-15.496220">
        <ele>1086.58</ele>
        <time>2018-03-17T12:38:09Z</time>
      </trkpt>
      <trkpt lat="27.941665" lon="-15.496174">
        <ele>1089.93</ele>
        <time>2018-03-17T12:38:14Z</time>
      </trkpt>
      <trkpt lat="27.941650" lon="-15.496122">
        <ele>1092.74</ele>
        <time>2018-03-17T12:38:19Z</time>
      </trkpt>
      <trkpt lat="27.941633" lon="-15.496072">
        <ele>1093.00</ele>
        <time>2018-03-17T12:40:15Z</time>
      </trkpt>
      <trkpt lat="27.941622" lon="-15.496020">
        <ele>1092.72</ele>
        <time>2018-03-17T12:40:22Z</time>
      </trkpt>
      <trkpt lat="27.941607" lon="-15.495972">
        <ele>1092.42</ele>
        <time>2018-03-17T12:40:28Z</time>
      </trkpt>
      <trkpt lat="27.941594" lon="-15.495916">
        <ele>1092.34</ele>
        <time>2018-03-17T12:40:35Z</time>
      </trkpt>
      <trkpt lat="27.941583" lon="-15.495866">
        <ele>1092.31</ele>
        <time>2018-03-17T12:40:39Z</time>
      </trkpt>
      <trkpt lat="27.941572" lon="-15.495805">
        <ele>1092.21</ele>
        <time>2018-03-17T12:40:44Z</time>
      </trkpt>
      <trkpt lat="27.941555" lon="-15.495747">
        <ele>1091.86</ele>
        <time>2018-03-17T12:40:49Z</time>
      </trkpt>
      <trkpt lat="27.941549" lon="-15.495692">
        <ele>1091.69</ele>
        <time>2018-03-17T12:40:54Z</time>
      </trkpt>
      <trkpt lat="27.941547" lon="-15.495636">
        <ele>1091.41</ele>
        <time>2018-03-17T12:40:59Z</time>
      </trkpt>
      <trkpt lat="27.941527" lon="-15.495587">
        <ele>1091.02</ele>
        <time>2018-03-17T12:41:05Z</time>
      </trkpt>
      <trkpt lat="27.941514" lon="-15.495533">
        <ele>1090.56</ele>
        <time>2018-03-17T12:41:10Z</time>
      </trkpt>
      <trkpt lat="27.941498" lon="-15.495484">
        <ele>1089.67</ele>
        <time>2018-03-17T12:41:18Z</time>
      </trkpt>
      <trkpt lat="27.941494" lon="-15.495429">
        <ele>1088.82</ele>
        <time>2018-03-17T12:41:23Z</time>
      </trkpt>
      <trkpt lat="27.941492" lon="-15.495376">
        <ele>1088.06</ele>
        <time>2018-03-17T12:41:27Z</time>
      </trkpt>
      <trkpt lat="27.941496" lon="-15.495316">
        <ele>1087.47</ele>
        <time>2018-03-17T12:41:32Z</time>
      </trkpt>
      <trkpt lat="27.941517" lon="-15.495260">
        <ele>1087.28</ele>
        <time>2018-03-17T12:41:37Z</time>
      </trkpt>
      <trkpt lat="27.941519" lon="-15.495207">
        <ele>1086.02</ele>
        <time>2018-03-17T12:41:45Z</time>
      </trkpt>
      <trkpt lat="27.941525" lon="-15.495155">
        <ele>1085.01</ele>
        <time>2018-03-17T12:41:50Z</time>
      </trkpt>
      <trkpt lat="27.941535" lon="-15.495101">
        <ele>1084.23</ele>
        <time>2018-03-17T12:41:55Z</time>
      </trkpt>
      <trkpt lat="27.941531" lon="-15.495046">
        <ele>1082.79</ele>
        <time>2018-03-17T12:42:01Z</time>
      </trkpt>
      <trkpt lat="27.941532" lon="-15.494992">
        <ele>1081.56</ele>
        <time>2018-03-17T12:42:07Z</time>
      </trkpt>
      <trkpt lat="27.941521" lon="-15.494942">
        <ele>1079.81</ele>
        <time>2018-03-17T12:42:12Z</time>
      </trkpt>
      <trkpt lat="27.941506" lon="-15.494890">
        <ele>1077.82</ele>
        <time>2018-03-17T12:42:21Z</time>
      </trkpt>
      <trkpt lat="27.941490" lon="-15.494837">
        <ele>1075.71</ele>
        <time>2018-03-17T12:42:31Z</time>
      </trkpt>
      <trkpt lat="27.941490" lon="-15.494779">
        <ele>1074.28</ele>
        <time>2018-03-17T12:42:41Z</time>
      </trkpt>
      <trkpt lat="27.941487" lon="-15.494728">
        <ele>1072.84</ele>
        <time>2018-03-17T12:43:39Z</time>
      </trkpt>
      <trkpt lat="27.941475" lon="-15.494672">
        <ele>1071.86</ele>
        <time>2018-03-17T12:43:45Z</time>
      </trkpt>
      <trkpt lat="27.941466" lon="-15.494619">
        <ele>1071.24</ele>
        <time>2018-03-17T12:43:51Z</time>
      </trkpt>
      <trkpt lat="27.941466" lon="-15.494554">
        <ele>1071.12</ele>
        <time>2018-03-17T12:44:00Z</time>
      </trkpt>
      <trkpt lat="27.941468" lon="-15.494498">
        <ele>1071.11</ele>
        <time>2018-03-17T12:44:07Z</time>
      </trkpt>
      <trkpt lat="27.941465" lon="-15.494446">
        <ele>1070.84</ele>
        <time>2018-03-17T12:44:12Z</time>
      </trkpt>
      <trkpt lat="27.941440" lon="-15.494395">
        <ele>1070.30</ele>
        <time>2018-03-17T12:44:31Z</time>
      </trkpt>
      <trkpt lat="27.941405" lon="-15.494354">
        <ele>1069.38</ele>
        <time>2018-03-17T12:44:40Z</time>
      </trkpt>
      <trkpt lat="27.941364" lon="-15.494307">
        <ele>1068.47</ele>
        <time>2018-03-17T12:44:53Z</time>
      </trkpt>
      <trkpt lat="27.941345" lon="-15.494257">
        <ele>1068.55</ele>
        <time>2018-03-17T12:44:58Z</time>
      </trkpt>
      <trkpt lat="27.941320" lon="-15.494212">
        <ele>1068.32</ele>
        <time>2018-03-17T12:45:02Z</time>
      </trkpt>
      <trkpt lat="27.941291" lon="-15.494165">
        <ele>1068.24</ele>
        <time>2018-03-17T12:45:07Z</time>
      </trkpt>
      <trkpt lat="27.941263" lon="-15.494115">
        <ele>1068.34</ele>
        <time>2018-03-17T12:45:12Z</time>
      </trkpt>
      <trkpt lat="27.941239" lon="-15.494061">
        <ele>1068.88</ele>
        <time>2018-03-17T12:45:17Z</time>
      </trkpt>
      <trkpt lat="27.941215" lon="-15.494018">
        <ele>1069.16</ele>
        <time>2018-03-17T12:45:21Z</time>
      </trkpt>
      <trkpt lat="27.941199" lon="-15.493962">
        <ele>1070.22</ele>
        <time>2018-03-17T12:45:31Z</time>
      </trkpt>
      <trkpt lat="27.941168" lon="-15.493909">
        <ele>1070.81</ele>
        <time>2018-03-17T12:45:36Z</time>
      </trkpt>
      <trkpt lat="27.941142" lon="-15.493858">
        <ele>1071.06</ele>
        <time>2018-03-17T12:45:41Z</time>
      </trkpt>
      <trkpt lat="27.941118" lon="-15.493806">
        <ele>1070.73</ele>
        <time>2018-03-17T12:45:47Z</time>
      </trkpt>
      <trkpt lat="27.941101" lon="-15.493749">
        <ele>1070.48</ele>
        <time>2018-03-17T12:45:53Z</time>
      </trkpt>
      <trkpt lat="27.941096" lon="-15.493693">
        <ele>1070.57</ele>
        <time>2018-03-17T12:46:00Z</time>
      </trkpt>
      <trkpt lat="27.941106" lon="-15.493641">
        <ele>1071.53</ele>
        <time>2018-03-17T12:52:26Z</time>
      </trkpt>
      <trkpt lat="27.941134" lon="-15.493594">
        <ele>1071.93</ele>
        <time>2018-03-17T12:52:36Z</time>
      </trkpt>
      <trkpt lat="27.941170" lon="-15.493559">
        <ele>1071.48</ele>
        <time>2018-03-17T12:52:42Z</time>
      </trkpt>
      <trkpt lat="27.941190" lon="-15.493511">
        <ele>1070.60</ele>
        <time>2018-03-17T12:52:47Z</time>
      </trkpt>
      <trkpt lat="27.941206" lon="-15.493459">
        <ele>1069.47</ele>
        <time>2018-03-17T12:52:52Z</time>
      </trkpt>
      <trkpt lat="27.941215" lon="-15.493403">
        <ele>1068.14</ele>
        <time>2018-03-17T12:52:57Z</time>
      </trkpt>
      <trkpt lat="27.941225" lon="-15.493344">
        <ele>1066.73</ele>
        <time>2018-03-17T12:53:02Z</time>
      </trkpt>
      <trkpt lat="27.941231" lon="-15.493293">
        <ele>1065.21</ele>
        <time>2018-03-17T12:53:06Z</time>
      </trkpt>
      <trkpt lat="27.941245" lon="-15.493235">
        <ele>1063.52</ele>
        <time>2018-03-17T12:53:10Z</time>
      </trkpt>
      <trkpt lat="27.941252" lon="-15.493182">
        <ele>1061.94</ele>
        <time>2018-03-17T12:53:15Z</time>
      </trkpt>
      <trkpt lat="27.941273" lon="-15.493126">
        <ele>1060.25</ele>
        <time>2018-03-17T12:53:20Z</time>
      </trkpt>
      <trkpt lat="27.941289" lon="-15.493074">
        <ele>1058.66</ele>
        <time>2018-03-17T12:53:26Z</time>
      </trkpt>
      <trkpt lat="27.941281" lon="-15.493024">
        <ele>1057.54</ele>
        <time>2018-03-17T12:53:32Z</time>
      </trkpt>
      <trkpt lat="27.941260" lon="-15.492970">
        <ele>1056.85</ele>
        <time>2018-03-17T12:53:38Z</time>
      </trkpt>
      <trkpt lat="27.941257" lon="-15.492909">
        <ele>1055.93</ele>
        <time>2018-03-17T12:53:43Z</time>
      </trkpt>
      <trkpt lat="27.941254" lon="-15.492857">
        <ele>1055.17</ele>
        <time>2018-03-17T12:53:48Z</time>
      </trkpt>
      <trkpt lat="27.941257" lon="-15.492803">
        <ele>1054.43</ele>
        <time>2018-03-17T12:53:53Z</time>
      </trkpt>
      <trkpt lat="27.941269" lon="-15.492749">
        <ele>1053.55</ele>
        <time>2018-03-17T12:54:00Z</time>
      </trkpt>
      <trkpt lat="27.941265" lon="-15.492698">
        <ele>1052.71</ele>
        <time>2018-03-17T12:54:08Z</time>
      </trkpt>
      <trkpt lat="27.941278" lon="-15.492640">
        <ele>1051.81</ele>
        <time>2018-03-17T12:54:15Z</time>
      </trkpt>
      <trkpt lat="27.941279" lon="-15.492586">
        <ele>1051.03</ele>
        <time>2018-03-17T12:54:20Z</time>
      </trkpt>
      <trkpt lat="27.941259" lon="-15.492533">
        <ele>1050.17</ele>
        <time>2018-03-17T12:54:25Z</time>
      </trkpt>
      <trkpt lat="27.941239" lon="-15.492486">
        <ele>1049.12</ele>
        <time>2018-03-17T12:54:31Z</time>
      </trkpt>
      <trkpt lat="27.941214" lon="-15.492434">
        <ele>1047.53</ele>
        <time>2018-03-17T12:54:42Z</time>
      </trkpt>
      <trkpt lat="27.941192" lon="-15.492386">
        <ele>1046.09</ele>
        <time>2018-03-17T12:54:48Z</time>
      </trkpt>
      <trkpt lat="27.941179" lon="-15.492337">
        <ele>1044.44</ele>
        <time>2018-03-17T12:54:55Z</time>
      </trkpt>
      <trkpt lat="27.941189" lon="-15.492276">
        <ele>1042.72</ele>
        <time>2018-03-17T12:55:04Z</time>
      </trkpt>
      <trkpt lat="27.941204" lon="-15.492216">
        <ele>1041.29</ele>
        <time>2018-03-17T12:55:11Z</time>
      </trkpt>
      <trkpt lat="27.941196" lon="-15.492163">
        <ele>1039.63</ele>
        <time>2018-03-17T12:55:20Z</time>
      </trkpt>
      <trkpt lat="27.941209" lon="-15.492112">
        <ele>1038.56</ele>
        <time>2018-03-17T12:56:01Z</time>
      </trkpt>
      <trkpt lat="27.941225" lon="-15.492064">
        <ele>1037.51</ele>
        <time>2018-03-17T12:59:37Z</time>
      </trkpt>
      <trkpt lat="27.941240" lon="-15.492016">
        <ele>1036.61</ele>
        <time>2018-03-17T12:59:43Z</time>
      </trkpt>
      <trkpt lat="27.941244" lon="-15.491962">
        <ele>1035.33</ele>
        <time>2018-03-17T12:59:49Z</time>
      </trkpt>
      <trkpt lat="27.941262" lon="-15.491906">
        <ele>1034.65</ele>
        <time>2018-03-17T12:59:54Z</time>
      </trkpt>
      <trkpt lat="27.941259" lon="-15.491853">
        <ele>1033.78</ele>
        <time>2018-03-17T12:59:58Z</time>
      </trkpt>
      <trkpt lat="27.941246" lon="-15.491797">
        <ele>1032.54</ele>
        <time>2018-03-17T13:00:03Z</time>
      </trkpt>
      <trkpt lat="27.941218" lon="-15.491747">
        <ele>1031.29</ele>
        <time>2018-03-17T13:00:09Z</time>
      </trkpt>
      <trkpt lat="27.941186" lon="-15.491678">
        <ele>1029.52</ele>
        <time>2018-03-17T13:00:27Z</time>
      </trkpt>
      <trkpt lat="27.941183" lon="-15.491614">
        <ele>1028.68</ele>
        <time>2018-03-17T13:00:31Z</time>
      </trkpt>
      <trkpt lat="27.941181" lon="-15.491551">
        <ele>1027.79</ele>
        <time>2018-03-17T13:00:35Z</time>
      </trkpt>
      <trkpt lat="27.941163" lon="-15.491496">
        <ele>1026.72</ele>
        <time>2018-03-17T13:00:39Z</time>
      </trkpt>
      <trkpt lat="27.941141" lon="-15.491441">
        <ele>1025.90</ele>
        <time>2018-03-17T13:00:43Z</time>
      </trkpt>
      <trkpt lat="27.941127" lon="-15.491390">
        <ele>1025.12</ele>
        <time>2018-03-17T13:00:47Z</time>
      </trkpt>
      <trkpt lat="27.941116" lon="-15.491339">
        <ele>1024.71</ele>
        <time>2018-03-17T13:00:52Z</time>
      </trkpt>
      <trkpt lat="27.941098" lon="-15.491288">
        <ele>1024.04</ele>
        <time>2018-03-17T13:00:58Z</time>
      </trkpt>
      <trkpt lat="27.941097" lon="-15.491228">
        <ele>1023.63</ele>
        <time>2018-03-17T13:01:04Z</time>
      </trkpt>
      <trkpt lat="27.941112" lon="-15.491178">
        <ele>1023.52</ele>
        <time>2018-03-17T13:01:11Z</time>
      </trkpt>
      <trkpt lat="27.941141" lon="-15.491129">
        <ele>1022.92</ele>
        <time>2018-03-17T13:01:15Z</time>
      </trkpt>
      <trkpt lat="27.941157" lon="-15.491074">
        <ele>1022.52</ele>
        <time>2018-03-17T13:01:20Z</time>
      </trkpt>
      <trkpt lat="27.941157" lon="-15.491014">
        <ele>1022.30</ele>
        <time>2018-03-17T13:01:25Z</time>
      </trkpt>
      <trkpt lat="27.941167" lon="-15.490960">
        <ele>1021.86</ele>
        <time>2018-03-17T13:01:29Z</time>
      </trkpt>
      <trkpt lat="27.941176" lon="-15.490905">
        <ele>1021.47</ele>
        <time>2018-03-17T13:01:34Z</time>
      </trkpt>
      <trkpt lat="27.941181" lon="-15.490846">
        <ele>1021.18</ele>
        <time>2018-03-17T13:01:41Z</time>
      </trkpt>
      <trkpt lat="27.941200" lon="-15.490798">
        <ele>1020.56</ele>
        <time>2018-03-17T13:01:46Z</time>
      </trkpt>
      <trkpt lat="27.941223" lon="-15.490753">
        <ele>1019.82</ele>
        <time>2018-03-17T13:01:55Z</time>
      </trkpt>
      <trkpt lat="27.941266" lon="-15.490717">
        <ele>1018.91</ele>
        <time>2018-03-17T13:02:13Z</time>
      </trkpt>
      <trkpt lat="27.941296" lon="-15.490670">
        <ele>1018.27</ele>
        <time>2018-03-17T13:02:17Z</time>
      </trkpt>
      <trkpt lat="27.941310" lon="-15.490619">
        <ele>1017.67</ele>
        <time>2018-03-17T13:02:22Z</time>
      </trkpt>
      <trkpt lat="27.941332" lon="-15.490566">
        <ele>1016.92</ele>
        <time>2018-03-17T13:02:29Z</time>
      </trkpt>
      <trkpt lat="27.941356" lon="-15.490519">
        <ele>1016.59</ele>
        <time>2018-03-17T13:02:35Z</time>
      </trkpt>
      <trkpt lat="27.941368" lon="-15.490468">
        <ele>1016.52</ele>
        <time>2018-03-17T13:02:39Z</time>
      </trkpt>
      <trkpt lat="27.941381" lon="-15.490414">
        <ele>1016.65</ele>
        <time>2018-03-17T13:02:43Z</time>
      </trkpt>
      <trkpt lat="27.941399" lon="-15.490360">
        <ele>1016.63</ele>
        <time>2018-03-17T13:02:48Z</time>
      </trkpt>
      <trkpt lat="27.941406" lon="-15.490304">
        <ele>1016.64</ele>
        <time>2018-03-17T13:02:53Z</time>
      </trkpt>
      <trkpt lat="27.941403" lon="-15.490244">
        <ele>1016.63</ele>
        <time>2018-03-17T13:02:58Z</time>
      </trkpt>
      <trkpt lat="27.941401" lon="-15.490190">
        <ele>1016.53</ele>
        <time>2018-03-17T13:03:03Z</time>
      </trkpt>
      <trkpt lat="27.941429" lon="-15.490135">
        <ele>1015.71</ele>
        <time>2018-03-17T13:03:08Z</time>
      </trkpt>
      <trkpt lat="27.941449" lon="-15.490086">
        <ele>1015.11</ele>
        <time>2018-03-17T13:03:12Z</time>
      </trkpt>
      <trkpt lat="27.941462" lon="-15.490037">
        <ele>1014.66</ele>
        <time>2018-03-17T13:03:16Z</time>
      </trkpt>
      <trkpt lat="27.941479" lon="-15.489981">
        <ele>1013.90</ele>
        <time>2018-03-17T13:03:21Z</time>
      </trkpt>
      <trkpt lat="27.941498" lon="-15.489929">
        <ele>1012.56</ele>
        <time>2018-03-17T13:03:25Z</time>
      </trkpt>
      <trkpt lat="27.941500" lon="-15.489870">
        <ele>1011.53</ele>
        <time>2018-03-17T13:03:31Z</time>
      </trkpt>
      <trkpt lat="27.941520" lon="-15.489815">
        <ele>1010.21</ele>
        <time>2018-03-17T13:03:37Z</time>
      </trkpt>
      <trkpt lat="27.941540" lon="-15.489760">
        <ele>1008.86</ele>
        <time>2018-03-17T13:03:43Z</time>
      </trkpt>
      <trkpt lat="27.941565" lon="-15.489715">
        <ele>1007.60</ele>
        <time>2018-03-17T13:03:47Z</time>
      </trkpt>
      <trkpt lat="27.941557" lon="-15.489664">
        <ele>1006.96</ele>
        <time>2018-03-17T13:03:53Z</time>
      </trkpt>
      <trkpt lat="27.941567" lon="-15.489609">
        <ele>1005.95</ele>
        <time>2018-03-17T13:03:58Z</time>
      </trkpt>
      <trkpt lat="27.941581" lon="-15.489543">
        <ele>1004.60</ele>
        <time>2018-03-17T13:04:17Z</time>
      </trkpt>
      <trkpt lat="27.941611" lon="-15.489492">
        <ele>1003.11</ele>
        <time>2018-03-17T13:04:22Z</time>
      </trkpt>
      <trkpt lat="27.941638" lon="-15.489446">
        <ele>1001.71</ele>
        <time>2018-03-17T13:04:27Z</time>
      </trkpt>
      <trkpt lat="27.941655" lon="-15.489396">
        <ele>1001.12</ele>
        <time>2018-03-17T13:04:39Z</time>
      </trkpt>
      <trkpt lat="27.941703" lon="-15.489337">
        <ele>999.30</ele>
        <time>2018-03-17T13:04:58Z</time>
      </trkpt>
      <trkpt lat="27.941726" lon="-15.489290">
        <ele>998.11</ele>
        <time>2018-03-17T13:05:05Z</time>
      </trkpt>
      <trkpt lat="27.941741" lon="-15.489241">
        <ele>997.33</ele>
        <time>2018-03-17T13:05:17Z</time>
      </trkpt>
      <trkpt lat="27.941753" lon="-15.489188">
        <ele>996.72</ele>
        <time>2018-03-17T13:05:23Z</time>
      </trkpt>
      <trkpt lat="27.941759" lon="-15.489136">
        <ele>996.36</ele>
        <time>2018-03-17T13:05:29Z</time>
      </trkpt>
      <trkpt lat="27.941757" lon="-15.489083">
        <ele>996.33</ele>
        <time>2018-03-17T13:05:35Z</time>
      </trkpt>
      <trkpt lat="27.941760" lon="-15.489029">
        <ele>996.14</ele>
        <time>2018-03-17T13:05:40Z</time>
      </trkpt>
      <trkpt lat="27.941767" lon="-15.488976">
        <ele>995.98</ele>
        <time>2018-03-17T13:05:45Z</time>
      </trkpt>
      <trkpt lat="27.941783" lon="-15.488922">
        <ele>995.53</ele>
        <time>2018-03-17T13:05:54Z</time>
      </trkpt>
      <trkpt lat="27.941799" lon="-15.488874">
        <ele>995.03</ele>
        <time>2018-03-17T13:06:02Z</time>
      </trkpt>
      <trkpt lat="27.941829" lon="-15.488833">
        <ele>994.21</ele>
        <time>2018-03-17T13:06:08Z</time>
      </trkpt>
      <trkpt lat="27.941858" lon="-15.488783">
        <ele>993.59</ele>
        <time>2018-03-17T13:06:14Z</time>
      </trkpt>
      <trkpt lat="27.941878" lon="-15.488726">
        <ele>993.27</ele>
        <time>2018-03-17T13:06:19Z</time>
      </trkpt>
      <trkpt lat="27.941896" lon="-15.488676">
        <ele>993.01</ele>
        <time>2018-03-17T13:06:28Z</time>
      </trkpt>
      <trkpt lat="27.941914" lon="-15.488627">
        <ele>993.09</ele>
        <time>2018-03-17T13:06:35Z</time>
      </trkpt>
      <trkpt lat="27.941946" lon="-15.488582">
        <ele>992.42</ele>
        <time>2018-03-17T13:06:42Z</time>
      </trkpt>
      <trkpt lat="27.941976" lon="-15.488540">
        <ele>990.62</ele>
        <time>2018-03-17T13:07:00Z</time>
      </trkpt>
      <trkpt lat="27.942002" lon="-15.488484">
        <ele>988.83</ele>
        <time>2018-03-17T13:07:05Z</time>
      </trkpt>
      <trkpt lat="27.942019" lon="-15.488428">
        <ele>987.43</ele>
        <time>2018-03-17T13:07:09Z</time>
      </trkpt>
      <trkpt lat="27.942030" lon="-15.488373">
        <ele>986.22</ele>
        <time>2018-03-17T13:07:16Z</time>
      </trkpt>
      <trkpt lat="27.942031" lon="-15.488311">
        <ele>985.10</ele>
        <time>2018-03-17T13:07:22Z</time>
      </trkpt>
      <trkpt lat="27.942040" lon="-15.488257">
        <ele>983.62</ele>
        <time>2018-03-17T13:07:27Z</time>
      </trkpt>
      <trkpt lat="27.942054" lon="-15.488207">
        <ele>982.11</ele>
        <time>2018-03-17T13:07:32Z</time>
      </trkpt>
      <trkpt lat="27.942074" lon="-15.488160">
        <ele>980.54</ele>
        <time>2018-03-17T13:07:39Z</time>
      </trkpt>
      <trkpt lat="27.942101" lon="-15.488118">
        <ele>978.87</ele>
        <time>2018-03-17T13:07:45Z</time>
      </trkpt>
      <trkpt lat="27.942132" lon="-15.488072">
        <ele>977.04</ele>
        <time>2018-03-17T13:07:50Z</time>
      </trkpt>
      <trkpt lat="27.942152" lon="-15.488025">
        <ele>975.72</ele>
        <time>2018-03-17T13:07:56Z</time>
      </trkpt>
      <trkpt lat="27.942176" lon="-15.487977">
        <ele>974.67</ele>
        <time>2018-03-17T13:08:04Z</time>
      </trkpt>
      <trkpt lat="27.942194" lon="-15.487926">
        <ele>973.78</ele>
        <time>2018-03-17T13:08:09Z</time>
      </trkpt>
      <trkpt lat="27.942193" lon="-15.487868">
        <ele>973.28</ele>
        <time>2018-03-17T13:08:14Z</time>
      </trkpt>
      <trkpt lat="27.942190" lon="-15.487812">
        <ele>972.87</ele>
        <time>2018-03-17T13:08:20Z</time>
      </trkpt>
      <trkpt lat="27.942196" lon="-15.487758">
        <ele>972.26</ele>
        <time>2018-03-17T13:08:26Z</time>
      </trkpt>
      <trkpt lat="27.942209" lon="-15.487706">
        <ele>971.61</ele>
        <time>2018-03-17T13:08:31Z</time>
      </trkpt>
      <trkpt lat="27.942226" lon="-15.487653">
        <ele>970.92</ele>
        <time>2018-03-17T13:08:38Z</time>
      </trkpt>
      <trkpt lat="27.942261" lon="-15.487620">
        <ele>968.91</ele>
        <time>2018-03-17T13:08:44Z</time>
      </trkpt>
      <trkpt lat="27.942293" lon="-15.487576">
        <ele>967.24</ele>
        <time>2018-03-17T13:08:51Z</time>
      </trkpt>
      <trkpt lat="27.942327" lon="-15.487528">
        <ele>965.58</ele>
        <time>2018-03-17T13:08:57Z</time>
      </trkpt>
      <trkpt lat="27.942366" lon="-15.487491">
        <ele>963.75</ele>
        <time>2018-03-17T13:09:03Z</time>
      </trkpt>
      <trkpt lat="27.942397" lon="-15.487444">
        <ele>962.17</ele>
        <time>2018-03-17T13:09:08Z</time>
      </trkpt>
      <trkpt lat="27.942425" lon="-15.487397">
        <ele>960.75</ele>
        <time>2018-03-17T13:09:13Z</time>
      </trkpt>
      <trkpt lat="27.942446" lon="-15.487343">
        <ele>959.89</ele>
        <time>2018-03-17T13:09:19Z</time>
      </trkpt>
      <trkpt lat="27.942449" lon="-15.487285">
        <ele>959.52</ele>
        <time>2018-03-17T13:09:26Z</time>
      </trkpt>
      <trkpt lat="27.942476" lon="-15.487230">
        <ele>958.62</ele>
        <time>2018-03-17T13:09:31Z</time>
      </trkpt>
      <trkpt lat="27.942480" lon="-15.487172">
        <ele>958.31</ele>
        <time>2018-03-17T13:09:38Z</time>
      </trkpt>
      <trkpt lat="27.942442" lon="-15.487133">
        <ele>958.85</ele>
        <time>2018-03-17T13:09:46Z</time>
      </trkpt>
      <trkpt lat="27.942398" lon="-15.487118">
        <ele>959.51</ele>
        <time>2018-03-17T13:09:51Z</time>
      </trkpt>
      <trkpt lat="27.942359" lon="-15.487082">
        <ele>959.81</ele>
        <time>2018-03-17T13:10:05Z</time>
      </trkpt>
      <trkpt lat="27.942349" lon="-15.487028">
        <ele>959.27</ele>
        <time>2018-03-17T13:10:10Z</time>
      </trkpt>
      <trkpt lat="27.942352" lon="-15.486969">
        <ele>958.47</ele>
        <time>2018-03-17T13:10:16Z</time>
      </trkpt>
      <trkpt lat="27.942376" lon="-15.486914">
        <ele>957.32</ele>
        <time>2018-03-17T13:10:21Z</time>
      </trkpt>
      <trkpt lat="27.942393" lon="-15.486864">
        <ele>956.12</ele>
        <time>2018-03-17T13:10:25Z</time>
      </trkpt>
      <trkpt lat="27.942396" lon="-15.486806">
        <ele>954.93</ele>
        <time>2018-03-17T13:10:30Z</time>
      </trkpt>
      <trkpt lat="27.942403" lon="-15.486745">
        <ele>953.63</ele>
        <time>2018-03-17T13:10:36Z</time>
      </trkpt>
      <trkpt lat="27.942407" lon="-15.486682">
        <ele>952.38</ele>
        <time>2018-03-17T13:10:43Z</time>
      </trkpt>
      <trkpt lat="27.942408" lon="-15.486624">
        <ele>951.41</ele>
        <time>2018-03-17T13:10:48Z</time>
      </trkpt>
      <trkpt lat="27.942405" lon="-15.486568">
        <ele>950.62</ele>
        <time>2018-03-17T13:10:53Z</time>
      </trkpt>
      <trkpt lat="27.942406" lon="-15.486506">
        <ele>949.79</ele>
        <time>2018-03-17T13:10:58Z</time>
      </trkpt>
      <trkpt lat="27.942391" lon="-15.486456">
        <ele>949.12</ele>
        <time>2018-03-17T13:11:03Z</time>
      </trkpt>
      <trkpt lat="27.942367" lon="-15.486406">
        <ele>948.71</ele>
        <time>2018-03-17T13:11:08Z</time>
      </trkpt>
      <trkpt lat="27.942357" lon="-15.486348">
        <ele>947.95</ele>
        <time>2018-03-17T13:11:14Z</time>
      </trkpt>
      <trkpt lat="27.942365" lon="-15.486292">
        <ele>946.93</ele>
        <time>2018-03-17T13:11:19Z</time>
      </trkpt>
      <trkpt lat="27.942364" lon="-15.486235">
        <ele>946.03</ele>
        <time>2018-03-17T13:11:26Z</time>
      </trkpt>
      <trkpt lat="27.942363" lon="-15.486183">
        <ele>945.19</ele>
        <time>2018-03-17T13:11:31Z</time>
      </trkpt>
      <trkpt lat="27.942376" lon="-15.486128">
        <ele>944.11</ele>
        <time>2018-03-17T13:11:37Z</time>
      </trkpt>
      <trkpt lat="27.942388" lon="-15.486072">
        <ele>943.38</ele>
        <time>2018-03-17T13:11:42Z</time>
      </trkpt>
      <trkpt lat="27.942381" lon="-15.486016">
        <ele>942.96</ele>
        <time>2018-03-17T13:11:47Z</time>
      </trkpt>
      <trkpt lat="27.942386" lon="-15.485956">
        <ele>942.37</ele>
        <time>2018-03-17T13:11:52Z</time>
      </trkpt>
      <trkpt lat="27.942390" lon="-15.485896">
        <ele>941.77</ele>
        <time>2018-03-17T13:11:57Z</time>
      </trkpt>
      <trkpt lat="27.942409" lon="-15.485837">
        <ele>941.01</ele>
        <time>2018-03-17T13:12:02Z</time>
      </trkpt>
      <trkpt lat="27.942428" lon="-15.485791">
        <ele>940.61</ele>
        <time>2018-03-17T13:12:06Z</time>
      </trkpt>
      <trkpt lat="27.942430" lon="-15.485730">
        <ele>940.31</ele>
        <time>2018-03-17T13:12:12Z</time>
      </trkpt>
      <trkpt lat="27.942405" lon="-15.485687">
        <ele>940.35</ele>
        <time>2018-03-17T13:12:17Z</time>
      </trkpt>
      <trkpt lat="27.942387" lon="-15.485633">
        <ele>940.25</ele>
        <time>2018-03-17T13:12:23Z</time>
      </trkpt>
      <trkpt lat="27.942377" lon="-15.485574">
        <ele>940.03</ele>
        <time>2018-03-17T13:12:28Z</time>
      </trkpt>
      <trkpt lat="27.942368" lon="-15.485523">
        <ele>939.76</ele>
        <time>2018-03-17T13:12:32Z</time>
      </trkpt>
      <trkpt lat="27.942359" lon="-15.485465">
        <ele>939.30</ele>
        <time>2018-03-17T13:12:37Z</time>
      </trkpt>
      <trkpt lat="27.942344" lon="-15.485415">
        <ele>938.94</ele>
        <time>2018-03-17T13:12:42Z</time>
      </trkpt>
      <trkpt lat="27.942338" lon="-15.485359">
        <ele>938.52</ele>
        <time>2018-03-17T13:12:47Z</time>
      </trkpt>
      <trkpt lat="27.942343" lon="-15.485307">
        <ele>938.07</ele>
        <time>2018-03-17T13:12:51Z</time>
      </trkpt>
      <trkpt lat="27.942352" lon="-15.485250">
        <ele>937.63</ele>
        <time>2018-03-17T13:12:56Z</time>
      </trkpt>
      <trkpt lat="27.942369" lon="-15.485199">
        <ele>937.42</ele>
        <time>2018-03-17T13:13:01Z</time>
      </trkpt>
      <trkpt lat="27.942375" lon="-15.485143">
        <ele>937.41</ele>
        <time>2018-03-17T13:13:08Z</time>
      </trkpt>
      <trkpt lat="27.942368" lon="-15.485089">
        <ele>937.51</ele>
        <time>2018-03-17T13:13:16Z</time>
      </trkpt>
      <trkpt lat="27.942356" lon="-15.485039">
        <ele>937.52</ele>
        <time>2018-03-17T13:13:24Z</time>
      </trkpt>
      <trkpt lat="27.942325" lon="-15.485000">
        <ele>937.62</ele>
        <time>2018-03-17T13:13:29Z</time>
      </trkpt>
      <trkpt lat="27.942308" lon="-15.484948">
        <ele>937.29</ele>
        <time>2018-03-17T13:13:33Z</time>
      </trkpt>
      <trkpt lat="27.942278" lon="-15.484895">
        <ele>936.76</ele>
        <time>2018-03-17T13:13:38Z</time>
      </trkpt>
      <trkpt lat="27.942239" lon="-15.484850">
        <ele>936.42</ele>
        <time>2018-03-17T13:13:48Z</time>
      </trkpt>
      <trkpt lat="27.942252" lon="-15.484797">
        <ele>935.82</ele>
        <time>2018-03-17T13:13:56Z</time>
      </trkpt>
      <trkpt lat="27.942265" lon="-15.484746">
        <ele>935.28</ele>
        <time>2018-03-17T13:14:01Z</time>
      </trkpt>
      <trkpt lat="27.942286" lon="-15.484693">
        <ele>934.29</ele>
        <time>2018-03-17T13:14:07Z</time>
      </trkpt>
      <trkpt lat="27.942301" lon="-15.484641">
        <ele>932.71</ele>
        <time>2018-03-17T13:14:14Z</time>
      </trkpt>
      <trkpt lat="27.942317" lon="-15.484583">
        <ele>931.22</ele>
        <time>2018-03-17T13:14:21Z</time>
      </trkpt>
      <trkpt lat="27.942339" lon="-15.484532">
        <ele>929.80</ele>
        <time>2018-03-17T13:14:26Z</time>
      </trkpt>
      <trkpt lat="27.942373" lon="-15.484481">
        <ele>928.51</ele>
        <time>2018-03-17T13:14:34Z</time>
      </trkpt>
      <trkpt lat="27.942408" lon="-15.484440">
        <ele>927.57</ele>
        <time>2018-03-17T13:14:40Z</time>
      </trkpt>
      <trkpt lat="27.942428" lon="-15.484394">
        <ele>926.23</ele>
        <time>2018-03-17T13:14:44Z</time>
      </trkpt>
      <trkpt lat="27.942428" lon="-15.484343">
        <ele>924.53</ele>
        <time>2018-03-17T13:14:49Z</time>
      </trkpt>
      <trkpt lat="27.942415" lon="-15.484287">
        <ele>922.86</ele>
        <time>2018-03-17T13:14:57Z</time>
      </trkpt>
      <trkpt lat="27.942418" lon="-15.484232">
        <ele>921.06</ele>
        <time>2018-03-17T13:15:02Z</time>
      </trkpt>
      <trkpt lat="27.942425" lon="-15.484178">
        <ele>919.45</ele>
        <time>2018-03-17T13:15:07Z</time>
      </trkpt>
      <trkpt lat="27.942419" lon="-15.484119">
        <ele>918.67</ele>
        <time>2018-03-17T13:15:14Z</time>
      </trkpt>
      <trkpt lat="27.942426" lon="-15.484064">
        <ele>918.16</ele>
        <time>2018-03-17T13:15:18Z</time>
      </trkpt>
      <trkpt lat="27.942427" lon="-15.484012">
        <ele>917.68</ele>
        <time>2018-03-17T13:15:22Z</time>
      </trkpt>
      <trkpt lat="27.942434" lon="-15.483957">
        <ele>917.13</ele>
        <time>2018-03-17T13:15:26Z</time>
      </trkpt>
      <trkpt lat="27.942449" lon="-15.483897">
        <ele>916.72</ele>
        <time>2018-03-17T13:15:30Z</time>
      </trkpt>
      <trkpt lat="27.942457" lon="-15.483840">
        <ele>916.31</ele>
        <time>2018-03-17T13:15:35Z</time>
      </trkpt>
      <trkpt lat="27.942468" lon="-15.483787">
        <ele>916.01</ele>
        <time>2018-03-17T13:15:39Z</time>
      </trkpt>
      <trkpt lat="27.942450" lon="-15.483730">
        <ele>915.46</ele>
        <time>2018-03-17T13:15:45Z</time>
      </trkpt>
      <trkpt lat="27.942407" lon="-15.483687">
        <ele>914.64</ele>
        <time>2018-03-17T13:16:02Z</time>
      </trkpt>
      <trkpt lat="27.942421" lon="-15.483626">
        <ele>914.39</ele>
        <time>2018-03-17T13:16:08Z</time>
      </trkpt>
      <trkpt lat="27.942446" lon="-15.483575">
        <ele>914.06</ele>
        <time>2018-03-17T13:16:12Z</time>
      </trkpt>
      <trkpt lat="27.942468" lon="-15.483524">
        <ele>913.65</ele>
        <time>2018-03-17T13:16:16Z</time>
      </trkpt>
      <trkpt lat="27.942493" lon="-15.483475">
        <ele>913.42</ele>
        <time>2018-03-17T13:16:20Z</time>
      </trkpt>
      <trkpt lat="27.942508" lon="-15.483419">
        <ele>913.08</ele>
        <time>2018-03-17T13:16:25Z</time>
      </trkpt>
      <trkpt lat="27.942534" lon="-15.483363">
        <ele>912.63</ele>
        <time>2018-03-17T13:16:31Z</time>
      </trkpt>
      <trkpt lat="27.942553" lon="-15.483314">
        <ele>912.05</ele>
        <time>2018-03-17T13:16:36Z</time>
      </trkpt>
      <trkpt lat="27.942580" lon="-15.483261">
        <ele>911.31</ele>
        <time>2018-03-17T13:16:41Z</time>
      </trkpt>
      <trkpt lat="27.942608" lon="-15.483207">
        <ele>910.71</ele>
        <time>2018-03-17T13:16:46Z</time>
      </trkpt>
      <trkpt lat="27.942633" lon="-15.483164">
        <ele>910.22</ele>
        <time>2018-03-17T13:16:50Z</time>
      </trkpt>
      <trkpt lat="27.942666" lon="-15.483117">
        <ele>909.86</ele>
        <time>2018-03-17T13:16:55Z</time>
      </trkpt>
      <trkpt lat="27.942705" lon="-15.483089">
        <ele>909.72</ele>
        <time>2018-03-17T13:16:59Z</time>
      </trkpt>
      <trkpt lat="27.942744" lon="-15.483061">
        <ele>909.78</ele>
        <time>2018-03-17T13:17:03Z</time>
      </trkpt>
      <trkpt lat="27.942774" lon="-15.483021">
        <ele>909.58</ele>
        <time>2018-03-17T13:17:07Z</time>
      </trkpt>
      <trkpt lat="27.942803" lon="-15.482975">
        <ele>908.49</ele>
        <time>2018-03-17T13:17:11Z</time>
      </trkpt>
      <trkpt lat="27.942820" lon="-15.482923">
        <ele>907.51</ele>
        <time>2018-03-17T13:17:16Z</time>
      </trkpt>
      <trkpt lat="27.942809" lon="-15.482870">
        <ele>906.96</ele>
        <time>2018-03-17T13:17:21Z</time>
      </trkpt>
      <trkpt lat="27.942789" lon="-15.482816">
        <ele>906.42</ele>
        <time>2018-03-17T13:17:26Z</time>
      </trkpt>
      <trkpt lat="27.942764" lon="-15.482770">
        <ele>905.70</ele>
        <time>2018-03-17T13:17:32Z</time>
      </trkpt>
      <trkpt lat="27.942729" lon="-15.482724">
        <ele>904.12</ele>
        <time>2018-03-17T13:17:38Z</time>
      </trkpt>
      <trkpt lat="27.942693" lon="-15.482689">
        <ele>902.61</ele>
        <time>2018-03-17T13:17:43Z</time>
      </trkpt>
      <trkpt lat="27.942667" lon="-15.482642">
        <ele>901.08</ele>
        <time>2018-03-17T13:17:48Z</time>
      </trkpt>
      <trkpt lat="27.942666" lon="-15.482576">
        <ele>899.59</ele>
        <time>2018-03-17T13:17:52Z</time>
      </trkpt>
      <trkpt lat="27.942665" lon="-15.482524">
        <ele>898.34</ele>
        <time>2018-03-17T13:17:55Z</time>
      </trkpt>
      <trkpt lat="27.942659" lon="-15.482469">
        <ele>897.04</ele>
        <time>2018-03-17T13:18:00Z</time>
      </trkpt>
      <trkpt lat="27.942657" lon="-15.482410">
        <ele>895.79</ele>
        <time>2018-03-17T13:18:05Z</time>
      </trkpt>
      <trkpt lat="27.942657" lon="-15.482350">
        <ele>894.53</ele>
        <time>2018-03-17T13:18:10Z</time>
      </trkpt>
      <trkpt lat="27.942674" lon="-15.482295">
        <ele>893.93</ele>
        <time>2018-03-17T13:18:14Z</time>
      </trkpt>
      <trkpt lat="27.942700" lon="-15.482241">
        <ele>893.46</ele>
        <time>2018-03-17T13:18:19Z</time>
      </trkpt>
      <trkpt lat="27.942725" lon="-15.482187">
        <ele>892.86</ele>
        <time>2018-03-17T13:18:23Z</time>
      </trkpt>
      <trkpt lat="27.942752" lon="-15.482143">
        <ele>892.41</ele>
        <time>2018-03-17T13:18:28Z</time>
      </trkpt>
      <trkpt lat="27.942773" lon="-15.482098">
        <ele>891.82</ele>
        <time>2018-03-17T13:18:32Z</time>
      </trkpt>
      <trkpt lat="27.942786" lon="-15.482043">
        <ele>890.41</ele>
        <time>2018-03-17T13:18:37Z</time>
      </trkpt>
      <trkpt lat="27.942800" lon="-15.481987">
        <ele>888.96</ele>
        <time>2018-03-17T13:18:44Z</time>
      </trkpt>
      <trkpt lat="27.942822" lon="-15.481937">
        <ele>887.52</ele>
        <time>2018-03-17T13:18:50Z</time>
      </trkpt>
      <trkpt lat="27.942851" lon="-15.481888">
        <ele>886.28</ele>
        <time>2018-03-17T13:18:56Z</time>
      </trkpt>
      <trkpt lat="27.942879" lon="-15.481844">
        <ele>885.08</ele>
        <time>2018-03-17T13:19:01Z</time>
      </trkpt>
      <trkpt lat="27.942913" lon="-15.481798">
        <ele>883.61</ele>
        <time>2018-03-17T13:19:06Z</time>
      </trkpt>
      <trkpt lat="27.942944" lon="-15.481749">
        <ele>882.30</ele>
        <time>2018-03-17T13:19:10Z</time>
      </trkpt>
      <trkpt lat="27.942969" lon="-15.481702">
        <ele>880.81</ele>
        <time>2018-03-17T13:19:14Z</time>
      </trkpt>
      <trkpt lat="27.942996" lon="-15.481653">
        <ele>879.43</ele>
        <time>2018-03-17T13:19:19Z</time>
      </trkpt>
      <trkpt lat="27.943017" lon="-15.481597">
        <ele>878.46</ele>
        <time>2018-03-17T13:19:24Z</time>
      </trkpt>
      <trkpt lat="27.943049" lon="-15.481544">
        <ele>877.31</ele>
        <time>2018-03-17T13:19:29Z</time>
      </trkpt>
      <trkpt lat="27.943077" lon="-15.481494">
        <ele>875.82</ele>
        <time>2018-03-17T13:19:34Z</time>
      </trkpt>
      <trkpt lat="27.943106" lon="-15.481443">
        <ele>874.11</ele>
        <time>2018-03-17T13:19:39Z</time>
      </trkpt>
      <trkpt lat="27.943135" lon="-15.481399">
        <ele>872.88</ele>
        <time>2018-03-17T13:19:44Z</time>
      </trkpt>
      <trkpt lat="27.943175" lon="-15.481357">
        <ele>871.36</ele>
        <time>2018-03-17T13:19:49Z</time>
      </trkpt>
      <trkpt lat="27.943206" lon="-15.481314">
        <ele>870.23</ele>
        <time>2018-03-17T13:19:53Z</time>
      </trkpt>
      <trkpt lat="27.943234" lon="-15.481263">
        <ele>869.23</ele>
        <time>2018-03-17T13:19:58Z</time>
      </trkpt>
      <trkpt lat="27.943267" lon="-15.481227">
        <ele>868.43</ele>
        <time>2018-03-17T13:20:02Z</time>
      </trkpt>
      <trkpt lat="27.943299" lon="-15.481184">
        <ele>867.64</ele>
        <time>2018-03-17T13:20:07Z</time>
      </trkpt>
      <trkpt lat="27.943332" lon="-15.481138">
        <ele>867.04</ele>
        <time>2018-03-17T13:20:12Z</time>
      </trkpt>
      <trkpt lat="27.943356" lon="-15.481088">
        <ele>866.07</ele>
        <time>2018-03-17T13:20:17Z</time>
      </trkpt>
      <trkpt lat="27.943372" lon="-15.481039">
        <ele>865.21</ele>
        <time>2018-03-17T13:20:21Z</time>
      </trkpt>
      <trkpt lat="27.943379" lon="-15.480983">
        <ele>864.84</ele>
        <time>2018-03-17T13:20:27Z</time>
      </trkpt>
      <trkpt lat="27.943387" lon="-15.480929">
        <ele>864.41</ele>
        <time>2018-03-17T13:20:32Z</time>
      </trkpt>
      <trkpt lat="27.943393" lon="-15.480875">
        <ele>864.11</ele>
        <time>2018-03-17T13:20:36Z</time>
      </trkpt>
      <trkpt lat="27.943389" lon="-15.480823">
        <ele>864.05</ele>
        <time>2018-03-17T13:20:40Z</time>
      </trkpt>
      <trkpt lat="27.943381" lon="-15.480768">
        <ele>863.48</ele>
        <time>2018-03-17T13:20:44Z</time>
      </trkpt>
      <trkpt lat="27.943373" lon="-15.480712">
        <ele>862.86</ele>
        <time>2018-03-17T13:20:48Z</time>
      </trkpt>
      <trkpt lat="27.943354" lon="-15.480665">
        <ele>862.54</ele>
        <time>2018-03-17T13:20:52Z</time>
      </trkpt>
      <trkpt lat="27.943331" lon="-15.480610">
        <ele>862.05</ele>
        <time>2018-03-17T13:20:57Z</time>
      </trkpt>
      <trkpt lat="27.943320" lon="-15.480558">
        <ele>861.02</ele>
        <time>2018-03-17T13:21:01Z</time>
      </trkpt>
      <trkpt lat="27.943300" lon="-15.480506">
        <ele>860.08</ele>
        <time>2018-03-17T13:21:05Z</time>
      </trkpt>
      <trkpt lat="27.943279" lon="-15.480445">
        <ele>858.78</ele>
        <time>2018-03-17T13:21:14Z</time>
      </trkpt>
      <trkpt lat="27.943265" lon="-15.480388">
        <ele>857.68</ele>
        <time>2018-03-17T13:21:19Z</time>
      </trkpt>
      <trkpt lat="27.943285" lon="-15.480332">
        <ele>856.76</ele>
        <time>2018-03-17T13:21:23Z</time>
      </trkpt>
      <trkpt lat="27.943294" lon="-15.480273">
        <ele>855.63</ele>
        <time>2018-03-17T13:21:28Z</time>
      </trkpt>
      <trkpt lat="27.943291" lon="-15.480219">
        <ele>854.41</ele>
        <time>2018-03-17T13:21:34Z</time>
      </trkpt>
      <trkpt lat="27.943298" lon="-15.480162">
        <ele>853.22</ele>
        <time>2018-03-17T13:21:39Z</time>
      </trkpt>
      <trkpt lat="27.943310" lon="-15.480111">
        <ele>852.24</ele>
        <time>2018-03-17T13:21:43Z</time>
      </trkpt>
      <trkpt lat="27.943331" lon="-15.480056">
        <ele>851.26</ele>
        <time>2018-03-17T13:21:48Z</time>
      </trkpt>
      <trkpt lat="27.943364" lon="-15.479999">
        <ele>849.63</ele>
        <time>2018-03-17T13:21:53Z</time>
      </trkpt>
      <trkpt lat="27.943398" lon="-15.479956">
        <ele>848.90</ele>
        <time>2018-03-17T13:21:57Z</time>
      </trkpt>
      <trkpt lat="27.943435" lon="-15.479916">
        <ele>847.91</ele>
        <time>2018-03-17T13:22:02Z</time>
      </trkpt>
      <trkpt lat="27.943454" lon="-15.479858">
        <ele>847.28</ele>
        <time>2018-03-17T13:22:08Z</time>
      </trkpt>
      <trkpt lat="27.943474" lon="-15.479812">
        <ele>846.62</ele>
        <time>2018-03-17T13:22:12Z</time>
      </trkpt>
      <trkpt lat="27.943490" lon="-15.479755">
        <ele>846.08</ele>
        <time>2018-03-17T13:22:17Z</time>
      </trkpt>
      <trkpt lat="27.943494" lon="-15.479704">
        <ele>845.54</ele>
        <time>2018-03-17T13:22:22Z</time>
      </trkpt>
      <trkpt lat="27.943506" lon="-15.479643">
        <ele>844.82</ele>
        <time>2018-03-17T13:22:27Z</time>
      </trkpt>
      <trkpt lat="27.943514" lon="-15.479591">
        <ele>844.31</ele>
        <time>2018-03-17T13:22:31Z</time>
      </trkpt>
      <trkpt lat="27.943507" lon="-15.479529">
        <ele>843.83</ele>
        <time>2018-03-17T13:22:36Z</time>
      </trkpt>
      <trkpt lat="27.943490" lon="-15.479481">
        <ele>843.62</ele>
        <time>2018-03-17T13:22:40Z</time>
      </trkpt>
      <trkpt lat="27.943487" lon="-15.479424">
        <ele>843.20</ele>
        <time>2018-03-17T13:22:45Z</time>
      </trkpt>
      <trkpt lat="27.943490" lon="-15.479365">
        <ele>842.33</ele>
        <time>2018-03-17T13:22:49Z</time>
      </trkpt>
      <trkpt lat="27.943495" lon="-15.479304">
        <ele>841.57</ele>
        <time>2018-03-17T13:22:53Z</time>
      </trkpt>
      <trkpt lat="27.943496" lon="-15.479252">
        <ele>840.97</ele>
        <time>2018-03-17T13:22:56Z</time>
      </trkpt>
      <trkpt lat="27.943493" lon="-15.479188">
        <ele>840.14</ele>
        <time>2018-03-17T13:23:00Z</time>
      </trkpt>
      <trkpt lat="27.943482" lon="-15.479134">
        <ele>839.36</ele>
        <time>2018-03-17T13:23:04Z</time>
      </trkpt>
      <trkpt lat="27.943475" lon="-15.479082">
        <ele>838.56</ele>
        <time>2018-03-17T13:23:08Z</time>
      </trkpt>
      <trkpt lat="27.943466" lon="-15.479032">
        <ele>837.60</ele>
        <time>2018-03-17T13:23:12Z</time>
      </trkpt>
      <trkpt lat="27.943453" lon="-15.478971">
        <ele>836.62</ele>
        <time>2018-03-17T13:23:17Z</time>
      </trkpt>
      <trkpt lat="27.943437" lon="-15.478920">
        <ele>835.81</ele>
        <time>2018-03-17T13:23:21Z</time>
      </trkpt>
      <trkpt lat="27.943424" lon="-15.478864">
        <ele>835.20</ele>
        <time>2018-03-17T13:23:25Z</time>
      </trkpt>
      <trkpt lat="27.943416" lon="-15.478809">
        <ele>834.54</ele>
        <time>2018-03-17T13:23:29Z</time>
      </trkpt>
      <trkpt lat="27.943423" lon="-15.478747">
        <ele>833.88</ele>
        <time>2018-03-17T13:23:33Z</time>
      </trkpt>
      <trkpt lat="27.943436" lon="-15.478687">
        <ele>833.12</ele>
        <time>2018-03-17T13:23:37Z</time>
      </trkpt>
      <trkpt lat="27.943442" lon="-15.478633">
        <ele>832.57</ele>
        <time>2018-03-17T13:23:41Z</time>
      </trkpt>
      <trkpt lat="27.943441" lon="-15.478582">
        <ele>831.92</ele>
        <time>2018-03-17T13:23:45Z</time>
      </trkpt>
      <trkpt lat="27.943447" lon="-15.478525">
        <ele>831.13</ele>
        <time>2018-03-17T13:23:50Z</time>
      </trkpt>
      <trkpt lat="27.943453" lon="-15.478469">
        <ele>830.48</ele>
        <time>2018-03-17T13:23:55Z</time>
      </trkpt>
      <trkpt lat="27.943464" lon="-15.478410">
        <ele>829.54</ele>
        <time>2018-03-17T13:23:59Z</time>
      </trkpt>
      <trkpt lat="27.943468" lon="-15.478355">
        <ele>828.82</ele>
        <time>2018-03-17T13:24:03Z</time>
      </trkpt>
      <trkpt lat="27.943442" lon="-15.478301">
        <ele>828.62</ele>
        <time>2018-03-17T13:24:08Z</time>
      </trkpt>
      <trkpt lat="27.943421" lon="-15.478252">
        <ele>828.61</ele>
        <time>2018-03-17T13:24:12Z</time>
      </trkpt>
      <trkpt lat="27.943400" lon="-15.478201">
        <ele>828.46</ele>
        <time>2018-03-17T13:24:16Z</time>
      </trkpt>
      <trkpt lat="27.943377" lon="-15.478153">
        <ele>828.34</ele>
        <time>2018-03-17T13:24:20Z</time>
      </trkpt>
      <trkpt lat="27.943354" lon="-15.478095">
        <ele>828.14</ele>
        <time>2018-03-17T13:24:25Z</time>
      </trkpt>
      <trkpt lat="27.943338" lon="-15.478045">
        <ele>827.96</ele>
        <time>2018-03-17T13:24:29Z</time>
      </trkpt>
      <trkpt lat="27.943321" lon="-15.477998">
        <ele>827.86</ele>
        <time>2018-03-17T13:24:33Z</time>
      </trkpt>
      <trkpt lat="27.943291" lon="-15.477945">
        <ele>827.67</ele>
        <time>2018-03-17T13:24:38Z</time>
      </trkpt>
      <trkpt lat="27.943268" lon="-15.477900">
        <ele>827.41</ele>
        <time>2018-03-17T13:24:42Z</time>
      </trkpt>
      <trkpt lat="27.943252" lon="-15.477844">
        <ele>827.11</ele>
        <time>2018-03-17T13:24:46Z</time>
      </trkpt>
      <trkpt lat="27.943232" lon="-15.477795">
        <ele>826.74</ele>
        <time>2018-03-17T13:24:50Z</time>
      </trkpt>
      <trkpt lat="27.943216" lon="-15.477735">
        <ele>826.01</ele>
        <time>2018-03-17T13:24:55Z</time>
      </trkpt>
      <trkpt lat="27.943203" lon="-15.477675">
        <ele>825.12</ele>
        <time>2018-03-17T13:25:00Z</time>
      </trkpt>
      <trkpt lat="27.943190" lon="-15.477620">
        <ele>824.21</ele>
        <time>2018-03-17T13:25:06Z</time>
      </trkpt>
      <trkpt lat="27.943187" lon="-15.477564">
        <ele>823.42</ele>
        <time>2018-03-17T13:25:11Z</time>
      </trkpt>
      <trkpt lat="27.943191" lon="-15.477500">
        <ele>822.58</ele>
        <time>2018-03-17T13:25:16Z</time>
      </trkpt>
      <trkpt lat="27.943194" lon="-15.477442">
        <ele>821.18</ele>
        <time>2018-03-17T13:25:21Z</time>
      </trkpt>
      <trkpt lat="27.943195" lon="-15.477385">
        <ele>819.84</ele>
        <time>2018-03-17T13:25:26Z</time>
      </trkpt>
      <trkpt lat="27.943184" lon="-15.477329">
        <ele>818.45</ele>
        <time>2018-03-17T13:25:34Z</time>
      </trkpt>
      <trkpt lat="27.943159" lon="-15.477277">
        <ele>817.17</ele>
        <time>2018-03-17T13:25:40Z</time>
      </trkpt>
      <trkpt lat="27.943132" lon="-15.477229">
        <ele>815.75</ele>
        <time>2018-03-17T13:25:45Z</time>
      </trkpt>
      <trkpt lat="27.943084" lon="-15.477216">
        <ele>815.19</ele>
        <time>2018-03-17T13:25:53Z</time>
      </trkpt>
      <trkpt lat="27.943036" lon="-15.477212">
        <ele>814.57</ele>
        <time>2018-03-17T13:26:01Z</time>
      </trkpt>
      <trkpt lat="27.942985" lon="-15.477233">
        <ele>814.06</ele>
        <time>2018-03-17T13:26:07Z</time>
      </trkpt>
      <trkpt lat="27.942939" lon="-15.477230">
        <ele>813.12</ele>
        <time>2018-03-17T13:26:14Z</time>
      </trkpt>
      <trkpt lat="27.942890" lon="-15.477208">
        <ele>811.81</ele>
        <time>2018-03-17T13:26:44Z</time>
      </trkpt>
      <trkpt lat="27.942866" lon="-15.477252">
        <ele>812.35</ele>
        <time>2018-03-17T13:32:04Z</time>
      </trkpt>
      <trkpt lat="27.942867" lon="-15.477303">
        <ele>813.49</ele>
        <time>2018-03-17T13:32:10Z</time>
      </trkpt>
      <trkpt lat="27.942865" lon="-15.477359">
        <ele>814.79</ele>
        <time>2018-03-17T13:32:16Z</time>
      </trkpt>
      <trkpt lat="27.942869" lon="-15.477410">
        <ele>815.93</ele>
        <time>2018-03-17T13:33:19Z</time>
      </trkpt>
      <trkpt lat="27.942912" lon="-15.477446">
        <ele>817.68</ele>
        <time>2018-03-17T13:33:30Z</time>
      </trkpt>
      <trkpt lat="27.942860" lon="-15.477439">
        <ele>816.45</ele>
        <time>2018-03-17T13:34:13Z</time>
      </trkpt>
      <trkpt lat="27.942795" lon="-15.477402">
        <ele>814.26</ele>
        <time>2018-03-17T13:34:32Z</time>
      </trkpt>
      <trkpt lat="27.942796" lon="-15.477382">
        <ele>813.82</ele>
        <time>2018-03-17T13:35:48Z</time>
      </trkpt>
      <trkpt lat="27.942829" lon="-15.477337">
        <ele>813.56</ele>
        <time>2018-03-17T13:38:40Z</time>
      </trkpt>
      <trkpt lat="27.942855" lon="-15.477288">
        <ele>812.95</ele>
        <time>2018-03-17T13:38:43Z</time>
      </trkpt>
      <trkpt lat="27.942877" lon="-15.477225">
        <ele>811.92</ele>
        <time>2018-03-17T13:38:47Z</time>
      </trkpt>
      <trkpt lat="27.942906" lon="-15.477168">
        <ele>811.41</ele>
        <time>2018-03-17T13:38:51Z</time>
      </trkpt>
      <trkpt lat="27.942943" lon="-15.477117">
        <ele>811.38</ele>
        <time>2018-03-17T13:38:55Z</time>
      </trkpt>
      <trkpt lat="27.942970" lon="-15.477070">
        <ele>811.14</ele>
        <time>2018-03-17T13:38:58Z</time>
      </trkpt>
      <trkpt lat="27.943026" lon="-15.477025">
        <ele>811.65</ele>
        <time>2018-03-17T13:39:01Z</time>
      </trkpt>
      <trkpt lat="27.943064" lon="-15.476988">
        <ele>811.75</ele>
        <time>2018-03-17T13:39:04Z</time>
      </trkpt>
      <trkpt lat="27.943080" lon="-15.476939">
        <ele>811.19</ele>
        <time>2018-03-17T13:39:08Z</time>
      </trkpt>
      <trkpt lat="27.943071" lon="-15.476882">
        <ele>810.23</ele>
        <time>2018-03-17T13:39:14Z</time>
      </trkpt>
      <trkpt lat="27.943100" lon="-15.476830">
        <ele>809.79</ele>
        <time>2018-03-17T13:39:20Z</time>
      </trkpt>
      <trkpt lat="27.943149" lon="-15.476794">
        <ele>809.51</ele>
        <time>2018-03-17T13:39:25Z</time>
      </trkpt>
      <trkpt lat="27.943186" lon="-15.476758">
        <ele>809.39</ele>
        <time>2018-03-17T13:39:35Z</time>
      </trkpt>
      <trkpt lat="27.943176" lon="-15.476706">
        <ele>808.46</ele>
        <time>2018-03-17T13:39:59Z</time>
      </trkpt>
      <trkpt lat="27.943132" lon="-15.476695">
        <ele>808.03</ele>
        <time>2018-03-17T13:40:10Z</time>
      </trkpt>
      <trkpt lat="27.943095" lon="-15.476656">
        <ele>807.11</ele>
        <time>2018-03-17T13:40:17Z</time>
      </trkpt>
      <trkpt lat="27.943056" lon="-15.476618">
        <ele>806.02</ele>
        <time>2018-03-17T13:40:22Z</time>
      </trkpt>
      <trkpt lat="27.943029" lon="-15.476572">
        <ele>804.56</ele>
        <time>2018-03-17T13:40:28Z</time>
      </trkpt>
      <trkpt lat="27.943021" lon="-15.476513">
        <ele>803.20</ele>
        <time>2018-03-17T13:40:33Z</time>
      </trkpt>
      <trkpt lat="27.943027" lon="-15.476461">
        <ele>802.19</ele>
        <time>2018-03-17T13:40:37Z</time>
      </trkpt>
      <trkpt lat="27.943024" lon="-15.476406">
        <ele>800.93</ele>
        <time>2018-03-17T13:40:43Z</time>
      </trkpt>
      <trkpt lat="27.943009" lon="-15.476357">
        <ele>799.65</ele>
        <time>2018-03-17T13:40:48Z</time>
      </trkpt>
      <trkpt lat="27.943020" lon="-15.476304">
        <ele>798.63</ele>
        <time>2018-03-17T13:40:55Z</time>
      </trkpt>
      <trkpt lat="27.943016" lon="-15.476253">
        <ele>797.47</ele>
        <time>2018-03-17T13:41:03Z</time>
      </trkpt>
      <trkpt lat="27.942984" lon="-15.476211">
        <ele>796.07</ele>
        <time>2018-03-17T13:41:08Z</time>
      </trkpt>
      <trkpt lat="27.942968" lon="-15.476164">
        <ele>794.60</ele>
        <time>2018-03-17T13:41:13Z</time>
      </trkpt>
      <trkpt lat="27.942954" lon="-15.476115">
        <ele>793.32</ele>
        <time>2018-03-17T13:41:19Z</time>
      </trkpt>
      <trkpt lat="27.942967" lon="-15.476061">
        <ele>792.91</ele>
        <time>2018-03-17T13:41:25Z</time>
      </trkpt>
      <trkpt lat="27.942957" lon="-15.476010">
        <ele>792.27</ele>
        <time>2018-03-17T13:41:30Z</time>
      </trkpt>
      <trkpt lat="27.942944" lon="-15.475954">
        <ele>791.50</ele>
        <time>2018-03-17T13:41:35Z</time>
      </trkpt>
      <trkpt lat="27.942946" lon="-15.475894">
        <ele>790.83</ele>
        <time>2018-03-17T13:41:40Z</time>
      </trkpt>
      <trkpt lat="27.942923" lon="-15.475847">
        <ele>789.89</ele>
        <time>2018-03-17T13:41:44Z</time>
      </trkpt>
      <trkpt lat="27.942902" lon="-15.475791">
        <ele>788.70</ele>
        <time>2018-03-17T13:41:48Z</time>
      </trkpt>
      <trkpt lat="27.942910" lon="-15.475732">
        <ele>788.02</ele>
        <time>2018-03-17T13:41:53Z</time>
      </trkpt>
      <trkpt lat="27.942895" lon="-15.475684">
        <ele>787.08</ele>
        <time>2018-03-17T13:41:57Z</time>
      </trkpt>
      <trkpt lat="27.942888" lon="-15.475632">
        <ele>786.29</ele>
        <time>2018-03-17T13:42:01Z</time>
      </trkpt>
      <trkpt lat="27.942924" lon="-15.475584">
        <ele>786.64</ele>
        <time>2018-03-17T13:42:06Z</time>
      </trkpt>
      <trkpt lat="27.942955" lon="-15.475545">
        <ele>786.96</ele>
        <time>2018-03-17T13:42:11Z</time>
      </trkpt>
      <trkpt lat="27.942986" lon="-15.475505">
        <ele>787.11</ele>
        <time>2018-03-17T13:42:18Z</time>
      </trkpt>
      <trkpt lat="27.943023" lon="-15.475461">
        <ele>787.41</ele>
        <time>2018-03-17T13:42:23Z</time>
      </trkpt>
      <trkpt lat="27.943049" lon="-15.475411">
        <ele>787.28</ele>
        <time>2018-03-17T13:42:29Z</time>
      </trkpt>
      <trkpt lat="27.943070" lon="-15.475365">
        <ele>786.70</ele>
        <time>2018-03-17T13:42:36Z</time>
      </trkpt>
      <trkpt lat="27.943088" lon="-15.475311">
        <ele>785.69</ele>
        <time>2018-03-17T13:42:42Z</time>
      </trkpt>
      <trkpt lat="27.943108" lon="-15.475260">
        <ele>784.67</ele>
        <time>2018-03-17T13:42:47Z</time>
      </trkpt>
      <trkpt lat="27.943144" lon="-15.475213">
        <ele>783.65</ele>
        <time>2018-03-17T13:42:51Z</time>
      </trkpt>
      <trkpt lat="27.943147" lon="-15.475159">
        <ele>782.46</ele>
        <time>2018-03-17T13:42:56Z</time>
      </trkpt>
      <trkpt lat="27.943152" lon="-15.475100">
        <ele>781.21</ele>
        <time>2018-03-17T13:43:03Z</time>
      </trkpt>
      <trkpt lat="27.943161" lon="-15.475043">
        <ele>779.98</ele>
        <time>2018-03-17T13:43:09Z</time>
      </trkpt>
      <trkpt lat="27.943175" lon="-15.474994">
        <ele>778.96</ele>
        <time>2018-03-17T13:43:19Z</time>
      </trkpt>
      <trkpt lat="27.943168" lon="-15.474941">
        <ele>778.40</ele>
        <time>2018-03-17T13:43:26Z</time>
      </trkpt>
      <trkpt lat="27.943152" lon="-15.474893">
        <ele>777.82</ele>
        <time>2018-03-17T13:43:31Z</time>
      </trkpt>
      <trkpt lat="27.943151" lon="-15.474838">
        <ele>777.21</ele>
        <time>2018-03-17T13:43:36Z</time>
      </trkpt>
      <trkpt lat="27.943125" lon="-15.474789">
        <ele>776.79</ele>
        <time>2018-03-17T13:43:43Z</time>
      </trkpt>
      <trkpt lat="27.943123" lon="-15.474728">
        <ele>776.12</ele>
        <time>2018-03-17T13:43:50Z</time>
      </trkpt>
      <trkpt lat="27.943115" lon="-15.474674">
        <ele>775.21</ele>
        <time>2018-03-17T13:44:03Z</time>
      </trkpt>
      <trkpt lat="27.943129" lon="-15.474620">
        <ele>774.35</ele>
        <time>2018-03-17T13:44:10Z</time>
      </trkpt>
      <trkpt lat="27.943165" lon="-15.474578">
        <ele>773.64</ele>
        <time>2018-03-17T13:44:18Z</time>
      </trkpt>
      <trkpt lat="27.943199" lon="-15.474535">
        <ele>773.07</ele>
        <time>2018-03-17T13:44:26Z</time>
      </trkpt>
      <trkpt lat="27.943244" lon="-15.474510">
        <ele>772.71</ele>
        <time>2018-03-17T13:44:33Z</time>
      </trkpt>
      <trkpt lat="27.943291" lon="-15.474481">
        <ele>772.49</ele>
        <time>2018-03-17T13:44:40Z</time>
      </trkpt>
      <trkpt lat="27.943334" lon="-15.474443">
        <ele>772.08</ele>
        <time>2018-03-17T13:44:45Z</time>
      </trkpt>
      <trkpt lat="27.943372" lon="-15.474409">
        <ele>771.23</ele>
        <time>2018-03-17T13:44:52Z</time>
      </trkpt>
      <trkpt lat="27.943400" lon="-15.474366">
        <ele>770.32</ele>
        <time>2018-03-17T13:45:01Z</time>
      </trkpt>
      <trkpt lat="27.943422" lon="-15.474315">
        <ele>769.31</ele>
        <time>2018-03-17T13:45:08Z</time>
      </trkpt>
      <trkpt lat="27.943467" lon="-15.474290">
        <ele>768.54</ele>
        <time>2018-03-17T13:45:13Z</time>
      </trkpt>
      <trkpt lat="27.943504" lon="-15.474254">
        <ele>767.66</ele>
        <time>2018-03-17T13:45:19Z</time>
      </trkpt>
      <trkpt lat="27.943521" lon="-15.474204">
        <ele>766.66</ele>
        <time>2018-03-17T13:45:28Z</time>
      </trkpt>
      <trkpt lat="27.943562" lon="-15.474179">
        <ele>765.76</ele>
        <time>2018-03-17T13:45:39Z</time>
      </trkpt>
      <trkpt lat="27.943590" lon="-15.474136">
        <ele>764.66</ele>
        <time>2018-03-17T13:45:47Z</time>
      </trkpt>
      <trkpt lat="27.943597" lon="-15.474083">
        <ele>763.31</ele>
        <time>2018-03-17T13:45:54Z</time>
      </trkpt>
      <trkpt lat="27.943604" lon="-15.474030">
        <ele>762.19</ele>
        <time>2018-03-17T13:46:01Z</time>
      </trkpt>
      <trkpt lat="27.943611" lon="-15.473976">
        <ele>760.99</ele>
        <time>2018-03-17T13:46:09Z</time>
      </trkpt>
      <trkpt lat="27.943617" lon="-15.473918">
        <ele>759.62</ele>
        <time>2018-03-17T13:46:17Z</time>
      </trkpt>
      <trkpt lat="27.943631" lon="-15.473868">
        <ele>758.66</ele>
        <time>2018-03-17T13:46:24Z</time>
      </trkpt>
      <trkpt lat="27.943607" lon="-15.473824">
        <ele>757.91</ele>
        <time>2018-03-17T13:46:31Z</time>
      </trkpt>
      <trkpt lat="27.943632" lon="-15.473776">
        <ele>756.91</ele>
        <time>2018-03-17T13:46:37Z</time>
      </trkpt>
      <trkpt lat="27.943667" lon="-15.473733">
        <ele>756.05</ele>
        <time>2018-03-17T13:46:42Z</time>
      </trkpt>
      <trkpt lat="27.943657" lon="-15.473683">
        <ele>755.04</ele>
        <time>2018-03-17T13:46:50Z</time>
      </trkpt>
      <trkpt lat="27.943664" lon="-15.473630">
        <ele>754.06</ele>
        <time>2018-03-17T13:46:56Z</time>
      </trkpt>
      <trkpt lat="27.943679" lon="-15.473577">
        <ele>752.86</ele>
        <time>2018-03-17T13:47:03Z</time>
      </trkpt>
      <trkpt lat="27.943679" lon="-15.473523">
        <ele>751.71</ele>
        <time>2018-03-17T13:47:10Z</time>
      </trkpt>
      <trkpt lat="27.943685" lon="-15.473471">
        <ele>750.64</ele>
        <time>2018-03-17T13:47:17Z</time>
      </trkpt>
      <trkpt lat="27.943702" lon="-15.473417">
        <ele>749.45</ele>
        <time>2018-03-17T13:47:24Z</time>
      </trkpt>
      <trkpt lat="27.943657" lon="-15.473406">
        <ele>749.42</ele>
        <time>2018-03-17T13:47:28Z</time>
      </trkpt>
      <trkpt lat="27.943627" lon="-15.473362">
        <ele>748.62</ele>
        <time>2018-03-17T13:47:37Z</time>
      </trkpt>
      <trkpt lat="27.943614" lon="-15.473309">
        <ele>747.66</ele>
        <time>2018-03-17T13:47:46Z</time>
      </trkpt>
      <trkpt lat="27.943626" lon="-15.473250">
        <ele>746.81</ele>
        <time>2018-03-17T13:47:52Z</time>
      </trkpt>
      <trkpt lat="27.943635" lon="-15.473197">
        <ele>746.01</ele>
        <time>2018-03-17T13:47:57Z</time>
      </trkpt>
      <trkpt lat="27.943650" lon="-15.473144">
        <ele>745.24</ele>
        <time>2018-03-17T13:48:02Z</time>
      </trkpt>
      <trkpt lat="27.943665" lon="-15.473090">
        <ele>744.58</ele>
        <time>2018-03-17T13:48:14Z</time>
      </trkpt>
      <trkpt lat="27.943672" lon="-15.473038">
        <ele>743.65</ele>
        <time>2018-03-17T13:48:56Z</time>
      </trkpt>
      <trkpt lat="27.943703" lon="-15.472985">
        <ele>742.47</ele>
        <time>2018-03-17T13:49:38Z</time>
      </trkpt>
      <trkpt lat="27.943708" lon="-15.472932">
        <ele>741.23</ele>
        <time>2018-03-17T13:49:46Z</time>
      </trkpt>
      <trkpt lat="27.943699" lon="-15.472880">
        <ele>740.01</ele>
        <time>2018-03-17T13:49:56Z</time>
      </trkpt>
      <trkpt lat="27.943709" lon="-15.472829">
        <ele>738.95</ele>
        <time>2018-03-17T13:50:04Z</time>
      </trkpt>
      <trkpt lat="27.943720" lon="-15.472779">
        <ele>737.83</ele>
        <time>2018-03-17T13:50:11Z</time>
      </trkpt>
      <trkpt lat="27.943722" lon="-15.472727">
        <ele>736.51</ele>
        <time>2018-03-17T13:50:19Z</time>
      </trkpt>
      <trkpt lat="27.943753" lon="-15.472687">
        <ele>735.75</ele>
        <time>2018-03-17T13:50:26Z</time>
      </trkpt>
      <trkpt lat="27.943769" lon="-15.472639">
        <ele>734.61</ele>
        <time>2018-03-17T13:50:34Z</time>
      </trkpt>
      <trkpt lat="27.943810" lon="-15.472605">
        <ele>734.11</ele>
        <time>2018-03-17T13:50:46Z</time>
      </trkpt>
      <trkpt lat="27.943790" lon="-15.472607">
        <ele>787.03</ele>
        <time>2017-04-01T13:54:51Z</time>
      </trkpt>
      <trkpt lat="27.943865" lon="-15.472542">
        <ele>780.02</ele>
        <time>2017-04-01T13:55:24Z</time>
      </trkpt>
      <trkpt lat="27.943927" lon="-15.472465">
        <ele>776.01</ele>
        <time>2017-04-01T13:55:30Z</time>
      </trkpt>
      <trkpt lat="27.943984" lon="-15.472383">
        <ele>777.01</ele>
        <time>2017-04-01T13:55:37Z</time>
      </trkpt>
      <trkpt lat="27.944063" lon="-15.472326">
        <ele>774.09</ele>
        <time>2017-04-01T13:55:43Z</time>
      </trkpt>
      <trkpt lat="27.944156" lon="-15.472274">
        <ele>769.08</ele>
        <time>2017-04-01T13:55:52Z</time>
      </trkpt>
      <trkpt lat="27.944248" lon="-15.472249">
        <ele>768.07</ele>
        <time>2017-04-01T13:56:01Z</time>
      </trkpt>
      <trkpt lat="27.944348" lon="-15.472249">
        <ele>767.03</ele>
        <time>2017-04-01T13:56:07Z</time>
      </trkpt>
      <trkpt lat="27.944440" lon="-15.472260">
        <ele>769.03</ele>
        <time>2017-04-01T13:56:17Z</time>
      </trkpt>
      <trkpt lat="27.944534" lon="-15.472257">
        <ele>767.02</ele>
        <time>2017-04-01T13:56:25Z</time>
      </trkpt>
      <trkpt lat="27.944635" lon="-15.472256">
        <ele>768.09</ele>
        <time>2017-04-01T13:56:33Z</time>
      </trkpt>
      <trkpt lat="27.944714" lon="-15.472315">
        <ele>766.06</ele>
        <time>2017-04-01T13:56:40Z</time>
      </trkpt>
      <trkpt lat="27.944811" lon="-15.472364">
        <ele>765.05</ele>
        <time>2017-04-01T13:56:48Z</time>
      </trkpt>
      <trkpt lat="27.944887" lon="-15.472425">
        <ele>764.03</ele>
        <time>2017-04-01T13:56:57Z</time>
      </trkpt>
      <trkpt lat="27.944947" lon="-15.472509">
        <ele>766.02</ele>
        <time>2017-04-01T13:57:06Z</time>
      </trkpt>
      <trkpt lat="27.945015" lon="-15.472580">
        <ele>764.01</ele>
        <time>2017-04-01T13:57:14Z</time>
      </trkpt>
      <trkpt lat="27.945042" lon="-15.472677">
        <ele>760.01</ele>
        <time>2017-04-01T13:57:21Z</time>
      </trkpt>
      <trkpt lat="27.945125" lon="-15.472760">
        <ele>761.07</ele>
        <time>2017-04-01T13:57:28Z</time>
      </trkpt>
      <trkpt lat="27.945138" lon="-15.472863">
        <ele>759.07</ele>
        <time>2017-04-01T13:57:40Z</time>
      </trkpt>
      <trkpt lat="27.945234" lon="-15.472904">
        <ele>758.04</ele>
        <time>2017-04-01T13:57:47Z</time>
      </trkpt>
      <trkpt lat="27.945240" lon="-15.473016">
        <ele>755.07</ele>
        <time>2017-04-01T13:57:54Z</time>
      </trkpt>
      <trkpt lat="27.945234" lon="-15.473117">
        <ele>754.05</ele>
        <time>2017-04-01T13:58:03Z</time>
      </trkpt>
      <trkpt lat="27.945298" lon="-15.473193">
        <ele>756.03</ele>
        <time>2017-04-01T13:58:12Z</time>
      </trkpt>
      <trkpt lat="27.945389" lon="-15.473252">
        <ele>756.02</ele>
        <time>2017-04-01T13:58:26Z</time>
      </trkpt>
      <trkpt lat="27.945482" lon="-15.473284">
        <ele>753.04</ele>
        <time>2017-04-01T13:58:37Z</time>
      </trkpt>
      <trkpt lat="27.945390" lon="-15.473268">
        <ele>746.00</ele>
        <time>2017-04-01T13:59:02Z</time>
      </trkpt>
      <trkpt lat="27.945496" lon="-15.473252">
        <ele>744.02</ele>
        <time>2017-04-01T13:59:13Z</time>
      </trkpt>
      <trkpt lat="27.945587" lon="-15.473289">
        <ele>744.01</ele>
        <time>2017-04-01T13:59:24Z</time>
      </trkpt>
      <trkpt lat="27.945681" lon="-15.473334">
        <ele>741.08</ele>
        <time>2017-04-01T13:59:38Z</time>
      </trkpt>
      <trkpt lat="27.945794" lon="-15.473317">
        <ele>743.04</ele>
        <time>2017-04-01T13:59:45Z</time>
      </trkpt>
      <trkpt lat="27.945709" lon="-15.473256">
        <ele>741.09</ele>
        <time>2017-04-01T13:59:52Z</time>
      </trkpt>
      <trkpt lat="27.945614" lon="-15.473144">
        <ele>739.01</ele>
        <time>2017-04-01T14:00:06Z</time>
      </trkpt>
      <trkpt lat="27.945551" lon="-15.473065">
        <ele>734.06</ele>
        <time>2017-04-01T14:00:19Z</time>
      </trkpt>
      <trkpt lat="27.945482" lon="-15.472982">
        <ele>730.02</ele>
        <time>2017-04-01T14:00:28Z</time>
      </trkpt>
      <trkpt lat="27.945423" lon="-15.472904">
        <ele>729.02</ele>
        <time>2017-04-01T14:00:37Z</time>
      </trkpt>
      <trkpt lat="27.945393" lon="-15.472798">
        <ele>732.08</ele>
        <time>2017-04-01T14:00:44Z</time>
      </trkpt>
      <trkpt lat="27.945375" lon="-15.472691">
        <ele>736.05</ele>
        <time>2017-04-01T14:00:50Z</time>
      </trkpt>
      <trkpt lat="27.945395" lon="-15.472590">
        <ele>742.06</ele>
        <time>2017-04-01T14:00:57Z</time>
      </trkpt>
      <trkpt lat="27.945471" lon="-15.472533">
        <ele>742.01</ele>
        <time>2017-04-01T14:01:08Z</time>
      </trkpt>
      <trkpt lat="27.945539" lon="-15.472447">
        <ele>748.01</ele>
        <time>2017-04-01T14:01:36Z</time>
      </trkpt>
      <trkpt lat="27.945567" lon="-15.472337">
        <ele>752.03</ele>
        <time>2017-04-01T14:01:41Z</time>
      </trkpt>
      <trkpt lat="27.945635" lon="-15.472260">
        <ele>756.08</ele>
        <time>2017-04-01T14:01:51Z</time>
      </trkpt>
      <trkpt lat="27.945682" lon="-15.472351">
        <ele>755.07</ele>
        <time>2017-04-01T14:02:02Z</time>
      </trkpt>
      <trkpt lat="27.945661" lon="-15.472456">
        <ele>758.03</ele>
        <time>2017-04-01T14:02:06Z</time>
      </trkpt>
      <trkpt lat="27.945634" lon="-15.472561">
        <ele>762.05</ele>
        <time>2017-04-01T14:02:20Z</time>
      </trkpt>
      <trkpt lat="27.945696" lon="-15.472484">
        <ele>768.04</ele>
        <time>2017-04-01T14:02:46Z</time>
      </trkpt>
      <trkpt lat="27.945722" lon="-15.472340">
        <ele>771.02</ele>
        <time>2017-04-01T14:03:04Z</time>
      </trkpt>
      <trkpt lat="27.945758" lon="-15.472238">
        <ele>770.09</ele>
        <time>2017-04-01T14:03:12Z</time>
      </trkpt>
      <trkpt lat="27.945796" lon="-15.472135">
        <ele>769.10</ele>
        <time>2017-04-01T14:03:36Z</time>
      </trkpt>
      <trkpt lat="27.945807" lon="-15.472032">
        <ele>770.02</ele>
        <time>2017-04-01T14:03:44Z</time>
      </trkpt>
      <trkpt lat="27.945791" lon="-15.471930">
        <ele>771.02</ele>
        <time>2017-04-01T14:03:52Z</time>
      </trkpt>
      <trkpt lat="27.945822" lon="-15.471822">
        <ele>770.01</ele>
        <time>2017-04-01T14:04:00Z</time>
      </trkpt>
      <trkpt lat="27.945799" lon="-15.471721">
        <ele>770.03</ele>
        <time>2017-04-01T14:04:08Z</time>
      </trkpt>
      <trkpt lat="27.945797" lon="-15.471619">
        <ele>769.06</ele>
        <time>2017-04-01T14:04:15Z</time>
      </trkpt>
      <trkpt lat="27.945775" lon="-15.471516">
        <ele>768.06</ele>
        <time>2017-04-01T14:04:24Z</time>
      </trkpt>
      <trkpt lat="27.945762" lon="-15.471398">
        <ele>768.07</ele>
        <time>2017-04-01T14:04:31Z</time>
      </trkpt>
      <trkpt lat="27.945746" lon="-15.471282">
        <ele>770.08</ele>
        <time>2017-04-01T14:04:39Z</time>
      </trkpt>
      <trkpt lat="27.945754" lon="-15.471175">
        <ele>770.08</ele>
        <time>2017-04-01T14:04:47Z</time>
      </trkpt>
      <trkpt lat="27.945848" lon="-15.471199">
        <ele>770.02</ele>
        <time>2017-04-01T14:04:57Z</time>
      </trkpt>
      <trkpt lat="27.945935" lon="-15.471269">
        <ele>768.03</ele>
        <time>2017-04-01T14:05:04Z</time>
      </trkpt>
      <trkpt lat="27.946036" lon="-15.471315">
        <ele>767.04</ele>
        <time>2017-04-01T14:05:09Z</time>
      </trkpt>
      <trkpt lat="27.946119" lon="-15.471354">
        <ele>768.06</ele>
        <time>2017-04-01T14:05:14Z</time>
      </trkpt>
      <trkpt lat="27.946134" lon="-15.471455">
        <ele>768.01</ele>
        <time>2017-04-01T14:05:22Z</time>
      </trkpt>
      <trkpt lat="27.946116" lon="-15.471557">
        <ele>766.01</ele>
        <time>2017-04-01T14:05:30Z</time>
      </trkpt>
      <trkpt lat="27.946163" lon="-15.471648">
        <ele>766.03</ele>
        <time>2017-04-01T14:05:35Z</time>
      </trkpt>
      <trkpt lat="27.946118" lon="-15.471748">
        <ele>765.07</ele>
        <time>2017-04-01T14:05:43Z</time>
      </trkpt>
      <trkpt lat="27.946168" lon="-15.471843">
        <ele>772.07</ele>
        <time>2017-04-01T14:05:51Z</time>
      </trkpt>
      <trkpt lat="27.946186" lon="-15.471958">
        <ele>772.10</ele>
        <time>2017-04-01T14:06:00Z</time>
      </trkpt>
      <trkpt lat="27.946203" lon="-15.472068">
        <ele>776.06</ele>
        <time>2017-04-01T14:06:07Z</time>
      </trkpt>
      <trkpt lat="27.946191" lon="-15.472184">
        <ele>778.08</ele>
        <time>2017-04-01T14:06:17Z</time>
      </trkpt>
      <trkpt lat="27.946264" lon="-15.472255">
        <ele>777.07</ele>
        <time>2017-04-01T14:06:24Z</time>
      </trkpt>
      <trkpt lat="27.946282" lon="-15.472371">
        <ele>778.03</ele>
        <time>2017-04-01T14:06:34Z</time>
      </trkpt>
      <trkpt lat="27.946280" lon="-15.472487">
        <ele>781.06</ele>
        <time>2017-04-01T14:06:45Z</time>
      </trkpt>
      <trkpt lat="27.946305" lon="-15.472588">
        <ele>781.00</ele>
        <time>2017-04-01T14:06:52Z</time>
      </trkpt>
      <trkpt lat="27.946353" lon="-15.472685">
        <ele>785.02</ele>
        <time>2017-04-01T14:07:00Z</time>
      </trkpt>
      <trkpt lat="27.946376" lon="-15.472788">
        <ele>786.01</ele>
        <time>2017-04-01T14:07:07Z</time>
      </trkpt>
      <trkpt lat="27.946370" lon="-15.472891">
        <ele>789.10</ele>
        <time>2017-04-01T14:07:14Z</time>
      </trkpt>
      <trkpt lat="27.946383" lon="-15.472992">
        <ele>788.05</ele>
        <time>2017-04-01T14:07:24Z</time>
      </trkpt>
      <trkpt lat="27.946423" lon="-15.473087">
        <ele>786.05</ele>
        <time>2017-04-01T14:07:32Z</time>
      </trkpt>
      <trkpt lat="27.946502" lon="-15.473153">
        <ele>784.08</ele>
        <time>2017-04-01T14:07:38Z</time>
      </trkpt>
      <trkpt lat="27.946568" lon="-15.473237">
        <ele>783.05</ele>
        <time>2017-04-01T14:07:47Z</time>
      </trkpt>
      <trkpt lat="27.946640" lon="-15.473330">
        <ele>782.02</ele>
        <time>2017-04-01T14:07:54Z</time>
      </trkpt>
      <trkpt lat="27.946711" lon="-15.473407">
        <ele>783.05</ele>
        <time>2017-04-01T14:08:04Z</time>
      </trkpt>
      <trkpt lat="27.946792" lon="-15.473462">
        <ele>786.03</ele>
        <time>2017-04-01T14:08:10Z</time>
      </trkpt>
      <trkpt lat="27.946853" lon="-15.473546">
        <ele>787.08</ele>
        <time>2017-04-01T14:08:18Z</time>
      </trkpt>
      <trkpt lat="27.946872" lon="-15.473647">
        <ele>786.03</ele>
        <time>2017-04-01T14:08:24Z</time>
      </trkpt>
      <trkpt lat="27.946970" lon="-15.473717">
        <ele>794.03</ele>
        <time>2017-04-01T14:08:34Z</time>
      </trkpt>
      <trkpt lat="27.946887" lon="-15.473760">
        <ele>793.01</ele>
        <time>2017-04-01T14:09:09Z</time>
      </trkpt>
    </trkseg>
  </trk>
</gpx>
